<?xml version="1.0" encoding="UTF-8" standalone="no" ?>
<gpx xmlns="http://www.topografix.com/GPX/1/1" xmlns:xsi="http://www.w3.org/2001/XMLSchema-instance" xsi:schemaLocation="http://www.topografix.com/GPX/1/1 http://www.topografix.com/GPX/1/1/gpx.xsd" version="1.1" creator="VisuGPX - https://www.visugpx.com">
  <metadata>
    <name>QUEYRASS VTT 4-5 jours </name>
  </metadata>
  <trk>
    <name><![CDATA[QUEYRASS VTT 4-5 jours _1]]></name>
    <trkseg>
      <trkpt lat="44.86836" lon="6.72122">
        <ele>1605</ele>
        <time>2020-08-01T07:27:01Z</time>
      </trkpt>
      <trkpt lat="44.86836" lon="6.72122">
        <ele>1605</ele>
        <time>2020-08-01T07:27:02Z</time>
      </trkpt>
      <trkpt lat="44.86836" lon="6.72122">
        <ele>1605</ele>
        <time>2020-08-01T07:27:10Z</time>
      </trkpt>
      <trkpt lat="44.86839" lon="6.72121">
        <ele>1605</ele>
        <time>2020-08-01T07:27:12Z</time>
      </trkpt>
      <trkpt lat="44.86846" lon="6.72121">
        <ele>1605</ele>
        <time>2020-08-01T07:27:16Z</time>
      </trkpt>
      <trkpt lat="44.86848" lon="6.72123">
        <ele>1606</ele>
        <time>2020-08-01T07:27:17Z</time>
      </trkpt>
      <trkpt lat="44.8685" lon="6.72125">
        <ele>1606</ele>
        <time>2020-08-01T07:27:18Z</time>
      </trkpt>
      <trkpt lat="44.86851" lon="6.72127">
        <ele>1606</ele>
        <time>2020-08-01T07:27:19Z</time>
      </trkpt>
      <trkpt lat="44.86866" lon="6.72169">
        <ele>1609</ele>
        <time>2020-08-01T07:27:35Z</time>
      </trkpt>
      <trkpt lat="44.86876" lon="6.72201">
        <ele>1611</ele>
        <time>2020-08-01T07:27:49Z</time>
      </trkpt>
      <trkpt lat="44.86892" lon="6.72226">
        <ele>1612</ele>
        <time>2020-08-01T07:28:02Z</time>
      </trkpt>
      <trkpt lat="44.86925" lon="6.72219">
        <ele>1615</ele>
        <time>2020-08-01T07:28:16Z</time>
      </trkpt>
      <trkpt lat="44.86949" lon="6.72204">
        <ele>1618</ele>
        <time>2020-08-01T07:28:25Z</time>
      </trkpt>
      <trkpt lat="44.86962" lon="6.72195">
        <ele>1620</ele>
        <time>2020-08-01T07:28:35Z</time>
      </trkpt>
      <trkpt lat="44.86938" lon="6.72201">
        <ele>1617</ele>
        <time>2020-08-01T07:29:19Z</time>
      </trkpt>
      <trkpt lat="44.86938" lon="6.72198">
        <ele>1617</ele>
        <time>2020-08-01T07:29:20Z</time>
      </trkpt>
      <trkpt lat="44.86938" lon="6.72195">
        <ele>1617</ele>
        <time>2020-08-01T07:29:21Z</time>
      </trkpt>
      <trkpt lat="44.86937" lon="6.72193">
        <ele>1616</ele>
        <time>2020-08-01T07:29:22Z</time>
      </trkpt>
      <trkpt lat="44.86937" lon="6.72191">
        <ele>1617</ele>
        <time>2020-08-01T07:29:23Z</time>
      </trkpt>
      <trkpt lat="44.86937" lon="6.7219">
        <ele>1617</ele>
        <time>2020-08-01T07:29:24Z</time>
      </trkpt>
      <trkpt lat="44.86938" lon="6.72188">
        <ele>1617</ele>
        <time>2020-08-01T07:29:25Z</time>
      </trkpt>
      <trkpt lat="44.86938" lon="6.72186">
        <ele>1617</ele>
        <time>2020-08-01T07:29:26Z</time>
      </trkpt>
      <trkpt lat="44.86939" lon="6.72184">
        <ele>1617</ele>
        <time>2020-08-01T07:29:27Z</time>
      </trkpt>
      <trkpt lat="44.8694" lon="6.72181">
        <ele>1617</ele>
        <time>2020-08-01T07:29:28Z</time>
      </trkpt>
      <trkpt lat="44.8695" lon="6.72146">
        <ele>1620</ele>
        <time>2020-08-01T07:29:42Z</time>
      </trkpt>
      <trkpt lat="44.86951" lon="6.72132">
        <ele>1620</ele>
        <time>2020-08-01T07:29:47Z</time>
      </trkpt>
      <trkpt lat="44.86951" lon="6.72129">
        <ele>1621</ele>
        <time>2020-08-01T07:29:48Z</time>
      </trkpt>
      <trkpt lat="44.86949" lon="6.7211">
        <ele>1621</ele>
        <time>2020-08-01T07:29:56Z</time>
      </trkpt>
      <trkpt lat="44.86948" lon="6.72103">
        <ele>1621</ele>
        <time>2020-08-01T07:29:59Z</time>
      </trkpt>
      <trkpt lat="44.86948" lon="6.721">
        <ele>1621</ele>
        <time>2020-08-01T07:30:00Z</time>
      </trkpt>
      <trkpt lat="44.8694" lon="6.7207">
        <ele>1620</ele>
        <time>2020-08-01T07:30:16Z</time>
      </trkpt>
      <trkpt lat="44.86938" lon="6.7206">
        <ele>1619</ele>
        <time>2020-08-01T07:30:22Z</time>
      </trkpt>
      <trkpt lat="44.86938" lon="6.72057">
        <ele>1619</ele>
        <time>2020-08-01T07:30:23Z</time>
      </trkpt>
      <trkpt lat="44.86937" lon="6.72053">
        <ele>1619</ele>
        <time>2020-08-01T07:30:24Z</time>
      </trkpt>
      <trkpt lat="44.8693" lon="6.72019">
        <ele>1617</ele>
        <time>2020-08-01T07:30:38Z</time>
      </trkpt>
      <trkpt lat="44.86931" lon="6.72017">
        <ele>1618</ele>
        <time>2020-08-01T07:30:39Z</time>
      </trkpt>
      <trkpt lat="44.86932" lon="6.72015">
        <ele>1618</ele>
        <time>2020-08-01T07:30:40Z</time>
      </trkpt>
      <trkpt lat="44.86933" lon="6.72014">
        <ele>1619</ele>
        <time>2020-08-01T07:30:41Z</time>
      </trkpt>
      <trkpt lat="44.86934" lon="6.72013">
        <ele>1619</ele>
        <time>2020-08-01T07:30:42Z</time>
      </trkpt>
      <trkpt lat="44.86936" lon="6.72013">
        <ele>1620</ele>
        <time>2020-08-01T07:30:43Z</time>
      </trkpt>
      <trkpt lat="44.86952" lon="6.72005">
        <ele>1626</ele>
        <time>2020-08-01T07:30:54Z</time>
      </trkpt>
      <trkpt lat="44.86953" lon="6.72004">
        <ele>1626</ele>
        <time>2020-08-01T07:30:55Z</time>
      </trkpt>
      <trkpt lat="44.86971" lon="6.71984">
        <ele>1633</ele>
        <time>2020-08-01T07:31:10Z</time>
      </trkpt>
      <trkpt lat="44.86986" lon="6.71968">
        <ele>1638</ele>
        <time>2020-08-01T07:31:24Z</time>
      </trkpt>
      <trkpt lat="44.87001" lon="6.71951">
        <ele>1641</ele>
        <time>2020-08-01T07:31:37Z</time>
      </trkpt>
      <trkpt lat="44.87001" lon="6.71922">
        <ele>1640</ele>
        <time>2020-08-01T07:31:49Z</time>
      </trkpt>
      <trkpt lat="44.87014" lon="6.71901">
        <ele>1639</ele>
        <time>2020-08-01T07:32:03Z</time>
      </trkpt>
      <trkpt lat="44.87025" lon="6.7191">
        <ele>1641</ele>
        <time>2020-08-01T07:32:10Z</time>
      </trkpt>
      <trkpt lat="44.87026" lon="6.71913">
        <ele>1642</ele>
        <time>2020-08-01T07:32:11Z</time>
      </trkpt>
      <trkpt lat="44.87044" lon="6.71943">
        <ele>1647</ele>
        <time>2020-08-01T07:32:26Z</time>
      </trkpt>
      <trkpt lat="44.87061" lon="6.71993">
        <ele>1649</ele>
        <time>2020-08-01T07:32:42Z</time>
      </trkpt>
      <trkpt lat="44.87088" lon="6.72066">
        <ele>1649</ele>
        <time>2020-08-01T07:33:01Z</time>
      </trkpt>
      <trkpt lat="44.8711" lon="6.72134">
        <ele>1649</ele>
        <time>2020-08-01T07:33:17Z</time>
      </trkpt>
      <trkpt lat="44.87122" lon="6.72194">
        <ele>1651</ele>
        <time>2020-08-01T07:33:32Z</time>
      </trkpt>
      <trkpt lat="44.87131" lon="6.72256">
        <ele>1654</ele>
        <time>2020-08-01T07:33:45Z</time>
      </trkpt>
      <trkpt lat="44.87135" lon="6.72331">
        <ele>1655</ele>
        <time>2020-08-01T07:34:03Z</time>
      </trkpt>
      <trkpt lat="44.87138" lon="6.72395">
        <ele>1657</ele>
        <time>2020-08-01T07:34:21Z</time>
      </trkpt>
      <trkpt lat="44.87155" lon="6.72445">
        <ele>1657</ele>
        <time>2020-08-01T07:34:37Z</time>
      </trkpt>
      <trkpt lat="44.87172" lon="6.72516">
        <ele>1662</ele>
        <time>2020-08-01T07:35:00Z</time>
      </trkpt>
      <trkpt lat="44.87191" lon="6.72522">
        <ele>1667</ele>
        <time>2020-08-01T07:35:11Z</time>
      </trkpt>
      <trkpt lat="44.87191" lon="6.72472">
        <ele>1672</ele>
        <time>2020-08-01T07:35:25Z</time>
      </trkpt>
      <trkpt lat="44.87187" lon="6.72402">
        <ele>1671</ele>
        <time>2020-08-01T07:35:45Z</time>
      </trkpt>
      <trkpt lat="44.87197" lon="6.72343">
        <ele>1677</ele>
        <time>2020-08-01T07:36:02Z</time>
      </trkpt>
      <trkpt lat="44.87196" lon="6.72276">
        <ele>1680</ele>
        <time>2020-08-01T07:36:21Z</time>
      </trkpt>
      <trkpt lat="44.87193" lon="6.72215">
        <ele>1686</ele>
        <time>2020-08-01T07:36:39Z</time>
      </trkpt>
      <trkpt lat="44.87187" lon="6.72152">
        <ele>1688</ele>
        <time>2020-08-01T07:36:57Z</time>
      </trkpt>
      <trkpt lat="44.87184" lon="6.72107">
        <ele>1686</ele>
        <time>2020-08-01T07:37:11Z</time>
      </trkpt>
      <trkpt lat="44.87186" lon="6.72107">
        <ele>1687</ele>
        <time>2020-08-01T07:37:12Z</time>
      </trkpt>
      <trkpt lat="44.87188" lon="6.72108">
        <ele>1688</ele>
        <time>2020-08-01T07:37:13Z</time>
      </trkpt>
      <trkpt lat="44.8719" lon="6.72111">
        <ele>1689</ele>
        <time>2020-08-01T07:37:14Z</time>
      </trkpt>
      <trkpt lat="44.87191" lon="6.72114">
        <ele>1690</ele>
        <time>2020-08-01T07:37:15Z</time>
      </trkpt>
      <trkpt lat="44.87192" lon="6.72117">
        <ele>1690</ele>
        <time>2020-08-01T07:37:16Z</time>
      </trkpt>
      <trkpt lat="44.87192" lon="6.7212">
        <ele>1691</ele>
        <time>2020-08-01T07:37:17Z</time>
      </trkpt>
      <trkpt lat="44.87193" lon="6.72123">
        <ele>1691</ele>
        <time>2020-08-01T07:37:18Z</time>
      </trkpt>
      <trkpt lat="44.87203" lon="6.7217">
        <ele>1696</ele>
        <time>2020-08-01T07:37:33Z</time>
      </trkpt>
      <trkpt lat="44.87215" lon="6.7221">
        <ele>1699</ele>
        <time>2020-08-01T07:37:48Z</time>
      </trkpt>
      <trkpt lat="44.87224" lon="6.72262">
        <ele>1697</ele>
        <time>2020-08-01T07:38:06Z</time>
      </trkpt>
      <trkpt lat="44.87245" lon="6.72313">
        <ele>1705</ele>
        <time>2020-08-01T07:38:25Z</time>
      </trkpt>
      <trkpt lat="44.87262" lon="6.72358">
        <ele>1705</ele>
        <time>2020-08-01T07:38:42Z</time>
      </trkpt>
      <trkpt lat="44.87265" lon="6.72402">
        <ele>1708</ele>
        <time>2020-08-01T07:38:57Z</time>
      </trkpt>
      <trkpt lat="44.87271" lon="6.72443">
        <ele>1710</ele>
        <time>2020-08-01T07:39:12Z</time>
      </trkpt>
      <trkpt lat="44.87287" lon="6.72484">
        <ele>1712</ele>
        <time>2020-08-01T07:39:28Z</time>
      </trkpt>
      <trkpt lat="44.87306" lon="6.72539">
        <ele>1718</ele>
        <time>2020-08-01T07:39:48Z</time>
      </trkpt>
      <trkpt lat="44.87324" lon="6.72577">
        <ele>1732</ele>
        <time>2020-08-01T07:40:03Z</time>
      </trkpt>
      <trkpt lat="44.87308" lon="6.72614">
        <ele>1724</ele>
        <time>2020-08-01T07:40:17Z</time>
      </trkpt>
      <trkpt lat="44.87297" lon="6.72646">
        <ele>1724</ele>
        <time>2020-08-01T07:40:30Z</time>
      </trkpt>
      <trkpt lat="44.87291" lon="6.72689">
        <ele>1724</ele>
        <time>2020-08-01T07:40:45Z</time>
      </trkpt>
      <trkpt lat="44.87296" lon="6.72735">
        <ele>1726</ele>
        <time>2020-08-01T07:41:00Z</time>
      </trkpt>
      <trkpt lat="44.87309" lon="6.72793">
        <ele>1724</ele>
        <time>2020-08-01T07:41:20Z</time>
      </trkpt>
      <trkpt lat="44.87322" lon="6.72824">
        <ele>1719</ele>
        <time>2020-08-01T07:41:32Z</time>
      </trkpt>
      <trkpt lat="44.8735" lon="6.72854">
        <ele>1723</ele>
        <time>2020-08-01T07:41:49Z</time>
      </trkpt>
      <trkpt lat="44.87388" lon="6.72864">
        <ele>1743</ele>
        <time>2020-08-01T07:42:07Z</time>
      </trkpt>
      <trkpt lat="44.87425" lon="6.72878">
        <ele>1747</ele>
        <time>2020-08-01T07:42:25Z</time>
      </trkpt>
      <trkpt lat="44.8746" lon="6.72895">
        <ele>1747</ele>
        <time>2020-08-01T07:42:42Z</time>
      </trkpt>
      <trkpt lat="44.87491" lon="6.72904">
        <ele>1755</ele>
        <time>2020-08-01T07:42:57Z</time>
      </trkpt>
      <trkpt lat="44.87492" lon="6.72907">
        <ele>1755</ele>
        <time>2020-08-01T07:42:58Z</time>
      </trkpt>
      <trkpt lat="44.87493" lon="6.7291">
        <ele>1754</ele>
        <time>2020-08-01T07:42:59Z</time>
      </trkpt>
      <trkpt lat="44.87493" lon="6.72913">
        <ele>1754</ele>
        <time>2020-08-01T07:43:00Z</time>
      </trkpt>
      <trkpt lat="44.87493" lon="6.72916">
        <ele>1753</ele>
        <time>2020-08-01T07:43:01Z</time>
      </trkpt>
      <trkpt lat="44.87493" lon="6.72919">
        <ele>1753</ele>
        <time>2020-08-01T07:43:02Z</time>
      </trkpt>
      <trkpt lat="44.87493" lon="6.72922">
        <ele>1752</ele>
        <time>2020-08-01T07:43:03Z</time>
      </trkpt>
      <trkpt lat="44.87492" lon="6.72925">
        <ele>1751</ele>
        <time>2020-08-01T07:43:04Z</time>
      </trkpt>
      <trkpt lat="44.87488" lon="6.72967">
        <ele>1747</ele>
        <time>2020-08-01T07:43:18Z</time>
      </trkpt>
      <trkpt lat="44.87504" lon="6.73014">
        <ele>1749</ele>
        <time>2020-08-01T07:43:35Z</time>
      </trkpt>
      <trkpt lat="44.87532" lon="6.73053">
        <ele>1753</ele>
        <time>2020-08-01T07:43:53Z</time>
      </trkpt>
      <trkpt lat="44.87562" lon="6.73056">
        <ele>1760</ele>
        <time>2020-08-01T07:44:10Z</time>
      </trkpt>
      <trkpt lat="44.87562" lon="6.73053">
        <ele>1761</ele>
        <time>2020-08-01T07:44:11Z</time>
      </trkpt>
      <trkpt lat="44.87561" lon="6.7305">
        <ele>1761</ele>
        <time>2020-08-01T07:44:12Z</time>
      </trkpt>
      <trkpt lat="44.87561" lon="6.73047">
        <ele>1761</ele>
        <time>2020-08-01T07:44:13Z</time>
      </trkpt>
      <trkpt lat="44.8756" lon="6.73044">
        <ele>1761</ele>
        <time>2020-08-01T07:44:14Z</time>
      </trkpt>
      <trkpt lat="44.87558" lon="6.73041">
        <ele>1761</ele>
        <time>2020-08-01T07:44:15Z</time>
      </trkpt>
      <trkpt lat="44.87556" lon="6.73039">
        <ele>1761</ele>
        <time>2020-08-01T07:44:16Z</time>
      </trkpt>
      <trkpt lat="44.87553" lon="6.73037">
        <ele>1760</ele>
        <time>2020-08-01T07:44:17Z</time>
      </trkpt>
      <trkpt lat="44.87551" lon="6.73035">
        <ele>1760</ele>
        <time>2020-08-01T07:44:18Z</time>
      </trkpt>
      <trkpt lat="44.87549" lon="6.73034">
        <ele>1759</ele>
        <time>2020-08-01T07:44:19Z</time>
      </trkpt>
      <trkpt lat="44.87546" lon="6.73034">
        <ele>1759</ele>
        <time>2020-08-01T07:44:20Z</time>
      </trkpt>
      <trkpt lat="44.87544" lon="6.73033">
        <ele>1758</ele>
        <time>2020-08-01T07:44:21Z</time>
      </trkpt>
      <trkpt lat="44.87542" lon="6.73033">
        <ele>1758</ele>
        <time>2020-08-01T07:44:22Z</time>
      </trkpt>
      <trkpt lat="44.87525" lon="6.73001">
        <ele>1757</ele>
        <time>2020-08-01T07:44:35Z</time>
      </trkpt>
      <trkpt lat="44.87527" lon="6.72953">
        <ele>1762</ele>
        <time>2020-08-01T07:44:51Z</time>
      </trkpt>
      <trkpt lat="44.87529" lon="6.72952">
        <ele>1763</ele>
        <time>2020-08-01T07:44:52Z</time>
      </trkpt>
      <trkpt lat="44.87531" lon="6.72951">
        <ele>1764</ele>
        <time>2020-08-01T07:44:53Z</time>
      </trkpt>
      <trkpt lat="44.87533" lon="6.72952">
        <ele>1765</ele>
        <time>2020-08-01T07:44:54Z</time>
      </trkpt>
      <trkpt lat="44.87535" lon="6.72953">
        <ele>1766</ele>
        <time>2020-08-01T07:44:55Z</time>
      </trkpt>
      <trkpt lat="44.87537" lon="6.72955">
        <ele>1766</ele>
        <time>2020-08-01T07:44:56Z</time>
      </trkpt>
      <trkpt lat="44.87538" lon="6.72958">
        <ele>1767</ele>
        <time>2020-08-01T07:44:57Z</time>
      </trkpt>
      <trkpt lat="44.8754" lon="6.72961">
        <ele>1767</ele>
        <time>2020-08-01T07:44:58Z</time>
      </trkpt>
      <trkpt lat="44.87541" lon="6.72963">
        <ele>1767</ele>
        <time>2020-08-01T07:44:59Z</time>
      </trkpt>
      <trkpt lat="44.87542" lon="6.72966">
        <ele>1767</ele>
        <time>2020-08-01T07:45:00Z</time>
      </trkpt>
      <trkpt lat="44.87543" lon="6.72969">
        <ele>1767</ele>
        <time>2020-08-01T07:45:01Z</time>
      </trkpt>
      <trkpt lat="44.87544" lon="6.72972">
        <ele>1767</ele>
        <time>2020-08-01T07:45:02Z</time>
      </trkpt>
      <trkpt lat="44.87565" lon="6.73009">
        <ele>1768</ele>
        <time>2020-08-01T07:45:18Z</time>
      </trkpt>
      <trkpt lat="44.87593" lon="6.73045">
        <ele>1774</ele>
        <time>2020-08-01T07:45:36Z</time>
      </trkpt>
      <trkpt lat="44.87602" lon="6.73082">
        <ele>1772</ele>
        <time>2020-08-01T07:45:50Z</time>
      </trkpt>
      <trkpt lat="44.87615" lon="6.73085">
        <ele>1778</ele>
        <time>2020-08-01T07:45:57Z</time>
      </trkpt>
      <trkpt lat="44.87616" lon="6.73082">
        <ele>1779</ele>
        <time>2020-08-01T07:45:58Z</time>
      </trkpt>
      <trkpt lat="44.87617" lon="6.73079">
        <ele>1780</ele>
        <time>2020-08-01T07:45:59Z</time>
      </trkpt>
      <trkpt lat="44.87617" lon="6.73076">
        <ele>1780</ele>
        <time>2020-08-01T07:46:00Z</time>
      </trkpt>
      <trkpt lat="44.87617" lon="6.73072">
        <ele>1780</ele>
        <time>2020-08-01T07:46:01Z</time>
      </trkpt>
      <trkpt lat="44.87616" lon="6.73069">
        <ele>1781</ele>
        <time>2020-08-01T07:46:02Z</time>
      </trkpt>
      <trkpt lat="44.87615" lon="6.73065">
        <ele>1781</ele>
        <time>2020-08-01T07:46:03Z</time>
      </trkpt>
      <trkpt lat="44.876" lon="6.73012">
        <ele>1782</ele>
        <time>2020-08-01T07:46:19Z</time>
      </trkpt>
      <trkpt lat="44.8759" lon="6.72963">
        <ele>1786</ele>
        <time>2020-08-01T07:46:34Z</time>
      </trkpt>
      <trkpt lat="44.87593" lon="6.72955">
        <ele>1788</ele>
        <time>2020-08-01T07:46:37Z</time>
      </trkpt>
      <trkpt lat="44.87595" lon="6.72954">
        <ele>1789</ele>
        <time>2020-08-01T07:46:38Z</time>
      </trkpt>
      <trkpt lat="44.87597" lon="6.72954">
        <ele>1790</ele>
        <time>2020-08-01T07:46:39Z</time>
      </trkpt>
      <trkpt lat="44.87599" lon="6.72956">
        <ele>1790</ele>
        <time>2020-08-01T07:46:40Z</time>
      </trkpt>
      <trkpt lat="44.876" lon="6.72958">
        <ele>1791</ele>
        <time>2020-08-01T07:46:41Z</time>
      </trkpt>
      <trkpt lat="44.87601" lon="6.7296">
        <ele>1791</ele>
        <time>2020-08-01T07:46:42Z</time>
      </trkpt>
      <trkpt lat="44.87602" lon="6.72963">
        <ele>1791</ele>
        <time>2020-08-01T07:46:43Z</time>
      </trkpt>
      <trkpt lat="44.87602" lon="6.72966">
        <ele>1791</ele>
        <time>2020-08-01T07:46:44Z</time>
      </trkpt>
      <trkpt lat="44.87615" lon="6.73011">
        <ele>1789</ele>
        <time>2020-08-01T07:47:00Z</time>
      </trkpt>
      <trkpt lat="44.87637" lon="6.73046">
        <ele>1793</ele>
        <time>2020-08-01T07:47:17Z</time>
      </trkpt>
      <trkpt lat="44.8767" lon="6.73062">
        <ele>1799</ele>
        <time>2020-08-01T07:47:33Z</time>
      </trkpt>
      <trkpt lat="44.87697" lon="6.73086">
        <ele>1804</ele>
        <time>2020-08-01T07:47:49Z</time>
      </trkpt>
      <trkpt lat="44.87724" lon="6.73102">
        <ele>1813</ele>
        <time>2020-08-01T07:48:04Z</time>
      </trkpt>
      <trkpt lat="44.87719" lon="6.73152">
        <ele>1815</ele>
        <time>2020-08-01T07:48:20Z</time>
      </trkpt>
      <trkpt lat="44.87707" lon="6.73191">
        <ele>1817</ele>
        <time>2020-08-01T07:48:34Z</time>
      </trkpt>
      <trkpt lat="44.87681" lon="6.73209">
        <ele>1811</ele>
        <time>2020-08-01T07:48:50Z</time>
      </trkpt>
      <trkpt lat="44.87668" lon="6.73245">
        <ele>1811</ele>
        <time>2020-08-01T07:49:05Z</time>
      </trkpt>
      <trkpt lat="44.87683" lon="6.73298">
        <ele>1817</ele>
        <time>2020-08-01T07:49:24Z</time>
      </trkpt>
      <trkpt lat="44.87682" lon="6.73342">
        <ele>1823</ele>
        <time>2020-08-01T07:49:39Z</time>
      </trkpt>
      <trkpt lat="44.87682" lon="6.73396">
        <ele>1828</ele>
        <time>2020-08-01T07:49:56Z</time>
      </trkpt>
      <trkpt lat="44.87688" lon="6.73452">
        <ele>1831</ele>
        <time>2020-08-01T07:50:14Z</time>
      </trkpt>
      <trkpt lat="44.877" lon="6.73504">
        <ele>1831</ele>
        <time>2020-08-01T07:50:31Z</time>
      </trkpt>
      <trkpt lat="44.87722" lon="6.73562">
        <ele>1837</ele>
        <time>2020-08-01T07:50:51Z</time>
      </trkpt>
      <trkpt lat="44.87736" lon="6.73623">
        <ele>1840</ele>
        <time>2020-08-01T07:51:11Z</time>
      </trkpt>
      <trkpt lat="44.87761" lon="6.73677">
        <ele>1845</ele>
        <time>2020-08-01T07:51:30Z</time>
      </trkpt>
      <trkpt lat="44.87784" lon="6.73716">
        <ele>1854</ele>
        <time>2020-08-01T07:51:45Z</time>
      </trkpt>
      <trkpt lat="44.87804" lon="6.73762">
        <ele>1853</ele>
        <time>2020-08-01T07:52:01Z</time>
      </trkpt>
      <trkpt lat="44.87828" lon="6.73794">
        <ele>1859</ele>
        <time>2020-08-01T07:52:15Z</time>
      </trkpt>
      <trkpt lat="44.87834" lon="6.73839">
        <ele>1857</ele>
        <time>2020-08-01T07:52:30Z</time>
      </trkpt>
      <trkpt lat="44.87822" lon="6.7388">
        <ele>1857</ele>
        <time>2020-08-01T07:52:45Z</time>
      </trkpt>
      <trkpt lat="44.87802" lon="6.7391">
        <ele>1858</ele>
        <time>2020-08-01T07:52:59Z</time>
      </trkpt>
      <trkpt lat="44.87771" lon="6.73927">
        <ele>1858</ele>
        <time>2020-08-01T07:53:14Z</time>
      </trkpt>
      <trkpt lat="44.8775" lon="6.73942">
        <ele>1860</ele>
        <time>2020-08-01T07:53:25Z</time>
      </trkpt>
      <trkpt lat="44.87723" lon="6.73973">
        <ele>1862</ele>
        <time>2020-08-01T07:53:40Z</time>
      </trkpt>
      <trkpt lat="44.87713" lon="6.74022">
        <ele>1861</ele>
        <time>2020-08-01T07:53:55Z</time>
      </trkpt>
      <trkpt lat="44.87732" lon="6.74072">
        <ele>1865</ele>
        <time>2020-08-01T07:54:10Z</time>
      </trkpt>
      <trkpt lat="44.87756" lon="6.74117">
        <ele>1871</ele>
        <time>2020-08-01T07:54:25Z</time>
      </trkpt>
      <trkpt lat="44.87797" lon="6.74151">
        <ele>1875</ele>
        <time>2020-08-01T07:54:42Z</time>
      </trkpt>
      <trkpt lat="44.8781" lon="6.74201">
        <ele>1878</ele>
        <time>2020-08-01T07:54:56Z</time>
      </trkpt>
      <trkpt lat="44.87812" lon="6.74235">
        <ele>1880</ele>
        <time>2020-08-01T07:55:10Z</time>
      </trkpt>
      <trkpt lat="44.87812" lon="6.74235">
        <ele>1880</ele>
        <time>2020-08-01T07:55:11Z</time>
      </trkpt>
      <trkpt lat="44.87815" lon="6.74239">
        <ele>1882</ele>
        <time>2020-08-01T08:01:02Z</time>
      </trkpt>
      <trkpt lat="44.87816" lon="6.74241">
        <ele>1882</ele>
        <time>2020-08-01T08:01:03Z</time>
      </trkpt>
      <trkpt lat="44.87817" lon="6.74242">
        <ele>1882</ele>
        <time>2020-08-01T08:01:04Z</time>
      </trkpt>
      <trkpt lat="44.87818" lon="6.74244">
        <ele>1883</ele>
        <time>2020-08-01T08:01:05Z</time>
      </trkpt>
      <trkpt lat="44.87819" lon="6.74246">
        <ele>1883</ele>
        <time>2020-08-01T08:01:06Z</time>
      </trkpt>
      <trkpt lat="44.8782" lon="6.74248">
        <ele>1883</ele>
        <time>2020-08-01T08:01:07Z</time>
      </trkpt>
      <trkpt lat="44.8782" lon="6.74251">
        <ele>1883</ele>
        <time>2020-08-01T08:01:08Z</time>
      </trkpt>
      <trkpt lat="44.8782" lon="6.74253">
        <ele>1883</ele>
        <time>2020-08-01T08:01:09Z</time>
      </trkpt>
      <trkpt lat="44.8782" lon="6.74255">
        <ele>1883</ele>
        <time>2020-08-01T08:01:10Z</time>
      </trkpt>
      <trkpt lat="44.8782" lon="6.74258">
        <ele>1883</ele>
        <time>2020-08-01T08:01:11Z</time>
      </trkpt>
      <trkpt lat="44.87821" lon="6.7426">
        <ele>1883</ele>
        <time>2020-08-01T08:01:12Z</time>
      </trkpt>
      <trkpt lat="44.87822" lon="6.74262">
        <ele>1884</ele>
        <time>2020-08-01T08:01:13Z</time>
      </trkpt>
      <trkpt lat="44.87824" lon="6.74267">
        <ele>1884</ele>
        <time>2020-08-01T08:01:15Z</time>
      </trkpt>
      <trkpt lat="44.87825" lon="6.74269">
        <ele>1885</ele>
        <time>2020-08-01T08:01:16Z</time>
      </trkpt>
      <trkpt lat="44.87832" lon="6.74304">
        <ele>1886</ele>
        <time>2020-08-01T08:01:28Z</time>
      </trkpt>
      <trkpt lat="44.87827" lon="6.74352">
        <ele>1884</ele>
        <time>2020-08-01T08:01:42Z</time>
      </trkpt>
      <trkpt lat="44.87822" lon="6.74402">
        <ele>1879</ele>
        <time>2020-08-01T08:01:56Z</time>
      </trkpt>
      <trkpt lat="44.87829" lon="6.74456">
        <ele>1884</ele>
        <time>2020-08-01T08:02:11Z</time>
      </trkpt>
      <trkpt lat="44.87828" lon="6.74521">
        <ele>1888</ele>
        <time>2020-08-01T08:02:24Z</time>
      </trkpt>
      <trkpt lat="44.87815" lon="6.74597">
        <ele>1890</ele>
        <time>2020-08-01T08:02:38Z</time>
      </trkpt>
      <trkpt lat="44.8781" lon="6.74638">
        <ele>1889</ele>
        <time>2020-08-01T08:02:44Z</time>
      </trkpt>
      <trkpt lat="44.8781" lon="6.74645">
        <ele>1888</ele>
        <time>2020-08-01T08:02:45Z</time>
      </trkpt>
      <trkpt lat="44.87812" lon="6.74651">
        <ele>1887</ele>
        <time>2020-08-01T08:02:46Z</time>
      </trkpt>
      <trkpt lat="44.87814" lon="6.74657">
        <ele>1887</ele>
        <time>2020-08-01T08:02:47Z</time>
      </trkpt>
      <trkpt lat="44.87817" lon="6.74662">
        <ele>1887</ele>
        <time>2020-08-01T08:02:48Z</time>
      </trkpt>
      <trkpt lat="44.87821" lon="6.74667">
        <ele>1887</ele>
        <time>2020-08-01T08:02:49Z</time>
      </trkpt>
      <trkpt lat="44.87825" lon="6.74672">
        <ele>1887</ele>
        <time>2020-08-01T08:02:50Z</time>
      </trkpt>
      <trkpt lat="44.87882" lon="6.74729">
        <ele>1887</ele>
        <time>2020-08-01T08:03:02Z</time>
      </trkpt>
      <trkpt lat="44.87886" lon="6.74734">
        <ele>1888</ele>
        <time>2020-08-01T08:03:03Z</time>
      </trkpt>
      <trkpt lat="44.8789" lon="6.7474">
        <ele>1887</ele>
        <time>2020-08-01T08:03:04Z</time>
      </trkpt>
      <trkpt lat="44.87901" lon="6.74763">
        <ele>1886</ele>
        <time>2020-08-01T08:03:13Z</time>
      </trkpt>
      <trkpt lat="44.87909" lon="6.74768">
        <ele>1888</ele>
        <time>2020-08-01T08:03:16Z</time>
      </trkpt>
      <trkpt lat="44.87909" lon="6.74771">
        <ele>1887</ele>
        <time>2020-08-01T08:03:17Z</time>
      </trkpt>
      <trkpt lat="44.87906" lon="6.74773">
        <ele>1886</ele>
        <time>2020-08-01T08:03:18Z</time>
      </trkpt>
      <trkpt lat="44.87887" lon="6.7476">
        <ele>1883</ele>
        <time>2020-08-01T08:03:24Z</time>
      </trkpt>
      <trkpt lat="44.87884" lon="6.74757">
        <ele>1883</ele>
        <time>2020-08-01T08:03:25Z</time>
      </trkpt>
      <trkpt lat="44.87855" lon="6.74725">
        <ele>1881</ele>
        <time>2020-08-01T08:03:35Z</time>
      </trkpt>
      <trkpt lat="44.87841" lon="6.74716">
        <ele>1880</ele>
        <time>2020-08-01T08:03:39Z</time>
      </trkpt>
      <trkpt lat="44.878" lon="6.74697">
        <ele>1874</ele>
        <time>2020-08-01T08:03:50Z</time>
      </trkpt>
      <trkpt lat="44.8778" lon="6.74691">
        <ele>1871</ele>
        <time>2020-08-01T08:03:54Z</time>
      </trkpt>
      <trkpt lat="44.87757" lon="6.74698">
        <ele>1866</ele>
        <time>2020-08-01T08:03:58Z</time>
      </trkpt>
      <trkpt lat="44.87742" lon="6.74706">
        <ele>1864</ele>
        <time>2020-08-01T08:04:01Z</time>
      </trkpt>
      <trkpt lat="44.87729" lon="6.74737">
        <ele>1863</ele>
        <time>2020-08-01T08:04:07Z</time>
      </trkpt>
      <trkpt lat="44.87737" lon="6.74763">
        <ele>1861</ele>
        <time>2020-08-01T08:04:11Z</time>
      </trkpt>
      <trkpt lat="44.87741" lon="6.74774">
        <ele>1860</ele>
        <time>2020-08-01T08:04:13Z</time>
      </trkpt>
      <trkpt lat="44.87756" lon="6.74799">
        <ele>1859</ele>
        <time>2020-08-01T08:04:18Z</time>
      </trkpt>
      <trkpt lat="44.8775" lon="6.74826">
        <ele>1858</ele>
        <time>2020-08-01T08:04:26Z</time>
      </trkpt>
      <trkpt lat="44.87747" lon="6.7487">
        <ele>1858</ele>
        <time>2020-08-01T08:04:36Z</time>
      </trkpt>
      <trkpt lat="44.87745" lon="6.74894">
        <ele>1858</ele>
        <time>2020-08-01T08:04:41Z</time>
      </trkpt>
      <trkpt lat="44.87754" lon="6.74944">
        <ele>1859</ele>
        <time>2020-08-01T08:04:53Z</time>
      </trkpt>
      <trkpt lat="44.87746" lon="6.74989">
        <ele>1860</ele>
        <time>2020-08-01T08:05:04Z</time>
      </trkpt>
      <trkpt lat="44.87743" lon="6.75014">
        <ele>1861</ele>
        <time>2020-08-01T08:05:10Z</time>
      </trkpt>
      <trkpt lat="44.87748" lon="6.75029">
        <ele>1860</ele>
        <time>2020-08-01T08:05:14Z</time>
      </trkpt>
      <trkpt lat="44.87747" lon="6.75081">
        <ele>1860</ele>
        <time>2020-08-01T08:05:28Z</time>
      </trkpt>
      <trkpt lat="44.87749" lon="6.75127">
        <ele>1861</ele>
        <time>2020-08-01T08:05:40Z</time>
      </trkpt>
      <trkpt lat="44.87752" lon="6.75134">
        <ele>1861</ele>
        <time>2020-08-01T08:05:42Z</time>
      </trkpt>
      <trkpt lat="44.87739" lon="6.75153">
        <ele>1862</ele>
        <time>2020-08-01T08:05:50Z</time>
      </trkpt>
      <trkpt lat="44.87737" lon="6.75172">
        <ele>1861</ele>
        <time>2020-08-01T08:05:54Z</time>
      </trkpt>
      <trkpt lat="44.87742" lon="6.75195">
        <ele>1861</ele>
        <time>2020-08-01T08:06:01Z</time>
      </trkpt>
      <trkpt lat="44.87741" lon="6.7521">
        <ele>1861</ele>
        <time>2020-08-01T08:06:05Z</time>
      </trkpt>
      <trkpt lat="44.87742" lon="6.75219">
        <ele>1861</ele>
        <time>2020-08-01T08:06:09Z</time>
      </trkpt>
      <trkpt lat="44.87744" lon="6.75231">
        <ele>1861</ele>
        <time>2020-08-01T08:06:12Z</time>
      </trkpt>
      <trkpt lat="44.87742" lon="6.75239">
        <ele>1861</ele>
        <time>2020-08-01T08:06:14Z</time>
      </trkpt>
      <trkpt lat="44.87744" lon="6.75268">
        <ele>1862</ele>
        <time>2020-08-01T08:06:24Z</time>
      </trkpt>
      <trkpt lat="44.87744" lon="6.75271">
        <ele>1862</ele>
        <time>2020-08-01T08:06:25Z</time>
      </trkpt>
      <trkpt lat="44.87747" lon="6.7531">
        <ele>1863</ele>
        <time>2020-08-01T08:06:36Z</time>
      </trkpt>
      <trkpt lat="44.87751" lon="6.75348">
        <ele>1864</ele>
        <time>2020-08-01T08:06:48Z</time>
      </trkpt>
      <trkpt lat="44.87758" lon="6.75397">
        <ele>1864</ele>
        <time>2020-08-01T08:07:00Z</time>
      </trkpt>
      <trkpt lat="44.87794" lon="6.75478">
        <ele>1867</ele>
        <time>2020-08-01T08:07:23Z</time>
      </trkpt>
      <trkpt lat="44.87836" lon="6.75521">
        <ele>1870</ele>
        <time>2020-08-01T08:07:41Z</time>
      </trkpt>
      <trkpt lat="44.87863" lon="6.75557">
        <ele>1871</ele>
        <time>2020-08-01T08:07:56Z</time>
      </trkpt>
      <trkpt lat="44.87881" lon="6.75604">
        <ele>1869</ele>
        <time>2020-08-01T08:08:08Z</time>
      </trkpt>
      <trkpt lat="44.87889" lon="6.75642">
        <ele>1870</ele>
        <time>2020-08-01T08:08:17Z</time>
      </trkpt>
      <trkpt lat="44.8789" lon="6.75668">
        <ele>1871</ele>
        <time>2020-08-01T08:08:25Z</time>
      </trkpt>
      <trkpt lat="44.8789" lon="6.75668">
        <ele>1871</ele>
        <time>2020-08-01T08:08:28Z</time>
      </trkpt>
      <trkpt lat="44.87884" lon="6.75681">
        <ele>1870</ele>
        <time>2020-08-01T08:08:47Z</time>
      </trkpt>
      <trkpt lat="44.8789" lon="6.75731">
        <ele>1869</ele>
        <time>2020-08-01T08:08:58Z</time>
      </trkpt>
      <trkpt lat="44.87905" lon="6.75794">
        <ele>1870</ele>
        <time>2020-08-01T08:09:11Z</time>
      </trkpt>
      <trkpt lat="44.87894" lon="6.75863">
        <ele>1868</ele>
        <time>2020-08-01T08:09:23Z</time>
      </trkpt>
      <trkpt lat="44.87892" lon="6.75869">
        <ele>1868</ele>
        <time>2020-08-01T08:09:24Z</time>
      </trkpt>
      <trkpt lat="44.87884" lon="6.75897">
        <ele>1869</ele>
        <time>2020-08-01T08:09:29Z</time>
      </trkpt>
      <trkpt lat="44.87858" lon="6.75961">
        <ele>1866</ele>
        <time>2020-08-01T08:09:45Z</time>
      </trkpt>
      <trkpt lat="44.87861" lon="6.7601">
        <ele>1867</ele>
        <time>2020-08-01T08:09:58Z</time>
      </trkpt>
      <trkpt lat="44.87878" lon="6.76063">
        <ele>1871</ele>
        <time>2020-08-01T08:10:07Z</time>
      </trkpt>
      <trkpt lat="44.87892" lon="6.76115">
        <ele>1872</ele>
        <time>2020-08-01T08:10:15Z</time>
      </trkpt>
      <trkpt lat="44.87892" lon="6.76179">
        <ele>1872</ele>
        <time>2020-08-01T08:10:24Z</time>
      </trkpt>
      <trkpt lat="44.87882" lon="6.76235">
        <ele>1875</ele>
        <time>2020-08-01T08:10:35Z</time>
      </trkpt>
      <trkpt lat="44.87865" lon="6.76304">
        <ele>1877</ele>
        <time>2020-08-01T08:10:50Z</time>
      </trkpt>
      <trkpt lat="44.87863" lon="6.76323">
        <ele>1878</ele>
        <time>2020-08-01T08:10:53Z</time>
      </trkpt>
      <trkpt lat="44.87849" lon="6.7638">
        <ele>1875</ele>
        <time>2020-08-01T08:11:05Z</time>
      </trkpt>
      <trkpt lat="44.87854" lon="6.76402">
        <ele>1876</ele>
        <time>2020-08-01T08:11:10Z</time>
      </trkpt>
      <trkpt lat="44.87831" lon="6.76448">
        <ele>1876</ele>
        <time>2020-08-01T08:11:23Z</time>
      </trkpt>
      <trkpt lat="44.87806" lon="6.76466">
        <ele>1876</ele>
        <time>2020-08-01T08:11:34Z</time>
      </trkpt>
      <trkpt lat="44.87783" lon="6.7649">
        <ele>1876</ele>
        <time>2020-08-01T08:11:45Z</time>
      </trkpt>
      <trkpt lat="44.87754" lon="6.76524">
        <ele>1875</ele>
        <time>2020-08-01T08:11:57Z</time>
      </trkpt>
      <trkpt lat="44.8773" lon="6.76532">
        <ele>1874</ele>
        <time>2020-08-01T08:12:07Z</time>
      </trkpt>
      <trkpt lat="44.8771" lon="6.76518">
        <ele>1873</ele>
        <time>2020-08-01T08:12:14Z</time>
      </trkpt>
      <trkpt lat="44.87691" lon="6.76542">
        <ele>1873</ele>
        <time>2020-08-01T08:12:21Z</time>
      </trkpt>
      <trkpt lat="44.87685" lon="6.7657">
        <ele>1873</ele>
        <time>2020-08-01T08:12:30Z</time>
      </trkpt>
      <trkpt lat="44.87682" lon="6.76577">
        <ele>1873</ele>
        <time>2020-08-01T08:12:32Z</time>
      </trkpt>
      <trkpt lat="44.87681" lon="6.76624">
        <ele>1874</ele>
        <time>2020-08-01T08:12:43Z</time>
      </trkpt>
      <trkpt lat="44.8769" lon="6.7667">
        <ele>1877</ele>
        <time>2020-08-01T08:12:54Z</time>
      </trkpt>
      <trkpt lat="44.87671" lon="6.76684">
        <ele>1873</ele>
        <time>2020-08-01T08:13:01Z</time>
      </trkpt>
      <trkpt lat="44.87657" lon="6.76722">
        <ele>1873</ele>
        <time>2020-08-01T08:13:11Z</time>
      </trkpt>
      <trkpt lat="44.87667" lon="6.76774">
        <ele>1876</ele>
        <time>2020-08-01T08:13:22Z</time>
      </trkpt>
      <trkpt lat="44.87665" lon="6.76803">
        <ele>1877</ele>
        <time>2020-08-01T08:13:31Z</time>
      </trkpt>
      <trkpt lat="44.87665" lon="6.76826">
        <ele>1879</ele>
        <time>2020-08-01T08:13:41Z</time>
      </trkpt>
      <trkpt lat="44.87682" lon="6.76854">
        <ele>1883</ele>
        <time>2020-08-01T08:13:53Z</time>
      </trkpt>
      <trkpt lat="44.87685" lon="6.76873">
        <ele>1884</ele>
        <time>2020-08-01T08:13:57Z</time>
      </trkpt>
      <trkpt lat="44.87678" lon="6.76895">
        <ele>1883</ele>
        <time>2020-08-01T08:14:02Z</time>
      </trkpt>
      <trkpt lat="44.87676" lon="6.76897">
        <ele>1883</ele>
        <time>2020-08-01T08:14:03Z</time>
      </trkpt>
      <trkpt lat="44.87673" lon="6.76898">
        <ele>1883</ele>
        <time>2020-08-01T08:14:04Z</time>
      </trkpt>
      <trkpt lat="44.87671" lon="6.76899">
        <ele>1882</ele>
        <time>2020-08-01T08:14:05Z</time>
      </trkpt>
      <trkpt lat="44.8764" lon="6.76928">
        <ele>1881</ele>
        <time>2020-08-01T08:14:21Z</time>
      </trkpt>
      <trkpt lat="44.87626" lon="6.7695">
        <ele>1882</ele>
        <time>2020-08-01T08:14:35Z</time>
      </trkpt>
      <trkpt lat="44.8761" lon="6.76986">
        <ele>1883</ele>
        <time>2020-08-01T08:14:49Z</time>
      </trkpt>
      <trkpt lat="44.876" lon="6.77022">
        <ele>1884</ele>
        <time>2020-08-01T08:15:03Z</time>
      </trkpt>
      <trkpt lat="44.87589" lon="6.7703">
        <ele>1883</ele>
        <time>2020-08-01T08:15:10Z</time>
      </trkpt>
      <trkpt lat="44.87581" lon="6.77062">
        <ele>1884</ele>
        <time>2020-08-01T08:15:24Z</time>
      </trkpt>
      <trkpt lat="44.87581" lon="6.77084">
        <ele>1885</ele>
        <time>2020-08-01T08:15:29Z</time>
      </trkpt>
      <trkpt lat="44.87559" lon="6.77147">
        <ele>1883</ele>
        <time>2020-08-01T08:15:39Z</time>
      </trkpt>
      <trkpt lat="44.87545" lon="6.77216">
        <ele>1884</ele>
        <time>2020-08-01T08:15:49Z</time>
      </trkpt>
      <trkpt lat="44.87515" lon="6.77244">
        <ele>1880</ele>
        <time>2020-08-01T08:16:00Z</time>
      </trkpt>
      <trkpt lat="44.87497" lon="6.77271">
        <ele>1879</ele>
        <time>2020-08-01T08:16:11Z</time>
      </trkpt>
      <trkpt lat="44.87501" lon="6.77317">
        <ele>1881</ele>
        <time>2020-08-01T08:16:22Z</time>
      </trkpt>
      <trkpt lat="44.87523" lon="6.77385">
        <ele>1885</ele>
        <time>2020-08-01T08:16:37Z</time>
      </trkpt>
      <trkpt lat="44.87541" lon="6.77449">
        <ele>1883</ele>
        <time>2020-08-01T08:16:49Z</time>
      </trkpt>
      <trkpt lat="44.8757" lon="6.77515">
        <ele>1883</ele>
        <time>2020-08-01T08:17:03Z</time>
      </trkpt>
      <trkpt lat="44.87576" lon="6.77525">
        <ele>1884</ele>
        <time>2020-08-01T08:17:05Z</time>
      </trkpt>
      <trkpt lat="44.87579" lon="6.7753">
        <ele>1884</ele>
        <time>2020-08-01T08:17:06Z</time>
      </trkpt>
      <trkpt lat="44.87581" lon="6.77535">
        <ele>1884</ele>
        <time>2020-08-01T08:17:07Z</time>
      </trkpt>
      <trkpt lat="44.87583" lon="6.7754">
        <ele>1884</ele>
        <time>2020-08-01T08:17:08Z</time>
      </trkpt>
      <trkpt lat="44.87585" lon="6.77545">
        <ele>1884</ele>
        <time>2020-08-01T08:17:09Z</time>
      </trkpt>
      <trkpt lat="44.87587" lon="6.77551">
        <ele>1884</ele>
        <time>2020-08-01T08:17:10Z</time>
      </trkpt>
      <trkpt lat="44.87588" lon="6.77556">
        <ele>1884</ele>
        <time>2020-08-01T08:17:11Z</time>
      </trkpt>
      <trkpt lat="44.87591" lon="6.77583">
        <ele>1884</ele>
        <time>2020-08-01T08:17:16Z</time>
      </trkpt>
      <trkpt lat="44.8759" lon="6.77589">
        <ele>1884</ele>
        <time>2020-08-01T08:17:17Z</time>
      </trkpt>
      <trkpt lat="44.87587" lon="6.77613">
        <ele>1885</ele>
        <time>2020-08-01T08:17:21Z</time>
      </trkpt>
      <trkpt lat="44.87575" lon="6.77672">
        <ele>1885</ele>
        <time>2020-08-01T08:17:33Z</time>
      </trkpt>
      <trkpt lat="44.87563" lon="6.77702">
        <ele>1886</ele>
        <time>2020-08-01T08:17:39Z</time>
      </trkpt>
      <trkpt lat="44.8756" lon="6.77707">
        <ele>1886</ele>
        <time>2020-08-01T08:17:40Z</time>
      </trkpt>
      <trkpt lat="44.8754" lon="6.77726">
        <ele>1885</ele>
        <time>2020-08-01T08:17:46Z</time>
      </trkpt>
      <trkpt lat="44.87527" lon="6.77739">
        <ele>1884</ele>
        <time>2020-08-01T08:17:50Z</time>
      </trkpt>
      <trkpt lat="44.87525" lon="6.77741">
        <ele>1884</ele>
        <time>2020-08-01T08:17:51Z</time>
      </trkpt>
      <trkpt lat="44.87523" lon="6.77743">
        <ele>1884</ele>
        <time>2020-08-01T08:17:52Z</time>
      </trkpt>
      <trkpt lat="44.87522" lon="6.77747">
        <ele>1884</ele>
        <time>2020-08-01T08:17:53Z</time>
      </trkpt>
      <trkpt lat="44.87521" lon="6.77751">
        <ele>1884</ele>
        <time>2020-08-01T08:17:54Z</time>
      </trkpt>
      <trkpt lat="44.8752" lon="6.77756">
        <ele>1884</ele>
        <time>2020-08-01T08:17:55Z</time>
      </trkpt>
      <trkpt lat="44.87519" lon="6.77762">
        <ele>1884</ele>
        <time>2020-08-01T08:17:56Z</time>
      </trkpt>
      <trkpt lat="44.87519" lon="6.77767">
        <ele>1884</ele>
        <time>2020-08-01T08:17:57Z</time>
      </trkpt>
      <trkpt lat="44.87518" lon="6.77773">
        <ele>1884</ele>
        <time>2020-08-01T08:17:58Z</time>
      </trkpt>
      <trkpt lat="44.87518" lon="6.77778">
        <ele>1884</ele>
        <time>2020-08-01T08:17:59Z</time>
      </trkpt>
      <trkpt lat="44.87504" lon="6.77835">
        <ele>1886</ele>
        <time>2020-08-01T08:18:12Z</time>
      </trkpt>
      <trkpt lat="44.87477" lon="6.7787">
        <ele>1884</ele>
        <time>2020-08-01T08:18:24Z</time>
      </trkpt>
      <trkpt lat="44.87453" lon="6.77892">
        <ele>1880</ele>
        <time>2020-08-01T08:18:34Z</time>
      </trkpt>
      <trkpt lat="44.87445" lon="6.77899">
        <ele>1880</ele>
        <time>2020-08-01T08:18:36Z</time>
      </trkpt>
      <trkpt lat="44.87429" lon="6.7791">
        <ele>1880</ele>
        <time>2020-08-01T08:18:40Z</time>
      </trkpt>
      <trkpt lat="44.8741" lon="6.77921">
        <ele>1881</ele>
        <time>2020-08-01T08:18:49Z</time>
      </trkpt>
      <trkpt lat="44.87409" lon="6.77921">
        <ele>1881</ele>
        <time>2020-08-01T08:18:52Z</time>
      </trkpt>
      <trkpt lat="44.87399" lon="6.77925">
        <ele>1882</ele>
        <time>2020-08-01T08:19:02Z</time>
      </trkpt>
      <trkpt lat="44.87356" lon="6.77931">
        <ele>1882</ele>
        <time>2020-08-01T08:19:16Z</time>
      </trkpt>
      <trkpt lat="44.87322" lon="6.7793">
        <ele>1882</ele>
        <time>2020-08-01T08:19:27Z</time>
      </trkpt>
      <trkpt lat="44.87301" lon="6.77954">
        <ele>1884</ele>
        <time>2020-08-01T08:19:37Z</time>
      </trkpt>
      <trkpt lat="44.87275" lon="6.77975">
        <ele>1882</ele>
        <time>2020-08-01T08:19:49Z</time>
      </trkpt>
      <trkpt lat="44.87273" lon="6.77975">
        <ele>1882</ele>
        <time>2020-08-01T08:19:50Z</time>
      </trkpt>
      <trkpt lat="44.87271" lon="6.77973">
        <ele>1882</ele>
        <time>2020-08-01T08:19:51Z</time>
      </trkpt>
      <trkpt lat="44.87269" lon="6.77971">
        <ele>1882</ele>
        <time>2020-08-01T08:19:52Z</time>
      </trkpt>
      <trkpt lat="44.87265" lon="6.77967">
        <ele>1882</ele>
        <time>2020-08-01T08:19:54Z</time>
      </trkpt>
      <trkpt lat="44.87263" lon="6.77966">
        <ele>1882</ele>
        <time>2020-08-01T08:19:55Z</time>
      </trkpt>
      <trkpt lat="44.8726" lon="6.77968">
        <ele>1882</ele>
        <time>2020-08-01T08:19:56Z</time>
      </trkpt>
      <trkpt lat="44.87256" lon="6.7797">
        <ele>1882</ele>
        <time>2020-08-01T08:19:57Z</time>
      </trkpt>
      <trkpt lat="44.87252" lon="6.77972">
        <ele>1882</ele>
        <time>2020-08-01T08:19:58Z</time>
      </trkpt>
      <trkpt lat="44.87249" lon="6.77975">
        <ele>1883</ele>
        <time>2020-08-01T08:19:59Z</time>
      </trkpt>
      <trkpt lat="44.87211" lon="6.7801">
        <ele>1883</ele>
        <time>2020-08-01T08:20:11Z</time>
      </trkpt>
      <trkpt lat="44.87198" lon="6.78022">
        <ele>1883</ele>
        <time>2020-08-01T08:20:15Z</time>
      </trkpt>
      <trkpt lat="44.87161" lon="6.78039">
        <ele>1885</ele>
        <time>2020-08-01T08:20:28Z</time>
      </trkpt>
      <trkpt lat="44.87157" lon="6.78039">
        <ele>1885</ele>
        <time>2020-08-01T08:20:31Z</time>
      </trkpt>
      <trkpt lat="44.87155" lon="6.78041">
        <ele>1885</ele>
        <time>2020-08-01T08:20:32Z</time>
      </trkpt>
      <trkpt lat="44.87124" lon="6.78097">
        <ele>1890</ele>
        <time>2020-08-01T08:20:48Z</time>
      </trkpt>
      <trkpt lat="44.87087" lon="6.78164">
        <ele>1893</ele>
        <time>2020-08-01T08:21:06Z</time>
      </trkpt>
      <trkpt lat="44.87052" lon="6.78229">
        <ele>1892</ele>
        <time>2020-08-01T08:21:23Z</time>
      </trkpt>
      <trkpt lat="44.87025" lon="6.78287">
        <ele>1898</ele>
        <time>2020-08-01T08:21:37Z</time>
      </trkpt>
      <trkpt lat="44.86987" lon="6.78357">
        <ele>1903</ele>
        <time>2020-08-01T08:21:55Z</time>
      </trkpt>
      <trkpt lat="44.86933" lon="6.784">
        <ele>1912</ele>
        <time>2020-08-01T08:22:13Z</time>
      </trkpt>
      <trkpt lat="44.86894" lon="6.78441">
        <ele>1914</ele>
        <time>2020-08-01T08:22:30Z</time>
      </trkpt>
      <trkpt lat="44.86851" lon="6.78487">
        <ele>1918</ele>
        <time>2020-08-01T08:22:49Z</time>
      </trkpt>
      <trkpt lat="44.86816" lon="6.78528">
        <ele>1917</ele>
        <time>2020-08-01T08:23:05Z</time>
      </trkpt>
      <trkpt lat="44.86773" lon="6.78592">
        <ele>1913</ele>
        <time>2020-08-01T08:23:23Z</time>
      </trkpt>
      <trkpt lat="44.86736" lon="6.78657">
        <ele>1919</ele>
        <time>2020-08-01T08:23:39Z</time>
      </trkpt>
      <trkpt lat="44.86672" lon="6.78724">
        <ele>1916</ele>
        <time>2020-08-01T08:24:01Z</time>
      </trkpt>
      <trkpt lat="44.86618" lon="6.78787">
        <ele>1917</ele>
        <time>2020-08-01T08:24:20Z</time>
      </trkpt>
      <trkpt lat="44.8658" lon="6.78831">
        <ele>1915</ele>
        <time>2020-08-01T08:24:35Z</time>
      </trkpt>
      <trkpt lat="44.86549" lon="6.78856">
        <ele>1918</ele>
        <time>2020-08-01T08:24:47Z</time>
      </trkpt>
      <trkpt lat="44.86514" lon="6.78886">
        <ele>1923</ele>
        <time>2020-08-01T08:25:02Z</time>
      </trkpt>
      <trkpt lat="44.86478" lon="6.78919">
        <ele>1924</ele>
        <time>2020-08-01T08:25:15Z</time>
      </trkpt>
      <trkpt lat="44.86441" lon="6.78976">
        <ele>1927</ele>
        <time>2020-08-01T08:25:31Z</time>
      </trkpt>
      <trkpt lat="44.86436" lon="6.79007">
        <ele>1928</ele>
        <time>2020-08-01T08:25:37Z</time>
      </trkpt>
      <trkpt lat="44.86435" lon="6.79019">
        <ele>1928</ele>
        <time>2020-08-01T08:25:39Z</time>
      </trkpt>
      <trkpt lat="44.86433" lon="6.79024">
        <ele>1928</ele>
        <time>2020-08-01T08:25:40Z</time>
      </trkpt>
      <trkpt lat="44.86428" lon="6.79036">
        <ele>1928</ele>
        <time>2020-08-01T08:25:42Z</time>
      </trkpt>
      <trkpt lat="44.8641" lon="6.79067">
        <ele>1927</ele>
        <time>2020-08-01T08:25:48Z</time>
      </trkpt>
      <trkpt lat="44.86385" lon="6.79089">
        <ele>1926</ele>
        <time>2020-08-01T08:25:58Z</time>
      </trkpt>
      <trkpt lat="44.86337" lon="6.79146">
        <ele>1927</ele>
        <time>2020-08-01T08:26:16Z</time>
      </trkpt>
      <trkpt lat="44.86294" lon="6.79175">
        <ele>1928</ele>
        <time>2020-08-01T08:26:30Z</time>
      </trkpt>
      <trkpt lat="44.86262" lon="6.79184">
        <ele>1931</ele>
        <time>2020-08-01T08:26:41Z</time>
      </trkpt>
      <trkpt lat="44.86256" lon="6.79185">
        <ele>1931</ele>
        <time>2020-08-01T08:26:49Z</time>
      </trkpt>
      <trkpt lat="44.86253" lon="6.7919">
        <ele>1932</ele>
        <time>2020-08-01T08:26:59Z</time>
      </trkpt>
      <trkpt lat="44.86248" lon="6.792">
        <ele>1931</ele>
        <time>2020-08-01T08:27:03Z</time>
      </trkpt>
      <trkpt lat="44.86215" lon="6.79233">
        <ele>1932</ele>
        <time>2020-08-01T08:27:19Z</time>
      </trkpt>
      <trkpt lat="44.86192" lon="6.7928">
        <ele>1933</ele>
        <time>2020-08-01T08:27:32Z</time>
      </trkpt>
      <trkpt lat="44.86186" lon="6.79349">
        <ele>1935</ele>
        <time>2020-08-01T08:27:48Z</time>
      </trkpt>
      <trkpt lat="44.86175" lon="6.79397">
        <ele>1941</ele>
        <time>2020-08-01T08:28:02Z</time>
      </trkpt>
      <trkpt lat="44.86157" lon="6.79438">
        <ele>1941</ele>
        <time>2020-08-01T08:28:14Z</time>
      </trkpt>
      <trkpt lat="44.86126" lon="6.79497">
        <ele>1939</ele>
        <time>2020-08-01T08:28:29Z</time>
      </trkpt>
      <trkpt lat="44.86078" lon="6.79547">
        <ele>1941</ele>
        <time>2020-08-01T08:28:44Z</time>
      </trkpt>
      <trkpt lat="44.8605" lon="6.79558">
        <ele>1943</ele>
        <time>2020-08-01T08:28:52Z</time>
      </trkpt>
      <trkpt lat="44.86013" lon="6.79559">
        <ele>1944</ele>
        <time>2020-08-01T08:28:59Z</time>
      </trkpt>
      <trkpt lat="44.86005" lon="6.79558">
        <ele>1944</ele>
        <time>2020-08-01T08:29:01Z</time>
      </trkpt>
      <trkpt lat="44.85993" lon="6.79556">
        <ele>1944</ele>
        <time>2020-08-01T08:29:04Z</time>
      </trkpt>
      <trkpt lat="44.85971" lon="6.79562">
        <ele>1944</ele>
        <time>2020-08-01T08:29:09Z</time>
      </trkpt>
      <trkpt lat="44.85965" lon="6.79568">
        <ele>1945</ele>
        <time>2020-08-01T08:29:11Z</time>
      </trkpt>
      <trkpt lat="44.85947" lon="6.79582">
        <ele>1946</ele>
        <time>2020-08-01T08:29:16Z</time>
      </trkpt>
      <trkpt lat="44.85923" lon="6.79635">
        <ele>1946</ele>
        <time>2020-08-01T08:29:29Z</time>
      </trkpt>
      <trkpt lat="44.85899" lon="6.79659">
        <ele>1950</ele>
        <time>2020-08-01T08:29:41Z</time>
      </trkpt>
      <trkpt lat="44.85869" lon="6.79686">
        <ele>1952</ele>
        <time>2020-08-01T08:29:53Z</time>
      </trkpt>
      <trkpt lat="44.85838" lon="6.79696">
        <ele>1954</ele>
        <time>2020-08-01T08:30:00Z</time>
      </trkpt>
      <trkpt lat="44.85806" lon="6.79707">
        <ele>1955</ele>
        <time>2020-08-01T08:30:13Z</time>
      </trkpt>
      <trkpt lat="44.85788" lon="6.79731">
        <ele>1958</ele>
        <time>2020-08-01T08:30:24Z</time>
      </trkpt>
      <trkpt lat="44.85778" lon="6.79756">
        <ele>1959</ele>
        <time>2020-08-01T08:30:33Z</time>
      </trkpt>
      <trkpt lat="44.85758" lon="6.79783">
        <ele>1957</ele>
        <time>2020-08-01T08:30:45Z</time>
      </trkpt>
      <trkpt lat="44.85732" lon="6.79805">
        <ele>1956</ele>
        <time>2020-08-01T08:30:56Z</time>
      </trkpt>
      <trkpt lat="44.85687" lon="6.79812">
        <ele>1962</ele>
        <time>2020-08-01T08:31:11Z</time>
      </trkpt>
      <trkpt lat="44.85679" lon="6.79817">
        <ele>1961</ele>
        <time>2020-08-01T08:31:13Z</time>
      </trkpt>
      <trkpt lat="44.85656" lon="6.79831">
        <ele>1959</ele>
        <time>2020-08-01T08:31:17Z</time>
      </trkpt>
      <trkpt lat="44.85629" lon="6.79849">
        <ele>1958</ele>
        <time>2020-08-01T08:31:24Z</time>
      </trkpt>
      <trkpt lat="44.85605" lon="6.7985">
        <ele>1961</ele>
        <time>2020-08-01T08:31:29Z</time>
      </trkpt>
      <trkpt lat="44.85573" lon="6.79872">
        <ele>1961</ele>
        <time>2020-08-01T08:31:40Z</time>
      </trkpt>
      <trkpt lat="44.85559" lon="6.79931">
        <ele>1960</ele>
        <time>2020-08-01T08:31:53Z</time>
      </trkpt>
      <trkpt lat="44.85538" lon="6.79974">
        <ele>1960</ele>
        <time>2020-08-01T08:32:05Z</time>
      </trkpt>
      <trkpt lat="44.85511" lon="6.79981">
        <ele>1959</ele>
        <time>2020-08-01T08:32:15Z</time>
      </trkpt>
      <trkpt lat="44.85484" lon="6.79969">
        <ele>1962</ele>
        <time>2020-08-01T08:32:24Z</time>
      </trkpt>
      <trkpt lat="44.85484" lon="6.79971">
        <ele>1962</ele>
        <time>2020-08-01T08:32:29Z</time>
      </trkpt>
      <trkpt lat="44.85478" lon="6.79979">
        <ele>1962</ele>
        <time>2020-08-01T08:32:53Z</time>
      </trkpt>
      <trkpt lat="44.85476" lon="6.79981">
        <ele>1963</ele>
        <time>2020-08-01T08:32:54Z</time>
      </trkpt>
      <trkpt lat="44.85473" lon="6.79983">
        <ele>1963</ele>
        <time>2020-08-01T08:32:55Z</time>
      </trkpt>
      <trkpt lat="44.85447" lon="6.80008">
        <ele>1964</ele>
        <time>2020-08-01T08:33:07Z</time>
      </trkpt>
      <trkpt lat="44.85422" lon="6.80067">
        <ele>1968</ele>
        <time>2020-08-01T08:33:23Z</time>
      </trkpt>
      <trkpt lat="44.85391" lon="6.80114">
        <ele>1972</ele>
        <time>2020-08-01T08:33:39Z</time>
      </trkpt>
      <trkpt lat="44.85361" lon="6.8015">
        <ele>1972</ele>
        <time>2020-08-01T08:33:55Z</time>
      </trkpt>
      <trkpt lat="44.85335" lon="6.80181">
        <ele>1976</ele>
        <time>2020-08-01T08:34:11Z</time>
      </trkpt>
      <trkpt lat="44.85317" lon="6.80204">
        <ele>1980</ele>
        <time>2020-08-01T08:34:25Z</time>
      </trkpt>
      <trkpt lat="44.85307" lon="6.80221">
        <ele>1982</ele>
        <time>2020-08-01T08:34:34Z</time>
      </trkpt>
      <trkpt lat="44.85306" lon="6.80222">
        <ele>1982</ele>
        <time>2020-08-01T08:34:35Z</time>
      </trkpt>
      <trkpt lat="44.85299" lon="6.80234">
        <ele>1983</ele>
        <time>2020-08-01T08:34:41Z</time>
      </trkpt>
      <trkpt lat="44.85298" lon="6.80235">
        <ele>1983</ele>
        <time>2020-08-01T08:34:42Z</time>
      </trkpt>
      <trkpt lat="44.85297" lon="6.80236">
        <ele>1984</ele>
        <time>2020-08-01T08:34:43Z</time>
      </trkpt>
      <trkpt lat="44.85276" lon="6.80247">
        <ele>1988</ele>
        <time>2020-08-01T08:34:58Z</time>
      </trkpt>
      <trkpt lat="44.85261" lon="6.80262">
        <ele>1992</ele>
        <time>2020-08-01T08:35:10Z</time>
      </trkpt>
      <trkpt lat="44.85261" lon="6.80264">
        <ele>1992</ele>
        <time>2020-08-01T08:35:11Z</time>
      </trkpt>
      <trkpt lat="44.85258" lon="6.80269">
        <ele>1992</ele>
        <time>2020-08-01T08:35:13Z</time>
      </trkpt>
      <trkpt lat="44.8524" lon="6.80293">
        <ele>1997</ele>
        <time>2020-08-01T08:35:27Z</time>
      </trkpt>
      <trkpt lat="44.85234" lon="6.80305">
        <ele>1998</ele>
        <time>2020-08-01T08:35:35Z</time>
      </trkpt>
      <trkpt lat="44.85233" lon="6.80307">
        <ele>1998</ele>
        <time>2020-08-01T08:35:36Z</time>
      </trkpt>
      <trkpt lat="44.85232" lon="6.80309">
        <ele>1998</ele>
        <time>2020-08-01T08:35:37Z</time>
      </trkpt>
      <trkpt lat="44.85231" lon="6.80311">
        <ele>1998</ele>
        <time>2020-08-01T08:35:38Z</time>
      </trkpt>
      <trkpt lat="44.8523" lon="6.80312">
        <ele>1998</ele>
        <time>2020-08-01T08:35:39Z</time>
      </trkpt>
      <trkpt lat="44.85216" lon="6.80347">
        <ele>1999</ele>
        <time>2020-08-01T08:35:56Z</time>
      </trkpt>
      <trkpt lat="44.85204" lon="6.8038">
        <ele>2002</ele>
        <time>2020-08-01T08:36:06Z</time>
      </trkpt>
      <trkpt lat="44.85185" lon="6.80408">
        <ele>2007</ele>
        <time>2020-08-01T08:36:20Z</time>
      </trkpt>
      <trkpt lat="44.85169" lon="6.80435">
        <ele>2009</ele>
        <time>2020-08-01T08:36:33Z</time>
      </trkpt>
      <trkpt lat="44.85162" lon="6.80469">
        <ele>2007</ele>
        <time>2020-08-01T08:36:42Z</time>
      </trkpt>
      <trkpt lat="44.85162" lon="6.80483">
        <ele>2006</ele>
        <time>2020-08-01T08:36:45Z</time>
      </trkpt>
      <trkpt lat="44.85161" lon="6.80488">
        <ele>2006</ele>
        <time>2020-08-01T08:36:46Z</time>
      </trkpt>
      <trkpt lat="44.85156" lon="6.80499">
        <ele>2006</ele>
        <time>2020-08-01T08:36:48Z</time>
      </trkpt>
      <trkpt lat="44.85154" lon="6.80505">
        <ele>2007</ele>
        <time>2020-08-01T08:36:49Z</time>
      </trkpt>
      <trkpt lat="44.85149" lon="6.80517">
        <ele>2007</ele>
        <time>2020-08-01T08:36:51Z</time>
      </trkpt>
      <trkpt lat="44.85147" lon="6.80521">
        <ele>2008</ele>
        <time>2020-08-01T08:36:52Z</time>
      </trkpt>
      <trkpt lat="44.85144" lon="6.80564">
        <ele>2005</ele>
        <time>2020-08-01T08:37:03Z</time>
      </trkpt>
      <trkpt lat="44.85131" lon="6.80595">
        <ele>2008</ele>
        <time>2020-08-01T08:37:13Z</time>
      </trkpt>
      <trkpt lat="44.85118" lon="6.80635">
        <ele>2012</ele>
        <time>2020-08-01T08:37:26Z</time>
      </trkpt>
      <trkpt lat="44.85117" lon="6.80638">
        <ele>2012</ele>
        <time>2020-08-01T08:37:27Z</time>
      </trkpt>
      <trkpt lat="44.85116" lon="6.80641">
        <ele>2012</ele>
        <time>2020-08-01T08:37:28Z</time>
      </trkpt>
      <trkpt lat="44.85115" lon="6.80644">
        <ele>2012</ele>
        <time>2020-08-01T08:37:29Z</time>
      </trkpt>
      <trkpt lat="44.85114" lon="6.80647">
        <ele>2012</ele>
        <time>2020-08-01T08:37:30Z</time>
      </trkpt>
      <trkpt lat="44.85113" lon="6.80651">
        <ele>2012</ele>
        <time>2020-08-01T08:37:31Z</time>
      </trkpt>
      <trkpt lat="44.85112" lon="6.80654">
        <ele>2012</ele>
        <time>2020-08-01T08:37:32Z</time>
      </trkpt>
      <trkpt lat="44.85111" lon="6.80657">
        <ele>2012</ele>
        <time>2020-08-01T08:37:33Z</time>
      </trkpt>
      <trkpt lat="44.85109" lon="6.80659">
        <ele>2012</ele>
        <time>2020-08-01T08:37:34Z</time>
      </trkpt>
      <trkpt lat="44.85108" lon="6.80662">
        <ele>2012</ele>
        <time>2020-08-01T08:37:35Z</time>
      </trkpt>
      <trkpt lat="44.85107" lon="6.80666">
        <ele>2012</ele>
        <time>2020-08-01T08:37:36Z</time>
      </trkpt>
      <trkpt lat="44.85105" lon="6.80669">
        <ele>2013</ele>
        <time>2020-08-01T08:37:37Z</time>
      </trkpt>
      <trkpt lat="44.85082" lon="6.80714">
        <ele>2015</ele>
        <time>2020-08-01T08:37:50Z</time>
      </trkpt>
      <trkpt lat="44.85061" lon="6.80732">
        <ele>2017</ele>
        <time>2020-08-01T08:38:00Z</time>
      </trkpt>
      <trkpt lat="44.85044" lon="6.80737">
        <ele>2017</ele>
        <time>2020-08-01T08:38:06Z</time>
      </trkpt>
      <trkpt lat="44.84998" lon="6.80747">
        <ele>2017</ele>
        <time>2020-08-01T08:38:18Z</time>
      </trkpt>
      <trkpt lat="44.84977" lon="6.8078">
        <ele>2020</ele>
        <time>2020-08-01T08:38:29Z</time>
      </trkpt>
      <trkpt lat="44.84975" lon="6.80793">
        <ele>2019</ele>
        <time>2020-08-01T08:38:33Z</time>
      </trkpt>
      <trkpt lat="44.84974" lon="6.80796">
        <ele>2019</ele>
        <time>2020-08-01T08:38:34Z</time>
      </trkpt>
      <trkpt lat="44.84974" lon="6.80799">
        <ele>2019</ele>
        <time>2020-08-01T08:38:35Z</time>
      </trkpt>
      <trkpt lat="44.84974" lon="6.80803">
        <ele>2018</ele>
        <time>2020-08-01T08:38:36Z</time>
      </trkpt>
      <trkpt lat="44.84973" lon="6.80806">
        <ele>2018</ele>
        <time>2020-08-01T08:38:37Z</time>
      </trkpt>
      <trkpt lat="44.84972" lon="6.80809">
        <ele>2019</ele>
        <time>2020-08-01T08:38:38Z</time>
      </trkpt>
      <trkpt lat="44.84971" lon="6.80812">
        <ele>2019</ele>
        <time>2020-08-01T08:38:39Z</time>
      </trkpt>
      <trkpt lat="44.84969" lon="6.80815">
        <ele>2020</ele>
        <time>2020-08-01T08:38:40Z</time>
      </trkpt>
      <trkpt lat="44.84968" lon="6.80818">
        <ele>2020</ele>
        <time>2020-08-01T08:38:41Z</time>
      </trkpt>
      <trkpt lat="44.84966" lon="6.8082">
        <ele>2021</ele>
        <time>2020-08-01T08:38:42Z</time>
      </trkpt>
      <trkpt lat="44.84964" lon="6.80823">
        <ele>2021</ele>
        <time>2020-08-01T08:38:43Z</time>
      </trkpt>
      <trkpt lat="44.84944" lon="6.80855">
        <ele>2023</ele>
        <time>2020-08-01T08:38:59Z</time>
      </trkpt>
      <trkpt lat="44.84929" lon="6.80873">
        <ele>2026</ele>
        <time>2020-08-01T08:39:12Z</time>
      </trkpt>
      <trkpt lat="44.84907" lon="6.80902">
        <ele>2027</ele>
        <time>2020-08-01T08:39:28Z</time>
      </trkpt>
      <trkpt lat="44.84889" lon="6.80923">
        <ele>2027</ele>
        <time>2020-08-01T08:39:40Z</time>
      </trkpt>
      <trkpt lat="44.84885" lon="6.80939">
        <ele>2027</ele>
        <time>2020-08-01T08:39:44Z</time>
      </trkpt>
      <trkpt lat="44.84884" lon="6.80945">
        <ele>2027</ele>
        <time>2020-08-01T08:39:45Z</time>
      </trkpt>
      <trkpt lat="44.84883" lon="6.80951">
        <ele>2027</ele>
        <time>2020-08-01T08:39:46Z</time>
      </trkpt>
      <trkpt lat="44.84881" lon="6.80956">
        <ele>2028</ele>
        <time>2020-08-01T08:39:47Z</time>
      </trkpt>
      <trkpt lat="44.84879" lon="6.80959">
        <ele>2028</ele>
        <time>2020-08-01T08:39:48Z</time>
      </trkpt>
      <trkpt lat="44.84877" lon="6.80962">
        <ele>2029</ele>
        <time>2020-08-01T08:39:49Z</time>
      </trkpt>
      <trkpt lat="44.84858" lon="6.80981">
        <ele>2033</ele>
        <time>2020-08-01T08:40:02Z</time>
      </trkpt>
      <trkpt lat="44.84857" lon="6.80981">
        <ele>2033</ele>
        <time>2020-08-01T08:40:06Z</time>
      </trkpt>
      <trkpt lat="44.84844" lon="6.80978">
        <ele>2037</ele>
        <time>2020-08-01T08:40:23Z</time>
      </trkpt>
      <trkpt lat="44.84842" lon="6.80978">
        <ele>2037</ele>
        <time>2020-08-01T08:40:24Z</time>
      </trkpt>
      <trkpt lat="44.84841" lon="6.80978">
        <ele>2038</ele>
        <time>2020-08-01T08:40:25Z</time>
      </trkpt>
      <trkpt lat="44.84839" lon="6.80978">
        <ele>2038</ele>
        <time>2020-08-01T08:40:26Z</time>
      </trkpt>
      <trkpt lat="44.84837" lon="6.80978">
        <ele>2038</ele>
        <time>2020-08-01T08:40:27Z</time>
      </trkpt>
      <trkpt lat="44.84815" lon="6.81">
        <ele>2041</ele>
        <time>2020-08-01T08:40:39Z</time>
      </trkpt>
      <trkpt lat="44.84795" lon="6.81046">
        <ele>2041</ele>
        <time>2020-08-01T08:40:52Z</time>
      </trkpt>
      <trkpt lat="44.84793" lon="6.81051">
        <ele>2042</ele>
        <time>2020-08-01T08:40:53Z</time>
      </trkpt>
      <trkpt lat="44.84789" lon="6.81056">
        <ele>2042</ele>
        <time>2020-08-01T08:40:54Z</time>
      </trkpt>
      <trkpt lat="44.84785" lon="6.81061">
        <ele>2043</ele>
        <time>2020-08-01T08:40:55Z</time>
      </trkpt>
      <trkpt lat="44.84754" lon="6.81087">
        <ele>2049</ele>
        <time>2020-08-01T08:41:02Z</time>
      </trkpt>
      <trkpt lat="44.84749" lon="6.81088">
        <ele>2050</ele>
        <time>2020-08-01T08:41:03Z</time>
      </trkpt>
      <trkpt lat="44.84746" lon="6.81091">
        <ele>2050</ele>
        <time>2020-08-01T08:41:04Z</time>
      </trkpt>
      <trkpt lat="44.84742" lon="6.81096">
        <ele>2050</ele>
        <time>2020-08-01T08:41:05Z</time>
      </trkpt>
      <trkpt lat="44.84738" lon="6.811">
        <ele>2050</ele>
        <time>2020-08-01T08:41:06Z</time>
      </trkpt>
      <trkpt lat="44.84722" lon="6.8113">
        <ele>2048</ele>
        <time>2020-08-01T08:41:12Z</time>
      </trkpt>
      <trkpt lat="44.84717" lon="6.81142">
        <ele>2047</ele>
        <time>2020-08-01T08:41:14Z</time>
      </trkpt>
      <trkpt lat="44.84715" lon="6.81149">
        <ele>2047</ele>
        <time>2020-08-01T08:41:15Z</time>
      </trkpt>
      <trkpt lat="44.84712" lon="6.81155">
        <ele>2047</ele>
        <time>2020-08-01T08:41:16Z</time>
      </trkpt>
      <trkpt lat="44.84709" lon="6.81161">
        <ele>2046</ele>
        <time>2020-08-01T08:41:17Z</time>
      </trkpt>
      <trkpt lat="44.84708" lon="6.81167">
        <ele>2046</ele>
        <time>2020-08-01T08:41:18Z</time>
      </trkpt>
      <trkpt lat="44.84706" lon="6.81172">
        <ele>2045</ele>
        <time>2020-08-01T08:41:19Z</time>
      </trkpt>
      <trkpt lat="44.84704" lon="6.81178">
        <ele>2045</ele>
        <time>2020-08-01T08:41:20Z</time>
      </trkpt>
      <trkpt lat="44.84701" lon="6.81182">
        <ele>2044</ele>
        <time>2020-08-01T08:41:21Z</time>
      </trkpt>
      <trkpt lat="44.84698" lon="6.81186">
        <ele>2043</ele>
        <time>2020-08-01T08:41:22Z</time>
      </trkpt>
      <trkpt lat="44.84694" lon="6.8119">
        <ele>2043</ele>
        <time>2020-08-01T08:41:23Z</time>
      </trkpt>
      <trkpt lat="44.84661" lon="6.81229">
        <ele>2045</ele>
        <time>2020-08-01T08:41:34Z</time>
      </trkpt>
      <trkpt lat="44.84622" lon="6.81271">
        <ele>2046</ele>
        <time>2020-08-01T08:41:47Z</time>
      </trkpt>
      <trkpt lat="44.84594" lon="6.81312">
        <ele>2043</ele>
        <time>2020-08-01T08:42:00Z</time>
      </trkpt>
      <trkpt lat="44.84582" lon="6.81346">
        <ele>2040</ele>
        <time>2020-08-01T08:42:13Z</time>
      </trkpt>
      <trkpt lat="44.84573" lon="6.81389">
        <ele>2042</ele>
        <time>2020-08-01T08:42:26Z</time>
      </trkpt>
      <trkpt lat="44.84561" lon="6.81449">
        <ele>2047</ele>
        <time>2020-08-01T08:42:39Z</time>
      </trkpt>
      <trkpt lat="44.84563" lon="6.81464">
        <ele>2047</ele>
        <time>2020-08-01T08:42:42Z</time>
      </trkpt>
      <trkpt lat="44.84562" lon="6.81469">
        <ele>2047</ele>
        <time>2020-08-01T08:42:43Z</time>
      </trkpt>
      <trkpt lat="44.8456" lon="6.81473">
        <ele>2047</ele>
        <time>2020-08-01T08:42:44Z</time>
      </trkpt>
      <trkpt lat="44.84559" lon="6.81478">
        <ele>2047</ele>
        <time>2020-08-01T08:42:45Z</time>
      </trkpt>
      <trkpt lat="44.84556" lon="6.81482">
        <ele>2047</ele>
        <time>2020-08-01T08:42:46Z</time>
      </trkpt>
      <trkpt lat="44.84554" lon="6.81486">
        <ele>2047</ele>
        <time>2020-08-01T08:42:47Z</time>
      </trkpt>
      <trkpt lat="44.8452" lon="6.81514">
        <ele>2046</ele>
        <time>2020-08-01T08:42:59Z</time>
      </trkpt>
      <trkpt lat="44.84505" lon="6.81528">
        <ele>2045</ele>
        <time>2020-08-01T08:43:06Z</time>
      </trkpt>
      <trkpt lat="44.84505" lon="6.81532">
        <ele>2045</ele>
        <time>2020-08-01T08:43:07Z</time>
      </trkpt>
      <trkpt lat="44.84504" lon="6.81535">
        <ele>2045</ele>
        <time>2020-08-01T08:43:08Z</time>
      </trkpt>
      <trkpt lat="44.84505" lon="6.81539">
        <ele>2046</ele>
        <time>2020-08-01T08:43:09Z</time>
      </trkpt>
      <trkpt lat="44.84505" lon="6.81543">
        <ele>2046</ele>
        <time>2020-08-01T08:43:10Z</time>
      </trkpt>
      <trkpt lat="44.84512" lon="6.81578">
        <ele>2047</ele>
        <time>2020-08-01T08:43:19Z</time>
      </trkpt>
      <trkpt lat="44.84512" lon="6.81582">
        <ele>2047</ele>
        <time>2020-08-01T08:43:20Z</time>
      </trkpt>
      <trkpt lat="44.84511" lon="6.81585">
        <ele>2048</ele>
        <time>2020-08-01T08:43:21Z</time>
      </trkpt>
      <trkpt lat="44.84509" lon="6.81587">
        <ele>2048</ele>
        <time>2020-08-01T08:43:22Z</time>
      </trkpt>
      <trkpt lat="44.84506" lon="6.8159">
        <ele>2048</ele>
        <time>2020-08-01T08:43:23Z</time>
      </trkpt>
      <trkpt lat="44.84494" lon="6.81602">
        <ele>2049</ele>
        <time>2020-08-01T08:43:28Z</time>
      </trkpt>
      <trkpt lat="44.84448" lon="6.81603">
        <ele>2051</ele>
        <time>2020-08-01T08:43:41Z</time>
      </trkpt>
      <trkpt lat="44.84419" lon="6.81621">
        <ele>2052</ele>
        <time>2020-08-01T08:43:52Z</time>
      </trkpt>
      <trkpt lat="44.84404" lon="6.81675">
        <ele>2054</ele>
        <time>2020-08-01T08:44:09Z</time>
      </trkpt>
      <trkpt lat="44.84387" lon="6.81711">
        <ele>2055</ele>
        <time>2020-08-01T08:44:23Z</time>
      </trkpt>
      <trkpt lat="44.84375" lon="6.81713">
        <ele>2055</ele>
        <time>2020-08-01T08:44:30Z</time>
      </trkpt>
      <trkpt lat="44.84368" lon="6.81722">
        <ele>2055</ele>
        <time>2020-08-01T08:44:41Z</time>
      </trkpt>
      <trkpt lat="44.84365" lon="6.81728">
        <ele>2055</ele>
        <time>2020-08-01T08:46:29Z</time>
      </trkpt>
      <trkpt lat="44.84364" lon="6.81729">
        <ele>2055</ele>
        <time>2020-08-01T08:46:30Z</time>
      </trkpt>
      <trkpt lat="44.84363" lon="6.8173">
        <ele>2055</ele>
        <time>2020-08-01T08:46:31Z</time>
      </trkpt>
      <trkpt lat="44.84358" lon="6.81743">
        <ele>2056</ele>
        <time>2020-08-01T08:46:37Z</time>
      </trkpt>
      <trkpt lat="44.84341" lon="6.81733">
        <ele>2054</ele>
        <time>2020-08-01T08:46:46Z</time>
      </trkpt>
      <trkpt lat="44.84314" lon="6.81709">
        <ele>2054</ele>
        <time>2020-08-01T08:46:59Z</time>
      </trkpt>
      <trkpt lat="44.84311" lon="6.81709">
        <ele>2054</ele>
        <time>2020-08-01T08:47:00Z</time>
      </trkpt>
      <trkpt lat="44.84309" lon="6.81709">
        <ele>2054</ele>
        <time>2020-08-01T08:47:01Z</time>
      </trkpt>
      <trkpt lat="44.84306" lon="6.81709">
        <ele>2054</ele>
        <time>2020-08-01T08:47:02Z</time>
      </trkpt>
      <trkpt lat="44.84304" lon="6.8171">
        <ele>2054</ele>
        <time>2020-08-01T08:47:03Z</time>
      </trkpt>
      <trkpt lat="44.843" lon="6.81711">
        <ele>2054</ele>
        <time>2020-08-01T08:47:05Z</time>
      </trkpt>
      <trkpt lat="44.84298" lon="6.81714">
        <ele>2054</ele>
        <time>2020-08-01T08:47:06Z</time>
      </trkpt>
      <trkpt lat="44.84296" lon="6.81717">
        <ele>2055</ele>
        <time>2020-08-01T08:47:07Z</time>
      </trkpt>
      <trkpt lat="44.84295" lon="6.8172">
        <ele>2055</ele>
        <time>2020-08-01T08:47:08Z</time>
      </trkpt>
      <trkpt lat="44.84295" lon="6.81723">
        <ele>2055</ele>
        <time>2020-08-01T08:47:09Z</time>
      </trkpt>
      <trkpt lat="44.84289" lon="6.8178">
        <ele>2057</ele>
        <time>2020-08-01T08:47:27Z</time>
      </trkpt>
      <trkpt lat="44.84286" lon="6.81818">
        <ele>2059</ele>
        <time>2020-08-01T08:47:41Z</time>
      </trkpt>
      <trkpt lat="44.84288" lon="6.81844">
        <ele>2061</ele>
        <time>2020-08-01T08:47:51Z</time>
      </trkpt>
      <trkpt lat="44.84289" lon="6.81882">
        <ele>2064</ele>
        <time>2020-08-01T08:48:06Z</time>
      </trkpt>
      <trkpt lat="44.84287" lon="6.8189">
        <ele>2065</ele>
        <time>2020-08-01T08:48:10Z</time>
      </trkpt>
      <trkpt lat="44.84287" lon="6.81908">
        <ele>2067</ele>
        <time>2020-08-01T08:48:23Z</time>
      </trkpt>
      <trkpt lat="44.84209" lon="6.82084">
        <ele>2112</ele>
        <time>2020-08-01T08:56:18Z</time>
      </trkpt>
      <trkpt lat="44.84207" lon="6.82088">
        <ele>2113</ele>
        <time>2020-08-01T08:56:23Z</time>
      </trkpt>
      <trkpt lat="44.84208" lon="6.82105">
        <ele>2113</ele>
        <time>2020-08-01T08:56:34Z</time>
      </trkpt>
      <trkpt lat="44.84207" lon="6.82119">
        <ele>2114</ele>
        <time>2020-08-01T08:56:49Z</time>
      </trkpt>
      <trkpt lat="44.84206" lon="6.82122">
        <ele>2114</ele>
        <time>2020-08-01T08:56:54Z</time>
      </trkpt>
      <trkpt lat="44.84202" lon="6.82372">
        <ele>2166</ele>
        <time>2020-08-01T09:03:02Z</time>
      </trkpt>
      <trkpt lat="44.84198" lon="6.8238">
        <ele>2168</ele>
        <time>2020-08-01T09:03:14Z</time>
      </trkpt>
      <trkpt lat="44.84212" lon="6.82576">
        <ele>2208</ele>
        <time>2020-08-01T09:07:32Z</time>
      </trkpt>
      <trkpt lat="44.8421" lon="6.82593">
        <ele>2212</ele>
        <time>2020-08-01T09:07:46Z</time>
      </trkpt>
      <trkpt lat="44.84209" lon="6.82611">
        <ele>2216</ele>
        <time>2020-08-01T09:08:02Z</time>
      </trkpt>
      <trkpt lat="44.84213" lon="6.82619">
        <ele>2216</ele>
        <time>2020-08-01T09:08:09Z</time>
      </trkpt>
      <trkpt lat="44.84216" lon="6.82641">
        <ele>2221</ele>
        <time>2020-08-01T09:08:26Z</time>
      </trkpt>
      <trkpt lat="44.84217" lon="6.82645">
        <ele>2221</ele>
        <time>2020-08-01T09:08:32Z</time>
      </trkpt>
      <trkpt lat="44.84226" lon="6.82692">
        <ele>2225</ele>
        <time>2020-08-01T09:09:22Z</time>
      </trkpt>
      <trkpt lat="44.84225" lon="6.82722">
        <ele>2228</ele>
        <time>2020-08-01T09:09:37Z</time>
      </trkpt>
      <trkpt lat="44.84225" lon="6.82731">
        <ele>2228</ele>
        <time>2020-08-01T09:09:41Z</time>
      </trkpt>
      <trkpt lat="44.84223" lon="6.82741">
        <ele>2229</ele>
        <time>2020-08-01T09:09:46Z</time>
      </trkpt>
      <trkpt lat="44.84214" lon="6.82777">
        <ele>2229</ele>
        <time>2020-08-01T09:10:03Z</time>
      </trkpt>
      <trkpt lat="44.84207" lon="6.82806">
        <ele>2229</ele>
        <time>2020-08-01T09:10:18Z</time>
      </trkpt>
      <trkpt lat="44.84199" lon="6.82824">
        <ele>2232</ele>
        <time>2020-08-01T09:10:31Z</time>
      </trkpt>
      <trkpt lat="44.84199" lon="6.82844">
        <ele>2235</ele>
        <time>2020-08-01T09:10:43Z</time>
      </trkpt>
      <trkpt lat="44.84194" lon="6.82871">
        <ele>2240</ele>
        <time>2020-08-01T09:10:58Z</time>
      </trkpt>
      <trkpt lat="44.84185" lon="6.82897">
        <ele>2245</ele>
        <time>2020-08-01T09:11:13Z</time>
      </trkpt>
      <trkpt lat="44.84175" lon="6.8291">
        <ele>2248</ele>
        <time>2020-08-01T09:11:24Z</time>
      </trkpt>
      <trkpt lat="44.84171" lon="6.82916">
        <ele>2249</ele>
        <time>2020-08-01T09:11:28Z</time>
      </trkpt>
      <trkpt lat="44.84169" lon="6.82936">
        <ele>2250</ele>
        <time>2020-08-01T09:11:37Z</time>
      </trkpt>
      <trkpt lat="44.84169" lon="6.82946">
        <ele>2251</ele>
        <time>2020-08-01T09:11:42Z</time>
      </trkpt>
      <trkpt lat="44.8417" lon="6.82956">
        <ele>2252</ele>
        <time>2020-08-01T09:11:54Z</time>
      </trkpt>
      <trkpt lat="44.8417" lon="6.82956">
        <ele>2252</ele>
        <time>2020-08-01T09:11:57Z</time>
      </trkpt>
      <trkpt lat="44.84171" lon="6.82963">
        <ele>2252</ele>
        <time>2020-08-01T09:12:01Z</time>
      </trkpt>
      <trkpt lat="44.84171" lon="6.82973">
        <ele>2254</ele>
        <time>2020-08-01T09:12:09Z</time>
      </trkpt>
      <trkpt lat="44.84172" lon="6.82999">
        <ele>2262</ele>
        <time>2020-08-01T09:12:32Z</time>
      </trkpt>
      <trkpt lat="44.84171" lon="6.83005">
        <ele>2264</ele>
        <time>2020-08-01T09:12:37Z</time>
      </trkpt>
      <trkpt lat="44.84168" lon="6.83033">
        <ele>2274</ele>
        <time>2020-08-01T09:12:57Z</time>
      </trkpt>
      <trkpt lat="44.84168" lon="6.83035">
        <ele>2274</ele>
        <time>2020-08-01T09:12:59Z</time>
      </trkpt>
      <trkpt lat="44.84167" lon="6.83062">
        <ele>2268</ele>
        <time>2020-08-01T09:13:19Z</time>
      </trkpt>
      <trkpt lat="44.84166" lon="6.83064">
        <ele>2268</ele>
        <time>2020-08-01T09:13:21Z</time>
      </trkpt>
      <trkpt lat="44.84163" lon="6.83085">
        <ele>2263</ele>
        <time>2020-08-01T09:13:36Z</time>
      </trkpt>
      <trkpt lat="44.8416" lon="6.83103">
        <ele>2262</ele>
        <time>2020-08-01T09:13:50Z</time>
      </trkpt>
      <trkpt lat="44.84159" lon="6.83104">
        <ele>2262</ele>
        <time>2020-08-01T09:13:51Z</time>
      </trkpt>
      <trkpt lat="44.8416" lon="6.83126">
        <ele>2260</ele>
        <time>2020-08-01T09:14:09Z</time>
      </trkpt>
      <trkpt lat="44.8416" lon="6.83128">
        <ele>2260</ele>
        <time>2020-08-01T09:14:11Z</time>
      </trkpt>
      <trkpt lat="44.84157" lon="6.83151">
        <ele>2263</ele>
        <time>2020-08-01T09:14:28Z</time>
      </trkpt>
      <trkpt lat="44.84153" lon="6.83162">
        <ele>2267</ele>
        <time>2020-08-01T09:14:38Z</time>
      </trkpt>
      <trkpt lat="44.84153" lon="6.83168">
        <ele>2267</ele>
        <time>2020-08-01T09:14:46Z</time>
      </trkpt>
      <trkpt lat="44.84153" lon="6.83175">
        <ele>2268</ele>
        <time>2020-08-01T09:14:50Z</time>
      </trkpt>
      <trkpt lat="44.84155" lon="6.83185">
        <ele>2267</ele>
        <time>2020-08-01T09:14:54Z</time>
      </trkpt>
      <trkpt lat="44.84149" lon="6.83199">
        <ele>2270</ele>
        <time>2020-08-01T09:15:01Z</time>
      </trkpt>
      <trkpt lat="44.84145" lon="6.83232">
        <ele>2271</ele>
        <time>2020-08-01T09:15:16Z</time>
      </trkpt>
      <trkpt lat="44.84133" lon="6.83276">
        <ele>2273</ele>
        <time>2020-08-01T09:15:33Z</time>
      </trkpt>
      <trkpt lat="44.84128" lon="6.83288">
        <ele>2274</ele>
        <time>2020-08-01T09:15:37Z</time>
      </trkpt>
      <trkpt lat="44.84118" lon="6.833">
        <ele>2276</ele>
        <time>2020-08-01T09:15:44Z</time>
      </trkpt>
      <trkpt lat="44.84115" lon="6.83337">
        <ele>2276</ele>
        <time>2020-08-01T09:15:59Z</time>
      </trkpt>
      <trkpt lat="44.84113" lon="6.83375">
        <ele>2279</ele>
        <time>2020-08-01T09:16:15Z</time>
      </trkpt>
      <trkpt lat="44.84113" lon="6.83401">
        <ele>2280</ele>
        <time>2020-08-01T09:16:27Z</time>
      </trkpt>
      <trkpt lat="44.84115" lon="6.83426">
        <ele>2280</ele>
        <time>2020-08-01T09:16:38Z</time>
      </trkpt>
      <trkpt lat="44.84118" lon="6.83455">
        <ele>2280</ele>
        <time>2020-08-01T09:16:50Z</time>
      </trkpt>
      <trkpt lat="44.84124" lon="6.83483">
        <ele>2280</ele>
        <time>2020-08-01T09:17:01Z</time>
      </trkpt>
      <trkpt lat="44.84129" lon="6.83496">
        <ele>2279</ele>
        <time>2020-08-01T09:17:06Z</time>
      </trkpt>
      <trkpt lat="44.84131" lon="6.83506">
        <ele>2280</ele>
        <time>2020-08-01T09:17:10Z</time>
      </trkpt>
      <trkpt lat="44.84134" lon="6.83525">
        <ele>2282</ele>
        <time>2020-08-01T09:17:19Z</time>
      </trkpt>
      <trkpt lat="44.84135" lon="6.83551">
        <ele>2285</ele>
        <time>2020-08-01T09:17:31Z</time>
      </trkpt>
      <trkpt lat="44.84135" lon="6.83562">
        <ele>2286</ele>
        <time>2020-08-01T09:17:36Z</time>
      </trkpt>
      <trkpt lat="44.84132" lon="6.83574">
        <ele>2288</ele>
        <time>2020-08-01T09:17:41Z</time>
      </trkpt>
      <trkpt lat="44.84129" lon="6.83599">
        <ele>2291</ele>
        <time>2020-08-01T09:17:56Z</time>
      </trkpt>
      <trkpt lat="44.84129" lon="6.836">
        <ele>2291</ele>
        <time>2020-08-01T09:17:57Z</time>
      </trkpt>
      <trkpt lat="44.84127" lon="6.83712">
        <ele>2299</ele>
        <time>2020-08-01T09:23:01Z</time>
      </trkpt>
      <trkpt lat="44.84126" lon="6.8372">
        <ele>2300</ele>
        <time>2020-08-01T09:23:13Z</time>
      </trkpt>
      <trkpt lat="44.84124" lon="6.83726">
        <ele>2300</ele>
        <time>2020-08-01T09:23:17Z</time>
      </trkpt>
      <trkpt lat="44.84119" lon="6.83757">
        <ele>2303</ele>
        <time>2020-08-01T09:23:33Z</time>
      </trkpt>
      <trkpt lat="44.84116" lon="6.83773">
        <ele>2303</ele>
        <time>2020-08-01T09:23:40Z</time>
      </trkpt>
      <trkpt lat="44.84116" lon="6.83788">
        <ele>2303</ele>
        <time>2020-08-01T09:23:46Z</time>
      </trkpt>
      <trkpt lat="44.84112" lon="6.83807">
        <ele>2302</ele>
        <time>2020-08-01T09:23:55Z</time>
      </trkpt>
      <trkpt lat="44.84106" lon="6.83831">
        <ele>2303</ele>
        <time>2020-08-01T09:24:06Z</time>
      </trkpt>
      <trkpt lat="44.84103" lon="6.83841">
        <ele>2303</ele>
        <time>2020-08-01T09:24:11Z</time>
      </trkpt>
      <trkpt lat="44.84099" lon="6.83847">
        <ele>2304</ele>
        <time>2020-08-01T09:24:15Z</time>
      </trkpt>
      <trkpt lat="44.84089" lon="6.83873">
        <ele>2309</ele>
        <time>2020-08-01T09:24:28Z</time>
      </trkpt>
      <trkpt lat="44.84071" lon="6.83897">
        <ele>2314</ele>
        <time>2020-08-01T09:24:45Z</time>
      </trkpt>
      <trkpt lat="44.84059" lon="6.83917">
        <ele>2315</ele>
        <time>2020-08-01T09:24:57Z</time>
      </trkpt>
      <trkpt lat="44.84045" lon="6.83953">
        <ele>2318</ele>
        <time>2020-08-01T09:25:15Z</time>
      </trkpt>
      <trkpt lat="44.84033" lon="6.83981">
        <ele>2322</ele>
        <time>2020-08-01T09:25:31Z</time>
      </trkpt>
      <trkpt lat="44.84027" lon="6.83998">
        <ele>2323</ele>
        <time>2020-08-01T09:25:41Z</time>
      </trkpt>
      <trkpt lat="44.84025" lon="6.84006">
        <ele>2323</ele>
        <time>2020-08-01T09:25:45Z</time>
      </trkpt>
      <trkpt lat="44.84013" lon="6.84042">
        <ele>2326</ele>
        <time>2020-08-01T09:26:04Z</time>
      </trkpt>
      <trkpt lat="44.84004" lon="6.84073">
        <ele>2328</ele>
        <time>2020-08-01T09:26:21Z</time>
      </trkpt>
      <trkpt lat="44.84001" lon="6.84078">
        <ele>2328</ele>
        <time>2020-08-01T09:26:24Z</time>
      </trkpt>
      <trkpt lat="44.83999" lon="6.84089">
        <ele>2329</ele>
        <time>2020-08-01T09:26:30Z</time>
      </trkpt>
      <trkpt lat="44.83985" lon="6.84127">
        <ele>2333</ele>
        <time>2020-08-01T09:26:49Z</time>
      </trkpt>
      <trkpt lat="44.83976" lon="6.84136">
        <ele>2335</ele>
        <time>2020-08-01T09:27:03Z</time>
      </trkpt>
      <trkpt lat="44.83972" lon="6.84142">
        <ele>2336</ele>
        <time>2020-08-01T09:27:11Z</time>
      </trkpt>
      <trkpt lat="44.83974" lon="6.84159">
        <ele>2336</ele>
        <time>2020-08-01T09:27:24Z</time>
      </trkpt>
      <trkpt lat="44.83972" lon="6.84169">
        <ele>2337</ele>
        <time>2020-08-01T09:27:35Z</time>
      </trkpt>
      <trkpt lat="44.83972" lon="6.84187">
        <ele>2337</ele>
        <time>2020-08-01T09:27:52Z</time>
      </trkpt>
      <trkpt lat="44.83972" lon="6.842">
        <ele>2338</ele>
        <time>2020-08-01T09:28:03Z</time>
      </trkpt>
      <trkpt lat="44.83974" lon="6.84209">
        <ele>2339</ele>
        <time>2020-08-01T09:28:09Z</time>
      </trkpt>
      <trkpt lat="44.83969" lon="6.8423">
        <ele>2342</ele>
        <time>2020-08-01T09:28:23Z</time>
      </trkpt>
      <trkpt lat="44.83967" lon="6.84246">
        <ele>2343</ele>
        <time>2020-08-01T09:28:37Z</time>
      </trkpt>
      <trkpt lat="44.83963" lon="6.84258">
        <ele>2344</ele>
        <time>2020-08-01T09:28:50Z</time>
      </trkpt>
      <trkpt lat="44.83962" lon="6.84262">
        <ele>2344</ele>
        <time>2020-08-01T09:28:53Z</time>
      </trkpt>
      <trkpt lat="44.8396" lon="6.84271">
        <ele>2344</ele>
        <time>2020-08-01T09:29:00Z</time>
      </trkpt>
      <trkpt lat="44.83959" lon="6.84282">
        <ele>2344</ele>
        <time>2020-08-01T09:29:13Z</time>
      </trkpt>
      <trkpt lat="44.83954" lon="6.8431">
        <ele>2342</ele>
        <time>2020-08-01T09:29:47Z</time>
      </trkpt>
      <trkpt lat="44.83952" lon="6.8434">
        <ele>2342</ele>
        <time>2020-08-01T09:30:01Z</time>
      </trkpt>
      <trkpt lat="44.83949" lon="6.84352">
        <ele>2344</ele>
        <time>2020-08-01T09:30:07Z</time>
      </trkpt>
      <trkpt lat="44.83942" lon="6.84379">
        <ele>2348</ele>
        <time>2020-08-01T09:30:20Z</time>
      </trkpt>
      <trkpt lat="44.83938" lon="6.84404">
        <ele>2351</ele>
        <time>2020-08-01T09:30:32Z</time>
      </trkpt>
      <trkpt lat="44.83923" lon="6.84426">
        <ele>2352</ele>
        <time>2020-08-01T09:30:47Z</time>
      </trkpt>
      <trkpt lat="44.83904" lon="6.84444">
        <ele>2355</ele>
        <time>2020-08-01T09:31:04Z</time>
      </trkpt>
      <trkpt lat="44.83885" lon="6.84472">
        <ele>2360</ele>
        <time>2020-08-01T09:31:22Z</time>
      </trkpt>
      <trkpt lat="44.83866" lon="6.84495">
        <ele>2364</ele>
        <time>2020-08-01T09:31:40Z</time>
      </trkpt>
      <trkpt lat="44.83846" lon="6.84518">
        <ele>2369</ele>
        <time>2020-08-01T09:31:58Z</time>
      </trkpt>
      <trkpt lat="44.83846" lon="6.8452">
        <ele>2369</ele>
        <time>2020-08-01T09:31:59Z</time>
      </trkpt>
      <trkpt lat="44.83833" lon="6.84539">
        <ele>2373</ele>
        <time>2020-08-01T09:32:13Z</time>
      </trkpt>
      <trkpt lat="44.83822" lon="6.84556">
        <ele>2374</ele>
        <time>2020-08-01T09:32:27Z</time>
      </trkpt>
      <trkpt lat="44.83821" lon="6.84557">
        <ele>2374</ele>
        <time>2020-08-01T09:32:28Z</time>
      </trkpt>
      <trkpt lat="44.83817" lon="6.84562">
        <ele>2375</ele>
        <time>2020-08-01T09:32:32Z</time>
      </trkpt>
      <trkpt lat="44.83816" lon="6.84568">
        <ele>2375</ele>
        <time>2020-08-01T09:32:36Z</time>
      </trkpt>
      <trkpt lat="44.83811" lon="6.84572">
        <ele>2376</ele>
        <time>2020-08-01T09:32:40Z</time>
      </trkpt>
      <trkpt lat="44.83808" lon="6.84574">
        <ele>2376</ele>
        <time>2020-08-01T09:32:42Z</time>
      </trkpt>
      <trkpt lat="44.83805" lon="6.8458">
        <ele>2377</ele>
        <time>2020-08-01T09:32:46Z</time>
      </trkpt>
      <trkpt lat="44.83797" lon="6.84591">
        <ele>2379</ele>
        <time>2020-08-01T09:32:55Z</time>
      </trkpt>
      <trkpt lat="44.83788" lon="6.84603">
        <ele>2381</ele>
        <time>2020-08-01T09:33:05Z</time>
      </trkpt>
      <trkpt lat="44.83776" lon="6.84633">
        <ele>2382</ele>
        <time>2020-08-01T09:33:23Z</time>
      </trkpt>
      <trkpt lat="44.83759" lon="6.84649">
        <ele>2385</ele>
        <time>2020-08-01T09:33:38Z</time>
      </trkpt>
      <trkpt lat="44.83757" lon="6.8465">
        <ele>2385</ele>
        <time>2020-08-01T09:33:40Z</time>
      </trkpt>
      <trkpt lat="44.83751" lon="6.84654">
        <ele>2386</ele>
        <time>2020-08-01T09:33:48Z</time>
      </trkpt>
      <trkpt lat="44.83735" lon="6.84672">
        <ele>2389</ele>
        <time>2020-08-01T09:34:23Z</time>
      </trkpt>
      <trkpt lat="44.83733" lon="6.84678">
        <ele>2390</ele>
        <time>2020-08-01T09:34:31Z</time>
      </trkpt>
      <trkpt lat="44.83731" lon="6.84679">
        <ele>2390</ele>
        <time>2020-08-01T09:34:33Z</time>
      </trkpt>
      <trkpt lat="44.83728" lon="6.84683">
        <ele>2391</ele>
        <time>2020-08-01T09:34:40Z</time>
      </trkpt>
      <trkpt lat="44.83723" lon="6.84696">
        <ele>2392</ele>
        <time>2020-08-01T09:35:06Z</time>
      </trkpt>
      <trkpt lat="44.83718" lon="6.84711">
        <ele>2394</ele>
        <time>2020-08-01T09:35:18Z</time>
      </trkpt>
      <trkpt lat="44.8371" lon="6.84723">
        <ele>2396</ele>
        <time>2020-08-01T09:35:31Z</time>
      </trkpt>
      <trkpt lat="44.83706" lon="6.84739">
        <ele>2398</ele>
        <time>2020-08-01T09:35:45Z</time>
      </trkpt>
      <trkpt lat="44.837" lon="6.8475">
        <ele>2400</ele>
        <time>2020-08-01T09:35:57Z</time>
      </trkpt>
      <trkpt lat="44.83695" lon="6.84758">
        <ele>2402</ele>
        <time>2020-08-01T09:36:06Z</time>
      </trkpt>
      <trkpt lat="44.83684" lon="6.84778">
        <ele>2404</ele>
        <time>2020-08-01T09:36:24Z</time>
      </trkpt>
      <trkpt lat="44.83682" lon="6.84782">
        <ele>2404</ele>
        <time>2020-08-01T09:36:32Z</time>
      </trkpt>
      <trkpt lat="44.83679" lon="6.84788">
        <ele>2404</ele>
        <time>2020-08-01T09:36:37Z</time>
      </trkpt>
      <trkpt lat="44.83675" lon="6.84797">
        <ele>2405</ele>
        <time>2020-08-01T09:36:41Z</time>
      </trkpt>
      <trkpt lat="44.83671" lon="6.8482">
        <ele>2405</ele>
        <time>2020-08-01T09:36:53Z</time>
      </trkpt>
      <trkpt lat="44.83658" lon="6.84848">
        <ele>2408</ele>
        <time>2020-08-01T09:37:09Z</time>
      </trkpt>
      <trkpt lat="44.83647" lon="6.84884">
        <ele>2408</ele>
        <time>2020-08-01T09:37:28Z</time>
      </trkpt>
      <trkpt lat="44.83635" lon="6.84906">
        <ele>2410</ele>
        <time>2020-08-01T09:37:43Z</time>
      </trkpt>
      <trkpt lat="44.83623" lon="6.84933">
        <ele>2414</ele>
        <time>2020-08-01T09:37:59Z</time>
      </trkpt>
      <trkpt lat="44.83613" lon="6.84959">
        <ele>2419</ele>
        <time>2020-08-01T09:38:13Z</time>
      </trkpt>
      <trkpt lat="44.83603" lon="6.8499">
        <ele>2426</ele>
        <time>2020-08-01T09:38:28Z</time>
      </trkpt>
      <trkpt lat="44.83603" lon="6.85014">
        <ele>2428</ele>
        <time>2020-08-01T09:38:41Z</time>
      </trkpt>
      <trkpt lat="44.83604" lon="6.85014">
        <ele>2428</ele>
        <time>2020-08-01T09:38:42Z</time>
      </trkpt>
      <trkpt lat="44.83614" lon="6.85107">
        <ele>2438</ele>
        <time>2020-08-01T09:41:26Z</time>
      </trkpt>
      <trkpt lat="44.83615" lon="6.85109">
        <ele>2439</ele>
        <time>2020-08-01T09:41:28Z</time>
      </trkpt>
      <trkpt lat="44.83617" lon="6.85135">
        <ele>2443</ele>
        <time>2020-08-01T09:41:49Z</time>
      </trkpt>
      <trkpt lat="44.83613" lon="6.85159">
        <ele>2445</ele>
        <time>2020-08-01T09:42:08Z</time>
      </trkpt>
      <trkpt lat="44.83609" lon="6.8517">
        <ele>2446</ele>
        <time>2020-08-01T09:42:19Z</time>
      </trkpt>
      <trkpt lat="44.83608" lon="6.85194">
        <ele>2450</ele>
        <time>2020-08-01T09:42:37Z</time>
      </trkpt>
      <trkpt lat="44.836" lon="6.85208">
        <ele>2454</ele>
        <time>2020-08-01T09:42:55Z</time>
      </trkpt>
      <trkpt lat="44.83602" lon="6.85214">
        <ele>2455</ele>
        <time>2020-08-01T09:43:01Z</time>
      </trkpt>
      <trkpt lat="44.83604" lon="6.85234">
        <ele>2458</ele>
        <time>2020-08-01T09:43:16Z</time>
      </trkpt>
      <trkpt lat="44.83603" lon="6.85243">
        <ele>2459</ele>
        <time>2020-08-01T09:43:26Z</time>
      </trkpt>
      <trkpt lat="44.83593" lon="6.85327">
        <ele>2470</ele>
        <time>2020-08-01T09:45:00Z</time>
      </trkpt>
      <trkpt lat="44.8359" lon="6.85342">
        <ele>2472</ele>
        <time>2020-08-01T09:45:15Z</time>
      </trkpt>
      <trkpt lat="44.83584" lon="6.85356">
        <ele>2472</ele>
        <time>2020-08-01T09:45:33Z</time>
      </trkpt>
      <trkpt lat="44.83577" lon="6.8537">
        <ele>2475</ele>
        <time>2020-08-01T09:45:49Z</time>
      </trkpt>
      <trkpt lat="44.83569" lon="6.8539">
        <ele>2477</ele>
        <time>2020-08-01T09:46:09Z</time>
      </trkpt>
      <trkpt lat="44.83565" lon="6.85399">
        <ele>2479</ele>
        <time>2020-08-01T09:46:19Z</time>
      </trkpt>
      <trkpt lat="44.83566" lon="6.8542">
        <ele>2481</ele>
        <time>2020-08-01T09:46:32Z</time>
      </trkpt>
      <trkpt lat="44.83565" lon="6.85425">
        <ele>2481</ele>
        <time>2020-08-01T09:46:36Z</time>
      </trkpt>
      <trkpt lat="44.83561" lon="6.85438">
        <ele>2483</ele>
        <time>2020-08-01T09:46:50Z</time>
      </trkpt>
      <trkpt lat="44.83554" lon="6.85454">
        <ele>2486</ele>
        <time>2020-08-01T09:47:05Z</time>
      </trkpt>
      <trkpt lat="44.83548" lon="6.8547">
        <ele>2488</ele>
        <time>2020-08-01T09:47:19Z</time>
      </trkpt>
      <trkpt lat="44.83544" lon="6.85491">
        <ele>2490</ele>
        <time>2020-08-01T09:47:35Z</time>
      </trkpt>
      <trkpt lat="44.8354" lon="6.85511">
        <ele>2492</ele>
        <time>2020-08-01T09:47:52Z</time>
      </trkpt>
      <trkpt lat="44.83539" lon="6.85514">
        <ele>2492</ele>
        <time>2020-08-01T09:47:55Z</time>
      </trkpt>
      <trkpt lat="44.83535" lon="6.8552">
        <ele>2493</ele>
        <time>2020-08-01T09:48:04Z</time>
      </trkpt>
      <trkpt lat="44.83533" lon="6.85531">
        <ele>2494</ele>
        <time>2020-08-01T09:48:14Z</time>
      </trkpt>
      <trkpt lat="44.83532" lon="6.85549">
        <ele>2495</ele>
        <time>2020-08-01T09:48:26Z</time>
      </trkpt>
      <trkpt lat="44.83532" lon="6.85551">
        <ele>2495</ele>
        <time>2020-08-01T09:48:27Z</time>
      </trkpt>
      <trkpt lat="44.83527" lon="6.85561">
        <ele>2495</ele>
        <time>2020-08-01T09:48:35Z</time>
      </trkpt>
      <trkpt lat="44.83522" lon="6.85573">
        <ele>2495</ele>
        <time>2020-08-01T09:48:44Z</time>
      </trkpt>
      <trkpt lat="44.83515" lon="6.85592">
        <ele>2494</ele>
        <time>2020-08-01T09:49:00Z</time>
      </trkpt>
      <trkpt lat="44.83499" lon="6.85606">
        <ele>2493</ele>
        <time>2020-08-01T09:49:18Z</time>
      </trkpt>
      <trkpt lat="44.83496" lon="6.85609">
        <ele>2493</ele>
        <time>2020-08-01T09:49:23Z</time>
      </trkpt>
      <trkpt lat="44.83492" lon="6.85608">
        <ele>2493</ele>
        <time>2020-08-01T09:49:31Z</time>
      </trkpt>
      <trkpt lat="44.83489" lon="6.85611">
        <ele>2493</ele>
        <time>2020-08-01T10:02:44Z</time>
      </trkpt>
      <trkpt lat="44.83465" lon="6.85626">
        <ele>2492</ele>
        <time>2020-08-01T10:02:58Z</time>
      </trkpt>
      <trkpt lat="44.83461" lon="6.85629">
        <ele>2492</ele>
        <time>2020-08-01T10:03:01Z</time>
      </trkpt>
      <trkpt lat="44.83456" lon="6.85635">
        <ele>2492</ele>
        <time>2020-08-01T10:03:05Z</time>
      </trkpt>
      <trkpt lat="44.83437" lon="6.85671">
        <ele>2491</ele>
        <time>2020-08-01T10:03:19Z</time>
      </trkpt>
      <trkpt lat="44.83431" lon="6.85722">
        <ele>2493</ele>
        <time>2020-08-01T10:03:35Z</time>
      </trkpt>
      <trkpt lat="44.83432" lon="6.85735">
        <ele>2493</ele>
        <time>2020-08-01T10:03:39Z</time>
      </trkpt>
      <trkpt lat="44.83418" lon="6.8576">
        <ele>2495</ele>
        <time>2020-08-01T10:03:50Z</time>
      </trkpt>
      <trkpt lat="44.83407" lon="6.85803">
        <ele>2500</ele>
        <time>2020-08-01T10:04:07Z</time>
      </trkpt>
      <trkpt lat="44.83405" lon="6.85831">
        <ele>2503</ele>
        <time>2020-08-01T10:04:21Z</time>
      </trkpt>
      <trkpt lat="44.83406" lon="6.85859">
        <ele>2505</ele>
        <time>2020-08-01T10:04:37Z</time>
      </trkpt>
      <trkpt lat="44.83401" lon="6.85888">
        <ele>2507</ele>
        <time>2020-08-01T10:04:54Z</time>
      </trkpt>
      <trkpt lat="44.83398" lon="6.85899">
        <ele>2510</ele>
        <time>2020-08-01T10:05:04Z</time>
      </trkpt>
      <trkpt lat="44.83398" lon="6.85907">
        <ele>2511</ele>
        <time>2020-08-01T10:05:35Z</time>
      </trkpt>
      <trkpt lat="44.83394" lon="6.85914">
        <ele>2513</ele>
        <time>2020-08-01T10:05:50Z</time>
      </trkpt>
      <trkpt lat="44.83394" lon="6.85914">
        <ele>2513</ele>
        <time>2020-08-01T10:05:51Z</time>
      </trkpt>
      <trkpt lat="44.83354" lon="6.86192">
        <ele>2580</ele>
        <time>2020-08-01T10:13:00Z</time>
      </trkpt>
      <trkpt lat="44.83354" lon="6.8621">
        <ele>2582</ele>
        <time>2020-08-01T10:13:16Z</time>
      </trkpt>
      <trkpt lat="44.83353" lon="6.8622">
        <ele>2584</ele>
        <time>2020-08-01T10:13:25Z</time>
      </trkpt>
      <trkpt lat="44.83349" lon="6.86238">
        <ele>2587</ele>
        <time>2020-08-01T10:13:41Z</time>
      </trkpt>
      <trkpt lat="44.83345" lon="6.8626">
        <ele>2591</ele>
        <time>2020-08-01T10:13:59Z</time>
      </trkpt>
      <trkpt lat="44.83341" lon="6.86265">
        <ele>2592</ele>
        <time>2020-08-01T10:14:05Z</time>
      </trkpt>
      <trkpt lat="44.83332" lon="6.86279">
        <ele>2596</ele>
        <time>2020-08-01T10:14:21Z</time>
      </trkpt>
      <trkpt lat="44.83322" lon="6.8629">
        <ele>2600</ele>
        <time>2020-08-01T10:14:39Z</time>
      </trkpt>
      <trkpt lat="44.83318" lon="6.86291">
        <ele>2600</ele>
        <time>2020-08-01T10:14:44Z</time>
      </trkpt>
      <trkpt lat="44.83307" lon="6.86294">
        <ele>2603</ele>
        <time>2020-08-01T10:15:01Z</time>
      </trkpt>
      <trkpt lat="44.8326" lon="6.86523">
        <ele>2662</ele>
        <time>2020-08-01T10:21:21Z</time>
      </trkpt>
      <trkpt lat="44.83256" lon="6.86531">
        <ele>2664</ele>
        <time>2020-08-01T10:21:30Z</time>
      </trkpt>
      <trkpt lat="44.83255" lon="6.86532">
        <ele>2664</ele>
        <time>2020-08-01T10:21:32Z</time>
      </trkpt>
      <trkpt lat="44.83244" lon="6.86533">
        <ele>2667</ele>
        <time>2020-08-01T10:21:49Z</time>
      </trkpt>
      <trkpt lat="44.83241" lon="6.86534">
        <ele>2667</ele>
        <time>2020-08-01T10:21:54Z</time>
      </trkpt>
      <trkpt lat="44.83067" lon="6.86932">
        <ele>2827</ele>
        <time>2020-08-01T10:49:08Z</time>
      </trkpt>
      <trkpt lat="44.83068" lon="6.86938">
        <ele>2829</ele>
        <time>2020-08-01T10:49:16Z</time>
      </trkpt>
      <trkpt lat="44.83089" lon="6.87137">
        <ele>2887</ele>
        <time>2020-08-01T11:33:06Z</time>
      </trkpt>
      <trkpt lat="44.83084" lon="6.87131">
        <ele>2887</ele>
        <time>2020-08-01T11:33:10Z</time>
      </trkpt>
      <trkpt lat="44.83082" lon="6.8713">
        <ele>2886</ele>
        <time>2020-08-01T11:33:12Z</time>
      </trkpt>
      <trkpt lat="44.83076" lon="6.87161">
        <ele>2884</ele>
        <time>2020-08-01T11:33:19Z</time>
      </trkpt>
      <trkpt lat="44.8306" lon="6.87174">
        <ele>2876</ele>
        <time>2020-08-01T11:33:26Z</time>
      </trkpt>
      <trkpt lat="44.83054" lon="6.87174">
        <ele>2874</ele>
        <time>2020-08-01T11:33:29Z</time>
      </trkpt>
      <trkpt lat="44.83038" lon="6.87177">
        <ele>2867</ele>
        <time>2020-08-01T11:33:33Z</time>
      </trkpt>
      <trkpt lat="44.83028" lon="6.87178">
        <ele>2863</ele>
        <time>2020-08-01T11:33:37Z</time>
      </trkpt>
      <trkpt lat="44.83026" lon="6.87179">
        <ele>2862</ele>
        <time>2020-08-01T11:33:38Z</time>
      </trkpt>
      <trkpt lat="44.83023" lon="6.8718">
        <ele>2861</ele>
        <time>2020-08-01T11:33:41Z</time>
      </trkpt>
      <trkpt lat="44.83022" lon="6.87179">
        <ele>2860</ele>
        <time>2020-08-01T11:33:43Z</time>
      </trkpt>
      <trkpt lat="44.83014" lon="6.87178">
        <ele>2858</ele>
        <time>2020-08-01T11:33:47Z</time>
      </trkpt>
      <trkpt lat="44.83009" lon="6.87184">
        <ele>2855</ele>
        <time>2020-08-01T11:33:50Z</time>
      </trkpt>
      <trkpt lat="44.83006" lon="6.87186">
        <ele>2853</ele>
        <time>2020-08-01T11:33:52Z</time>
      </trkpt>
      <trkpt lat="44.83004" lon="6.87184">
        <ele>2853</ele>
        <time>2020-08-01T11:33:54Z</time>
      </trkpt>
      <trkpt lat="44.82991" lon="6.87189">
        <ele>2847</ele>
        <time>2020-08-01T11:33:59Z</time>
      </trkpt>
      <trkpt lat="44.82984" lon="6.87192">
        <ele>2845</ele>
        <time>2020-08-01T11:34:02Z</time>
      </trkpt>
      <trkpt lat="44.82972" lon="6.87198">
        <ele>2839</ele>
        <time>2020-08-01T11:34:06Z</time>
      </trkpt>
      <trkpt lat="44.82964" lon="6.87197">
        <ele>2836</ele>
        <time>2020-08-01T11:34:10Z</time>
      </trkpt>
      <trkpt lat="44.82955" lon="6.87206">
        <ele>2829</ele>
        <time>2020-08-01T11:34:14Z</time>
      </trkpt>
      <trkpt lat="44.82949" lon="6.8721">
        <ele>2825</ele>
        <time>2020-08-01T11:34:16Z</time>
      </trkpt>
      <trkpt lat="44.82936" lon="6.87213">
        <ele>2818</ele>
        <time>2020-08-01T11:34:19Z</time>
      </trkpt>
      <trkpt lat="44.8291" lon="6.87209">
        <ele>2811</ele>
        <time>2020-08-01T11:34:24Z</time>
      </trkpt>
      <trkpt lat="44.829" lon="6.87208">
        <ele>2808</ele>
        <time>2020-08-01T11:34:27Z</time>
      </trkpt>
      <trkpt lat="44.82899" lon="6.87208">
        <ele>2808</ele>
        <time>2020-08-01T11:34:30Z</time>
      </trkpt>
      <trkpt lat="44.82891" lon="6.87207">
        <ele>2806</ele>
        <time>2020-08-01T11:35:00Z</time>
      </trkpt>
      <trkpt lat="44.82886" lon="6.87207">
        <ele>2805</ele>
        <time>2020-08-01T11:35:01Z</time>
      </trkpt>
      <trkpt lat="44.82857" lon="6.87208">
        <ele>2803</ele>
        <time>2020-08-01T11:35:05Z</time>
      </trkpt>
      <trkpt lat="44.82837" lon="6.87205">
        <ele>2801</ele>
        <time>2020-08-01T11:35:11Z</time>
      </trkpt>
      <trkpt lat="44.82837" lon="6.87204">
        <ele>2801</ele>
        <time>2020-08-01T11:35:13Z</time>
      </trkpt>
      <trkpt lat="44.82829" lon="6.87202">
        <ele>2799</ele>
        <time>2020-08-01T11:36:41Z</time>
      </trkpt>
      <trkpt lat="44.82814" lon="6.87207">
        <ele>2794</ele>
        <time>2020-08-01T11:36:45Z</time>
      </trkpt>
      <trkpt lat="44.82789" lon="6.87208">
        <ele>2781</ele>
        <time>2020-08-01T11:36:51Z</time>
      </trkpt>
      <trkpt lat="44.82781" lon="6.8721">
        <ele>2777</ele>
        <time>2020-08-01T11:36:53Z</time>
      </trkpt>
      <trkpt lat="44.82766" lon="6.87217">
        <ele>2769</ele>
        <time>2020-08-01T11:36:57Z</time>
      </trkpt>
      <trkpt lat="44.8276" lon="6.87218">
        <ele>2765</ele>
        <time>2020-08-01T11:36:59Z</time>
      </trkpt>
      <trkpt lat="44.82741" lon="6.87219">
        <ele>2758</ele>
        <time>2020-08-01T11:37:04Z</time>
      </trkpt>
      <trkpt lat="44.82736" lon="6.87222">
        <ele>2757</ele>
        <time>2020-08-01T11:37:06Z</time>
      </trkpt>
      <trkpt lat="44.82721" lon="6.87218">
        <ele>2753</ele>
        <time>2020-08-01T11:37:10Z</time>
      </trkpt>
      <trkpt lat="44.82714" lon="6.87216">
        <ele>2751</ele>
        <time>2020-08-01T11:37:12Z</time>
      </trkpt>
      <trkpt lat="44.82712" lon="6.87217">
        <ele>2751</ele>
        <time>2020-08-01T11:37:16Z</time>
      </trkpt>
      <trkpt lat="44.82712" lon="6.87218">
        <ele>2751</ele>
        <time>2020-08-01T11:37:18Z</time>
      </trkpt>
      <trkpt lat="44.82707" lon="6.8722">
        <ele>2750</ele>
        <time>2020-08-01T11:37:49Z</time>
      </trkpt>
      <trkpt lat="44.82683" lon="6.87224">
        <ele>2744</ele>
        <time>2020-08-01T11:37:57Z</time>
      </trkpt>
      <trkpt lat="44.8267" lon="6.87227">
        <ele>2742</ele>
        <time>2020-08-01T11:38:00Z</time>
      </trkpt>
      <trkpt lat="44.82666" lon="6.87227">
        <ele>2741</ele>
        <time>2020-08-01T11:38:01Z</time>
      </trkpt>
      <trkpt lat="44.82656" lon="6.87227">
        <ele>2739</ele>
        <time>2020-08-01T11:38:03Z</time>
      </trkpt>
      <trkpt lat="44.8263" lon="6.87219">
        <ele>2733</ele>
        <time>2020-08-01T11:38:07Z</time>
      </trkpt>
      <trkpt lat="44.82624" lon="6.87218">
        <ele>2732</ele>
        <time>2020-08-01T11:38:08Z</time>
      </trkpt>
      <trkpt lat="44.82603" lon="6.87219">
        <ele>2727</ele>
        <time>2020-08-01T11:38:12Z</time>
      </trkpt>
      <trkpt lat="44.82598" lon="6.87219">
        <ele>2725</ele>
        <time>2020-08-01T11:38:13Z</time>
      </trkpt>
      <trkpt lat="44.82588" lon="6.87217">
        <ele>2722</ele>
        <time>2020-08-01T11:38:15Z</time>
      </trkpt>
      <trkpt lat="44.82577" lon="6.87215">
        <ele>2718</ele>
        <time>2020-08-01T11:38:17Z</time>
      </trkpt>
      <trkpt lat="44.82557" lon="6.87206">
        <ele>2714</ele>
        <time>2020-08-01T11:38:21Z</time>
      </trkpt>
      <trkpt lat="44.82547" lon="6.87204">
        <ele>2712</ele>
        <time>2020-08-01T11:38:25Z</time>
      </trkpt>
      <trkpt lat="44.82523" lon="6.87202">
        <ele>2708</ele>
        <time>2020-08-01T11:38:34Z</time>
      </trkpt>
      <trkpt lat="44.82518" lon="6.87199">
        <ele>2707</ele>
        <time>2020-08-01T11:38:36Z</time>
      </trkpt>
      <trkpt lat="44.82515" lon="6.872">
        <ele>2706</ele>
        <time>2020-08-01T11:38:38Z</time>
      </trkpt>
      <trkpt lat="44.8251" lon="6.87215">
        <ele>2704</ele>
        <time>2020-08-01T11:38:44Z</time>
      </trkpt>
      <trkpt lat="44.82504" lon="6.87213">
        <ele>2703</ele>
        <time>2020-08-01T11:38:47Z</time>
      </trkpt>
      <trkpt lat="44.82497" lon="6.87219">
        <ele>2702</ele>
        <time>2020-08-01T11:38:53Z</time>
      </trkpt>
      <trkpt lat="44.82494" lon="6.87219">
        <ele>2700</ele>
        <time>2020-08-01T11:38:57Z</time>
      </trkpt>
      <trkpt lat="44.8249" lon="6.87235">
        <ele>2693</ele>
        <time>2020-08-01T11:39:03Z</time>
      </trkpt>
      <trkpt lat="44.82489" lon="6.87238">
        <ele>2692</ele>
        <time>2020-08-01T11:39:04Z</time>
      </trkpt>
      <trkpt lat="44.8248" lon="6.87239">
        <ele>2688</ele>
        <time>2020-08-01T11:39:09Z</time>
      </trkpt>
      <trkpt lat="44.82478" lon="6.87239">
        <ele>2687</ele>
        <time>2020-08-01T11:39:12Z</time>
      </trkpt>
      <trkpt lat="44.82478" lon="6.8725">
        <ele>2684</ele>
        <time>2020-08-01T11:39:16Z</time>
      </trkpt>
      <trkpt lat="44.82478" lon="6.87252">
        <ele>2683</ele>
        <time>2020-08-01T11:39:17Z</time>
      </trkpt>
      <trkpt lat="44.82475" lon="6.8725">
        <ele>2683</ele>
        <time>2020-08-01T11:39:20Z</time>
      </trkpt>
      <trkpt lat="44.82472" lon="6.87248">
        <ele>2683</ele>
        <time>2020-08-01T11:39:22Z</time>
      </trkpt>
      <trkpt lat="44.82466" lon="6.87259">
        <ele>2675</ele>
        <time>2020-08-01T11:39:29Z</time>
      </trkpt>
      <trkpt lat="44.82463" lon="6.87256">
        <ele>2676</ele>
        <time>2020-08-01T11:39:30Z</time>
      </trkpt>
      <trkpt lat="44.82451" lon="6.87243">
        <ele>2676</ele>
        <time>2020-08-01T11:39:35Z</time>
      </trkpt>
      <trkpt lat="44.82443" lon="6.87232">
        <ele>2672</ele>
        <time>2020-08-01T11:39:40Z</time>
      </trkpt>
      <trkpt lat="44.82439" lon="6.87226">
        <ele>2670</ele>
        <time>2020-08-01T11:39:42Z</time>
      </trkpt>
      <trkpt lat="44.8243" lon="6.87226">
        <ele>2665</ele>
        <time>2020-08-01T11:39:47Z</time>
      </trkpt>
      <trkpt lat="44.82428" lon="6.87224">
        <ele>2664</ele>
        <time>2020-08-01T11:39:49Z</time>
      </trkpt>
      <trkpt lat="44.82422" lon="6.87222">
        <ele>2659</ele>
        <time>2020-08-01T11:39:54Z</time>
      </trkpt>
      <trkpt lat="44.82418" lon="6.87222">
        <ele>2657</ele>
        <time>2020-08-01T11:39:56Z</time>
      </trkpt>
      <trkpt lat="44.82415" lon="6.8722">
        <ele>2656</ele>
        <time>2020-08-01T11:39:57Z</time>
      </trkpt>
      <trkpt lat="44.82404" lon="6.87222">
        <ele>2653</ele>
        <time>2020-08-01T11:40:02Z</time>
      </trkpt>
      <trkpt lat="44.82403" lon="6.8722">
        <ele>2652</ele>
        <time>2020-08-01T11:40:03Z</time>
      </trkpt>
      <trkpt lat="44.82395" lon="6.87219">
        <ele>2650</ele>
        <time>2020-08-01T11:40:08Z</time>
      </trkpt>
      <trkpt lat="44.8239" lon="6.87215">
        <ele>2648</ele>
        <time>2020-08-01T11:40:13Z</time>
      </trkpt>
      <trkpt lat="44.82383" lon="6.87213">
        <ele>2645</ele>
        <time>2020-08-01T11:40:17Z</time>
      </trkpt>
      <trkpt lat="44.82373" lon="6.87211">
        <ele>2640</ele>
        <time>2020-08-01T11:40:23Z</time>
      </trkpt>
      <trkpt lat="44.82371" lon="6.87211">
        <ele>2640</ele>
        <time>2020-08-01T11:40:29Z</time>
      </trkpt>
      <trkpt lat="44.82364" lon="6.87206">
        <ele>2637</ele>
        <time>2020-08-01T11:43:19Z</time>
      </trkpt>
      <trkpt lat="44.82359" lon="6.87203">
        <ele>2635</ele>
        <time>2020-08-01T11:43:22Z</time>
      </trkpt>
      <trkpt lat="44.82356" lon="6.87199">
        <ele>2633</ele>
        <time>2020-08-01T11:43:28Z</time>
      </trkpt>
      <trkpt lat="44.82335" lon="6.87195">
        <ele>2621</ele>
        <time>2020-08-01T11:43:39Z</time>
      </trkpt>
      <trkpt lat="44.82322" lon="6.87197">
        <ele>2618</ele>
        <time>2020-08-01T11:43:43Z</time>
      </trkpt>
      <trkpt lat="44.82306" lon="6.87198">
        <ele>2615</ele>
        <time>2020-08-01T11:43:48Z</time>
      </trkpt>
      <trkpt lat="44.823" lon="6.87197">
        <ele>2614</ele>
        <time>2020-08-01T11:43:50Z</time>
      </trkpt>
      <trkpt lat="44.82296" lon="6.87196">
        <ele>2614</ele>
        <time>2020-08-01T11:43:51Z</time>
      </trkpt>
      <trkpt lat="44.82287" lon="6.87196">
        <ele>2613</ele>
        <time>2020-08-01T11:43:53Z</time>
      </trkpt>
      <trkpt lat="44.82273" lon="6.87194">
        <ele>2612</ele>
        <time>2020-08-01T11:43:56Z</time>
      </trkpt>
      <trkpt lat="44.8226" lon="6.87192">
        <ele>2611</ele>
        <time>2020-08-01T11:44:01Z</time>
      </trkpt>
      <trkpt lat="44.82257" lon="6.87192">
        <ele>2611</ele>
        <time>2020-08-01T11:44:02Z</time>
      </trkpt>
      <trkpt lat="44.82252" lon="6.8719">
        <ele>2610</ele>
        <time>2020-08-01T11:44:04Z</time>
      </trkpt>
      <trkpt lat="44.82237" lon="6.87191">
        <ele>2610</ele>
        <time>2020-08-01T11:44:09Z</time>
      </trkpt>
      <trkpt lat="44.82229" lon="6.87191">
        <ele>2609</ele>
        <time>2020-08-01T11:44:12Z</time>
      </trkpt>
      <trkpt lat="44.8222" lon="6.87188">
        <ele>2608</ele>
        <time>2020-08-01T11:44:14Z</time>
      </trkpt>
      <trkpt lat="44.82202" lon="6.87184">
        <ele>2603</ele>
        <time>2020-08-01T11:44:18Z</time>
      </trkpt>
      <trkpt lat="44.822" lon="6.87185">
        <ele>2603</ele>
        <time>2020-08-01T11:44:19Z</time>
      </trkpt>
      <trkpt lat="44.82199" lon="6.87183">
        <ele>2602</ele>
        <time>2020-08-01T11:44:25Z</time>
      </trkpt>
      <trkpt lat="44.82191" lon="6.87178">
        <ele>2599</ele>
        <time>2020-08-01T11:44:52Z</time>
      </trkpt>
      <trkpt lat="44.82187" lon="6.87177">
        <ele>2598</ele>
        <time>2020-08-01T11:44:53Z</time>
      </trkpt>
      <trkpt lat="44.82173" lon="6.87175">
        <ele>2596</ele>
        <time>2020-08-01T11:44:57Z</time>
      </trkpt>
      <trkpt lat="44.82156" lon="6.87175">
        <ele>2594</ele>
        <time>2020-08-01T11:45:02Z</time>
      </trkpt>
      <trkpt lat="44.82149" lon="6.87173">
        <ele>2593</ele>
        <time>2020-08-01T11:45:04Z</time>
      </trkpt>
      <trkpt lat="44.82142" lon="6.87168">
        <ele>2591</ele>
        <time>2020-08-01T11:45:06Z</time>
      </trkpt>
      <trkpt lat="44.82135" lon="6.8716">
        <ele>2589</ele>
        <time>2020-08-01T11:45:08Z</time>
      </trkpt>
      <trkpt lat="44.82133" lon="6.87148">
        <ele>2587</ele>
        <time>2020-08-01T11:45:11Z</time>
      </trkpt>
      <trkpt lat="44.82128" lon="6.87142">
        <ele>2586</ele>
        <time>2020-08-01T11:45:14Z</time>
      </trkpt>
      <trkpt lat="44.82127" lon="6.87144">
        <ele>2586</ele>
        <time>2020-08-01T11:45:20Z</time>
      </trkpt>
      <trkpt lat="44.82037" lon="6.873">
        <ele>2562</ele>
        <time>2020-08-01T11:50:29Z</time>
      </trkpt>
      <trkpt lat="44.82036" lon="6.87301">
        <ele>2561</ele>
        <time>2020-08-01T11:50:52Z</time>
      </trkpt>
      <trkpt lat="44.8204" lon="6.8733">
        <ele>2556</ele>
        <time>2020-08-01T11:51:01Z</time>
      </trkpt>
      <trkpt lat="44.8204" lon="6.87331">
        <ele>2555</ele>
        <time>2020-08-01T11:51:02Z</time>
      </trkpt>
      <trkpt lat="44.82039" lon="6.87337">
        <ele>2553</ele>
        <time>2020-08-01T11:51:05Z</time>
      </trkpt>
      <trkpt lat="44.82028" lon="6.87335">
        <ele>2550</ele>
        <time>2020-08-01T11:51:12Z</time>
      </trkpt>
      <trkpt lat="44.81995" lon="6.87337">
        <ele>2541</ele>
        <time>2020-08-01T11:51:19Z</time>
      </trkpt>
      <trkpt lat="44.81992" lon="6.87348">
        <ele>2537</ele>
        <time>2020-08-01T11:51:24Z</time>
      </trkpt>
      <trkpt lat="44.81992" lon="6.87348">
        <ele>2537</ele>
        <time>2020-08-01T11:51:25Z</time>
      </trkpt>
      <trkpt lat="44.81997" lon="6.87359">
        <ele>2535</ele>
        <time>2020-08-01T11:51:35Z</time>
      </trkpt>
      <trkpt lat="44.82004" lon="6.87372">
        <ele>2534</ele>
        <time>2020-08-01T11:51:38Z</time>
      </trkpt>
      <trkpt lat="44.82006" lon="6.87377">
        <ele>2533</ele>
        <time>2020-08-01T11:51:43Z</time>
      </trkpt>
      <trkpt lat="44.82011" lon="6.8739">
        <ele>2530</ele>
        <time>2020-08-01T11:51:48Z</time>
      </trkpt>
      <trkpt lat="44.8203" lon="6.87413">
        <ele>2526</ele>
        <time>2020-08-01T11:51:53Z</time>
      </trkpt>
      <trkpt lat="44.82037" lon="6.87437">
        <ele>2516</ele>
        <time>2020-08-01T11:51:59Z</time>
      </trkpt>
      <trkpt lat="44.82033" lon="6.87439">
        <ele>2514</ele>
        <time>2020-08-01T11:52:00Z</time>
      </trkpt>
      <trkpt lat="44.82015" lon="6.87444">
        <ele>2508</ele>
        <time>2020-08-01T11:52:04Z</time>
      </trkpt>
      <trkpt lat="44.82013" lon="6.87447">
        <ele>2506</ele>
        <time>2020-08-01T11:52:07Z</time>
      </trkpt>
      <trkpt lat="44.82019" lon="6.87454">
        <ele>2503</ele>
        <time>2020-08-01T11:52:10Z</time>
      </trkpt>
      <trkpt lat="44.82027" lon="6.87459">
        <ele>2502</ele>
        <time>2020-08-01T11:52:13Z</time>
      </trkpt>
      <trkpt lat="44.82041" lon="6.87468">
        <ele>2501</ele>
        <time>2020-08-01T11:52:16Z</time>
      </trkpt>
      <trkpt lat="44.82046" lon="6.87476">
        <ele>2499</ele>
        <time>2020-08-01T11:52:18Z</time>
      </trkpt>
      <trkpt lat="44.82048" lon="6.87485">
        <ele>2495</ele>
        <time>2020-08-01T11:52:24Z</time>
      </trkpt>
      <trkpt lat="44.82047" lon="6.87488">
        <ele>2493</ele>
        <time>2020-08-01T11:52:29Z</time>
      </trkpt>
      <trkpt lat="44.82038" lon="6.87489">
        <ele>2491</ele>
        <time>2020-08-01T11:52:33Z</time>
      </trkpt>
      <trkpt lat="44.82033" lon="6.87492">
        <ele>2489</ele>
        <time>2020-08-01T11:52:35Z</time>
      </trkpt>
      <trkpt lat="44.82015" lon="6.87501">
        <ele>2485</ele>
        <time>2020-08-01T11:52:43Z</time>
      </trkpt>
      <trkpt lat="44.82009" lon="6.87504">
        <ele>2484</ele>
        <time>2020-08-01T11:52:45Z</time>
      </trkpt>
      <trkpt lat="44.82007" lon="6.87508">
        <ele>2483</ele>
        <time>2020-08-01T11:52:49Z</time>
      </trkpt>
      <trkpt lat="44.82014" lon="6.87518">
        <ele>2481</ele>
        <time>2020-08-01T11:52:54Z</time>
      </trkpt>
      <trkpt lat="44.82016" lon="6.87517">
        <ele>2481</ele>
        <time>2020-08-01T11:52:59Z</time>
      </trkpt>
      <trkpt lat="44.82028" lon="6.87524">
        <ele>2480</ele>
        <time>2020-08-01T11:53:39Z</time>
      </trkpt>
      <trkpt lat="44.82039" lon="6.87534">
        <ele>2476</ele>
        <time>2020-08-01T11:53:42Z</time>
      </trkpt>
      <trkpt lat="44.82049" lon="6.87536">
        <ele>2475</ele>
        <time>2020-08-01T11:53:48Z</time>
      </trkpt>
      <trkpt lat="44.82068" lon="6.87535">
        <ele>2479</ele>
        <time>2020-08-01T11:53:55Z</time>
      </trkpt>
      <trkpt lat="44.8209" lon="6.87547">
        <ele>2478</ele>
        <time>2020-08-01T11:54:02Z</time>
      </trkpt>
      <trkpt lat="44.82114" lon="6.87583">
        <ele>2464</ele>
        <time>2020-08-01T11:54:09Z</time>
      </trkpt>
      <trkpt lat="44.82123" lon="6.87594">
        <ele>2459</ele>
        <time>2020-08-01T11:54:12Z</time>
      </trkpt>
      <trkpt lat="44.82133" lon="6.87597">
        <ele>2458</ele>
        <time>2020-08-01T11:54:16Z</time>
      </trkpt>
      <trkpt lat="44.82141" lon="6.87597">
        <ele>2459</ele>
        <time>2020-08-01T11:54:20Z</time>
      </trkpt>
      <trkpt lat="44.82164" lon="6.87598">
        <ele>2457</ele>
        <time>2020-08-01T11:54:27Z</time>
      </trkpt>
      <trkpt lat="44.82167" lon="6.87599">
        <ele>2456</ele>
        <time>2020-08-01T11:54:31Z</time>
      </trkpt>
      <trkpt lat="44.82167" lon="6.876">
        <ele>2455</ele>
        <time>2020-08-01T11:54:32Z</time>
      </trkpt>
      <trkpt lat="44.82156" lon="6.87607">
        <ele>2449</ele>
        <time>2020-08-01T11:54:40Z</time>
      </trkpt>
      <trkpt lat="44.82145" lon="6.87616">
        <ele>2445</ele>
        <time>2020-08-01T11:54:49Z</time>
      </trkpt>
      <trkpt lat="44.82147" lon="6.87616">
        <ele>2444</ele>
        <time>2020-08-01T11:54:51Z</time>
      </trkpt>
      <trkpt lat="44.82157" lon="6.87619">
        <ele>2440</ele>
        <time>2020-08-01T11:54:56Z</time>
      </trkpt>
      <trkpt lat="44.82177" lon="6.87618">
        <ele>2430</ele>
        <time>2020-08-01T11:55:05Z</time>
      </trkpt>
      <trkpt lat="44.82188" lon="6.87609">
        <ele>2426</ele>
        <time>2020-08-01T11:55:11Z</time>
      </trkpt>
      <trkpt lat="44.82196" lon="6.87606">
        <ele>2424</ele>
        <time>2020-08-01T11:55:16Z</time>
      </trkpt>
      <trkpt lat="44.82196" lon="6.87606">
        <ele>2424</ele>
        <time>2020-08-01T11:55:17Z</time>
      </trkpt>
      <trkpt lat="44.82201" lon="6.87594">
        <ele>2435</ele>
        <time>2020-08-01T12:01:09Z</time>
      </trkpt>
      <trkpt lat="44.82209" lon="6.87589">
        <ele>2435</ele>
        <time>2020-08-01T12:01:13Z</time>
      </trkpt>
      <trkpt lat="44.82213" lon="6.87586">
        <ele>2434</ele>
        <time>2020-08-01T12:01:16Z</time>
      </trkpt>
      <trkpt lat="44.8224" lon="6.87592">
        <ele>2427</ele>
        <time>2020-08-01T12:01:25Z</time>
      </trkpt>
      <trkpt lat="44.82255" lon="6.87603">
        <ele>2424</ele>
        <time>2020-08-01T12:01:32Z</time>
      </trkpt>
      <trkpt lat="44.82267" lon="6.87604">
        <ele>2424</ele>
        <time>2020-08-01T12:01:36Z</time>
      </trkpt>
      <trkpt lat="44.82271" lon="6.87617">
        <ele>2418</ele>
        <time>2020-08-01T12:01:42Z</time>
      </trkpt>
      <trkpt lat="44.82279" lon="6.87641">
        <ele>2407</ele>
        <time>2020-08-01T12:01:51Z</time>
      </trkpt>
      <trkpt lat="44.8228" lon="6.87644">
        <ele>2406</ele>
        <time>2020-08-01T12:01:52Z</time>
      </trkpt>
      <trkpt lat="44.82285" lon="6.87655">
        <ele>2403</ele>
        <time>2020-08-01T12:01:56Z</time>
      </trkpt>
      <trkpt lat="44.8229" lon="6.87671">
        <ele>2398</ele>
        <time>2020-08-01T12:02:01Z</time>
      </trkpt>
      <trkpt lat="44.82292" lon="6.87675">
        <ele>2397</ele>
        <time>2020-08-01T12:02:07Z</time>
      </trkpt>
      <trkpt lat="44.82294" lon="6.87679">
        <ele>2396</ele>
        <time>2020-08-01T12:03:31Z</time>
      </trkpt>
      <trkpt lat="44.82304" lon="6.87712">
        <ele>2391</ele>
        <time>2020-08-01T12:03:37Z</time>
      </trkpt>
      <trkpt lat="44.82311" lon="6.87721">
        <ele>2391</ele>
        <time>2020-08-01T12:03:39Z</time>
      </trkpt>
      <trkpt lat="44.82324" lon="6.87749">
        <ele>2377</ele>
        <time>2020-08-01T12:03:43Z</time>
      </trkpt>
      <trkpt lat="44.82331" lon="6.87765">
        <ele>2376</ele>
        <time>2020-08-01T12:03:46Z</time>
      </trkpt>
      <trkpt lat="44.82341" lon="6.87777">
        <ele>2377</ele>
        <time>2020-08-01T12:03:49Z</time>
      </trkpt>
      <trkpt lat="44.82352" lon="6.87788">
        <ele>2378</ele>
        <time>2020-08-01T12:03:51Z</time>
      </trkpt>
      <trkpt lat="44.82371" lon="6.87811">
        <ele>2378</ele>
        <time>2020-08-01T12:03:55Z</time>
      </trkpt>
      <trkpt lat="44.82381" lon="6.87829">
        <ele>2377</ele>
        <time>2020-08-01T12:03:59Z</time>
      </trkpt>
      <trkpt lat="44.82385" lon="6.87835">
        <ele>2376</ele>
        <time>2020-08-01T12:04:01Z</time>
      </trkpt>
      <trkpt lat="44.82389" lon="6.87841">
        <ele>2375</ele>
        <time>2020-08-01T12:04:04Z</time>
      </trkpt>
      <trkpt lat="44.82397" lon="6.8785">
        <ele>2374</ele>
        <time>2020-08-01T12:04:07Z</time>
      </trkpt>
      <trkpt lat="44.82405" lon="6.87867">
        <ele>2370</ele>
        <time>2020-08-01T12:04:10Z</time>
      </trkpt>
      <trkpt lat="44.82413" lon="6.87888">
        <ele>2364</ele>
        <time>2020-08-01T12:04:13Z</time>
      </trkpt>
      <trkpt lat="44.82418" lon="6.87904">
        <ele>2363</ele>
        <time>2020-08-01T12:04:18Z</time>
      </trkpt>
      <trkpt lat="44.82418" lon="6.87905">
        <ele>2363</ele>
        <time>2020-08-01T12:04:21Z</time>
      </trkpt>
      <trkpt lat="44.82419" lon="6.87905">
        <ele>2363</ele>
        <time>2020-08-01T12:04:23Z</time>
      </trkpt>
      <trkpt lat="44.82411" lon="6.87904">
        <ele>2359</ele>
        <time>2020-08-01T12:04:39Z</time>
      </trkpt>
      <trkpt lat="44.82394" lon="6.87903">
        <ele>2351</ele>
        <time>2020-08-01T12:04:47Z</time>
      </trkpt>
      <trkpt lat="44.8239" lon="6.87902">
        <ele>2349</ele>
        <time>2020-08-01T12:04:48Z</time>
      </trkpt>
      <trkpt lat="44.82377" lon="6.879">
        <ele>2342</ele>
        <time>2020-08-01T12:04:52Z</time>
      </trkpt>
      <trkpt lat="44.82376" lon="6.87912">
        <ele>2340</ele>
        <time>2020-08-01T12:04:57Z</time>
      </trkpt>
      <trkpt lat="44.8238" lon="6.87928">
        <ele>2340</ele>
        <time>2020-08-01T12:05:01Z</time>
      </trkpt>
      <trkpt lat="44.8238" lon="6.87936">
        <ele>2339</ele>
        <time>2020-08-01T12:05:03Z</time>
      </trkpt>
      <trkpt lat="44.82382" lon="6.87942">
        <ele>2339</ele>
        <time>2020-08-01T12:05:05Z</time>
      </trkpt>
      <trkpt lat="44.82388" lon="6.8795">
        <ele>2341</ele>
        <time>2020-08-01T12:05:07Z</time>
      </trkpt>
      <trkpt lat="44.82392" lon="6.87967">
        <ele>2337</ele>
        <time>2020-08-01T12:05:12Z</time>
      </trkpt>
      <trkpt lat="44.82394" lon="6.87974">
        <ele>2336</ele>
        <time>2020-08-01T12:05:16Z</time>
      </trkpt>
      <trkpt lat="44.82391" lon="6.87982">
        <ele>2330</ele>
        <time>2020-08-01T12:05:21Z</time>
      </trkpt>
      <trkpt lat="44.82388" lon="6.87981">
        <ele>2329</ele>
        <time>2020-08-01T12:05:22Z</time>
      </trkpt>
      <trkpt lat="44.8238" lon="6.87978">
        <ele>2327</ele>
        <time>2020-08-01T12:05:24Z</time>
      </trkpt>
      <trkpt lat="44.82377" lon="6.87976">
        <ele>2326</ele>
        <time>2020-08-01T12:05:25Z</time>
      </trkpt>
      <trkpt lat="44.82361" lon="6.87971">
        <ele>2318</ele>
        <time>2020-08-01T12:05:31Z</time>
      </trkpt>
      <trkpt lat="44.82353" lon="6.87965">
        <ele>2316</ele>
        <time>2020-08-01T12:05:33Z</time>
      </trkpt>
      <trkpt lat="44.82337" lon="6.87952">
        <ele>2312</ele>
        <time>2020-08-01T12:05:38Z</time>
      </trkpt>
      <trkpt lat="44.82323" lon="6.87939">
        <ele>2309</ele>
        <time>2020-08-01T12:05:42Z</time>
      </trkpt>
      <trkpt lat="44.82312" lon="6.87939">
        <ele>2305</ele>
        <time>2020-08-01T12:05:47Z</time>
      </trkpt>
      <trkpt lat="44.823" lon="6.87941">
        <ele>2299</ele>
        <time>2020-08-01T12:05:51Z</time>
      </trkpt>
      <trkpt lat="44.82294" lon="6.8794">
        <ele>2297</ele>
        <time>2020-08-01T12:05:54Z</time>
      </trkpt>
      <trkpt lat="44.82282" lon="6.87941">
        <ele>2290</ele>
        <time>2020-08-01T12:05:59Z</time>
      </trkpt>
      <trkpt lat="44.82265" lon="6.87939">
        <ele>2284</ele>
        <time>2020-08-01T12:06:04Z</time>
      </trkpt>
      <trkpt lat="44.82258" lon="6.87939">
        <ele>2282</ele>
        <time>2020-08-01T12:06:06Z</time>
      </trkpt>
      <trkpt lat="44.82252" lon="6.87942">
        <ele>2278</ele>
        <time>2020-08-01T12:06:09Z</time>
      </trkpt>
      <trkpt lat="44.82233" lon="6.87939">
        <ele>2270</ele>
        <time>2020-08-01T12:06:14Z</time>
      </trkpt>
      <trkpt lat="44.82224" lon="6.87939">
        <ele>2266</ele>
        <time>2020-08-01T12:06:17Z</time>
      </trkpt>
      <trkpt lat="44.82213" lon="6.87932">
        <ele>2263</ele>
        <time>2020-08-01T12:06:21Z</time>
      </trkpt>
      <trkpt lat="44.82209" lon="6.87929">
        <ele>2262</ele>
        <time>2020-08-01T12:06:22Z</time>
      </trkpt>
      <trkpt lat="44.82201" lon="6.87922">
        <ele>2262</ele>
        <time>2020-08-01T12:06:24Z</time>
      </trkpt>
      <trkpt lat="44.82196" lon="6.87923">
        <ele>2259</ele>
        <time>2020-08-01T12:06:27Z</time>
      </trkpt>
      <trkpt lat="44.82201" lon="6.8793">
        <ele>2257</ele>
        <time>2020-08-01T12:06:31Z</time>
      </trkpt>
      <trkpt lat="44.82203" lon="6.87938">
        <ele>2254</ele>
        <time>2020-08-01T12:06:37Z</time>
      </trkpt>
      <trkpt lat="44.82203" lon="6.87937">
        <ele>2254</ele>
        <time>2020-08-01T12:06:38Z</time>
      </trkpt>
      <trkpt lat="44.82191" lon="6.8793">
        <ele>2252</ele>
        <time>2020-08-01T12:06:43Z</time>
      </trkpt>
      <trkpt lat="44.82186" lon="6.87928">
        <ele>2251</ele>
        <time>2020-08-01T12:06:45Z</time>
      </trkpt>
      <trkpt lat="44.82179" lon="6.87922">
        <ele>2253</ele>
        <time>2020-08-01T12:06:51Z</time>
      </trkpt>
      <trkpt lat="44.82176" lon="6.87918">
        <ele>2255</ele>
        <time>2020-08-01T12:06:55Z</time>
      </trkpt>
      <trkpt lat="44.82174" lon="6.87913">
        <ele>2257</ele>
        <time>2020-08-01T12:07:00Z</time>
      </trkpt>
      <trkpt lat="44.82173" lon="6.87913">
        <ele>2257</ele>
        <time>2020-08-01T12:07:03Z</time>
      </trkpt>
      <trkpt lat="44.82167" lon="6.87915">
        <ele>2254</ele>
        <time>2020-08-01T12:07:21Z</time>
      </trkpt>
      <trkpt lat="44.82167" lon="6.87916">
        <ele>2253</ele>
        <time>2020-08-01T12:07:26Z</time>
      </trkpt>
      <trkpt lat="44.82168" lon="6.87925">
        <ele>2245</ele>
        <time>2020-08-01T12:11:32Z</time>
      </trkpt>
      <trkpt lat="44.82175" lon="6.8795">
        <ele>2229</ele>
        <time>2020-08-01T12:11:38Z</time>
      </trkpt>
      <trkpt lat="44.82187" lon="6.87971">
        <ele>2226</ele>
        <time>2020-08-01T12:11:45Z</time>
      </trkpt>
      <trkpt lat="44.822" lon="6.87984">
        <ele>2227</ele>
        <time>2020-08-01T12:11:49Z</time>
      </trkpt>
      <trkpt lat="44.82215" lon="6.87996">
        <ele>2230</ele>
        <time>2020-08-01T12:11:55Z</time>
      </trkpt>
      <trkpt lat="44.82227" lon="6.88011">
        <ele>2229</ele>
        <time>2020-08-01T12:12:00Z</time>
      </trkpt>
      <trkpt lat="44.82234" lon="6.88029">
        <ele>2224</ele>
        <time>2020-08-01T12:12:05Z</time>
      </trkpt>
      <trkpt lat="44.82237" lon="6.88044">
        <ele>2220</ele>
        <time>2020-08-01T12:12:10Z</time>
      </trkpt>
      <trkpt lat="44.8225" lon="6.88068">
        <ele>2217</ele>
        <time>2020-08-01T12:12:16Z</time>
      </trkpt>
      <trkpt lat="44.82255" lon="6.88073">
        <ele>2217</ele>
        <time>2020-08-01T12:12:23Z</time>
      </trkpt>
      <trkpt lat="44.82255" lon="6.88082">
        <ele>2214</ele>
        <time>2020-08-01T12:13:10Z</time>
      </trkpt>
      <trkpt lat="44.82257" lon="6.88093">
        <ele>2211</ele>
        <time>2020-08-01T12:13:12Z</time>
      </trkpt>
      <trkpt lat="44.82262" lon="6.88117">
        <ele>2205</ele>
        <time>2020-08-01T12:13:16Z</time>
      </trkpt>
      <trkpt lat="44.8227" lon="6.88134">
        <ele>2204</ele>
        <time>2020-08-01T12:13:19Z</time>
      </trkpt>
      <trkpt lat="44.82269" lon="6.88163">
        <ele>2199</ele>
        <time>2020-08-01T12:13:24Z</time>
      </trkpt>
      <trkpt lat="44.8226" lon="6.88183">
        <ele>2194</ele>
        <time>2020-08-01T12:13:28Z</time>
      </trkpt>
      <trkpt lat="44.82251" lon="6.88201">
        <ele>2190</ele>
        <time>2020-08-01T12:13:31Z</time>
      </trkpt>
      <trkpt lat="44.82241" lon="6.8822">
        <ele>2186</ele>
        <time>2020-08-01T12:13:37Z</time>
      </trkpt>
      <trkpt lat="44.82234" lon="6.88225">
        <ele>2185</ele>
        <time>2020-08-01T12:13:40Z</time>
      </trkpt>
      <trkpt lat="44.8223" lon="6.88232">
        <ele>2184</ele>
        <time>2020-08-01T12:13:43Z</time>
      </trkpt>
      <trkpt lat="44.82227" lon="6.8823">
        <ele>2184</ele>
        <time>2020-08-01T12:13:44Z</time>
      </trkpt>
      <trkpt lat="44.82221" lon="6.88225">
        <ele>2183</ele>
        <time>2020-08-01T12:13:46Z</time>
      </trkpt>
      <trkpt lat="44.82207" lon="6.8821">
        <ele>2181</ele>
        <time>2020-08-01T12:13:50Z</time>
      </trkpt>
      <trkpt lat="44.82203" lon="6.88201">
        <ele>2181</ele>
        <time>2020-08-01T12:13:52Z</time>
      </trkpt>
      <trkpt lat="44.82192" lon="6.88197">
        <ele>2179</ele>
        <time>2020-08-01T12:13:57Z</time>
      </trkpt>
      <trkpt lat="44.82172" lon="6.88185">
        <ele>2173</ele>
        <time>2020-08-01T12:14:02Z</time>
      </trkpt>
      <trkpt lat="44.82164" lon="6.88178">
        <ele>2171</ele>
        <time>2020-08-01T12:14:05Z</time>
      </trkpt>
      <trkpt lat="44.82152" lon="6.88179">
        <ele>2168</ele>
        <time>2020-08-01T12:14:10Z</time>
      </trkpt>
      <trkpt lat="44.82143" lon="6.88175">
        <ele>2166</ele>
        <time>2020-08-01T12:14:14Z</time>
      </trkpt>
      <trkpt lat="44.82132" lon="6.88169">
        <ele>2164</ele>
        <time>2020-08-01T12:14:19Z</time>
      </trkpt>
      <trkpt lat="44.8211" lon="6.88167">
        <ele>2161</ele>
        <time>2020-08-01T12:14:26Z</time>
      </trkpt>
      <trkpt lat="44.82098" lon="6.88163">
        <ele>2159</ele>
        <time>2020-08-01T12:14:30Z</time>
      </trkpt>
      <trkpt lat="44.82084" lon="6.88151">
        <ele>2157</ele>
        <time>2020-08-01T12:14:34Z</time>
      </trkpt>
      <trkpt lat="44.82073" lon="6.88144">
        <ele>2154</ele>
        <time>2020-08-01T12:14:37Z</time>
      </trkpt>
      <trkpt lat="44.8207" lon="6.88142">
        <ele>2154</ele>
        <time>2020-08-01T12:14:38Z</time>
      </trkpt>
      <trkpt lat="44.82066" lon="6.88141">
        <ele>2153</ele>
        <time>2020-08-01T12:14:39Z</time>
      </trkpt>
      <trkpt lat="44.82052" lon="6.88131">
        <ele>2150</ele>
        <time>2020-08-01T12:14:43Z</time>
      </trkpt>
      <trkpt lat="44.8204" lon="6.88131">
        <ele>2146</ele>
        <time>2020-08-01T12:14:47Z</time>
      </trkpt>
      <trkpt lat="44.82035" lon="6.88118">
        <ele>2148</ele>
        <time>2020-08-01T12:14:52Z</time>
      </trkpt>
      <trkpt lat="44.82037" lon="6.88105">
        <ele>2150</ele>
        <time>2020-08-01T12:14:54Z</time>
      </trkpt>
      <trkpt lat="44.82028" lon="6.88089">
        <ele>2152</ele>
        <time>2020-08-01T12:14:59Z</time>
      </trkpt>
      <trkpt lat="44.82023" lon="6.88089">
        <ele>2151</ele>
        <time>2020-08-01T12:15:01Z</time>
      </trkpt>
      <trkpt lat="44.82002" lon="6.88091">
        <ele>2147</ele>
        <time>2020-08-01T12:15:07Z</time>
      </trkpt>
      <trkpt lat="44.81999" lon="6.8809">
        <ele>2146</ele>
        <time>2020-08-01T12:15:08Z</time>
      </trkpt>
      <trkpt lat="44.81991" lon="6.88089">
        <ele>2145</ele>
        <time>2020-08-01T12:15:10Z</time>
      </trkpt>
      <trkpt lat="44.81979" lon="6.88093">
        <ele>2142</ele>
        <time>2020-08-01T12:15:15Z</time>
      </trkpt>
      <trkpt lat="44.81958" lon="6.88098">
        <ele>2137</ele>
        <time>2020-08-01T12:15:20Z</time>
      </trkpt>
      <trkpt lat="44.81938" lon="6.88097">
        <ele>2134</ele>
        <time>2020-08-01T12:15:26Z</time>
      </trkpt>
      <trkpt lat="44.81932" lon="6.88101">
        <ele>2132</ele>
        <time>2020-08-01T12:15:29Z</time>
      </trkpt>
      <trkpt lat="44.81921" lon="6.88098">
        <ele>2131</ele>
        <time>2020-08-01T12:15:32Z</time>
      </trkpt>
      <trkpt lat="44.81902" lon="6.88102">
        <ele>2126</ele>
        <time>2020-08-01T12:15:37Z</time>
      </trkpt>
      <trkpt lat="44.81877" lon="6.88114">
        <ele>2119</ele>
        <time>2020-08-01T12:15:44Z</time>
      </trkpt>
      <trkpt lat="44.81848" lon="6.88135">
        <ele>2112</ele>
        <time>2020-08-01T12:15:51Z</time>
      </trkpt>
      <trkpt lat="44.81831" lon="6.88146">
        <ele>2107</ele>
        <time>2020-08-01T12:15:55Z</time>
      </trkpt>
      <trkpt lat="44.81813" lon="6.88163">
        <ele>2102</ele>
        <time>2020-08-01T12:15:59Z</time>
      </trkpt>
      <trkpt lat="44.81799" lon="6.88176">
        <ele>2098</ele>
        <time>2020-08-01T12:16:03Z</time>
      </trkpt>
      <trkpt lat="44.81794" lon="6.88185">
        <ele>2095</ele>
        <time>2020-08-01T12:16:05Z</time>
      </trkpt>
      <trkpt lat="44.81781" lon="6.88198">
        <ele>2092</ele>
        <time>2020-08-01T12:16:11Z</time>
      </trkpt>
      <trkpt lat="44.81777" lon="6.88198">
        <ele>2092</ele>
        <time>2020-08-01T12:16:13Z</time>
      </trkpt>
      <trkpt lat="44.81762" lon="6.88202">
        <ele>2090</ele>
        <time>2020-08-01T12:16:16Z</time>
      </trkpt>
      <trkpt lat="44.81744" lon="6.88213">
        <ele>2087</ele>
        <time>2020-08-01T12:16:20Z</time>
      </trkpt>
      <trkpt lat="44.81731" lon="6.88232">
        <ele>2082</ele>
        <time>2020-08-01T12:16:24Z</time>
      </trkpt>
      <trkpt lat="44.81725" lon="6.88236">
        <ele>2081</ele>
        <time>2020-08-01T12:16:27Z</time>
      </trkpt>
      <trkpt lat="44.81724" lon="6.88235">
        <ele>2081</ele>
        <time>2020-08-01T12:16:30Z</time>
      </trkpt>
      <trkpt lat="44.81718" lon="6.88239">
        <ele>2081</ele>
        <time>2020-08-01T12:20:23Z</time>
      </trkpt>
      <trkpt lat="44.81705" lon="6.88242">
        <ele>2081</ele>
        <time>2020-08-01T12:20:27Z</time>
      </trkpt>
      <trkpt lat="44.8169" lon="6.88247">
        <ele>2080</ele>
        <time>2020-08-01T12:20:32Z</time>
      </trkpt>
      <trkpt lat="44.81672" lon="6.88249">
        <ele>2077</ele>
        <time>2020-08-01T12:20:38Z</time>
      </trkpt>
      <trkpt lat="44.81667" lon="6.88245">
        <ele>2079</ele>
        <time>2020-08-01T12:20:40Z</time>
      </trkpt>
      <trkpt lat="44.81658" lon="6.8824">
        <ele>2079</ele>
        <time>2020-08-01T12:20:45Z</time>
      </trkpt>
      <trkpt lat="44.81648" lon="6.8824">
        <ele>2076</ele>
        <time>2020-08-01T12:20:50Z</time>
      </trkpt>
      <trkpt lat="44.81632" lon="6.88239">
        <ele>2074</ele>
        <time>2020-08-01T12:20:56Z</time>
      </trkpt>
      <trkpt lat="44.81622" lon="6.8824">
        <ele>2072</ele>
        <time>2020-08-01T12:21:00Z</time>
      </trkpt>
      <trkpt lat="44.81618" lon="6.88249">
        <ele>2069</ele>
        <time>2020-08-01T12:21:05Z</time>
      </trkpt>
      <trkpt lat="44.81625" lon="6.88263">
        <ele>2064</ele>
        <time>2020-08-01T12:21:10Z</time>
      </trkpt>
      <trkpt lat="44.81633" lon="6.88281">
        <ele>2057</ele>
        <time>2020-08-01T12:21:15Z</time>
      </trkpt>
      <trkpt lat="44.81638" lon="6.88299">
        <ele>2052</ele>
        <time>2020-08-01T12:21:18Z</time>
      </trkpt>
      <trkpt lat="44.81635" lon="6.8831">
        <ele>2049</ele>
        <time>2020-08-01T12:21:21Z</time>
      </trkpt>
      <trkpt lat="44.81637" lon="6.8833">
        <ele>2047</ele>
        <time>2020-08-01T12:21:26Z</time>
      </trkpt>
      <trkpt lat="44.81639" lon="6.88332">
        <ele>2047</ele>
        <time>2020-08-01T12:21:30Z</time>
      </trkpt>
      <trkpt lat="44.81647" lon="6.88339">
        <ele>2048</ele>
        <time>2020-08-01T12:21:41Z</time>
      </trkpt>
      <trkpt lat="44.81647" lon="6.8834">
        <ele>2048</ele>
        <time>2020-08-01T12:21:46Z</time>
      </trkpt>
      <trkpt lat="44.81651" lon="6.88347">
        <ele>2048</ele>
        <time>2020-08-01T12:24:41Z</time>
      </trkpt>
      <trkpt lat="44.81646" lon="6.88369">
        <ele>2048</ele>
        <time>2020-08-01T12:24:46Z</time>
      </trkpt>
      <trkpt lat="44.81633" lon="6.88401">
        <ele>2046</ele>
        <time>2020-08-01T12:24:52Z</time>
      </trkpt>
      <trkpt lat="44.81614" lon="6.88429">
        <ele>2045</ele>
        <time>2020-08-01T12:24:57Z</time>
      </trkpt>
      <trkpt lat="44.81589" lon="6.88478">
        <ele>2042</ele>
        <time>2020-08-01T12:25:06Z</time>
      </trkpt>
      <trkpt lat="44.81572" lon="6.88509">
        <ele>2041</ele>
        <time>2020-08-01T12:25:12Z</time>
      </trkpt>
      <trkpt lat="44.81534" lon="6.88529">
        <ele>2037</ele>
        <time>2020-08-01T12:25:24Z</time>
      </trkpt>
      <trkpt lat="44.81513" lon="6.8855">
        <ele>2037</ele>
        <time>2020-08-01T12:25:32Z</time>
      </trkpt>
      <trkpt lat="44.815" lon="6.88564">
        <ele>2037</ele>
        <time>2020-08-01T12:25:35Z</time>
      </trkpt>
      <trkpt lat="44.81488" lon="6.88581">
        <ele>2037</ele>
        <time>2020-08-01T12:25:38Z</time>
      </trkpt>
      <trkpt lat="44.81472" lon="6.88601">
        <ele>2037</ele>
        <time>2020-08-01T12:25:44Z</time>
      </trkpt>
      <trkpt lat="44.81451" lon="6.88615">
        <ele>2036</ele>
        <time>2020-08-01T12:25:51Z</time>
      </trkpt>
      <trkpt lat="44.81421" lon="6.88634">
        <ele>2040</ele>
        <time>2020-08-01T12:25:58Z</time>
      </trkpt>
      <trkpt lat="44.814" lon="6.88641">
        <ele>2043</ele>
        <time>2020-08-01T12:26:03Z</time>
      </trkpt>
      <trkpt lat="44.81374" lon="6.88646">
        <ele>2044</ele>
        <time>2020-08-01T12:26:10Z</time>
      </trkpt>
      <trkpt lat="44.81349" lon="6.88648">
        <ele>2043</ele>
        <time>2020-08-01T12:26:19Z</time>
      </trkpt>
      <trkpt lat="44.8134" lon="6.88652">
        <ele>2043</ele>
        <time>2020-08-01T12:26:22Z</time>
      </trkpt>
      <trkpt lat="44.81302" lon="6.88643">
        <ele>2037</ele>
        <time>2020-08-01T12:26:33Z</time>
      </trkpt>
      <trkpt lat="44.81287" lon="6.88647">
        <ele>2035</ele>
        <time>2020-08-01T12:26:39Z</time>
      </trkpt>
      <trkpt lat="44.81264" lon="6.88656">
        <ele>2035</ele>
        <time>2020-08-01T12:26:44Z</time>
      </trkpt>
      <trkpt lat="44.81253" lon="6.8866">
        <ele>2036</ele>
        <time>2020-08-01T12:26:47Z</time>
      </trkpt>
      <trkpt lat="44.81234" lon="6.88671">
        <ele>2039</ele>
        <time>2020-08-01T12:26:53Z</time>
      </trkpt>
      <trkpt lat="44.81226" lon="6.88674">
        <ele>2040</ele>
        <time>2020-08-01T12:26:56Z</time>
      </trkpt>
      <trkpt lat="44.81218" lon="6.88672">
        <ele>2040</ele>
        <time>2020-08-01T12:26:59Z</time>
      </trkpt>
      <trkpt lat="44.81203" lon="6.88667">
        <ele>2039</ele>
        <time>2020-08-01T12:27:04Z</time>
      </trkpt>
      <trkpt lat="44.81199" lon="6.88667">
        <ele>2039</ele>
        <time>2020-08-01T12:27:09Z</time>
      </trkpt>
      <trkpt lat="44.81188" lon="6.88663">
        <ele>2039</ele>
        <time>2020-08-01T12:27:30Z</time>
      </trkpt>
      <trkpt lat="44.81173" lon="6.88661">
        <ele>2039</ele>
        <time>2020-08-01T12:27:33Z</time>
      </trkpt>
      <trkpt lat="44.81162" lon="6.8866">
        <ele>2038</ele>
        <time>2020-08-01T12:27:35Z</time>
      </trkpt>
      <trkpt lat="44.81136" lon="6.88658">
        <ele>2035</ele>
        <time>2020-08-01T12:27:39Z</time>
      </trkpt>
      <trkpt lat="44.81121" lon="6.88655">
        <ele>2032</ele>
        <time>2020-08-01T12:27:41Z</time>
      </trkpt>
      <trkpt lat="44.811" lon="6.88653">
        <ele>2027</ele>
        <time>2020-08-01T12:27:44Z</time>
      </trkpt>
      <trkpt lat="44.81075" lon="6.88669">
        <ele>2021</ele>
        <time>2020-08-01T12:27:48Z</time>
      </trkpt>
      <trkpt lat="44.81057" lon="6.88677">
        <ele>2019</ele>
        <time>2020-08-01T12:27:51Z</time>
      </trkpt>
      <trkpt lat="44.81048" lon="6.88681">
        <ele>2019</ele>
        <time>2020-08-01T12:27:53Z</time>
      </trkpt>
      <trkpt lat="44.81039" lon="6.88681">
        <ele>2018</ele>
        <time>2020-08-01T12:27:55Z</time>
      </trkpt>
      <trkpt lat="44.81016" lon="6.88681">
        <ele>2015</ele>
        <time>2020-08-01T12:28:01Z</time>
      </trkpt>
      <trkpt lat="44.80997" lon="6.88683">
        <ele>2013</ele>
        <time>2020-08-01T12:28:05Z</time>
      </trkpt>
      <trkpt lat="44.80961" lon="6.88727">
        <ele>2012</ele>
        <time>2020-08-01T12:28:13Z</time>
      </trkpt>
      <trkpt lat="44.80944" lon="6.88745">
        <ele>2011</ele>
        <time>2020-08-01T12:28:17Z</time>
      </trkpt>
      <trkpt lat="44.8092" lon="6.8876">
        <ele>2005</ele>
        <time>2020-08-01T12:28:21Z</time>
      </trkpt>
      <trkpt lat="44.80914" lon="6.88763">
        <ele>2003</ele>
        <time>2020-08-01T12:28:22Z</time>
      </trkpt>
      <trkpt lat="44.80903" lon="6.88769">
        <ele>2001</ele>
        <time>2020-08-01T12:28:24Z</time>
      </trkpt>
      <trkpt lat="44.80883" lon="6.88767">
        <ele>1996</ele>
        <time>2020-08-01T12:28:28Z</time>
      </trkpt>
      <trkpt lat="44.80867" lon="6.88755">
        <ele>1991</ele>
        <time>2020-08-01T12:28:32Z</time>
      </trkpt>
      <trkpt lat="44.80856" lon="6.8875">
        <ele>1986</ele>
        <time>2020-08-01T12:28:36Z</time>
      </trkpt>
      <trkpt lat="44.80847" lon="6.88751">
        <ele>1983</ele>
        <time>2020-08-01T12:28:39Z</time>
      </trkpt>
      <trkpt lat="44.80842" lon="6.88755">
        <ele>1982</ele>
        <time>2020-08-01T12:28:41Z</time>
      </trkpt>
      <trkpt lat="44.80833" lon="6.88758">
        <ele>1980</ele>
        <time>2020-08-01T12:28:43Z</time>
      </trkpt>
      <trkpt lat="44.80817" lon="6.88765">
        <ele>1969</ele>
        <time>2020-08-01T12:28:47Z</time>
      </trkpt>
      <trkpt lat="44.80803" lon="6.88778">
        <ele>1963</ele>
        <time>2020-08-01T12:28:52Z</time>
      </trkpt>
      <trkpt lat="44.80799" lon="6.88785">
        <ele>1961</ele>
        <time>2020-08-01T12:28:54Z</time>
      </trkpt>
      <trkpt lat="44.80784" lon="6.88814">
        <ele>1957</ele>
        <time>2020-08-01T12:29:00Z</time>
      </trkpt>
      <trkpt lat="44.80778" lon="6.8883">
        <ele>1957</ele>
        <time>2020-08-01T12:29:03Z</time>
      </trkpt>
      <trkpt lat="44.8077" lon="6.88836">
        <ele>1953</ele>
        <time>2020-08-01T12:29:05Z</time>
      </trkpt>
      <trkpt lat="44.80763" lon="6.88845">
        <ele>1951</ele>
        <time>2020-08-01T12:29:08Z</time>
      </trkpt>
      <trkpt lat="44.80756" lon="6.88847">
        <ele>1948</ele>
        <time>2020-08-01T12:29:11Z</time>
      </trkpt>
      <trkpt lat="44.80745" lon="6.88855">
        <ele>1945</ele>
        <time>2020-08-01T12:29:15Z</time>
      </trkpt>
      <trkpt lat="44.80739" lon="6.88859">
        <ele>1945</ele>
        <time>2020-08-01T12:29:17Z</time>
      </trkpt>
      <trkpt lat="44.80737" lon="6.8886">
        <ele>1945</ele>
        <time>2020-08-01T12:29:18Z</time>
      </trkpt>
      <trkpt lat="44.8072" lon="6.88865">
        <ele>1942</ele>
        <time>2020-08-01T12:29:24Z</time>
      </trkpt>
      <trkpt lat="44.80703" lon="6.8887">
        <ele>1942</ele>
        <time>2020-08-01T12:29:29Z</time>
      </trkpt>
      <trkpt lat="44.80698" lon="6.88872">
        <ele>1942</ele>
        <time>2020-08-01T12:29:31Z</time>
      </trkpt>
      <trkpt lat="44.80689" lon="6.88873">
        <ele>1940</ele>
        <time>2020-08-01T12:29:33Z</time>
      </trkpt>
      <trkpt lat="44.80663" lon="6.88878">
        <ele>1931</ele>
        <time>2020-08-01T12:29:38Z</time>
      </trkpt>
      <trkpt lat="44.80655" lon="6.8888">
        <ele>1927</ele>
        <time>2020-08-01T12:29:40Z</time>
      </trkpt>
      <trkpt lat="44.80625" lon="6.88907">
        <ele>1921</ele>
        <time>2020-08-01T12:29:46Z</time>
      </trkpt>
      <trkpt lat="44.80618" lon="6.88913">
        <ele>1920</ele>
        <time>2020-08-01T12:29:50Z</time>
      </trkpt>
      <trkpt lat="44.80609" lon="6.88925">
        <ele>1921</ele>
        <time>2020-08-01T12:29:54Z</time>
      </trkpt>
      <trkpt lat="44.80606" lon="6.88928">
        <ele>1921</ele>
        <time>2020-08-01T12:29:55Z</time>
      </trkpt>
      <trkpt lat="44.80599" lon="6.88937">
        <ele>1922</ele>
        <time>2020-08-01T12:29:57Z</time>
      </trkpt>
      <trkpt lat="44.80562" lon="6.88982">
        <ele>1924</ele>
        <time>2020-08-01T12:30:07Z</time>
      </trkpt>
      <trkpt lat="44.80532" lon="6.88995">
        <ele>1916</ele>
        <time>2020-08-01T12:30:17Z</time>
      </trkpt>
      <trkpt lat="44.80496" lon="6.89038">
        <ele>1902</ele>
        <time>2020-08-01T12:30:29Z</time>
      </trkpt>
      <trkpt lat="44.80481" lon="6.89055">
        <ele>1897</ele>
        <time>2020-08-01T12:30:38Z</time>
      </trkpt>
      <trkpt lat="44.8048" lon="6.89055">
        <ele>1897</ele>
        <time>2020-08-01T12:30:39Z</time>
      </trkpt>
      <trkpt lat="44.80475" lon="6.89062">
        <ele>1897</ele>
        <time>2020-08-01T12:32:29Z</time>
      </trkpt>
      <trkpt lat="44.8047" lon="6.89073">
        <ele>1898</ele>
        <time>2020-08-01T12:32:32Z</time>
      </trkpt>
      <trkpt lat="44.8045" lon="6.89101">
        <ele>1900</ele>
        <time>2020-08-01T12:32:40Z</time>
      </trkpt>
      <trkpt lat="44.80442" lon="6.89107">
        <ele>1899</ele>
        <time>2020-08-01T12:32:44Z</time>
      </trkpt>
      <trkpt lat="44.80421" lon="6.89111">
        <ele>1891</ele>
        <time>2020-08-01T12:32:50Z</time>
      </trkpt>
      <trkpt lat="44.80407" lon="6.89126">
        <ele>1891</ele>
        <time>2020-08-01T12:32:57Z</time>
      </trkpt>
      <trkpt lat="44.80405" lon="6.89134">
        <ele>1893</ele>
        <time>2020-08-01T12:33:00Z</time>
      </trkpt>
      <trkpt lat="44.80396" lon="6.89146">
        <ele>1894</ele>
        <time>2020-08-01T12:33:08Z</time>
      </trkpt>
      <trkpt lat="44.80386" lon="6.89157">
        <ele>1894</ele>
        <time>2020-08-01T12:33:27Z</time>
      </trkpt>
      <trkpt lat="44.80382" lon="6.89165">
        <ele>1896</ele>
        <time>2020-08-01T12:33:29Z</time>
      </trkpt>
      <trkpt lat="44.80379" lon="6.89175">
        <ele>1899</ele>
        <time>2020-08-01T12:33:32Z</time>
      </trkpt>
      <trkpt lat="44.80359" lon="6.89199">
        <ele>1893</ele>
        <time>2020-08-01T12:33:40Z</time>
      </trkpt>
      <trkpt lat="44.8035" lon="6.89209">
        <ele>1890</ele>
        <time>2020-08-01T12:33:43Z</time>
      </trkpt>
      <trkpt lat="44.80326" lon="6.8923">
        <ele>1882</ele>
        <time>2020-08-01T12:33:50Z</time>
      </trkpt>
      <trkpt lat="44.80324" lon="6.89232">
        <ele>1882</ele>
        <time>2020-08-01T12:33:51Z</time>
      </trkpt>
      <trkpt lat="44.80319" lon="6.89238">
        <ele>1881</ele>
        <time>2020-08-01T12:33:53Z</time>
      </trkpt>
      <trkpt lat="44.80313" lon="6.89252">
        <ele>1881</ele>
        <time>2020-08-01T12:33:57Z</time>
      </trkpt>
      <trkpt lat="44.8031" lon="6.89258">
        <ele>1881</ele>
        <time>2020-08-01T12:33:59Z</time>
      </trkpt>
      <trkpt lat="44.80298" lon="6.89276">
        <ele>1876</ele>
        <time>2020-08-01T12:34:06Z</time>
      </trkpt>
      <trkpt lat="44.80297" lon="6.89278">
        <ele>1875</ele>
        <time>2020-08-01T12:34:11Z</time>
      </trkpt>
      <trkpt lat="44.80292" lon="6.89292">
        <ele>1874</ele>
        <time>2020-08-01T12:34:35Z</time>
      </trkpt>
      <trkpt lat="44.80292" lon="6.89297">
        <ele>1874</ele>
        <time>2020-08-01T12:34:36Z</time>
      </trkpt>
      <trkpt lat="44.80287" lon="6.89309">
        <ele>1873</ele>
        <time>2020-08-01T12:34:38Z</time>
      </trkpt>
      <trkpt lat="44.80281" lon="6.89339">
        <ele>1871</ele>
        <time>2020-08-01T12:34:42Z</time>
      </trkpt>
      <trkpt lat="44.80273" lon="6.89363">
        <ele>1870</ele>
        <time>2020-08-01T12:34:47Z</time>
      </trkpt>
      <trkpt lat="44.80269" lon="6.89378">
        <ele>1869</ele>
        <time>2020-08-01T12:34:50Z</time>
      </trkpt>
      <trkpt lat="44.80267" lon="6.89382">
        <ele>1867</ele>
        <time>2020-08-01T12:34:51Z</time>
      </trkpt>
      <trkpt lat="44.80253" lon="6.89403">
        <ele>1861</ele>
        <time>2020-08-01T12:34:57Z</time>
      </trkpt>
      <trkpt lat="44.80248" lon="6.89414">
        <ele>1859</ele>
        <time>2020-08-01T12:35:00Z</time>
      </trkpt>
      <trkpt lat="44.80238" lon="6.89429">
        <ele>1856</ele>
        <time>2020-08-01T12:35:05Z</time>
      </trkpt>
      <trkpt lat="44.8023" lon="6.89444">
        <ele>1855</ele>
        <time>2020-08-01T12:35:09Z</time>
      </trkpt>
      <trkpt lat="44.8022" lon="6.8947">
        <ele>1859</ele>
        <time>2020-08-01T12:35:15Z</time>
      </trkpt>
      <trkpt lat="44.80205" lon="6.89462">
        <ele>1854</ele>
        <time>2020-08-01T12:35:21Z</time>
      </trkpt>
      <trkpt lat="44.80174" lon="6.89468">
        <ele>1848</ele>
        <time>2020-08-01T12:35:30Z</time>
      </trkpt>
      <trkpt lat="44.80166" lon="6.89473">
        <ele>1846</ele>
        <time>2020-08-01T12:35:32Z</time>
      </trkpt>
      <trkpt lat="44.80142" lon="6.8949">
        <ele>1844</ele>
        <time>2020-08-01T12:35:39Z</time>
      </trkpt>
      <trkpt lat="44.80125" lon="6.89517">
        <ele>1845</ele>
        <time>2020-08-01T12:35:44Z</time>
      </trkpt>
      <trkpt lat="44.80122" lon="6.89524">
        <ele>1845</ele>
        <time>2020-08-01T12:35:45Z</time>
      </trkpt>
      <trkpt lat="44.80112" lon="6.8954">
        <ele>1843</ele>
        <time>2020-08-01T12:35:53Z</time>
      </trkpt>
      <trkpt lat="44.80108" lon="6.89543">
        <ele>1841</ele>
        <time>2020-08-01T12:40:01Z</time>
      </trkpt>
      <trkpt lat="44.80096" lon="6.89583">
        <ele>1836</ele>
        <time>2020-08-01T12:40:14Z</time>
      </trkpt>
      <trkpt lat="44.80091" lon="6.89602">
        <ele>1833</ele>
        <time>2020-08-01T12:40:21Z</time>
      </trkpt>
      <trkpt lat="44.80096" lon="6.89606">
        <ele>1836</ele>
        <time>2020-08-01T12:40:29Z</time>
      </trkpt>
      <trkpt lat="44.801" lon="6.89611">
        <ele>1838</ele>
        <time>2020-08-01T12:41:14Z</time>
      </trkpt>
      <trkpt lat="44.801" lon="6.89613">
        <ele>1838</ele>
        <time>2020-08-01T12:41:17Z</time>
      </trkpt>
      <trkpt lat="44.80092" lon="6.89618">
        <ele>1833</ele>
        <time>2020-08-01T12:41:26Z</time>
      </trkpt>
      <trkpt lat="44.80092" lon="6.89619">
        <ele>1833</ele>
        <time>2020-08-01T12:41:27Z</time>
      </trkpt>
      <trkpt lat="44.80086" lon="6.89626">
        <ele>1829</ele>
        <time>2020-08-01T12:41:34Z</time>
      </trkpt>
      <trkpt lat="44.80088" lon="6.89632">
        <ele>1829</ele>
        <time>2020-08-01T12:41:38Z</time>
      </trkpt>
      <trkpt lat="44.80094" lon="6.89647">
        <ele>1833</ele>
        <time>2020-08-01T12:41:43Z</time>
      </trkpt>
      <trkpt lat="44.80093" lon="6.8965">
        <ele>1832</ele>
        <time>2020-08-01T12:41:45Z</time>
      </trkpt>
      <trkpt lat="44.80083" lon="6.8966">
        <ele>1828</ele>
        <time>2020-08-01T12:41:52Z</time>
      </trkpt>
      <trkpt lat="44.80078" lon="6.8966">
        <ele>1825</ele>
        <time>2020-08-01T12:41:55Z</time>
      </trkpt>
      <trkpt lat="44.80069" lon="6.8966">
        <ele>1820</ele>
        <time>2020-08-01T12:42:00Z</time>
      </trkpt>
      <trkpt lat="44.80062" lon="6.89661">
        <ele>1817</ele>
        <time>2020-08-01T12:42:04Z</time>
      </trkpt>
      <trkpt lat="44.80041" lon="6.89673">
        <ele>1812</ele>
        <time>2020-08-01T12:42:12Z</time>
      </trkpt>
      <trkpt lat="44.80029" lon="6.89679">
        <ele>1811</ele>
        <time>2020-08-01T12:42:16Z</time>
      </trkpt>
      <trkpt lat="44.80024" lon="6.89682">
        <ele>1811</ele>
        <time>2020-08-01T12:42:18Z</time>
      </trkpt>
      <trkpt lat="44.80012" lon="6.897">
        <ele>1813</ele>
        <time>2020-08-01T12:42:22Z</time>
      </trkpt>
      <trkpt lat="44.79993" lon="6.8975">
        <ele>1815</ele>
        <time>2020-08-01T12:42:30Z</time>
      </trkpt>
      <trkpt lat="44.7999" lon="6.89768">
        <ele>1814</ele>
        <time>2020-08-01T12:42:32Z</time>
      </trkpt>
      <trkpt lat="44.79969" lon="6.89785">
        <ele>1805</ele>
        <time>2020-08-01T12:42:37Z</time>
      </trkpt>
      <trkpt lat="44.79953" lon="6.89798">
        <ele>1798</ele>
        <time>2020-08-01T12:42:41Z</time>
      </trkpt>
      <trkpt lat="44.7995" lon="6.898">
        <ele>1797</ele>
        <time>2020-08-01T12:42:43Z</time>
      </trkpt>
      <trkpt lat="44.7995" lon="6.898">
        <ele>1797</ele>
        <time>2020-08-01T12:42:47Z</time>
      </trkpt>
      <trkpt lat="44.79945" lon="6.89807">
        <ele>1796</ele>
        <time>2020-08-01T12:44:34Z</time>
      </trkpt>
      <trkpt lat="44.79928" lon="6.8984">
        <ele>1797</ele>
        <time>2020-08-01T12:44:43Z</time>
      </trkpt>
      <trkpt lat="44.79926" lon="6.89847">
        <ele>1798</ele>
        <time>2020-08-01T12:44:45Z</time>
      </trkpt>
      <trkpt lat="44.79921" lon="6.89856">
        <ele>1799</ele>
        <time>2020-08-01T12:44:53Z</time>
      </trkpt>
      <trkpt lat="44.79918" lon="6.89869">
        <ele>1802</ele>
        <time>2020-08-01T12:45:09Z</time>
      </trkpt>
      <trkpt lat="44.79918" lon="6.8987">
        <ele>1802</ele>
        <time>2020-08-01T12:45:12Z</time>
      </trkpt>
      <trkpt lat="44.79911" lon="6.89885">
        <ele>1804</ele>
        <time>2020-08-01T12:45:17Z</time>
      </trkpt>
      <trkpt lat="44.79894" lon="6.89917">
        <ele>1808</ele>
        <time>2020-08-01T12:45:24Z</time>
      </trkpt>
      <trkpt lat="44.79876" lon="6.89934">
        <ele>1802</ele>
        <time>2020-08-01T12:45:28Z</time>
      </trkpt>
      <trkpt lat="44.79849" lon="6.89961">
        <ele>1798</ele>
        <time>2020-08-01T12:45:33Z</time>
      </trkpt>
      <trkpt lat="44.79822" lon="6.89999">
        <ele>1798</ele>
        <time>2020-08-01T12:45:41Z</time>
      </trkpt>
      <trkpt lat="44.79815" lon="6.90005">
        <ele>1795</ele>
        <time>2020-08-01T12:45:43Z</time>
      </trkpt>
      <trkpt lat="44.79804" lon="6.90008">
        <ele>1790</ele>
        <time>2020-08-01T12:45:45Z</time>
      </trkpt>
      <trkpt lat="44.79793" lon="6.90013">
        <ele>1786</ele>
        <time>2020-08-01T12:45:47Z</time>
      </trkpt>
      <trkpt lat="44.79751" lon="6.90076">
        <ele>1782</ele>
        <time>2020-08-01T12:45:56Z</time>
      </trkpt>
      <trkpt lat="44.79747" lon="6.90083">
        <ele>1782</ele>
        <time>2020-08-01T12:45:57Z</time>
      </trkpt>
      <trkpt lat="44.7972" lon="6.90134">
        <ele>1781</ele>
        <time>2020-08-01T12:46:04Z</time>
      </trkpt>
      <trkpt lat="44.79708" lon="6.90144">
        <ele>1774</ele>
        <time>2020-08-01T12:46:06Z</time>
      </trkpt>
      <trkpt lat="44.7968" lon="6.9018">
        <ele>1759</ele>
        <time>2020-08-01T12:46:11Z</time>
      </trkpt>
      <trkpt lat="44.79674" lon="6.90201">
        <ele>1760</ele>
        <time>2020-08-01T12:46:17Z</time>
      </trkpt>
      <trkpt lat="44.79675" lon="6.90201">
        <ele>1761</ele>
        <time>2020-08-01T12:46:20Z</time>
      </trkpt>
      <trkpt lat="44.79672" lon="6.90215">
        <ele>1763</ele>
        <time>2020-08-01T12:47:11Z</time>
      </trkpt>
      <trkpt lat="44.79666" lon="6.90254">
        <ele>1767</ele>
        <time>2020-08-01T12:47:19Z</time>
      </trkpt>
      <trkpt lat="44.79665" lon="6.90279">
        <ele>1769</ele>
        <time>2020-08-01T12:47:23Z</time>
      </trkpt>
      <trkpt lat="44.79664" lon="6.90303">
        <ele>1771</ele>
        <time>2020-08-01T12:47:26Z</time>
      </trkpt>
      <trkpt lat="44.7966" lon="6.90346">
        <ele>1773</ele>
        <time>2020-08-01T12:47:32Z</time>
      </trkpt>
      <trkpt lat="44.7966" lon="6.90356">
        <ele>1771</ele>
        <time>2020-08-01T12:47:34Z</time>
      </trkpt>
      <trkpt lat="44.79659" lon="6.90366">
        <ele>1770</ele>
        <time>2020-08-01T12:47:37Z</time>
      </trkpt>
      <trkpt lat="44.79657" lon="6.90377">
        <ele>1768</ele>
        <time>2020-08-01T12:47:41Z</time>
      </trkpt>
      <trkpt lat="44.79654" lon="6.9039">
        <ele>1765</ele>
        <time>2020-08-01T12:47:47Z</time>
      </trkpt>
      <trkpt lat="44.79644" lon="6.90443">
        <ele>1757</ele>
        <time>2020-08-01T12:47:55Z</time>
      </trkpt>
      <trkpt lat="44.79642" lon="6.90461">
        <ele>1755</ele>
        <time>2020-08-01T12:47:59Z</time>
      </trkpt>
      <trkpt lat="44.79641" lon="6.90476">
        <ele>1754</ele>
        <time>2020-08-01T12:48:01Z</time>
      </trkpt>
      <trkpt lat="44.79644" lon="6.90506">
        <ele>1757</ele>
        <time>2020-08-01T12:48:05Z</time>
      </trkpt>
      <trkpt lat="44.79649" lon="6.90521">
        <ele>1762</ele>
        <time>2020-08-01T12:48:12Z</time>
      </trkpt>
      <trkpt lat="44.79649" lon="6.90521">
        <ele>1762</ele>
        <time>2020-08-01T12:48:13Z</time>
      </trkpt>
      <trkpt lat="44.79648" lon="6.90531">
        <ele>1762</ele>
        <time>2020-08-01T12:48:37Z</time>
      </trkpt>
      <trkpt lat="44.79658" lon="6.90602">
        <ele>1757</ele>
        <time>2020-08-01T12:48:46Z</time>
      </trkpt>
      <trkpt lat="44.79666" lon="6.90643">
        <ele>1752</ele>
        <time>2020-08-01T12:48:53Z</time>
      </trkpt>
      <trkpt lat="44.79668" lon="6.90647">
        <ele>1751</ele>
        <time>2020-08-01T12:48:54Z</time>
      </trkpt>
      <trkpt lat="44.79675" lon="6.90656">
        <ele>1751</ele>
        <time>2020-08-01T12:48:56Z</time>
      </trkpt>
      <trkpt lat="44.79681" lon="6.90669">
        <ele>1750</ele>
        <time>2020-08-01T12:48:58Z</time>
      </trkpt>
      <trkpt lat="44.79684" lon="6.90679">
        <ele>1747</ele>
        <time>2020-08-01T12:49:01Z</time>
      </trkpt>
      <trkpt lat="44.79689" lon="6.90699">
        <ele>1744</ele>
        <time>2020-08-01T12:49:07Z</time>
      </trkpt>
      <trkpt lat="44.797" lon="6.90732">
        <ele>1743</ele>
        <time>2020-08-01T12:49:12Z</time>
      </trkpt>
      <trkpt lat="44.79708" lon="6.90764">
        <ele>1748</ele>
        <time>2020-08-01T12:49:18Z</time>
      </trkpt>
      <trkpt lat="44.79719" lon="6.90782">
        <ele>1755</ele>
        <time>2020-08-01T12:49:22Z</time>
      </trkpt>
      <trkpt lat="44.7972" lon="6.90813">
        <ele>1751</ele>
        <time>2020-08-01T12:49:27Z</time>
      </trkpt>
      <trkpt lat="44.79713" lon="6.90833">
        <ele>1741</ele>
        <time>2020-08-01T12:49:30Z</time>
      </trkpt>
      <trkpt lat="44.79716" lon="6.90866">
        <ele>1737</ele>
        <time>2020-08-01T12:49:35Z</time>
      </trkpt>
      <trkpt lat="44.79745" lon="6.90957">
        <ele>1742</ele>
        <time>2020-08-01T12:49:50Z</time>
      </trkpt>
      <trkpt lat="44.79747" lon="6.90989">
        <ele>1743</ele>
        <time>2020-08-01T12:49:54Z</time>
      </trkpt>
      <trkpt lat="44.7974" lon="6.91015">
        <ele>1733</ele>
        <time>2020-08-01T12:49:57Z</time>
      </trkpt>
      <trkpt lat="44.7975" lon="6.91048">
        <ele>1732</ele>
        <time>2020-08-01T12:50:02Z</time>
      </trkpt>
      <trkpt lat="44.7976" lon="6.91067">
        <ele>1733</ele>
        <time>2020-08-01T12:50:11Z</time>
      </trkpt>
      <trkpt lat="44.7976" lon="6.91067">
        <ele>1733</ele>
        <time>2020-08-01T12:50:12Z</time>
      </trkpt>
      <trkpt lat="44.79761" lon="6.91074">
        <ele>1731</ele>
        <time>2020-08-01T12:50:44Z</time>
      </trkpt>
      <trkpt lat="44.79748" lon="6.91094">
        <ele>1719</ele>
        <time>2020-08-01T12:50:54Z</time>
      </trkpt>
      <trkpt lat="44.79745" lon="6.91095">
        <ele>1718</ele>
        <time>2020-08-01T12:50:55Z</time>
      </trkpt>
      <trkpt lat="44.79738" lon="6.9112">
        <ele>1713</ele>
        <time>2020-08-01T12:51:01Z</time>
      </trkpt>
      <trkpt lat="44.79738" lon="6.91132">
        <ele>1712</ele>
        <time>2020-08-01T12:51:03Z</time>
      </trkpt>
      <trkpt lat="44.79744" lon="6.91186">
        <ele>1715</ele>
        <time>2020-08-01T12:51:13Z</time>
      </trkpt>
      <trkpt lat="44.79747" lon="6.91198">
        <ele>1716</ele>
        <time>2020-08-01T12:51:16Z</time>
      </trkpt>
      <trkpt lat="44.7977" lon="6.91245">
        <ele>1721</ele>
        <time>2020-08-01T12:51:29Z</time>
      </trkpt>
      <trkpt lat="44.79777" lon="6.9127">
        <ele>1722</ele>
        <time>2020-08-01T12:51:33Z</time>
      </trkpt>
      <trkpt lat="44.7978" lon="6.91297">
        <ele>1723</ele>
        <time>2020-08-01T12:51:37Z</time>
      </trkpt>
      <trkpt lat="44.79777" lon="6.91312">
        <ele>1723</ele>
        <time>2020-08-01T12:51:41Z</time>
      </trkpt>
      <trkpt lat="44.79774" lon="6.9132">
        <ele>1722</ele>
        <time>2020-08-01T12:51:45Z</time>
      </trkpt>
      <trkpt lat="44.79773" lon="6.91321">
        <ele>1722</ele>
        <time>2020-08-01T12:51:46Z</time>
      </trkpt>
      <trkpt lat="44.79773" lon="6.91333">
        <ele>1724</ele>
        <time>2020-08-01T12:51:52Z</time>
      </trkpt>
      <trkpt lat="44.79765" lon="6.91368">
        <ele>1726</ele>
        <time>2020-08-01T12:52:04Z</time>
      </trkpt>
      <trkpt lat="44.79746" lon="6.91417">
        <ele>1721</ele>
        <time>2020-08-01T12:52:17Z</time>
      </trkpt>
      <trkpt lat="44.79734" lon="6.91461">
        <ele>1723</ele>
        <time>2020-08-01T12:52:27Z</time>
      </trkpt>
      <trkpt lat="44.79732" lon="6.91505">
        <ele>1723</ele>
        <time>2020-08-01T12:52:36Z</time>
      </trkpt>
      <trkpt lat="44.79732" lon="6.91511">
        <ele>1723</ele>
        <time>2020-08-01T12:52:37Z</time>
      </trkpt>
      <trkpt lat="44.79732" lon="6.91517">
        <ele>1723</ele>
        <time>2020-08-01T12:52:38Z</time>
      </trkpt>
      <trkpt lat="44.79732" lon="6.91523">
        <ele>1723</ele>
        <time>2020-08-01T12:52:39Z</time>
      </trkpt>
      <trkpt lat="44.79732" lon="6.91528">
        <ele>1723</ele>
        <time>2020-08-01T12:52:40Z</time>
      </trkpt>
      <trkpt lat="44.79732" lon="6.91532">
        <ele>1723</ele>
        <time>2020-08-01T12:52:41Z</time>
      </trkpt>
      <trkpt lat="44.79729" lon="6.91546">
        <ele>1721</ele>
        <time>2020-08-01T12:52:44Z</time>
      </trkpt>
      <trkpt lat="44.7972" lon="6.91557">
        <ele>1718</ele>
        <time>2020-08-01T12:52:48Z</time>
      </trkpt>
      <trkpt lat="44.79719" lon="6.91562">
        <ele>1717</ele>
        <time>2020-08-01T12:52:49Z</time>
      </trkpt>
      <trkpt lat="44.79718" lon="6.91567">
        <ele>1716</ele>
        <time>2020-08-01T12:52:50Z</time>
      </trkpt>
      <trkpt lat="44.79716" lon="6.91572">
        <ele>1715</ele>
        <time>2020-08-01T12:52:51Z</time>
      </trkpt>
      <trkpt lat="44.79713" lon="6.91575">
        <ele>1714</ele>
        <time>2020-08-01T12:52:52Z</time>
      </trkpt>
      <trkpt lat="44.79709" lon="6.91579">
        <ele>1712</ele>
        <time>2020-08-01T12:52:53Z</time>
      </trkpt>
      <trkpt lat="44.79705" lon="6.91583">
        <ele>1711</ele>
        <time>2020-08-01T12:52:54Z</time>
      </trkpt>
      <trkpt lat="44.79701" lon="6.91587">
        <ele>1710</ele>
        <time>2020-08-01T12:52:55Z</time>
      </trkpt>
      <trkpt lat="44.79696" lon="6.91592">
        <ele>1708</ele>
        <time>2020-08-01T12:52:56Z</time>
      </trkpt>
      <trkpt lat="44.79692" lon="6.91596">
        <ele>1706</ele>
        <time>2020-08-01T12:52:57Z</time>
      </trkpt>
      <trkpt lat="44.79688" lon="6.91602">
        <ele>1704</ele>
        <time>2020-08-01T12:52:58Z</time>
      </trkpt>
      <trkpt lat="44.79685" lon="6.91608">
        <ele>1703</ele>
        <time>2020-08-01T12:52:59Z</time>
      </trkpt>
      <trkpt lat="44.79682" lon="6.91615">
        <ele>1702</ele>
        <time>2020-08-01T12:53:00Z</time>
      </trkpt>
      <trkpt lat="44.79678" lon="6.91625">
        <ele>1700</ele>
        <time>2020-08-01T12:53:02Z</time>
      </trkpt>
      <trkpt lat="44.79676" lon="6.91627">
        <ele>1699</ele>
        <time>2020-08-01T12:53:03Z</time>
      </trkpt>
      <trkpt lat="44.79676" lon="6.91629">
        <ele>1699</ele>
        <time>2020-08-01T12:53:04Z</time>
      </trkpt>
      <trkpt lat="44.79676" lon="6.91631">
        <ele>1699</ele>
        <time>2020-08-01T12:53:09Z</time>
      </trkpt>
      <trkpt lat="44.79672" lon="6.91643">
        <ele>1697</ele>
        <time>2020-08-01T12:53:54Z</time>
      </trkpt>
      <trkpt lat="44.79669" lon="6.91647">
        <ele>1696</ele>
        <time>2020-08-01T12:53:55Z</time>
      </trkpt>
      <trkpt lat="44.79664" lon="6.91669">
        <ele>1694</ele>
        <time>2020-08-01T12:54:02Z</time>
      </trkpt>
      <trkpt lat="44.79663" lon="6.91671">
        <ele>1694</ele>
        <time>2020-08-01T12:54:03Z</time>
      </trkpt>
      <trkpt lat="44.7966" lon="6.91675">
        <ele>1692</ele>
        <time>2020-08-01T12:54:05Z</time>
      </trkpt>
      <trkpt lat="44.7966" lon="6.91678">
        <ele>1693</ele>
        <time>2020-08-01T12:54:06Z</time>
      </trkpt>
      <trkpt lat="44.79661" lon="6.91682">
        <ele>1693</ele>
        <time>2020-08-01T12:54:07Z</time>
      </trkpt>
      <trkpt lat="44.79661" lon="6.91685">
        <ele>1693</ele>
        <time>2020-08-01T12:54:08Z</time>
      </trkpt>
      <trkpt lat="44.79661" lon="6.91688">
        <ele>1693</ele>
        <time>2020-08-01T12:54:09Z</time>
      </trkpt>
      <trkpt lat="44.79661" lon="6.91691">
        <ele>1693</ele>
        <time>2020-08-01T12:54:10Z</time>
      </trkpt>
      <trkpt lat="44.79661" lon="6.91694">
        <ele>1694</ele>
        <time>2020-08-01T12:54:11Z</time>
      </trkpt>
      <trkpt lat="44.7966" lon="6.91698">
        <ele>1693</ele>
        <time>2020-08-01T12:54:12Z</time>
      </trkpt>
      <trkpt lat="44.79659" lon="6.91701">
        <ele>1692</ele>
        <time>2020-08-01T12:54:13Z</time>
      </trkpt>
      <trkpt lat="44.79656" lon="6.91706">
        <ele>1690</ele>
        <time>2020-08-01T12:54:16Z</time>
      </trkpt>
      <trkpt lat="44.79654" lon="6.91714">
        <ele>1689</ele>
        <time>2020-08-01T12:54:20Z</time>
      </trkpt>
      <trkpt lat="44.79643" lon="6.91716">
        <ele>1682</ele>
        <time>2020-08-01T12:54:26Z</time>
      </trkpt>
      <trkpt lat="44.79633" lon="6.91733">
        <ele>1678</ele>
        <time>2020-08-01T12:54:30Z</time>
      </trkpt>
      <trkpt lat="44.79627" lon="6.91745">
        <ele>1676</ele>
        <time>2020-08-01T12:54:33Z</time>
      </trkpt>
      <trkpt lat="44.79622" lon="6.9176">
        <ele>1674</ele>
        <time>2020-08-01T12:54:37Z</time>
      </trkpt>
      <trkpt lat="44.79617" lon="6.91772">
        <ele>1672</ele>
        <time>2020-08-01T12:54:40Z</time>
      </trkpt>
      <trkpt lat="44.79617" lon="6.91789">
        <ele>1672</ele>
        <time>2020-08-01T12:54:45Z</time>
      </trkpt>
      <trkpt lat="44.79618" lon="6.91803">
        <ele>1673</ele>
        <time>2020-08-01T12:54:50Z</time>
      </trkpt>
      <trkpt lat="44.79618" lon="6.91804">
        <ele>1673</ele>
        <time>2020-08-01T12:54:53Z</time>
      </trkpt>
      <trkpt lat="44.79618" lon="6.91804">
        <ele>1673</ele>
        <time>2020-08-01T12:54:55Z</time>
      </trkpt>
      <trkpt lat="44.79618" lon="6.9181">
        <ele>1673</ele>
        <time>2020-08-01T12:55:00Z</time>
      </trkpt>
      <trkpt lat="44.79617" lon="6.91819">
        <ele>1672</ele>
        <time>2020-08-01T12:55:07Z</time>
      </trkpt>
      <trkpt lat="44.79617" lon="6.91832">
        <ele>1672</ele>
        <time>2020-08-01T12:55:12Z</time>
      </trkpt>
      <trkpt lat="44.7961" lon="6.9184">
        <ele>1668</ele>
        <time>2020-08-01T12:55:17Z</time>
      </trkpt>
      <trkpt lat="44.79592" lon="6.91862">
        <ele>1654</ele>
        <time>2020-08-01T12:55:26Z</time>
      </trkpt>
      <trkpt lat="44.79586" lon="6.91882">
        <ele>1650</ele>
        <time>2020-08-01T12:55:31Z</time>
      </trkpt>
      <trkpt lat="44.79586" lon="6.91888">
        <ele>1650</ele>
        <time>2020-08-01T12:55:32Z</time>
      </trkpt>
      <trkpt lat="44.7958" lon="6.91923">
        <ele>1650</ele>
        <time>2020-08-01T12:55:37Z</time>
      </trkpt>
      <trkpt lat="44.7957" lon="6.91941">
        <ele>1644</ele>
        <time>2020-08-01T12:55:42Z</time>
      </trkpt>
      <trkpt lat="44.79567" lon="6.91944">
        <ele>1643</ele>
        <time>2020-08-01T12:55:43Z</time>
      </trkpt>
      <trkpt lat="44.79563" lon="6.91953">
        <ele>1640</ele>
        <time>2020-08-01T12:55:45Z</time>
      </trkpt>
      <trkpt lat="44.79555" lon="6.91972">
        <ele>1634</ele>
        <time>2020-08-01T12:55:49Z</time>
      </trkpt>
      <trkpt lat="44.79549" lon="6.91999">
        <ele>1629</ele>
        <time>2020-08-01T12:55:54Z</time>
      </trkpt>
      <trkpt lat="44.79551" lon="6.92026">
        <ele>1631</ele>
        <time>2020-08-01T12:55:58Z</time>
      </trkpt>
      <trkpt lat="44.79554" lon="6.92061">
        <ele>1636</ele>
        <time>2020-08-01T12:56:02Z</time>
      </trkpt>
      <trkpt lat="44.79551" lon="6.92095">
        <ele>1636</ele>
        <time>2020-08-01T12:56:06Z</time>
      </trkpt>
      <trkpt lat="44.79549" lon="6.92111">
        <ele>1637</ele>
        <time>2020-08-01T12:56:08Z</time>
      </trkpt>
      <trkpt lat="44.79536" lon="6.92177">
        <ele>1634</ele>
        <time>2020-08-01T12:56:19Z</time>
      </trkpt>
      <trkpt lat="44.79537" lon="6.92194">
        <ele>1634</ele>
        <time>2020-08-01T12:56:23Z</time>
      </trkpt>
      <trkpt lat="44.79534" lon="6.92263">
        <ele>1636</ele>
        <time>2020-08-01T12:56:32Z</time>
      </trkpt>
      <trkpt lat="44.79534" lon="6.923">
        <ele>1629</ele>
        <time>2020-08-01T12:56:38Z</time>
      </trkpt>
      <trkpt lat="44.79535" lon="6.92325">
        <ele>1623</ele>
        <time>2020-08-01T12:56:45Z</time>
      </trkpt>
      <trkpt lat="44.79533" lon="6.92368">
        <ele>1611</ele>
        <time>2020-08-01T12:56:55Z</time>
      </trkpt>
      <trkpt lat="44.79533" lon="6.92371">
        <ele>1611</ele>
        <time>2020-08-01T12:56:56Z</time>
      </trkpt>
      <trkpt lat="44.79534" lon="6.9238">
        <ele>1610</ele>
        <time>2020-08-01T12:57:00Z</time>
      </trkpt>
      <trkpt lat="44.79535" lon="6.92385">
        <ele>1609</ele>
        <time>2020-08-01T12:57:02Z</time>
      </trkpt>
      <trkpt lat="44.79537" lon="6.92389">
        <ele>1609</ele>
        <time>2020-08-01T12:57:08Z</time>
      </trkpt>
      <trkpt lat="44.79542" lon="6.92401">
        <ele>1610</ele>
        <time>2020-08-01T12:58:10Z</time>
      </trkpt>
      <trkpt lat="44.79553" lon="6.92431">
        <ele>1610</ele>
        <time>2020-08-01T12:58:17Z</time>
      </trkpt>
      <trkpt lat="44.79542" lon="6.92438">
        <ele>1603</ele>
        <time>2020-08-01T12:58:23Z</time>
      </trkpt>
      <trkpt lat="44.79535" lon="6.92435">
        <ele>1600</ele>
        <time>2020-08-01T12:58:26Z</time>
      </trkpt>
      <trkpt lat="44.79533" lon="6.92439">
        <ele>1598</ele>
        <time>2020-08-01T12:58:28Z</time>
      </trkpt>
      <trkpt lat="44.79534" lon="6.92466">
        <ele>1594</ele>
        <time>2020-08-01T12:58:33Z</time>
      </trkpt>
      <trkpt lat="44.79535" lon="6.92482">
        <ele>1590</ele>
        <time>2020-08-01T12:58:37Z</time>
      </trkpt>
      <trkpt lat="44.79535" lon="6.92487">
        <ele>1589</ele>
        <time>2020-08-01T12:58:38Z</time>
      </trkpt>
      <trkpt lat="44.79534" lon="6.92508">
        <ele>1581</ele>
        <time>2020-08-01T12:58:42Z</time>
      </trkpt>
      <trkpt lat="44.79538" lon="6.92531">
        <ele>1577</ele>
        <time>2020-08-01T12:58:46Z</time>
      </trkpt>
      <trkpt lat="44.79546" lon="6.92545">
        <ele>1578</ele>
        <time>2020-08-01T12:58:48Z</time>
      </trkpt>
      <trkpt lat="44.79559" lon="6.92562">
        <ele>1581</ele>
        <time>2020-08-01T12:58:51Z</time>
      </trkpt>
      <trkpt lat="44.79566" lon="6.92593">
        <ele>1581</ele>
        <time>2020-08-01T12:58:56Z</time>
      </trkpt>
      <trkpt lat="44.79568" lon="6.92617">
        <ele>1579</ele>
        <time>2020-08-01T12:59:00Z</time>
      </trkpt>
      <trkpt lat="44.79565" lon="6.92622">
        <ele>1577</ele>
        <time>2020-08-01T12:59:03Z</time>
      </trkpt>
      <trkpt lat="44.79563" lon="6.9262">
        <ele>1576</ele>
        <time>2020-08-01T12:59:04Z</time>
      </trkpt>
      <trkpt lat="44.7956" lon="6.92618">
        <ele>1575</ele>
        <time>2020-08-01T12:59:05Z</time>
      </trkpt>
      <trkpt lat="44.79557" lon="6.92617">
        <ele>1574</ele>
        <time>2020-08-01T12:59:06Z</time>
      </trkpt>
      <trkpt lat="44.79554" lon="6.92616">
        <ele>1573</ele>
        <time>2020-08-01T12:59:07Z</time>
      </trkpt>
      <trkpt lat="44.79551" lon="6.92615">
        <ele>1572</ele>
        <time>2020-08-01T12:59:08Z</time>
      </trkpt>
      <trkpt lat="44.7955" lon="6.92613">
        <ele>1572</ele>
        <time>2020-08-01T12:59:09Z</time>
      </trkpt>
      <trkpt lat="44.79544" lon="6.92607">
        <ele>1570</ele>
        <time>2020-08-01T12:59:14Z</time>
      </trkpt>
      <trkpt lat="44.79543" lon="6.92606">
        <ele>1570</ele>
        <time>2020-08-01T12:59:15Z</time>
      </trkpt>
      <trkpt lat="44.79542" lon="6.92604">
        <ele>1570</ele>
        <time>2020-08-01T12:59:16Z</time>
      </trkpt>
      <trkpt lat="44.79541" lon="6.92602">
        <ele>1570</ele>
        <time>2020-08-01T12:59:17Z</time>
      </trkpt>
      <trkpt lat="44.7954" lon="6.926">
        <ele>1569</ele>
        <time>2020-08-01T12:59:18Z</time>
      </trkpt>
      <trkpt lat="44.79538" lon="6.926">
        <ele>1569</ele>
        <time>2020-08-01T12:59:19Z</time>
      </trkpt>
      <trkpt lat="44.79537" lon="6.92598">
        <ele>1568</ele>
        <time>2020-08-01T12:59:20Z</time>
      </trkpt>
      <trkpt lat="44.79535" lon="6.92597">
        <ele>1568</ele>
        <time>2020-08-01T12:59:21Z</time>
      </trkpt>
      <trkpt lat="44.79533" lon="6.92595">
        <ele>1567</ele>
        <time>2020-08-01T12:59:22Z</time>
      </trkpt>
      <trkpt lat="44.79532" lon="6.92594">
        <ele>1567</ele>
        <time>2020-08-01T12:59:23Z</time>
      </trkpt>
      <trkpt lat="44.7953" lon="6.92592">
        <ele>1566</ele>
        <time>2020-08-01T12:59:24Z</time>
      </trkpt>
      <trkpt lat="44.79528" lon="6.92592">
        <ele>1566</ele>
        <time>2020-08-01T12:59:25Z</time>
      </trkpt>
      <trkpt lat="44.79527" lon="6.92591">
        <ele>1565</ele>
        <time>2020-08-01T12:59:26Z</time>
      </trkpt>
      <trkpt lat="44.79525" lon="6.9259">
        <ele>1565</ele>
        <time>2020-08-01T12:59:27Z</time>
      </trkpt>
      <trkpt lat="44.79522" lon="6.92587">
        <ele>1565</ele>
        <time>2020-08-01T12:59:28Z</time>
      </trkpt>
      <trkpt lat="44.79511" lon="6.92576">
        <ele>1563</ele>
        <time>2020-08-01T12:59:31Z</time>
      </trkpt>
      <trkpt lat="44.79506" lon="6.92572">
        <ele>1562</ele>
        <time>2020-08-01T12:59:32Z</time>
      </trkpt>
      <trkpt lat="44.7949" lon="6.92555">
        <ele>1560</ele>
        <time>2020-08-01T12:59:35Z</time>
      </trkpt>
      <trkpt lat="44.79471" lon="6.92523">
        <ele>1560</ele>
        <time>2020-08-01T12:59:41Z</time>
      </trkpt>
      <trkpt lat="44.79463" lon="6.92507">
        <ele>1561</ele>
        <time>2020-08-01T12:59:44Z</time>
      </trkpt>
      <trkpt lat="44.79461" lon="6.92499">
        <ele>1561</ele>
        <time>2020-08-01T12:59:45Z</time>
      </trkpt>
      <trkpt lat="44.79459" lon="6.92491">
        <ele>1562</ele>
        <time>2020-08-01T12:59:46Z</time>
      </trkpt>
      <trkpt lat="44.79457" lon="6.92482">
        <ele>1562</ele>
        <time>2020-08-01T12:59:47Z</time>
      </trkpt>
      <trkpt lat="44.79452" lon="6.92467">
        <ele>1561</ele>
        <time>2020-08-01T12:59:49Z</time>
      </trkpt>
      <trkpt lat="44.79449" lon="6.92463">
        <ele>1559</ele>
        <time>2020-08-01T12:59:50Z</time>
      </trkpt>
      <trkpt lat="44.79445" lon="6.92463">
        <ele>1558</ele>
        <time>2020-08-01T12:59:51Z</time>
      </trkpt>
      <trkpt lat="44.79442" lon="6.92468">
        <ele>1557</ele>
        <time>2020-08-01T12:59:52Z</time>
      </trkpt>
      <trkpt lat="44.79443" lon="6.92475">
        <ele>1557</ele>
        <time>2020-08-01T12:59:53Z</time>
      </trkpt>
      <trkpt lat="44.79444" lon="6.92482">
        <ele>1558</ele>
        <time>2020-08-01T12:59:54Z</time>
      </trkpt>
      <trkpt lat="44.79444" lon="6.92489">
        <ele>1558</ele>
        <time>2020-08-01T12:59:55Z</time>
      </trkpt>
      <trkpt lat="44.79441" lon="6.92496">
        <ele>1558</ele>
        <time>2020-08-01T12:59:56Z</time>
      </trkpt>
      <trkpt lat="44.79436" lon="6.925">
        <ele>1556</ele>
        <time>2020-08-01T12:59:57Z</time>
      </trkpt>
      <trkpt lat="44.7943" lon="6.92504">
        <ele>1555</ele>
        <time>2020-08-01T12:59:58Z</time>
      </trkpt>
      <trkpt lat="44.79424" lon="6.92509">
        <ele>1554</ele>
        <time>2020-08-01T12:59:59Z</time>
      </trkpt>
      <trkpt lat="44.79419" lon="6.92513">
        <ele>1553</ele>
        <time>2020-08-01T13:00:00Z</time>
      </trkpt>
      <trkpt lat="44.79415" lon="6.92519">
        <ele>1553</ele>
        <time>2020-08-01T13:00:01Z</time>
      </trkpt>
      <trkpt lat="44.79413" lon="6.92526">
        <ele>1553</ele>
        <time>2020-08-01T13:00:02Z</time>
      </trkpt>
      <trkpt lat="44.79412" lon="6.92533">
        <ele>1552</ele>
        <time>2020-08-01T13:00:03Z</time>
      </trkpt>
      <trkpt lat="44.79409" lon="6.92546">
        <ele>1552</ele>
        <time>2020-08-01T13:00:06Z</time>
      </trkpt>
      <trkpt lat="44.7941" lon="6.92551">
        <ele>1552</ele>
        <time>2020-08-01T13:00:07Z</time>
      </trkpt>
      <trkpt lat="44.79412" lon="6.92559">
        <ele>1553</ele>
        <time>2020-08-01T13:00:09Z</time>
      </trkpt>
      <trkpt lat="44.79431" lon="6.92617">
        <ele>1552</ele>
        <time>2020-08-01T13:00:24Z</time>
      </trkpt>
      <trkpt lat="44.7942" lon="6.92656">
        <ele>1552</ele>
        <time>2020-08-01T13:00:36Z</time>
      </trkpt>
      <trkpt lat="44.79403" lon="6.92708">
        <ele>1555</ele>
        <time>2020-08-01T13:00:49Z</time>
      </trkpt>
      <trkpt lat="44.79395" lon="6.92742">
        <ele>1556</ele>
        <time>2020-08-01T13:01:01Z</time>
      </trkpt>
      <trkpt lat="44.79384" lon="6.92771">
        <ele>1555</ele>
        <time>2020-08-01T13:01:14Z</time>
      </trkpt>
      <trkpt lat="44.79384" lon="6.92771">
        <ele>1555</ele>
        <time>2020-08-01T13:01:18Z</time>
      </trkpt>
      <trkpt lat="44.79393" lon="6.92771">
        <ele>1555</ele>
        <time>2020-08-01T13:16:37Z</time>
      </trkpt>
      <trkpt lat="44.7939" lon="6.9277">
        <ele>1555</ele>
        <time>2020-08-01T13:16:43Z</time>
      </trkpt>
      <trkpt lat="44.7939" lon="6.92776">
        <ele>1555</ele>
        <time>2020-08-01T13:16:59Z</time>
      </trkpt>
      <trkpt lat="44.79389" lon="6.92779">
        <ele>1555</ele>
        <time>2020-08-01T13:17:00Z</time>
      </trkpt>
      <trkpt lat="44.79389" lon="6.92781">
        <ele>1555</ele>
        <time>2020-08-01T13:17:01Z</time>
      </trkpt>
      <trkpt lat="44.79388" lon="6.92783">
        <ele>1555</ele>
        <time>2020-08-01T13:17:02Z</time>
      </trkpt>
      <trkpt lat="44.79378" lon="6.928">
        <ele>1555</ele>
        <time>2020-08-01T13:17:15Z</time>
      </trkpt>
      <trkpt lat="44.79374" lon="6.92812">
        <ele>1555</ele>
        <time>2020-08-01T13:17:23Z</time>
      </trkpt>
      <trkpt lat="44.79375" lon="6.92815">
        <ele>1555</ele>
        <time>2020-08-01T13:17:24Z</time>
      </trkpt>
      <trkpt lat="44.79378" lon="6.92825">
        <ele>1556</ele>
        <time>2020-08-01T13:17:33Z</time>
      </trkpt>
      <trkpt lat="44.79378" lon="6.92819">
        <ele>1555</ele>
        <time>2020-08-01T13:19:39Z</time>
      </trkpt>
      <trkpt lat="44.79377" lon="6.92809">
        <ele>1555</ele>
        <time>2020-08-01T13:19:44Z</time>
      </trkpt>
      <trkpt lat="44.79378" lon="6.92807">
        <ele>1555</ele>
        <time>2020-08-01T13:19:45Z</time>
      </trkpt>
      <trkpt lat="44.79378" lon="6.92805">
        <ele>1555</ele>
        <time>2020-08-01T13:19:46Z</time>
      </trkpt>
      <trkpt lat="44.79379" lon="6.92803">
        <ele>1555</ele>
        <time>2020-08-01T13:19:47Z</time>
      </trkpt>
      <trkpt lat="44.7938" lon="6.928">
        <ele>1555</ele>
        <time>2020-08-01T13:19:48Z</time>
      </trkpt>
      <trkpt lat="44.7938" lon="6.92798">
        <ele>1555</ele>
        <time>2020-08-01T13:19:49Z</time>
      </trkpt>
      <trkpt lat="44.79392" lon="6.92756">
        <ele>1555</ele>
        <time>2020-08-01T13:20:03Z</time>
      </trkpt>
      <trkpt lat="44.79408" lon="6.92703">
        <ele>1555</ele>
        <time>2020-08-01T13:20:17Z</time>
      </trkpt>
      <trkpt lat="44.79422" lon="6.92668">
        <ele>1553</ele>
        <time>2020-08-01T13:20:25Z</time>
      </trkpt>
      <trkpt lat="44.79425" lon="6.92669">
        <ele>1553</ele>
        <time>2020-08-01T13:20:26Z</time>
      </trkpt>
      <trkpt lat="44.79428" lon="6.92672">
        <ele>1553</ele>
        <time>2020-08-01T13:20:27Z</time>
      </trkpt>
      <trkpt lat="44.79463" lon="6.92706">
        <ele>1555</ele>
        <time>2020-08-01T13:20:39Z</time>
      </trkpt>
      <trkpt lat="44.79494" lon="6.92736">
        <ele>1555</ele>
        <time>2020-08-01T13:20:51Z</time>
      </trkpt>
      <trkpt lat="44.79534" lon="6.92778">
        <ele>1555</ele>
        <time>2020-08-01T13:21:07Z</time>
      </trkpt>
      <trkpt lat="44.79588" lon="6.9283">
        <ele>1563</ele>
        <time>2020-08-01T13:21:28Z</time>
      </trkpt>
      <trkpt lat="44.79634" lon="6.92859">
        <ele>1570</ele>
        <time>2020-08-01T13:21:44Z</time>
      </trkpt>
      <trkpt lat="44.79681" lon="6.92866">
        <ele>1574</ele>
        <time>2020-08-01T13:22:00Z</time>
      </trkpt>
      <trkpt lat="44.79725" lon="6.92853">
        <ele>1577</ele>
        <time>2020-08-01T13:22:15Z</time>
      </trkpt>
      <trkpt lat="44.79758" lon="6.92862">
        <ele>1570</ele>
        <time>2020-08-01T13:22:27Z</time>
      </trkpt>
      <trkpt lat="44.79785" lon="6.92913">
        <ele>1572</ele>
        <time>2020-08-01T13:22:42Z</time>
      </trkpt>
      <trkpt lat="44.79828" lon="6.92928">
        <ele>1580</ele>
        <time>2020-08-01T13:22:57Z</time>
      </trkpt>
      <trkpt lat="44.79868" lon="6.92932">
        <ele>1580</ele>
        <time>2020-08-01T13:23:10Z</time>
      </trkpt>
      <trkpt lat="44.79916" lon="6.92922">
        <ele>1588</ele>
        <time>2020-08-01T13:23:27Z</time>
      </trkpt>
      <trkpt lat="44.79944" lon="6.92913">
        <ele>1589</ele>
        <time>2020-08-01T13:23:37Z</time>
      </trkpt>
      <trkpt lat="44.79998" lon="6.92907">
        <ele>1584</ele>
        <time>2020-08-01T13:23:54Z</time>
      </trkpt>
      <trkpt lat="44.80077" lon="6.929">
        <ele>1587</ele>
        <time>2020-08-01T13:24:20Z</time>
      </trkpt>
      <trkpt lat="44.80138" lon="6.9289">
        <ele>1589</ele>
        <time>2020-08-01T13:24:40Z</time>
      </trkpt>
      <trkpt lat="44.80185" lon="6.92882">
        <ele>1593</ele>
        <time>2020-08-01T13:24:56Z</time>
      </trkpt>
      <trkpt lat="44.80223" lon="6.92892">
        <ele>1593</ele>
        <time>2020-08-01T13:25:09Z</time>
      </trkpt>
      <trkpt lat="44.80284" lon="6.92922">
        <ele>1592</ele>
        <time>2020-08-01T13:25:30Z</time>
      </trkpt>
      <trkpt lat="44.80322" lon="6.92923">
        <ele>1600</ele>
        <time>2020-08-01T13:25:43Z</time>
      </trkpt>
      <trkpt lat="44.80378" lon="6.92919">
        <ele>1606</ele>
        <time>2020-08-01T13:26:02Z</time>
      </trkpt>
      <trkpt lat="44.80441" lon="6.92935">
        <ele>1608</ele>
        <time>2020-08-01T13:26:22Z</time>
      </trkpt>
      <trkpt lat="44.80494" lon="6.92936">
        <ele>1607</ele>
        <time>2020-08-01T13:26:40Z</time>
      </trkpt>
      <trkpt lat="44.80544" lon="6.92945">
        <ele>1607</ele>
        <time>2020-08-01T13:26:57Z</time>
      </trkpt>
      <trkpt lat="44.80618" lon="6.92991">
        <ele>1607</ele>
        <time>2020-08-01T13:27:22Z</time>
      </trkpt>
      <trkpt lat="44.80672" lon="6.93022">
        <ele>1608</ele>
        <time>2020-08-01T13:27:40Z</time>
      </trkpt>
      <trkpt lat="44.80747" lon="6.93057">
        <ele>1610</ele>
        <time>2020-08-01T13:28:04Z</time>
      </trkpt>
      <trkpt lat="44.80817" lon="6.93123">
        <ele>1615</ele>
        <time>2020-08-01T13:28:28Z</time>
      </trkpt>
      <trkpt lat="44.80872" lon="6.9317">
        <ele>1618</ele>
        <time>2020-08-01T13:28:46Z</time>
      </trkpt>
      <trkpt lat="44.80939" lon="6.93198">
        <ele>1627</ele>
        <time>2020-08-01T13:29:05Z</time>
      </trkpt>
      <trkpt lat="44.81016" lon="6.9324">
        <ele>1633</ele>
        <time>2020-08-01T13:29:28Z</time>
      </trkpt>
      <trkpt lat="44.81086" lon="6.93298">
        <ele>1632</ele>
        <time>2020-08-01T13:29:50Z</time>
      </trkpt>
      <trkpt lat="44.81142" lon="6.93342">
        <ele>1631</ele>
        <time>2020-08-01T13:30:08Z</time>
      </trkpt>
      <trkpt lat="44.81201" lon="6.93383">
        <ele>1631</ele>
        <time>2020-08-01T13:30:27Z</time>
      </trkpt>
      <trkpt lat="44.81274" lon="6.93441">
        <ele>1632</ele>
        <time>2020-08-01T13:30:51Z</time>
      </trkpt>
      <trkpt lat="44.81345" lon="6.93512">
        <ele>1642</ele>
        <time>2020-08-01T13:31:16Z</time>
      </trkpt>
      <trkpt lat="44.81389" lon="6.93565">
        <ele>1642</ele>
        <time>2020-08-01T13:31:33Z</time>
      </trkpt>
      <trkpt lat="44.81428" lon="6.93614">
        <ele>1642</ele>
        <time>2020-08-01T13:31:51Z</time>
      </trkpt>
      <trkpt lat="44.81429" lon="6.93615">
        <ele>1642</ele>
        <time>2020-08-01T13:31:56Z</time>
      </trkpt>
      <trkpt lat="44.81429" lon="6.93622">
        <ele>1642</ele>
        <time>2020-08-01T13:33:49Z</time>
      </trkpt>
      <trkpt lat="44.81458" lon="6.93657">
        <ele>1643</ele>
        <time>2020-08-01T13:34:04Z</time>
      </trkpt>
      <trkpt lat="44.81494" lon="6.93679">
        <ele>1645</ele>
        <time>2020-08-01T13:34:17Z</time>
      </trkpt>
      <trkpt lat="44.81524" lon="6.93691">
        <ele>1646</ele>
        <time>2020-08-01T13:34:28Z</time>
      </trkpt>
      <trkpt lat="44.81527" lon="6.93693">
        <ele>1646</ele>
        <time>2020-08-01T13:34:29Z</time>
      </trkpt>
      <trkpt lat="44.81569" lon="6.9375">
        <ele>1651</ele>
        <time>2020-08-01T13:34:49Z</time>
      </trkpt>
      <trkpt lat="44.81565" lon="6.93805">
        <ele>1649</ele>
        <time>2020-08-01T13:35:03Z</time>
      </trkpt>
      <trkpt lat="44.8157" lon="6.9386">
        <ele>1652</ele>
        <time>2020-08-01T13:35:17Z</time>
      </trkpt>
      <trkpt lat="44.81605" lon="6.9392">
        <ele>1660</ele>
        <time>2020-08-01T13:35:35Z</time>
      </trkpt>
      <trkpt lat="44.81635" lon="6.93993">
        <ele>1662</ele>
        <time>2020-08-01T13:35:56Z</time>
      </trkpt>
      <trkpt lat="44.81645" lon="6.9406">
        <ele>1665</ele>
        <time>2020-08-01T13:36:14Z</time>
      </trkpt>
      <trkpt lat="44.81648" lon="6.9411">
        <ele>1668</ele>
        <time>2020-08-01T13:36:28Z</time>
      </trkpt>
      <trkpt lat="44.81662" lon="6.94169">
        <ele>1668</ele>
        <time>2020-08-01T13:36:46Z</time>
      </trkpt>
      <trkpt lat="44.81684" lon="6.9423">
        <ele>1670</ele>
        <time>2020-08-01T13:37:06Z</time>
      </trkpt>
      <trkpt lat="44.81684" lon="6.94282">
        <ele>1675</ele>
        <time>2020-08-01T13:37:24Z</time>
      </trkpt>
      <trkpt lat="44.81674" lon="6.94332">
        <ele>1683</ele>
        <time>2020-08-01T13:37:40Z</time>
      </trkpt>
      <trkpt lat="44.81678" lon="6.94351">
        <ele>1688</ele>
        <time>2020-08-01T13:37:47Z</time>
      </trkpt>
      <trkpt lat="44.8168" lon="6.94352">
        <ele>1688</ele>
        <time>2020-08-01T13:37:48Z</time>
      </trkpt>
      <trkpt lat="44.81682" lon="6.94353">
        <ele>1689</ele>
        <time>2020-08-01T13:37:49Z</time>
      </trkpt>
      <trkpt lat="44.81689" lon="6.94354">
        <ele>1690</ele>
        <time>2020-08-01T13:37:53Z</time>
      </trkpt>
      <trkpt lat="44.81691" lon="6.94353">
        <ele>1690</ele>
        <time>2020-08-01T13:37:54Z</time>
      </trkpt>
      <trkpt lat="44.81693" lon="6.94351">
        <ele>1689</ele>
        <time>2020-08-01T13:37:55Z</time>
      </trkpt>
      <trkpt lat="44.81694" lon="6.94349">
        <ele>1689</ele>
        <time>2020-08-01T13:37:56Z</time>
      </trkpt>
      <trkpt lat="44.81695" lon="6.94346">
        <ele>1689</ele>
        <time>2020-08-01T13:37:57Z</time>
      </trkpt>
      <trkpt lat="44.81697" lon="6.94344">
        <ele>1689</ele>
        <time>2020-08-01T13:37:58Z</time>
      </trkpt>
      <trkpt lat="44.81698" lon="6.94343">
        <ele>1689</ele>
        <time>2020-08-01T13:37:59Z</time>
      </trkpt>
      <trkpt lat="44.817" lon="6.94341">
        <ele>1689</ele>
        <time>2020-08-01T13:38:00Z</time>
      </trkpt>
      <trkpt lat="44.81702" lon="6.9434">
        <ele>1689</ele>
        <time>2020-08-01T13:38:01Z</time>
      </trkpt>
      <trkpt lat="44.81704" lon="6.94338">
        <ele>1689</ele>
        <time>2020-08-01T13:38:02Z</time>
      </trkpt>
      <trkpt lat="44.81705" lon="6.94336">
        <ele>1689</ele>
        <time>2020-08-01T13:38:03Z</time>
      </trkpt>
      <trkpt lat="44.81707" lon="6.94334">
        <ele>1688</ele>
        <time>2020-08-01T13:38:04Z</time>
      </trkpt>
      <trkpt lat="44.81744" lon="6.943">
        <ele>1687</ele>
        <time>2020-08-01T13:38:25Z</time>
      </trkpt>
      <trkpt lat="44.81781" lon="6.9427">
        <ele>1685</ele>
        <time>2020-08-01T13:38:46Z</time>
      </trkpt>
      <trkpt lat="44.8181" lon="6.94258">
        <ele>1688</ele>
        <time>2020-08-01T13:39:01Z</time>
      </trkpt>
      <trkpt lat="44.81849" lon="6.94262">
        <ele>1699</ele>
        <time>2020-08-01T13:39:19Z</time>
      </trkpt>
      <trkpt lat="44.8185" lon="6.94265">
        <ele>1700</ele>
        <time>2020-08-01T13:39:20Z</time>
      </trkpt>
      <trkpt lat="44.8185" lon="6.94268">
        <ele>1701</ele>
        <time>2020-08-01T13:39:21Z</time>
      </trkpt>
      <trkpt lat="44.81849" lon="6.94271">
        <ele>1702</ele>
        <time>2020-08-01T13:39:22Z</time>
      </trkpt>
      <trkpt lat="44.81847" lon="6.94273">
        <ele>1702</ele>
        <time>2020-08-01T13:39:23Z</time>
      </trkpt>
      <trkpt lat="44.81845" lon="6.94275">
        <ele>1702</ele>
        <time>2020-08-01T13:39:24Z</time>
      </trkpt>
      <trkpt lat="44.81843" lon="6.94275">
        <ele>1702</ele>
        <time>2020-08-01T13:39:25Z</time>
      </trkpt>
      <trkpt lat="44.81841" lon="6.94275">
        <ele>1701</ele>
        <time>2020-08-01T13:39:26Z</time>
      </trkpt>
      <trkpt lat="44.81839" lon="6.94275">
        <ele>1701</ele>
        <time>2020-08-01T13:39:27Z</time>
      </trkpt>
      <trkpt lat="44.81836" lon="6.94274">
        <ele>1700</ele>
        <time>2020-08-01T13:39:28Z</time>
      </trkpt>
      <trkpt lat="44.81804" lon="6.94284">
        <ele>1692</ele>
        <time>2020-08-01T13:39:43Z</time>
      </trkpt>
      <trkpt lat="44.81777" lon="6.94329">
        <ele>1698</ele>
        <time>2020-08-01T13:40:03Z</time>
      </trkpt>
      <trkpt lat="44.81764" lon="6.94366">
        <ele>1707</ele>
        <time>2020-08-01T13:40:17Z</time>
      </trkpt>
      <trkpt lat="44.81752" lon="6.9442">
        <ele>1713</ele>
        <time>2020-08-01T13:40:37Z</time>
      </trkpt>
      <trkpt lat="44.81772" lon="6.9441">
        <ele>1721</ele>
        <time>2020-08-01T13:40:48Z</time>
      </trkpt>
      <trkpt lat="44.818" lon="6.94354">
        <ele>1721</ele>
        <time>2020-08-01T13:41:11Z</time>
      </trkpt>
      <trkpt lat="44.81826" lon="6.94344">
        <ele>1724</ele>
        <time>2020-08-01T13:41:24Z</time>
      </trkpt>
      <trkpt lat="44.81867" lon="6.94342">
        <ele>1728</ele>
        <time>2020-08-01T13:41:44Z</time>
      </trkpt>
      <trkpt lat="44.81905" lon="6.94311">
        <ele>1725</ele>
        <time>2020-08-01T13:42:04Z</time>
      </trkpt>
      <trkpt lat="44.81912" lon="6.94312">
        <ele>1726</ele>
        <time>2020-08-01T13:42:07Z</time>
      </trkpt>
      <trkpt lat="44.81914" lon="6.94314">
        <ele>1727</ele>
        <time>2020-08-01T13:42:08Z</time>
      </trkpt>
      <trkpt lat="44.81914" lon="6.94317">
        <ele>1729</ele>
        <time>2020-08-01T13:42:09Z</time>
      </trkpt>
      <trkpt lat="44.81914" lon="6.9432">
        <ele>1730</ele>
        <time>2020-08-01T13:42:10Z</time>
      </trkpt>
      <trkpt lat="44.81913" lon="6.94323">
        <ele>1730</ele>
        <time>2020-08-01T13:42:11Z</time>
      </trkpt>
      <trkpt lat="44.81912" lon="6.94325">
        <ele>1731</ele>
        <time>2020-08-01T13:42:12Z</time>
      </trkpt>
      <trkpt lat="44.8191" lon="6.94327">
        <ele>1731</ele>
        <time>2020-08-01T13:42:13Z</time>
      </trkpt>
      <trkpt lat="44.81888" lon="6.94354">
        <ele>1737</ele>
        <time>2020-08-01T13:42:27Z</time>
      </trkpt>
      <trkpt lat="44.81855" lon="6.94389">
        <ele>1743</ele>
        <time>2020-08-01T13:42:46Z</time>
      </trkpt>
      <trkpt lat="44.81829" lon="6.94407">
        <ele>1740</ele>
        <time>2020-08-01T13:43:00Z</time>
      </trkpt>
      <trkpt lat="44.81819" lon="6.94441">
        <ele>1742</ele>
        <time>2020-08-01T13:43:14Z</time>
      </trkpt>
      <trkpt lat="44.81819" lon="6.94443">
        <ele>1742</ele>
        <time>2020-08-01T13:43:15Z</time>
      </trkpt>
      <trkpt lat="44.81821" lon="6.94446">
        <ele>1742</ele>
        <time>2020-08-01T13:43:18Z</time>
      </trkpt>
      <trkpt lat="44.8182" lon="6.94448">
        <ele>1742</ele>
        <time>2020-08-01T13:43:19Z</time>
      </trkpt>
      <trkpt lat="44.81819" lon="6.9445">
        <ele>1742</ele>
        <time>2020-08-01T13:43:20Z</time>
      </trkpt>
      <trkpt lat="44.81817" lon="6.94452">
        <ele>1742</ele>
        <time>2020-08-01T13:43:21Z</time>
      </trkpt>
      <trkpt lat="44.81816" lon="6.94454">
        <ele>1742</ele>
        <time>2020-08-01T13:43:22Z</time>
      </trkpt>
      <trkpt lat="44.81788" lon="6.9448">
        <ele>1742</ele>
        <time>2020-08-01T13:43:38Z</time>
      </trkpt>
      <trkpt lat="44.81788" lon="6.94482">
        <ele>1742</ele>
        <time>2020-08-01T13:43:39Z</time>
      </trkpt>
      <trkpt lat="44.81787" lon="6.94485">
        <ele>1743</ele>
        <time>2020-08-01T13:43:40Z</time>
      </trkpt>
      <trkpt lat="44.81788" lon="6.94488">
        <ele>1744</ele>
        <time>2020-08-01T13:43:41Z</time>
      </trkpt>
      <trkpt lat="44.81789" lon="6.9449">
        <ele>1744</ele>
        <time>2020-08-01T13:43:42Z</time>
      </trkpt>
      <trkpt lat="44.8179" lon="6.94492">
        <ele>1745</ele>
        <time>2020-08-01T13:43:43Z</time>
      </trkpt>
      <trkpt lat="44.81792" lon="6.94492">
        <ele>1745</ele>
        <time>2020-08-01T13:43:44Z</time>
      </trkpt>
      <trkpt lat="44.81794" lon="6.94492">
        <ele>1746</ele>
        <time>2020-08-01T13:43:45Z</time>
      </trkpt>
      <trkpt lat="44.81796" lon="6.94491">
        <ele>1746</ele>
        <time>2020-08-01T13:43:46Z</time>
      </trkpt>
      <trkpt lat="44.81797" lon="6.9449">
        <ele>1746</ele>
        <time>2020-08-01T13:43:47Z</time>
      </trkpt>
      <trkpt lat="44.81799" lon="6.94489">
        <ele>1746</ele>
        <time>2020-08-01T13:43:48Z</time>
      </trkpt>
      <trkpt lat="44.818" lon="6.94487">
        <ele>1746</ele>
        <time>2020-08-01T13:43:49Z</time>
      </trkpt>
      <trkpt lat="44.81802" lon="6.94486">
        <ele>1746</ele>
        <time>2020-08-01T13:43:50Z</time>
      </trkpt>
      <trkpt lat="44.81804" lon="6.94485">
        <ele>1746</ele>
        <time>2020-08-01T13:43:51Z</time>
      </trkpt>
      <trkpt lat="44.81829" lon="6.94473">
        <ele>1746</ele>
        <time>2020-08-01T13:44:06Z</time>
      </trkpt>
      <trkpt lat="44.81849" lon="6.94471">
        <ele>1751</ele>
        <time>2020-08-01T13:44:17Z</time>
      </trkpt>
      <trkpt lat="44.81883" lon="6.94452">
        <ele>1756</ele>
        <time>2020-08-01T13:44:36Z</time>
      </trkpt>
      <trkpt lat="44.81915" lon="6.94432">
        <ele>1756</ele>
        <time>2020-08-01T13:44:53Z</time>
      </trkpt>
      <trkpt lat="44.81947" lon="6.94416">
        <ele>1759</ele>
        <time>2020-08-01T13:45:11Z</time>
      </trkpt>
      <trkpt lat="44.8195" lon="6.94415">
        <ele>1759</ele>
        <time>2020-08-01T13:45:12Z</time>
      </trkpt>
      <trkpt lat="44.81952" lon="6.94416">
        <ele>1759</ele>
        <time>2020-08-01T13:45:13Z</time>
      </trkpt>
      <trkpt lat="44.81953" lon="6.94418">
        <ele>1760</ele>
        <time>2020-08-01T13:45:14Z</time>
      </trkpt>
      <trkpt lat="44.81953" lon="6.94421">
        <ele>1760</ele>
        <time>2020-08-01T13:45:15Z</time>
      </trkpt>
      <trkpt lat="44.81951" lon="6.94422">
        <ele>1760</ele>
        <time>2020-08-01T13:45:16Z</time>
      </trkpt>
      <trkpt lat="44.81949" lon="6.94424">
        <ele>1760</ele>
        <time>2020-08-01T13:45:17Z</time>
      </trkpt>
      <trkpt lat="44.81947" lon="6.94425">
        <ele>1760</ele>
        <time>2020-08-01T13:45:18Z</time>
      </trkpt>
      <trkpt lat="44.81945" lon="6.94425">
        <ele>1760</ele>
        <time>2020-08-01T13:45:19Z</time>
      </trkpt>
      <trkpt lat="44.81914" lon="6.9445">
        <ele>1758</ele>
        <time>2020-08-01T13:45:37Z</time>
      </trkpt>
      <trkpt lat="44.819" lon="6.94462">
        <ele>1759</ele>
        <time>2020-08-01T13:45:45Z</time>
      </trkpt>
      <trkpt lat="44.819" lon="6.94465">
        <ele>1760</ele>
        <time>2020-08-01T13:45:46Z</time>
      </trkpt>
      <trkpt lat="44.819" lon="6.94468">
        <ele>1760</ele>
        <time>2020-08-01T13:45:47Z</time>
      </trkpt>
      <trkpt lat="44.81901" lon="6.9447">
        <ele>1760</ele>
        <time>2020-08-01T13:45:48Z</time>
      </trkpt>
      <trkpt lat="44.81901" lon="6.94472">
        <ele>1761</ele>
        <time>2020-08-01T13:45:49Z</time>
      </trkpt>
      <trkpt lat="44.81902" lon="6.94474">
        <ele>1761</ele>
        <time>2020-08-01T13:45:50Z</time>
      </trkpt>
      <trkpt lat="44.81903" lon="6.94475">
        <ele>1762</ele>
        <time>2020-08-01T13:45:51Z</time>
      </trkpt>
      <trkpt lat="44.81904" lon="6.94477">
        <ele>1763</ele>
        <time>2020-08-01T13:45:52Z</time>
      </trkpt>
      <trkpt lat="44.81905" lon="6.94479">
        <ele>1764</ele>
        <time>2020-08-01T13:45:53Z</time>
      </trkpt>
      <trkpt lat="44.81906" lon="6.94482">
        <ele>1765</ele>
        <time>2020-08-01T13:45:58Z</time>
      </trkpt>
      <trkpt lat="44.81904" lon="6.94462">
        <ele>1760</ele>
        <time>2020-08-01T13:46:35Z</time>
      </trkpt>
      <trkpt lat="44.81904" lon="6.94461">
        <ele>1759</ele>
        <time>2020-08-01T13:46:36Z</time>
      </trkpt>
      <trkpt lat="44.81897" lon="6.94459">
        <ele>1759</ele>
        <time>2020-08-02T05:57:42Z</time>
      </trkpt>
      <trkpt lat="44.81897" lon="6.9446">
        <ele>1759</ele>
        <time>2020-08-02T05:58:12Z</time>
      </trkpt>
      <trkpt lat="44.81891" lon="6.94453">
        <ele>1758</ele>
        <time>2020-08-02T05:58:59Z</time>
      </trkpt>
      <trkpt lat="44.81895" lon="6.94439">
        <ele>1756</ele>
        <time>2020-08-02T05:59:02Z</time>
      </trkpt>
      <trkpt lat="44.81901" lon="6.94434">
        <ele>1756</ele>
        <time>2020-08-02T05:59:03Z</time>
      </trkpt>
      <trkpt lat="44.81907" lon="6.9443">
        <ele>1755</ele>
        <time>2020-08-02T05:59:04Z</time>
      </trkpt>
      <trkpt lat="44.81942" lon="6.94404">
        <ele>1755</ele>
        <time>2020-08-02T05:59:11Z</time>
      </trkpt>
      <trkpt lat="44.81943" lon="6.94401">
        <ele>1755</ele>
        <time>2020-08-02T05:59:12Z</time>
      </trkpt>
      <trkpt lat="44.81896" lon="6.94425">
        <ele>1754</ele>
        <time>2020-08-02T05:59:22Z</time>
      </trkpt>
      <trkpt lat="44.81843" lon="6.94458">
        <ele>1748</ele>
        <time>2020-08-02T05:59:29Z</time>
      </trkpt>
      <trkpt lat="44.81834" lon="6.9446">
        <ele>1746</ele>
        <time>2020-08-02T05:59:30Z</time>
      </trkpt>
      <trkpt lat="44.81814" lon="6.94463">
        <ele>1743</ele>
        <time>2020-08-02T05:59:32Z</time>
      </trkpt>
      <trkpt lat="44.81803" lon="6.94466">
        <ele>1742</ele>
        <time>2020-08-02T05:59:33Z</time>
      </trkpt>
      <trkpt lat="44.81794" lon="6.94471">
        <ele>1741</ele>
        <time>2020-08-02T05:59:34Z</time>
      </trkpt>
      <trkpt lat="44.81781" lon="6.94479">
        <ele>1740</ele>
        <time>2020-08-02T05:59:36Z</time>
      </trkpt>
      <trkpt lat="44.81776" lon="6.94478">
        <ele>1739</ele>
        <time>2020-08-02T05:59:37Z</time>
      </trkpt>
      <trkpt lat="44.81772" lon="6.94475">
        <ele>1737</ele>
        <time>2020-08-02T05:59:38Z</time>
      </trkpt>
      <trkpt lat="44.81758" lon="6.94484">
        <ele>1734</ele>
        <time>2020-08-02T05:59:42Z</time>
      </trkpt>
      <trkpt lat="44.81755" lon="6.94489">
        <ele>1734</ele>
        <time>2020-08-02T05:59:43Z</time>
      </trkpt>
      <trkpt lat="44.81753" lon="6.94495">
        <ele>1735</ele>
        <time>2020-08-02T05:59:44Z</time>
      </trkpt>
      <trkpt lat="44.81749" lon="6.94508">
        <ele>1736</ele>
        <time>2020-08-02T05:59:46Z</time>
      </trkpt>
      <trkpt lat="44.81741" lon="6.94525">
        <ele>1737</ele>
        <time>2020-08-02T05:59:49Z</time>
      </trkpt>
      <trkpt lat="44.81734" lon="6.94537">
        <ele>1737</ele>
        <time>2020-08-02T05:59:51Z</time>
      </trkpt>
      <trkpt lat="44.8173" lon="6.94541">
        <ele>1736</ele>
        <time>2020-08-02T05:59:52Z</time>
      </trkpt>
      <trkpt lat="44.81725" lon="6.94545">
        <ele>1735</ele>
        <time>2020-08-02T05:59:53Z</time>
      </trkpt>
      <trkpt lat="44.81721" lon="6.94548">
        <ele>1735</ele>
        <time>2020-08-02T05:59:54Z</time>
      </trkpt>
      <trkpt lat="44.81715" lon="6.94549">
        <ele>1733</ele>
        <time>2020-08-02T05:59:55Z</time>
      </trkpt>
      <trkpt lat="44.8171" lon="6.94549">
        <ele>1732</ele>
        <time>2020-08-02T05:59:56Z</time>
      </trkpt>
      <trkpt lat="44.81705" lon="6.94548">
        <ele>1730</ele>
        <time>2020-08-02T05:59:57Z</time>
      </trkpt>
      <trkpt lat="44.81699" lon="6.94547">
        <ele>1728</ele>
        <time>2020-08-02T05:59:58Z</time>
      </trkpt>
      <trkpt lat="44.81694" lon="6.94548">
        <ele>1727</ele>
        <time>2020-08-02T05:59:59Z</time>
      </trkpt>
      <trkpt lat="44.8169" lon="6.94551">
        <ele>1726</ele>
        <time>2020-08-02T06:00:00Z</time>
      </trkpt>
      <trkpt lat="44.81685" lon="6.94555">
        <ele>1725</ele>
        <time>2020-08-02T06:00:01Z</time>
      </trkpt>
      <trkpt lat="44.8168" lon="6.94559">
        <ele>1724</ele>
        <time>2020-08-02T06:00:02Z</time>
      </trkpt>
      <trkpt lat="44.81675" lon="6.94564">
        <ele>1723</ele>
        <time>2020-08-02T06:00:03Z</time>
      </trkpt>
      <trkpt lat="44.8167" lon="6.94568">
        <ele>1723</ele>
        <time>2020-08-02T06:00:04Z</time>
      </trkpt>
      <trkpt lat="44.81666" lon="6.94573">
        <ele>1722</ele>
        <time>2020-08-02T06:00:05Z</time>
      </trkpt>
      <trkpt lat="44.81663" lon="6.94577">
        <ele>1723</ele>
        <time>2020-08-02T06:00:06Z</time>
      </trkpt>
      <trkpt lat="44.81661" lon="6.94582">
        <ele>1724</ele>
        <time>2020-08-02T06:00:07Z</time>
      </trkpt>
      <trkpt lat="44.81659" lon="6.94586">
        <ele>1725</ele>
        <time>2020-08-02T06:00:08Z</time>
      </trkpt>
      <trkpt lat="44.81656" lon="6.9459">
        <ele>1725</ele>
        <time>2020-08-02T06:00:09Z</time>
      </trkpt>
      <trkpt lat="44.81653" lon="6.94592">
        <ele>1725</ele>
        <time>2020-08-02T06:00:10Z</time>
      </trkpt>
      <trkpt lat="44.81649" lon="6.94595">
        <ele>1725</ele>
        <time>2020-08-02T06:00:11Z</time>
      </trkpt>
      <trkpt lat="44.81645" lon="6.946">
        <ele>1725</ele>
        <time>2020-08-02T06:00:12Z</time>
      </trkpt>
      <trkpt lat="44.81642" lon="6.94605">
        <ele>1725</ele>
        <time>2020-08-02T06:00:13Z</time>
      </trkpt>
      <trkpt lat="44.81642" lon="6.94608">
        <ele>1726</ele>
        <time>2020-08-02T06:00:18Z</time>
      </trkpt>
      <trkpt lat="44.81627" lon="6.94628">
        <ele>1726</ele>
        <time>2020-08-02T06:00:41Z</time>
      </trkpt>
      <trkpt lat="44.81613" lon="6.94633">
        <ele>1725</ele>
        <time>2020-08-02T06:00:45Z</time>
      </trkpt>
      <trkpt lat="44.81609" lon="6.94636">
        <ele>1725</ele>
        <time>2020-08-02T06:00:46Z</time>
      </trkpt>
      <trkpt lat="44.81605" lon="6.9464">
        <ele>1726</ele>
        <time>2020-08-02T06:00:47Z</time>
      </trkpt>
      <trkpt lat="44.81597" lon="6.9465">
        <ele>1729</ele>
        <time>2020-08-02T06:00:49Z</time>
      </trkpt>
      <trkpt lat="44.81593" lon="6.94657">
        <ele>1730</ele>
        <time>2020-08-02T06:00:50Z</time>
      </trkpt>
      <trkpt lat="44.8159" lon="6.94665">
        <ele>1730</ele>
        <time>2020-08-02T06:00:51Z</time>
      </trkpt>
      <trkpt lat="44.81588" lon="6.94673">
        <ele>1731</ele>
        <time>2020-08-02T06:00:52Z</time>
      </trkpt>
      <trkpt lat="44.81587" lon="6.9468">
        <ele>1731</ele>
        <time>2020-08-02T06:00:53Z</time>
      </trkpt>
      <trkpt lat="44.81586" lon="6.94686">
        <ele>1732</ele>
        <time>2020-08-02T06:00:54Z</time>
      </trkpt>
      <trkpt lat="44.81586" lon="6.94688">
        <ele>1732</ele>
        <time>2020-08-02T06:00:55Z</time>
      </trkpt>
      <trkpt lat="44.81585" lon="6.9469">
        <ele>1732</ele>
        <time>2020-08-02T06:00:56Z</time>
      </trkpt>
      <trkpt lat="44.81584" lon="6.94692">
        <ele>1731</ele>
        <time>2020-08-02T06:00:57Z</time>
      </trkpt>
      <trkpt lat="44.8156" lon="6.94718">
        <ele>1730</ele>
        <time>2020-08-02T06:01:06Z</time>
      </trkpt>
      <trkpt lat="44.81556" lon="6.94721">
        <ele>1730</ele>
        <time>2020-08-02T06:01:07Z</time>
      </trkpt>
      <trkpt lat="44.81553" lon="6.94724">
        <ele>1730</ele>
        <time>2020-08-02T06:01:08Z</time>
      </trkpt>
      <trkpt lat="44.8155" lon="6.94729">
        <ele>1731</ele>
        <time>2020-08-02T06:01:09Z</time>
      </trkpt>
      <trkpt lat="44.81549" lon="6.94732">
        <ele>1731</ele>
        <time>2020-08-02T06:01:10Z</time>
      </trkpt>
      <trkpt lat="44.81549" lon="6.94734">
        <ele>1731</ele>
        <time>2020-08-02T06:01:11Z</time>
      </trkpt>
      <trkpt lat="44.81547" lon="6.94735">
        <ele>1731</ele>
        <time>2020-08-02T06:01:12Z</time>
      </trkpt>
      <trkpt lat="44.81546" lon="6.94736">
        <ele>1732</ele>
        <time>2020-08-02T06:01:13Z</time>
      </trkpt>
      <trkpt lat="44.81545" lon="6.94737">
        <ele>1732</ele>
        <time>2020-08-02T06:01:14Z</time>
      </trkpt>
      <trkpt lat="44.81544" lon="6.94739">
        <ele>1732</ele>
        <time>2020-08-02T06:01:15Z</time>
      </trkpt>
      <trkpt lat="44.81543" lon="6.9474">
        <ele>1732</ele>
        <time>2020-08-02T06:01:16Z</time>
      </trkpt>
      <trkpt lat="44.81541" lon="6.94742">
        <ele>1732</ele>
        <time>2020-08-02T06:01:17Z</time>
      </trkpt>
      <trkpt lat="44.81526" lon="6.94757">
        <ele>1732</ele>
        <time>2020-08-02T06:01:32Z</time>
      </trkpt>
      <trkpt lat="44.81525" lon="6.94758">
        <ele>1733</ele>
        <time>2020-08-02T06:01:33Z</time>
      </trkpt>
      <trkpt lat="44.81508" lon="6.94789">
        <ele>1733</ele>
        <time>2020-08-02T06:01:49Z</time>
      </trkpt>
      <trkpt lat="44.81502" lon="6.94819">
        <ele>1734</ele>
        <time>2020-08-02T06:01:59Z</time>
      </trkpt>
      <trkpt lat="44.815" lon="6.94857">
        <ele>1736</ele>
        <time>2020-08-02T06:02:14Z</time>
      </trkpt>
      <trkpt lat="44.81488" lon="6.94897">
        <ele>1738</ele>
        <time>2020-08-02T06:02:32Z</time>
      </trkpt>
      <trkpt lat="44.81479" lon="6.94919">
        <ele>1737</ele>
        <time>2020-08-02T06:02:43Z</time>
      </trkpt>
      <trkpt lat="44.81479" lon="6.9492">
        <ele>1737</ele>
        <time>2020-08-02T06:02:44Z</time>
      </trkpt>
      <trkpt lat="44.81477" lon="6.94922">
        <ele>1737</ele>
        <time>2020-08-02T06:02:45Z</time>
      </trkpt>
      <trkpt lat="44.81476" lon="6.94924">
        <ele>1737</ele>
        <time>2020-08-02T06:02:46Z</time>
      </trkpt>
      <trkpt lat="44.81475" lon="6.94926">
        <ele>1737</ele>
        <time>2020-08-02T06:02:47Z</time>
      </trkpt>
      <trkpt lat="44.81474" lon="6.94928">
        <ele>1736</ele>
        <time>2020-08-02T06:02:48Z</time>
      </trkpt>
      <trkpt lat="44.81455" lon="6.94963">
        <ele>1735</ele>
        <time>2020-08-02T06:03:04Z</time>
      </trkpt>
      <trkpt lat="44.81438" lon="6.95">
        <ele>1736</ele>
        <time>2020-08-02T06:03:21Z</time>
      </trkpt>
      <trkpt lat="44.81423" lon="6.95037">
        <ele>1737</ele>
        <time>2020-08-02T06:03:38Z</time>
      </trkpt>
      <trkpt lat="44.81413" lon="6.95071">
        <ele>1741</ele>
        <time>2020-08-02T06:03:54Z</time>
      </trkpt>
      <trkpt lat="44.81401" lon="6.95111">
        <ele>1745</ele>
        <time>2020-08-02T06:04:12Z</time>
      </trkpt>
      <trkpt lat="44.81383" lon="6.95148">
        <ele>1749</ele>
        <time>2020-08-02T06:04:30Z</time>
      </trkpt>
      <trkpt lat="44.81352" lon="6.95139">
        <ele>1752</ele>
        <time>2020-08-02T06:04:45Z</time>
      </trkpt>
      <trkpt lat="44.81336" lon="6.95121">
        <ele>1759</ele>
        <time>2020-08-02T06:04:55Z</time>
      </trkpt>
      <trkpt lat="44.81336" lon="6.95119">
        <ele>1760</ele>
        <time>2020-08-02T06:04:56Z</time>
      </trkpt>
      <trkpt lat="44.81336" lon="6.95116">
        <ele>1760</ele>
        <time>2020-08-02T06:04:57Z</time>
      </trkpt>
      <trkpt lat="44.81335" lon="6.95113">
        <ele>1760</ele>
        <time>2020-08-02T06:04:58Z</time>
      </trkpt>
      <trkpt lat="44.81335" lon="6.95109">
        <ele>1760</ele>
        <time>2020-08-02T06:04:59Z</time>
      </trkpt>
      <trkpt lat="44.81335" lon="6.95105">
        <ele>1760</ele>
        <time>2020-08-02T06:05:00Z</time>
      </trkpt>
      <trkpt lat="44.81336" lon="6.951">
        <ele>1760</ele>
        <time>2020-08-02T06:05:01Z</time>
      </trkpt>
      <trkpt lat="44.81337" lon="6.95094">
        <ele>1759</ele>
        <time>2020-08-02T06:05:02Z</time>
      </trkpt>
      <trkpt lat="44.81339" lon="6.95087">
        <ele>1759</ele>
        <time>2020-08-02T06:05:03Z</time>
      </trkpt>
      <trkpt lat="44.81349" lon="6.95046">
        <ele>1754</ele>
        <time>2020-08-02T06:05:13Z</time>
      </trkpt>
      <trkpt lat="44.81354" lon="6.95011">
        <ele>1755</ele>
        <time>2020-08-02T06:05:25Z</time>
      </trkpt>
      <trkpt lat="44.81354" lon="6.95009">
        <ele>1756</ele>
        <time>2020-08-02T06:05:26Z</time>
      </trkpt>
      <trkpt lat="44.81355" lon="6.95006">
        <ele>1756</ele>
        <time>2020-08-02T06:05:27Z</time>
      </trkpt>
      <trkpt lat="44.81355" lon="6.95004">
        <ele>1756</ele>
        <time>2020-08-02T06:05:28Z</time>
      </trkpt>
      <trkpt lat="44.81356" lon="6.95001">
        <ele>1756</ele>
        <time>2020-08-02T06:05:29Z</time>
      </trkpt>
      <trkpt lat="44.81357" lon="6.94999">
        <ele>1756</ele>
        <time>2020-08-02T06:05:30Z</time>
      </trkpt>
      <trkpt lat="44.81373" lon="6.94965">
        <ele>1756</ele>
        <time>2020-08-02T06:05:45Z</time>
      </trkpt>
      <trkpt lat="44.81386" lon="6.94915">
        <ele>1763</ele>
        <time>2020-08-02T06:06:05Z</time>
      </trkpt>
      <trkpt lat="44.81397" lon="6.94869">
        <ele>1764</ele>
        <time>2020-08-02T06:06:22Z</time>
      </trkpt>
      <trkpt lat="44.81415" lon="6.94831">
        <ele>1760</ele>
        <time>2020-08-02T06:06:36Z</time>
      </trkpt>
      <trkpt lat="44.81431" lon="6.94797">
        <ele>1762</ele>
        <time>2020-08-02T06:06:52Z</time>
      </trkpt>
      <trkpt lat="44.81441" lon="6.94757">
        <ele>1767</ele>
        <time>2020-08-02T06:07:06Z</time>
      </trkpt>
      <trkpt lat="44.81452" lon="6.94714">
        <ele>1772</ele>
        <time>2020-08-02T06:07:24Z</time>
      </trkpt>
      <trkpt lat="44.81453" lon="6.94695">
        <ele>1777</ele>
        <time>2020-08-02T06:07:39Z</time>
      </trkpt>
      <trkpt lat="44.81468" lon="6.94668">
        <ele>1776</ele>
        <time>2020-08-02T06:07:55Z</time>
      </trkpt>
      <trkpt lat="44.81479" lon="6.94641">
        <ele>1778</ele>
        <time>2020-08-02T06:08:07Z</time>
      </trkpt>
      <trkpt lat="44.81484" lon="6.94605">
        <ele>1786</ele>
        <time>2020-08-02T06:08:18Z</time>
      </trkpt>
      <trkpt lat="44.81493" lon="6.94553">
        <ele>1789</ele>
        <time>2020-08-02T06:08:31Z</time>
      </trkpt>
      <trkpt lat="44.8149" lon="6.94507">
        <ele>1791</ele>
        <time>2020-08-02T06:08:45Z</time>
      </trkpt>
      <trkpt lat="44.81484" lon="6.94482">
        <ele>1792</ele>
        <time>2020-08-02T06:08:56Z</time>
      </trkpt>
      <trkpt lat="44.81483" lon="6.94456">
        <ele>1789</ele>
        <time>2020-08-02T06:09:09Z</time>
      </trkpt>
      <trkpt lat="44.81481" lon="6.94429">
        <ele>1787</ele>
        <time>2020-08-02T06:09:21Z</time>
      </trkpt>
      <trkpt lat="44.8147" lon="6.94397">
        <ele>1790</ele>
        <time>2020-08-02T06:09:37Z</time>
      </trkpt>
      <trkpt lat="44.81463" lon="6.94371">
        <ele>1791</ele>
        <time>2020-08-02T06:09:50Z</time>
      </trkpt>
      <trkpt lat="44.81461" lon="6.9437">
        <ele>1792</ele>
        <time>2020-08-02T06:09:51Z</time>
      </trkpt>
      <trkpt lat="44.81459" lon="6.9437">
        <ele>1793</ele>
        <time>2020-08-02T06:09:52Z</time>
      </trkpt>
      <trkpt lat="44.81456" lon="6.94367">
        <ele>1795</ele>
        <time>2020-08-02T06:09:55Z</time>
      </trkpt>
      <trkpt lat="44.81438" lon="6.94344">
        <ele>1801</ele>
        <time>2020-08-02T06:10:14Z</time>
      </trkpt>
      <trkpt lat="44.81436" lon="6.94343">
        <ele>1802</ele>
        <time>2020-08-02T06:10:15Z</time>
      </trkpt>
      <trkpt lat="44.81435" lon="6.94343">
        <ele>1802</ele>
        <time>2020-08-02T06:10:16Z</time>
      </trkpt>
      <trkpt lat="44.81414" lon="6.94331">
        <ele>1809</ele>
        <time>2020-08-02T06:10:30Z</time>
      </trkpt>
      <trkpt lat="44.81401" lon="6.94318">
        <ele>1810</ele>
        <time>2020-08-02T06:10:42Z</time>
      </trkpt>
      <trkpt lat="44.8139" lon="6.94308">
        <ele>1812</ele>
        <time>2020-08-02T06:10:53Z</time>
      </trkpt>
      <trkpt lat="44.81369" lon="6.9429">
        <ele>1817</ele>
        <time>2020-08-02T06:11:09Z</time>
      </trkpt>
      <trkpt lat="44.8135" lon="6.94259">
        <ele>1819</ele>
        <time>2020-08-02T06:11:28Z</time>
      </trkpt>
      <trkpt lat="44.81341" lon="6.94231">
        <ele>1820</ele>
        <time>2020-08-02T06:11:41Z</time>
      </trkpt>
      <trkpt lat="44.81329" lon="6.942">
        <ele>1821</ele>
        <time>2020-08-02T06:11:56Z</time>
      </trkpt>
      <trkpt lat="44.81311" lon="6.94178">
        <ele>1824</ele>
        <time>2020-08-02T06:12:11Z</time>
      </trkpt>
      <trkpt lat="44.81296" lon="6.94162">
        <ele>1826</ele>
        <time>2020-08-02T06:12:26Z</time>
      </trkpt>
      <trkpt lat="44.81282" lon="6.94146">
        <ele>1827</ele>
        <time>2020-08-02T06:12:40Z</time>
      </trkpt>
      <trkpt lat="44.81265" lon="6.94134">
        <ele>1831</ele>
        <time>2020-08-02T06:12:55Z</time>
      </trkpt>
      <trkpt lat="44.81245" lon="6.94127">
        <ele>1836</ele>
        <time>2020-08-02T06:13:09Z</time>
      </trkpt>
      <trkpt lat="44.81231" lon="6.94126">
        <ele>1840</ele>
        <time>2020-08-02T06:13:19Z</time>
      </trkpt>
      <trkpt lat="44.8121" lon="6.94118">
        <ele>1846</ele>
        <time>2020-08-02T06:13:34Z</time>
      </trkpt>
      <trkpt lat="44.81196" lon="6.94105">
        <ele>1848</ele>
        <time>2020-08-02T06:13:46Z</time>
      </trkpt>
      <trkpt lat="44.81179" lon="6.94091">
        <ele>1850</ele>
        <time>2020-08-02T06:14:01Z</time>
      </trkpt>
      <trkpt lat="44.81161" lon="6.94079">
        <ele>1855</ele>
        <time>2020-08-02T06:14:16Z</time>
      </trkpt>
      <trkpt lat="44.81143" lon="6.94072">
        <ele>1859</ele>
        <time>2020-08-02T06:14:30Z</time>
      </trkpt>
      <trkpt lat="44.81124" lon="6.94063">
        <ele>1861</ele>
        <time>2020-08-02T06:14:46Z</time>
      </trkpt>
      <trkpt lat="44.81103" lon="6.94049">
        <ele>1862</ele>
        <time>2020-08-02T06:15:00Z</time>
      </trkpt>
      <trkpt lat="44.81083" lon="6.94031">
        <ele>1863</ele>
        <time>2020-08-02T06:15:15Z</time>
      </trkpt>
      <trkpt lat="44.81059" lon="6.94019">
        <ele>1863</ele>
        <time>2020-08-02T06:15:30Z</time>
      </trkpt>
      <trkpt lat="44.8103" lon="6.9401">
        <ele>1866</ele>
        <time>2020-08-02T06:15:45Z</time>
      </trkpt>
      <trkpt lat="44.81011" lon="6.93976">
        <ele>1867</ele>
        <time>2020-08-02T06:15:59Z</time>
      </trkpt>
      <trkpt lat="44.8099" lon="6.93946">
        <ele>1869</ele>
        <time>2020-08-02T06:16:12Z</time>
      </trkpt>
      <trkpt lat="44.80964" lon="6.93928">
        <ele>1869</ele>
        <time>2020-08-02T06:16:27Z</time>
      </trkpt>
      <trkpt lat="44.80934" lon="6.93924">
        <ele>1872</ele>
        <time>2020-08-02T06:16:41Z</time>
      </trkpt>
      <trkpt lat="44.80913" lon="6.93929">
        <ele>1875</ele>
        <time>2020-08-02T06:16:53Z</time>
      </trkpt>
      <trkpt lat="44.80895" lon="6.93936">
        <ele>1877</ele>
        <time>2020-08-02T06:17:05Z</time>
      </trkpt>
      <trkpt lat="44.80873" lon="6.93938">
        <ele>1878</ele>
        <time>2020-08-02T06:17:18Z</time>
      </trkpt>
      <trkpt lat="44.80839" lon="6.93947">
        <ele>1880</ele>
        <time>2020-08-02T06:17:33Z</time>
      </trkpt>
      <trkpt lat="44.80814" lon="6.93962">
        <ele>1882</ele>
        <time>2020-08-02T06:17:45Z</time>
      </trkpt>
      <trkpt lat="44.80808" lon="6.93963">
        <ele>1882</ele>
        <time>2020-08-02T06:17:49Z</time>
      </trkpt>
      <trkpt lat="44.80807" lon="6.93963">
        <ele>1882</ele>
        <time>2020-08-02T06:17:50Z</time>
      </trkpt>
      <trkpt lat="44.80805" lon="6.93961">
        <ele>1882</ele>
        <time>2020-08-02T06:17:51Z</time>
      </trkpt>
      <trkpt lat="44.80804" lon="6.9396">
        <ele>1881</ele>
        <time>2020-08-02T06:17:56Z</time>
      </trkpt>
      <trkpt lat="44.80796" lon="6.93962">
        <ele>1883</ele>
        <time>2020-08-02T06:18:10Z</time>
      </trkpt>
      <trkpt lat="44.80792" lon="6.93959">
        <ele>1882</ele>
        <time>2020-08-02T06:18:11Z</time>
      </trkpt>
      <trkpt lat="44.80788" lon="6.93955">
        <ele>1882</ele>
        <time>2020-08-02T06:18:12Z</time>
      </trkpt>
      <trkpt lat="44.80779" lon="6.93907">
        <ele>1870</ele>
        <time>2020-08-02T06:18:19Z</time>
      </trkpt>
      <trkpt lat="44.80767" lon="6.93891">
        <ele>1868</ele>
        <time>2020-08-02T06:18:24Z</time>
      </trkpt>
      <trkpt lat="44.80765" lon="6.93879">
        <ele>1865</ele>
        <time>2020-08-02T06:18:27Z</time>
      </trkpt>
      <trkpt lat="44.80758" lon="6.93867">
        <ele>1862</ele>
        <time>2020-08-02T06:18:31Z</time>
      </trkpt>
      <trkpt lat="44.80758" lon="6.93863">
        <ele>1861</ele>
        <time>2020-08-02T06:18:32Z</time>
      </trkpt>
      <trkpt lat="44.8076" lon="6.9386">
        <ele>1860</ele>
        <time>2020-08-02T06:18:34Z</time>
      </trkpt>
      <trkpt lat="44.80764" lon="6.93857">
        <ele>1859</ele>
        <time>2020-08-02T06:18:36Z</time>
      </trkpt>
      <trkpt lat="44.8077" lon="6.93838">
        <ele>1855</ele>
        <time>2020-08-02T06:18:40Z</time>
      </trkpt>
      <trkpt lat="44.80764" lon="6.93817">
        <ele>1850</ele>
        <time>2020-08-02T06:18:46Z</time>
      </trkpt>
      <trkpt lat="44.80761" lon="6.93815">
        <ele>1850</ele>
        <time>2020-08-02T06:18:47Z</time>
      </trkpt>
      <trkpt lat="44.80747" lon="6.93804">
        <ele>1848</ele>
        <time>2020-08-02T06:18:50Z</time>
      </trkpt>
      <trkpt lat="44.80728" lon="6.93803">
        <ele>1848</ele>
        <time>2020-08-02T06:18:55Z</time>
      </trkpt>
      <trkpt lat="44.80722" lon="6.93804">
        <ele>1848</ele>
        <time>2020-08-02T06:18:57Z</time>
      </trkpt>
      <trkpt lat="44.80716" lon="6.93797">
        <ele>1849</ele>
        <time>2020-08-02T06:18:59Z</time>
      </trkpt>
      <trkpt lat="44.80709" lon="6.93784">
        <ele>1848</ele>
        <time>2020-08-02T06:19:01Z</time>
      </trkpt>
      <trkpt lat="44.80714" lon="6.93758">
        <ele>1841</ele>
        <time>2020-08-02T06:19:05Z</time>
      </trkpt>
      <trkpt lat="44.80737" lon="6.93739">
        <ele>1833</ele>
        <time>2020-08-02T06:19:10Z</time>
      </trkpt>
      <trkpt lat="44.80746" lon="6.9374">
        <ele>1833</ele>
        <time>2020-08-02T06:19:16Z</time>
      </trkpt>
      <trkpt lat="44.80747" lon="6.9374">
        <ele>1833</ele>
        <time>2020-08-02T06:19:18Z</time>
      </trkpt>
      <trkpt lat="44.80759" lon="6.93735">
        <ele>1830</ele>
        <time>2020-08-02T06:19:40Z</time>
      </trkpt>
      <trkpt lat="44.80772" lon="6.93743">
        <ele>1832</ele>
        <time>2020-08-02T06:19:44Z</time>
      </trkpt>
      <trkpt lat="44.80794" lon="6.93747">
        <ele>1827</ele>
        <time>2020-08-02T06:19:50Z</time>
      </trkpt>
      <trkpt lat="44.80808" lon="6.93742">
        <ele>1821</ele>
        <time>2020-08-02T06:19:55Z</time>
      </trkpt>
      <trkpt lat="44.80835" lon="6.93727">
        <ele>1814</ele>
        <time>2020-08-02T06:20:03Z</time>
      </trkpt>
      <trkpt lat="44.80838" lon="6.93722">
        <ele>1813</ele>
        <time>2020-08-02T06:20:05Z</time>
      </trkpt>
      <trkpt lat="44.80833" lon="6.93721">
        <ele>1812</ele>
        <time>2020-08-02T06:20:08Z</time>
      </trkpt>
      <trkpt lat="44.80816" lon="6.93728">
        <ele>1816</ele>
        <time>2020-08-02T06:20:17Z</time>
      </trkpt>
      <trkpt lat="44.80799" lon="6.93728">
        <ele>1819</ele>
        <time>2020-08-02T06:20:22Z</time>
      </trkpt>
      <trkpt lat="44.80761" lon="6.93696">
        <ele>1817</ele>
        <time>2020-08-02T06:20:34Z</time>
      </trkpt>
      <trkpt lat="44.80722" lon="6.93675">
        <ele>1815</ele>
        <time>2020-08-02T06:20:43Z</time>
      </trkpt>
      <trkpt lat="44.80687" lon="6.93648">
        <ele>1810</ele>
        <time>2020-08-02T06:20:49Z</time>
      </trkpt>
      <trkpt lat="44.80678" lon="6.93635">
        <ele>1807</ele>
        <time>2020-08-02T06:20:51Z</time>
      </trkpt>
      <trkpt lat="44.8065" lon="6.93602">
        <ele>1802</ele>
        <time>2020-08-02T06:20:57Z</time>
      </trkpt>
      <trkpt lat="44.80636" lon="6.93581">
        <ele>1795</ele>
        <time>2020-08-02T06:21:04Z</time>
      </trkpt>
      <trkpt lat="44.80631" lon="6.93577">
        <ele>1794</ele>
        <time>2020-08-02T06:21:07Z</time>
      </trkpt>
      <trkpt lat="44.80627" lon="6.93571">
        <ele>1791</ele>
        <time>2020-08-02T06:21:10Z</time>
      </trkpt>
      <trkpt lat="44.80618" lon="6.93565">
        <ele>1789</ele>
        <time>2020-08-02T06:21:14Z</time>
      </trkpt>
      <trkpt lat="44.80607" lon="6.93556">
        <ele>1786</ele>
        <time>2020-08-02T06:21:19Z</time>
      </trkpt>
      <trkpt lat="44.80598" lon="6.93555">
        <ele>1788</ele>
        <time>2020-08-02T06:21:23Z</time>
      </trkpt>
      <trkpt lat="44.80566" lon="6.93535">
        <ele>1787</ele>
        <time>2020-08-02T06:21:36Z</time>
      </trkpt>
      <trkpt lat="44.80542" lon="6.93525">
        <ele>1790</ele>
        <time>2020-08-02T06:21:44Z</time>
      </trkpt>
      <trkpt lat="44.8054" lon="6.93522">
        <ele>1790</ele>
        <time>2020-08-02T06:21:46Z</time>
      </trkpt>
      <trkpt lat="44.80534" lon="6.93516">
        <ele>1790</ele>
        <time>2020-08-02T06:21:50Z</time>
      </trkpt>
      <trkpt lat="44.8053" lon="6.93514">
        <ele>1791</ele>
        <time>2020-08-02T06:21:52Z</time>
      </trkpt>
      <trkpt lat="44.80504" lon="6.93488">
        <ele>1790</ele>
        <time>2020-08-02T06:22:02Z</time>
      </trkpt>
      <trkpt lat="44.80476" lon="6.93464">
        <ele>1783</ele>
        <time>2020-08-02T06:22:10Z</time>
      </trkpt>
      <trkpt lat="44.8046" lon="6.93472">
        <ele>1789</ele>
        <time>2020-08-02T06:22:14Z</time>
      </trkpt>
      <trkpt lat="44.80436" lon="6.93467">
        <ele>1791</ele>
        <time>2020-08-02T06:22:20Z</time>
      </trkpt>
      <trkpt lat="44.80429" lon="6.93461">
        <ele>1789</ele>
        <time>2020-08-02T06:22:22Z</time>
      </trkpt>
      <trkpt lat="44.80409" lon="6.93457">
        <ele>1791</ele>
        <time>2020-08-02T06:22:27Z</time>
      </trkpt>
      <trkpt lat="44.80388" lon="6.93457">
        <ele>1795</ele>
        <time>2020-08-02T06:22:32Z</time>
      </trkpt>
      <trkpt lat="44.80378" lon="6.93444">
        <ele>1791</ele>
        <time>2020-08-02T06:22:36Z</time>
      </trkpt>
      <trkpt lat="44.80361" lon="6.93428">
        <ele>1786</ele>
        <time>2020-08-02T06:22:41Z</time>
      </trkpt>
      <trkpt lat="44.80356" lon="6.93421">
        <ele>1784</ele>
        <time>2020-08-02T06:22:43Z</time>
      </trkpt>
      <trkpt lat="44.80341" lon="6.93414">
        <ele>1783</ele>
        <time>2020-08-02T06:22:47Z</time>
      </trkpt>
      <trkpt lat="44.8031" lon="6.93401">
        <ele>1783</ele>
        <time>2020-08-02T06:22:55Z</time>
      </trkpt>
      <trkpt lat="44.8028" lon="6.934">
        <ele>1780</ele>
        <time>2020-08-02T06:23:03Z</time>
      </trkpt>
      <trkpt lat="44.80251" lon="6.93418">
        <ele>1781</ele>
        <time>2020-08-02T06:23:10Z</time>
      </trkpt>
      <trkpt lat="44.80237" lon="6.93426">
        <ele>1779</ele>
        <time>2020-08-02T06:23:14Z</time>
      </trkpt>
      <trkpt lat="44.80224" lon="6.93441">
        <ele>1779</ele>
        <time>2020-08-02T06:23:18Z</time>
      </trkpt>
      <trkpt lat="44.8021" lon="6.93458">
        <ele>1781</ele>
        <time>2020-08-02T06:23:22Z</time>
      </trkpt>
      <trkpt lat="44.80193" lon="6.93481">
        <ele>1783</ele>
        <time>2020-08-02T06:23:28Z</time>
      </trkpt>
      <trkpt lat="44.80179" lon="6.93496">
        <ele>1788</ele>
        <time>2020-08-02T06:23:33Z</time>
      </trkpt>
      <trkpt lat="44.80151" lon="6.93482">
        <ele>1785</ele>
        <time>2020-08-02T06:23:46Z</time>
      </trkpt>
      <trkpt lat="44.80122" lon="6.93466">
        <ele>1781</ele>
        <time>2020-08-02T06:23:55Z</time>
      </trkpt>
      <trkpt lat="44.80112" lon="6.93463">
        <ele>1781</ele>
        <time>2020-08-02T06:24:03Z</time>
      </trkpt>
      <trkpt lat="44.80107" lon="6.93457">
        <ele>1779</ele>
        <time>2020-08-02T06:24:09Z</time>
      </trkpt>
      <trkpt lat="44.80095" lon="6.93456">
        <ele>1779</ele>
        <time>2020-08-02T06:24:14Z</time>
      </trkpt>
      <trkpt lat="44.80083" lon="6.93455">
        <ele>1780</ele>
        <time>2020-08-02T06:24:18Z</time>
      </trkpt>
      <trkpt lat="44.8008" lon="6.93449">
        <ele>1778</ele>
        <time>2020-08-02T06:24:22Z</time>
      </trkpt>
      <trkpt lat="44.80082" lon="6.93441">
        <ele>1776</ele>
        <time>2020-08-02T06:24:25Z</time>
      </trkpt>
      <trkpt lat="44.80077" lon="6.93435">
        <ele>1774</ele>
        <time>2020-08-02T06:24:29Z</time>
      </trkpt>
      <trkpt lat="44.80076" lon="6.93421">
        <ele>1771</ele>
        <time>2020-08-02T06:24:33Z</time>
      </trkpt>
      <trkpt lat="44.80078" lon="6.93415">
        <ele>1769</ele>
        <time>2020-08-02T06:24:34Z</time>
      </trkpt>
      <trkpt lat="44.80087" lon="6.93393">
        <ele>1760</ele>
        <time>2020-08-02T06:24:38Z</time>
      </trkpt>
      <trkpt lat="44.80088" lon="6.93384">
        <ele>1758</ele>
        <time>2020-08-02T06:24:40Z</time>
      </trkpt>
      <trkpt lat="44.80086" lon="6.93378">
        <ele>1756</ele>
        <time>2020-08-02T06:24:43Z</time>
      </trkpt>
      <trkpt lat="44.80084" lon="6.93361">
        <ele>1752</ele>
        <time>2020-08-02T06:24:49Z</time>
      </trkpt>
      <trkpt lat="44.80084" lon="6.93362">
        <ele>1753</ele>
        <time>2020-08-02T06:24:52Z</time>
      </trkpt>
      <trkpt lat="44.8008" lon="6.93357">
        <ele>1751</ele>
        <time>2020-08-02T06:25:05Z</time>
      </trkpt>
      <trkpt lat="44.80073" lon="6.93346">
        <ele>1748</ele>
        <time>2020-08-02T06:25:11Z</time>
      </trkpt>
      <trkpt lat="44.80056" lon="6.93329">
        <ele>1740</ele>
        <time>2020-08-02T06:25:18Z</time>
      </trkpt>
      <trkpt lat="44.80039" lon="6.9332">
        <ele>1735</ele>
        <time>2020-08-02T06:25:23Z</time>
      </trkpt>
      <trkpt lat="44.80036" lon="6.93319">
        <ele>1734</ele>
        <time>2020-08-02T06:25:24Z</time>
      </trkpt>
      <trkpt lat="44.8003" lon="6.93311">
        <ele>1730</ele>
        <time>2020-08-02T06:25:28Z</time>
      </trkpt>
      <trkpt lat="44.80022" lon="6.93294">
        <ele>1723</ele>
        <time>2020-08-02T06:25:33Z</time>
      </trkpt>
      <trkpt lat="44.80015" lon="6.93277">
        <ele>1715</ele>
        <time>2020-08-02T06:25:38Z</time>
      </trkpt>
      <trkpt lat="44.79999" lon="6.93264">
        <ele>1709</ele>
        <time>2020-08-02T06:25:42Z</time>
      </trkpt>
      <trkpt lat="44.79995" lon="6.9326">
        <ele>1708</ele>
        <time>2020-08-02T06:25:43Z</time>
      </trkpt>
      <trkpt lat="44.7997" lon="6.9326">
        <ele>1708</ele>
        <time>2020-08-02T06:25:49Z</time>
      </trkpt>
      <trkpt lat="44.79965" lon="6.93262">
        <ele>1709</ele>
        <time>2020-08-02T06:25:50Z</time>
      </trkpt>
      <trkpt lat="44.79957" lon="6.93262">
        <ele>1709</ele>
        <time>2020-08-02T06:25:52Z</time>
      </trkpt>
      <trkpt lat="44.79945" lon="6.93257">
        <ele>1707</ele>
        <time>2020-08-02T06:25:55Z</time>
      </trkpt>
      <trkpt lat="44.79935" lon="6.93246">
        <ele>1703</ele>
        <time>2020-08-02T06:25:59Z</time>
      </trkpt>
      <trkpt lat="44.79919" lon="6.93235">
        <ele>1698</ele>
        <time>2020-08-02T06:26:03Z</time>
      </trkpt>
      <trkpt lat="44.79895" lon="6.93223">
        <ele>1694</ele>
        <time>2020-08-02T06:26:08Z</time>
      </trkpt>
      <trkpt lat="44.79885" lon="6.93226">
        <ele>1695</ele>
        <time>2020-08-02T06:26:10Z</time>
      </trkpt>
      <trkpt lat="44.79859" lon="6.93231">
        <ele>1696</ele>
        <time>2020-08-02T06:26:15Z</time>
      </trkpt>
      <trkpt lat="44.79854" lon="6.9323">
        <ele>1696</ele>
        <time>2020-08-02T06:26:17Z</time>
      </trkpt>
      <trkpt lat="44.79856" lon="6.93223">
        <ele>1693</ele>
        <time>2020-08-02T06:26:21Z</time>
      </trkpt>
      <trkpt lat="44.79856" lon="6.93219">
        <ele>1692</ele>
        <time>2020-08-02T06:26:24Z</time>
      </trkpt>
      <trkpt lat="44.79847" lon="6.93214">
        <ele>1690</ele>
        <time>2020-08-02T06:26:28Z</time>
      </trkpt>
      <trkpt lat="44.79834" lon="6.9321">
        <ele>1689</ele>
        <time>2020-08-02T06:26:31Z</time>
      </trkpt>
      <trkpt lat="44.79798" lon="6.93197">
        <ele>1687</ele>
        <time>2020-08-02T06:26:37Z</time>
      </trkpt>
      <trkpt lat="44.79784" lon="6.93188">
        <ele>1684</ele>
        <time>2020-08-02T06:26:40Z</time>
      </trkpt>
      <trkpt lat="44.79768" lon="6.93189">
        <ele>1687</ele>
        <time>2020-08-02T06:26:44Z</time>
      </trkpt>
      <trkpt lat="44.79763" lon="6.93171">
        <ele>1680</ele>
        <time>2020-08-02T06:26:49Z</time>
      </trkpt>
      <trkpt lat="44.79762" lon="6.93158">
        <ele>1675</ele>
        <time>2020-08-02T06:26:52Z</time>
      </trkpt>
      <trkpt lat="44.79754" lon="6.93139">
        <ele>1669</ele>
        <time>2020-08-02T06:26:55Z</time>
      </trkpt>
      <trkpt lat="44.79741" lon="6.93122">
        <ele>1665</ele>
        <time>2020-08-02T06:26:58Z</time>
      </trkpt>
      <trkpt lat="44.79726" lon="6.93092">
        <ele>1658</ele>
        <time>2020-08-02T06:27:03Z</time>
      </trkpt>
      <trkpt lat="44.79725" lon="6.93087">
        <ele>1656</ele>
        <time>2020-08-02T06:27:04Z</time>
      </trkpt>
      <trkpt lat="44.79716" lon="6.93059">
        <ele>1647</ele>
        <time>2020-08-02T06:27:08Z</time>
      </trkpt>
      <trkpt lat="44.79698" lon="6.93049">
        <ele>1646</ele>
        <time>2020-08-02T06:27:13Z</time>
      </trkpt>
      <trkpt lat="44.79689" lon="6.93051">
        <ele>1646</ele>
        <time>2020-08-02T06:27:17Z</time>
      </trkpt>
      <trkpt lat="44.79691" lon="6.93051">
        <ele>1647</ele>
        <time>2020-08-02T06:27:20Z</time>
      </trkpt>
      <trkpt lat="44.79681" lon="6.9305">
        <ele>1644</ele>
        <time>2020-08-02T06:29:14Z</time>
      </trkpt>
      <trkpt lat="44.79664" lon="6.93048">
        <ele>1640</ele>
        <time>2020-08-02T06:29:20Z</time>
      </trkpt>
      <trkpt lat="44.79651" lon="6.9304">
        <ele>1632</ele>
        <time>2020-08-02T06:29:25Z</time>
      </trkpt>
      <trkpt lat="44.79638" lon="6.93028">
        <ele>1624</ele>
        <time>2020-08-02T06:29:30Z</time>
      </trkpt>
      <trkpt lat="44.79619" lon="6.93026">
        <ele>1618</ele>
        <time>2020-08-02T06:29:35Z</time>
      </trkpt>
      <trkpt lat="44.79612" lon="6.9303">
        <ele>1618</ele>
        <time>2020-08-02T06:29:37Z</time>
      </trkpt>
      <trkpt lat="44.79614" lon="6.93016">
        <ele>1613</ele>
        <time>2020-08-02T06:29:41Z</time>
      </trkpt>
      <trkpt lat="44.79631" lon="6.92989">
        <ele>1608</ele>
        <time>2020-08-02T06:29:46Z</time>
      </trkpt>
      <trkpt lat="44.79636" lon="6.92984">
        <ele>1608</ele>
        <time>2020-08-02T06:29:47Z</time>
      </trkpt>
      <trkpt lat="44.79646" lon="6.92973">
        <ele>1605</ele>
        <time>2020-08-02T06:29:49Z</time>
      </trkpt>
      <trkpt lat="44.79667" lon="6.92953">
        <ele>1598</ele>
        <time>2020-08-02T06:29:53Z</time>
      </trkpt>
      <trkpt lat="44.79691" lon="6.92934">
        <ele>1599</ele>
        <time>2020-08-02T06:29:57Z</time>
      </trkpt>
      <trkpt lat="44.79706" lon="6.92932">
        <ele>1599</ele>
        <time>2020-08-02T06:30:01Z</time>
      </trkpt>
      <trkpt lat="44.79707" lon="6.92931">
        <ele>1598</ele>
        <time>2020-08-02T06:30:02Z</time>
      </trkpt>
      <trkpt lat="44.79686" lon="6.92919">
        <ele>1591</ele>
        <time>2020-08-02T06:30:10Z</time>
      </trkpt>
      <trkpt lat="44.79683" lon="6.92919">
        <ele>1590</ele>
        <time>2020-08-02T06:30:11Z</time>
      </trkpt>
      <trkpt lat="44.79665" lon="6.92926">
        <ele>1589</ele>
        <time>2020-08-02T06:30:16Z</time>
      </trkpt>
      <trkpt lat="44.79648" lon="6.92927">
        <ele>1588</ele>
        <time>2020-08-02T06:30:21Z</time>
      </trkpt>
      <trkpt lat="44.79638" lon="6.92927">
        <ele>1587</ele>
        <time>2020-08-02T06:30:23Z</time>
      </trkpt>
      <trkpt lat="44.79613" lon="6.92911">
        <ele>1582</ele>
        <time>2020-08-02T06:30:30Z</time>
      </trkpt>
      <trkpt lat="44.79602" lon="6.92906">
        <ele>1580</ele>
        <time>2020-08-02T06:30:33Z</time>
      </trkpt>
      <trkpt lat="44.79583" lon="6.9291">
        <ele>1578</ele>
        <time>2020-08-02T06:30:37Z</time>
      </trkpt>
      <trkpt lat="44.7958" lon="6.9291">
        <ele>1577</ele>
        <time>2020-08-02T06:30:38Z</time>
      </trkpt>
      <trkpt lat="44.79557" lon="6.92922">
        <ele>1576</ele>
        <time>2020-08-02T06:30:43Z</time>
      </trkpt>
      <trkpt lat="44.79559" lon="6.92899">
        <ele>1569</ele>
        <time>2020-08-02T06:30:49Z</time>
      </trkpt>
      <trkpt lat="44.79558" lon="6.92896">
        <ele>1567</ele>
        <time>2020-08-02T06:30:50Z</time>
      </trkpt>
      <trkpt lat="44.79558" lon="6.92893">
        <ele>1566</ele>
        <time>2020-08-02T06:30:51Z</time>
      </trkpt>
      <trkpt lat="44.79557" lon="6.9289">
        <ele>1565</ele>
        <time>2020-08-02T06:30:52Z</time>
      </trkpt>
      <trkpt lat="44.79557" lon="6.92887">
        <ele>1565</ele>
        <time>2020-08-02T06:30:53Z</time>
      </trkpt>
      <trkpt lat="44.79557" lon="6.92883">
        <ele>1564</ele>
        <time>2020-08-02T06:30:54Z</time>
      </trkpt>
      <trkpt lat="44.79557" lon="6.92879">
        <ele>1563</ele>
        <time>2020-08-02T06:30:55Z</time>
      </trkpt>
      <trkpt lat="44.79556" lon="6.92876">
        <ele>1563</ele>
        <time>2020-08-02T06:30:56Z</time>
      </trkpt>
      <trkpt lat="44.79555" lon="6.92874">
        <ele>1562</ele>
        <time>2020-08-02T06:30:57Z</time>
      </trkpt>
      <trkpt lat="44.79554" lon="6.92873">
        <ele>1562</ele>
        <time>2020-08-02T06:31:02Z</time>
      </trkpt>
      <trkpt lat="44.79536" lon="6.92867">
        <ele>1561</ele>
        <time>2020-08-02T06:31:24Z</time>
      </trkpt>
      <trkpt lat="44.7953" lon="6.92865">
        <ele>1560</ele>
        <time>2020-08-02T06:31:25Z</time>
      </trkpt>
      <trkpt lat="44.79495" lon="6.92853">
        <ele>1560</ele>
        <time>2020-08-02T06:31:33Z</time>
      </trkpt>
      <trkpt lat="44.79494" lon="6.92853">
        <ele>1560</ele>
        <time>2020-08-02T06:31:37Z</time>
      </trkpt>
      <trkpt lat="44.79495" lon="6.92854">
        <ele>1560</ele>
        <time>2020-08-02T06:31:38Z</time>
      </trkpt>
      <trkpt lat="44.79496" lon="6.92857">
        <ele>1560</ele>
        <time>2020-08-02T06:31:40Z</time>
      </trkpt>
      <trkpt lat="44.79498" lon="6.92857">
        <ele>1560</ele>
        <time>2020-08-02T06:31:42Z</time>
      </trkpt>
      <trkpt lat="44.795" lon="6.92851">
        <ele>1559</ele>
        <time>2020-08-02T06:31:45Z</time>
      </trkpt>
      <trkpt lat="44.795" lon="6.92849">
        <ele>1559</ele>
        <time>2020-08-02T06:31:46Z</time>
      </trkpt>
      <trkpt lat="44.795" lon="6.92847">
        <ele>1559</ele>
        <time>2020-08-02T06:31:47Z</time>
      </trkpt>
      <trkpt lat="44.79499" lon="6.9284">
        <ele>1558</ele>
        <time>2020-08-02T06:31:51Z</time>
      </trkpt>
      <trkpt lat="44.79499" lon="6.92838">
        <ele>1558</ele>
        <time>2020-08-02T06:31:52Z</time>
      </trkpt>
      <trkpt lat="44.79499" lon="6.92836">
        <ele>1558</ele>
        <time>2020-08-02T06:31:53Z</time>
      </trkpt>
      <trkpt lat="44.795" lon="6.92835">
        <ele>1558</ele>
        <time>2020-08-02T06:32:02Z</time>
      </trkpt>
      <trkpt lat="44.79505" lon="6.92831">
        <ele>1557</ele>
        <time>2020-08-02T06:38:35Z</time>
      </trkpt>
      <trkpt lat="44.79505" lon="6.92827">
        <ele>1557</ele>
        <time>2020-08-02T06:38:36Z</time>
      </trkpt>
      <trkpt lat="44.79505" lon="6.92823">
        <ele>1557</ele>
        <time>2020-08-02T06:38:37Z</time>
      </trkpt>
      <trkpt lat="44.79505" lon="6.92819">
        <ele>1556</ele>
        <time>2020-08-02T06:38:38Z</time>
      </trkpt>
      <trkpt lat="44.79505" lon="6.92814">
        <ele>1556</ele>
        <time>2020-08-02T06:38:39Z</time>
      </trkpt>
      <trkpt lat="44.79509" lon="6.9276">
        <ele>1555</ele>
        <time>2020-08-02T06:38:51Z</time>
      </trkpt>
      <trkpt lat="44.79509" lon="6.92757">
        <ele>1555</ele>
        <time>2020-08-02T06:38:52Z</time>
      </trkpt>
      <trkpt lat="44.79509" lon="6.92755">
        <ele>1555</ele>
        <time>2020-08-02T06:38:53Z</time>
      </trkpt>
      <trkpt lat="44.79508" lon="6.92752">
        <ele>1555</ele>
        <time>2020-08-02T06:38:54Z</time>
      </trkpt>
      <trkpt lat="44.79507" lon="6.9275">
        <ele>1555</ele>
        <time>2020-08-02T06:38:55Z</time>
      </trkpt>
      <trkpt lat="44.79505" lon="6.92748">
        <ele>1555</ele>
        <time>2020-08-02T06:38:56Z</time>
      </trkpt>
      <trkpt lat="44.79503" lon="6.92746">
        <ele>1555</ele>
        <time>2020-08-02T06:38:57Z</time>
      </trkpt>
      <trkpt lat="44.79501" lon="6.92744">
        <ele>1555</ele>
        <time>2020-08-02T06:38:58Z</time>
      </trkpt>
      <trkpt lat="44.79498" lon="6.92741">
        <ele>1555</ele>
        <time>2020-08-02T06:38:59Z</time>
      </trkpt>
      <trkpt lat="44.79465" lon="6.92707">
        <ele>1555</ele>
        <time>2020-08-02T06:39:10Z</time>
      </trkpt>
      <trkpt lat="44.79419" lon="6.92661">
        <ele>1552</ele>
        <time>2020-08-02T06:39:24Z</time>
      </trkpt>
      <trkpt lat="44.79418" lon="6.9266">
        <ele>1552</ele>
        <time>2020-08-02T06:39:25Z</time>
      </trkpt>
      <trkpt lat="44.79415" lon="6.92661">
        <ele>1552</ele>
        <time>2020-08-02T06:39:26Z</time>
      </trkpt>
      <trkpt lat="44.79413" lon="6.92664">
        <ele>1552</ele>
        <time>2020-08-02T06:39:27Z</time>
      </trkpt>
      <trkpt lat="44.7941" lon="6.92667">
        <ele>1553</ele>
        <time>2020-08-02T06:39:28Z</time>
      </trkpt>
      <trkpt lat="44.79408" lon="6.92672">
        <ele>1553</ele>
        <time>2020-08-02T06:39:29Z</time>
      </trkpt>
      <trkpt lat="44.79406" lon="6.92677">
        <ele>1553</ele>
        <time>2020-08-02T06:39:30Z</time>
      </trkpt>
      <trkpt lat="44.79404" lon="6.92682">
        <ele>1554</ele>
        <time>2020-08-02T06:39:31Z</time>
      </trkpt>
      <trkpt lat="44.79398" lon="6.92696">
        <ele>1555</ele>
        <time>2020-08-02T06:39:34Z</time>
      </trkpt>
      <trkpt lat="44.79395" lon="6.92698">
        <ele>1555</ele>
        <time>2020-08-02T06:39:35Z</time>
      </trkpt>
      <trkpt lat="44.7939" lon="6.92698">
        <ele>1555</ele>
        <time>2020-08-02T06:39:36Z</time>
      </trkpt>
      <trkpt lat="44.79372" lon="6.92694">
        <ele>1553</ele>
        <time>2020-08-02T06:39:40Z</time>
      </trkpt>
      <trkpt lat="44.79368" lon="6.92691">
        <ele>1553</ele>
        <time>2020-08-02T06:39:41Z</time>
      </trkpt>
      <trkpt lat="44.79363" lon="6.9269">
        <ele>1552</ele>
        <time>2020-08-02T06:39:42Z</time>
      </trkpt>
      <trkpt lat="44.79358" lon="6.92688">
        <ele>1552</ele>
        <time>2020-08-02T06:39:43Z</time>
      </trkpt>
      <trkpt lat="44.79352" lon="6.92688">
        <ele>1551</ele>
        <time>2020-08-02T06:39:44Z</time>
      </trkpt>
      <trkpt lat="44.79341" lon="6.92687">
        <ele>1551</ele>
        <time>2020-08-02T06:39:46Z</time>
      </trkpt>
      <trkpt lat="44.79336" lon="6.92691">
        <ele>1550</ele>
        <time>2020-08-02T06:39:47Z</time>
      </trkpt>
      <trkpt lat="44.79332" lon="6.92696">
        <ele>1551</ele>
        <time>2020-08-02T06:39:48Z</time>
      </trkpt>
      <trkpt lat="44.7933" lon="6.92702">
        <ele>1551</ele>
        <time>2020-08-02T06:39:49Z</time>
      </trkpt>
      <trkpt lat="44.79329" lon="6.92705">
        <ele>1551</ele>
        <time>2020-08-02T06:39:50Z</time>
      </trkpt>
      <trkpt lat="44.79328" lon="6.92707">
        <ele>1551</ele>
        <time>2020-08-02T06:39:51Z</time>
      </trkpt>
      <trkpt lat="44.79327" lon="6.92709">
        <ele>1551</ele>
        <time>2020-08-02T06:39:52Z</time>
      </trkpt>
      <trkpt lat="44.79328" lon="6.9271">
        <ele>1551</ele>
        <time>2020-08-02T06:39:53Z</time>
      </trkpt>
      <trkpt lat="44.7933" lon="6.9271">
        <ele>1551</ele>
        <time>2020-08-02T06:39:54Z</time>
      </trkpt>
      <trkpt lat="44.79331" lon="6.92707">
        <ele>1551</ele>
        <time>2020-08-02T06:39:55Z</time>
      </trkpt>
      <trkpt lat="44.79358" lon="6.92692">
        <ele>1552</ele>
        <time>2020-08-02T06:40:06Z</time>
      </trkpt>
      <trkpt lat="44.79362" lon="6.92692">
        <ele>1552</ele>
        <time>2020-08-02T06:40:08Z</time>
      </trkpt>
      <trkpt lat="44.79364" lon="6.92689">
        <ele>1552</ele>
        <time>2020-08-02T06:40:15Z</time>
      </trkpt>
      <trkpt lat="44.79356" lon="6.92689">
        <ele>1552</ele>
        <time>2020-08-02T06:41:13Z</time>
      </trkpt>
      <trkpt lat="44.79343" lon="6.92687">
        <ele>1551</ele>
        <time>2020-08-02T06:41:16Z</time>
      </trkpt>
      <trkpt lat="44.79338" lon="6.92689">
        <ele>1551</ele>
        <time>2020-08-02T06:41:17Z</time>
      </trkpt>
      <trkpt lat="44.79335" lon="6.92694">
        <ele>1551</ele>
        <time>2020-08-02T06:41:18Z</time>
      </trkpt>
      <trkpt lat="44.79324" lon="6.92711">
        <ele>1551</ele>
        <time>2020-08-02T06:41:21Z</time>
      </trkpt>
      <trkpt lat="44.79319" lon="6.92716">
        <ele>1551</ele>
        <time>2020-08-02T06:41:22Z</time>
      </trkpt>
      <trkpt lat="44.79314" lon="6.9272">
        <ele>1551</ele>
        <time>2020-08-02T06:41:23Z</time>
      </trkpt>
      <trkpt lat="44.79308" lon="6.92721">
        <ele>1551</ele>
        <time>2020-08-02T06:41:24Z</time>
      </trkpt>
      <trkpt lat="44.79302" lon="6.92722">
        <ele>1550</ele>
        <time>2020-08-02T06:41:25Z</time>
      </trkpt>
      <trkpt lat="44.79296" lon="6.92724">
        <ele>1550</ele>
        <time>2020-08-02T06:41:26Z</time>
      </trkpt>
      <trkpt lat="44.7929" lon="6.92725">
        <ele>1550</ele>
        <time>2020-08-02T06:41:27Z</time>
      </trkpt>
      <trkpt lat="44.79285" lon="6.9273">
        <ele>1550</ele>
        <time>2020-08-02T06:41:28Z</time>
      </trkpt>
      <trkpt lat="44.7928" lon="6.92736">
        <ele>1550</ele>
        <time>2020-08-02T06:41:29Z</time>
      </trkpt>
      <trkpt lat="44.79277" lon="6.92743">
        <ele>1550</ele>
        <time>2020-08-02T06:41:30Z</time>
      </trkpt>
      <trkpt lat="44.79255" lon="6.9278">
        <ele>1550</ele>
        <time>2020-08-02T06:41:36Z</time>
      </trkpt>
      <trkpt lat="44.79251" lon="6.92784">
        <ele>1550</ele>
        <time>2020-08-02T06:41:37Z</time>
      </trkpt>
      <trkpt lat="44.79247" lon="6.92785">
        <ele>1550</ele>
        <time>2020-08-02T06:41:38Z</time>
      </trkpt>
      <trkpt lat="44.79242" lon="6.92786">
        <ele>1549</ele>
        <time>2020-08-02T06:41:39Z</time>
      </trkpt>
      <trkpt lat="44.79238" lon="6.92786">
        <ele>1549</ele>
        <time>2020-08-02T06:41:40Z</time>
      </trkpt>
      <trkpt lat="44.79233" lon="6.92787">
        <ele>1549</ele>
        <time>2020-08-02T06:41:41Z</time>
      </trkpt>
      <trkpt lat="44.79229" lon="6.92788">
        <ele>1549</ele>
        <time>2020-08-02T06:41:42Z</time>
      </trkpt>
      <trkpt lat="44.79162" lon="6.92821">
        <ele>1546</ele>
        <time>2020-08-02T06:41:58Z</time>
      </trkpt>
      <trkpt lat="44.79101" lon="6.92909">
        <ele>1548</ele>
        <time>2020-08-02T06:42:18Z</time>
      </trkpt>
      <trkpt lat="44.79055" lon="6.92974">
        <ele>1550</ele>
        <time>2020-08-02T06:42:35Z</time>
      </trkpt>
      <trkpt lat="44.79013" lon="6.93015">
        <ele>1550</ele>
        <time>2020-08-02T06:42:52Z</time>
      </trkpt>
      <trkpt lat="44.78969" lon="6.93052">
        <ele>1553</ele>
        <time>2020-08-02T06:43:09Z</time>
      </trkpt>
      <trkpt lat="44.78913" lon="6.93093">
        <ele>1554</ele>
        <time>2020-08-02T06:43:27Z</time>
      </trkpt>
      <trkpt lat="44.78829" lon="6.93158">
        <ele>1558</ele>
        <time>2020-08-02T06:43:51Z</time>
      </trkpt>
      <trkpt lat="44.78768" lon="6.93211">
        <ele>1563</ele>
        <time>2020-08-02T06:44:11Z</time>
      </trkpt>
      <trkpt lat="44.78717" lon="6.93272">
        <ele>1567</ele>
        <time>2020-08-02T06:44:28Z</time>
      </trkpt>
      <trkpt lat="44.7867" lon="6.93349">
        <ele>1567</ele>
        <time>2020-08-02T06:44:43Z</time>
      </trkpt>
      <trkpt lat="44.78594" lon="6.93462">
        <ele>1563</ele>
        <time>2020-08-02T06:45:01Z</time>
      </trkpt>
      <trkpt lat="44.785" lon="6.93558">
        <ele>1563</ele>
        <time>2020-08-02T06:45:21Z</time>
      </trkpt>
      <trkpt lat="44.78414" lon="6.93652">
        <ele>1566</ele>
        <time>2020-08-02T06:45:42Z</time>
      </trkpt>
      <trkpt lat="44.7834" lon="6.93755">
        <ele>1568</ele>
        <time>2020-08-02T06:46:02Z</time>
      </trkpt>
      <trkpt lat="44.78268" lon="6.93861">
        <ele>1575</ele>
        <time>2020-08-02T06:46:22Z</time>
      </trkpt>
      <trkpt lat="44.78199" lon="6.93974">
        <ele>1573</ele>
        <time>2020-08-02T06:46:42Z</time>
      </trkpt>
      <trkpt lat="44.78138" lon="6.94078">
        <ele>1571</ele>
        <time>2020-08-02T06:47:01Z</time>
      </trkpt>
      <trkpt lat="44.78065" lon="6.94171">
        <ele>1579</ele>
        <time>2020-08-02T06:47:21Z</time>
      </trkpt>
      <trkpt lat="44.77986" lon="6.9425">
        <ele>1585</ele>
        <time>2020-08-02T06:47:42Z</time>
      </trkpt>
      <trkpt lat="44.77912" lon="6.94324">
        <ele>1584</ele>
        <time>2020-08-02T06:48:02Z</time>
      </trkpt>
      <trkpt lat="44.77837" lon="6.94409">
        <ele>1581</ele>
        <time>2020-08-02T06:48:23Z</time>
      </trkpt>
      <trkpt lat="44.77782" lon="6.94493">
        <ele>1585</ele>
        <time>2020-08-02T06:48:41Z</time>
      </trkpt>
      <trkpt lat="44.77731" lon="6.94594">
        <ele>1587</ele>
        <time>2020-08-02T06:49:01Z</time>
      </trkpt>
      <trkpt lat="44.77687" lon="6.94718">
        <ele>1593</ele>
        <time>2020-08-02T06:49:23Z</time>
      </trkpt>
      <trkpt lat="44.7766" lon="6.94831">
        <ele>1598</ele>
        <time>2020-08-02T06:49:42Z</time>
      </trkpt>
      <trkpt lat="44.77644" lon="6.94944">
        <ele>1598</ele>
        <time>2020-08-02T06:50:00Z</time>
      </trkpt>
      <trkpt lat="44.7763" lon="6.95054">
        <ele>1599</ele>
        <time>2020-08-02T06:50:17Z</time>
      </trkpt>
      <trkpt lat="44.77623" lon="6.95099">
        <ele>1603</ele>
        <time>2020-08-02T06:50:24Z</time>
      </trkpt>
      <trkpt lat="44.77622" lon="6.95105">
        <ele>1603</ele>
        <time>2020-08-02T06:50:25Z</time>
      </trkpt>
      <trkpt lat="44.77602" lon="6.95214">
        <ele>1601</ele>
        <time>2020-08-02T06:50:43Z</time>
      </trkpt>
      <trkpt lat="44.77591" lon="6.9526">
        <ele>1601</ele>
        <time>2020-08-02T06:50:54Z</time>
      </trkpt>
      <trkpt lat="44.77571" lon="6.95332">
        <ele>1605</ele>
        <time>2020-08-02T06:51:09Z</time>
      </trkpt>
      <trkpt lat="44.77547" lon="6.95401">
        <ele>1605</ele>
        <time>2020-08-02T06:51:23Z</time>
      </trkpt>
      <trkpt lat="44.77544" lon="6.95404">
        <ele>1605</ele>
        <time>2020-08-02T06:51:24Z</time>
      </trkpt>
      <trkpt lat="44.7754" lon="6.95404">
        <ele>1605</ele>
        <time>2020-08-02T06:51:25Z</time>
      </trkpt>
      <trkpt lat="44.77536" lon="6.95402">
        <ele>1604</ele>
        <time>2020-08-02T06:51:26Z</time>
      </trkpt>
      <trkpt lat="44.77533" lon="6.954">
        <ele>1604</ele>
        <time>2020-08-02T06:51:27Z</time>
      </trkpt>
      <trkpt lat="44.7753" lon="6.95398">
        <ele>1603</ele>
        <time>2020-08-02T06:51:28Z</time>
      </trkpt>
      <trkpt lat="44.77527" lon="6.95396">
        <ele>1603</ele>
        <time>2020-08-02T06:51:29Z</time>
      </trkpt>
      <trkpt lat="44.77512" lon="6.95386">
        <ele>1603</ele>
        <time>2020-08-02T06:51:34Z</time>
      </trkpt>
      <trkpt lat="44.77509" lon="6.95387">
        <ele>1604</ele>
        <time>2020-08-02T06:51:35Z</time>
      </trkpt>
      <trkpt lat="44.77506" lon="6.95387">
        <ele>1604</ele>
        <time>2020-08-02T06:51:36Z</time>
      </trkpt>
      <trkpt lat="44.77504" lon="6.95386">
        <ele>1604</ele>
        <time>2020-08-02T06:51:37Z</time>
      </trkpt>
      <trkpt lat="44.77503" lon="6.95384">
        <ele>1604</ele>
        <time>2020-08-02T06:51:38Z</time>
      </trkpt>
      <trkpt lat="44.77502" lon="6.95383">
        <ele>1604</ele>
        <time>2020-08-02T06:51:39Z</time>
      </trkpt>
      <trkpt lat="44.77501" lon="6.95377">
        <ele>1604</ele>
        <time>2020-08-02T06:51:44Z</time>
      </trkpt>
      <trkpt lat="44.77503" lon="6.95376">
        <ele>1604</ele>
        <time>2020-08-02T06:51:45Z</time>
      </trkpt>
      <trkpt lat="44.77505" lon="6.95377">
        <ele>1604</ele>
        <time>2020-08-02T06:51:46Z</time>
      </trkpt>
      <trkpt lat="44.77506" lon="6.95381">
        <ele>1604</ele>
        <time>2020-08-02T06:51:47Z</time>
      </trkpt>
      <trkpt lat="44.77506" lon="6.95386">
        <ele>1604</ele>
        <time>2020-08-02T06:51:48Z</time>
      </trkpt>
      <trkpt lat="44.77505" lon="6.95391">
        <ele>1604</ele>
        <time>2020-08-02T06:51:49Z</time>
      </trkpt>
      <trkpt lat="44.77504" lon="6.95397">
        <ele>1605</ele>
        <time>2020-08-02T06:51:50Z</time>
      </trkpt>
      <trkpt lat="44.775" lon="6.95415">
        <ele>1606</ele>
        <time>2020-08-02T06:51:53Z</time>
      </trkpt>
      <trkpt lat="44.77498" lon="6.9542">
        <ele>1607</ele>
        <time>2020-08-02T06:51:54Z</time>
      </trkpt>
      <trkpt lat="44.77496" lon="6.95425">
        <ele>1607</ele>
        <time>2020-08-02T06:51:55Z</time>
      </trkpt>
      <trkpt lat="44.77484" lon="6.95457">
        <ele>1608</ele>
        <time>2020-08-02T06:52:01Z</time>
      </trkpt>
      <trkpt lat="44.77453" lon="6.95541">
        <ele>1611</ele>
        <time>2020-08-02T06:52:17Z</time>
      </trkpt>
      <trkpt lat="44.77415" lon="6.95644">
        <ele>1609</ele>
        <time>2020-08-02T06:52:36Z</time>
      </trkpt>
      <trkpt lat="44.77394" lon="6.95696">
        <ele>1610</ele>
        <time>2020-08-02T06:52:46Z</time>
      </trkpt>
      <trkpt lat="44.77392" lon="6.95701">
        <ele>1610</ele>
        <time>2020-08-02T06:52:47Z</time>
      </trkpt>
      <trkpt lat="44.77386" lon="6.95723">
        <ele>1610</ele>
        <time>2020-08-02T06:52:52Z</time>
      </trkpt>
      <trkpt lat="44.77389" lon="6.95728">
        <ele>1609</ele>
        <time>2020-08-02T06:52:53Z</time>
      </trkpt>
      <trkpt lat="44.77392" lon="6.95731">
        <ele>1609</ele>
        <time>2020-08-02T06:52:54Z</time>
      </trkpt>
      <trkpt lat="44.77395" lon="6.95734">
        <ele>1609</ele>
        <time>2020-08-02T06:52:55Z</time>
      </trkpt>
      <trkpt lat="44.77399" lon="6.95736">
        <ele>1609</ele>
        <time>2020-08-02T06:52:56Z</time>
      </trkpt>
      <trkpt lat="44.77423" lon="6.95753">
        <ele>1609</ele>
        <time>2020-08-02T06:53:03Z</time>
      </trkpt>
      <trkpt lat="44.77425" lon="6.95757">
        <ele>1609</ele>
        <time>2020-08-02T06:53:04Z</time>
      </trkpt>
      <trkpt lat="44.77428" lon="6.95762">
        <ele>1609</ele>
        <time>2020-08-02T06:53:05Z</time>
      </trkpt>
      <trkpt lat="44.7743" lon="6.95767">
        <ele>1610</ele>
        <time>2020-08-02T06:53:06Z</time>
      </trkpt>
      <trkpt lat="44.77432" lon="6.95772">
        <ele>1610</ele>
        <time>2020-08-02T06:53:07Z</time>
      </trkpt>
      <trkpt lat="44.77433" lon="6.95778">
        <ele>1610</ele>
        <time>2020-08-02T06:53:08Z</time>
      </trkpt>
      <trkpt lat="44.77433" lon="6.95784">
        <ele>1610</ele>
        <time>2020-08-02T06:53:09Z</time>
      </trkpt>
      <trkpt lat="44.77434" lon="6.9579">
        <ele>1609</ele>
        <time>2020-08-02T06:53:10Z</time>
      </trkpt>
      <trkpt lat="44.77434" lon="6.95796">
        <ele>1609</ele>
        <time>2020-08-02T06:53:11Z</time>
      </trkpt>
      <trkpt lat="44.77433" lon="6.95801">
        <ele>1609</ele>
        <time>2020-08-02T06:53:12Z</time>
      </trkpt>
      <trkpt lat="44.77424" lon="6.95862">
        <ele>1606</ele>
        <time>2020-08-02T06:53:23Z</time>
      </trkpt>
      <trkpt lat="44.77416" lon="6.95912">
        <ele>1607</ele>
        <time>2020-08-02T06:53:32Z</time>
      </trkpt>
      <trkpt lat="44.77415" lon="6.95918">
        <ele>1607</ele>
        <time>2020-08-02T06:53:33Z</time>
      </trkpt>
      <trkpt lat="44.774" lon="6.96015">
        <ele>1613</ele>
        <time>2020-08-02T06:53:50Z</time>
      </trkpt>
      <trkpt lat="44.77379" lon="6.96146">
        <ele>1613</ele>
        <time>2020-08-02T06:54:13Z</time>
      </trkpt>
      <trkpt lat="44.77362" lon="6.96263">
        <ele>1621</ele>
        <time>2020-08-02T06:54:34Z</time>
      </trkpt>
      <trkpt lat="44.7735" lon="6.96351">
        <ele>1623</ele>
        <time>2020-08-02T06:54:50Z</time>
      </trkpt>
      <trkpt lat="44.77334" lon="6.96449">
        <ele>1626</ele>
        <time>2020-08-02T06:55:08Z</time>
      </trkpt>
      <trkpt lat="44.77318" lon="6.96554">
        <ele>1625</ele>
        <time>2020-08-02T06:55:26Z</time>
      </trkpt>
      <trkpt lat="44.77305" lon="6.96647">
        <ele>1621</ele>
        <time>2020-08-02T06:55:42Z</time>
      </trkpt>
      <trkpt lat="44.77285" lon="6.9678">
        <ele>1627</ele>
        <time>2020-08-02T06:56:05Z</time>
      </trkpt>
      <trkpt lat="44.77278" lon="6.96827">
        <ele>1629</ele>
        <time>2020-08-02T06:56:13Z</time>
      </trkpt>
      <trkpt lat="44.77261" lon="6.9692">
        <ele>1631</ele>
        <time>2020-08-02T06:56:29Z</time>
      </trkpt>
      <trkpt lat="44.77231" lon="6.97025">
        <ele>1631</ele>
        <time>2020-08-02T06:56:48Z</time>
      </trkpt>
      <trkpt lat="44.77184" lon="6.97138">
        <ele>1631</ele>
        <time>2020-08-02T06:57:10Z</time>
      </trkpt>
      <trkpt lat="44.77133" lon="6.97243">
        <ele>1631</ele>
        <time>2020-08-02T06:57:31Z</time>
      </trkpt>
      <trkpt lat="44.77125" lon="6.97258">
        <ele>1632</ele>
        <time>2020-08-02T06:57:34Z</time>
      </trkpt>
      <trkpt lat="44.77122" lon="6.97263">
        <ele>1633</ele>
        <time>2020-08-02T06:57:35Z</time>
      </trkpt>
      <trkpt lat="44.77056" lon="6.97395">
        <ele>1634</ele>
        <time>2020-08-02T06:58:01Z</time>
      </trkpt>
      <trkpt lat="44.76997" lon="6.97513">
        <ele>1637</ele>
        <time>2020-08-02T06:58:24Z</time>
      </trkpt>
      <trkpt lat="44.7694" lon="6.97627">
        <ele>1643</ele>
        <time>2020-08-02T06:58:47Z</time>
      </trkpt>
      <trkpt lat="44.76905" lon="6.97697">
        <ele>1645</ele>
        <time>2020-08-02T06:59:03Z</time>
      </trkpt>
      <trkpt lat="44.76868" lon="6.97772">
        <ele>1647</ele>
        <time>2020-08-02T06:59:21Z</time>
      </trkpt>
      <trkpt lat="44.76829" lon="6.97849">
        <ele>1651</ele>
        <time>2020-08-02T06:59:40Z</time>
      </trkpt>
      <trkpt lat="44.76796" lon="6.97916">
        <ele>1656</ele>
        <time>2020-08-02T06:59:56Z</time>
      </trkpt>
      <trkpt lat="44.76761" lon="6.97985">
        <ele>1659</ele>
        <time>2020-08-02T07:00:13Z</time>
      </trkpt>
      <trkpt lat="44.76723" lon="6.98059">
        <ele>1659</ele>
        <time>2020-08-02T07:00:31Z</time>
      </trkpt>
      <trkpt lat="44.76681" lon="6.98146">
        <ele>1659</ele>
        <time>2020-08-02T07:00:51Z</time>
      </trkpt>
      <trkpt lat="44.7663" lon="6.98249">
        <ele>1663</ele>
        <time>2020-08-02T07:01:14Z</time>
      </trkpt>
      <trkpt lat="44.76593" lon="6.98322">
        <ele>1666</ele>
        <time>2020-08-02T07:01:31Z</time>
      </trkpt>
      <trkpt lat="44.76545" lon="6.98418">
        <ele>1671</ele>
        <time>2020-08-02T07:01:53Z</time>
      </trkpt>
      <trkpt lat="44.76503" lon="6.98503">
        <ele>1672</ele>
        <time>2020-08-02T07:02:12Z</time>
      </trkpt>
      <trkpt lat="44.76461" lon="6.98587">
        <ele>1675</ele>
        <time>2020-08-02T07:02:31Z</time>
      </trkpt>
      <trkpt lat="44.76412" lon="6.98683">
        <ele>1675</ele>
        <time>2020-08-02T07:02:53Z</time>
      </trkpt>
      <trkpt lat="44.7636" lon="6.98788">
        <ele>1676</ele>
        <time>2020-08-02T07:03:16Z</time>
      </trkpt>
      <trkpt lat="44.7632" lon="6.98869">
        <ele>1678</ele>
        <time>2020-08-02T07:03:34Z</time>
      </trkpt>
      <trkpt lat="44.76281" lon="6.98947">
        <ele>1679</ele>
        <time>2020-08-02T07:03:51Z</time>
      </trkpt>
      <trkpt lat="44.76247" lon="6.99015">
        <ele>1681</ele>
        <time>2020-08-02T07:04:06Z</time>
      </trkpt>
      <trkpt lat="44.76196" lon="6.99116">
        <ele>1684</ele>
        <time>2020-08-02T07:04:28Z</time>
      </trkpt>
      <trkpt lat="44.76149" lon="6.99192">
        <ele>1685</ele>
        <time>2020-08-02T07:04:45Z</time>
      </trkpt>
      <trkpt lat="44.76076" lon="6.9925">
        <ele>1691</ele>
        <time>2020-08-02T07:05:04Z</time>
      </trkpt>
      <trkpt lat="44.75998" lon="6.99268">
        <ele>1693</ele>
        <time>2020-08-02T07:05:22Z</time>
      </trkpt>
      <trkpt lat="44.75915" lon="6.99271">
        <ele>1699</ele>
        <time>2020-08-02T07:05:41Z</time>
      </trkpt>
      <trkpt lat="44.75846" lon="6.99275">
        <ele>1696</ele>
        <time>2020-08-02T07:05:57Z</time>
      </trkpt>
      <trkpt lat="44.75776" lon="6.99272">
        <ele>1699</ele>
        <time>2020-08-02T07:06:14Z</time>
      </trkpt>
      <trkpt lat="44.75722" lon="6.99261">
        <ele>1698</ele>
        <time>2020-08-02T07:06:28Z</time>
      </trkpt>
      <trkpt lat="44.7566" lon="6.99247">
        <ele>1700</ele>
        <time>2020-08-02T07:06:45Z</time>
      </trkpt>
      <trkpt lat="44.75607" lon="6.99236">
        <ele>1705</ele>
        <time>2020-08-02T07:07:00Z</time>
      </trkpt>
      <trkpt lat="44.75566" lon="6.99242">
        <ele>1705</ele>
        <time>2020-08-02T07:07:13Z</time>
      </trkpt>
      <trkpt lat="44.75519" lon="6.99256">
        <ele>1708</ele>
        <time>2020-08-02T07:07:28Z</time>
      </trkpt>
      <trkpt lat="44.75479" lon="6.99268">
        <ele>1710</ele>
        <time>2020-08-02T07:07:43Z</time>
      </trkpt>
      <trkpt lat="44.75441" lon="6.99279">
        <ele>1712</ele>
        <time>2020-08-02T07:08:00Z</time>
      </trkpt>
      <trkpt lat="44.75412" lon="6.99287">
        <ele>1716</ele>
        <time>2020-08-02T07:08:14Z</time>
      </trkpt>
      <trkpt lat="44.7541" lon="6.99287">
        <ele>1717</ele>
        <time>2020-08-02T07:08:15Z</time>
      </trkpt>
      <trkpt lat="44.75408" lon="6.99288">
        <ele>1717</ele>
        <time>2020-08-02T07:08:16Z</time>
      </trkpt>
      <trkpt lat="44.75406" lon="6.99289">
        <ele>1717</ele>
        <time>2020-08-02T07:08:17Z</time>
      </trkpt>
      <trkpt lat="44.75404" lon="6.99289">
        <ele>1717</ele>
        <time>2020-08-02T07:08:18Z</time>
      </trkpt>
      <trkpt lat="44.75402" lon="6.9929">
        <ele>1717</ele>
        <time>2020-08-02T07:08:19Z</time>
      </trkpt>
      <trkpt lat="44.75372" lon="6.9931">
        <ele>1720</ele>
        <time>2020-08-02T07:08:34Z</time>
      </trkpt>
      <trkpt lat="44.75336" lon="6.9932">
        <ele>1722</ele>
        <time>2020-08-02T07:08:48Z</time>
      </trkpt>
      <trkpt lat="44.75303" lon="6.99335">
        <ele>1724</ele>
        <time>2020-08-02T07:09:01Z</time>
      </trkpt>
      <trkpt lat="44.75265" lon="6.99353">
        <ele>1723</ele>
        <time>2020-08-02T07:09:14Z</time>
      </trkpt>
      <trkpt lat="44.75216" lon="6.99374">
        <ele>1724</ele>
        <time>2020-08-02T07:09:30Z</time>
      </trkpt>
      <trkpt lat="44.75188" lon="6.99405">
        <ele>1725</ele>
        <time>2020-08-02T07:09:41Z</time>
      </trkpt>
      <trkpt lat="44.75153" lon="6.99438">
        <ele>1728</ele>
        <time>2020-08-02T07:09:54Z</time>
      </trkpt>
      <trkpt lat="44.75107" lon="6.99461">
        <ele>1730</ele>
        <time>2020-08-02T07:10:10Z</time>
      </trkpt>
      <trkpt lat="44.75064" lon="6.99477">
        <ele>1731</ele>
        <time>2020-08-02T07:10:25Z</time>
      </trkpt>
      <trkpt lat="44.75038" lon="6.99487">
        <ele>1730</ele>
        <time>2020-08-02T07:10:37Z</time>
      </trkpt>
      <trkpt lat="44.75002" lon="6.99506">
        <ele>1732</ele>
        <time>2020-08-02T07:10:49Z</time>
      </trkpt>
      <trkpt lat="44.74963" lon="6.99521">
        <ele>1732</ele>
        <time>2020-08-02T07:11:01Z</time>
      </trkpt>
      <trkpt lat="44.74909" lon="6.99532">
        <ele>1737</ele>
        <time>2020-08-02T07:11:17Z</time>
      </trkpt>
      <trkpt lat="44.74861" lon="6.99536">
        <ele>1736</ele>
        <time>2020-08-02T07:11:32Z</time>
      </trkpt>
      <trkpt lat="44.74808" lon="6.99548">
        <ele>1738</ele>
        <time>2020-08-02T07:11:49Z</time>
      </trkpt>
      <trkpt lat="44.74759" lon="6.99551">
        <ele>1741</ele>
        <time>2020-08-02T07:12:04Z</time>
      </trkpt>
      <trkpt lat="44.74705" lon="6.9954">
        <ele>1748</ele>
        <time>2020-08-02T07:12:21Z</time>
      </trkpt>
      <trkpt lat="44.74656" lon="6.99521">
        <ele>1753</ele>
        <time>2020-08-02T07:12:37Z</time>
      </trkpt>
      <trkpt lat="44.7461" lon="6.99511">
        <ele>1753</ele>
        <time>2020-08-02T07:12:51Z</time>
      </trkpt>
      <trkpt lat="44.74558" lon="6.99496">
        <ele>1754</ele>
        <time>2020-08-02T07:13:07Z</time>
      </trkpt>
      <trkpt lat="44.74506" lon="6.99481">
        <ele>1759</ele>
        <time>2020-08-02T07:13:24Z</time>
      </trkpt>
      <trkpt lat="44.74467" lon="6.99468">
        <ele>1763</ele>
        <time>2020-08-02T07:13:37Z</time>
      </trkpt>
      <trkpt lat="44.74422" lon="6.99451">
        <ele>1763</ele>
        <time>2020-08-02T07:13:52Z</time>
      </trkpt>
      <trkpt lat="44.74361" lon="6.99438">
        <ele>1763</ele>
        <time>2020-08-02T07:14:12Z</time>
      </trkpt>
      <trkpt lat="44.74319" lon="6.99438">
        <ele>1764</ele>
        <time>2020-08-02T07:14:28Z</time>
      </trkpt>
      <trkpt lat="44.74273" lon="6.99438">
        <ele>1769</ele>
        <time>2020-08-02T07:14:45Z</time>
      </trkpt>
      <trkpt lat="44.74234" lon="6.99435">
        <ele>1771</ele>
        <time>2020-08-02T07:14:58Z</time>
      </trkpt>
      <trkpt lat="44.74176" lon="6.99433">
        <ele>1772</ele>
        <time>2020-08-02T07:15:17Z</time>
      </trkpt>
      <trkpt lat="44.74129" lon="6.99435">
        <ele>1777</ele>
        <time>2020-08-02T07:15:33Z</time>
      </trkpt>
      <trkpt lat="44.74082" lon="6.99443">
        <ele>1776</ele>
        <time>2020-08-02T07:15:49Z</time>
      </trkpt>
      <trkpt lat="44.74031" lon="6.99457">
        <ele>1775</ele>
        <time>2020-08-02T07:16:07Z</time>
      </trkpt>
      <trkpt lat="44.73987" lon="6.99459">
        <ele>1771</ele>
        <time>2020-08-02T07:16:22Z</time>
      </trkpt>
      <trkpt lat="44.73948" lon="6.9948">
        <ele>1780</ele>
        <time>2020-08-02T07:16:38Z</time>
      </trkpt>
      <trkpt lat="44.73916" lon="6.99506">
        <ele>1778</ele>
        <time>2020-08-02T07:16:52Z</time>
      </trkpt>
      <trkpt lat="44.73881" lon="6.99544">
        <ele>1780</ele>
        <time>2020-08-02T07:17:09Z</time>
      </trkpt>
      <trkpt lat="44.73849" lon="6.99574">
        <ele>1782</ele>
        <time>2020-08-02T07:17:25Z</time>
      </trkpt>
      <trkpt lat="44.73831" lon="6.99603">
        <ele>1785</ele>
        <time>2020-08-02T07:17:40Z</time>
      </trkpt>
      <trkpt lat="44.73809" lon="6.99623">
        <ele>1788</ele>
        <time>2020-08-02T07:17:54Z</time>
      </trkpt>
      <trkpt lat="44.73792" lon="6.99631">
        <ele>1788</ele>
        <time>2020-08-02T07:18:00Z</time>
      </trkpt>
      <trkpt lat="44.73789" lon="6.99634">
        <ele>1788</ele>
        <time>2020-08-02T07:18:01Z</time>
      </trkpt>
      <trkpt lat="44.73757" lon="6.99669">
        <ele>1788</ele>
        <time>2020-08-02T07:18:14Z</time>
      </trkpt>
      <trkpt lat="44.73725" lon="6.99701">
        <ele>1789</ele>
        <time>2020-08-02T07:18:28Z</time>
      </trkpt>
      <trkpt lat="44.737" lon="6.99735">
        <ele>1795</ele>
        <time>2020-08-02T07:18:41Z</time>
      </trkpt>
      <trkpt lat="44.73676" lon="6.99765">
        <ele>1799</ele>
        <time>2020-08-02T07:18:56Z</time>
      </trkpt>
      <trkpt lat="44.7365" lon="6.998">
        <ele>1801</ele>
        <time>2020-08-02T07:19:07Z</time>
      </trkpt>
      <trkpt lat="44.73632" lon="6.99813">
        <ele>1801</ele>
        <time>2020-08-02T07:19:19Z</time>
      </trkpt>
      <trkpt lat="44.73612" lon="6.99825">
        <ele>1800</ele>
        <time>2020-08-02T07:19:31Z</time>
      </trkpt>
      <trkpt lat="44.73591" lon="6.99853">
        <ele>1804</ele>
        <time>2020-08-02T07:19:46Z</time>
      </trkpt>
      <trkpt lat="44.73564" lon="6.99868">
        <ele>1805</ele>
        <time>2020-08-02T07:20:01Z</time>
      </trkpt>
      <trkpt lat="44.73558" lon="6.99878">
        <ele>1806</ele>
        <time>2020-08-02T07:20:07Z</time>
      </trkpt>
      <trkpt lat="44.73562" lon="6.99883">
        <ele>1807</ele>
        <time>2020-08-02T07:20:11Z</time>
      </trkpt>
      <trkpt lat="44.73567" lon="6.9988">
        <ele>1807</ele>
        <time>2020-08-02T07:20:19Z</time>
      </trkpt>
      <trkpt lat="44.73576" lon="6.9988">
        <ele>1808</ele>
        <time>2020-08-02T07:20:32Z</time>
      </trkpt>
      <trkpt lat="44.73578" lon="6.9988">
        <ele>1809</ele>
        <time>2020-08-02T07:20:34Z</time>
      </trkpt>
      <trkpt lat="44.73583" lon="6.99886">
        <ele>1811</ele>
        <time>2020-08-02T07:20:38Z</time>
      </trkpt>
      <trkpt lat="44.73584" lon="6.99892">
        <ele>1812</ele>
        <time>2020-08-02T07:20:42Z</time>
      </trkpt>
      <trkpt lat="44.73585" lon="6.99897">
        <ele>1812</ele>
        <time>2020-08-02T07:20:44Z</time>
      </trkpt>
      <trkpt lat="44.73572" lon="6.99924">
        <ele>1813</ele>
        <time>2020-08-02T07:21:00Z</time>
      </trkpt>
      <trkpt lat="44.73554" lon="6.99951">
        <ele>1815</ele>
        <time>2020-08-02T07:21:18Z</time>
      </trkpt>
      <trkpt lat="44.73549" lon="6.99957">
        <ele>1816</ele>
        <time>2020-08-02T07:21:23Z</time>
      </trkpt>
      <trkpt lat="44.73562" lon="6.99969">
        <ele>1819</ele>
        <time>2020-08-02T07:21:34Z</time>
      </trkpt>
      <trkpt lat="44.73579" lon="6.9999">
        <ele>1826</ele>
        <time>2020-08-02T07:21:51Z</time>
      </trkpt>
      <trkpt lat="44.73574" lon="7">
        <ele>1829</ele>
        <time>2020-08-02T07:21:57Z</time>
      </trkpt>
      <trkpt lat="44.73565" lon="6.99999">
        <ele>1828</ele>
        <time>2020-08-02T07:22:03Z</time>
      </trkpt>
      <trkpt lat="44.73544" lon="6.99996">
        <ele>1828</ele>
        <time>2020-08-02T07:22:19Z</time>
      </trkpt>
      <trkpt lat="44.73527" lon="7.00008">
        <ele>1833</ele>
        <time>2020-08-02T07:22:33Z</time>
      </trkpt>
      <trkpt lat="44.73527" lon="7.0001">
        <ele>1833</ele>
        <time>2020-08-02T07:22:34Z</time>
      </trkpt>
      <trkpt lat="44.73529" lon="7.00023">
        <ele>1837</ele>
        <time>2020-08-02T07:22:41Z</time>
      </trkpt>
      <trkpt lat="44.73555" lon="7.00034">
        <ele>1839</ele>
        <time>2020-08-02T07:22:59Z</time>
      </trkpt>
      <trkpt lat="44.73577" lon="7.00054">
        <ele>1843</ele>
        <time>2020-08-02T07:23:16Z</time>
      </trkpt>
      <trkpt lat="44.73603" lon="7.00066">
        <ele>1854</ele>
        <time>2020-08-02T07:23:34Z</time>
      </trkpt>
      <trkpt lat="44.73617" lon="7.00071">
        <ele>1858</ele>
        <time>2020-08-02T07:23:43Z</time>
      </trkpt>
      <trkpt lat="44.73613" lon="7.00079">
        <ele>1861</ele>
        <time>2020-08-02T07:23:48Z</time>
      </trkpt>
      <trkpt lat="44.73595" lon="7.00083">
        <ele>1859</ele>
        <time>2020-08-02T07:24:01Z</time>
      </trkpt>
      <trkpt lat="44.73575" lon="7.0008">
        <ele>1854</ele>
        <time>2020-08-02T07:24:17Z</time>
      </trkpt>
      <trkpt lat="44.73557" lon="7.00088">
        <ele>1855</ele>
        <time>2020-08-02T07:24:32Z</time>
      </trkpt>
      <trkpt lat="44.73539" lon="7.00108">
        <ele>1860</ele>
        <time>2020-08-02T07:24:46Z</time>
      </trkpt>
      <trkpt lat="44.73521" lon="7.00115">
        <ele>1863</ele>
        <time>2020-08-02T07:24:57Z</time>
      </trkpt>
      <trkpt lat="44.73499" lon="7.00109">
        <ele>1869</ele>
        <time>2020-08-02T07:25:11Z</time>
      </trkpt>
      <trkpt lat="44.73488" lon="7.00093">
        <ele>1869</ele>
        <time>2020-08-02T07:25:21Z</time>
      </trkpt>
      <trkpt lat="44.73487" lon="7.00091">
        <ele>1868</ele>
        <time>2020-08-02T07:25:22Z</time>
      </trkpt>
      <trkpt lat="44.73486" lon="7.00089">
        <ele>1868</ele>
        <time>2020-08-02T07:25:23Z</time>
      </trkpt>
      <trkpt lat="44.73485" lon="7.00088">
        <ele>1868</ele>
        <time>2020-08-02T07:25:24Z</time>
      </trkpt>
      <trkpt lat="44.73484" lon="7.00086">
        <ele>1868</ele>
        <time>2020-08-02T07:25:25Z</time>
      </trkpt>
      <trkpt lat="44.73482" lon="7.00086">
        <ele>1868</ele>
        <time>2020-08-02T07:25:26Z</time>
      </trkpt>
      <trkpt lat="44.73481" lon="7.00085">
        <ele>1868</ele>
        <time>2020-08-02T07:25:27Z</time>
      </trkpt>
      <trkpt lat="44.73459" lon="7.00081">
        <ele>1870</ele>
        <time>2020-08-02T07:25:42Z</time>
      </trkpt>
      <trkpt lat="44.73441" lon="7.00089">
        <ele>1873</ele>
        <time>2020-08-02T07:25:56Z</time>
      </trkpt>
      <trkpt lat="44.73441" lon="7.00089">
        <ele>1873</ele>
        <time>2020-08-02T07:25:57Z</time>
      </trkpt>
      <trkpt lat="44.73424" lon="7.001">
        <ele>1874</ele>
        <time>2020-08-02T07:26:11Z</time>
      </trkpt>
      <trkpt lat="44.73412" lon="7.00113">
        <ele>1878</ele>
        <time>2020-08-02T07:26:23Z</time>
      </trkpt>
      <trkpt lat="44.73391" lon="7.00119">
        <ele>1884</ele>
        <time>2020-08-02T07:26:38Z</time>
      </trkpt>
      <trkpt lat="44.73368" lon="7.0012">
        <ele>1890</ele>
        <time>2020-08-02T07:26:54Z</time>
      </trkpt>
      <trkpt lat="44.73347" lon="7.0012">
        <ele>1894</ele>
        <time>2020-08-02T07:27:09Z</time>
      </trkpt>
      <trkpt lat="44.73322" lon="7.00122">
        <ele>1896</ele>
        <time>2020-08-02T07:27:23Z</time>
      </trkpt>
      <trkpt lat="44.733" lon="7.00122">
        <ele>1895</ele>
        <time>2020-08-02T07:27:37Z</time>
      </trkpt>
      <trkpt lat="44.73288" lon="7.00131">
        <ele>1895</ele>
        <time>2020-08-02T07:27:45Z</time>
      </trkpt>
      <trkpt lat="44.73271" lon="7.00148">
        <ele>1897</ele>
        <time>2020-08-02T07:27:57Z</time>
      </trkpt>
      <trkpt lat="44.73239" lon="7.00156">
        <ele>1898</ele>
        <time>2020-08-02T07:28:11Z</time>
      </trkpt>
      <trkpt lat="44.73199" lon="7.00164">
        <ele>1901</ele>
        <time>2020-08-02T07:28:27Z</time>
      </trkpt>
      <trkpt lat="44.73176" lon="7.0016">
        <ele>1897</ele>
        <time>2020-08-02T07:28:43Z</time>
      </trkpt>
      <trkpt lat="44.73153" lon="7.00167">
        <ele>1900</ele>
        <time>2020-08-02T07:28:59Z</time>
      </trkpt>
      <trkpt lat="44.73136" lon="7.00175">
        <ele>1906</ele>
        <time>2020-08-02T07:29:13Z</time>
      </trkpt>
      <trkpt lat="44.73116" lon="7.0018">
        <ele>1912</ele>
        <time>2020-08-02T07:29:30Z</time>
      </trkpt>
      <trkpt lat="44.73095" lon="7.00193">
        <ele>1917</ele>
        <time>2020-08-02T07:29:46Z</time>
      </trkpt>
      <trkpt lat="44.7308" lon="7.00205">
        <ele>1922</ele>
        <time>2020-08-02T07:30:02Z</time>
      </trkpt>
      <trkpt lat="44.73068" lon="7.00214">
        <ele>1925</ele>
        <time>2020-08-02T07:30:14Z</time>
      </trkpt>
      <trkpt lat="44.73067" lon="7.00214">
        <ele>1925</ele>
        <time>2020-08-02T07:30:15Z</time>
      </trkpt>
      <trkpt lat="44.73048" lon="7.00221">
        <ele>1927</ele>
        <time>2020-08-02T07:30:30Z</time>
      </trkpt>
      <trkpt lat="44.73027" lon="7.00229">
        <ele>1929</ele>
        <time>2020-08-02T07:30:47Z</time>
      </trkpt>
      <trkpt lat="44.7301" lon="7.00241">
        <ele>1928</ele>
        <time>2020-08-02T07:31:02Z</time>
      </trkpt>
      <trkpt lat="44.7299" lon="7.00263">
        <ele>1928</ele>
        <time>2020-08-02T07:31:18Z</time>
      </trkpt>
      <trkpt lat="44.72962" lon="7.00301">
        <ele>1931</ele>
        <time>2020-08-02T07:31:42Z</time>
      </trkpt>
      <trkpt lat="44.72938" lon="7.00325">
        <ele>1930</ele>
        <time>2020-08-02T07:32:00Z</time>
      </trkpt>
      <trkpt lat="44.72915" lon="7.00358">
        <ele>1933</ele>
        <time>2020-08-02T07:32:20Z</time>
      </trkpt>
      <trkpt lat="44.72893" lon="7.00382">
        <ele>1936</ele>
        <time>2020-08-02T07:32:37Z</time>
      </trkpt>
      <trkpt lat="44.72878" lon="7.00407">
        <ele>1940</ele>
        <time>2020-08-02T07:32:53Z</time>
      </trkpt>
      <trkpt lat="44.72856" lon="7.00436">
        <ele>1945</ele>
        <time>2020-08-02T07:33:12Z</time>
      </trkpt>
      <trkpt lat="44.72836" lon="7.00457">
        <ele>1947</ele>
        <time>2020-08-02T07:33:29Z</time>
      </trkpt>
      <trkpt lat="44.72822" lon="7.00479">
        <ele>1951</ele>
        <time>2020-08-02T07:33:42Z</time>
      </trkpt>
      <trkpt lat="44.72806" lon="7.00508">
        <ele>1956</ele>
        <time>2020-08-02T07:33:57Z</time>
      </trkpt>
      <trkpt lat="44.72782" lon="7.00535">
        <ele>1955</ele>
        <time>2020-08-02T07:34:13Z</time>
      </trkpt>
      <trkpt lat="44.72764" lon="7.00558">
        <ele>1956</ele>
        <time>2020-08-02T07:34:28Z</time>
      </trkpt>
      <trkpt lat="44.72751" lon="7.00582">
        <ele>1957</ele>
        <time>2020-08-02T07:34:46Z</time>
      </trkpt>
      <trkpt lat="44.72746" lon="7.0059">
        <ele>1957</ele>
        <time>2020-08-02T07:34:52Z</time>
      </trkpt>
      <trkpt lat="44.72745" lon="7.00591">
        <ele>1957</ele>
        <time>2020-08-02T07:34:53Z</time>
      </trkpt>
      <trkpt lat="44.72744" lon="7.00592">
        <ele>1957</ele>
        <time>2020-08-02T07:34:54Z</time>
      </trkpt>
      <trkpt lat="44.72743" lon="7.00594">
        <ele>1958</ele>
        <time>2020-08-02T07:34:55Z</time>
      </trkpt>
      <trkpt lat="44.72742" lon="7.00595">
        <ele>1958</ele>
        <time>2020-08-02T07:34:56Z</time>
      </trkpt>
      <trkpt lat="44.7274" lon="7.00597">
        <ele>1958</ele>
        <time>2020-08-02T07:34:57Z</time>
      </trkpt>
      <trkpt lat="44.72739" lon="7.00598">
        <ele>1958</ele>
        <time>2020-08-02T07:34:58Z</time>
      </trkpt>
      <trkpt lat="44.72713" lon="7.00611">
        <ele>1958</ele>
        <time>2020-08-02T07:35:14Z</time>
      </trkpt>
      <trkpt lat="44.7268" lon="7.00635">
        <ele>1965</ele>
        <time>2020-08-02T07:35:35Z</time>
      </trkpt>
      <trkpt lat="44.72654" lon="7.00623">
        <ele>1956</ele>
        <time>2020-08-02T07:35:51Z</time>
      </trkpt>
      <trkpt lat="44.72631" lon="7.0064">
        <ele>1955</ele>
        <time>2020-08-02T07:36:08Z</time>
      </trkpt>
      <trkpt lat="44.72617" lon="7.00672">
        <ele>1963</ele>
        <time>2020-08-02T07:36:26Z</time>
      </trkpt>
      <trkpt lat="44.72603" lon="7.00718">
        <ele>1976</ele>
        <time>2020-08-02T07:36:46Z</time>
      </trkpt>
      <trkpt lat="44.726" lon="7.00721">
        <ele>1976</ele>
        <time>2020-08-02T07:36:48Z</time>
      </trkpt>
      <trkpt lat="44.72598" lon="7.00721">
        <ele>1976</ele>
        <time>2020-08-02T07:36:49Z</time>
      </trkpt>
      <trkpt lat="44.72564" lon="7.00716">
        <ele>1968</ele>
        <time>2020-08-02T07:37:02Z</time>
      </trkpt>
      <trkpt lat="44.72534" lon="7.00742">
        <ele>1970</ele>
        <time>2020-08-02T07:37:15Z</time>
      </trkpt>
      <trkpt lat="44.72508" lon="7.00781">
        <ele>1971</ele>
        <time>2020-08-02T07:37:27Z</time>
      </trkpt>
      <trkpt lat="44.72484" lon="7.0079">
        <ele>1966</ele>
        <time>2020-08-02T07:37:38Z</time>
      </trkpt>
      <trkpt lat="44.72479" lon="7.00846">
        <ele>1969</ele>
        <time>2020-08-02T07:37:50Z</time>
      </trkpt>
      <trkpt lat="44.72465" lon="7.00893">
        <ele>1973</ele>
        <time>2020-08-02T07:38:01Z</time>
      </trkpt>
      <trkpt lat="44.72437" lon="7.00944">
        <ele>1975</ele>
        <time>2020-08-02T07:38:15Z</time>
      </trkpt>
      <trkpt lat="44.72421" lon="7.00976">
        <ele>1976</ele>
        <time>2020-08-02T07:38:22Z</time>
      </trkpt>
      <trkpt lat="44.72415" lon="7.00992">
        <ele>1979</ele>
        <time>2020-08-02T07:38:25Z</time>
      </trkpt>
      <trkpt lat="44.72413" lon="7.00998">
        <ele>1980</ele>
        <time>2020-08-02T07:38:26Z</time>
      </trkpt>
      <trkpt lat="44.72411" lon="7.01002">
        <ele>1980</ele>
        <time>2020-08-02T07:38:27Z</time>
      </trkpt>
      <trkpt lat="44.72402" lon="7.01021">
        <ele>1979</ele>
        <time>2020-08-02T07:38:31Z</time>
      </trkpt>
      <trkpt lat="44.7239" lon="7.0106">
        <ele>1976</ele>
        <time>2020-08-02T07:38:38Z</time>
      </trkpt>
      <trkpt lat="44.72356" lon="7.01159">
        <ele>1987</ele>
        <time>2020-08-02T07:38:58Z</time>
      </trkpt>
      <trkpt lat="44.72353" lon="7.01163">
        <ele>1987</ele>
        <time>2020-08-02T07:39:00Z</time>
      </trkpt>
      <trkpt lat="44.72351" lon="7.01165">
        <ele>1987</ele>
        <time>2020-08-02T07:39:01Z</time>
      </trkpt>
      <trkpt lat="44.72349" lon="7.01167">
        <ele>1987</ele>
        <time>2020-08-02T07:39:02Z</time>
      </trkpt>
      <trkpt lat="44.72348" lon="7.01168">
        <ele>1987</ele>
        <time>2020-08-02T07:39:03Z</time>
      </trkpt>
      <trkpt lat="44.72346" lon="7.0117">
        <ele>1987</ele>
        <time>2020-08-02T07:39:04Z</time>
      </trkpt>
      <trkpt lat="44.72344" lon="7.01172">
        <ele>1987</ele>
        <time>2020-08-02T07:39:05Z</time>
      </trkpt>
      <trkpt lat="44.72341" lon="7.01174">
        <ele>1986</ele>
        <time>2020-08-02T07:39:06Z</time>
      </trkpt>
      <trkpt lat="44.72307" lon="7.01201">
        <ele>1983</ele>
        <time>2020-08-02T07:39:20Z</time>
      </trkpt>
      <trkpt lat="44.72269" lon="7.01241">
        <ele>1987</ele>
        <time>2020-08-02T07:39:37Z</time>
      </trkpt>
      <trkpt lat="44.72234" lon="7.01274">
        <ele>1987</ele>
        <time>2020-08-02T07:39:53Z</time>
      </trkpt>
      <trkpt lat="44.722" lon="7.013">
        <ele>1989</ele>
        <time>2020-08-02T07:40:09Z</time>
      </trkpt>
      <trkpt lat="44.7216" lon="7.01324">
        <ele>1990</ele>
        <time>2020-08-02T07:40:25Z</time>
      </trkpt>
      <trkpt lat="44.72129" lon="7.0136">
        <ele>1995</ele>
        <time>2020-08-02T07:40:38Z</time>
      </trkpt>
      <trkpt lat="44.72106" lon="7.01374">
        <ele>1994</ele>
        <time>2020-08-02T07:40:50Z</time>
      </trkpt>
      <trkpt lat="44.72072" lon="7.01396">
        <ele>1992</ele>
        <time>2020-08-02T07:41:04Z</time>
      </trkpt>
      <trkpt lat="44.72048" lon="7.01418">
        <ele>1990</ele>
        <time>2020-08-02T07:41:10Z</time>
      </trkpt>
      <trkpt lat="44.72031" lon="7.01432">
        <ele>1991</ele>
        <time>2020-08-02T07:41:13Z</time>
      </trkpt>
      <trkpt lat="44.72025" lon="7.01436">
        <ele>1991</ele>
        <time>2020-08-02T07:41:14Z</time>
      </trkpt>
      <trkpt lat="44.72018" lon="7.0144">
        <ele>1991</ele>
        <time>2020-08-02T07:41:15Z</time>
      </trkpt>
      <trkpt lat="44.72012" lon="7.01443">
        <ele>1991</ele>
        <time>2020-08-02T07:41:16Z</time>
      </trkpt>
      <trkpt lat="44.72006" lon="7.01446">
        <ele>1991</ele>
        <time>2020-08-02T07:41:17Z</time>
      </trkpt>
      <trkpt lat="44.71999" lon="7.0145">
        <ele>1991</ele>
        <time>2020-08-02T07:41:18Z</time>
      </trkpt>
      <trkpt lat="44.71951" lon="7.01479">
        <ele>1994</ele>
        <time>2020-08-02T07:41:28Z</time>
      </trkpt>
      <trkpt lat="44.71928" lon="7.01507">
        <ele>1993</ele>
        <time>2020-08-02T07:41:40Z</time>
      </trkpt>
      <trkpt lat="44.71905" lon="7.01547">
        <ele>1994</ele>
        <time>2020-08-02T07:41:58Z</time>
      </trkpt>
      <trkpt lat="44.71876" lon="7.01584">
        <ele>1996</ele>
        <time>2020-08-02T07:42:18Z</time>
      </trkpt>
      <trkpt lat="44.71851" lon="7.01608">
        <ele>1998</ele>
        <time>2020-08-02T07:42:34Z</time>
      </trkpt>
      <trkpt lat="44.71822" lon="7.01641">
        <ele>2001</ele>
        <time>2020-08-02T07:42:54Z</time>
      </trkpt>
      <trkpt lat="44.71802" lon="7.01672">
        <ele>2004</ele>
        <time>2020-08-02T07:43:11Z</time>
      </trkpt>
      <trkpt lat="44.71781" lon="7.01698">
        <ele>2007</ele>
        <time>2020-08-02T07:43:26Z</time>
      </trkpt>
      <trkpt lat="44.71757" lon="7.01717">
        <ele>2009</ele>
        <time>2020-08-02T07:43:39Z</time>
      </trkpt>
      <trkpt lat="44.71724" lon="7.0176">
        <ele>2010</ele>
        <time>2020-08-02T07:43:58Z</time>
      </trkpt>
      <trkpt lat="44.71694" lon="7.01804">
        <ele>2011</ele>
        <time>2020-08-02T07:44:14Z</time>
      </trkpt>
      <trkpt lat="44.71667" lon="7.01877">
        <ele>2013</ele>
        <time>2020-08-02T07:44:31Z</time>
      </trkpt>
      <trkpt lat="44.7162" lon="7.01957">
        <ele>2010</ele>
        <time>2020-08-02T07:44:51Z</time>
      </trkpt>
      <trkpt lat="44.71593" lon="7.02005">
        <ele>2012</ele>
        <time>2020-08-02T07:45:04Z</time>
      </trkpt>
      <trkpt lat="44.71562" lon="7.02059">
        <ele>2019</ele>
        <time>2020-08-02T07:45:17Z</time>
      </trkpt>
      <trkpt lat="44.71503" lon="7.02091">
        <ele>2014</ele>
        <time>2020-08-02T07:45:29Z</time>
      </trkpt>
      <trkpt lat="44.71499" lon="7.02093">
        <ele>2014</ele>
        <time>2020-08-02T07:45:30Z</time>
      </trkpt>
      <trkpt lat="44.7147" lon="7.02132">
        <ele>2017</ele>
        <time>2020-08-02T07:45:42Z</time>
      </trkpt>
      <trkpt lat="44.71438" lon="7.02171">
        <ele>2020</ele>
        <time>2020-08-02T07:45:56Z</time>
      </trkpt>
      <trkpt lat="44.71411" lon="7.0219">
        <ele>2022</ele>
        <time>2020-08-02T07:46:11Z</time>
      </trkpt>
      <trkpt lat="44.7141" lon="7.02192">
        <ele>2022</ele>
        <time>2020-08-02T07:46:16Z</time>
      </trkpt>
      <trkpt lat="44.71405" lon="7.02194">
        <ele>2022</ele>
        <time>2020-08-02T07:48:33Z</time>
      </trkpt>
      <trkpt lat="44.71403" lon="7.02195">
        <ele>2022</ele>
        <time>2020-08-02T07:48:34Z</time>
      </trkpt>
      <trkpt lat="44.71402" lon="7.02195">
        <ele>2022</ele>
        <time>2020-08-02T07:48:35Z</time>
      </trkpt>
      <trkpt lat="44.714" lon="7.02196">
        <ele>2022</ele>
        <time>2020-08-02T07:48:36Z</time>
      </trkpt>
      <trkpt lat="44.71398" lon="7.02196">
        <ele>2022</ele>
        <time>2020-08-02T07:48:37Z</time>
      </trkpt>
      <trkpt lat="44.71396" lon="7.02197">
        <ele>2022</ele>
        <time>2020-08-02T07:48:38Z</time>
      </trkpt>
      <trkpt lat="44.71394" lon="7.02197">
        <ele>2022</ele>
        <time>2020-08-02T07:48:39Z</time>
      </trkpt>
      <trkpt lat="44.71392" lon="7.02196">
        <ele>2021</ele>
        <time>2020-08-02T07:48:40Z</time>
      </trkpt>
      <trkpt lat="44.7139" lon="7.02196">
        <ele>2021</ele>
        <time>2020-08-02T07:48:41Z</time>
      </trkpt>
      <trkpt lat="44.71388" lon="7.02197">
        <ele>2021</ele>
        <time>2020-08-02T07:48:42Z</time>
      </trkpt>
      <trkpt lat="44.71386" lon="7.02197">
        <ele>2021</ele>
        <time>2020-08-02T07:48:43Z</time>
      </trkpt>
      <trkpt lat="44.71384" lon="7.02198">
        <ele>2021</ele>
        <time>2020-08-02T07:48:44Z</time>
      </trkpt>
      <trkpt lat="44.71381" lon="7.02199">
        <ele>2021</ele>
        <time>2020-08-02T07:48:45Z</time>
      </trkpt>
      <trkpt lat="44.71379" lon="7.022">
        <ele>2021</ele>
        <time>2020-08-02T07:48:46Z</time>
      </trkpt>
      <trkpt lat="44.71333" lon="7.0221">
        <ele>2023</ele>
        <time>2020-08-02T07:49:04Z</time>
      </trkpt>
      <trkpt lat="44.71293" lon="7.02222">
        <ele>2022</ele>
        <time>2020-08-02T07:49:19Z</time>
      </trkpt>
      <trkpt lat="44.71267" lon="7.02275">
        <ele>2024</ele>
        <time>2020-08-02T07:49:33Z</time>
      </trkpt>
      <trkpt lat="44.71239" lon="7.02335">
        <ele>2029</ele>
        <time>2020-08-02T07:49:47Z</time>
      </trkpt>
      <trkpt lat="44.71212" lon="7.02401">
        <ele>2032</ele>
        <time>2020-08-02T07:50:04Z</time>
      </trkpt>
      <trkpt lat="44.712" lon="7.02472">
        <ele>2037</ele>
        <time>2020-08-02T07:50:23Z</time>
      </trkpt>
      <trkpt lat="44.71196" lon="7.02546">
        <ele>2043</ele>
        <time>2020-08-02T07:50:42Z</time>
      </trkpt>
      <trkpt lat="44.71184" lon="7.02569">
        <ele>2048</ele>
        <time>2020-08-02T07:50:54Z</time>
      </trkpt>
      <trkpt lat="44.7115" lon="7.02578">
        <ele>2045</ele>
        <time>2020-08-02T07:51:10Z</time>
      </trkpt>
      <trkpt lat="44.71149" lon="7.02583">
        <ele>2046</ele>
        <time>2020-08-02T07:51:12Z</time>
      </trkpt>
      <trkpt lat="44.71152" lon="7.02589">
        <ele>2049</ele>
        <time>2020-08-02T07:51:14Z</time>
      </trkpt>
      <trkpt lat="44.71154" lon="7.02591">
        <ele>2050</ele>
        <time>2020-08-02T07:51:15Z</time>
      </trkpt>
      <trkpt lat="44.71155" lon="7.02592">
        <ele>2051</ele>
        <time>2020-08-02T07:51:16Z</time>
      </trkpt>
      <trkpt lat="44.71157" lon="7.02592">
        <ele>2051</ele>
        <time>2020-08-02T07:51:17Z</time>
      </trkpt>
      <trkpt lat="44.71159" lon="7.02592">
        <ele>2052</ele>
        <time>2020-08-02T07:51:18Z</time>
      </trkpt>
      <trkpt lat="44.71161" lon="7.02592">
        <ele>2052</ele>
        <time>2020-08-02T07:51:19Z</time>
      </trkpt>
      <trkpt lat="44.71163" lon="7.02592">
        <ele>2052</ele>
        <time>2020-08-02T07:51:20Z</time>
      </trkpt>
      <trkpt lat="44.71164" lon="7.02592">
        <ele>2053</ele>
        <time>2020-08-02T07:51:21Z</time>
      </trkpt>
      <trkpt lat="44.71166" lon="7.02593">
        <ele>2054</ele>
        <time>2020-08-02T07:51:22Z</time>
      </trkpt>
      <trkpt lat="44.71168" lon="7.02593">
        <ele>2054</ele>
        <time>2020-08-02T07:51:23Z</time>
      </trkpt>
      <trkpt lat="44.71186" lon="7.026">
        <ele>2063</ele>
        <time>2020-08-02T07:51:32Z</time>
      </trkpt>
      <trkpt lat="44.71187" lon="7.02603">
        <ele>2065</ele>
        <time>2020-08-02T07:51:33Z</time>
      </trkpt>
      <trkpt lat="44.71188" lon="7.02606">
        <ele>2066</ele>
        <time>2020-08-02T07:51:34Z</time>
      </trkpt>
      <trkpt lat="44.71188" lon="7.02608">
        <ele>2068</ele>
        <time>2020-08-02T07:51:35Z</time>
      </trkpt>
      <trkpt lat="44.71183" lon="7.02617">
        <ele>2070</ele>
        <time>2020-08-02T07:51:42Z</time>
      </trkpt>
      <trkpt lat="44.71182" lon="7.02619">
        <ele>2070</ele>
        <time>2020-08-02T07:51:43Z</time>
      </trkpt>
      <trkpt lat="44.71181" lon="7.02633">
        <ele>2076</ele>
        <time>2020-08-02T07:51:51Z</time>
      </trkpt>
      <trkpt lat="44.71175" lon="7.02644">
        <ele>2078</ele>
        <time>2020-08-02T07:52:00Z</time>
      </trkpt>
      <trkpt lat="44.71171" lon="7.02646">
        <ele>2077</ele>
        <time>2020-08-02T07:52:04Z</time>
      </trkpt>
      <trkpt lat="44.71146" lon="7.02637">
        <ele>2068</ele>
        <time>2020-08-02T07:52:12Z</time>
      </trkpt>
      <trkpt lat="44.71127" lon="7.02634">
        <ele>2062</ele>
        <time>2020-08-02T07:52:22Z</time>
      </trkpt>
      <trkpt lat="44.71126" lon="7.02633">
        <ele>2061</ele>
        <time>2020-08-02T07:52:23Z</time>
      </trkpt>
      <trkpt lat="44.71124" lon="7.02633">
        <ele>2061</ele>
        <time>2020-08-02T07:52:24Z</time>
      </trkpt>
      <trkpt lat="44.7112" lon="7.02634">
        <ele>2060</ele>
        <time>2020-08-02T07:52:26Z</time>
      </trkpt>
      <trkpt lat="44.71104" lon="7.02635">
        <ele>2057</ele>
        <time>2020-08-02T07:52:39Z</time>
      </trkpt>
      <trkpt lat="44.71102" lon="7.02639">
        <ele>2058</ele>
        <time>2020-08-02T07:52:42Z</time>
      </trkpt>
      <trkpt lat="44.71101" lon="7.0264">
        <ele>2059</ele>
        <time>2020-08-02T07:52:43Z</time>
      </trkpt>
      <trkpt lat="44.71093" lon="7.02648">
        <ele>2062</ele>
        <time>2020-08-02T07:52:51Z</time>
      </trkpt>
      <trkpt lat="44.71177" lon="7.02692">
        <ele>2091</ele>
        <time>2020-08-02T07:54:27Z</time>
      </trkpt>
      <trkpt lat="44.71183" lon="7.027">
        <ele>2096</ele>
        <time>2020-08-02T07:54:35Z</time>
      </trkpt>
      <trkpt lat="44.71155" lon="7.02734">
        <ele>2104</ele>
        <time>2020-08-02T07:55:09Z</time>
      </trkpt>
      <trkpt lat="44.71142" lon="7.02737">
        <ele>2105</ele>
        <time>2020-08-02T07:55:17Z</time>
      </trkpt>
      <trkpt lat="44.71109" lon="7.0272">
        <ele>2094</ele>
        <time>2020-08-02T07:55:31Z</time>
      </trkpt>
      <trkpt lat="44.71103" lon="7.02717">
        <ele>2093</ele>
        <time>2020-08-02T07:55:36Z</time>
      </trkpt>
      <trkpt lat="44.71094" lon="7.02715">
        <ele>2092</ele>
        <time>2020-08-02T07:55:45Z</time>
      </trkpt>
      <trkpt lat="44.71092" lon="7.02716">
        <ele>2092</ele>
        <time>2020-08-02T07:55:47Z</time>
      </trkpt>
      <trkpt lat="44.71091" lon="7.02732">
        <ele>2097</ele>
        <time>2020-08-02T07:55:59Z</time>
      </trkpt>
      <trkpt lat="44.71081" lon="7.02742">
        <ele>2099</ele>
        <time>2020-08-02T07:56:08Z</time>
      </trkpt>
      <trkpt lat="44.71075" lon="7.02752">
        <ele>2102</ele>
        <time>2020-08-02T07:56:15Z</time>
      </trkpt>
      <trkpt lat="44.71067" lon="7.02772">
        <ele>2106</ele>
        <time>2020-08-02T07:56:28Z</time>
      </trkpt>
      <trkpt lat="44.71068" lon="7.02777">
        <ele>2108</ele>
        <time>2020-08-02T07:56:30Z</time>
      </trkpt>
      <trkpt lat="44.71066" lon="7.02795">
        <ele>2114</ele>
        <time>2020-08-02T07:56:40Z</time>
      </trkpt>
      <trkpt lat="44.71066" lon="7.02797">
        <ele>2115</ele>
        <time>2020-08-02T07:56:41Z</time>
      </trkpt>
      <trkpt lat="44.71065" lon="7.028">
        <ele>2116</ele>
        <time>2020-08-02T07:56:42Z</time>
      </trkpt>
      <trkpt lat="44.71066" lon="7.02802">
        <ele>2117</ele>
        <time>2020-08-02T07:56:43Z</time>
      </trkpt>
      <trkpt lat="44.71066" lon="7.02804">
        <ele>2118</ele>
        <time>2020-08-02T07:56:44Z</time>
      </trkpt>
      <trkpt lat="44.71066" lon="7.02806">
        <ele>2119</ele>
        <time>2020-08-02T07:56:45Z</time>
      </trkpt>
      <trkpt lat="44.71066" lon="7.02808">
        <ele>2120</ele>
        <time>2020-08-02T07:56:46Z</time>
      </trkpt>
      <trkpt lat="44.71067" lon="7.0281">
        <ele>2121</ele>
        <time>2020-08-02T07:56:47Z</time>
      </trkpt>
      <trkpt lat="44.71066" lon="7.02812">
        <ele>2122</ele>
        <time>2020-08-02T07:56:48Z</time>
      </trkpt>
      <trkpt lat="44.71065" lon="7.02814">
        <ele>2122</ele>
        <time>2020-08-02T07:56:49Z</time>
      </trkpt>
      <trkpt lat="44.71064" lon="7.02815">
        <ele>2123</ele>
        <time>2020-08-02T07:56:50Z</time>
      </trkpt>
      <trkpt lat="44.71052" lon="7.02831">
        <ele>2128</ele>
        <time>2020-08-02T07:57:02Z</time>
      </trkpt>
      <trkpt lat="44.71048" lon="7.02838">
        <ele>2130</ele>
        <time>2020-08-02T07:57:07Z</time>
      </trkpt>
      <trkpt lat="44.71047" lon="7.02839">
        <ele>2130</ele>
        <time>2020-08-02T07:57:08Z</time>
      </trkpt>
      <trkpt lat="44.71046" lon="7.0284">
        <ele>2130</ele>
        <time>2020-08-02T07:57:09Z</time>
      </trkpt>
      <trkpt lat="44.71046" lon="7.02842">
        <ele>2131</ele>
        <time>2020-08-02T07:57:10Z</time>
      </trkpt>
      <trkpt lat="44.71045" lon="7.02843">
        <ele>2132</ele>
        <time>2020-08-02T07:57:11Z</time>
      </trkpt>
      <trkpt lat="44.71044" lon="7.02844">
        <ele>2132</ele>
        <time>2020-08-02T07:57:12Z</time>
      </trkpt>
      <trkpt lat="44.71043" lon="7.02845">
        <ele>2132</ele>
        <time>2020-08-02T07:57:13Z</time>
      </trkpt>
      <trkpt lat="44.71042" lon="7.02846">
        <ele>2132</ele>
        <time>2020-08-02T07:57:14Z</time>
      </trkpt>
      <trkpt lat="44.71041" lon="7.02847">
        <ele>2132</ele>
        <time>2020-08-02T07:57:15Z</time>
      </trkpt>
      <trkpt lat="44.71027" lon="7.02866">
        <ele>2134</ele>
        <time>2020-08-02T07:57:31Z</time>
      </trkpt>
      <trkpt lat="44.7101" lon="7.02888">
        <ele>2135</ele>
        <time>2020-08-02T07:57:49Z</time>
      </trkpt>
      <trkpt lat="44.70999" lon="7.02904">
        <ele>2135</ele>
        <time>2020-08-02T07:58:00Z</time>
      </trkpt>
      <trkpt lat="44.70997" lon="7.02909">
        <ele>2136</ele>
        <time>2020-08-02T07:58:03Z</time>
      </trkpt>
      <trkpt lat="44.70982" lon="7.0293">
        <ele>2140</ele>
        <time>2020-08-02T07:58:19Z</time>
      </trkpt>
      <trkpt lat="44.70957" lon="7.02946">
        <ele>2138</ele>
        <time>2020-08-02T07:58:37Z</time>
      </trkpt>
      <trkpt lat="44.70939" lon="7.02962">
        <ele>2134</ele>
        <time>2020-08-02T07:58:53Z</time>
      </trkpt>
      <trkpt lat="44.70931" lon="7.02992">
        <ele>2134</ele>
        <time>2020-08-02T07:59:09Z</time>
      </trkpt>
      <trkpt lat="44.70928" lon="7.03001">
        <ele>2134</ele>
        <time>2020-08-02T07:59:14Z</time>
      </trkpt>
      <trkpt lat="44.70928" lon="7.03003">
        <ele>2134</ele>
        <time>2020-08-02T07:59:15Z</time>
      </trkpt>
      <trkpt lat="44.70928" lon="7.03005">
        <ele>2134</ele>
        <time>2020-08-02T07:59:16Z</time>
      </trkpt>
      <trkpt lat="44.70923" lon="7.03035">
        <ele>2136</ele>
        <time>2020-08-02T07:59:33Z</time>
      </trkpt>
      <trkpt lat="44.70922" lon="7.03067">
        <ele>2142</ele>
        <time>2020-08-02T07:59:48Z</time>
      </trkpt>
      <trkpt lat="44.70914" lon="7.03105">
        <ele>2144</ele>
        <time>2020-08-02T08:00:07Z</time>
      </trkpt>
      <trkpt lat="44.70909" lon="7.03136">
        <ele>2144</ele>
        <time>2020-08-02T08:00:24Z</time>
      </trkpt>
      <trkpt lat="44.70909" lon="7.03137">
        <ele>2144</ele>
        <time>2020-08-02T08:00:28Z</time>
      </trkpt>
      <trkpt lat="44.70901" lon="7.03209">
        <ele>2153</ele>
        <time>2020-08-02T08:10:16Z</time>
      </trkpt>
      <trkpt lat="44.70894" lon="7.03226">
        <ele>2152</ele>
        <time>2020-08-02T08:10:33Z</time>
      </trkpt>
      <trkpt lat="44.70899" lon="7.03231">
        <ele>2157</ele>
        <time>2020-08-02T08:10:47Z</time>
      </trkpt>
      <trkpt lat="44.70913" lon="7.03234">
        <ele>2169</ele>
        <time>2020-08-02T08:11:06Z</time>
      </trkpt>
      <trkpt lat="44.70907" lon="7.0325">
        <ele>2169</ele>
        <time>2020-08-02T08:11:25Z</time>
      </trkpt>
      <trkpt lat="44.70899" lon="7.0327">
        <ele>2169</ele>
        <time>2020-08-02T08:11:43Z</time>
      </trkpt>
      <trkpt lat="44.70891" lon="7.03291">
        <ele>2168</ele>
        <time>2020-08-02T08:12:02Z</time>
      </trkpt>
      <trkpt lat="44.70889" lon="7.033">
        <ele>2169</ele>
        <time>2020-08-02T08:12:10Z</time>
      </trkpt>
      <trkpt lat="44.70898" lon="7.03301">
        <ele>2175</ele>
        <time>2020-08-02T08:12:25Z</time>
      </trkpt>
      <trkpt lat="44.70896" lon="7.0332">
        <ele>2178</ele>
        <time>2020-08-02T08:12:42Z</time>
      </trkpt>
      <trkpt lat="44.70898" lon="7.03324">
        <ele>2181</ele>
        <time>2020-08-02T08:12:49Z</time>
      </trkpt>
      <trkpt lat="44.70906" lon="7.03386">
        <ele>2196</ele>
        <time>2020-08-02T08:13:47Z</time>
      </trkpt>
      <trkpt lat="44.70905" lon="7.03399">
        <ele>2196</ele>
        <time>2020-08-02T08:13:58Z</time>
      </trkpt>
      <trkpt lat="44.70903" lon="7.03453">
        <ele>2199</ele>
        <time>2020-08-02T08:14:18Z</time>
      </trkpt>
      <trkpt lat="44.70897" lon="7.03483">
        <ele>2203</ele>
        <time>2020-08-02T08:14:29Z</time>
      </trkpt>
      <trkpt lat="44.70892" lon="7.03492">
        <ele>2204</ele>
        <time>2020-08-02T08:14:34Z</time>
      </trkpt>
      <trkpt lat="44.70887" lon="7.03501">
        <ele>2205</ele>
        <time>2020-08-02T08:14:40Z</time>
      </trkpt>
      <trkpt lat="44.70876" lon="7.03522">
        <ele>2207</ele>
        <time>2020-08-02T08:14:54Z</time>
      </trkpt>
      <trkpt lat="44.70876" lon="7.03541">
        <ele>2210</ele>
        <time>2020-08-02T08:15:06Z</time>
      </trkpt>
      <trkpt lat="44.70881" lon="7.03578">
        <ele>2218</ele>
        <time>2020-08-02T08:15:27Z</time>
      </trkpt>
      <trkpt lat="44.70878" lon="7.03606">
        <ele>2222</ele>
        <time>2020-08-02T08:15:42Z</time>
      </trkpt>
      <trkpt lat="44.70874" lon="7.03636">
        <ele>2222</ele>
        <time>2020-08-02T08:16:00Z</time>
      </trkpt>
      <trkpt lat="44.70875" lon="7.03646">
        <ele>2224</ele>
        <time>2020-08-02T08:16:13Z</time>
      </trkpt>
      <trkpt lat="44.7087" lon="7.03689">
        <ele>2228</ele>
        <time>2020-08-02T08:16:54Z</time>
      </trkpt>
      <trkpt lat="44.7087" lon="7.03702">
        <ele>2231</ele>
        <time>2020-08-02T08:17:11Z</time>
      </trkpt>
      <trkpt lat="44.70872" lon="7.03701">
        <ele>2231</ele>
        <time>2020-08-02T08:17:13Z</time>
      </trkpt>
      <trkpt lat="44.70883" lon="7.03684">
        <ele>2234</ele>
        <time>2020-08-02T08:17:30Z</time>
      </trkpt>
      <trkpt lat="44.7089" lon="7.0368">
        <ele>2238</ele>
        <time>2020-08-02T08:17:49Z</time>
      </trkpt>
      <trkpt lat="44.7089" lon="7.03687">
        <ele>2240</ele>
        <time>2020-08-02T08:17:57Z</time>
      </trkpt>
      <trkpt lat="44.70889" lon="7.03694">
        <ele>2241</ele>
        <time>2020-08-02T08:18:01Z</time>
      </trkpt>
      <trkpt lat="44.70887" lon="7.03701">
        <ele>2241</ele>
        <time>2020-08-02T08:18:05Z</time>
      </trkpt>
      <trkpt lat="44.70876" lon="7.03732">
        <ele>2241</ele>
        <time>2020-08-02T08:18:24Z</time>
      </trkpt>
      <trkpt lat="44.70872" lon="7.0374">
        <ele>2242</ele>
        <time>2020-08-02T08:18:36Z</time>
      </trkpt>
      <trkpt lat="44.7087" lon="7.03745">
        <ele>2242</ele>
        <time>2020-08-02T08:18:43Z</time>
      </trkpt>
      <trkpt lat="44.70852" lon="7.03777">
        <ele>2242</ele>
        <time>2020-08-02T08:19:30Z</time>
      </trkpt>
      <trkpt lat="44.70849" lon="7.03806">
        <ele>2250</ele>
        <time>2020-08-02T08:19:41Z</time>
      </trkpt>
      <trkpt lat="44.70845" lon="7.03839">
        <ele>2258</ele>
        <time>2020-08-02T08:19:58Z</time>
      </trkpt>
      <trkpt lat="44.70841" lon="7.03848">
        <ele>2258</ele>
        <time>2020-08-02T08:20:03Z</time>
      </trkpt>
      <trkpt lat="44.70829" lon="7.03877">
        <ele>2260</ele>
        <time>2020-08-02T08:20:16Z</time>
      </trkpt>
      <trkpt lat="44.70808" lon="7.03903">
        <ele>2258</ele>
        <time>2020-08-02T08:20:33Z</time>
      </trkpt>
      <trkpt lat="44.70796" lon="7.03923">
        <ele>2259</ele>
        <time>2020-08-02T08:20:48Z</time>
      </trkpt>
      <trkpt lat="44.70789" lon="7.03947">
        <ele>2264</ele>
        <time>2020-08-02T08:21:05Z</time>
      </trkpt>
      <trkpt lat="44.70787" lon="7.03951">
        <ele>2265</ele>
        <time>2020-08-02T08:21:09Z</time>
      </trkpt>
      <trkpt lat="44.70784" lon="7.03957">
        <ele>2266</ele>
        <time>2020-08-02T08:21:13Z</time>
      </trkpt>
      <trkpt lat="44.70778" lon="7.03967">
        <ele>2267</ele>
        <time>2020-08-02T08:21:21Z</time>
      </trkpt>
      <trkpt lat="44.70773" lon="7.0398">
        <ele>2269</ele>
        <time>2020-08-02T08:21:29Z</time>
      </trkpt>
      <trkpt lat="44.70767" lon="7.03999">
        <ele>2274</ele>
        <time>2020-08-02T08:21:43Z</time>
      </trkpt>
      <trkpt lat="44.70762" lon="7.0402">
        <ele>2276</ele>
        <time>2020-08-02T08:21:58Z</time>
      </trkpt>
      <trkpt lat="44.70773" lon="7.04041">
        <ele>2283</ele>
        <time>2020-08-02T08:22:15Z</time>
      </trkpt>
      <trkpt lat="44.70781" lon="7.04045">
        <ele>2285</ele>
        <time>2020-08-02T08:22:28Z</time>
      </trkpt>
      <trkpt lat="44.70791" lon="7.04055">
        <ele>2288</ele>
        <time>2020-08-02T08:22:46Z</time>
      </trkpt>
      <trkpt lat="44.7079" lon="7.04065">
        <ele>2289</ele>
        <time>2020-08-02T08:22:54Z</time>
      </trkpt>
      <trkpt lat="44.70783" lon="7.04087">
        <ele>2291</ele>
        <time>2020-08-02T08:23:13Z</time>
      </trkpt>
      <trkpt lat="44.70778" lon="7.04113">
        <ele>2295</ele>
        <time>2020-08-02T08:23:35Z</time>
      </trkpt>
      <trkpt lat="44.70779" lon="7.04117">
        <ele>2296</ele>
        <time>2020-08-02T08:23:40Z</time>
      </trkpt>
      <trkpt lat="44.70781" lon="7.0412">
        <ele>2297</ele>
        <time>2020-08-02T08:23:43Z</time>
      </trkpt>
      <trkpt lat="44.70783" lon="7.04139">
        <ele>2301</ele>
        <time>2020-08-02T08:23:59Z</time>
      </trkpt>
      <trkpt lat="44.70786" lon="7.0416">
        <ele>2304</ele>
        <time>2020-08-02T08:24:17Z</time>
      </trkpt>
      <trkpt lat="44.70783" lon="7.04175">
        <ele>2306</ele>
        <time>2020-08-02T08:24:33Z</time>
      </trkpt>
      <trkpt lat="44.70785" lon="7.04192">
        <ele>2311</ele>
        <time>2020-08-02T08:24:51Z</time>
      </trkpt>
      <trkpt lat="44.70794" lon="7.04205">
        <ele>2315</ele>
        <time>2020-08-02T08:25:09Z</time>
      </trkpt>
      <trkpt lat="44.70802" lon="7.04218">
        <ele>2319</ele>
        <time>2020-08-02T08:25:27Z</time>
      </trkpt>
      <trkpt lat="44.70802" lon="7.04234">
        <ele>2322</ele>
        <time>2020-08-02T08:25:46Z</time>
      </trkpt>
      <trkpt lat="44.70794" lon="7.04253">
        <ele>2325</ele>
        <time>2020-08-02T08:26:05Z</time>
      </trkpt>
      <trkpt lat="44.70792" lon="7.04273">
        <ele>2327</ele>
        <time>2020-08-02T08:26:24Z</time>
      </trkpt>
      <trkpt lat="44.70789" lon="7.0429">
        <ele>2328</ele>
        <time>2020-08-02T08:26:42Z</time>
      </trkpt>
      <trkpt lat="44.70787" lon="7.04307">
        <ele>2330</ele>
        <time>2020-08-02T08:26:58Z</time>
      </trkpt>
      <trkpt lat="44.70784" lon="7.04325">
        <ele>2333</ele>
        <time>2020-08-02T08:27:15Z</time>
      </trkpt>
      <trkpt lat="44.70779" lon="7.04346">
        <ele>2336</ele>
        <time>2020-08-02T08:27:36Z</time>
      </trkpt>
      <trkpt lat="44.70773" lon="7.04366">
        <ele>2340</ele>
        <time>2020-08-02T08:27:55Z</time>
      </trkpt>
      <trkpt lat="44.70772" lon="7.04371">
        <ele>2340</ele>
        <time>2020-08-02T08:28:00Z</time>
      </trkpt>
      <trkpt lat="44.70764" lon="7.04384">
        <ele>2342</ele>
        <time>2020-08-02T08:28:16Z</time>
      </trkpt>
      <trkpt lat="44.7076" lon="7.04394">
        <ele>2343</ele>
        <time>2020-08-02T08:28:30Z</time>
      </trkpt>
      <trkpt lat="44.7074" lon="7.04474">
        <ele>2357</ele>
        <time>2020-08-02T08:29:54Z</time>
      </trkpt>
      <trkpt lat="44.70732" lon="7.04491">
        <ele>2360</ele>
        <time>2020-08-02T08:30:09Z</time>
      </trkpt>
      <trkpt lat="44.7073" lon="7.04511">
        <ele>2365</ele>
        <time>2020-08-02T08:30:29Z</time>
      </trkpt>
      <trkpt lat="44.70729" lon="7.04531">
        <ele>2370</ele>
        <time>2020-08-02T08:30:49Z</time>
      </trkpt>
      <trkpt lat="44.70726" lon="7.04546">
        <ele>2374</ele>
        <time>2020-08-02T08:31:06Z</time>
      </trkpt>
      <trkpt lat="44.70727" lon="7.04562">
        <ele>2377</ele>
        <time>2020-08-02T08:31:25Z</time>
      </trkpt>
      <trkpt lat="44.70725" lon="7.04571">
        <ele>2378</ele>
        <time>2020-08-02T08:31:43Z</time>
      </trkpt>
      <trkpt lat="44.70714" lon="7.04579">
        <ele>2377</ele>
        <time>2020-08-02T08:32:04Z</time>
      </trkpt>
      <trkpt lat="44.70719" lon="7.0459">
        <ele>2381</ele>
        <time>2020-08-02T08:32:20Z</time>
      </trkpt>
      <trkpt lat="44.70717" lon="7.04658">
        <ele>2406</ele>
        <time>2020-08-02T08:34:38Z</time>
      </trkpt>
      <trkpt lat="44.70705" lon="7.04661">
        <ele>2403</ele>
        <time>2020-08-02T08:34:55Z</time>
      </trkpt>
      <trkpt lat="44.70697" lon="7.04674">
        <ele>2407</ele>
        <time>2020-08-02T08:35:11Z</time>
      </trkpt>
      <trkpt lat="44.70691" lon="7.04686">
        <ele>2409</ele>
        <time>2020-08-02T08:35:27Z</time>
      </trkpt>
      <trkpt lat="44.70688" lon="7.047">
        <ele>2413</ele>
        <time>2020-08-02T08:35:46Z</time>
      </trkpt>
      <trkpt lat="44.70705" lon="7.04697">
        <ele>2418</ele>
        <time>2020-08-02T08:36:06Z</time>
      </trkpt>
      <trkpt lat="44.70703" lon="7.04705">
        <ele>2420</ele>
        <time>2020-08-02T08:36:16Z</time>
      </trkpt>
      <trkpt lat="44.7069" lon="7.04725">
        <ele>2420</ele>
        <time>2020-08-02T08:36:38Z</time>
      </trkpt>
      <trkpt lat="44.70689" lon="7.0473">
        <ele>2420</ele>
        <time>2020-08-02T08:36:43Z</time>
      </trkpt>
      <trkpt lat="44.70697" lon="7.04735">
        <ele>2425</ele>
        <time>2020-08-02T08:36:58Z</time>
      </trkpt>
      <trkpt lat="44.70694" lon="7.04752">
        <ele>2428</ele>
        <time>2020-08-02T08:37:16Z</time>
      </trkpt>
      <trkpt lat="44.70694" lon="7.04767">
        <ele>2430</ele>
        <time>2020-08-02T08:37:34Z</time>
      </trkpt>
      <trkpt lat="44.70692" lon="7.04782">
        <ele>2431</ele>
        <time>2020-08-02T08:37:50Z</time>
      </trkpt>
      <trkpt lat="44.70692" lon="7.04797">
        <ele>2433</ele>
        <time>2020-08-02T08:38:07Z</time>
      </trkpt>
      <trkpt lat="44.70695" lon="7.04817">
        <ele>2436</ele>
        <time>2020-08-02T08:38:26Z</time>
      </trkpt>
      <trkpt lat="44.70698" lon="7.0482">
        <ele>2437</ele>
        <time>2020-08-02T08:38:34Z</time>
      </trkpt>
      <trkpt lat="44.707" lon="7.04827">
        <ele>2437</ele>
        <time>2020-08-02T08:38:41Z</time>
      </trkpt>
      <trkpt lat="44.70713" lon="7.0486">
        <ele>2441</ele>
        <time>2020-08-02T08:38:58Z</time>
      </trkpt>
      <trkpt lat="44.70726" lon="7.04899">
        <ele>2447</ele>
        <time>2020-08-02T08:39:14Z</time>
      </trkpt>
      <trkpt lat="44.70737" lon="7.04926">
        <ele>2450</ele>
        <time>2020-08-02T08:39:29Z</time>
      </trkpt>
      <trkpt lat="44.70737" lon="7.04926">
        <ele>2450</ele>
        <time>2020-08-02T08:39:30Z</time>
      </trkpt>
      <trkpt lat="44.70731" lon="7.04932">
        <ele>2450</ele>
        <time>2020-08-02T08:43:01Z</time>
      </trkpt>
      <trkpt lat="44.70723" lon="7.04945">
        <ele>2450</ele>
        <time>2020-08-02T08:43:09Z</time>
      </trkpt>
      <trkpt lat="44.70725" lon="7.0496">
        <ele>2451</ele>
        <time>2020-08-02T08:43:13Z</time>
      </trkpt>
      <trkpt lat="44.70713" lon="7.04969">
        <ele>2451</ele>
        <time>2020-08-02T08:43:20Z</time>
      </trkpt>
      <trkpt lat="44.70702" lon="7.04975">
        <ele>2451</ele>
        <time>2020-08-02T08:43:25Z</time>
      </trkpt>
      <trkpt lat="44.70688" lon="7.04987">
        <ele>2453</ele>
        <time>2020-08-02T08:43:34Z</time>
      </trkpt>
      <trkpt lat="44.70681" lon="7.04986">
        <ele>2453</ele>
        <time>2020-08-02T08:43:38Z</time>
      </trkpt>
      <trkpt lat="44.70677" lon="7.04987">
        <ele>2454</ele>
        <time>2020-08-02T08:43:41Z</time>
      </trkpt>
      <trkpt lat="44.70666" lon="7.04981">
        <ele>2453</ele>
        <time>2020-08-02T08:43:48Z</time>
      </trkpt>
      <trkpt lat="44.70651" lon="7.0498">
        <ele>2457</ele>
        <time>2020-08-02T08:44:01Z</time>
      </trkpt>
      <trkpt lat="44.7065" lon="7.0498">
        <ele>2457</ele>
        <time>2020-08-02T08:44:05Z</time>
      </trkpt>
      <trkpt lat="44.7064" lon="7.04977">
        <ele>2460</ele>
        <time>2020-08-02T08:44:18Z</time>
      </trkpt>
      <trkpt lat="44.70628" lon="7.04974">
        <ele>2459</ele>
        <time>2020-08-02T08:44:25Z</time>
      </trkpt>
      <trkpt lat="44.70619" lon="7.04967">
        <ele>2457</ele>
        <time>2020-08-02T08:44:30Z</time>
      </trkpt>
      <trkpt lat="44.70611" lon="7.04956">
        <ele>2454</ele>
        <time>2020-08-02T08:44:36Z</time>
      </trkpt>
      <trkpt lat="44.70592" lon="7.04953">
        <ele>2450</ele>
        <time>2020-08-02T08:44:46Z</time>
      </trkpt>
      <trkpt lat="44.70584" lon="7.04957">
        <ele>2449</ele>
        <time>2020-08-02T08:44:49Z</time>
      </trkpt>
      <trkpt lat="44.70563" lon="7.04976">
        <ele>2450</ele>
        <time>2020-08-02T08:44:59Z</time>
      </trkpt>
      <trkpt lat="44.70554" lon="7.04984">
        <ele>2452</ele>
        <time>2020-08-02T08:45:08Z</time>
      </trkpt>
      <trkpt lat="44.70546" lon="7.04991">
        <ele>2454</ele>
        <time>2020-08-02T08:45:16Z</time>
      </trkpt>
      <trkpt lat="44.70541" lon="7.04993">
        <ele>2454</ele>
        <time>2020-08-02T08:45:28Z</time>
      </trkpt>
      <trkpt lat="44.70528" lon="7.04994">
        <ele>2453</ele>
        <time>2020-08-02T08:45:37Z</time>
      </trkpt>
      <trkpt lat="44.70507" lon="7.0501">
        <ele>2455</ele>
        <time>2020-08-02T08:45:51Z</time>
      </trkpt>
      <trkpt lat="44.70504" lon="7.05014">
        <ele>2456</ele>
        <time>2020-08-02T08:45:56Z</time>
      </trkpt>
      <trkpt lat="44.705" lon="7.05019">
        <ele>2457</ele>
        <time>2020-08-02T08:47:06Z</time>
      </trkpt>
      <trkpt lat="44.70479" lon="7.05042">
        <ele>2460</ele>
        <time>2020-08-02T08:47:16Z</time>
      </trkpt>
      <trkpt lat="44.70478" lon="7.05044">
        <ele>2460</ele>
        <time>2020-08-02T08:47:17Z</time>
      </trkpt>
      <trkpt lat="44.70476" lon="7.05049">
        <ele>2461</ele>
        <time>2020-08-02T08:47:20Z</time>
      </trkpt>
      <trkpt lat="44.70465" lon="7.05062">
        <ele>2464</ele>
        <time>2020-08-02T08:47:27Z</time>
      </trkpt>
      <trkpt lat="44.70458" lon="7.05069">
        <ele>2465</ele>
        <time>2020-08-02T08:47:32Z</time>
      </trkpt>
      <trkpt lat="44.70439" lon="7.05073">
        <ele>2463</ele>
        <time>2020-08-02T08:47:43Z</time>
      </trkpt>
      <trkpt lat="44.70413" lon="7.05079">
        <ele>2460</ele>
        <time>2020-08-02T08:47:58Z</time>
      </trkpt>
      <trkpt lat="44.70391" lon="7.05099">
        <ele>2465</ele>
        <time>2020-08-02T08:48:13Z</time>
      </trkpt>
      <trkpt lat="44.70384" lon="7.05103">
        <ele>2466</ele>
        <time>2020-08-02T08:48:17Z</time>
      </trkpt>
      <trkpt lat="44.70377" lon="7.05108">
        <ele>2467</ele>
        <time>2020-08-02T08:48:21Z</time>
      </trkpt>
      <trkpt lat="44.70348" lon="7.05127">
        <ele>2469</ele>
        <time>2020-08-02T08:48:35Z</time>
      </trkpt>
      <trkpt lat="44.70338" lon="7.05136">
        <ele>2471</ele>
        <time>2020-08-02T08:48:39Z</time>
      </trkpt>
      <trkpt lat="44.70329" lon="7.05142">
        <ele>2471</ele>
        <time>2020-08-02T08:48:44Z</time>
      </trkpt>
      <trkpt lat="44.7032" lon="7.05148">
        <ele>2470</ele>
        <time>2020-08-02T08:48:50Z</time>
      </trkpt>
      <trkpt lat="44.70312" lon="7.0515">
        <ele>2468</ele>
        <time>2020-08-02T08:48:54Z</time>
      </trkpt>
      <trkpt lat="44.70298" lon="7.05149">
        <ele>2466</ele>
        <time>2020-08-02T08:49:00Z</time>
      </trkpt>
      <trkpt lat="44.7027" lon="7.05169">
        <ele>2465</ele>
        <time>2020-08-02T08:49:13Z</time>
      </trkpt>
      <trkpt lat="44.70259" lon="7.05176">
        <ele>2466</ele>
        <time>2020-08-02T08:49:18Z</time>
      </trkpt>
      <trkpt lat="44.70245" lon="7.05181">
        <ele>2466</ele>
        <time>2020-08-02T08:49:25Z</time>
      </trkpt>
      <trkpt lat="44.70231" lon="7.05185">
        <ele>2467</ele>
        <time>2020-08-02T08:49:33Z</time>
      </trkpt>
      <trkpt lat="44.7022" lon="7.05185">
        <ele>2467</ele>
        <time>2020-08-02T08:49:38Z</time>
      </trkpt>
      <trkpt lat="44.70213" lon="7.05183">
        <ele>2467</ele>
        <time>2020-08-02T08:49:42Z</time>
      </trkpt>
      <trkpt lat="44.70198" lon="7.05186">
        <ele>2469</ele>
        <time>2020-08-02T08:49:50Z</time>
      </trkpt>
      <trkpt lat="44.70178" lon="7.05183">
        <ele>2467</ele>
        <time>2020-08-02T08:50:03Z</time>
      </trkpt>
      <trkpt lat="44.70173" lon="7.05182">
        <ele>2466</ele>
        <time>2020-08-02T08:50:05Z</time>
      </trkpt>
      <trkpt lat="44.70162" lon="7.05181">
        <ele>2465</ele>
        <time>2020-08-02T08:50:09Z</time>
      </trkpt>
      <trkpt lat="44.70122" lon="7.05178">
        <ele>2467</ele>
        <time>2020-08-02T08:50:22Z</time>
      </trkpt>
      <trkpt lat="44.70101" lon="7.05165">
        <ele>2466</ele>
        <time>2020-08-02T08:50:30Z</time>
      </trkpt>
      <trkpt lat="44.70071" lon="7.05156">
        <ele>2465</ele>
        <time>2020-08-02T08:50:42Z</time>
      </trkpt>
      <trkpt lat="44.70048" lon="7.05174">
        <ele>2468</ele>
        <time>2020-08-02T08:50:54Z</time>
      </trkpt>
      <trkpt lat="44.70042" lon="7.05173">
        <ele>2468</ele>
        <time>2020-08-02T08:51:03Z</time>
      </trkpt>
      <trkpt lat="44.70038" lon="7.05173">
        <ele>2468</ele>
        <time>2020-08-02T09:16:22Z</time>
      </trkpt>
      <trkpt lat="44.7002" lon="7.0518">
        <ele>2469</ele>
        <time>2020-08-02T09:16:26Z</time>
      </trkpt>
      <trkpt lat="44.70005" lon="7.05193">
        <ele>2468</ele>
        <time>2020-08-02T09:16:30Z</time>
      </trkpt>
      <trkpt lat="44.69992" lon="7.05209">
        <ele>2467</ele>
        <time>2020-08-02T09:16:34Z</time>
      </trkpt>
      <trkpt lat="44.69986" lon="7.05214">
        <ele>2467</ele>
        <time>2020-08-02T09:16:36Z</time>
      </trkpt>
      <trkpt lat="44.69979" lon="7.05223">
        <ele>2467</ele>
        <time>2020-08-02T09:16:38Z</time>
      </trkpt>
      <trkpt lat="44.69958" lon="7.05236">
        <ele>2464</ele>
        <time>2020-08-02T09:16:43Z</time>
      </trkpt>
      <trkpt lat="44.69935" lon="7.05253">
        <ele>2461</ele>
        <time>2020-08-02T09:16:51Z</time>
      </trkpt>
      <trkpt lat="44.69914" lon="7.05269">
        <ele>2461</ele>
        <time>2020-08-02T09:17:01Z</time>
      </trkpt>
      <trkpt lat="44.69901" lon="7.05286">
        <ele>2461</ele>
        <time>2020-08-02T09:17:07Z</time>
      </trkpt>
      <trkpt lat="44.69892" lon="7.05287">
        <ele>2460</ele>
        <time>2020-08-02T09:17:10Z</time>
      </trkpt>
      <trkpt lat="44.69853" lon="7.05309">
        <ele>2452</ele>
        <time>2020-08-02T09:17:19Z</time>
      </trkpt>
      <trkpt lat="44.69842" lon="7.0532">
        <ele>2451</ele>
        <time>2020-08-02T09:17:24Z</time>
      </trkpt>
      <trkpt lat="44.69837" lon="7.05326">
        <ele>2450</ele>
        <time>2020-08-02T09:17:27Z</time>
      </trkpt>
      <trkpt lat="44.69836" lon="7.05327">
        <ele>2449</ele>
        <time>2020-08-02T09:17:28Z</time>
      </trkpt>
      <trkpt lat="44.69827" lon="7.05337">
        <ele>2449</ele>
        <time>2020-08-02T09:17:33Z</time>
      </trkpt>
      <trkpt lat="44.69797" lon="7.05364">
        <ele>2446</ele>
        <time>2020-08-02T09:17:44Z</time>
      </trkpt>
      <trkpt lat="44.69783" lon="7.05372">
        <ele>2444</ele>
        <time>2020-08-02T09:17:47Z</time>
      </trkpt>
      <trkpt lat="44.69765" lon="7.05376">
        <ele>2440</ele>
        <time>2020-08-02T09:17:50Z</time>
      </trkpt>
      <trkpt lat="44.69752" lon="7.05379">
        <ele>2437</ele>
        <time>2020-08-02T09:17:52Z</time>
      </trkpt>
      <trkpt lat="44.6974" lon="7.05383">
        <ele>2436</ele>
        <time>2020-08-02T09:17:54Z</time>
      </trkpt>
      <trkpt lat="44.69727" lon="7.05388">
        <ele>2434</ele>
        <time>2020-08-02T09:17:56Z</time>
      </trkpt>
      <trkpt lat="44.69714" lon="7.05396">
        <ele>2434</ele>
        <time>2020-08-02T09:18:01Z</time>
      </trkpt>
      <trkpt lat="44.69713" lon="7.05397">
        <ele>2434</ele>
        <time>2020-08-02T09:18:04Z</time>
      </trkpt>
      <trkpt lat="44.69707" lon="7.05401">
        <ele>2434</ele>
        <time>2020-08-02T09:18:12Z</time>
      </trkpt>
      <trkpt lat="44.69699" lon="7.05404">
        <ele>2435</ele>
        <time>2020-08-02T09:18:20Z</time>
      </trkpt>
      <trkpt lat="44.69691" lon="7.0541">
        <ele>2435</ele>
        <time>2020-08-02T09:18:31Z</time>
      </trkpt>
      <trkpt lat="44.69689" lon="7.05412">
        <ele>2435</ele>
        <time>2020-08-02T09:18:33Z</time>
      </trkpt>
      <trkpt lat="44.69674" lon="7.0542">
        <ele>2436</ele>
        <time>2020-08-02T09:18:48Z</time>
      </trkpt>
      <trkpt lat="44.69663" lon="7.05436">
        <ele>2439</ele>
        <time>2020-08-02T09:19:04Z</time>
      </trkpt>
      <trkpt lat="44.69659" lon="7.05438">
        <ele>2439</ele>
        <time>2020-08-02T09:19:09Z</time>
      </trkpt>
      <trkpt lat="44.69653" lon="7.05441">
        <ele>2438</ele>
        <time>2020-08-02T09:19:15Z</time>
      </trkpt>
      <trkpt lat="44.69649" lon="7.05445">
        <ele>2438</ele>
        <time>2020-08-02T09:19:24Z</time>
      </trkpt>
      <trkpt lat="44.69642" lon="7.05445">
        <ele>2437</ele>
        <time>2020-08-02T09:19:38Z</time>
      </trkpt>
      <trkpt lat="44.69638" lon="7.05447">
        <ele>2437</ele>
        <time>2020-08-02T09:19:40Z</time>
      </trkpt>
      <trkpt lat="44.69625" lon="7.05447">
        <ele>2436</ele>
        <time>2020-08-02T09:19:50Z</time>
      </trkpt>
      <trkpt lat="44.69615" lon="7.05448">
        <ele>2435</ele>
        <time>2020-08-02T09:20:03Z</time>
      </trkpt>
      <trkpt lat="44.69601" lon="7.05451">
        <ele>2434</ele>
        <time>2020-08-02T09:20:09Z</time>
      </trkpt>
      <trkpt lat="44.69566" lon="7.05464">
        <ele>2433</ele>
        <time>2020-08-02T09:20:21Z</time>
      </trkpt>
      <trkpt lat="44.69544" lon="7.05481">
        <ele>2431</ele>
        <time>2020-08-02T09:20:30Z</time>
      </trkpt>
      <trkpt lat="44.69524" lon="7.05499">
        <ele>2428</ele>
        <time>2020-08-02T09:20:37Z</time>
      </trkpt>
      <trkpt lat="44.69514" lon="7.05505">
        <ele>2427</ele>
        <time>2020-08-02T09:20:41Z</time>
      </trkpt>
      <trkpt lat="44.69508" lon="7.05511">
        <ele>2426</ele>
        <time>2020-08-02T09:20:44Z</time>
      </trkpt>
      <trkpt lat="44.69496" lon="7.05518">
        <ele>2426</ele>
        <time>2020-08-02T09:20:51Z</time>
      </trkpt>
      <trkpt lat="44.69494" lon="7.05521">
        <ele>2426</ele>
        <time>2020-08-02T09:20:53Z</time>
      </trkpt>
      <trkpt lat="44.6949" lon="7.05524">
        <ele>2426</ele>
        <time>2020-08-02T09:21:00Z</time>
      </trkpt>
      <trkpt lat="44.69486" lon="7.05529">
        <ele>2427</ele>
        <time>2020-08-02T09:22:22Z</time>
      </trkpt>
      <trkpt lat="44.69482" lon="7.05532">
        <ele>2428</ele>
        <time>2020-08-02T09:22:30Z</time>
      </trkpt>
      <trkpt lat="44.69477" lon="7.05534">
        <ele>2429</ele>
        <time>2020-08-02T09:22:34Z</time>
      </trkpt>
      <trkpt lat="44.69465" lon="7.05531">
        <ele>2429</ele>
        <time>2020-08-02T09:22:39Z</time>
      </trkpt>
      <trkpt lat="44.69448" lon="7.05534">
        <ele>2431</ele>
        <time>2020-08-02T09:22:42Z</time>
      </trkpt>
      <trkpt lat="44.69429" lon="7.05534">
        <ele>2429</ele>
        <time>2020-08-02T09:22:46Z</time>
      </trkpt>
      <trkpt lat="44.69406" lon="7.05533">
        <ele>2427</ele>
        <time>2020-08-02T09:22:52Z</time>
      </trkpt>
      <trkpt lat="44.69393" lon="7.05537">
        <ele>2428</ele>
        <time>2020-08-02T09:22:55Z</time>
      </trkpt>
      <trkpt lat="44.69357" lon="7.05543">
        <ele>2426</ele>
        <time>2020-08-02T09:23:02Z</time>
      </trkpt>
      <trkpt lat="44.69352" lon="7.05546">
        <ele>2427</ele>
        <time>2020-08-02T09:23:03Z</time>
      </trkpt>
      <trkpt lat="44.69321" lon="7.0556">
        <ele>2427</ele>
        <time>2020-08-02T09:23:11Z</time>
      </trkpt>
      <trkpt lat="44.69304" lon="7.05566">
        <ele>2427</ele>
        <time>2020-08-02T09:23:15Z</time>
      </trkpt>
      <trkpt lat="44.69248" lon="7.05599">
        <ele>2431</ele>
        <time>2020-08-02T09:23:31Z</time>
      </trkpt>
      <trkpt lat="44.69212" lon="7.05609">
        <ele>2429</ele>
        <time>2020-08-02T09:23:42Z</time>
      </trkpt>
      <trkpt lat="44.69202" lon="7.05615">
        <ele>2427</ele>
        <time>2020-08-02T09:23:46Z</time>
      </trkpt>
      <trkpt lat="44.69187" lon="7.05622">
        <ele>2425</ele>
        <time>2020-08-02T09:23:52Z</time>
      </trkpt>
      <trkpt lat="44.69182" lon="7.05626">
        <ele>2424</ele>
        <time>2020-08-02T09:23:54Z</time>
      </trkpt>
      <trkpt lat="44.69172" lon="7.05628">
        <ele>2423</ele>
        <time>2020-08-02T09:23:58Z</time>
      </trkpt>
      <trkpt lat="44.69163" lon="7.05634">
        <ele>2422</ele>
        <time>2020-08-02T09:24:02Z</time>
      </trkpt>
      <trkpt lat="44.69151" lon="7.05637">
        <ele>2421</ele>
        <time>2020-08-02T09:24:07Z</time>
      </trkpt>
      <trkpt lat="44.69148" lon="7.05638">
        <ele>2420</ele>
        <time>2020-08-02T09:24:13Z</time>
      </trkpt>
      <trkpt lat="44.69125" lon="7.05671">
        <ele>2423</ele>
        <time>2020-08-02T09:25:31Z</time>
      </trkpt>
      <trkpt lat="44.6911" lon="7.05682">
        <ele>2426</ele>
        <time>2020-08-02T09:25:51Z</time>
      </trkpt>
      <trkpt lat="44.69094" lon="7.05686">
        <ele>2430</ele>
        <time>2020-08-02T09:26:09Z</time>
      </trkpt>
      <trkpt lat="44.6908" lon="7.05694">
        <ele>2435</ele>
        <time>2020-08-02T09:26:26Z</time>
      </trkpt>
      <trkpt lat="44.69059" lon="7.05707">
        <ele>2439</ele>
        <time>2020-08-02T09:26:51Z</time>
      </trkpt>
      <trkpt lat="44.6905" lon="7.05725">
        <ele>2443</ele>
        <time>2020-08-02T09:27:09Z</time>
      </trkpt>
      <trkpt lat="44.69036" lon="7.05738">
        <ele>2443</ele>
        <time>2020-08-02T09:27:30Z</time>
      </trkpt>
      <trkpt lat="44.69031" lon="7.05754">
        <ele>2446</ele>
        <time>2020-08-02T09:27:46Z</time>
      </trkpt>
      <trkpt lat="44.69034" lon="7.05773">
        <ele>2449</ele>
        <time>2020-08-02T09:28:03Z</time>
      </trkpt>
      <trkpt lat="44.6903" lon="7.05787">
        <ele>2451</ele>
        <time>2020-08-02T09:28:18Z</time>
      </trkpt>
      <trkpt lat="44.69028" lon="7.05811">
        <ele>2456</ele>
        <time>2020-08-02T09:28:36Z</time>
      </trkpt>
      <trkpt lat="44.69027" lon="7.0582">
        <ele>2458</ele>
        <time>2020-08-02T09:28:44Z</time>
      </trkpt>
      <trkpt lat="44.69028" lon="7.05828">
        <ele>2459</ele>
        <time>2020-08-02T09:28:53Z</time>
      </trkpt>
      <trkpt lat="44.69028" lon="7.05837">
        <ele>2460</ele>
        <time>2020-08-02T09:28:58Z</time>
      </trkpt>
      <trkpt lat="44.69018" lon="7.05877">
        <ele>2460</ele>
        <time>2020-08-02T09:29:12Z</time>
      </trkpt>
      <trkpt lat="44.69016" lon="7.05884">
        <ele>2460</ele>
        <time>2020-08-02T09:29:14Z</time>
      </trkpt>
      <trkpt lat="44.69007" lon="7.05898">
        <ele>2460</ele>
        <time>2020-08-02T09:29:17Z</time>
      </trkpt>
      <trkpt lat="44.68989" lon="7.05926">
        <ele>2459</ele>
        <time>2020-08-02T09:29:23Z</time>
      </trkpt>
      <trkpt lat="44.68971" lon="7.05953">
        <ele>2458</ele>
        <time>2020-08-02T09:29:31Z</time>
      </trkpt>
      <trkpt lat="44.68963" lon="7.05968">
        <ele>2458</ele>
        <time>2020-08-02T09:29:38Z</time>
      </trkpt>
      <trkpt lat="44.68963" lon="7.05968">
        <ele>2458</ele>
        <time>2020-08-02T09:29:39Z</time>
      </trkpt>
      <trkpt lat="44.68959" lon="7.05971">
        <ele>2458</ele>
        <time>2020-08-02T09:32:22Z</time>
      </trkpt>
      <trkpt lat="44.68951" lon="7.05983">
        <ele>2458</ele>
        <time>2020-08-02T09:32:27Z</time>
      </trkpt>
      <trkpt lat="44.68945" lon="7.06016">
        <ele>2459</ele>
        <time>2020-08-02T09:32:41Z</time>
      </trkpt>
      <trkpt lat="44.68945" lon="7.06015">
        <ele>2459</ele>
        <time>2020-08-02T09:32:44Z</time>
      </trkpt>
      <trkpt lat="44.68916" lon="7.06053">
        <ele>2464</ele>
        <time>2020-08-02T09:36:31Z</time>
      </trkpt>
      <trkpt lat="44.68914" lon="7.06059">
        <ele>2464</ele>
        <time>2020-08-02T09:36:35Z</time>
      </trkpt>
      <trkpt lat="44.68908" lon="7.06075">
        <ele>2465</ele>
        <time>2020-08-02T09:36:47Z</time>
      </trkpt>
      <trkpt lat="44.68904" lon="7.06079">
        <ele>2465</ele>
        <time>2020-08-02T09:36:51Z</time>
      </trkpt>
      <trkpt lat="44.6889" lon="7.06099">
        <ele>2468</ele>
        <time>2020-08-02T09:37:09Z</time>
      </trkpt>
      <trkpt lat="44.6888" lon="7.06117">
        <ele>2471</ele>
        <time>2020-08-02T09:37:27Z</time>
      </trkpt>
      <trkpt lat="44.68876" lon="7.06129">
        <ele>2473</ele>
        <time>2020-08-02T09:37:37Z</time>
      </trkpt>
      <trkpt lat="44.68872" lon="7.06135">
        <ele>2474</ele>
        <time>2020-08-02T09:37:42Z</time>
      </trkpt>
      <trkpt lat="44.68859" lon="7.06156">
        <ele>2478</ele>
        <time>2020-08-02T09:38:00Z</time>
      </trkpt>
      <trkpt lat="44.68846" lon="7.06175">
        <ele>2479</ele>
        <time>2020-08-02T09:38:20Z</time>
      </trkpt>
      <trkpt lat="44.68834" lon="7.06184">
        <ele>2480</ele>
        <time>2020-08-02T09:38:37Z</time>
      </trkpt>
      <trkpt lat="44.68826" lon="7.06195">
        <ele>2481</ele>
        <time>2020-08-02T09:38:52Z</time>
      </trkpt>
      <trkpt lat="44.68817" lon="7.06207">
        <ele>2483</ele>
        <time>2020-08-02T09:39:09Z</time>
      </trkpt>
      <trkpt lat="44.68807" lon="7.0622">
        <ele>2487</ele>
        <time>2020-08-02T09:39:28Z</time>
      </trkpt>
      <trkpt lat="44.68799" lon="7.06233">
        <ele>2493</ele>
        <time>2020-08-02T09:39:45Z</time>
      </trkpt>
      <trkpt lat="44.68796" lon="7.06248">
        <ele>2499</ele>
        <time>2020-08-02T09:39:59Z</time>
      </trkpt>
      <trkpt lat="44.68795" lon="7.0625">
        <ele>2500</ele>
        <time>2020-08-02T09:40:01Z</time>
      </trkpt>
      <trkpt lat="44.68792" lon="7.06262">
        <ele>2502</ele>
        <time>2020-08-02T09:40:15Z</time>
      </trkpt>
      <trkpt lat="44.6879" lon="7.06268">
        <ele>2503</ele>
        <time>2020-08-02T09:40:20Z</time>
      </trkpt>
      <trkpt lat="44.68783" lon="7.0629">
        <ele>2506</ele>
        <time>2020-08-02T09:40:42Z</time>
      </trkpt>
      <trkpt lat="44.68778" lon="7.06312">
        <ele>2509</ele>
        <time>2020-08-02T09:40:54Z</time>
      </trkpt>
      <trkpt lat="44.68771" lon="7.06335">
        <ele>2510</ele>
        <time>2020-08-02T09:41:08Z</time>
      </trkpt>
      <trkpt lat="44.6876" lon="7.06353">
        <ele>2509</ele>
        <time>2020-08-02T09:41:21Z</time>
      </trkpt>
      <trkpt lat="44.68757" lon="7.06378">
        <ele>2509</ele>
        <time>2020-08-02T09:41:36Z</time>
      </trkpt>
      <trkpt lat="44.68755" lon="7.0638">
        <ele>2509</ele>
        <time>2020-08-02T09:41:38Z</time>
      </trkpt>
      <trkpt lat="44.6875" lon="7.06392">
        <ele>2509</ele>
        <time>2020-08-02T09:41:45Z</time>
      </trkpt>
      <trkpt lat="44.68749" lon="7.064">
        <ele>2510</ele>
        <time>2020-08-02T09:41:49Z</time>
      </trkpt>
      <trkpt lat="44.68745" lon="7.06422">
        <ele>2512</ele>
        <time>2020-08-02T09:41:59Z</time>
      </trkpt>
      <trkpt lat="44.68742" lon="7.06424">
        <ele>2513</ele>
        <time>2020-08-02T09:42:01Z</time>
      </trkpt>
      <trkpt lat="44.68727" lon="7.06456">
        <ele>2515</ele>
        <time>2020-08-02T09:42:16Z</time>
      </trkpt>
      <trkpt lat="44.68723" lon="7.06462">
        <ele>2515</ele>
        <time>2020-08-02T09:42:20Z</time>
      </trkpt>
      <trkpt lat="44.68709" lon="7.06474">
        <ele>2517</ele>
        <time>2020-08-02T09:42:28Z</time>
      </trkpt>
      <trkpt lat="44.68705" lon="7.06477">
        <ele>2518</ele>
        <time>2020-08-02T09:42:30Z</time>
      </trkpt>
      <trkpt lat="44.68683" lon="7.06479">
        <ele>2520</ele>
        <time>2020-08-02T09:42:38Z</time>
      </trkpt>
      <trkpt lat="44.68671" lon="7.06478">
        <ele>2521</ele>
        <time>2020-08-02T09:42:44Z</time>
      </trkpt>
      <trkpt lat="44.68664" lon="7.06473">
        <ele>2522</ele>
        <time>2020-08-02T09:42:49Z</time>
      </trkpt>
      <trkpt lat="44.68641" lon="7.06472">
        <ele>2523</ele>
        <time>2020-08-02T09:43:03Z</time>
      </trkpt>
      <trkpt lat="44.68625" lon="7.06479">
        <ele>2525</ele>
        <time>2020-08-02T09:43:14Z</time>
      </trkpt>
      <trkpt lat="44.68618" lon="7.06483">
        <ele>2526</ele>
        <time>2020-08-02T09:43:22Z</time>
      </trkpt>
      <trkpt lat="44.68588" lon="7.06385">
        <ele>2547</ele>
        <time>2020-08-02T09:48:34Z</time>
      </trkpt>
      <trkpt lat="44.68587" lon="7.06377">
        <ele>2549</ele>
        <time>2020-08-02T09:48:43Z</time>
      </trkpt>
      <trkpt lat="44.68587" lon="7.06362">
        <ele>2552</ele>
        <time>2020-08-02T09:48:59Z</time>
      </trkpt>
      <trkpt lat="44.68588" lon="7.0636">
        <ele>2552</ele>
        <time>2020-08-02T09:49:02Z</time>
      </trkpt>
      <trkpt lat="44.68382" lon="7.06309">
        <ele>2688</ele>
        <time>2020-08-02T10:03:22Z</time>
      </trkpt>
      <trkpt lat="44.6838" lon="7.06314">
        <ele>2689</ele>
        <time>2020-08-02T10:03:29Z</time>
      </trkpt>
      <trkpt lat="44.68373" lon="7.06343">
        <ele>2689</ele>
        <time>2020-08-02T10:03:57Z</time>
      </trkpt>
      <trkpt lat="44.68371" lon="7.06357">
        <ele>2688</ele>
        <time>2020-08-02T10:04:10Z</time>
      </trkpt>
      <trkpt lat="44.68371" lon="7.06366">
        <ele>2688</ele>
        <time>2020-08-02T10:04:22Z</time>
      </trkpt>
      <trkpt lat="44.68365" lon="7.06394">
        <ele>2690</ele>
        <time>2020-08-02T10:04:51Z</time>
      </trkpt>
      <trkpt lat="44.68361" lon="7.064">
        <ele>2694</ele>
        <time>2020-08-02T10:04:59Z</time>
      </trkpt>
      <trkpt lat="44.68361" lon="7.06403">
        <ele>2695</ele>
        <time>2020-08-02T10:05:02Z</time>
      </trkpt>
      <trkpt lat="44.68359" lon="7.06407">
        <ele>2696</ele>
        <time>2020-08-02T10:05:06Z</time>
      </trkpt>
      <trkpt lat="44.68356" lon="7.06415">
        <ele>2698</ele>
        <time>2020-08-02T10:05:20Z</time>
      </trkpt>
      <trkpt lat="44.68347" lon="7.06438">
        <ele>2702</ele>
        <time>2020-08-02T10:05:49Z</time>
      </trkpt>
      <trkpt lat="44.68345" lon="7.06442">
        <ele>2703</ele>
        <time>2020-08-02T10:05:54Z</time>
      </trkpt>
      <trkpt lat="44.68339" lon="7.06451">
        <ele>2705</ele>
        <time>2020-08-02T10:06:04Z</time>
      </trkpt>
      <trkpt lat="44.68338" lon="7.06454">
        <ele>2706</ele>
        <time>2020-08-02T10:06:08Z</time>
      </trkpt>
      <trkpt lat="44.68335" lon="7.06458">
        <ele>2707</ele>
        <time>2020-08-02T10:06:12Z</time>
      </trkpt>
      <trkpt lat="44.68331" lon="7.06466">
        <ele>2707</ele>
        <time>2020-08-02T10:06:18Z</time>
      </trkpt>
      <trkpt lat="44.68326" lon="7.06477">
        <ele>2707</ele>
        <time>2020-08-02T10:06:27Z</time>
      </trkpt>
      <trkpt lat="44.68321" lon="7.06487">
        <ele>2709</ele>
        <time>2020-08-02T10:06:40Z</time>
      </trkpt>
      <trkpt lat="44.6832" lon="7.065">
        <ele>2707</ele>
        <time>2020-08-02T10:06:54Z</time>
      </trkpt>
      <trkpt lat="44.68321" lon="7.06507">
        <ele>2705</ele>
        <time>2020-08-02T10:07:05Z</time>
      </trkpt>
      <trkpt lat="44.68324" lon="7.06531">
        <ele>2700</ele>
        <time>2020-08-02T10:07:24Z</time>
      </trkpt>
      <trkpt lat="44.68324" lon="7.06537">
        <ele>2701</ele>
        <time>2020-08-02T10:07:29Z</time>
      </trkpt>
      <trkpt lat="44.68321" lon="7.06541">
        <ele>2703</ele>
        <time>2020-08-02T10:07:36Z</time>
      </trkpt>
      <trkpt lat="44.68322" lon="7.06547">
        <ele>2704</ele>
        <time>2020-08-02T10:07:41Z</time>
      </trkpt>
      <trkpt lat="44.68319" lon="7.06556">
        <ele>2706</ele>
        <time>2020-08-02T10:07:53Z</time>
      </trkpt>
      <trkpt lat="44.68316" lon="7.06559">
        <ele>2709</ele>
        <time>2020-08-02T10:08:05Z</time>
      </trkpt>
      <trkpt lat="44.68275" lon="7.06585">
        <ele>2730</ele>
        <time>2020-08-02T10:21:05Z</time>
      </trkpt>
      <trkpt lat="44.68274" lon="7.06585">
        <ele>2730</ele>
        <time>2020-08-02T10:21:06Z</time>
      </trkpt>
      <trkpt lat="44.68273" lon="7.06583">
        <ele>2730</ele>
        <time>2020-08-02T10:21:08Z</time>
      </trkpt>
      <trkpt lat="44.68267" lon="7.06576">
        <ele>2732</ele>
        <time>2020-08-02T10:21:19Z</time>
      </trkpt>
      <trkpt lat="44.68266" lon="7.06575">
        <ele>2733</ele>
        <time>2020-08-02T10:21:23Z</time>
      </trkpt>
      <trkpt lat="44.68198" lon="7.06682">
        <ele>2760</ele>
        <time>2020-08-02T10:27:16Z</time>
      </trkpt>
      <trkpt lat="44.68198" lon="7.06689">
        <ele>2759</ele>
        <time>2020-08-02T10:27:27Z</time>
      </trkpt>
      <trkpt lat="44.68195" lon="7.06693">
        <ele>2759</ele>
        <time>2020-08-02T10:27:31Z</time>
      </trkpt>
      <trkpt lat="44.68193" lon="7.06702">
        <ele>2759</ele>
        <time>2020-08-02T10:27:38Z</time>
      </trkpt>
      <trkpt lat="44.68191" lon="7.06705">
        <ele>2759</ele>
        <time>2020-08-02T10:27:41Z</time>
      </trkpt>
      <trkpt lat="44.68189" lon="7.0671">
        <ele>2759</ele>
        <time>2020-08-02T10:27:44Z</time>
      </trkpt>
      <trkpt lat="44.68182" lon="7.06719">
        <ele>2760</ele>
        <time>2020-08-02T10:27:56Z</time>
      </trkpt>
      <trkpt lat="44.68179" lon="7.06734">
        <ele>2761</ele>
        <time>2020-08-02T10:28:11Z</time>
      </trkpt>
      <trkpt lat="44.6818" lon="7.06739">
        <ele>2761</ele>
        <time>2020-08-02T10:28:16Z</time>
      </trkpt>
      <trkpt lat="44.68177" lon="7.06744">
        <ele>2761</ele>
        <time>2020-08-02T10:28:22Z</time>
      </trkpt>
      <trkpt lat="44.68175" lon="7.06746">
        <ele>2762</ele>
        <time>2020-08-02T10:28:25Z</time>
      </trkpt>
      <trkpt lat="44.68174" lon="7.06749">
        <ele>2762</ele>
        <time>2020-08-02T10:28:27Z</time>
      </trkpt>
      <trkpt lat="44.68169" lon="7.06764">
        <ele>2764</ele>
        <time>2020-08-02T10:28:41Z</time>
      </trkpt>
      <trkpt lat="44.68168" lon="7.06765">
        <ele>2765</ele>
        <time>2020-08-02T10:28:43Z</time>
      </trkpt>
      <trkpt lat="44.68161" lon="7.06779">
        <ele>2767</ele>
        <time>2020-08-02T10:28:59Z</time>
      </trkpt>
      <trkpt lat="44.68159" lon="7.06777">
        <ele>2767</ele>
        <time>2020-08-02T10:29:04Z</time>
      </trkpt>
      <trkpt lat="44.68152" lon="7.06789">
        <ele>2768</ele>
        <time>2020-08-02T10:29:23Z</time>
      </trkpt>
      <trkpt lat="44.68152" lon="7.06791">
        <ele>2768</ele>
        <time>2020-08-02T10:29:25Z</time>
      </trkpt>
      <trkpt lat="44.68149" lon="7.06809">
        <ele>2768</ele>
        <time>2020-08-02T10:29:42Z</time>
      </trkpt>
      <trkpt lat="44.68145" lon="7.06822">
        <ele>2769</ele>
        <time>2020-08-02T10:29:56Z</time>
      </trkpt>
      <trkpt lat="44.68141" lon="7.06839">
        <ele>2770</ele>
        <time>2020-08-02T10:30:15Z</time>
      </trkpt>
      <trkpt lat="44.68141" lon="7.06842">
        <ele>2770</ele>
        <time>2020-08-02T10:30:18Z</time>
      </trkpt>
      <trkpt lat="44.68022" lon="7.0699">
        <ele>2832</ele>
        <time>2020-08-02T10:35:56Z</time>
      </trkpt>
      <trkpt lat="44.68016" lon="7.06997">
        <ele>2832</ele>
        <time>2020-08-02T10:36:10Z</time>
      </trkpt>
      <trkpt lat="44.68015" lon="7.06998">
        <ele>2832</ele>
        <time>2020-08-02T10:36:11Z</time>
      </trkpt>
      <trkpt lat="44.6801" lon="7.07001">
        <ele>2832</ele>
        <time>2020-08-02T10:36:20Z</time>
      </trkpt>
      <trkpt lat="44.67993" lon="7.0701">
        <ele>2833</ele>
        <time>2020-08-02T10:36:41Z</time>
      </trkpt>
      <trkpt lat="44.67993" lon="7.0701">
        <ele>2833</ele>
        <time>2020-08-02T10:36:42Z</time>
      </trkpt>
      <trkpt lat="44.67991" lon="7.07011">
        <ele>2833</ele>
        <time>2020-08-02T10:36:44Z</time>
      </trkpt>
      <trkpt lat="44.67985" lon="7.07018">
        <ele>2833</ele>
        <time>2020-08-02T10:36:53Z</time>
      </trkpt>
      <trkpt lat="44.67976" lon="7.07026">
        <ele>2833</ele>
        <time>2020-08-02T10:37:42Z</time>
      </trkpt>
      <trkpt lat="44.67976" lon="7.07026">
        <ele>2833</ele>
        <time>2020-08-02T10:37:44Z</time>
      </trkpt>
      <trkpt lat="44.67959" lon="7.06959">
        <ele>2838</ele>
        <time>2020-08-02T10:44:19Z</time>
      </trkpt>
      <trkpt lat="44.67957" lon="7.06956">
        <ele>2838</ele>
        <time>2020-08-02T10:44:25Z</time>
      </trkpt>
      <trkpt lat="44.67938" lon="7.06927">
        <ele>2840</ele>
        <time>2020-08-02T10:45:20Z</time>
      </trkpt>
      <trkpt lat="44.67937" lon="7.06925">
        <ele>2840</ele>
        <time>2020-08-02T10:45:26Z</time>
      </trkpt>
      <trkpt lat="44.67931" lon="7.06918">
        <ele>2837</ele>
        <time>2020-08-02T10:47:39Z</time>
      </trkpt>
      <trkpt lat="44.67928" lon="7.06915">
        <ele>2836</ele>
        <time>2020-08-02T10:47:41Z</time>
      </trkpt>
      <trkpt lat="44.67916" lon="7.06884">
        <ele>2834</ele>
        <time>2020-08-02T10:47:55Z</time>
      </trkpt>
      <trkpt lat="44.67913" lon="7.06863">
        <ele>2834</ele>
        <time>2020-08-02T10:48:01Z</time>
      </trkpt>
      <trkpt lat="44.67913" lon="7.06856">
        <ele>2835</ele>
        <time>2020-08-02T10:48:07Z</time>
      </trkpt>
      <trkpt lat="44.67911" lon="7.06847">
        <ele>2836</ele>
        <time>2020-08-02T10:48:15Z</time>
      </trkpt>
      <trkpt lat="44.67903" lon="7.06836">
        <ele>2833</ele>
        <time>2020-08-02T10:48:24Z</time>
      </trkpt>
      <trkpt lat="44.67905" lon="7.06777">
        <ele>2843</ele>
        <time>2020-08-02T10:49:32Z</time>
      </trkpt>
      <trkpt lat="44.67905" lon="7.06752">
        <ele>2844</ele>
        <time>2020-08-02T10:49:50Z</time>
      </trkpt>
      <trkpt lat="44.67906" lon="7.06747">
        <ele>2845</ele>
        <time>2020-08-02T10:49:57Z</time>
      </trkpt>
      <trkpt lat="44.67907" lon="7.06743">
        <ele>2846</ele>
        <time>2020-08-02T10:50:00Z</time>
      </trkpt>
      <trkpt lat="44.67908" lon="7.06723">
        <ele>2847</ele>
        <time>2020-08-02T10:50:13Z</time>
      </trkpt>
      <trkpt lat="44.6791" lon="7.06692">
        <ele>2854</ele>
        <time>2020-08-02T10:50:36Z</time>
      </trkpt>
      <trkpt lat="44.67908" lon="7.06686">
        <ele>2853</ele>
        <time>2020-08-02T10:50:40Z</time>
      </trkpt>
      <trkpt lat="44.67908" lon="7.0667">
        <ele>2856</ele>
        <time>2020-08-02T10:50:55Z</time>
      </trkpt>
      <trkpt lat="44.67896" lon="7.06639">
        <ele>2852</ele>
        <time>2020-08-02T10:53:10Z</time>
      </trkpt>
      <trkpt lat="44.67895" lon="7.06637">
        <ele>2852</ele>
        <time>2020-08-02T10:53:11Z</time>
      </trkpt>
      <trkpt lat="44.67887" lon="7.06629">
        <ele>2848</ele>
        <time>2020-08-02T10:53:16Z</time>
      </trkpt>
      <trkpt lat="44.67868" lon="7.06617">
        <ele>2841</ele>
        <time>2020-08-02T10:53:22Z</time>
      </trkpt>
      <trkpt lat="44.67862" lon="7.06611">
        <ele>2839</ele>
        <time>2020-08-02T10:53:25Z</time>
      </trkpt>
      <trkpt lat="44.67855" lon="7.06593">
        <ele>2839</ele>
        <time>2020-08-02T10:53:31Z</time>
      </trkpt>
      <trkpt lat="44.67844" lon="7.06589">
        <ele>2834</ele>
        <time>2020-08-02T10:53:36Z</time>
      </trkpt>
      <trkpt lat="44.67842" lon="7.06588">
        <ele>2834</ele>
        <time>2020-08-02T10:53:37Z</time>
      </trkpt>
      <trkpt lat="44.6784" lon="7.06585">
        <ele>2833</ele>
        <time>2020-08-02T10:53:40Z</time>
      </trkpt>
      <trkpt lat="44.67839" lon="7.06587">
        <ele>2832</ele>
        <time>2020-08-02T10:53:46Z</time>
      </trkpt>
      <trkpt lat="44.67839" lon="7.06588">
        <ele>2832</ele>
        <time>2020-08-02T10:53:48Z</time>
      </trkpt>
      <trkpt lat="44.67839" lon="7.06588">
        <ele>2832</ele>
        <time>2020-08-02T10:53:49Z</time>
      </trkpt>
      <trkpt lat="44.67835" lon="7.06579">
        <ele>2832</ele>
        <time>2020-08-02T10:55:08Z</time>
      </trkpt>
      <trkpt lat="44.6782" lon="7.06558">
        <ele>2827</ele>
        <time>2020-08-02T10:55:13Z</time>
      </trkpt>
      <trkpt lat="44.67804" lon="7.06537">
        <ele>2824</ele>
        <time>2020-08-02T10:55:19Z</time>
      </trkpt>
      <trkpt lat="44.67783" lon="7.06514">
        <ele>2813</ele>
        <time>2020-08-02T10:55:27Z</time>
      </trkpt>
      <trkpt lat="44.67775" lon="7.06501">
        <ele>2808</ele>
        <time>2020-08-02T10:55:30Z</time>
      </trkpt>
      <trkpt lat="44.67772" lon="7.06489">
        <ele>2811</ele>
        <time>2020-08-02T10:55:33Z</time>
      </trkpt>
      <trkpt lat="44.67769" lon="7.06479">
        <ele>2812</ele>
        <time>2020-08-02T10:55:35Z</time>
      </trkpt>
      <trkpt lat="44.67763" lon="7.0646">
        <ele>2814</ele>
        <time>2020-08-02T10:55:40Z</time>
      </trkpt>
      <trkpt lat="44.67757" lon="7.06446">
        <ele>2813</ele>
        <time>2020-08-02T10:55:45Z</time>
      </trkpt>
      <trkpt lat="44.67752" lon="7.0644">
        <ele>2811</ele>
        <time>2020-08-02T10:55:51Z</time>
      </trkpt>
      <trkpt lat="44.67751" lon="7.06437">
        <ele>2810</ele>
        <time>2020-08-02T10:55:53Z</time>
      </trkpt>
      <trkpt lat="44.67748" lon="7.06421">
        <ele>2811</ele>
        <time>2020-08-02T10:56:01Z</time>
      </trkpt>
      <trkpt lat="44.67748" lon="7.06421">
        <ele>2811</ele>
        <time>2020-08-02T10:56:05Z</time>
      </trkpt>
      <trkpt lat="44.67754" lon="7.0639">
        <ele>2814</ele>
        <time>2020-08-02T10:57:41Z</time>
      </trkpt>
      <trkpt lat="44.67752" lon="7.06377">
        <ele>2815</ele>
        <time>2020-08-02T10:57:49Z</time>
      </trkpt>
      <trkpt lat="44.6775" lon="7.06363">
        <ele>2816</ele>
        <time>2020-08-02T10:58:01Z</time>
      </trkpt>
      <trkpt lat="44.67742" lon="7.0635">
        <ele>2815</ele>
        <time>2020-08-02T10:58:06Z</time>
      </trkpt>
      <trkpt lat="44.67734" lon="7.06336">
        <ele>2814</ele>
        <time>2020-08-02T10:58:16Z</time>
      </trkpt>
      <trkpt lat="44.67728" lon="7.06318">
        <ele>2815</ele>
        <time>2020-08-02T10:58:38Z</time>
      </trkpt>
      <trkpt lat="44.67722" lon="7.06316">
        <ele>2812</ele>
        <time>2020-08-02T10:58:48Z</time>
      </trkpt>
      <trkpt lat="44.67714" lon="7.06319">
        <ele>2806</ele>
        <time>2020-08-02T10:59:40Z</time>
      </trkpt>
      <trkpt lat="44.67704" lon="7.06315">
        <ele>2801</ele>
        <time>2020-08-02T10:59:46Z</time>
      </trkpt>
      <trkpt lat="44.67688" lon="7.06313">
        <ele>2793</ele>
        <time>2020-08-02T10:59:53Z</time>
      </trkpt>
      <trkpt lat="44.67674" lon="7.06305">
        <ele>2789</ele>
        <time>2020-08-02T11:00:00Z</time>
      </trkpt>
      <trkpt lat="44.67668" lon="7.06303">
        <ele>2787</ele>
        <time>2020-08-02T11:00:05Z</time>
      </trkpt>
      <trkpt lat="44.67667" lon="7.06302">
        <ele>2787</ele>
        <time>2020-08-02T11:00:07Z</time>
      </trkpt>
      <trkpt lat="44.67667" lon="7.06295">
        <ele>2790</ele>
        <time>2020-08-02T11:00:12Z</time>
      </trkpt>
      <trkpt lat="44.67667" lon="7.06294">
        <ele>2790</ele>
        <time>2020-08-02T11:00:15Z</time>
      </trkpt>
      <trkpt lat="44.67661" lon="7.06282">
        <ele>2792</ele>
        <time>2020-08-02T11:00:31Z</time>
      </trkpt>
      <trkpt lat="44.67656" lon="7.06282">
        <ele>2790</ele>
        <time>2020-08-02T11:00:35Z</time>
      </trkpt>
      <trkpt lat="44.67656" lon="7.06278">
        <ele>2791</ele>
        <time>2020-08-02T11:00:42Z</time>
      </trkpt>
      <trkpt lat="44.67652" lon="7.0626">
        <ele>2792</ele>
        <time>2020-08-02T11:01:07Z</time>
      </trkpt>
      <trkpt lat="44.67649" lon="7.06255">
        <ele>2792</ele>
        <time>2020-08-02T11:01:13Z</time>
      </trkpt>
      <trkpt lat="44.67647" lon="7.06254">
        <ele>2791</ele>
        <time>2020-08-02T11:01:15Z</time>
      </trkpt>
      <trkpt lat="44.67642" lon="7.06243">
        <ele>2791</ele>
        <time>2020-08-02T11:01:25Z</time>
      </trkpt>
      <trkpt lat="44.67638" lon="7.06234">
        <ele>2790</ele>
        <time>2020-08-02T11:01:31Z</time>
      </trkpt>
      <trkpt lat="44.67633" lon="7.06227">
        <ele>2789</ele>
        <time>2020-08-02T11:01:38Z</time>
      </trkpt>
      <trkpt lat="44.6763" lon="7.0622">
        <ele>2788</ele>
        <time>2020-08-02T11:01:43Z</time>
      </trkpt>
      <trkpt lat="44.67628" lon="7.06217">
        <ele>2788</ele>
        <time>2020-08-02T11:01:47Z</time>
      </trkpt>
      <trkpt lat="44.67626" lon="7.06212">
        <ele>2789</ele>
        <time>2020-08-02T11:01:52Z</time>
      </trkpt>
      <trkpt lat="44.67623" lon="7.06205">
        <ele>2789</ele>
        <time>2020-08-02T11:01:59Z</time>
      </trkpt>
      <trkpt lat="44.67622" lon="7.06203">
        <ele>2789</ele>
        <time>2020-08-02T11:02:01Z</time>
      </trkpt>
      <trkpt lat="44.6762" lon="7.06199">
        <ele>2789</ele>
        <time>2020-08-02T11:02:04Z</time>
      </trkpt>
      <trkpt lat="44.67618" lon="7.06197">
        <ele>2788</ele>
        <time>2020-08-02T11:02:09Z</time>
      </trkpt>
      <trkpt lat="44.67616" lon="7.0619">
        <ele>2789</ele>
        <time>2020-08-02T11:02:18Z</time>
      </trkpt>
      <trkpt lat="44.6761" lon="7.06172">
        <ele>2793</ele>
        <time>2020-08-02T11:02:25Z</time>
      </trkpt>
      <trkpt lat="44.67604" lon="7.06161">
        <ele>2793</ele>
        <time>2020-08-02T11:02:28Z</time>
      </trkpt>
      <trkpt lat="44.67597" lon="7.06158">
        <ele>2790</ele>
        <time>2020-08-02T11:02:32Z</time>
      </trkpt>
      <trkpt lat="44.67593" lon="7.06155">
        <ele>2789</ele>
        <time>2020-08-02T11:02:35Z</time>
      </trkpt>
      <trkpt lat="44.6758" lon="7.06147">
        <ele>2784</ele>
        <time>2020-08-02T11:02:42Z</time>
      </trkpt>
      <trkpt lat="44.67573" lon="7.0614">
        <ele>2783</ele>
        <time>2020-08-02T11:02:46Z</time>
      </trkpt>
      <trkpt lat="44.67565" lon="7.06139">
        <ele>2780</ele>
        <time>2020-08-02T11:02:50Z</time>
      </trkpt>
      <trkpt lat="44.67557" lon="7.06131">
        <ele>2780</ele>
        <time>2020-08-02T11:02:59Z</time>
      </trkpt>
      <trkpt lat="44.67556" lon="7.06129">
        <ele>2780</ele>
        <time>2020-08-02T11:03:02Z</time>
      </trkpt>
      <trkpt lat="44.67554" lon="7.06127">
        <ele>2780</ele>
        <time>2020-08-02T11:03:04Z</time>
      </trkpt>
      <trkpt lat="44.67547" lon="7.06119">
        <ele>2779</ele>
        <time>2020-08-02T11:03:14Z</time>
      </trkpt>
      <trkpt lat="44.67541" lon="7.06105">
        <ele>2783</ele>
        <time>2020-08-02T11:03:29Z</time>
      </trkpt>
      <trkpt lat="44.67533" lon="7.06095">
        <ele>2783</ele>
        <time>2020-08-02T11:03:44Z</time>
      </trkpt>
      <trkpt lat="44.67524" lon="7.06086">
        <ele>2782</ele>
        <time>2020-08-02T11:03:49Z</time>
      </trkpt>
      <trkpt lat="44.67522" lon="7.06085">
        <ele>2781</ele>
        <time>2020-08-02T11:03:50Z</time>
      </trkpt>
      <trkpt lat="44.67519" lon="7.06084">
        <ele>2779</ele>
        <time>2020-08-02T11:03:56Z</time>
      </trkpt>
      <trkpt lat="44.67514" lon="7.06081">
        <ele>2775</ele>
        <time>2020-08-02T11:04:02Z</time>
      </trkpt>
      <trkpt lat="44.67509" lon="7.06077">
        <ele>2773</ele>
        <time>2020-08-02T11:04:07Z</time>
      </trkpt>
      <trkpt lat="44.67498" lon="7.06071">
        <ele>2767</ele>
        <time>2020-08-02T11:04:17Z</time>
      </trkpt>
      <trkpt lat="44.67489" lon="7.06065">
        <ele>2765</ele>
        <time>2020-08-02T11:04:26Z</time>
      </trkpt>
      <trkpt lat="44.67477" lon="7.06062">
        <ele>2760</ele>
        <time>2020-08-02T11:04:42Z</time>
      </trkpt>
      <trkpt lat="44.6747" lon="7.06055">
        <ele>2761</ele>
        <time>2020-08-02T11:06:50Z</time>
      </trkpt>
      <trkpt lat="44.67457" lon="7.06048">
        <ele>2758</ele>
        <time>2020-08-02T11:07:02Z</time>
      </trkpt>
      <trkpt lat="44.67453" lon="7.06044">
        <ele>2758</ele>
        <time>2020-08-02T11:07:06Z</time>
      </trkpt>
      <trkpt lat="44.67436" lon="7.06029">
        <ele>2757</ele>
        <time>2020-08-02T11:07:28Z</time>
      </trkpt>
      <trkpt lat="44.67427" lon="7.06017">
        <ele>2761</ele>
        <time>2020-08-02T11:07:44Z</time>
      </trkpt>
      <trkpt lat="44.67422" lon="7.0601">
        <ele>2764</ele>
        <time>2020-08-02T11:07:56Z</time>
      </trkpt>
      <trkpt lat="44.67403" lon="7.05966">
        <ele>2767</ele>
        <time>2020-08-02T11:09:48Z</time>
      </trkpt>
      <trkpt lat="44.67404" lon="7.05959">
        <ele>2769</ele>
        <time>2020-08-02T11:09:50Z</time>
      </trkpt>
      <trkpt lat="44.67414" lon="7.05924">
        <ele>2780</ele>
        <time>2020-08-02T11:10:01Z</time>
      </trkpt>
      <trkpt lat="44.67424" lon="7.05914">
        <ele>2784</ele>
        <time>2020-08-02T11:10:09Z</time>
      </trkpt>
      <trkpt lat="44.67427" lon="7.05911">
        <ele>2785</ele>
        <time>2020-08-02T11:10:16Z</time>
      </trkpt>
      <trkpt lat="44.67434" lon="7.05899">
        <ele>2787</ele>
        <time>2020-08-02T11:10:25Z</time>
      </trkpt>
      <trkpt lat="44.67437" lon="7.05868">
        <ele>2791</ele>
        <time>2020-08-02T11:10:34Z</time>
      </trkpt>
      <trkpt lat="44.67434" lon="7.05858">
        <ele>2790</ele>
        <time>2020-08-02T11:10:37Z</time>
      </trkpt>
      <trkpt lat="44.67431" lon="7.05853">
        <ele>2789</ele>
        <time>2020-08-02T11:10:39Z</time>
      </trkpt>
      <trkpt lat="44.67411" lon="7.05832">
        <ele>2778</ele>
        <time>2020-08-02T11:10:49Z</time>
      </trkpt>
      <trkpt lat="44.67409" lon="7.05828">
        <ele>2778</ele>
        <time>2020-08-02T11:10:56Z</time>
      </trkpt>
      <trkpt lat="44.67401" lon="7.05816">
        <ele>2777</ele>
        <time>2020-08-02T11:11:09Z</time>
      </trkpt>
      <trkpt lat="44.67387" lon="7.05805">
        <ele>2775</ele>
        <time>2020-08-02T11:11:14Z</time>
      </trkpt>
      <trkpt lat="44.67379" lon="7.05797">
        <ele>2774</ele>
        <time>2020-08-02T11:11:18Z</time>
      </trkpt>
      <trkpt lat="44.67375" lon="7.05786">
        <ele>2776</ele>
        <time>2020-08-02T11:11:26Z</time>
      </trkpt>
      <trkpt lat="44.67627" lon="7.05885">
        <ele>2869</ele>
        <time>2020-08-02T12:02:20Z</time>
      </trkpt>
      <trkpt lat="44.67646" lon="7.05879">
        <ele>2864</ele>
        <time>2020-08-02T12:02:29Z</time>
      </trkpt>
      <trkpt lat="44.67663" lon="7.05878">
        <ele>2861</ele>
        <time>2020-08-02T12:02:37Z</time>
      </trkpt>
      <trkpt lat="44.67668" lon="7.05874">
        <ele>2857</ele>
        <time>2020-08-02T12:02:43Z</time>
      </trkpt>
      <trkpt lat="44.67678" lon="7.05868">
        <ele>2853</ele>
        <time>2020-08-02T12:02:52Z</time>
      </trkpt>
      <trkpt lat="44.67681" lon="7.05866">
        <ele>2852</ele>
        <time>2020-08-02T12:02:54Z</time>
      </trkpt>
      <trkpt lat="44.67679" lon="7.05851">
        <ele>2845</ele>
        <time>2020-08-02T12:03:01Z</time>
      </trkpt>
      <trkpt lat="44.67681" lon="7.05849">
        <ele>2844</ele>
        <time>2020-08-02T12:03:05Z</time>
      </trkpt>
      <trkpt lat="44.67683" lon="7.05848">
        <ele>2843</ele>
        <time>2020-08-02T12:03:08Z</time>
      </trkpt>
      <trkpt lat="44.6769" lon="7.05848">
        <ele>2842</ele>
        <time>2020-08-02T12:03:12Z</time>
      </trkpt>
      <trkpt lat="44.67692" lon="7.05848">
        <ele>2841</ele>
        <time>2020-08-02T12:03:13Z</time>
      </trkpt>
      <trkpt lat="44.677" lon="7.05845">
        <ele>2838</ele>
        <time>2020-08-02T12:03:17Z</time>
      </trkpt>
      <trkpt lat="44.67709" lon="7.05839">
        <ele>2832</ele>
        <time>2020-08-02T12:03:22Z</time>
      </trkpt>
      <trkpt lat="44.67718" lon="7.05831">
        <ele>2825</ele>
        <time>2020-08-02T12:03:27Z</time>
      </trkpt>
      <trkpt lat="44.67729" lon="7.05819">
        <ele>2820</ele>
        <time>2020-08-02T12:03:32Z</time>
      </trkpt>
      <trkpt lat="44.67737" lon="7.05811">
        <ele>2817</ele>
        <time>2020-08-02T12:03:36Z</time>
      </trkpt>
      <trkpt lat="44.67743" lon="7.05807">
        <ele>2816</ele>
        <time>2020-08-02T12:03:39Z</time>
      </trkpt>
      <trkpt lat="44.67749" lon="7.05802">
        <ele>2814</ele>
        <time>2020-08-02T12:03:42Z</time>
      </trkpt>
      <trkpt lat="44.67758" lon="7.05796">
        <ele>2812</ele>
        <time>2020-08-02T12:03:46Z</time>
      </trkpt>
      <trkpt lat="44.67761" lon="7.0579">
        <ele>2811</ele>
        <time>2020-08-02T12:03:49Z</time>
      </trkpt>
      <trkpt lat="44.67765" lon="7.05788">
        <ele>2810</ele>
        <time>2020-08-02T12:03:54Z</time>
      </trkpt>
      <trkpt lat="44.67774" lon="7.0578">
        <ele>2808</ele>
        <time>2020-08-02T12:05:21Z</time>
      </trkpt>
      <trkpt lat="44.67793" lon="7.05762">
        <ele>2804</ele>
        <time>2020-08-02T12:05:28Z</time>
      </trkpt>
      <trkpt lat="44.67787" lon="7.05755">
        <ele>2801</ele>
        <time>2020-08-02T12:05:32Z</time>
      </trkpt>
      <trkpt lat="44.67775" lon="7.0575">
        <ele>2798</ele>
        <time>2020-08-02T12:05:38Z</time>
      </trkpt>
      <trkpt lat="44.67753" lon="7.05744">
        <ele>2796</ele>
        <time>2020-08-02T12:05:46Z</time>
      </trkpt>
      <trkpt lat="44.67747" lon="7.0574">
        <ele>2793</ele>
        <time>2020-08-02T12:05:49Z</time>
      </trkpt>
      <trkpt lat="44.67745" lon="7.05738">
        <ele>2792</ele>
        <time>2020-08-02T12:05:51Z</time>
      </trkpt>
      <trkpt lat="44.67752" lon="7.05719">
        <ele>2785</ele>
        <time>2020-08-02T12:05:57Z</time>
      </trkpt>
      <trkpt lat="44.67749" lon="7.0571">
        <ele>2781</ele>
        <time>2020-08-02T12:06:01Z</time>
      </trkpt>
      <trkpt lat="44.67746" lon="7.05701">
        <ele>2778</ele>
        <time>2020-08-02T12:06:07Z</time>
      </trkpt>
      <trkpt lat="44.67746" lon="7.05696">
        <ele>2776</ele>
        <time>2020-08-02T12:06:13Z</time>
      </trkpt>
      <trkpt lat="44.67741" lon="7.05692">
        <ele>2776</ele>
        <time>2020-08-02T12:06:18Z</time>
      </trkpt>
      <trkpt lat="44.67731" lon="7.05687">
        <ele>2775</ele>
        <time>2020-08-02T12:06:25Z</time>
      </trkpt>
      <trkpt lat="44.67735" lon="7.05679">
        <ele>2773</ele>
        <time>2020-08-02T12:06:31Z</time>
      </trkpt>
      <trkpt lat="44.67735" lon="7.05679">
        <ele>2773</ele>
        <time>2020-08-02T12:06:33Z</time>
      </trkpt>
      <trkpt lat="44.67742" lon="7.0567">
        <ele>2770</ele>
        <time>2020-08-02T12:07:07Z</time>
      </trkpt>
      <trkpt lat="44.67746" lon="7.05667">
        <ele>2768</ele>
        <time>2020-08-02T12:07:08Z</time>
      </trkpt>
      <trkpt lat="44.67753" lon="7.0566">
        <ele>2766</ele>
        <time>2020-08-02T12:07:10Z</time>
      </trkpt>
      <trkpt lat="44.67754" lon="7.05622">
        <ele>2760</ele>
        <time>2020-08-02T12:07:16Z</time>
      </trkpt>
      <trkpt lat="44.67752" lon="7.05599">
        <ele>2755</ele>
        <time>2020-08-02T12:07:20Z</time>
      </trkpt>
      <trkpt lat="44.67749" lon="7.05592">
        <ele>2753</ele>
        <time>2020-08-02T12:07:22Z</time>
      </trkpt>
      <trkpt lat="44.67746" lon="7.05587">
        <ele>2752</ele>
        <time>2020-08-02T12:07:24Z</time>
      </trkpt>
      <trkpt lat="44.67744" lon="7.0558">
        <ele>2750</ele>
        <time>2020-08-02T12:07:26Z</time>
      </trkpt>
      <trkpt lat="44.67744" lon="7.05573">
        <ele>2748</ele>
        <time>2020-08-02T12:07:28Z</time>
      </trkpt>
      <trkpt lat="44.67741" lon="7.05552">
        <ele>2742</ele>
        <time>2020-08-02T12:07:35Z</time>
      </trkpt>
      <trkpt lat="44.67743" lon="7.05535">
        <ele>2736</ele>
        <time>2020-08-02T12:07:39Z</time>
      </trkpt>
      <trkpt lat="44.67749" lon="7.0552">
        <ele>2732</ele>
        <time>2020-08-02T12:07:43Z</time>
      </trkpt>
      <trkpt lat="44.67744" lon="7.05504">
        <ele>2728</ele>
        <time>2020-08-02T12:07:48Z</time>
      </trkpt>
      <trkpt lat="44.67741" lon="7.05497">
        <ele>2727</ele>
        <time>2020-08-02T12:07:50Z</time>
      </trkpt>
      <trkpt lat="44.67727" lon="7.0549">
        <ele>2726</ele>
        <time>2020-08-02T12:07:56Z</time>
      </trkpt>
      <trkpt lat="44.67721" lon="7.05494">
        <ele>2728</ele>
        <time>2020-08-02T12:07:59Z</time>
      </trkpt>
      <trkpt lat="44.67717" lon="7.05487">
        <ele>2726</ele>
        <time>2020-08-02T12:08:04Z</time>
      </trkpt>
      <trkpt lat="44.67718" lon="7.05475">
        <ele>2722</ele>
        <time>2020-08-02T12:08:08Z</time>
      </trkpt>
      <trkpt lat="44.67721" lon="7.05466">
        <ele>2719</ele>
        <time>2020-08-02T12:08:11Z</time>
      </trkpt>
      <trkpt lat="44.67723" lon="7.05456">
        <ele>2716</ele>
        <time>2020-08-02T12:08:17Z</time>
      </trkpt>
      <trkpt lat="44.67723" lon="7.05456">
        <ele>2716</ele>
        <time>2020-08-02T12:08:19Z</time>
      </trkpt>
      <trkpt lat="44.6773" lon="7.05454">
        <ele>2715</ele>
        <time>2020-08-02T12:08:59Z</time>
      </trkpt>
      <trkpt lat="44.67736" lon="7.05448">
        <ele>2713</ele>
        <time>2020-08-02T12:09:04Z</time>
      </trkpt>
      <trkpt lat="44.67735" lon="7.05443">
        <ele>2711</ele>
        <time>2020-08-02T12:09:11Z</time>
      </trkpt>
      <trkpt lat="44.67733" lon="7.0544">
        <ele>2710</ele>
        <time>2020-08-02T12:09:17Z</time>
      </trkpt>
      <trkpt lat="44.67733" lon="7.05437">
        <ele>2709</ele>
        <time>2020-08-02T12:09:23Z</time>
      </trkpt>
      <trkpt lat="44.67736" lon="7.05432">
        <ele>2707</ele>
        <time>2020-08-02T12:09:27Z</time>
      </trkpt>
      <trkpt lat="44.67731" lon="7.05426">
        <ele>2705</ele>
        <time>2020-08-02T12:09:32Z</time>
      </trkpt>
      <trkpt lat="44.67726" lon="7.05414">
        <ele>2701</ele>
        <time>2020-08-02T12:09:38Z</time>
      </trkpt>
      <trkpt lat="44.67721" lon="7.05408">
        <ele>2699</ele>
        <time>2020-08-02T12:09:42Z</time>
      </trkpt>
      <trkpt lat="44.67722" lon="7.05403">
        <ele>2697</ele>
        <time>2020-08-02T12:09:45Z</time>
      </trkpt>
      <trkpt lat="44.67723" lon="7.05396">
        <ele>2695</ele>
        <time>2020-08-02T12:09:48Z</time>
      </trkpt>
      <trkpt lat="44.67728" lon="7.05388">
        <ele>2692</ele>
        <time>2020-08-02T12:09:52Z</time>
      </trkpt>
      <trkpt lat="44.67731" lon="7.05385">
        <ele>2691</ele>
        <time>2020-08-02T12:09:55Z</time>
      </trkpt>
      <trkpt lat="44.67733" lon="7.05381">
        <ele>2691</ele>
        <time>2020-08-02T12:09:57Z</time>
      </trkpt>
      <trkpt lat="44.67736" lon="7.05373">
        <ele>2688</ele>
        <time>2020-08-02T12:10:01Z</time>
      </trkpt>
      <trkpt lat="44.67724" lon="7.05336">
        <ele>2681</ele>
        <time>2020-08-02T12:10:10Z</time>
      </trkpt>
      <trkpt lat="44.67723" lon="7.0533">
        <ele>2680</ele>
        <time>2020-08-02T12:10:12Z</time>
      </trkpt>
      <trkpt lat="44.67719" lon="7.05311">
        <ele>2675</ele>
        <time>2020-08-02T12:10:22Z</time>
      </trkpt>
      <trkpt lat="44.67717" lon="7.05296">
        <ele>2671</ele>
        <time>2020-08-02T12:10:29Z</time>
      </trkpt>
      <trkpt lat="44.67717" lon="7.05294">
        <ele>2670</ele>
        <time>2020-08-02T12:10:31Z</time>
      </trkpt>
      <trkpt lat="44.67712" lon="7.0528">
        <ele>2667</ele>
        <time>2020-08-02T12:10:38Z</time>
      </trkpt>
      <trkpt lat="44.67709" lon="7.0527">
        <ele>2666</ele>
        <time>2020-08-02T12:10:41Z</time>
      </trkpt>
      <trkpt lat="44.67714" lon="7.0527">
        <ele>2665</ele>
        <time>2020-08-02T12:10:44Z</time>
      </trkpt>
      <trkpt lat="44.67724" lon="7.05274">
        <ele>2664</ele>
        <time>2020-08-02T12:10:48Z</time>
      </trkpt>
      <trkpt lat="44.67728" lon="7.05275">
        <ele>2664</ele>
        <time>2020-08-02T12:10:52Z</time>
      </trkpt>
      <trkpt lat="44.67728" lon="7.05275">
        <ele>2664</ele>
        <time>2020-08-02T12:10:55Z</time>
      </trkpt>
      <trkpt lat="44.67736" lon="7.05278">
        <ele>2663</ele>
        <time>2020-08-02T12:11:11Z</time>
      </trkpt>
      <trkpt lat="44.67737" lon="7.05279">
        <ele>2662</ele>
        <time>2020-08-02T12:11:12Z</time>
      </trkpt>
      <trkpt lat="44.67741" lon="7.05281">
        <ele>2662</ele>
        <time>2020-08-02T12:11:20Z</time>
      </trkpt>
      <trkpt lat="44.67747" lon="7.05283">
        <ele>2661</ele>
        <time>2020-08-02T12:11:30Z</time>
      </trkpt>
      <trkpt lat="44.67753" lon="7.05284">
        <ele>2661</ele>
        <time>2020-08-02T12:11:32Z</time>
      </trkpt>
      <trkpt lat="44.67768" lon="7.0527">
        <ele>2656</ele>
        <time>2020-08-02T12:11:37Z</time>
      </trkpt>
      <trkpt lat="44.67781" lon="7.05243">
        <ele>2651</ele>
        <time>2020-08-02T12:11:43Z</time>
      </trkpt>
      <trkpt lat="44.67785" lon="7.05235">
        <ele>2650</ele>
        <time>2020-08-02T12:11:46Z</time>
      </trkpt>
      <trkpt lat="44.67789" lon="7.05226">
        <ele>2648</ele>
        <time>2020-08-02T12:11:50Z</time>
      </trkpt>
      <trkpt lat="44.6779" lon="7.05224">
        <ele>2648</ele>
        <time>2020-08-02T12:11:51Z</time>
      </trkpt>
      <trkpt lat="44.67797" lon="7.05215">
        <ele>2648</ele>
        <time>2020-08-02T12:11:58Z</time>
      </trkpt>
      <trkpt lat="44.678" lon="7.05204">
        <ele>2646</ele>
        <time>2020-08-02T12:12:03Z</time>
      </trkpt>
      <trkpt lat="44.6781" lon="7.05194">
        <ele>2646</ele>
        <time>2020-08-02T12:12:09Z</time>
      </trkpt>
      <trkpt lat="44.6781" lon="7.05182">
        <ele>2642</ele>
        <time>2020-08-02T12:12:14Z</time>
      </trkpt>
      <trkpt lat="44.67795" lon="7.05169">
        <ele>2639</ele>
        <time>2020-08-02T12:12:23Z</time>
      </trkpt>
      <trkpt lat="44.67793" lon="7.05159">
        <ele>2637</ele>
        <time>2020-08-02T12:12:30Z</time>
      </trkpt>
      <trkpt lat="44.678" lon="7.05154">
        <ele>2636</ele>
        <time>2020-08-02T12:12:34Z</time>
      </trkpt>
      <trkpt lat="44.67805" lon="7.05154">
        <ele>2635</ele>
        <time>2020-08-02T12:12:37Z</time>
      </trkpt>
      <trkpt lat="44.67811" lon="7.05132">
        <ele>2630</ele>
        <time>2020-08-02T12:12:42Z</time>
      </trkpt>
      <trkpt lat="44.67812" lon="7.05126">
        <ele>2629</ele>
        <time>2020-08-02T12:12:43Z</time>
      </trkpt>
      <trkpt lat="44.67817" lon="7.05092">
        <ele>2616</ele>
        <time>2020-08-02T12:12:49Z</time>
      </trkpt>
      <trkpt lat="44.6782" lon="7.05082">
        <ele>2613</ele>
        <time>2020-08-02T12:12:51Z</time>
      </trkpt>
      <trkpt lat="44.67822" lon="7.05059">
        <ele>2610</ele>
        <time>2020-08-02T12:12:56Z</time>
      </trkpt>
      <trkpt lat="44.67825" lon="7.05041">
        <ele>2608</ele>
        <time>2020-08-02T12:13:00Z</time>
      </trkpt>
      <trkpt lat="44.67835" lon="7.05017">
        <ele>2607</ele>
        <time>2020-08-02T12:13:07Z</time>
      </trkpt>
      <trkpt lat="44.67819" lon="7.05011">
        <ele>2604</ele>
        <time>2020-08-02T12:13:13Z</time>
      </trkpt>
      <trkpt lat="44.67816" lon="7.05012">
        <ele>2604</ele>
        <time>2020-08-02T12:13:14Z</time>
      </trkpt>
      <trkpt lat="44.6781" lon="7.05011">
        <ele>2603</ele>
        <time>2020-08-02T12:13:19Z</time>
      </trkpt>
      <trkpt lat="44.6781" lon="7.05007">
        <ele>2603</ele>
        <time>2020-08-02T12:13:23Z</time>
      </trkpt>
      <trkpt lat="44.67811" lon="7.05007">
        <ele>2603</ele>
        <time>2020-08-02T12:13:26Z</time>
      </trkpt>
      <trkpt lat="44.67811" lon="7.05">
        <ele>2602</ele>
        <time>2020-08-02T12:13:41Z</time>
      </trkpt>
      <trkpt lat="44.67812" lon="7.04997">
        <ele>2601</ele>
        <time>2020-08-02T12:13:42Z</time>
      </trkpt>
      <trkpt lat="44.67812" lon="7.04993">
        <ele>2600</ele>
        <time>2020-08-02T12:13:44Z</time>
      </trkpt>
      <trkpt lat="44.67813" lon="7.04989">
        <ele>2599</ele>
        <time>2020-08-02T12:13:46Z</time>
      </trkpt>
      <trkpt lat="44.67814" lon="7.04983">
        <ele>2597</ele>
        <time>2020-08-02T12:13:49Z</time>
      </trkpt>
      <trkpt lat="44.67814" lon="7.04968">
        <ele>2593</ele>
        <time>2020-08-02T12:13:55Z</time>
      </trkpt>
      <trkpt lat="44.67816" lon="7.04961">
        <ele>2591</ele>
        <time>2020-08-02T12:13:58Z</time>
      </trkpt>
      <trkpt lat="44.67815" lon="7.04954">
        <ele>2588</ele>
        <time>2020-08-02T12:14:00Z</time>
      </trkpt>
      <trkpt lat="44.67802" lon="7.04951">
        <ele>2584</ele>
        <time>2020-08-02T12:14:05Z</time>
      </trkpt>
      <trkpt lat="44.67798" lon="7.04951">
        <ele>2582</ele>
        <time>2020-08-02T12:14:07Z</time>
      </trkpt>
      <trkpt lat="44.67789" lon="7.04955">
        <ele>2581</ele>
        <time>2020-08-02T12:14:12Z</time>
      </trkpt>
      <trkpt lat="44.67785" lon="7.04956">
        <ele>2580</ele>
        <time>2020-08-02T12:14:14Z</time>
      </trkpt>
      <trkpt lat="44.67783" lon="7.04957">
        <ele>2580</ele>
        <time>2020-08-02T12:14:15Z</time>
      </trkpt>
      <trkpt lat="44.67782" lon="7.04944">
        <ele>2575</ele>
        <time>2020-08-02T12:14:22Z</time>
      </trkpt>
      <trkpt lat="44.67784" lon="7.04928">
        <ele>2572</ele>
        <time>2020-08-02T12:14:27Z</time>
      </trkpt>
      <trkpt lat="44.67786" lon="7.04918">
        <ele>2570</ele>
        <time>2020-08-02T12:14:31Z</time>
      </trkpt>
      <trkpt lat="44.67795" lon="7.04892">
        <ele>2569</ele>
        <time>2020-08-02T12:14:37Z</time>
      </trkpt>
      <trkpt lat="44.67798" lon="7.04883">
        <ele>2568</ele>
        <time>2020-08-02T12:14:40Z</time>
      </trkpt>
      <trkpt lat="44.67791" lon="7.04862">
        <ele>2563</ele>
        <time>2020-08-02T12:14:44Z</time>
      </trkpt>
      <trkpt lat="44.67777" lon="7.04844">
        <ele>2557</ele>
        <time>2020-08-02T12:14:49Z</time>
      </trkpt>
      <trkpt lat="44.67767" lon="7.04825">
        <ele>2555</ele>
        <time>2020-08-02T12:14:52Z</time>
      </trkpt>
      <trkpt lat="44.67754" lon="7.04808">
        <ele>2552</ele>
        <time>2020-08-02T12:14:55Z</time>
      </trkpt>
      <trkpt lat="44.67731" lon="7.04782">
        <ele>2545</ele>
        <time>2020-08-02T12:15:00Z</time>
      </trkpt>
      <trkpt lat="44.67719" lon="7.04766">
        <ele>2541</ele>
        <time>2020-08-02T12:15:03Z</time>
      </trkpt>
      <trkpt lat="44.6771" lon="7.04752">
        <ele>2538</ele>
        <time>2020-08-02T12:15:06Z</time>
      </trkpt>
      <trkpt lat="44.67706" lon="7.04729">
        <ele>2536</ele>
        <time>2020-08-02T12:15:09Z</time>
      </trkpt>
      <trkpt lat="44.67702" lon="7.04717">
        <ele>2535</ele>
        <time>2020-08-02T12:15:11Z</time>
      </trkpt>
      <trkpt lat="44.67698" lon="7.047">
        <ele>2533</ele>
        <time>2020-08-02T12:15:18Z</time>
      </trkpt>
      <trkpt lat="44.67695" lon="7.04695">
        <ele>2533</ele>
        <time>2020-08-02T12:16:07Z</time>
      </trkpt>
      <trkpt lat="44.67692" lon="7.04688">
        <ele>2532</ele>
        <time>2020-08-02T12:16:09Z</time>
      </trkpt>
      <trkpt lat="44.67687" lon="7.04668">
        <ele>2530</ele>
        <time>2020-08-02T12:16:18Z</time>
      </trkpt>
      <trkpt lat="44.67687" lon="7.04668">
        <ele>2530</ele>
        <time>2020-08-02T12:16:20Z</time>
      </trkpt>
      <trkpt lat="44.67687" lon="7.04662">
        <ele>2529</ele>
        <time>2020-08-02T12:17:40Z</time>
      </trkpt>
      <trkpt lat="44.67683" lon="7.04647">
        <ele>2527</ele>
        <time>2020-08-02T12:17:43Z</time>
      </trkpt>
      <trkpt lat="44.67677" lon="7.04566">
        <ele>2518</ele>
        <time>2020-08-02T12:17:52Z</time>
      </trkpt>
      <trkpt lat="44.67677" lon="7.04557">
        <ele>2516</ele>
        <time>2020-08-02T12:17:53Z</time>
      </trkpt>
      <trkpt lat="44.67678" lon="7.04523">
        <ele>2515</ele>
        <time>2020-08-02T12:17:57Z</time>
      </trkpt>
      <trkpt lat="44.67686" lon="7.04497">
        <ele>2514</ele>
        <time>2020-08-02T12:18:01Z</time>
      </trkpt>
      <trkpt lat="44.67688" lon="7.04476">
        <ele>2513</ele>
        <time>2020-08-02T12:18:04Z</time>
      </trkpt>
      <trkpt lat="44.67681" lon="7.04433">
        <ele>2512</ele>
        <time>2020-08-02T12:18:09Z</time>
      </trkpt>
      <trkpt lat="44.67673" lon="7.04395">
        <ele>2507</ele>
        <time>2020-08-02T12:18:15Z</time>
      </trkpt>
      <trkpt lat="44.67673" lon="7.04391">
        <ele>2506</ele>
        <time>2020-08-02T12:18:16Z</time>
      </trkpt>
      <trkpt lat="44.6767" lon="7.04373">
        <ele>2504</ele>
        <time>2020-08-02T12:18:25Z</time>
      </trkpt>
      <trkpt lat="44.67662" lon="7.04371">
        <ele>2501</ele>
        <time>2020-08-02T12:18:35Z</time>
      </trkpt>
      <trkpt lat="44.67638" lon="7.04363">
        <ele>2495</ele>
        <time>2020-08-02T12:18:42Z</time>
      </trkpt>
      <trkpt lat="44.67637" lon="7.04345">
        <ele>2495</ele>
        <time>2020-08-02T12:18:46Z</time>
      </trkpt>
      <trkpt lat="44.67638" lon="7.0434">
        <ele>2495</ele>
        <time>2020-08-02T12:18:47Z</time>
      </trkpt>
      <trkpt lat="44.67633" lon="7.04303">
        <ele>2491</ele>
        <time>2020-08-02T12:18:53Z</time>
      </trkpt>
      <trkpt lat="44.67627" lon="7.04293">
        <ele>2489</ele>
        <time>2020-08-02T12:18:56Z</time>
      </trkpt>
      <trkpt lat="44.67614" lon="7.04276">
        <ele>2485</ele>
        <time>2020-08-02T12:19:06Z</time>
      </trkpt>
      <trkpt lat="44.67601" lon="7.04246">
        <ele>2481</ele>
        <time>2020-08-02T12:19:14Z</time>
      </trkpt>
      <trkpt lat="44.67593" lon="7.04232">
        <ele>2476</ele>
        <time>2020-08-02T12:19:20Z</time>
      </trkpt>
      <trkpt lat="44.67589" lon="7.04228">
        <ele>2473</ele>
        <time>2020-08-02T12:19:22Z</time>
      </trkpt>
      <trkpt lat="44.67588" lon="7.04218">
        <ele>2470</ele>
        <time>2020-08-02T12:19:26Z</time>
      </trkpt>
      <trkpt lat="44.67586" lon="7.04213">
        <ele>2468</ele>
        <time>2020-08-02T12:19:28Z</time>
      </trkpt>
      <trkpt lat="44.67583" lon="7.04202">
        <ele>2464</ele>
        <time>2020-08-02T12:19:31Z</time>
      </trkpt>
      <trkpt lat="44.6758" lon="7.04196">
        <ele>2462</ele>
        <time>2020-08-02T12:19:33Z</time>
      </trkpt>
      <trkpt lat="44.67573" lon="7.04178">
        <ele>2458</ele>
        <time>2020-08-02T12:19:39Z</time>
      </trkpt>
      <trkpt lat="44.6757" lon="7.04174">
        <ele>2457</ele>
        <time>2020-08-02T12:19:41Z</time>
      </trkpt>
      <trkpt lat="44.67567" lon="7.04166">
        <ele>2455</ele>
        <time>2020-08-02T12:19:45Z</time>
      </trkpt>
      <trkpt lat="44.67557" lon="7.04145">
        <ele>2452</ele>
        <time>2020-08-02T12:19:51Z</time>
      </trkpt>
      <trkpt lat="44.67556" lon="7.04142">
        <ele>2452</ele>
        <time>2020-08-02T12:19:52Z</time>
      </trkpt>
      <trkpt lat="44.67553" lon="7.04132">
        <ele>2450</ele>
        <time>2020-08-02T12:19:55Z</time>
      </trkpt>
      <trkpt lat="44.67549" lon="7.04125">
        <ele>2448</ele>
        <time>2020-08-02T12:19:59Z</time>
      </trkpt>
      <trkpt lat="44.67548" lon="7.04123">
        <ele>2448</ele>
        <time>2020-08-02T12:20:04Z</time>
      </trkpt>
      <trkpt lat="44.67547" lon="7.04122">
        <ele>2448</ele>
        <time>2020-08-02T12:20:06Z</time>
      </trkpt>
      <trkpt lat="44.67541" lon="7.0412">
        <ele>2446</ele>
        <time>2020-08-02T12:20:33Z</time>
      </trkpt>
      <trkpt lat="44.6754" lon="7.04113">
        <ele>2445</ele>
        <time>2020-08-02T12:20:35Z</time>
      </trkpt>
      <trkpt lat="44.67537" lon="7.04081">
        <ele>2437</ele>
        <time>2020-08-02T12:20:43Z</time>
      </trkpt>
      <trkpt lat="44.67536" lon="7.04078">
        <ele>2436</ele>
        <time>2020-08-02T12:20:44Z</time>
      </trkpt>
      <trkpt lat="44.67534" lon="7.04069">
        <ele>2433</ele>
        <time>2020-08-02T12:20:46Z</time>
      </trkpt>
      <trkpt lat="44.67534" lon="7.04043">
        <ele>2429</ele>
        <time>2020-08-02T12:20:51Z</time>
      </trkpt>
      <trkpt lat="44.67535" lon="7.04033">
        <ele>2429</ele>
        <time>2020-08-02T12:20:53Z</time>
      </trkpt>
      <trkpt lat="44.67537" lon="7.04025">
        <ele>2428</ele>
        <time>2020-08-02T12:20:55Z</time>
      </trkpt>
      <trkpt lat="44.67535" lon="7.04003">
        <ele>2425</ele>
        <time>2020-08-02T12:21:00Z</time>
      </trkpt>
      <trkpt lat="44.67531" lon="7.03989">
        <ele>2423</ele>
        <time>2020-08-02T12:21:05Z</time>
      </trkpt>
      <trkpt lat="44.67531" lon="7.03986">
        <ele>2423</ele>
        <time>2020-08-02T12:21:06Z</time>
      </trkpt>
      <trkpt lat="44.67532" lon="7.03976">
        <ele>2422</ele>
        <time>2020-08-02T12:21:10Z</time>
      </trkpt>
      <trkpt lat="44.67532" lon="7.03972">
        <ele>2421</ele>
        <time>2020-08-02T12:21:12Z</time>
      </trkpt>
      <trkpt lat="44.67532" lon="7.03966">
        <ele>2420</ele>
        <time>2020-08-02T12:21:16Z</time>
      </trkpt>
      <trkpt lat="44.67533" lon="7.03948">
        <ele>2416</ele>
        <time>2020-08-02T12:21:22Z</time>
      </trkpt>
      <trkpt lat="44.67532" lon="7.03925">
        <ele>2412</ele>
        <time>2020-08-02T12:21:29Z</time>
      </trkpt>
      <trkpt lat="44.67526" lon="7.03897">
        <ele>2406</ele>
        <time>2020-08-02T12:21:38Z</time>
      </trkpt>
      <trkpt lat="44.67523" lon="7.03889">
        <ele>2404</ele>
        <time>2020-08-02T12:21:40Z</time>
      </trkpt>
      <trkpt lat="44.67519" lon="7.03868">
        <ele>2398</ele>
        <time>2020-08-02T12:21:44Z</time>
      </trkpt>
      <trkpt lat="44.67518" lon="7.0386">
        <ele>2396</ele>
        <time>2020-08-02T12:21:46Z</time>
      </trkpt>
      <trkpt lat="44.67515" lon="7.03843">
        <ele>2392</ele>
        <time>2020-08-02T12:21:51Z</time>
      </trkpt>
      <trkpt lat="44.67509" lon="7.03812">
        <ele>2390</ele>
        <time>2020-08-02T12:21:56Z</time>
      </trkpt>
      <trkpt lat="44.67507" lon="7.03805">
        <ele>2389</ele>
        <time>2020-08-02T12:21:57Z</time>
      </trkpt>
      <trkpt lat="44.67499" lon="7.03784">
        <ele>2388</ele>
        <time>2020-08-02T12:22:02Z</time>
      </trkpt>
      <trkpt lat="44.67497" lon="7.0378">
        <ele>2388</ele>
        <time>2020-08-02T12:22:03Z</time>
      </trkpt>
      <trkpt lat="44.6749" lon="7.03759">
        <ele>2385</ele>
        <time>2020-08-02T12:22:07Z</time>
      </trkpt>
      <trkpt lat="44.67477" lon="7.03713">
        <ele>2377</ele>
        <time>2020-08-02T12:22:16Z</time>
      </trkpt>
      <trkpt lat="44.67474" lon="7.03679">
        <ele>2377</ele>
        <time>2020-08-02T12:22:21Z</time>
      </trkpt>
      <trkpt lat="44.67474" lon="7.03654">
        <ele>2377</ele>
        <time>2020-08-02T12:22:25Z</time>
      </trkpt>
      <trkpt lat="44.67472" lon="7.03631">
        <ele>2374</ele>
        <time>2020-08-02T12:22:29Z</time>
      </trkpt>
      <trkpt lat="44.67471" lon="7.0362">
        <ele>2371</ele>
        <time>2020-08-02T12:22:31Z</time>
      </trkpt>
      <trkpt lat="44.6747" lon="7.03615">
        <ele>2370</ele>
        <time>2020-08-02T12:22:32Z</time>
      </trkpt>
      <trkpt lat="44.67466" lon="7.03594">
        <ele>2366</ele>
        <time>2020-08-02T12:22:39Z</time>
      </trkpt>
      <trkpt lat="44.67461" lon="7.0358">
        <ele>2361</ele>
        <time>2020-08-02T12:22:42Z</time>
      </trkpt>
      <trkpt lat="44.67456" lon="7.03559">
        <ele>2357</ele>
        <time>2020-08-02T12:22:51Z</time>
      </trkpt>
      <trkpt lat="44.67452" lon="7.03551">
        <ele>2354</ele>
        <time>2020-08-02T12:23:23Z</time>
      </trkpt>
      <trkpt lat="44.67445" lon="7.03519">
        <ele>2348</ele>
        <time>2020-08-02T12:23:27Z</time>
      </trkpt>
      <trkpt lat="44.6744" lon="7.03495">
        <ele>2346</ele>
        <time>2020-08-02T12:23:31Z</time>
      </trkpt>
      <trkpt lat="44.67435" lon="7.03463">
        <ele>2345</ele>
        <time>2020-08-02T12:23:36Z</time>
      </trkpt>
      <trkpt lat="44.67433" lon="7.03455">
        <ele>2346</ele>
        <time>2020-08-02T12:23:37Z</time>
      </trkpt>
      <trkpt lat="44.67414" lon="7.0342">
        <ele>2336</ele>
        <time>2020-08-02T12:23:44Z</time>
      </trkpt>
      <trkpt lat="44.67405" lon="7.03406">
        <ele>2332</ele>
        <time>2020-08-02T12:23:48Z</time>
      </trkpt>
      <trkpt lat="44.67399" lon="7.03396">
        <ele>2329</ele>
        <time>2020-08-02T12:23:52Z</time>
      </trkpt>
      <trkpt lat="44.6739" lon="7.03381">
        <ele>2324</ele>
        <time>2020-08-02T12:23:57Z</time>
      </trkpt>
      <trkpt lat="44.67381" lon="7.03369">
        <ele>2319</ele>
        <time>2020-08-02T12:24:02Z</time>
      </trkpt>
      <trkpt lat="44.67355" lon="7.03339">
        <ele>2309</ele>
        <time>2020-08-02T12:24:09Z</time>
      </trkpt>
      <trkpt lat="44.67346" lon="7.03321">
        <ele>2304</ele>
        <time>2020-08-02T12:24:13Z</time>
      </trkpt>
      <trkpt lat="44.67345" lon="7.0331">
        <ele>2302</ele>
        <time>2020-08-02T12:24:16Z</time>
      </trkpt>
      <trkpt lat="44.6734" lon="7.03296">
        <ele>2301</ele>
        <time>2020-08-02T12:24:19Z</time>
      </trkpt>
      <trkpt lat="44.67327" lon="7.03279">
        <ele>2298</ele>
        <time>2020-08-02T12:24:22Z</time>
      </trkpt>
      <trkpt lat="44.67321" lon="7.0326">
        <ele>2299</ele>
        <time>2020-08-02T12:24:25Z</time>
      </trkpt>
      <trkpt lat="44.67316" lon="7.03243">
        <ele>2298</ele>
        <time>2020-08-02T12:24:30Z</time>
      </trkpt>
      <trkpt lat="44.67315" lon="7.03236">
        <ele>2297</ele>
        <time>2020-08-02T12:24:32Z</time>
      </trkpt>
      <trkpt lat="44.67313" lon="7.03233">
        <ele>2297</ele>
        <time>2020-08-02T12:24:33Z</time>
      </trkpt>
      <trkpt lat="44.67308" lon="7.03218">
        <ele>2293</ele>
        <time>2020-08-02T12:24:38Z</time>
      </trkpt>
      <trkpt lat="44.67303" lon="7.03203">
        <ele>2291</ele>
        <time>2020-08-02T12:24:41Z</time>
      </trkpt>
      <trkpt lat="44.67294" lon="7.03182">
        <ele>2286</ele>
        <time>2020-08-02T12:24:44Z</time>
      </trkpt>
      <trkpt lat="44.67288" lon="7.03161">
        <ele>2280</ele>
        <time>2020-08-02T12:24:48Z</time>
      </trkpt>
      <trkpt lat="44.67283" lon="7.03146">
        <ele>2277</ele>
        <time>2020-08-02T12:24:52Z</time>
      </trkpt>
      <trkpt lat="44.67281" lon="7.0314">
        <ele>2276</ele>
        <time>2020-08-02T12:24:55Z</time>
      </trkpt>
      <trkpt lat="44.67277" lon="7.03131">
        <ele>2274</ele>
        <time>2020-08-02T12:24:59Z</time>
      </trkpt>
      <trkpt lat="44.67269" lon="7.03126">
        <ele>2272</ele>
        <time>2020-08-02T12:25:04Z</time>
      </trkpt>
      <trkpt lat="44.67263" lon="7.03115">
        <ele>2270</ele>
        <time>2020-08-02T12:25:07Z</time>
      </trkpt>
      <trkpt lat="44.67262" lon="7.03111">
        <ele>2269</ele>
        <time>2020-08-02T12:25:12Z</time>
      </trkpt>
      <trkpt lat="44.67264" lon="7.03098">
        <ele>2269</ele>
        <time>2020-08-02T12:25:17Z</time>
      </trkpt>
      <trkpt lat="44.67262" lon="7.03093">
        <ele>2267</ele>
        <time>2020-08-02T12:25:19Z</time>
      </trkpt>
      <trkpt lat="44.67261" lon="7.03091">
        <ele>2267</ele>
        <time>2020-08-02T12:25:23Z</time>
      </trkpt>
      <trkpt lat="44.67262" lon="7.03077">
        <ele>2267</ele>
        <time>2020-08-02T12:25:28Z</time>
      </trkpt>
      <trkpt lat="44.67259" lon="7.03068">
        <ele>2264</ele>
        <time>2020-08-02T12:25:30Z</time>
      </trkpt>
      <trkpt lat="44.67253" lon="7.03058">
        <ele>2261</ele>
        <time>2020-08-02T12:25:32Z</time>
      </trkpt>
      <trkpt lat="44.67243" lon="7.03039">
        <ele>2256</ele>
        <time>2020-08-02T12:25:36Z</time>
      </trkpt>
      <trkpt lat="44.67231" lon="7.03004">
        <ele>2251</ele>
        <time>2020-08-02T12:25:42Z</time>
      </trkpt>
      <trkpt lat="44.67228" lon="7.02999">
        <ele>2250</ele>
        <time>2020-08-02T12:25:43Z</time>
      </trkpt>
      <trkpt lat="44.67222" lon="7.02979">
        <ele>2250</ele>
        <time>2020-08-02T12:25:48Z</time>
      </trkpt>
      <trkpt lat="44.67221" lon="7.02974">
        <ele>2250</ele>
        <time>2020-08-02T12:25:49Z</time>
      </trkpt>
      <trkpt lat="44.67219" lon="7.02963">
        <ele>2251</ele>
        <time>2020-08-02T12:25:51Z</time>
      </trkpt>
      <trkpt lat="44.67212" lon="7.02923">
        <ele>2251</ele>
        <time>2020-08-02T12:25:59Z</time>
      </trkpt>
      <trkpt lat="44.67209" lon="7.02895">
        <ele>2249</ele>
        <time>2020-08-02T12:26:05Z</time>
      </trkpt>
      <trkpt lat="44.67208" lon="7.02892">
        <ele>2249</ele>
        <time>2020-08-02T12:26:06Z</time>
      </trkpt>
      <trkpt lat="44.67196" lon="7.02859">
        <ele>2241</ele>
        <time>2020-08-02T12:26:12Z</time>
      </trkpt>
      <trkpt lat="44.67192" lon="7.02844">
        <ele>2237</ele>
        <time>2020-08-02T12:26:14Z</time>
      </trkpt>
      <trkpt lat="44.67185" lon="7.0282">
        <ele>2234</ele>
        <time>2020-08-02T12:26:20Z</time>
      </trkpt>
      <trkpt lat="44.67183" lon="7.02809">
        <ele>2232</ele>
        <time>2020-08-02T12:26:22Z</time>
      </trkpt>
      <trkpt lat="44.67181" lon="7.02803">
        <ele>2232</ele>
        <time>2020-08-02T12:26:23Z</time>
      </trkpt>
      <trkpt lat="44.67178" lon="7.02791">
        <ele>2231</ele>
        <time>2020-08-02T12:26:25Z</time>
      </trkpt>
      <trkpt lat="44.67174" lon="7.02765">
        <ele>2230</ele>
        <time>2020-08-02T12:26:29Z</time>
      </trkpt>
      <trkpt lat="44.6717" lon="7.02745">
        <ele>2228</ele>
        <time>2020-08-02T12:26:32Z</time>
      </trkpt>
      <trkpt lat="44.67161" lon="7.02705">
        <ele>2225</ele>
        <time>2020-08-02T12:26:37Z</time>
      </trkpt>
      <trkpt lat="44.67159" lon="7.02688">
        <ele>2224</ele>
        <time>2020-08-02T12:26:39Z</time>
      </trkpt>
      <trkpt lat="44.67154" lon="7.02662">
        <ele>2222</ele>
        <time>2020-08-02T12:26:44Z</time>
      </trkpt>
      <trkpt lat="44.67154" lon="7.02662">
        <ele>2222</ele>
        <time>2020-08-02T12:26:48Z</time>
      </trkpt>
      <trkpt lat="44.67155" lon="7.02654">
        <ele>2222</ele>
        <time>2020-08-02T12:27:19Z</time>
      </trkpt>
      <trkpt lat="44.67155" lon="7.02637">
        <ele>2220</ele>
        <time>2020-08-02T12:27:23Z</time>
      </trkpt>
      <trkpt lat="44.67153" lon="7.02603">
        <ele>2220</ele>
        <time>2020-08-02T12:27:28Z</time>
      </trkpt>
      <trkpt lat="44.67151" lon="7.02576">
        <ele>2218</ele>
        <time>2020-08-02T12:27:33Z</time>
      </trkpt>
      <trkpt lat="44.67158" lon="7.02524">
        <ele>2219</ele>
        <time>2020-08-02T12:27:43Z</time>
      </trkpt>
      <trkpt lat="44.67159" lon="7.02504">
        <ele>2217</ele>
        <time>2020-08-02T12:27:51Z</time>
      </trkpt>
      <trkpt lat="44.67159" lon="7.02496">
        <ele>2216</ele>
        <time>2020-08-02T12:33:28Z</time>
      </trkpt>
      <trkpt lat="44.6716" lon="7.02475">
        <ele>2215</ele>
        <time>2020-08-02T12:33:32Z</time>
      </trkpt>
      <trkpt lat="44.67164" lon="7.02458">
        <ele>2217</ele>
        <time>2020-08-02T12:33:35Z</time>
      </trkpt>
      <trkpt lat="44.67172" lon="7.02433">
        <ele>2216</ele>
        <time>2020-08-02T12:33:39Z</time>
      </trkpt>
      <trkpt lat="44.67174" lon="7.02418">
        <ele>2215</ele>
        <time>2020-08-02T12:33:41Z</time>
      </trkpt>
      <trkpt lat="44.67176" lon="7.02392">
        <ele>2210</ele>
        <time>2020-08-02T12:33:44Z</time>
      </trkpt>
      <trkpt lat="44.67179" lon="7.02377">
        <ele>2209</ele>
        <time>2020-08-02T12:33:46Z</time>
      </trkpt>
      <trkpt lat="44.6718" lon="7.02347">
        <ele>2207</ele>
        <time>2020-08-02T12:33:50Z</time>
      </trkpt>
      <trkpt lat="44.67181" lon="7.02325">
        <ele>2207</ele>
        <time>2020-08-02T12:33:53Z</time>
      </trkpt>
      <trkpt lat="44.67176" lon="7.02299">
        <ele>2209</ele>
        <time>2020-08-02T12:33:57Z</time>
      </trkpt>
      <trkpt lat="44.67172" lon="7.0228">
        <ele>2210</ele>
        <time>2020-08-02T12:34:00Z</time>
      </trkpt>
      <trkpt lat="44.67172" lon="7.02252">
        <ele>2208</ele>
        <time>2020-08-02T12:34:04Z</time>
      </trkpt>
      <trkpt lat="44.67174" lon="7.0223">
        <ele>2205</ele>
        <time>2020-08-02T12:34:07Z</time>
      </trkpt>
      <trkpt lat="44.67183" lon="7.0219">
        <ele>2204</ele>
        <time>2020-08-02T12:34:13Z</time>
      </trkpt>
      <trkpt lat="44.67199" lon="7.02153">
        <ele>2202</ele>
        <time>2020-08-02T12:34:21Z</time>
      </trkpt>
      <trkpt lat="44.67226" lon="7.02122">
        <ele>2200</ele>
        <time>2020-08-02T12:34:30Z</time>
      </trkpt>
      <trkpt lat="44.67232" lon="7.02114">
        <ele>2202</ele>
        <time>2020-08-02T12:34:32Z</time>
      </trkpt>
      <trkpt lat="44.67242" lon="7.02083">
        <ele>2202</ele>
        <time>2020-08-02T12:34:38Z</time>
      </trkpt>
      <trkpt lat="44.67233" lon="7.02023">
        <ele>2204</ele>
        <time>2020-08-02T12:34:50Z</time>
      </trkpt>
      <trkpt lat="44.67234" lon="7.02006">
        <ele>2205</ele>
        <time>2020-08-02T12:34:53Z</time>
      </trkpt>
      <trkpt lat="44.67219" lon="7.0197">
        <ele>2203</ele>
        <time>2020-08-02T12:34:59Z</time>
      </trkpt>
      <trkpt lat="44.67208" lon="7.01946">
        <ele>2201</ele>
        <time>2020-08-02T12:35:03Z</time>
      </trkpt>
      <trkpt lat="44.67191" lon="7.0186">
        <ele>2198</ele>
        <time>2020-08-02T12:35:17Z</time>
      </trkpt>
      <trkpt lat="44.6718" lon="7.01821">
        <ele>2197</ele>
        <time>2020-08-02T12:35:25Z</time>
      </trkpt>
      <trkpt lat="44.67178" lon="7.01793">
        <ele>2197</ele>
        <time>2020-08-02T12:35:30Z</time>
      </trkpt>
      <trkpt lat="44.67188" lon="7.01752">
        <ele>2199</ele>
        <time>2020-08-02T12:35:41Z</time>
      </trkpt>
      <trkpt lat="44.67187" lon="7.0173">
        <ele>2201</ele>
        <time>2020-08-02T12:35:47Z</time>
      </trkpt>
      <trkpt lat="44.67179" lon="7.01681">
        <ele>2202</ele>
        <time>2020-08-02T12:36:00Z</time>
      </trkpt>
      <trkpt lat="44.67179" lon="7.01671">
        <ele>2202</ele>
        <time>2020-08-02T12:36:02Z</time>
      </trkpt>
      <trkpt lat="44.67177" lon="7.01614">
        <ele>2206</ele>
        <time>2020-08-02T12:36:15Z</time>
      </trkpt>
      <trkpt lat="44.67178" lon="7.01606">
        <ele>2206</ele>
        <time>2020-08-02T12:36:17Z</time>
      </trkpt>
      <trkpt lat="44.67172" lon="7.01575">
        <ele>2204</ele>
        <time>2020-08-02T12:36:24Z</time>
      </trkpt>
      <trkpt lat="44.67178" lon="7.0153">
        <ele>2200</ele>
        <time>2020-08-02T12:36:35Z</time>
      </trkpt>
      <trkpt lat="44.67183" lon="7.01512">
        <ele>2201</ele>
        <time>2020-08-02T12:36:42Z</time>
      </trkpt>
      <trkpt lat="44.6719" lon="7.01467">
        <ele>2202</ele>
        <time>2020-08-02T12:36:52Z</time>
      </trkpt>
      <trkpt lat="44.67194" lon="7.01417">
        <ele>2196</ele>
        <time>2020-08-02T12:37:03Z</time>
      </trkpt>
      <trkpt lat="44.67195" lon="7.01414">
        <ele>2195</ele>
        <time>2020-08-02T12:37:04Z</time>
      </trkpt>
      <trkpt lat="44.67199" lon="7.01408">
        <ele>2195</ele>
        <time>2020-08-02T12:37:06Z</time>
      </trkpt>
      <trkpt lat="44.6721" lon="7.01381">
        <ele>2193</ele>
        <time>2020-08-02T12:37:13Z</time>
      </trkpt>
      <trkpt lat="44.672" lon="7.01348">
        <ele>2188</ele>
        <time>2020-08-02T12:37:23Z</time>
      </trkpt>
      <trkpt lat="44.67199" lon="7.01344">
        <ele>2188</ele>
        <time>2020-08-02T12:37:29Z</time>
      </trkpt>
      <trkpt lat="44.67195" lon="7.01333">
        <ele>2187</ele>
        <time>2020-08-02T12:38:13Z</time>
      </trkpt>
      <trkpt lat="44.67169" lon="7.01288">
        <ele>2183</ele>
        <time>2020-08-02T12:38:19Z</time>
      </trkpt>
      <trkpt lat="44.67162" lon="7.0128">
        <ele>2182</ele>
        <time>2020-08-02T12:38:20Z</time>
      </trkpt>
      <trkpt lat="44.67139" lon="7.01242">
        <ele>2179</ele>
        <time>2020-08-02T12:38:24Z</time>
      </trkpt>
      <trkpt lat="44.67129" lon="7.01223">
        <ele>2176</ele>
        <time>2020-08-02T12:38:26Z</time>
      </trkpt>
      <trkpt lat="44.67117" lon="7.01207">
        <ele>2172</ele>
        <time>2020-08-02T12:38:28Z</time>
      </trkpt>
      <trkpt lat="44.67096" lon="7.01183">
        <ele>2168</ele>
        <time>2020-08-02T12:38:31Z</time>
      </trkpt>
      <trkpt lat="44.67068" lon="7.01136">
        <ele>2161</ele>
        <time>2020-08-02T12:38:36Z</time>
      </trkpt>
      <trkpt lat="44.67049" lon="7.01096">
        <ele>2157</ele>
        <time>2020-08-02T12:38:41Z</time>
      </trkpt>
      <trkpt lat="44.67041" lon="7.01077">
        <ele>2155</ele>
        <time>2020-08-02T12:38:44Z</time>
      </trkpt>
      <trkpt lat="44.67036" lon="7.01067">
        <ele>2154</ele>
        <time>2020-08-02T12:38:46Z</time>
      </trkpt>
      <trkpt lat="44.6703" lon="7.01054">
        <ele>2153</ele>
        <time>2020-08-02T12:38:48Z</time>
      </trkpt>
      <trkpt lat="44.67027" lon="7.01047">
        <ele>2152</ele>
        <time>2020-08-02T12:38:49Z</time>
      </trkpt>
      <trkpt lat="44.67002" lon="7.00993">
        <ele>2148</ele>
        <time>2020-08-02T12:38:59Z</time>
      </trkpt>
      <trkpt lat="44.6699" lon="7.00975">
        <ele>2146</ele>
        <time>2020-08-02T12:39:05Z</time>
      </trkpt>
      <trkpt lat="44.66967" lon="7.00933">
        <ele>2146</ele>
        <time>2020-08-02T12:39:16Z</time>
      </trkpt>
      <trkpt lat="44.66966" lon="7.0093">
        <ele>2146</ele>
        <time>2020-08-02T12:39:17Z</time>
      </trkpt>
      <trkpt lat="44.66962" lon="7.00927">
        <ele>2146</ele>
        <time>2020-08-02T12:39:20Z</time>
      </trkpt>
      <trkpt lat="44.66962" lon="7.00926">
        <ele>2146</ele>
        <time>2020-08-02T12:39:24Z</time>
      </trkpt>
      <trkpt lat="44.6696" lon="7.00921">
        <ele>2147</ele>
        <time>2020-08-02T12:40:03Z</time>
      </trkpt>
      <trkpt lat="44.66958" lon="7.00916">
        <ele>2147</ele>
        <time>2020-08-02T12:40:05Z</time>
      </trkpt>
      <trkpt lat="44.66956" lon="7.00909">
        <ele>2147</ele>
        <time>2020-08-02T12:40:07Z</time>
      </trkpt>
      <trkpt lat="44.6693" lon="7.00872">
        <ele>2144</ele>
        <time>2020-08-02T12:40:21Z</time>
      </trkpt>
      <trkpt lat="44.66914" lon="7.00832">
        <ele>2146</ele>
        <time>2020-08-02T12:40:34Z</time>
      </trkpt>
      <trkpt lat="44.66895" lon="7.00793">
        <ele>2147</ele>
        <time>2020-08-02T12:40:45Z</time>
      </trkpt>
      <trkpt lat="44.66879" lon="7.0077">
        <ele>2147</ele>
        <time>2020-08-02T12:40:53Z</time>
      </trkpt>
      <trkpt lat="44.66874" lon="7.00765">
        <ele>2147</ele>
        <time>2020-08-02T12:40:55Z</time>
      </trkpt>
      <trkpt lat="44.66855" lon="7.00728">
        <ele>2149</ele>
        <time>2020-08-02T12:41:05Z</time>
      </trkpt>
      <trkpt lat="44.66852" lon="7.00725">
        <ele>2149</ele>
        <time>2020-08-02T12:41:06Z</time>
      </trkpt>
      <trkpt lat="44.66817" lon="7.00686">
        <ele>2143</ele>
        <time>2020-08-02T12:41:21Z</time>
      </trkpt>
      <trkpt lat="44.66796" lon="7.0064">
        <ele>2146</ele>
        <time>2020-08-02T12:41:37Z</time>
      </trkpt>
      <trkpt lat="44.66773" lon="7.00604">
        <ele>2152</ele>
        <time>2020-08-02T12:41:52Z</time>
      </trkpt>
      <trkpt lat="44.66748" lon="7.00556">
        <ele>2148</ele>
        <time>2020-08-02T12:42:11Z</time>
      </trkpt>
      <trkpt lat="44.66735" lon="7.00539">
        <ele>2145</ele>
        <time>2020-08-02T12:42:17Z</time>
      </trkpt>
      <trkpt lat="44.66721" lon="7.00525">
        <ele>2142</ele>
        <time>2020-08-02T12:42:21Z</time>
      </trkpt>
      <trkpt lat="44.66714" lon="7.00505">
        <ele>2141</ele>
        <time>2020-08-02T12:42:28Z</time>
      </trkpt>
      <trkpt lat="44.66712" lon="7.00502">
        <ele>2141</ele>
        <time>2020-08-02T12:42:30Z</time>
      </trkpt>
      <trkpt lat="44.66709" lon="7.00495">
        <ele>2141</ele>
        <time>2020-08-02T12:42:38Z</time>
      </trkpt>
      <trkpt lat="44.66695" lon="7.00475">
        <ele>2136</ele>
        <time>2020-08-02T12:42:45Z</time>
      </trkpt>
      <trkpt lat="44.66673" lon="7.00431">
        <ele>2135</ele>
        <time>2020-08-02T12:42:56Z</time>
      </trkpt>
      <trkpt lat="44.66668" lon="7.00415">
        <ele>2134</ele>
        <time>2020-08-02T12:42:59Z</time>
      </trkpt>
      <trkpt lat="44.66662" lon="7.00384">
        <ele>2137</ele>
        <time>2020-08-02T12:43:07Z</time>
      </trkpt>
      <trkpt lat="44.66649" lon="7.00344">
        <ele>2141</ele>
        <time>2020-08-02T12:43:19Z</time>
      </trkpt>
      <trkpt lat="44.66644" lon="7.00324">
        <ele>2142</ele>
        <time>2020-08-02T12:43:25Z</time>
      </trkpt>
      <trkpt lat="44.66642" lon="7.00304">
        <ele>2144</ele>
        <time>2020-08-02T12:43:31Z</time>
      </trkpt>
      <trkpt lat="44.6664" lon="7.00294">
        <ele>2144</ele>
        <time>2020-08-02T12:43:34Z</time>
      </trkpt>
      <trkpt lat="44.66629" lon="7.00284">
        <ele>2139</ele>
        <time>2020-08-02T12:43:38Z</time>
      </trkpt>
      <trkpt lat="44.66613" lon="7.00275">
        <ele>2131</ele>
        <time>2020-08-02T12:43:42Z</time>
      </trkpt>
      <trkpt lat="44.6661" lon="7.00265">
        <ele>2132</ele>
        <time>2020-08-02T12:43:44Z</time>
      </trkpt>
      <trkpt lat="44.66604" lon="7.00243">
        <ele>2133</ele>
        <time>2020-08-02T12:43:48Z</time>
      </trkpt>
      <trkpt lat="44.66605" lon="7.00229">
        <ele>2135</ele>
        <time>2020-08-02T12:43:52Z</time>
      </trkpt>
      <trkpt lat="44.66597" lon="7.00185">
        <ele>2131</ele>
        <time>2020-08-02T12:44:01Z</time>
      </trkpt>
      <trkpt lat="44.66597" lon="7.00171">
        <ele>2131</ele>
        <time>2020-08-02T12:44:05Z</time>
      </trkpt>
      <trkpt lat="44.66593" lon="7.00143">
        <ele>2127</ele>
        <time>2020-08-02T12:44:12Z</time>
      </trkpt>
      <trkpt lat="44.66591" lon="7.00131">
        <ele>2126</ele>
        <time>2020-08-02T12:44:14Z</time>
      </trkpt>
      <trkpt lat="44.66588" lon="7.00109">
        <ele>2122</ele>
        <time>2020-08-02T12:44:18Z</time>
      </trkpt>
      <trkpt lat="44.66585" lon="7.00094">
        <ele>2116</ele>
        <time>2020-08-02T12:44:23Z</time>
      </trkpt>
      <trkpt lat="44.66585" lon="7.00089">
        <ele>2116</ele>
        <time>2020-08-02T12:44:24Z</time>
      </trkpt>
      <trkpt lat="44.66582" lon="7.0006">
        <ele>2112</ele>
        <time>2020-08-02T12:44:30Z</time>
      </trkpt>
      <trkpt lat="44.66579" lon="7.00053">
        <ele>2111</ele>
        <time>2020-08-02T12:44:32Z</time>
      </trkpt>
      <trkpt lat="44.66569" lon="7.00042">
        <ele>2106</ele>
        <time>2020-08-02T12:44:36Z</time>
      </trkpt>
      <trkpt lat="44.66564" lon="7.00028">
        <ele>2104</ele>
        <time>2020-08-02T12:44:42Z</time>
      </trkpt>
      <trkpt lat="44.66556" lon="7.00012">
        <ele>2101</ele>
        <time>2020-08-02T12:44:47Z</time>
      </trkpt>
      <trkpt lat="44.66552" lon="7.00007">
        <ele>2100</ele>
        <time>2020-08-02T12:44:48Z</time>
      </trkpt>
      <trkpt lat="44.66543" lon="6.99999">
        <ele>2098</ele>
        <time>2020-08-02T12:44:50Z</time>
      </trkpt>
      <trkpt lat="44.66532" lon="6.99993">
        <ele>2094</ele>
        <time>2020-08-02T12:44:53Z</time>
      </trkpt>
      <trkpt lat="44.66524" lon="6.99988">
        <ele>2091</ele>
        <time>2020-08-02T12:44:57Z</time>
      </trkpt>
      <trkpt lat="44.66515" lon="6.99979">
        <ele>2087</ele>
        <time>2020-08-02T12:45:02Z</time>
      </trkpt>
      <trkpt lat="44.66514" lon="6.99971">
        <ele>2087</ele>
        <time>2020-08-02T12:45:05Z</time>
      </trkpt>
      <trkpt lat="44.66511" lon="6.99965">
        <ele>2086</ele>
        <time>2020-08-02T12:45:09Z</time>
      </trkpt>
      <trkpt lat="44.66507" lon="6.99958">
        <ele>2084</ele>
        <time>2020-08-02T12:45:13Z</time>
      </trkpt>
      <trkpt lat="44.66504" lon="6.99948">
        <ele>2082</ele>
        <time>2020-08-02T12:45:17Z</time>
      </trkpt>
      <trkpt lat="44.66497" lon="6.99928">
        <ele>2078</ele>
        <time>2020-08-02T12:45:26Z</time>
      </trkpt>
      <trkpt lat="44.66496" lon="6.99927">
        <ele>2078</ele>
        <time>2020-08-02T12:45:28Z</time>
      </trkpt>
      <trkpt lat="44.66487" lon="6.99928">
        <ele>2076</ele>
        <time>2020-08-02T12:45:31Z</time>
      </trkpt>
      <trkpt lat="44.66477" lon="6.99904">
        <ele>2073</ele>
        <time>2020-08-02T12:45:40Z</time>
      </trkpt>
      <trkpt lat="44.66477" lon="6.999">
        <ele>2072</ele>
        <time>2020-08-02T12:45:41Z</time>
      </trkpt>
      <trkpt lat="44.66477" lon="6.99895">
        <ele>2072</ele>
        <time>2020-08-02T12:45:44Z</time>
      </trkpt>
      <trkpt lat="44.66476" lon="6.99894">
        <ele>2071</ele>
        <time>2020-08-02T12:45:47Z</time>
      </trkpt>
      <trkpt lat="44.66459" lon="6.99857">
        <ele>2070</ele>
        <time>2020-08-02T12:46:00Z</time>
      </trkpt>
      <trkpt lat="44.66441" lon="6.9983">
        <ele>2068</ele>
        <time>2020-08-02T12:46:05Z</time>
      </trkpt>
      <trkpt lat="44.66423" lon="6.99804">
        <ele>2066</ele>
        <time>2020-08-02T12:46:10Z</time>
      </trkpt>
      <trkpt lat="44.66416" lon="6.99787">
        <ele>2063</ele>
        <time>2020-08-02T12:46:13Z</time>
      </trkpt>
      <trkpt lat="44.66407" lon="6.99767">
        <ele>2060</ele>
        <time>2020-08-02T12:46:18Z</time>
      </trkpt>
      <trkpt lat="44.66393" lon="6.99743">
        <ele>2055</ele>
        <time>2020-08-02T12:46:24Z</time>
      </trkpt>
      <trkpt lat="44.66384" lon="6.99721">
        <ele>2050</ele>
        <time>2020-08-02T12:46:31Z</time>
      </trkpt>
      <trkpt lat="44.66382" lon="6.99712">
        <ele>2049</ele>
        <time>2020-08-02T12:46:33Z</time>
      </trkpt>
      <trkpt lat="44.66384" lon="6.99693">
        <ele>2047</ele>
        <time>2020-08-02T12:46:36Z</time>
      </trkpt>
      <trkpt lat="44.66379" lon="6.99673">
        <ele>2043</ele>
        <time>2020-08-02T12:46:39Z</time>
      </trkpt>
      <trkpt lat="44.66376" lon="6.99651">
        <ele>2042</ele>
        <time>2020-08-02T12:46:42Z</time>
      </trkpt>
      <trkpt lat="44.66375" lon="6.99635">
        <ele>2041</ele>
        <time>2020-08-02T12:46:45Z</time>
      </trkpt>
      <trkpt lat="44.66371" lon="6.99616">
        <ele>2037</ele>
        <time>2020-08-02T12:46:48Z</time>
      </trkpt>
      <trkpt lat="44.6637" lon="6.99586">
        <ele>2037</ele>
        <time>2020-08-02T12:46:54Z</time>
      </trkpt>
      <trkpt lat="44.66374" lon="6.99575">
        <ele>2039</ele>
        <time>2020-08-02T12:46:58Z</time>
      </trkpt>
      <trkpt lat="44.66375" lon="6.99562">
        <ele>2040</ele>
        <time>2020-08-02T12:47:03Z</time>
      </trkpt>
      <trkpt lat="44.66365" lon="6.99547">
        <ele>2037</ele>
        <time>2020-08-02T12:47:11Z</time>
      </trkpt>
      <trkpt lat="44.66356" lon="6.99537">
        <ele>2035</ele>
        <time>2020-08-02T12:47:16Z</time>
      </trkpt>
      <trkpt lat="44.66335" lon="6.995">
        <ele>2033</ele>
        <time>2020-08-02T12:47:27Z</time>
      </trkpt>
      <trkpt lat="44.66323" lon="6.99477">
        <ele>2033</ele>
        <time>2020-08-02T12:47:35Z</time>
      </trkpt>
      <trkpt lat="44.66324" lon="6.99478">
        <ele>2033</ele>
        <time>2020-08-02T12:47:38Z</time>
      </trkpt>
      <trkpt lat="44.66321" lon="6.99472">
        <ele>2033</ele>
        <time>2020-08-02T12:48:00Z</time>
      </trkpt>
      <trkpt lat="44.66303" lon="6.99435">
        <ele>2031</ele>
        <time>2020-08-02T12:48:12Z</time>
      </trkpt>
      <trkpt lat="44.66274" lon="6.99378">
        <ele>2032</ele>
        <time>2020-08-02T12:48:25Z</time>
      </trkpt>
      <trkpt lat="44.66251" lon="6.99331">
        <ele>2028</ele>
        <time>2020-08-02T12:48:33Z</time>
      </trkpt>
      <trkpt lat="44.66234" lon="6.99305">
        <ele>2029</ele>
        <time>2020-08-02T12:48:37Z</time>
      </trkpt>
      <trkpt lat="44.66213" lon="6.99273">
        <ele>2025</ele>
        <time>2020-08-02T12:48:43Z</time>
      </trkpt>
      <trkpt lat="44.66211" lon="6.99268">
        <ele>2025</ele>
        <time>2020-08-02T12:48:44Z</time>
      </trkpt>
      <trkpt lat="44.66208" lon="6.9926">
        <ele>2025</ele>
        <time>2020-08-02T12:48:46Z</time>
      </trkpt>
      <trkpt lat="44.66188" lon="6.99247">
        <ele>2022</ele>
        <time>2020-08-02T12:48:55Z</time>
      </trkpt>
      <trkpt lat="44.66163" lon="6.99212">
        <ele>2018</ele>
        <time>2020-08-02T12:49:07Z</time>
      </trkpt>
      <trkpt lat="44.66151" lon="6.99193">
        <ele>2016</ele>
        <time>2020-08-02T12:49:12Z</time>
      </trkpt>
      <trkpt lat="44.66148" lon="6.99188">
        <ele>2016</ele>
        <time>2020-08-02T12:49:13Z</time>
      </trkpt>
      <trkpt lat="44.66145" lon="6.99184">
        <ele>2016</ele>
        <time>2020-08-02T12:49:14Z</time>
      </trkpt>
      <trkpt lat="44.66104" lon="6.99144">
        <ele>2013</ele>
        <time>2020-08-02T12:49:22Z</time>
      </trkpt>
      <trkpt lat="44.66097" lon="6.9914">
        <ele>2011</ele>
        <time>2020-08-02T12:49:23Z</time>
      </trkpt>
      <trkpt lat="44.66045" lon="6.99127">
        <ele>2001</ele>
        <time>2020-08-02T12:49:29Z</time>
      </trkpt>
      <trkpt lat="44.66005" lon="6.99117">
        <ele>1996</ele>
        <time>2020-08-02T12:49:33Z</time>
      </trkpt>
      <trkpt lat="44.65974" lon="6.99101">
        <ele>1996</ele>
        <time>2020-08-02T12:49:36Z</time>
      </trkpt>
      <trkpt lat="44.65946" lon="6.99078">
        <ele>1995</ele>
        <time>2020-08-02T12:49:39Z</time>
      </trkpt>
      <trkpt lat="44.65922" lon="6.99058">
        <ele>1989</ele>
        <time>2020-08-02T12:49:42Z</time>
      </trkpt>
      <trkpt lat="44.65902" lon="6.99036">
        <ele>1982</ele>
        <time>2020-08-02T12:49:45Z</time>
      </trkpt>
      <trkpt lat="44.65897" lon="6.99029">
        <ele>1980</ele>
        <time>2020-08-02T12:49:46Z</time>
      </trkpt>
      <trkpt lat="44.65891" lon="6.9902">
        <ele>1979</ele>
        <time>2020-08-02T12:49:47Z</time>
      </trkpt>
      <trkpt lat="44.65886" lon="6.99011">
        <ele>1978</ele>
        <time>2020-08-02T12:49:48Z</time>
      </trkpt>
      <trkpt lat="44.65879" lon="6.99002">
        <ele>1976</ele>
        <time>2020-08-02T12:49:49Z</time>
      </trkpt>
      <trkpt lat="44.65871" lon="6.98995">
        <ele>1974</ele>
        <time>2020-08-02T12:49:50Z</time>
      </trkpt>
      <trkpt lat="44.65863" lon="6.98989">
        <ele>1972</ele>
        <time>2020-08-02T12:49:51Z</time>
      </trkpt>
      <trkpt lat="44.65856" lon="6.98986">
        <ele>1971</ele>
        <time>2020-08-02T12:49:52Z</time>
      </trkpt>
      <trkpt lat="44.6585" lon="6.98983">
        <ele>1969</ele>
        <time>2020-08-02T12:49:53Z</time>
      </trkpt>
      <trkpt lat="44.65844" lon="6.98983">
        <ele>1968</ele>
        <time>2020-08-02T12:49:54Z</time>
      </trkpt>
      <trkpt lat="44.6584" lon="6.98983">
        <ele>1967</ele>
        <time>2020-08-02T12:49:55Z</time>
      </trkpt>
      <trkpt lat="44.65836" lon="6.98983">
        <ele>1965</ele>
        <time>2020-08-02T12:49:56Z</time>
      </trkpt>
      <trkpt lat="44.65832" lon="6.98982">
        <ele>1965</ele>
        <time>2020-08-02T12:49:57Z</time>
      </trkpt>
      <trkpt lat="44.65823" lon="6.98983">
        <ele>1964</ele>
        <time>2020-08-02T12:50:00Z</time>
      </trkpt>
      <trkpt lat="44.65814" lon="6.98989">
        <ele>1963</ele>
        <time>2020-08-02T12:50:04Z</time>
      </trkpt>
      <trkpt lat="44.65814" lon="6.98995">
        <ele>1962</ele>
        <time>2020-08-02T12:50:06Z</time>
      </trkpt>
      <trkpt lat="44.6581" lon="6.99005">
        <ele>1960</ele>
        <time>2020-08-02T12:50:11Z</time>
      </trkpt>
      <trkpt lat="44.65806" lon="6.99006">
        <ele>1960</ele>
        <time>2020-08-02T12:50:12Z</time>
      </trkpt>
      <trkpt lat="44.65801" lon="6.99007">
        <ele>1959</ele>
        <time>2020-08-02T12:50:13Z</time>
      </trkpt>
      <trkpt lat="44.65795" lon="6.99007">
        <ele>1959</ele>
        <time>2020-08-02T12:50:14Z</time>
      </trkpt>
      <trkpt lat="44.65784" lon="6.99007">
        <ele>1958</ele>
        <time>2020-08-02T12:50:16Z</time>
      </trkpt>
      <trkpt lat="44.6578" lon="6.99005">
        <ele>1958</ele>
        <time>2020-08-02T12:50:17Z</time>
      </trkpt>
      <trkpt lat="44.65775" lon="6.99004">
        <ele>1958</ele>
        <time>2020-08-02T12:50:18Z</time>
      </trkpt>
      <trkpt lat="44.6577" lon="6.99003">
        <ele>1957</ele>
        <time>2020-08-02T12:50:19Z</time>
      </trkpt>
      <trkpt lat="44.65767" lon="6.99003">
        <ele>1957</ele>
        <time>2020-08-02T12:50:20Z</time>
      </trkpt>
      <trkpt lat="44.65759" lon="6.99005">
        <ele>1955</ele>
        <time>2020-08-02T12:50:24Z</time>
      </trkpt>
      <trkpt lat="44.65758" lon="6.99005">
        <ele>1955</ele>
        <time>2020-08-02T12:50:27Z</time>
      </trkpt>
      <trkpt lat="44.6574" lon="6.99">
        <ele>1955</ele>
        <time>2020-08-02T12:50:58Z</time>
      </trkpt>
      <trkpt lat="44.65738" lon="6.98999">
        <ele>1955</ele>
        <time>2020-08-02T12:50:59Z</time>
      </trkpt>
      <trkpt lat="44.65735" lon="6.98998">
        <ele>1956</ele>
        <time>2020-08-02T12:51:00Z</time>
      </trkpt>
      <trkpt lat="44.65733" lon="6.98997">
        <ele>1956</ele>
        <time>2020-08-02T12:51:01Z</time>
      </trkpt>
      <trkpt lat="44.65731" lon="6.98995">
        <ele>1956</ele>
        <time>2020-08-02T12:51:02Z</time>
      </trkpt>
      <trkpt lat="44.65728" lon="6.98994">
        <ele>1957</ele>
        <time>2020-08-02T12:51:03Z</time>
      </trkpt>
      <trkpt lat="44.65726" lon="6.98994">
        <ele>1957</ele>
        <time>2020-08-02T12:51:04Z</time>
      </trkpt>
      <trkpt lat="44.65724" lon="6.98995">
        <ele>1957</ele>
        <time>2020-08-02T12:51:05Z</time>
      </trkpt>
      <trkpt lat="44.65718" lon="6.98997">
        <ele>1955</ele>
        <time>2020-08-02T12:51:07Z</time>
      </trkpt>
      <trkpt lat="44.65714" lon="6.98996">
        <ele>1954</ele>
        <time>2020-08-02T12:51:08Z</time>
      </trkpt>
      <trkpt lat="44.65712" lon="6.98995">
        <ele>1954</ele>
        <time>2020-08-02T12:51:09Z</time>
      </trkpt>
      <trkpt lat="44.6571" lon="6.98996">
        <ele>1953</ele>
        <time>2020-08-02T12:51:10Z</time>
      </trkpt>
      <trkpt lat="44.65708" lon="6.98997">
        <ele>1953</ele>
        <time>2020-08-02T12:51:11Z</time>
      </trkpt>
      <trkpt lat="44.65706" lon="6.98997">
        <ele>1952</ele>
        <time>2020-08-02T12:51:12Z</time>
      </trkpt>
      <trkpt lat="44.65704" lon="6.98996">
        <ele>1952</ele>
        <time>2020-08-02T12:51:13Z</time>
      </trkpt>
      <trkpt lat="44.65685" lon="6.98993">
        <ele>1947</ele>
        <time>2020-08-02T12:51:18Z</time>
      </trkpt>
      <trkpt lat="44.65681" lon="6.98992">
        <ele>1946</ele>
        <time>2020-08-02T12:51:19Z</time>
      </trkpt>
      <trkpt lat="44.65665" lon="6.98987">
        <ele>1943</ele>
        <time>2020-08-02T12:51:23Z</time>
      </trkpt>
      <trkpt lat="44.65658" lon="6.98983">
        <ele>1941</ele>
        <time>2020-08-02T12:51:25Z</time>
      </trkpt>
      <trkpt lat="44.65655" lon="6.98983">
        <ele>1940</ele>
        <time>2020-08-02T12:51:26Z</time>
      </trkpt>
      <trkpt lat="44.65653" lon="6.98984">
        <ele>1938</ele>
        <time>2020-08-02T12:51:27Z</time>
      </trkpt>
      <trkpt lat="44.65651" lon="6.98985">
        <ele>1937</ele>
        <time>2020-08-02T12:51:28Z</time>
      </trkpt>
      <trkpt lat="44.65648" lon="6.98984">
        <ele>1936</ele>
        <time>2020-08-02T12:51:29Z</time>
      </trkpt>
      <trkpt lat="44.65645" lon="6.98982">
        <ele>1935</ele>
        <time>2020-08-02T12:51:30Z</time>
      </trkpt>
      <trkpt lat="44.65641" lon="6.9898">
        <ele>1935</ele>
        <time>2020-08-02T12:51:31Z</time>
      </trkpt>
      <trkpt lat="44.65638" lon="6.98978">
        <ele>1935</ele>
        <time>2020-08-02T12:51:32Z</time>
      </trkpt>
      <trkpt lat="44.65634" lon="6.98976">
        <ele>1935</ele>
        <time>2020-08-02T12:51:33Z</time>
      </trkpt>
      <trkpt lat="44.65632" lon="6.98975">
        <ele>1935</ele>
        <time>2020-08-02T12:51:34Z</time>
      </trkpt>
      <trkpt lat="44.65629" lon="6.98972">
        <ele>1935</ele>
        <time>2020-08-02T12:51:40Z</time>
      </trkpt>
      <trkpt lat="44.65627" lon="6.98971">
        <ele>1935</ele>
        <time>2020-08-02T12:51:44Z</time>
      </trkpt>
      <trkpt lat="44.65627" lon="6.9897">
        <ele>1935</ele>
        <time>2020-08-02T12:51:45Z</time>
      </trkpt>
      <trkpt lat="44.65622" lon="6.9898">
        <ele>1930</ele>
        <time>2020-08-02T12:52:03Z</time>
      </trkpt>
      <trkpt lat="44.65605" lon="6.98994">
        <ele>1921</ele>
        <time>2020-08-02T12:52:11Z</time>
      </trkpt>
      <trkpt lat="44.65585" lon="6.98988">
        <ele>1918</ele>
        <time>2020-08-02T12:52:17Z</time>
      </trkpt>
      <trkpt lat="44.65574" lon="6.98985">
        <ele>1915</ele>
        <time>2020-08-02T12:52:19Z</time>
      </trkpt>
      <trkpt lat="44.65554" lon="6.98972">
        <ele>1912</ele>
        <time>2020-08-02T12:52:25Z</time>
      </trkpt>
      <trkpt lat="44.65549" lon="6.98966">
        <ele>1913</ele>
        <time>2020-08-02T12:52:29Z</time>
      </trkpt>
      <trkpt lat="44.65544" lon="6.98964">
        <ele>1913</ele>
        <time>2020-08-02T12:52:32Z</time>
      </trkpt>
      <trkpt lat="44.65542" lon="6.98964">
        <ele>1913</ele>
        <time>2020-08-02T12:52:33Z</time>
      </trkpt>
      <trkpt lat="44.65532" lon="6.98965">
        <ele>1911</ele>
        <time>2020-08-02T12:52:40Z</time>
      </trkpt>
      <trkpt lat="44.65529" lon="6.98968">
        <ele>1909</ele>
        <time>2020-08-02T12:52:42Z</time>
      </trkpt>
      <trkpt lat="44.65521" lon="6.98974">
        <ele>1905</ele>
        <time>2020-08-02T12:52:51Z</time>
      </trkpt>
      <trkpt lat="44.65512" lon="6.98981">
        <ele>1900</ele>
        <time>2020-08-02T12:52:56Z</time>
      </trkpt>
      <trkpt lat="44.65507" lon="6.98986">
        <ele>1897</ele>
        <time>2020-08-02T12:52:58Z</time>
      </trkpt>
      <trkpt lat="44.65482" lon="6.98999">
        <ele>1889</ele>
        <time>2020-08-02T12:53:04Z</time>
      </trkpt>
      <trkpt lat="44.6547" lon="6.99003">
        <ele>1888</ele>
        <time>2020-08-02T12:53:08Z</time>
      </trkpt>
      <trkpt lat="44.65464" lon="6.99003">
        <ele>1889</ele>
        <time>2020-08-02T12:53:11Z</time>
      </trkpt>
      <trkpt lat="44.6545" lon="6.99003">
        <ele>1894</ele>
        <time>2020-08-02T12:53:15Z</time>
      </trkpt>
      <trkpt lat="44.65445" lon="6.99005">
        <ele>1894</ele>
        <time>2020-08-02T12:53:17Z</time>
      </trkpt>
      <trkpt lat="44.65443" lon="6.99006">
        <ele>1894</ele>
        <time>2020-08-02T12:53:18Z</time>
      </trkpt>
      <trkpt lat="44.65432" lon="6.99014">
        <ele>1889</ele>
        <time>2020-08-02T12:53:24Z</time>
      </trkpt>
      <trkpt lat="44.6543" lon="6.99015">
        <ele>1888</ele>
        <time>2020-08-02T12:53:25Z</time>
      </trkpt>
      <trkpt lat="44.6542" lon="6.99011">
        <ele>1887</ele>
        <time>2020-08-02T12:53:31Z</time>
      </trkpt>
      <trkpt lat="44.65411" lon="6.99014">
        <ele>1885</ele>
        <time>2020-08-02T12:53:36Z</time>
      </trkpt>
      <trkpt lat="44.65389" lon="6.99027">
        <ele>1879</ele>
        <time>2020-08-02T12:53:44Z</time>
      </trkpt>
      <trkpt lat="44.65376" lon="6.99033">
        <ele>1875</ele>
        <time>2020-08-02T12:53:49Z</time>
      </trkpt>
      <trkpt lat="44.65375" lon="6.9904">
        <ele>1870</ele>
        <time>2020-08-02T12:53:51Z</time>
      </trkpt>
      <trkpt lat="44.65376" lon="6.99044">
        <ele>1868</ele>
        <time>2020-08-02T12:53:52Z</time>
      </trkpt>
      <trkpt lat="44.65377" lon="6.99045">
        <ele>1867</ele>
        <time>2020-08-02T12:53:53Z</time>
      </trkpt>
      <trkpt lat="44.65377" lon="6.99046">
        <ele>1867</ele>
        <time>2020-08-02T12:53:57Z</time>
      </trkpt>
      <trkpt lat="44.64741" lon="6.99777">
        <ele>1795</ele>
        <time>2020-08-02T12:59:08Z</time>
      </trkpt>
      <trkpt lat="44.64744" lon="6.99775">
        <ele>1795</ele>
        <time>2020-08-02T12:59:37Z</time>
      </trkpt>
      <trkpt lat="44.64738" lon="6.99785">
        <ele>1794</ele>
        <time>2020-08-02T13:01:08Z</time>
      </trkpt>
      <trkpt lat="44.64737" lon="6.99787">
        <ele>1794</ele>
        <time>2020-08-02T13:01:09Z</time>
      </trkpt>
      <trkpt lat="44.64717" lon="6.99798">
        <ele>1792</ele>
        <time>2020-08-02T13:01:21Z</time>
      </trkpt>
      <trkpt lat="44.64702" lon="6.99801">
        <ele>1791</ele>
        <time>2020-08-02T13:01:31Z</time>
      </trkpt>
      <trkpt lat="44.6468" lon="6.99805">
        <ele>1789</ele>
        <time>2020-08-02T13:01:45Z</time>
      </trkpt>
      <trkpt lat="44.64673" lon="6.99809">
        <ele>1789</ele>
        <time>2020-08-02T13:01:50Z</time>
      </trkpt>
      <trkpt lat="44.64672" lon="6.9981">
        <ele>1789</ele>
        <time>2020-08-02T13:01:51Z</time>
      </trkpt>
      <trkpt lat="44.64671" lon="6.99811">
        <ele>1789</ele>
        <time>2020-08-02T13:01:52Z</time>
      </trkpt>
      <trkpt lat="44.6467" lon="6.99812">
        <ele>1789</ele>
        <time>2020-08-02T13:01:53Z</time>
      </trkpt>
      <trkpt lat="44.64669" lon="6.99814">
        <ele>1789</ele>
        <time>2020-08-02T13:01:54Z</time>
      </trkpt>
      <trkpt lat="44.64667" lon="6.99815">
        <ele>1789</ele>
        <time>2020-08-02T13:01:55Z</time>
      </trkpt>
      <trkpt lat="44.64651" lon="6.99845">
        <ele>1788</ele>
        <time>2020-08-02T13:02:11Z</time>
      </trkpt>
      <trkpt lat="44.64651" lon="6.99847">
        <ele>1788</ele>
        <time>2020-08-02T13:02:12Z</time>
      </trkpt>
      <trkpt lat="44.64648" lon="6.99864">
        <ele>1788</ele>
        <time>2020-08-02T13:02:21Z</time>
      </trkpt>
      <trkpt lat="44.64648" lon="6.99864">
        <ele>1788</ele>
        <time>2020-08-02T13:02:24Z</time>
      </trkpt>
      <trkpt lat="44.64646" lon="6.99873">
        <ele>1788</ele>
        <time>2020-08-02T13:02:35Z</time>
      </trkpt>
      <trkpt lat="44.64645" lon="6.99875">
        <ele>1788</ele>
        <time>2020-08-02T13:02:37Z</time>
      </trkpt>
      <trkpt lat="44.64646" lon="6.99877">
        <ele>1788</ele>
        <time>2020-08-02T13:02:38Z</time>
      </trkpt>
      <trkpt lat="44.64646" lon="6.99879">
        <ele>1788</ele>
        <time>2020-08-02T13:02:40Z</time>
      </trkpt>
      <trkpt lat="44.64646" lon="6.99884">
        <ele>1788</ele>
        <time>2020-08-02T13:02:44Z</time>
      </trkpt>
      <trkpt lat="44.64641" lon="6.99919">
        <ele>1788</ele>
        <time>2020-08-02T13:02:58Z</time>
      </trkpt>
      <trkpt lat="44.6464" lon="6.99919">
        <ele>1788</ele>
        <time>2020-08-02T13:03:00Z</time>
      </trkpt>
      <trkpt lat="44.6464" lon="6.99922">
        <ele>1788</ele>
        <time>2020-08-02T13:18:07Z</time>
      </trkpt>
      <trkpt lat="44.64643" lon="6.99906">
        <ele>1788</ele>
        <time>2020-08-02T13:18:14Z</time>
      </trkpt>
      <trkpt lat="44.64652" lon="6.99903">
        <ele>1788</ele>
        <time>2020-08-02T13:18:30Z</time>
      </trkpt>
      <trkpt lat="44.6466" lon="6.99906">
        <ele>1789</ele>
        <time>2020-08-02T13:18:45Z</time>
      </trkpt>
      <trkpt lat="44.64637" lon="6.99908">
        <ele>1788</ele>
        <time>2020-08-03T05:48:41Z</time>
      </trkpt>
      <trkpt lat="44.64637" lon="6.99908">
        <ele>1788</ele>
        <time>2020-08-03T05:48:42Z</time>
      </trkpt>
      <trkpt lat="44.64643" lon="6.99895">
        <ele>1788</ele>
        <time>2020-08-03T05:49:03Z</time>
      </trkpt>
      <trkpt lat="44.6465" lon="6.99879">
        <ele>1788</ele>
        <time>2020-08-03T05:50:15Z</time>
      </trkpt>
      <trkpt lat="44.64644" lon="6.99873">
        <ele>1788</ele>
        <time>2020-08-03T05:50:36Z</time>
      </trkpt>
      <trkpt lat="44.64645" lon="6.9987">
        <ele>1788</ele>
        <time>2020-08-03T05:50:40Z</time>
      </trkpt>
      <trkpt lat="44.64646" lon="6.9986">
        <ele>1788</ele>
        <time>2020-08-03T05:50:44Z</time>
      </trkpt>
      <trkpt lat="44.64653" lon="6.99833">
        <ele>1788</ele>
        <time>2020-08-03T05:50:56Z</time>
      </trkpt>
      <trkpt lat="44.64652" lon="6.99831">
        <ele>1788</ele>
        <time>2020-08-03T05:50:57Z</time>
      </trkpt>
      <trkpt lat="44.64652" lon="6.99828">
        <ele>1788</ele>
        <time>2020-08-03T05:50:58Z</time>
      </trkpt>
      <trkpt lat="44.64651" lon="6.99824">
        <ele>1788</ele>
        <time>2020-08-03T05:50:59Z</time>
      </trkpt>
      <trkpt lat="44.64652" lon="6.99819">
        <ele>1788</ele>
        <time>2020-08-03T05:51:01Z</time>
      </trkpt>
      <trkpt lat="44.64655" lon="6.99802">
        <ele>1788</ele>
        <time>2020-08-03T05:51:08Z</time>
      </trkpt>
      <trkpt lat="44.64678" lon="6.99801">
        <ele>1789</ele>
        <time>2020-08-03T05:51:12Z</time>
      </trkpt>
      <trkpt lat="44.64683" lon="6.998">
        <ele>1790</ele>
        <time>2020-08-03T05:51:13Z</time>
      </trkpt>
      <trkpt lat="44.64707" lon="6.99792">
        <ele>1791</ele>
        <time>2020-08-03T05:51:21Z</time>
      </trkpt>
      <trkpt lat="44.64737" lon="6.99783">
        <ele>1794</ele>
        <time>2020-08-03T05:51:34Z</time>
      </trkpt>
      <trkpt lat="44.64757" lon="6.99758">
        <ele>1798</ele>
        <time>2020-08-03T05:51:46Z</time>
      </trkpt>
      <trkpt lat="44.64759" lon="6.99759">
        <ele>1798</ele>
        <time>2020-08-03T05:51:47Z</time>
      </trkpt>
      <trkpt lat="44.64761" lon="6.99762">
        <ele>1798</ele>
        <time>2020-08-03T05:51:48Z</time>
      </trkpt>
      <trkpt lat="44.64763" lon="6.99765">
        <ele>1798</ele>
        <time>2020-08-03T05:51:49Z</time>
      </trkpt>
      <trkpt lat="44.64764" lon="6.99768">
        <ele>1798</ele>
        <time>2020-08-03T05:51:50Z</time>
      </trkpt>
      <trkpt lat="44.64765" lon="6.99771">
        <ele>1798</ele>
        <time>2020-08-03T05:51:51Z</time>
      </trkpt>
      <trkpt lat="44.64784" lon="6.99821">
        <ele>1802</ele>
        <time>2020-08-03T05:52:08Z</time>
      </trkpt>
      <trkpt lat="44.64788" lon="6.99845">
        <ele>1805</ele>
        <time>2020-08-03T05:52:16Z</time>
      </trkpt>
      <trkpt lat="44.6479" lon="6.99847">
        <ele>1806</ele>
        <time>2020-08-03T05:52:17Z</time>
      </trkpt>
      <trkpt lat="44.64793" lon="6.99848">
        <ele>1807</ele>
        <time>2020-08-03T05:52:18Z</time>
      </trkpt>
      <trkpt lat="44.64795" lon="6.99846">
        <ele>1808</ele>
        <time>2020-08-03T05:52:19Z</time>
      </trkpt>
      <trkpt lat="44.64797" lon="6.99844">
        <ele>1808</ele>
        <time>2020-08-03T05:52:20Z</time>
      </trkpt>
      <trkpt lat="44.64798" lon="6.99842">
        <ele>1808</ele>
        <time>2020-08-03T05:52:21Z</time>
      </trkpt>
      <trkpt lat="44.64799" lon="6.9984">
        <ele>1808</ele>
        <time>2020-08-03T05:52:22Z</time>
      </trkpt>
      <trkpt lat="44.64816" lon="6.99805">
        <ele>1807</ele>
        <time>2020-08-03T05:52:37Z</time>
      </trkpt>
      <trkpt lat="44.64837" lon="6.99764">
        <ele>1808</ele>
        <time>2020-08-03T05:52:54Z</time>
      </trkpt>
      <trkpt lat="44.64853" lon="6.99733">
        <ele>1810</ele>
        <time>2020-08-03T05:53:07Z</time>
      </trkpt>
      <trkpt lat="44.64872" lon="6.99694">
        <ele>1808</ele>
        <time>2020-08-03T05:53:22Z</time>
      </trkpt>
      <trkpt lat="44.64906" lon="6.9964">
        <ele>1809</ele>
        <time>2020-08-03T05:53:38Z</time>
      </trkpt>
      <trkpt lat="44.64981" lon="6.99552">
        <ele>1811</ele>
        <time>2020-08-03T05:54:00Z</time>
      </trkpt>
      <trkpt lat="44.65048" lon="6.99475">
        <ele>1817</ele>
        <time>2020-08-03T05:54:20Z</time>
      </trkpt>
      <trkpt lat="44.65088" lon="6.99428">
        <ele>1817</ele>
        <time>2020-08-03T05:54:38Z</time>
      </trkpt>
      <trkpt lat="44.65125" lon="6.99385">
        <ele>1823</ele>
        <time>2020-08-03T05:54:57Z</time>
      </trkpt>
      <trkpt lat="44.65162" lon="6.99349">
        <ele>1820</ele>
        <time>2020-08-03T05:55:16Z</time>
      </trkpt>
      <trkpt lat="44.65198" lon="6.9931">
        <ele>1825</ele>
        <time>2020-08-03T05:55:35Z</time>
      </trkpt>
      <trkpt lat="44.6523" lon="6.99277">
        <ele>1828</ele>
        <time>2020-08-03T05:55:52Z</time>
      </trkpt>
      <trkpt lat="44.65262" lon="6.99244">
        <ele>1833</ele>
        <time>2020-08-03T05:56:09Z</time>
      </trkpt>
      <trkpt lat="44.65299" lon="6.99209">
        <ele>1836</ele>
        <time>2020-08-03T05:56:28Z</time>
      </trkpt>
      <trkpt lat="44.65334" lon="6.99177">
        <ele>1836</ele>
        <time>2020-08-03T05:56:45Z</time>
      </trkpt>
      <trkpt lat="44.65372" lon="6.99148">
        <ele>1839</ele>
        <time>2020-08-03T05:57:03Z</time>
      </trkpt>
      <trkpt lat="44.65412" lon="6.99121">
        <ele>1855</ele>
        <time>2020-08-03T05:57:21Z</time>
      </trkpt>
      <trkpt lat="44.65446" lon="6.99099">
        <ele>1862</ele>
        <time>2020-08-03T05:57:37Z</time>
      </trkpt>
      <trkpt lat="44.65474" lon="6.99088">
        <ele>1866</ele>
        <time>2020-08-03T05:57:50Z</time>
      </trkpt>
      <trkpt lat="44.65501" lon="6.99061">
        <ele>1872</ele>
        <time>2020-08-03T05:58:04Z</time>
      </trkpt>
      <trkpt lat="44.65482" lon="6.99033">
        <ele>1876</ele>
        <time>2020-08-03T05:58:15Z</time>
      </trkpt>
      <trkpt lat="44.65425" lon="6.99037">
        <ele>1876</ele>
        <time>2020-08-03T05:58:35Z</time>
      </trkpt>
      <trkpt lat="44.65384" lon="6.99035">
        <ele>1874</ele>
        <time>2020-08-03T05:58:52Z</time>
      </trkpt>
      <trkpt lat="44.65363" lon="6.99026">
        <ele>1877</ele>
        <time>2020-08-03T05:59:05Z</time>
      </trkpt>
      <trkpt lat="44.65346" lon="6.9901">
        <ele>1873</ele>
        <time>2020-08-03T05:59:19Z</time>
      </trkpt>
      <trkpt lat="44.65332" lon="6.98984">
        <ele>1875</ele>
        <time>2020-08-03T05:59:35Z</time>
      </trkpt>
      <trkpt lat="44.65321" lon="6.98958">
        <ele>1869</ele>
        <time>2020-08-03T05:59:50Z</time>
      </trkpt>
      <trkpt lat="44.65317" lon="6.98931">
        <ele>1870</ele>
        <time>2020-08-03T06:00:04Z</time>
      </trkpt>
      <trkpt lat="44.65319" lon="6.98901">
        <ele>1874</ele>
        <time>2020-08-03T06:00:19Z</time>
      </trkpt>
      <trkpt lat="44.65318" lon="6.98869">
        <ele>1876</ele>
        <time>2020-08-03T06:00:35Z</time>
      </trkpt>
      <trkpt lat="44.65315" lon="6.98835">
        <ele>1878</ele>
        <time>2020-08-03T06:00:52Z</time>
      </trkpt>
      <trkpt lat="44.6531" lon="6.98802">
        <ele>1882</ele>
        <time>2020-08-03T06:01:10Z</time>
      </trkpt>
      <trkpt lat="44.65303" lon="6.98772">
        <ele>1890</ele>
        <time>2020-08-03T06:01:25Z</time>
      </trkpt>
      <trkpt lat="44.65296" lon="6.98739">
        <ele>1897</ele>
        <time>2020-08-03T06:01:42Z</time>
      </trkpt>
      <trkpt lat="44.65297" lon="6.98718">
        <ele>1901</ele>
        <time>2020-08-03T06:01:53Z</time>
      </trkpt>
      <trkpt lat="44.65298" lon="6.98718">
        <ele>1902</ele>
        <time>2020-08-03T06:01:54Z</time>
      </trkpt>
      <trkpt lat="44.653" lon="6.98718">
        <ele>1902</ele>
        <time>2020-08-03T06:01:55Z</time>
      </trkpt>
      <trkpt lat="44.65302" lon="6.98719">
        <ele>1903</ele>
        <time>2020-08-03T06:01:56Z</time>
      </trkpt>
      <trkpt lat="44.65303" lon="6.98721">
        <ele>1903</ele>
        <time>2020-08-03T06:01:57Z</time>
      </trkpt>
      <trkpt lat="44.65304" lon="6.98723">
        <ele>1904</ele>
        <time>2020-08-03T06:01:58Z</time>
      </trkpt>
      <trkpt lat="44.65305" lon="6.98725">
        <ele>1904</ele>
        <time>2020-08-03T06:01:59Z</time>
      </trkpt>
      <trkpt lat="44.65306" lon="6.98727">
        <ele>1904</ele>
        <time>2020-08-03T06:02:00Z</time>
      </trkpt>
      <trkpt lat="44.65307" lon="6.9873">
        <ele>1904</ele>
        <time>2020-08-03T06:02:01Z</time>
      </trkpt>
      <trkpt lat="44.65319" lon="6.98768">
        <ele>1901</ele>
        <time>2020-08-03T06:02:19Z</time>
      </trkpt>
      <trkpt lat="44.65333" lon="6.98798">
        <ele>1897</ele>
        <time>2020-08-03T06:02:36Z</time>
      </trkpt>
      <trkpt lat="44.65346" lon="6.98826">
        <ele>1896</ele>
        <time>2020-08-03T06:02:52Z</time>
      </trkpt>
      <trkpt lat="44.65361" lon="6.98851">
        <ele>1900</ele>
        <time>2020-08-03T06:03:08Z</time>
      </trkpt>
      <trkpt lat="44.65379" lon="6.98873">
        <ele>1905</ele>
        <time>2020-08-03T06:03:24Z</time>
      </trkpt>
      <trkpt lat="44.65406" lon="6.98886">
        <ele>1913</ele>
        <time>2020-08-03T06:03:43Z</time>
      </trkpt>
      <trkpt lat="44.65434" lon="6.98898">
        <ele>1917</ele>
        <time>2020-08-03T06:04:02Z</time>
      </trkpt>
      <trkpt lat="44.65455" lon="6.98905">
        <ele>1919</ele>
        <time>2020-08-03T06:04:17Z</time>
      </trkpt>
      <trkpt lat="44.6548" lon="6.98908">
        <ele>1921</ele>
        <time>2020-08-03T06:04:35Z</time>
      </trkpt>
      <trkpt lat="44.65504" lon="6.9891">
        <ele>1925</ele>
        <time>2020-08-03T06:04:51Z</time>
      </trkpt>
      <trkpt lat="44.6552" lon="6.98913">
        <ele>1927</ele>
        <time>2020-08-03T06:05:06Z</time>
      </trkpt>
      <trkpt lat="44.65525" lon="6.98911">
        <ele>1929</ele>
        <time>2020-08-03T06:05:20Z</time>
      </trkpt>
      <trkpt lat="44.65527" lon="6.98911">
        <ele>1929</ele>
        <time>2020-08-03T06:05:21Z</time>
      </trkpt>
      <trkpt lat="44.65529" lon="6.98911">
        <ele>1930</ele>
        <time>2020-08-03T06:05:22Z</time>
      </trkpt>
      <trkpt lat="44.6553" lon="6.98911">
        <ele>1930</ele>
        <time>2020-08-03T06:05:23Z</time>
      </trkpt>
      <trkpt lat="44.65532" lon="6.98912">
        <ele>1931</ele>
        <time>2020-08-03T06:05:24Z</time>
      </trkpt>
      <trkpt lat="44.65534" lon="6.98912">
        <ele>1931</ele>
        <time>2020-08-03T06:05:25Z</time>
      </trkpt>
      <trkpt lat="44.65535" lon="6.98913">
        <ele>1931</ele>
        <time>2020-08-03T06:05:26Z</time>
      </trkpt>
      <trkpt lat="44.65537" lon="6.98913">
        <ele>1932</ele>
        <time>2020-08-03T06:05:27Z</time>
      </trkpt>
      <trkpt lat="44.65538" lon="6.98914">
        <ele>1932</ele>
        <time>2020-08-03T06:05:28Z</time>
      </trkpt>
      <trkpt lat="44.6556" lon="6.98916">
        <ele>1938</ele>
        <time>2020-08-03T06:05:43Z</time>
      </trkpt>
      <trkpt lat="44.65585" lon="6.98921">
        <ele>1941</ele>
        <time>2020-08-03T06:05:58Z</time>
      </trkpt>
      <trkpt lat="44.65602" lon="6.98931">
        <ele>1941</ele>
        <time>2020-08-03T06:06:12Z</time>
      </trkpt>
      <trkpt lat="44.6562" lon="6.98939">
        <ele>1944</ele>
        <time>2020-08-03T06:06:27Z</time>
      </trkpt>
      <trkpt lat="44.65644" lon="6.98944">
        <ele>1949</ele>
        <time>2020-08-03T06:06:43Z</time>
      </trkpt>
      <trkpt lat="44.65666" lon="6.98955">
        <ele>1953</ele>
        <time>2020-08-03T06:06:59Z</time>
      </trkpt>
      <trkpt lat="44.65685" lon="6.98961">
        <ele>1957</ele>
        <time>2020-08-03T06:07:14Z</time>
      </trkpt>
      <trkpt lat="44.65709" lon="6.98965">
        <ele>1960</ele>
        <time>2020-08-03T06:07:30Z</time>
      </trkpt>
      <trkpt lat="44.65732" lon="6.98971">
        <ele>1962</ele>
        <time>2020-08-03T06:07:45Z</time>
      </trkpt>
      <trkpt lat="44.65756" lon="6.98974">
        <ele>1963</ele>
        <time>2020-08-03T06:08:02Z</time>
      </trkpt>
      <trkpt lat="44.65776" lon="6.98978">
        <ele>1964</ele>
        <time>2020-08-03T06:08:18Z</time>
      </trkpt>
      <trkpt lat="44.65798" lon="6.98982">
        <ele>1963</ele>
        <time>2020-08-03T06:08:36Z</time>
      </trkpt>
      <trkpt lat="44.65822" lon="6.98982">
        <ele>1964</ele>
        <time>2020-08-03T06:08:53Z</time>
      </trkpt>
      <trkpt lat="44.65848" lon="6.98985">
        <ele>1968</ele>
        <time>2020-08-03T06:09:11Z</time>
      </trkpt>
      <trkpt lat="44.6587" lon="6.98996">
        <ele>1973</ele>
        <time>2020-08-03T06:09:27Z</time>
      </trkpt>
      <trkpt lat="44.65889" lon="6.99017">
        <ele>1978</ele>
        <time>2020-08-03T06:09:43Z</time>
      </trkpt>
      <trkpt lat="44.6591" lon="6.99045">
        <ele>1985</ele>
        <time>2020-08-03T06:10:03Z</time>
      </trkpt>
      <trkpt lat="44.65929" lon="6.99065">
        <ele>1990</ele>
        <time>2020-08-03T06:10:21Z</time>
      </trkpt>
      <trkpt lat="44.6595" lon="6.99083">
        <ele>1995</ele>
        <time>2020-08-03T06:10:39Z</time>
      </trkpt>
      <trkpt lat="44.65973" lon="6.99101">
        <ele>1996</ele>
        <time>2020-08-03T06:10:58Z</time>
      </trkpt>
      <trkpt lat="44.65992" lon="6.99112">
        <ele>1996</ele>
        <time>2020-08-03T06:11:13Z</time>
      </trkpt>
      <trkpt lat="44.66011" lon="6.99119">
        <ele>1997</ele>
        <time>2020-08-03T06:11:27Z</time>
      </trkpt>
      <trkpt lat="44.66032" lon="6.99124">
        <ele>1999</ele>
        <time>2020-08-03T06:11:42Z</time>
      </trkpt>
      <trkpt lat="44.66054" lon="6.99128">
        <ele>2003</ele>
        <time>2020-08-03T06:11:57Z</time>
      </trkpt>
      <trkpt lat="44.66068" lon="6.99131">
        <ele>2005</ele>
        <time>2020-08-03T06:12:06Z</time>
      </trkpt>
      <trkpt lat="44.66091" lon="6.99141">
        <ele>2009</ele>
        <time>2020-08-03T06:12:22Z</time>
      </trkpt>
      <trkpt lat="44.66118" lon="6.99162">
        <ele>2013</ele>
        <time>2020-08-03T06:12:40Z</time>
      </trkpt>
      <trkpt lat="44.6614" lon="6.99187">
        <ele>2014</ele>
        <time>2020-08-03T06:12:57Z</time>
      </trkpt>
      <trkpt lat="44.6616" lon="6.9922">
        <ele>2016</ele>
        <time>2020-08-03T06:13:14Z</time>
      </trkpt>
      <trkpt lat="44.66183" lon="6.99251">
        <ele>2020</ele>
        <time>2020-08-03T06:13:32Z</time>
      </trkpt>
      <trkpt lat="44.66203" lon="6.99243">
        <ele>2026</ele>
        <time>2020-08-03T06:13:45Z</time>
      </trkpt>
      <trkpt lat="44.66195" lon="6.99202">
        <ele>2028</ele>
        <time>2020-08-03T06:14:00Z</time>
      </trkpt>
      <trkpt lat="44.66175" lon="6.99165">
        <ele>2026</ele>
        <time>2020-08-03T06:14:17Z</time>
      </trkpt>
      <trkpt lat="44.66154" lon="6.99128">
        <ele>2027</ele>
        <time>2020-08-03T06:14:38Z</time>
      </trkpt>
      <trkpt lat="44.66137" lon="6.991">
        <ele>2028</ele>
        <time>2020-08-03T06:14:56Z</time>
      </trkpt>
      <trkpt lat="44.66121" lon="6.99072">
        <ele>2031</ele>
        <time>2020-08-03T06:15:14Z</time>
      </trkpt>
      <trkpt lat="44.66104" lon="6.99045">
        <ele>2031</ele>
        <time>2020-08-03T06:15:32Z</time>
      </trkpt>
      <trkpt lat="44.66085" lon="6.99018">
        <ele>2034</ele>
        <time>2020-08-03T06:15:50Z</time>
      </trkpt>
      <trkpt lat="44.66067" lon="6.98992">
        <ele>2032</ele>
        <time>2020-08-03T06:16:08Z</time>
      </trkpt>
      <trkpt lat="44.66056" lon="6.9897">
        <ele>2033</ele>
        <time>2020-08-03T06:16:22Z</time>
      </trkpt>
      <trkpt lat="44.66057" lon="6.98968">
        <ele>2034</ele>
        <time>2020-08-03T06:16:23Z</time>
      </trkpt>
      <trkpt lat="44.66057" lon="6.98966">
        <ele>2035</ele>
        <time>2020-08-03T06:16:24Z</time>
      </trkpt>
      <trkpt lat="44.66057" lon="6.98964">
        <ele>2035</ele>
        <time>2020-08-03T06:16:25Z</time>
      </trkpt>
      <trkpt lat="44.66057" lon="6.98962">
        <ele>2036</ele>
        <time>2020-08-03T06:16:26Z</time>
      </trkpt>
      <trkpt lat="44.66051" lon="6.9893">
        <ele>2043</ele>
        <time>2020-08-03T06:16:43Z</time>
      </trkpt>
      <trkpt lat="44.66045" lon="6.98894">
        <ele>2045</ele>
        <time>2020-08-03T06:17:01Z</time>
      </trkpt>
      <trkpt lat="44.66038" lon="6.9886">
        <ele>2050</ele>
        <time>2020-08-03T06:17:17Z</time>
      </trkpt>
      <trkpt lat="44.66034" lon="6.98826">
        <ele>2061</ele>
        <time>2020-08-03T06:17:33Z</time>
      </trkpt>
      <trkpt lat="44.66034" lon="6.98824">
        <ele>2062</ele>
        <time>2020-08-03T06:17:34Z</time>
      </trkpt>
      <trkpt lat="44.66033" lon="6.98822">
        <ele>2063</ele>
        <time>2020-08-03T06:17:35Z</time>
      </trkpt>
      <trkpt lat="44.66022" lon="6.98792">
        <ele>2071</ele>
        <time>2020-08-03T06:17:51Z</time>
      </trkpt>
      <trkpt lat="44.66002" lon="6.9877">
        <ele>2073</ele>
        <time>2020-08-03T06:18:09Z</time>
      </trkpt>
      <trkpt lat="44.66001" lon="6.98769">
        <ele>2072</ele>
        <time>2020-08-03T06:18:10Z</time>
      </trkpt>
      <trkpt lat="44.66" lon="6.98769">
        <ele>2072</ele>
        <time>2020-08-03T06:18:11Z</time>
      </trkpt>
      <trkpt lat="44.65999" lon="6.98768">
        <ele>2072</ele>
        <time>2020-08-03T06:18:12Z</time>
      </trkpt>
      <trkpt lat="44.65998" lon="6.98767">
        <ele>2072</ele>
        <time>2020-08-03T06:18:13Z</time>
      </trkpt>
      <trkpt lat="44.65995" lon="6.98768">
        <ele>2071</ele>
        <time>2020-08-03T06:18:14Z</time>
      </trkpt>
      <trkpt lat="44.65994" lon="6.98768">
        <ele>2070</ele>
        <time>2020-08-03T06:18:15Z</time>
      </trkpt>
      <trkpt lat="44.65992" lon="6.98768">
        <ele>2070</ele>
        <time>2020-08-03T06:18:16Z</time>
      </trkpt>
      <trkpt lat="44.6599" lon="6.98767">
        <ele>2070</ele>
        <time>2020-08-03T06:18:17Z</time>
      </trkpt>
      <trkpt lat="44.65989" lon="6.98766">
        <ele>2070</ele>
        <time>2020-08-03T06:18:18Z</time>
      </trkpt>
      <trkpt lat="44.65987" lon="6.98765">
        <ele>2069</ele>
        <time>2020-08-03T06:18:19Z</time>
      </trkpt>
      <trkpt lat="44.65986" lon="6.98764">
        <ele>2069</ele>
        <time>2020-08-03T06:18:20Z</time>
      </trkpt>
      <trkpt lat="44.65985" lon="6.98763">
        <ele>2069</ele>
        <time>2020-08-03T06:18:21Z</time>
      </trkpt>
      <trkpt lat="44.65958" lon="6.98743">
        <ele>2069</ele>
        <time>2020-08-03T06:18:39Z</time>
      </trkpt>
      <trkpt lat="44.65935" lon="6.98728">
        <ele>2070</ele>
        <time>2020-08-03T06:18:57Z</time>
      </trkpt>
      <trkpt lat="44.65913" lon="6.9873">
        <ele>2069</ele>
        <time>2020-08-03T06:19:11Z</time>
      </trkpt>
      <trkpt lat="44.65912" lon="6.98731">
        <ele>2069</ele>
        <time>2020-08-03T06:19:12Z</time>
      </trkpt>
      <trkpt lat="44.65907" lon="6.98736">
        <ele>2068</ele>
        <time>2020-08-03T06:19:19Z</time>
      </trkpt>
      <trkpt lat="44.65895" lon="6.98733">
        <ele>2069</ele>
        <time>2020-08-03T06:19:56Z</time>
      </trkpt>
      <trkpt lat="44.65893" lon="6.98732">
        <ele>2069</ele>
        <time>2020-08-03T06:19:57Z</time>
      </trkpt>
      <trkpt lat="44.65892" lon="6.98732">
        <ele>2069</ele>
        <time>2020-08-03T06:19:58Z</time>
      </trkpt>
      <trkpt lat="44.6589" lon="6.98731">
        <ele>2069</ele>
        <time>2020-08-03T06:19:59Z</time>
      </trkpt>
      <trkpt lat="44.65884" lon="6.98732">
        <ele>2069</ele>
        <time>2020-08-03T06:20:03Z</time>
      </trkpt>
      <trkpt lat="44.65883" lon="6.98731">
        <ele>2069</ele>
        <time>2020-08-03T06:20:04Z</time>
      </trkpt>
      <trkpt lat="44.65848" lon="6.98715">
        <ele>2070</ele>
        <time>2020-08-03T06:20:21Z</time>
      </trkpt>
      <trkpt lat="44.65807" lon="6.98699">
        <ele>2079</ele>
        <time>2020-08-03T06:20:37Z</time>
      </trkpt>
      <trkpt lat="44.65765" lon="6.98716">
        <ele>2079</ele>
        <time>2020-08-03T06:20:50Z</time>
      </trkpt>
      <trkpt lat="44.65725" lon="6.98743">
        <ele>2082</ele>
        <time>2020-08-03T06:21:04Z</time>
      </trkpt>
      <trkpt lat="44.65696" lon="6.98756">
        <ele>2077</ele>
        <time>2020-08-03T06:21:19Z</time>
      </trkpt>
      <trkpt lat="44.65692" lon="6.98755">
        <ele>2076</ele>
        <time>2020-08-03T06:21:22Z</time>
      </trkpt>
      <trkpt lat="44.65677" lon="6.98726">
        <ele>2078</ele>
        <time>2020-08-03T06:21:36Z</time>
      </trkpt>
      <trkpt lat="44.65678" lon="6.98707">
        <ele>2084</ele>
        <time>2020-08-03T06:21:46Z</time>
      </trkpt>
      <trkpt lat="44.65693" lon="6.98689">
        <ele>2089</ele>
        <time>2020-08-03T06:22:01Z</time>
      </trkpt>
      <trkpt lat="44.65717" lon="6.98677">
        <ele>2106</ele>
        <time>2020-08-03T06:22:18Z</time>
      </trkpt>
      <trkpt lat="44.65737" lon="6.98668">
        <ele>2117</ele>
        <time>2020-08-03T06:22:33Z</time>
      </trkpt>
      <trkpt lat="44.65754" lon="6.98658">
        <ele>2118</ele>
        <time>2020-08-03T06:22:50Z</time>
      </trkpt>
      <trkpt lat="44.65773" lon="6.98649">
        <ele>2108</ele>
        <time>2020-08-03T06:23:07Z</time>
      </trkpt>
      <trkpt lat="44.65781" lon="6.98645">
        <ele>2106</ele>
        <time>2020-08-03T06:23:13Z</time>
      </trkpt>
      <trkpt lat="44.65803" lon="6.98639">
        <ele>2105</ele>
        <time>2020-08-03T06:23:31Z</time>
      </trkpt>
      <trkpt lat="44.65807" lon="6.98639">
        <ele>2105</ele>
        <time>2020-08-03T06:23:34Z</time>
      </trkpt>
      <trkpt lat="44.65827" lon="6.98633">
        <ele>2113</ele>
        <time>2020-08-03T06:23:50Z</time>
      </trkpt>
      <trkpt lat="44.65843" lon="6.98626">
        <ele>2116</ele>
        <time>2020-08-03T06:24:03Z</time>
      </trkpt>
      <trkpt lat="44.65867" lon="6.98618">
        <ele>2117</ele>
        <time>2020-08-03T06:24:21Z</time>
      </trkpt>
      <trkpt lat="44.65891" lon="6.98613">
        <ele>2117</ele>
        <time>2020-08-03T06:24:39Z</time>
      </trkpt>
      <trkpt lat="44.65914" lon="6.98616">
        <ele>2117</ele>
        <time>2020-08-03T06:24:56Z</time>
      </trkpt>
      <trkpt lat="44.65922" lon="6.98615">
        <ele>2120</ele>
        <time>2020-08-03T06:25:02Z</time>
      </trkpt>
      <trkpt lat="44.65924" lon="6.98614">
        <ele>2120</ele>
        <time>2020-08-03T06:25:03Z</time>
      </trkpt>
      <trkpt lat="44.65925" lon="6.98613">
        <ele>2121</ele>
        <time>2020-08-03T06:25:04Z</time>
      </trkpt>
      <trkpt lat="44.65946" lon="6.98615">
        <ele>2128</ele>
        <time>2020-08-03T06:25:21Z</time>
      </trkpt>
      <trkpt lat="44.65969" lon="6.98614">
        <ele>2132</ele>
        <time>2020-08-03T06:25:39Z</time>
      </trkpt>
      <trkpt lat="44.6599" lon="6.98612">
        <ele>2134</ele>
        <time>2020-08-03T06:25:55Z</time>
      </trkpt>
      <trkpt lat="44.66012" lon="6.98614">
        <ele>2134</ele>
        <time>2020-08-03T06:26:10Z</time>
      </trkpt>
      <trkpt lat="44.66034" lon="6.98611">
        <ele>2136</ele>
        <time>2020-08-03T06:26:26Z</time>
      </trkpt>
      <trkpt lat="44.66056" lon="6.98608">
        <ele>2138</ele>
        <time>2020-08-03T06:26:43Z</time>
      </trkpt>
      <trkpt lat="44.6608" lon="6.98606">
        <ele>2141</ele>
        <time>2020-08-03T06:27:01Z</time>
      </trkpt>
      <trkpt lat="44.66101" lon="6.98606">
        <ele>2147</ele>
        <time>2020-08-03T06:27:17Z</time>
      </trkpt>
      <trkpt lat="44.66123" lon="6.98602">
        <ele>2153</ele>
        <time>2020-08-03T06:27:34Z</time>
      </trkpt>
      <trkpt lat="44.66146" lon="6.98598">
        <ele>2158</ele>
        <time>2020-08-03T06:27:51Z</time>
      </trkpt>
      <trkpt lat="44.66168" lon="6.98599">
        <ele>2160</ele>
        <time>2020-08-03T06:28:07Z</time>
      </trkpt>
      <trkpt lat="44.6619" lon="6.98602">
        <ele>2162</ele>
        <time>2020-08-03T06:28:21Z</time>
      </trkpt>
      <trkpt lat="44.66209" lon="6.98612">
        <ele>2164</ele>
        <time>2020-08-03T06:28:36Z</time>
      </trkpt>
      <trkpt lat="44.66226" lon="6.98625">
        <ele>2167</ele>
        <time>2020-08-03T06:28:52Z</time>
      </trkpt>
      <trkpt lat="44.6625" lon="6.98638">
        <ele>2168</ele>
        <time>2020-08-03T06:29:10Z</time>
      </trkpt>
      <trkpt lat="44.66262" lon="6.98649">
        <ele>2172</ele>
        <time>2020-08-03T06:29:19Z</time>
      </trkpt>
      <trkpt lat="44.66262" lon="6.98651">
        <ele>2173</ele>
        <time>2020-08-03T06:29:20Z</time>
      </trkpt>
      <trkpt lat="44.66261" lon="6.98653">
        <ele>2173</ele>
        <time>2020-08-03T06:29:21Z</time>
      </trkpt>
      <trkpt lat="44.6626" lon="6.98655">
        <ele>2173</ele>
        <time>2020-08-03T06:29:22Z</time>
      </trkpt>
      <trkpt lat="44.66259" lon="6.98656">
        <ele>2174</ele>
        <time>2020-08-03T06:29:23Z</time>
      </trkpt>
      <trkpt lat="44.66258" lon="6.98657">
        <ele>2174</ele>
        <time>2020-08-03T06:29:24Z</time>
      </trkpt>
      <trkpt lat="44.66257" lon="6.98657">
        <ele>2174</ele>
        <time>2020-08-03T06:29:25Z</time>
      </trkpt>
      <trkpt lat="44.66255" lon="6.98657">
        <ele>2174</ele>
        <time>2020-08-03T06:29:26Z</time>
      </trkpt>
      <trkpt lat="44.66254" lon="6.98657">
        <ele>2173</ele>
        <time>2020-08-03T06:29:27Z</time>
      </trkpt>
      <trkpt lat="44.66253" lon="6.98657">
        <ele>2173</ele>
        <time>2020-08-03T06:29:28Z</time>
      </trkpt>
      <trkpt lat="44.66251" lon="6.98656">
        <ele>2173</ele>
        <time>2020-08-03T06:29:29Z</time>
      </trkpt>
      <trkpt lat="44.66224" lon="6.98663">
        <ele>2175</ele>
        <time>2020-08-03T06:29:48Z</time>
      </trkpt>
      <trkpt lat="44.66204" lon="6.98676">
        <ele>2175</ele>
        <time>2020-08-03T06:30:03Z</time>
      </trkpt>
      <trkpt lat="44.66178" lon="6.98691">
        <ele>2178</ele>
        <time>2020-08-03T06:30:21Z</time>
      </trkpt>
      <trkpt lat="44.66171" lon="6.98718">
        <ele>2182</ele>
        <time>2020-08-03T06:30:34Z</time>
      </trkpt>
      <trkpt lat="44.6619" lon="6.98729">
        <ele>2185</ele>
        <time>2020-08-03T06:30:46Z</time>
      </trkpt>
      <trkpt lat="44.66217" lon="6.98718">
        <ele>2186</ele>
        <time>2020-08-03T06:31:04Z</time>
      </trkpt>
      <trkpt lat="44.66241" lon="6.98709">
        <ele>2187</ele>
        <time>2020-08-03T06:31:23Z</time>
      </trkpt>
      <trkpt lat="44.66264" lon="6.98717">
        <ele>2193</ele>
        <time>2020-08-03T06:31:40Z</time>
      </trkpt>
      <trkpt lat="44.6628" lon="6.98716">
        <ele>2197</ele>
        <time>2020-08-03T06:31:51Z</time>
      </trkpt>
      <trkpt lat="44.66282" lon="6.98716">
        <ele>2197</ele>
        <time>2020-08-03T06:31:52Z</time>
      </trkpt>
      <trkpt lat="44.66304" lon="6.98716">
        <ele>2200</ele>
        <time>2020-08-03T06:32:08Z</time>
      </trkpt>
      <trkpt lat="44.66313" lon="6.98715">
        <ele>2201</ele>
        <time>2020-08-03T06:32:18Z</time>
      </trkpt>
      <trkpt lat="44.66317" lon="6.98716">
        <ele>2201</ele>
        <time>2020-08-03T06:32:30Z</time>
      </trkpt>
      <trkpt lat="44.6633" lon="6.98712">
        <ele>2201</ele>
        <time>2020-08-03T06:34:58Z</time>
      </trkpt>
      <trkpt lat="44.66356" lon="6.98706">
        <ele>2203</ele>
        <time>2020-08-03T06:35:13Z</time>
      </trkpt>
      <trkpt lat="44.66387" lon="6.98704">
        <ele>2209</ele>
        <time>2020-08-03T06:35:30Z</time>
      </trkpt>
      <trkpt lat="44.66396" lon="6.98704">
        <ele>2210</ele>
        <time>2020-08-03T06:35:35Z</time>
      </trkpt>
      <trkpt lat="44.66397" lon="6.98703">
        <ele>2210</ele>
        <time>2020-08-03T06:35:36Z</time>
      </trkpt>
      <trkpt lat="44.66398" lon="6.98702">
        <ele>2210</ele>
        <time>2020-08-03T06:35:37Z</time>
      </trkpt>
      <trkpt lat="44.664" lon="6.98702">
        <ele>2210</ele>
        <time>2020-08-03T06:35:38Z</time>
      </trkpt>
      <trkpt lat="44.66401" lon="6.98702">
        <ele>2210</ele>
        <time>2020-08-03T06:35:39Z</time>
      </trkpt>
      <trkpt lat="44.66401" lon="6.98703">
        <ele>2210</ele>
        <time>2020-08-03T06:35:40Z</time>
      </trkpt>
      <trkpt lat="44.66419" lon="6.98701">
        <ele>2212</ele>
        <time>2020-08-03T06:35:54Z</time>
      </trkpt>
      <trkpt lat="44.66441" lon="6.987">
        <ele>2216</ele>
        <time>2020-08-03T06:36:10Z</time>
      </trkpt>
      <trkpt lat="44.66463" lon="6.98698">
        <ele>2217</ele>
        <time>2020-08-03T06:36:25Z</time>
      </trkpt>
      <trkpt lat="44.66489" lon="6.98696">
        <ele>2216</ele>
        <time>2020-08-03T06:36:43Z</time>
      </trkpt>
      <trkpt lat="44.66512" lon="6.98693">
        <ele>2216</ele>
        <time>2020-08-03T06:37:00Z</time>
      </trkpt>
      <trkpt lat="44.66539" lon="6.98694">
        <ele>2218</ele>
        <time>2020-08-03T06:37:18Z</time>
      </trkpt>
      <trkpt lat="44.66563" lon="6.98698">
        <ele>2222</ele>
        <time>2020-08-03T06:37:34Z</time>
      </trkpt>
      <trkpt lat="44.66578" lon="6.98697">
        <ele>2224</ele>
        <time>2020-08-03T06:37:44Z</time>
      </trkpt>
      <trkpt lat="44.66579" lon="6.98697">
        <ele>2224</ele>
        <time>2020-08-03T06:37:45Z</time>
      </trkpt>
      <trkpt lat="44.66581" lon="6.98696">
        <ele>2225</ele>
        <time>2020-08-03T06:37:46Z</time>
      </trkpt>
      <trkpt lat="44.66583" lon="6.98696">
        <ele>2225</ele>
        <time>2020-08-03T06:37:47Z</time>
      </trkpt>
      <trkpt lat="44.66584" lon="6.98696">
        <ele>2225</ele>
        <time>2020-08-03T06:37:48Z</time>
      </trkpt>
      <trkpt lat="44.66609" lon="6.98691">
        <ele>2232</ele>
        <time>2020-08-03T06:38:06Z</time>
      </trkpt>
      <trkpt lat="44.66637" lon="6.98689">
        <ele>2237</ele>
        <time>2020-08-03T06:38:26Z</time>
      </trkpt>
      <trkpt lat="44.66665" lon="6.9869">
        <ele>2238</ele>
        <time>2020-08-03T06:38:43Z</time>
      </trkpt>
      <trkpt lat="44.6669" lon="6.98688">
        <ele>2237</ele>
        <time>2020-08-03T06:39:00Z</time>
      </trkpt>
      <trkpt lat="44.66713" lon="6.98689">
        <ele>2241</ele>
        <time>2020-08-03T06:39:16Z</time>
      </trkpt>
      <trkpt lat="44.66736" lon="6.9869">
        <ele>2246</ele>
        <time>2020-08-03T06:39:32Z</time>
      </trkpt>
      <trkpt lat="44.66758" lon="6.98688">
        <ele>2248</ele>
        <time>2020-08-03T06:39:49Z</time>
      </trkpt>
      <trkpt lat="44.66781" lon="6.98688">
        <ele>2251</ele>
        <time>2020-08-03T06:40:05Z</time>
      </trkpt>
      <trkpt lat="44.66805" lon="6.98692">
        <ele>2256</ele>
        <time>2020-08-03T06:40:22Z</time>
      </trkpt>
      <trkpt lat="44.66821" lon="6.98695">
        <ele>2258</ele>
        <time>2020-08-03T06:40:34Z</time>
      </trkpt>
      <trkpt lat="44.66841" lon="6.98702">
        <ele>2261</ele>
        <time>2020-08-03T06:40:49Z</time>
      </trkpt>
      <trkpt lat="44.66869" lon="6.9871">
        <ele>2263</ele>
        <time>2020-08-03T06:41:07Z</time>
      </trkpt>
      <trkpt lat="44.66892" lon="6.98718">
        <ele>2264</ele>
        <time>2020-08-03T06:41:23Z</time>
      </trkpt>
      <trkpt lat="44.66913" lon="6.98723">
        <ele>2268</ele>
        <time>2020-08-03T06:41:39Z</time>
      </trkpt>
      <trkpt lat="44.66934" lon="6.98726">
        <ele>2273</ele>
        <time>2020-08-03T06:41:56Z</time>
      </trkpt>
      <trkpt lat="44.66949" lon="6.98726">
        <ele>2275</ele>
        <time>2020-08-03T06:42:07Z</time>
      </trkpt>
      <trkpt lat="44.66969" lon="6.98725">
        <ele>2276</ele>
        <time>2020-08-03T06:42:23Z</time>
      </trkpt>
      <trkpt lat="44.66991" lon="6.98723">
        <ele>2278</ele>
        <time>2020-08-03T06:42:39Z</time>
      </trkpt>
      <trkpt lat="44.67017" lon="6.98717">
        <ele>2281</ele>
        <time>2020-08-03T06:42:57Z</time>
      </trkpt>
      <trkpt lat="44.6704" lon="6.98708">
        <ele>2282</ele>
        <time>2020-08-03T06:43:13Z</time>
      </trkpt>
      <trkpt lat="44.67059" lon="6.98694">
        <ele>2282</ele>
        <time>2020-08-03T06:43:29Z</time>
      </trkpt>
      <trkpt lat="44.67081" lon="6.98681">
        <ele>2286</ele>
        <time>2020-08-03T06:43:47Z</time>
      </trkpt>
      <trkpt lat="44.67102" lon="6.98674">
        <ele>2291</ele>
        <time>2020-08-03T06:44:04Z</time>
      </trkpt>
      <trkpt lat="44.67129" lon="6.98666">
        <ele>2295</ele>
        <time>2020-08-03T06:44:24Z</time>
      </trkpt>
      <trkpt lat="44.67149" lon="6.98664">
        <ele>2298</ele>
        <time>2020-08-03T06:44:40Z</time>
      </trkpt>
      <trkpt lat="44.6717" lon="6.98664">
        <ele>2301</ele>
        <time>2020-08-03T06:44:56Z</time>
      </trkpt>
      <trkpt lat="44.67189" lon="6.9867">
        <ele>2304</ele>
        <time>2020-08-03T06:45:12Z</time>
      </trkpt>
      <trkpt lat="44.67211" lon="6.98683">
        <ele>2308</ele>
        <time>2020-08-03T06:45:29Z</time>
      </trkpt>
      <trkpt lat="44.67212" lon="6.98685">
        <ele>2309</ele>
        <time>2020-08-03T06:45:30Z</time>
      </trkpt>
      <trkpt lat="44.67212" lon="6.98687">
        <ele>2309</ele>
        <time>2020-08-03T06:45:31Z</time>
      </trkpt>
      <trkpt lat="44.67211" lon="6.98689">
        <ele>2309</ele>
        <time>2020-08-03T06:45:32Z</time>
      </trkpt>
      <trkpt lat="44.6721" lon="6.98691">
        <ele>2309</ele>
        <time>2020-08-03T06:45:33Z</time>
      </trkpt>
      <trkpt lat="44.67209" lon="6.98692">
        <ele>2310</ele>
        <time>2020-08-03T06:45:34Z</time>
      </trkpt>
      <trkpt lat="44.67208" lon="6.98693">
        <ele>2310</ele>
        <time>2020-08-03T06:45:35Z</time>
      </trkpt>
      <trkpt lat="44.67206" lon="6.98694">
        <ele>2310</ele>
        <time>2020-08-03T06:45:36Z</time>
      </trkpt>
      <trkpt lat="44.67205" lon="6.98694">
        <ele>2310</ele>
        <time>2020-08-03T06:45:37Z</time>
      </trkpt>
      <trkpt lat="44.67204" lon="6.98695">
        <ele>2310</ele>
        <time>2020-08-03T06:45:38Z</time>
      </trkpt>
      <trkpt lat="44.67202" lon="6.98694">
        <ele>2310</ele>
        <time>2020-08-03T06:45:39Z</time>
      </trkpt>
      <trkpt lat="44.67201" lon="6.98694">
        <ele>2310</ele>
        <time>2020-08-03T06:45:40Z</time>
      </trkpt>
      <trkpt lat="44.67174" lon="6.98699">
        <ele>2308</ele>
        <time>2020-08-03T06:45:59Z</time>
      </trkpt>
      <trkpt lat="44.67154" lon="6.98726">
        <ele>2312</ele>
        <time>2020-08-03T06:46:17Z</time>
      </trkpt>
      <trkpt lat="44.67137" lon="6.98759">
        <ele>2319</ele>
        <time>2020-08-03T06:46:37Z</time>
      </trkpt>
      <trkpt lat="44.67136" lon="6.98761">
        <ele>2319</ele>
        <time>2020-08-03T06:46:38Z</time>
      </trkpt>
      <trkpt lat="44.67136" lon="6.98763">
        <ele>2320</ele>
        <time>2020-08-03T06:46:39Z</time>
      </trkpt>
      <trkpt lat="44.67135" lon="6.98765">
        <ele>2320</ele>
        <time>2020-08-03T06:46:40Z</time>
      </trkpt>
      <trkpt lat="44.67134" lon="6.98766">
        <ele>2320</ele>
        <time>2020-08-03T06:46:41Z</time>
      </trkpt>
      <trkpt lat="44.67134" lon="6.98768">
        <ele>2321</ele>
        <time>2020-08-03T06:46:42Z</time>
      </trkpt>
      <trkpt lat="44.67133" lon="6.9877">
        <ele>2321</ele>
        <time>2020-08-03T06:46:43Z</time>
      </trkpt>
      <trkpt lat="44.67118" lon="6.98788">
        <ele>2325</ele>
        <time>2020-08-03T06:46:58Z</time>
      </trkpt>
      <trkpt lat="44.67102" lon="6.98804">
        <ele>2327</ele>
        <time>2020-08-03T06:47:13Z</time>
      </trkpt>
      <trkpt lat="44.67098" lon="6.98814">
        <ele>2329</ele>
        <time>2020-08-03T06:47:19Z</time>
      </trkpt>
      <trkpt lat="44.67099" lon="6.98816">
        <ele>2330</ele>
        <time>2020-08-03T06:47:20Z</time>
      </trkpt>
      <trkpt lat="44.671" lon="6.98818">
        <ele>2330</ele>
        <time>2020-08-03T06:47:21Z</time>
      </trkpt>
      <trkpt lat="44.67101" lon="6.98819">
        <ele>2331</ele>
        <time>2020-08-03T06:47:22Z</time>
      </trkpt>
      <trkpt lat="44.67103" lon="6.98819">
        <ele>2332</ele>
        <time>2020-08-03T06:47:23Z</time>
      </trkpt>
      <trkpt lat="44.67132" lon="6.98823">
        <ele>2334</ele>
        <time>2020-08-03T06:47:43Z</time>
      </trkpt>
      <trkpt lat="44.67157" lon="6.98832">
        <ele>2336</ele>
        <time>2020-08-03T06:48:01Z</time>
      </trkpt>
      <trkpt lat="44.67165" lon="6.98831">
        <ele>2335</ele>
        <time>2020-08-03T06:48:07Z</time>
      </trkpt>
      <trkpt lat="44.67171" lon="6.98831">
        <ele>2335</ele>
        <time>2020-08-03T06:48:11Z</time>
      </trkpt>
      <trkpt lat="44.67189" lon="6.98834">
        <ele>2338</ele>
        <time>2020-08-03T06:48:26Z</time>
      </trkpt>
      <trkpt lat="44.6721" lon="6.98836">
        <ele>2340</ele>
        <time>2020-08-03T06:48:44Z</time>
      </trkpt>
      <trkpt lat="44.67236" lon="6.98833">
        <ele>2342</ele>
        <time>2020-08-03T06:49:03Z</time>
      </trkpt>
      <trkpt lat="44.67256" lon="6.98817">
        <ele>2341</ele>
        <time>2020-08-03T06:49:19Z</time>
      </trkpt>
      <trkpt lat="44.67263" lon="6.98828">
        <ele>2345</ele>
        <time>2020-08-03T06:49:25Z</time>
      </trkpt>
      <trkpt lat="44.67249" lon="6.98847">
        <ele>2346</ele>
        <time>2020-08-03T06:49:38Z</time>
      </trkpt>
      <trkpt lat="44.6724" lon="6.98857">
        <ele>2347</ele>
        <time>2020-08-03T06:49:46Z</time>
      </trkpt>
      <trkpt lat="44.67225" lon="6.9887">
        <ele>2348</ele>
        <time>2020-08-03T06:49:58Z</time>
      </trkpt>
      <trkpt lat="44.67195" lon="6.98876">
        <ele>2347</ele>
        <time>2020-08-03T06:50:19Z</time>
      </trkpt>
      <trkpt lat="44.67189" lon="6.98879">
        <ele>2347</ele>
        <time>2020-08-03T06:50:23Z</time>
      </trkpt>
      <trkpt lat="44.6719" lon="6.98892">
        <ele>2351</ele>
        <time>2020-08-03T06:50:29Z</time>
      </trkpt>
      <trkpt lat="44.67214" lon="6.98895">
        <ele>2353</ele>
        <time>2020-08-03T06:50:46Z</time>
      </trkpt>
      <trkpt lat="44.67237" lon="6.98904">
        <ele>2356</ele>
        <time>2020-08-03T06:51:04Z</time>
      </trkpt>
      <trkpt lat="44.67243" lon="6.98905">
        <ele>2357</ele>
        <time>2020-08-03T06:51:08Z</time>
      </trkpt>
      <trkpt lat="44.67252" lon="6.989">
        <ele>2357</ele>
        <time>2020-08-03T06:51:15Z</time>
      </trkpt>
      <trkpt lat="44.67269" lon="6.98889">
        <ele>2358</ele>
        <time>2020-08-03T06:51:31Z</time>
      </trkpt>
      <trkpt lat="44.67276" lon="6.98881">
        <ele>2358</ele>
        <time>2020-08-03T06:51:38Z</time>
      </trkpt>
      <trkpt lat="44.67294" lon="6.98865">
        <ele>2360</ele>
        <time>2020-08-03T06:51:55Z</time>
      </trkpt>
      <trkpt lat="44.67318" lon="6.98874">
        <ele>2367</ele>
        <time>2020-08-03T06:52:12Z</time>
      </trkpt>
      <trkpt lat="44.67337" lon="6.98901">
        <ele>2373</ele>
        <time>2020-08-03T06:52:28Z</time>
      </trkpt>
      <trkpt lat="44.6734" lon="6.98947">
        <ele>2376</ele>
        <time>2020-08-03T06:52:44Z</time>
      </trkpt>
      <trkpt lat="44.67331" lon="6.98987">
        <ele>2381</ele>
        <time>2020-08-03T06:52:58Z</time>
      </trkpt>
      <trkpt lat="44.67306" lon="6.99016">
        <ele>2380</ele>
        <time>2020-08-03T06:53:12Z</time>
      </trkpt>
      <trkpt lat="44.67256" lon="6.99037">
        <ele>2381</ele>
        <time>2020-08-03T06:53:27Z</time>
      </trkpt>
      <trkpt lat="44.67209" lon="6.99033">
        <ele>2382</ele>
        <time>2020-08-03T06:53:41Z</time>
      </trkpt>
      <trkpt lat="44.67161" lon="6.99039">
        <ele>2386</ele>
        <time>2020-08-03T06:53:58Z</time>
      </trkpt>
      <trkpt lat="44.67161" lon="6.99047">
        <ele>2389</ele>
        <time>2020-08-03T06:54:00Z</time>
      </trkpt>
      <trkpt lat="44.67162" lon="6.99051">
        <ele>2390</ele>
        <time>2020-08-03T06:54:01Z</time>
      </trkpt>
      <trkpt lat="44.67164" lon="6.99053">
        <ele>2391</ele>
        <time>2020-08-03T06:54:02Z</time>
      </trkpt>
      <trkpt lat="44.67166" lon="6.99055">
        <ele>2392</ele>
        <time>2020-08-03T06:54:03Z</time>
      </trkpt>
      <trkpt lat="44.67168" lon="6.99056">
        <ele>2393</ele>
        <time>2020-08-03T06:54:04Z</time>
      </trkpt>
      <trkpt lat="44.6717" lon="6.99057">
        <ele>2393</ele>
        <time>2020-08-03T06:54:05Z</time>
      </trkpt>
      <trkpt lat="44.67172" lon="6.99057">
        <ele>2393</ele>
        <time>2020-08-03T06:54:06Z</time>
      </trkpt>
      <trkpt lat="44.672" lon="6.99057">
        <ele>2391</ele>
        <time>2020-08-03T06:54:22Z</time>
      </trkpt>
      <trkpt lat="44.67212" lon="6.99061">
        <ele>2392</ele>
        <time>2020-08-03T06:54:30Z</time>
      </trkpt>
      <trkpt lat="44.67236" lon="6.99071">
        <ele>2393</ele>
        <time>2020-08-03T06:54:49Z</time>
      </trkpt>
      <trkpt lat="44.67259" lon="6.99078">
        <ele>2392</ele>
        <time>2020-08-03T06:55:06Z</time>
      </trkpt>
      <trkpt lat="44.67283" lon="6.99086">
        <ele>2393</ele>
        <time>2020-08-03T06:55:25Z</time>
      </trkpt>
      <trkpt lat="44.673" lon="6.99105">
        <ele>2398</ele>
        <time>2020-08-03T06:55:42Z</time>
      </trkpt>
      <trkpt lat="44.67301" lon="6.99107">
        <ele>2398</ele>
        <time>2020-08-03T06:55:43Z</time>
      </trkpt>
      <trkpt lat="44.67319" lon="6.99122">
        <ele>2405</ele>
        <time>2020-08-03T06:55:59Z</time>
      </trkpt>
      <trkpt lat="44.67332" lon="6.99125">
        <ele>2407</ele>
        <time>2020-08-03T06:56:08Z</time>
      </trkpt>
      <trkpt lat="44.67348" lon="6.99122">
        <ele>2409</ele>
        <time>2020-08-03T06:56:21Z</time>
      </trkpt>
      <trkpt lat="44.67352" lon="6.9912">
        <ele>2409</ele>
        <time>2020-08-03T06:56:24Z</time>
      </trkpt>
      <trkpt lat="44.67372" lon="6.99115">
        <ele>2410</ele>
        <time>2020-08-03T06:56:41Z</time>
      </trkpt>
      <trkpt lat="44.67392" lon="6.99103">
        <ele>2408</ele>
        <time>2020-08-03T06:57:00Z</time>
      </trkpt>
      <trkpt lat="44.67408" lon="6.99092">
        <ele>2413</ele>
        <time>2020-08-03T06:57:16Z</time>
      </trkpt>
      <trkpt lat="44.67428" lon="6.99075">
        <ele>2420</ele>
        <time>2020-08-03T06:57:34Z</time>
      </trkpt>
      <trkpt lat="44.67428" lon="6.99074">
        <ele>2420</ele>
        <time>2020-08-03T06:57:35Z</time>
      </trkpt>
      <trkpt lat="44.67435" lon="6.99065">
        <ele>2422</ele>
        <time>2020-08-03T06:57:42Z</time>
      </trkpt>
      <trkpt lat="44.67447" lon="6.99053">
        <ele>2427</ele>
        <time>2020-08-03T06:57:55Z</time>
      </trkpt>
      <trkpt lat="44.6745" lon="6.99051">
        <ele>2427</ele>
        <time>2020-08-03T06:57:57Z</time>
      </trkpt>
      <trkpt lat="44.67466" lon="6.99029">
        <ele>2428</ele>
        <time>2020-08-03T06:58:15Z</time>
      </trkpt>
      <trkpt lat="44.67479" lon="6.9901">
        <ele>2430</ele>
        <time>2020-08-03T06:58:31Z</time>
      </trkpt>
      <trkpt lat="44.67484" lon="6.99">
        <ele>2431</ele>
        <time>2020-08-03T06:58:38Z</time>
      </trkpt>
      <trkpt lat="44.67485" lon="6.98999">
        <ele>2432</ele>
        <time>2020-08-03T06:58:39Z</time>
      </trkpt>
      <trkpt lat="44.67486" lon="6.98997">
        <ele>2432</ele>
        <time>2020-08-03T06:58:40Z</time>
      </trkpt>
      <trkpt lat="44.67487" lon="6.98996">
        <ele>2433</ele>
        <time>2020-08-03T06:58:41Z</time>
      </trkpt>
      <trkpt lat="44.67488" lon="6.98994">
        <ele>2433</ele>
        <time>2020-08-03T06:58:42Z</time>
      </trkpt>
      <trkpt lat="44.67493" lon="6.98984">
        <ele>2436</ele>
        <time>2020-08-03T06:58:49Z</time>
      </trkpt>
      <trkpt lat="44.67494" lon="6.98983">
        <ele>2436</ele>
        <time>2020-08-03T06:58:50Z</time>
      </trkpt>
      <trkpt lat="44.67495" lon="6.98981">
        <ele>2436</ele>
        <time>2020-08-03T06:58:51Z</time>
      </trkpt>
      <trkpt lat="44.67496" lon="6.98981">
        <ele>2437</ele>
        <time>2020-08-03T06:58:52Z</time>
      </trkpt>
      <trkpt lat="44.67497" lon="6.98981">
        <ele>2437</ele>
        <time>2020-08-03T06:58:53Z</time>
      </trkpt>
      <trkpt lat="44.67498" lon="6.98982">
        <ele>2438</ele>
        <time>2020-08-03T06:58:54Z</time>
      </trkpt>
      <trkpt lat="44.67499" lon="6.98984">
        <ele>2439</ele>
        <time>2020-08-03T06:58:55Z</time>
      </trkpt>
      <trkpt lat="44.67497" lon="6.98996">
        <ele>2439</ele>
        <time>2020-08-03T06:59:02Z</time>
      </trkpt>
      <trkpt lat="44.67486" lon="6.99029">
        <ele>2438</ele>
        <time>2020-08-03T06:59:20Z</time>
      </trkpt>
      <trkpt lat="44.6747" lon="6.99061">
        <ele>2435</ele>
        <time>2020-08-03T06:59:41Z</time>
      </trkpt>
      <trkpt lat="44.67463" lon="6.9909">
        <ele>2440</ele>
        <time>2020-08-03T06:59:58Z</time>
      </trkpt>
      <trkpt lat="44.67454" lon="6.99121">
        <ele>2446</ele>
        <time>2020-08-03T07:00:16Z</time>
      </trkpt>
      <trkpt lat="44.67452" lon="6.99124">
        <ele>2446</ele>
        <time>2020-08-03T07:00:19Z</time>
      </trkpt>
      <trkpt lat="44.67451" lon="6.99126">
        <ele>2446</ele>
        <time>2020-08-03T07:00:25Z</time>
      </trkpt>
      <trkpt lat="44.67446" lon="6.99136">
        <ele>2446</ele>
        <time>2020-08-03T07:00:34Z</time>
      </trkpt>
      <trkpt lat="44.67444" lon="6.9914">
        <ele>2447</ele>
        <time>2020-08-03T07:00:37Z</time>
      </trkpt>
      <trkpt lat="44.67433" lon="6.99169">
        <ele>2448</ele>
        <time>2020-08-03T07:00:54Z</time>
      </trkpt>
      <trkpt lat="44.67419" lon="6.99198">
        <ele>2448</ele>
        <time>2020-08-03T07:01:12Z</time>
      </trkpt>
      <trkpt lat="44.67403" lon="6.99222">
        <ele>2452</ele>
        <time>2020-08-03T07:01:29Z</time>
      </trkpt>
      <trkpt lat="44.67386" lon="6.99244">
        <ele>2457</ele>
        <time>2020-08-03T07:01:46Z</time>
      </trkpt>
      <trkpt lat="44.67365" lon="6.9926">
        <ele>2466</ele>
        <time>2020-08-03T07:02:03Z</time>
      </trkpt>
      <trkpt lat="44.67365" lon="6.99273">
        <ele>2474</ele>
        <time>2020-08-03T07:02:11Z</time>
      </trkpt>
      <trkpt lat="44.67372" lon="6.99274">
        <ele>2474</ele>
        <time>2020-08-03T07:02:16Z</time>
      </trkpt>
      <trkpt lat="44.67397" lon="6.9926">
        <ele>2466</ele>
        <time>2020-08-03T07:02:35Z</time>
      </trkpt>
      <trkpt lat="44.6742" lon="6.99245">
        <ele>2465</ele>
        <time>2020-08-03T07:02:54Z</time>
      </trkpt>
      <trkpt lat="44.67441" lon="6.99231">
        <ele>2471</ele>
        <time>2020-08-03T07:03:12Z</time>
      </trkpt>
      <trkpt lat="44.67463" lon="6.99214">
        <ele>2474</ele>
        <time>2020-08-03T07:03:30Z</time>
      </trkpt>
      <trkpt lat="44.67487" lon="6.992">
        <ele>2478</ele>
        <time>2020-08-03T07:03:49Z</time>
      </trkpt>
      <trkpt lat="44.67508" lon="6.9918">
        <ele>2482</ele>
        <time>2020-08-03T07:04:09Z</time>
      </trkpt>
      <trkpt lat="44.67527" lon="6.99156">
        <ele>2487</ele>
        <time>2020-08-03T07:04:28Z</time>
      </trkpt>
      <trkpt lat="44.67537" lon="6.99138">
        <ele>2488</ele>
        <time>2020-08-03T07:04:40Z</time>
      </trkpt>
      <trkpt lat="44.67541" lon="6.99124">
        <ele>2487</ele>
        <time>2020-08-03T07:04:48Z</time>
      </trkpt>
      <trkpt lat="44.6755" lon="6.99106">
        <ele>2487</ele>
        <time>2020-08-03T07:05:02Z</time>
      </trkpt>
      <trkpt lat="44.67568" lon="6.99094">
        <ele>2491</ele>
        <time>2020-08-03T07:05:19Z</time>
      </trkpt>
      <trkpt lat="44.67589" lon="6.99082">
        <ele>2498</ele>
        <time>2020-08-03T07:05:37Z</time>
      </trkpt>
      <trkpt lat="44.67611" lon="6.99064">
        <ele>2501</ele>
        <time>2020-08-03T07:05:57Z</time>
      </trkpt>
      <trkpt lat="44.67627" lon="6.99039">
        <ele>2500</ele>
        <time>2020-08-03T07:06:16Z</time>
      </trkpt>
      <trkpt lat="44.67651" lon="6.99018">
        <ele>2505</ele>
        <time>2020-08-03T07:06:34Z</time>
      </trkpt>
      <trkpt lat="44.6767" lon="6.99002">
        <ele>2510</ele>
        <time>2020-08-03T07:06:49Z</time>
      </trkpt>
      <trkpt lat="44.67686" lon="6.98981">
        <ele>2513</ele>
        <time>2020-08-03T07:07:02Z</time>
      </trkpt>
      <trkpt lat="44.67695" lon="6.98972">
        <ele>2516</ele>
        <time>2020-08-03T07:07:09Z</time>
      </trkpt>
      <trkpt lat="44.67712" lon="6.98963">
        <ele>2517</ele>
        <time>2020-08-03T07:07:23Z</time>
      </trkpt>
      <trkpt lat="44.6773" lon="6.98949">
        <ele>2519</ele>
        <time>2020-08-03T07:07:38Z</time>
      </trkpt>
      <trkpt lat="44.67743" lon="6.98943">
        <ele>2520</ele>
        <time>2020-08-03T07:07:52Z</time>
      </trkpt>
      <trkpt lat="44.67755" lon="6.98941">
        <ele>2521</ele>
        <time>2020-08-03T07:08:05Z</time>
      </trkpt>
      <trkpt lat="44.67763" lon="6.98939">
        <ele>2522</ele>
        <time>2020-08-03T07:08:12Z</time>
      </trkpt>
      <trkpt lat="44.67782" lon="6.98935">
        <ele>2524</ele>
        <time>2020-08-03T07:08:27Z</time>
      </trkpt>
      <trkpt lat="44.67802" lon="6.98932">
        <ele>2527</ele>
        <time>2020-08-03T07:08:43Z</time>
      </trkpt>
      <trkpt lat="44.67824" lon="6.98928">
        <ele>2530</ele>
        <time>2020-08-03T07:09:00Z</time>
      </trkpt>
      <trkpt lat="44.67846" lon="6.98912">
        <ele>2536</ele>
        <time>2020-08-03T07:09:19Z</time>
      </trkpt>
      <trkpt lat="44.67859" lon="6.98885">
        <ele>2540</ele>
        <time>2020-08-03T07:09:36Z</time>
      </trkpt>
      <trkpt lat="44.67863" lon="6.98868">
        <ele>2540</ele>
        <time>2020-08-03T07:09:52Z</time>
      </trkpt>
      <trkpt lat="44.67868" lon="6.98863">
        <ele>2541</ele>
        <time>2020-08-03T07:12:26Z</time>
      </trkpt>
      <trkpt lat="44.67876" lon="6.98862">
        <ele>2542</ele>
        <time>2020-08-03T07:12:32Z</time>
      </trkpt>
      <trkpt lat="44.67899" lon="6.9884">
        <ele>2543</ele>
        <time>2020-08-03T07:12:49Z</time>
      </trkpt>
      <trkpt lat="44.67914" lon="6.98802">
        <ele>2546</ele>
        <time>2020-08-03T07:13:09Z</time>
      </trkpt>
      <trkpt lat="44.67915" lon="6.98769">
        <ele>2548</ele>
        <time>2020-08-03T07:13:23Z</time>
      </trkpt>
      <trkpt lat="44.67914" lon="6.98731">
        <ele>2549</ele>
        <time>2020-08-03T07:13:40Z</time>
      </trkpt>
      <trkpt lat="44.67909" lon="6.98688">
        <ele>2548</ele>
        <time>2020-08-03T07:14:00Z</time>
      </trkpt>
      <trkpt lat="44.67907" lon="6.98647">
        <ele>2550</ele>
        <time>2020-08-03T07:14:19Z</time>
      </trkpt>
      <trkpt lat="44.67918" lon="6.98609">
        <ele>2559</ele>
        <time>2020-08-03T07:14:37Z</time>
      </trkpt>
      <trkpt lat="44.67943" lon="6.98562">
        <ele>2564</ele>
        <time>2020-08-03T07:15:00Z</time>
      </trkpt>
      <trkpt lat="44.67972" lon="6.98509">
        <ele>2564</ele>
        <time>2020-08-03T07:15:25Z</time>
      </trkpt>
      <trkpt lat="44.68001" lon="6.98451">
        <ele>2568</ele>
        <time>2020-08-03T07:15:51Z</time>
      </trkpt>
      <trkpt lat="44.68025" lon="6.98397">
        <ele>2573</ele>
        <time>2020-08-03T07:16:15Z</time>
      </trkpt>
      <trkpt lat="44.68038" lon="6.98357">
        <ele>2574</ele>
        <time>2020-08-03T07:16:33Z</time>
      </trkpt>
      <trkpt lat="44.68053" lon="6.98317">
        <ele>2580</ele>
        <time>2020-08-03T07:16:52Z</time>
      </trkpt>
      <trkpt lat="44.6804" lon="6.98269">
        <ele>2580</ele>
        <time>2020-08-03T07:17:13Z</time>
      </trkpt>
      <trkpt lat="44.6802" lon="6.98239">
        <ele>2581</ele>
        <time>2020-08-03T07:17:30Z</time>
      </trkpt>
      <trkpt lat="44.68006" lon="6.98209">
        <ele>2588</ele>
        <time>2020-08-03T07:17:45Z</time>
      </trkpt>
      <trkpt lat="44.67992" lon="6.98189">
        <ele>2593</ele>
        <time>2020-08-03T07:17:58Z</time>
      </trkpt>
      <trkpt lat="44.67978" lon="6.98164">
        <ele>2602</ele>
        <time>2020-08-03T07:18:12Z</time>
      </trkpt>
      <trkpt lat="44.67961" lon="6.98129">
        <ele>2610</ele>
        <time>2020-08-03T07:18:30Z</time>
      </trkpt>
      <trkpt lat="44.67934" lon="6.98107">
        <ele>2603</ele>
        <time>2020-08-03T07:18:49Z</time>
      </trkpt>
      <trkpt lat="44.67925" lon="6.98095">
        <ele>2600</ele>
        <time>2020-08-03T07:18:59Z</time>
      </trkpt>
      <trkpt lat="44.67924" lon="6.98093">
        <ele>2601</ele>
        <time>2020-08-03T07:19:00Z</time>
      </trkpt>
      <trkpt lat="44.6792" lon="6.98057">
        <ele>2608</ele>
        <time>2020-08-03T07:19:18Z</time>
      </trkpt>
      <trkpt lat="44.67912" lon="6.98022">
        <ele>2611</ele>
        <time>2020-08-03T07:19:35Z</time>
      </trkpt>
      <trkpt lat="44.67896" lon="6.97999">
        <ele>2612</ele>
        <time>2020-08-03T07:19:50Z</time>
      </trkpt>
      <trkpt lat="44.67869" lon="6.97968">
        <ele>2616</ele>
        <time>2020-08-03T07:20:11Z</time>
      </trkpt>
      <trkpt lat="44.67838" lon="6.97944">
        <ele>2620</ele>
        <time>2020-08-03T07:20:32Z</time>
      </trkpt>
      <trkpt lat="44.67817" lon="6.97912">
        <ele>2622</ele>
        <time>2020-08-03T07:20:50Z</time>
      </trkpt>
      <trkpt lat="44.67793" lon="6.97871">
        <ele>2625</ele>
        <time>2020-08-03T07:21:11Z</time>
      </trkpt>
      <trkpt lat="44.67771" lon="6.97837">
        <ele>2625</ele>
        <time>2020-08-03T07:21:29Z</time>
      </trkpt>
      <trkpt lat="44.6775" lon="6.97798">
        <ele>2627</ele>
        <time>2020-08-03T07:21:48Z</time>
      </trkpt>
      <trkpt lat="44.67729" lon="6.97767">
        <ele>2628</ele>
        <time>2020-08-03T07:22:05Z</time>
      </trkpt>
      <trkpt lat="44.6771" lon="6.97749">
        <ele>2626</ele>
        <time>2020-08-03T07:22:18Z</time>
      </trkpt>
      <trkpt lat="44.67709" lon="6.97747">
        <ele>2627</ele>
        <time>2020-08-03T07:22:19Z</time>
      </trkpt>
      <trkpt lat="44.67709" lon="6.97744">
        <ele>2627</ele>
        <time>2020-08-03T07:22:20Z</time>
      </trkpt>
      <trkpt lat="44.67709" lon="6.97742">
        <ele>2628</ele>
        <time>2020-08-03T07:22:21Z</time>
      </trkpt>
      <trkpt lat="44.67709" lon="6.97739">
        <ele>2628</ele>
        <time>2020-08-03T07:22:22Z</time>
      </trkpt>
      <trkpt lat="44.6771" lon="6.97737">
        <ele>2629</ele>
        <time>2020-08-03T07:22:23Z</time>
      </trkpt>
      <trkpt lat="44.67711" lon="6.97736">
        <ele>2630</ele>
        <time>2020-08-03T07:22:24Z</time>
      </trkpt>
      <trkpt lat="44.67719" lon="6.97737">
        <ele>2633</ele>
        <time>2020-08-03T07:22:28Z</time>
      </trkpt>
      <trkpt lat="44.67748" lon="6.9776">
        <ele>2636</ele>
        <time>2020-08-03T07:22:49Z</time>
      </trkpt>
      <trkpt lat="44.67767" lon="6.97769">
        <ele>2640</ele>
        <time>2020-08-03T07:23:02Z</time>
      </trkpt>
      <trkpt lat="44.67785" lon="6.97778">
        <ele>2644</ele>
        <time>2020-08-03T07:23:15Z</time>
      </trkpt>
      <trkpt lat="44.67807" lon="6.97797">
        <ele>2647</ele>
        <time>2020-08-03T07:23:33Z</time>
      </trkpt>
      <trkpt lat="44.6783" lon="6.97816">
        <ele>2649</ele>
        <time>2020-08-03T07:23:52Z</time>
      </trkpt>
      <trkpt lat="44.6785" lon="6.97828">
        <ele>2651</ele>
        <time>2020-08-03T07:24:07Z</time>
      </trkpt>
      <trkpt lat="44.67871" lon="6.97841">
        <ele>2652</ele>
        <time>2020-08-03T07:24:24Z</time>
      </trkpt>
      <trkpt lat="44.67896" lon="6.97839">
        <ele>2656</ele>
        <time>2020-08-03T07:24:42Z</time>
      </trkpt>
      <trkpt lat="44.6792" lon="6.97831">
        <ele>2662</ele>
        <time>2020-08-03T07:24:59Z</time>
      </trkpt>
      <trkpt lat="44.67924" lon="6.9783">
        <ele>2663</ele>
        <time>2020-08-03T07:25:03Z</time>
      </trkpt>
      <trkpt lat="44.67928" lon="6.9783">
        <ele>2664</ele>
        <time>2020-08-03T07:25:07Z</time>
      </trkpt>
      <trkpt lat="44.6794" lon="6.97832">
        <ele>2666</ele>
        <time>2020-08-03T07:25:16Z</time>
      </trkpt>
      <trkpt lat="44.67947" lon="6.97831">
        <ele>2668</ele>
        <time>2020-08-03T07:25:22Z</time>
      </trkpt>
      <trkpt lat="44.67961" lon="6.97832">
        <ele>2669</ele>
        <time>2020-08-03T07:25:34Z</time>
      </trkpt>
      <trkpt lat="44.6797" lon="6.97832">
        <ele>2670</ele>
        <time>2020-08-03T07:25:45Z</time>
      </trkpt>
      <trkpt lat="44.67979" lon="6.97838">
        <ele>2670</ele>
        <time>2020-08-03T07:25:57Z</time>
      </trkpt>
      <trkpt lat="44.67998" lon="6.97847">
        <ele>2670</ele>
        <time>2020-08-03T07:26:14Z</time>
      </trkpt>
      <trkpt lat="44.68019" lon="6.97851">
        <ele>2672</ele>
        <time>2020-08-03T07:26:30Z</time>
      </trkpt>
      <trkpt lat="44.68045" lon="6.97857">
        <ele>2674</ele>
        <time>2020-08-03T07:26:49Z</time>
      </trkpt>
      <trkpt lat="44.68067" lon="6.97866">
        <ele>2678</ele>
        <time>2020-08-03T07:27:07Z</time>
      </trkpt>
      <trkpt lat="44.68089" lon="6.97875">
        <ele>2682</ele>
        <time>2020-08-03T07:27:25Z</time>
      </trkpt>
      <trkpt lat="44.68115" lon="6.97883">
        <ele>2686</ele>
        <time>2020-08-03T07:27:44Z</time>
      </trkpt>
      <trkpt lat="44.68118" lon="6.97883">
        <ele>2686</ele>
        <time>2020-08-03T07:27:46Z</time>
      </trkpt>
      <trkpt lat="44.68126" lon="6.97881">
        <ele>2687</ele>
        <time>2020-08-03T07:27:53Z</time>
      </trkpt>
      <trkpt lat="44.6815" lon="6.97879">
        <ele>2690</ele>
        <time>2020-08-03T07:28:12Z</time>
      </trkpt>
      <trkpt lat="44.68177" lon="6.97888">
        <ele>2694</ele>
        <time>2020-08-03T07:28:33Z</time>
      </trkpt>
      <trkpt lat="44.68198" lon="6.97893">
        <ele>2697</ele>
        <time>2020-08-03T07:28:49Z</time>
      </trkpt>
      <trkpt lat="44.68221" lon="6.97897">
        <ele>2703</ele>
        <time>2020-08-03T07:29:07Z</time>
      </trkpt>
      <trkpt lat="44.6824" lon="6.9791">
        <ele>2704</ele>
        <time>2020-08-03T07:29:23Z</time>
      </trkpt>
      <trkpt lat="44.6826" lon="6.9793">
        <ele>2705</ele>
        <time>2020-08-03T07:29:41Z</time>
      </trkpt>
      <trkpt lat="44.68279" lon="6.97945">
        <ele>2706</ele>
        <time>2020-08-03T07:29:57Z</time>
      </trkpt>
      <trkpt lat="44.68293" lon="6.97952">
        <ele>2709</ele>
        <time>2020-08-03T07:30:07Z</time>
      </trkpt>
      <trkpt lat="44.68314" lon="6.97964">
        <ele>2716</ele>
        <time>2020-08-03T07:30:23Z</time>
      </trkpt>
      <trkpt lat="44.68331" lon="6.97991">
        <ele>2724</ele>
        <time>2020-08-03T07:30:41Z</time>
      </trkpt>
      <trkpt lat="44.68332" lon="6.98021">
        <ele>2725</ele>
        <time>2020-08-03T07:30:57Z</time>
      </trkpt>
      <trkpt lat="44.68328" lon="6.98051">
        <ele>2724</ele>
        <time>2020-08-03T07:31:12Z</time>
      </trkpt>
      <trkpt lat="44.68322" lon="6.98093">
        <ele>2724</ele>
        <time>2020-08-03T07:31:32Z</time>
      </trkpt>
      <trkpt lat="44.68313" lon="6.98134">
        <ele>2729</ele>
        <time>2020-08-03T07:31:52Z</time>
      </trkpt>
      <trkpt lat="44.68306" lon="6.98173">
        <ele>2728</ele>
        <time>2020-08-03T07:32:11Z</time>
      </trkpt>
      <trkpt lat="44.68312" lon="6.98178">
        <ele>2730</ele>
        <time>2020-08-03T07:32:16Z</time>
      </trkpt>
      <trkpt lat="44.68316" lon="6.98176">
        <ele>2732</ele>
        <time>2020-08-03T07:32:18Z</time>
      </trkpt>
      <trkpt lat="44.68323" lon="6.98161">
        <ele>2736</ele>
        <time>2020-08-03T07:32:25Z</time>
      </trkpt>
      <trkpt lat="44.68344" lon="6.98104">
        <ele>2736</ele>
        <time>2020-08-03T07:32:47Z</time>
      </trkpt>
      <trkpt lat="44.68366" lon="6.98049">
        <ele>2743</ele>
        <time>2020-08-03T07:33:07Z</time>
      </trkpt>
      <trkpt lat="44.68376" lon="6.98007">
        <ele>2742</ele>
        <time>2020-08-03T07:33:21Z</time>
      </trkpt>
      <trkpt lat="44.68385" lon="6.97957">
        <ele>2739</ele>
        <time>2020-08-03T07:33:39Z</time>
      </trkpt>
      <trkpt lat="44.68385" lon="6.97946">
        <ele>2739</ele>
        <time>2020-08-03T07:33:43Z</time>
      </trkpt>
      <trkpt lat="44.68385" lon="6.97943">
        <ele>2739</ele>
        <time>2020-08-03T07:33:44Z</time>
      </trkpt>
      <trkpt lat="44.68387" lon="6.97941">
        <ele>2739</ele>
        <time>2020-08-03T07:33:45Z</time>
      </trkpt>
      <trkpt lat="44.68388" lon="6.97939">
        <ele>2739</ele>
        <time>2020-08-03T07:33:46Z</time>
      </trkpt>
      <trkpt lat="44.68388" lon="6.97937">
        <ele>2739</ele>
        <time>2020-08-03T07:33:47Z</time>
      </trkpt>
      <trkpt lat="44.68388" lon="6.97936">
        <ele>2739</ele>
        <time>2020-08-03T07:33:48Z</time>
      </trkpt>
      <trkpt lat="44.68389" lon="6.97931">
        <ele>2739</ele>
        <time>2020-08-03T07:33:55Z</time>
      </trkpt>
      <trkpt lat="44.68389" lon="6.97926">
        <ele>2739</ele>
        <time>2020-08-03T07:45:16Z</time>
      </trkpt>
      <trkpt lat="44.68391" lon="6.97922">
        <ele>2739</ele>
        <time>2020-08-03T07:45:17Z</time>
      </trkpt>
      <trkpt lat="44.68394" lon="6.97907">
        <ele>2739</ele>
        <time>2020-08-03T07:45:21Z</time>
      </trkpt>
      <trkpt lat="44.68396" lon="6.97906">
        <ele>2739</ele>
        <time>2020-08-03T07:45:22Z</time>
      </trkpt>
      <trkpt lat="44.68399" lon="6.97906">
        <ele>2738</ele>
        <time>2020-08-03T07:45:23Z</time>
      </trkpt>
      <trkpt lat="44.68402" lon="6.97908">
        <ele>2737</ele>
        <time>2020-08-03T07:45:24Z</time>
      </trkpt>
      <trkpt lat="44.68404" lon="6.97911">
        <ele>2736</ele>
        <time>2020-08-03T07:45:25Z</time>
      </trkpt>
      <trkpt lat="44.68406" lon="6.97914">
        <ele>2735</ele>
        <time>2020-08-03T07:45:26Z</time>
      </trkpt>
      <trkpt lat="44.68408" lon="6.97912">
        <ele>2735</ele>
        <time>2020-08-03T07:45:29Z</time>
      </trkpt>
      <trkpt lat="44.68408" lon="6.97893">
        <ele>2736</ele>
        <time>2020-08-03T07:45:33Z</time>
      </trkpt>
      <trkpt lat="44.6841" lon="6.97885">
        <ele>2736</ele>
        <time>2020-08-03T07:45:35Z</time>
      </trkpt>
      <trkpt lat="44.68427" lon="6.97904">
        <ele>2729</ele>
        <time>2020-08-03T07:45:42Z</time>
      </trkpt>
      <trkpt lat="44.68441" lon="6.97924">
        <ele>2723</ele>
        <time>2020-08-03T07:45:45Z</time>
      </trkpt>
      <trkpt lat="44.68457" lon="6.97938">
        <ele>2719</ele>
        <time>2020-08-03T07:45:48Z</time>
      </trkpt>
      <trkpt lat="44.68463" lon="6.97933">
        <ele>2718</ele>
        <time>2020-08-03T07:45:52Z</time>
      </trkpt>
      <trkpt lat="44.68464" lon="6.97918">
        <ele>2716</ele>
        <time>2020-08-03T07:45:55Z</time>
      </trkpt>
      <trkpt lat="44.68465" lon="6.97912">
        <ele>2716</ele>
        <time>2020-08-03T07:45:56Z</time>
      </trkpt>
      <trkpt lat="44.68467" lon="6.97906">
        <ele>2715</ele>
        <time>2020-08-03T07:45:57Z</time>
      </trkpt>
      <trkpt lat="44.68473" lon="6.97892">
        <ele>2713</ele>
        <time>2020-08-03T07:45:59Z</time>
      </trkpt>
      <trkpt lat="44.68475" lon="6.97882">
        <ele>2712</ele>
        <time>2020-08-03T07:46:00Z</time>
      </trkpt>
      <trkpt lat="44.68486" lon="6.97825">
        <ele>2704</ele>
        <time>2020-08-03T07:46:06Z</time>
      </trkpt>
      <trkpt lat="44.68492" lon="6.97808">
        <ele>2703</ele>
        <time>2020-08-03T07:46:08Z</time>
      </trkpt>
      <trkpt lat="44.68495" lon="6.97802">
        <ele>2702</ele>
        <time>2020-08-03T07:46:09Z</time>
      </trkpt>
      <trkpt lat="44.68497" lon="6.97798">
        <ele>2702</ele>
        <time>2020-08-03T07:46:10Z</time>
      </trkpt>
      <trkpt lat="44.68498" lon="6.97795">
        <ele>2701</ele>
        <time>2020-08-03T07:46:11Z</time>
      </trkpt>
      <trkpt lat="44.68498" lon="6.97793">
        <ele>2701</ele>
        <time>2020-08-03T07:46:12Z</time>
      </trkpt>
      <trkpt lat="44.68495" lon="6.97791">
        <ele>2702</ele>
        <time>2020-08-03T07:46:14Z</time>
      </trkpt>
      <trkpt lat="44.68493" lon="6.97788">
        <ele>2702</ele>
        <time>2020-08-03T07:46:16Z</time>
      </trkpt>
      <trkpt lat="44.68491" lon="6.97784">
        <ele>2702</ele>
        <time>2020-08-03T07:46:18Z</time>
      </trkpt>
      <trkpt lat="44.6849" lon="6.97781">
        <ele>2702</ele>
        <time>2020-08-03T07:46:24Z</time>
      </trkpt>
      <trkpt lat="44.68486" lon="6.97769">
        <ele>2702</ele>
        <time>2020-08-03T07:47:13Z</time>
      </trkpt>
      <trkpt lat="44.68485" lon="6.97768">
        <ele>2702</ele>
        <time>2020-08-03T07:47:14Z</time>
      </trkpt>
      <trkpt lat="44.68484" lon="6.97765">
        <ele>2702</ele>
        <time>2020-08-03T07:47:18Z</time>
      </trkpt>
      <trkpt lat="44.68482" lon="6.97755">
        <ele>2701</ele>
        <time>2020-08-03T07:47:24Z</time>
      </trkpt>
      <trkpt lat="44.68482" lon="6.97738">
        <ele>2701</ele>
        <time>2020-08-03T07:47:41Z</time>
      </trkpt>
      <trkpt lat="44.68477" lon="6.97714">
        <ele>2700</ele>
        <time>2020-08-03T07:48:11Z</time>
      </trkpt>
      <trkpt lat="44.68476" lon="6.97708">
        <ele>2700</ele>
        <time>2020-08-03T07:48:13Z</time>
      </trkpt>
      <trkpt lat="44.68464" lon="6.97674">
        <ele>2702</ele>
        <time>2020-08-03T07:48:25Z</time>
      </trkpt>
      <trkpt lat="44.68464" lon="6.97671">
        <ele>2702</ele>
        <time>2020-08-03T07:48:26Z</time>
      </trkpt>
      <trkpt lat="44.68454" lon="6.97648">
        <ele>2702</ele>
        <time>2020-08-03T07:48:34Z</time>
      </trkpt>
      <trkpt lat="44.68452" lon="6.97639">
        <ele>2700</ele>
        <time>2020-08-03T07:48:37Z</time>
      </trkpt>
      <trkpt lat="44.6845" lon="6.97623">
        <ele>2697</ele>
        <time>2020-08-03T07:48:41Z</time>
      </trkpt>
      <trkpt lat="44.68447" lon="6.97616">
        <ele>2696</ele>
        <time>2020-08-03T07:48:43Z</time>
      </trkpt>
      <trkpt lat="44.68447" lon="6.97607">
        <ele>2694</ele>
        <time>2020-08-03T07:48:46Z</time>
      </trkpt>
      <trkpt lat="44.68445" lon="6.97602">
        <ele>2693</ele>
        <time>2020-08-03T07:48:48Z</time>
      </trkpt>
      <trkpt lat="44.68437" lon="6.97581">
        <ele>2691</ele>
        <time>2020-08-03T07:48:57Z</time>
      </trkpt>
      <trkpt lat="44.68431" lon="6.97565">
        <ele>2690</ele>
        <time>2020-08-03T07:49:07Z</time>
      </trkpt>
      <trkpt lat="44.68428" lon="6.97558">
        <ele>2689</ele>
        <time>2020-08-03T07:49:11Z</time>
      </trkpt>
      <trkpt lat="44.68427" lon="6.97534">
        <ele>2683</ele>
        <time>2020-08-03T07:49:19Z</time>
      </trkpt>
      <trkpt lat="44.68419" lon="6.97519">
        <ele>2682</ele>
        <time>2020-08-03T07:49:26Z</time>
      </trkpt>
      <trkpt lat="44.68418" lon="6.97514">
        <ele>2681</ele>
        <time>2020-08-03T07:49:28Z</time>
      </trkpt>
      <trkpt lat="44.68415" lon="6.97508">
        <ele>2680</ele>
        <time>2020-08-03T07:49:35Z</time>
      </trkpt>
      <trkpt lat="44.68388" lon="6.97476">
        <ele>2686</ele>
        <time>2020-08-03T07:51:57Z</time>
      </trkpt>
      <trkpt lat="44.68384" lon="6.97472">
        <ele>2687</ele>
        <time>2020-08-03T07:52:02Z</time>
      </trkpt>
      <trkpt lat="44.68383" lon="6.97469">
        <ele>2687</ele>
        <time>2020-08-03T07:52:04Z</time>
      </trkpt>
      <trkpt lat="44.68378" lon="6.97461">
        <ele>2686</ele>
        <time>2020-08-03T07:52:15Z</time>
      </trkpt>
      <trkpt lat="44.68363" lon="6.9744">
        <ele>2683</ele>
        <time>2020-08-03T07:52:25Z</time>
      </trkpt>
      <trkpt lat="44.68357" lon="6.97431">
        <ele>2682</ele>
        <time>2020-08-03T07:52:28Z</time>
      </trkpt>
      <trkpt lat="44.68344" lon="6.97406">
        <ele>2680</ele>
        <time>2020-08-03T07:52:35Z</time>
      </trkpt>
      <trkpt lat="44.68341" lon="6.97389">
        <ele>2678</ele>
        <time>2020-08-03T07:52:41Z</time>
      </trkpt>
      <trkpt lat="44.68341" lon="6.97381">
        <ele>2676</ele>
        <time>2020-08-03T07:52:44Z</time>
      </trkpt>
      <trkpt lat="44.6834" lon="6.97377">
        <ele>2675</ele>
        <time>2020-08-03T07:52:50Z</time>
      </trkpt>
      <trkpt lat="44.68325" lon="6.97349">
        <ele>2675</ele>
        <time>2020-08-03T07:54:17Z</time>
      </trkpt>
      <trkpt lat="44.6832" lon="6.97345">
        <ele>2675</ele>
        <time>2020-08-03T07:54:20Z</time>
      </trkpt>
      <trkpt lat="44.6831" lon="6.97339">
        <ele>2678</ele>
        <time>2020-08-03T07:54:26Z</time>
      </trkpt>
      <trkpt lat="44.68302" lon="6.9733">
        <ele>2680</ele>
        <time>2020-08-03T07:54:32Z</time>
      </trkpt>
      <trkpt lat="44.683" lon="6.97305">
        <ele>2676</ele>
        <time>2020-08-03T07:54:41Z</time>
      </trkpt>
      <trkpt lat="44.68298" lon="6.97294">
        <ele>2676</ele>
        <time>2020-08-03T07:54:53Z</time>
      </trkpt>
      <trkpt lat="44.68294" lon="6.97277">
        <ele>2676</ele>
        <time>2020-08-03T07:55:09Z</time>
      </trkpt>
      <trkpt lat="44.68293" lon="6.97275">
        <ele>2676</ele>
        <time>2020-08-03T07:55:12Z</time>
      </trkpt>
      <trkpt lat="44.68292" lon="6.97261">
        <ele>2675</ele>
        <time>2020-08-03T07:55:24Z</time>
      </trkpt>
      <trkpt lat="44.68289" lon="6.97258">
        <ele>2677</ele>
        <time>2020-08-03T07:55:30Z</time>
      </trkpt>
      <trkpt lat="44.68272" lon="6.97247">
        <ele>2684</ele>
        <time>2020-08-03T07:56:02Z</time>
      </trkpt>
      <trkpt lat="44.68257" lon="6.97238">
        <ele>2690</ele>
        <time>2020-08-03T07:56:23Z</time>
      </trkpt>
      <trkpt lat="44.6824" lon="6.97223">
        <ele>2695</ele>
        <time>2020-08-03T07:56:46Z</time>
      </trkpt>
      <trkpt lat="44.68226" lon="6.9721">
        <ele>2699</ele>
        <time>2020-08-03T07:57:07Z</time>
      </trkpt>
      <trkpt lat="44.68213" lon="6.97197">
        <ele>2703</ele>
        <time>2020-08-03T07:57:25Z</time>
      </trkpt>
      <trkpt lat="44.68201" lon="6.97179">
        <ele>2705</ele>
        <time>2020-08-03T07:57:48Z</time>
      </trkpt>
      <trkpt lat="44.68201" lon="6.97176">
        <ele>2704</ele>
        <time>2020-08-03T07:57:50Z</time>
      </trkpt>
      <trkpt lat="44.68189" lon="6.97156">
        <ele>2706</ele>
        <time>2020-08-03T07:58:08Z</time>
      </trkpt>
      <trkpt lat="44.68187" lon="6.97155">
        <ele>2707</ele>
        <time>2020-08-03T07:58:10Z</time>
      </trkpt>
      <trkpt lat="44.68183" lon="6.97146">
        <ele>2708</ele>
        <time>2020-08-03T07:58:19Z</time>
      </trkpt>
      <trkpt lat="44.68184" lon="6.97138">
        <ele>2706</ele>
        <time>2020-08-03T07:58:26Z</time>
      </trkpt>
      <trkpt lat="44.68179" lon="6.97111">
        <ele>2705</ele>
        <time>2020-08-03T07:58:47Z</time>
      </trkpt>
      <trkpt lat="44.68177" lon="6.97099">
        <ele>2706</ele>
        <time>2020-08-03T07:58:59Z</time>
      </trkpt>
      <trkpt lat="44.68173" lon="6.97079">
        <ele>2707</ele>
        <time>2020-08-03T07:59:15Z</time>
      </trkpt>
      <trkpt lat="44.68165" lon="6.97069">
        <ele>2711</ele>
        <time>2020-08-03T07:59:32Z</time>
      </trkpt>
      <trkpt lat="44.68159" lon="6.97056">
        <ele>2715</ele>
        <time>2020-08-03T07:59:48Z</time>
      </trkpt>
      <trkpt lat="44.68158" lon="6.97056">
        <ele>2715</ele>
        <time>2020-08-03T07:59:49Z</time>
      </trkpt>
      <trkpt lat="44.68139" lon="6.97006">
        <ele>2727</ele>
        <time>2020-08-03T08:00:58Z</time>
      </trkpt>
      <trkpt lat="44.68139" lon="6.96988">
        <ele>2727</ele>
        <time>2020-08-03T08:01:12Z</time>
      </trkpt>
      <trkpt lat="44.68138" lon="6.96976">
        <ele>2729</ele>
        <time>2020-08-03T08:01:22Z</time>
      </trkpt>
      <trkpt lat="44.68142" lon="6.9696">
        <ele>2727</ele>
        <time>2020-08-03T08:01:27Z</time>
      </trkpt>
      <trkpt lat="44.68145" lon="6.96953">
        <ele>2726</ele>
        <time>2020-08-03T08:01:29Z</time>
      </trkpt>
      <trkpt lat="44.68144" lon="6.96933">
        <ele>2727</ele>
        <time>2020-08-03T08:01:33Z</time>
      </trkpt>
      <trkpt lat="44.68141" lon="6.96912">
        <ele>2729</ele>
        <time>2020-08-03T08:01:45Z</time>
      </trkpt>
      <trkpt lat="44.68133" lon="6.96885">
        <ele>2732</ele>
        <time>2020-08-03T08:02:06Z</time>
      </trkpt>
      <trkpt lat="44.68129" lon="6.96866">
        <ele>2733</ele>
        <time>2020-08-03T08:02:25Z</time>
      </trkpt>
      <trkpt lat="44.68129" lon="6.96837">
        <ele>2731</ele>
        <time>2020-08-03T08:02:47Z</time>
      </trkpt>
      <trkpt lat="44.68129" lon="6.96834">
        <ele>2731</ele>
        <time>2020-08-03T08:02:49Z</time>
      </trkpt>
      <trkpt lat="44.68129" lon="6.9681">
        <ele>2731</ele>
        <time>2020-08-03T08:03:04Z</time>
      </trkpt>
      <trkpt lat="44.68127" lon="6.96793">
        <ele>2733</ele>
        <time>2020-08-03T08:03:22Z</time>
      </trkpt>
      <trkpt lat="44.68124" lon="6.96772">
        <ele>2735</ele>
        <time>2020-08-03T08:03:41Z</time>
      </trkpt>
      <trkpt lat="44.68121" lon="6.96746">
        <ele>2738</ele>
        <time>2020-08-03T08:04:00Z</time>
      </trkpt>
      <trkpt lat="44.68118" lon="6.96722">
        <ele>2742</ele>
        <time>2020-08-03T08:04:19Z</time>
      </trkpt>
      <trkpt lat="44.68117" lon="6.9672">
        <ele>2742</ele>
        <time>2020-08-03T08:04:22Z</time>
      </trkpt>
      <trkpt lat="44.68113" lon="6.96682">
        <ele>2747</ele>
        <time>2020-08-03T08:05:10Z</time>
      </trkpt>
      <trkpt lat="44.68112" lon="6.9665">
        <ele>2748</ele>
        <time>2020-08-03T08:05:32Z</time>
      </trkpt>
      <trkpt lat="44.68109" lon="6.96644">
        <ele>2749</ele>
        <time>2020-08-03T08:05:40Z</time>
      </trkpt>
      <trkpt lat="44.68103" lon="6.96633">
        <ele>2753</ele>
        <time>2020-08-03T08:06:00Z</time>
      </trkpt>
      <trkpt lat="44.68103" lon="6.96631">
        <ele>2753</ele>
        <time>2020-08-03T08:06:01Z</time>
      </trkpt>
      <trkpt lat="44.68104" lon="6.96626">
        <ele>2753</ele>
        <time>2020-08-03T08:06:04Z</time>
      </trkpt>
      <trkpt lat="44.68096" lon="6.96606">
        <ele>2759</ele>
        <time>2020-08-03T08:06:26Z</time>
      </trkpt>
      <trkpt lat="44.68095" lon="6.96605">
        <ele>2759</ele>
        <time>2020-08-03T08:06:27Z</time>
      </trkpt>
      <trkpt lat="44.68096" lon="6.96585">
        <ele>2760</ele>
        <time>2020-08-03T08:06:48Z</time>
      </trkpt>
      <trkpt lat="44.681" lon="6.96576">
        <ele>2759</ele>
        <time>2020-08-03T08:06:52Z</time>
      </trkpt>
      <trkpt lat="44.68103" lon="6.96566">
        <ele>2759</ele>
        <time>2020-08-03T08:06:55Z</time>
      </trkpt>
      <trkpt lat="44.68108" lon="6.96545">
        <ele>2758</ele>
        <time>2020-08-03T08:07:05Z</time>
      </trkpt>
      <trkpt lat="44.68108" lon="6.96544">
        <ele>2759</ele>
        <time>2020-08-03T08:07:06Z</time>
      </trkpt>
      <trkpt lat="44.68111" lon="6.96505">
        <ele>2764</ele>
        <time>2020-08-03T08:07:43Z</time>
      </trkpt>
      <trkpt lat="44.68111" lon="6.965">
        <ele>2764</ele>
        <time>2020-08-03T08:07:47Z</time>
      </trkpt>
      <trkpt lat="44.68109" lon="6.96488">
        <ele>2768</ele>
        <time>2020-08-03T08:08:00Z</time>
      </trkpt>
      <trkpt lat="44.68119" lon="6.96428">
        <ele>2777</ele>
        <time>2020-08-03T08:10:32Z</time>
      </trkpt>
      <trkpt lat="44.68125" lon="6.9641">
        <ele>2779</ele>
        <time>2020-08-03T08:10:45Z</time>
      </trkpt>
      <trkpt lat="44.68127" lon="6.96384">
        <ele>2784</ele>
        <time>2020-08-03T08:11:01Z</time>
      </trkpt>
      <trkpt lat="44.68133" lon="6.96367">
        <ele>2784</ele>
        <time>2020-08-03T08:11:19Z</time>
      </trkpt>
      <trkpt lat="44.68136" lon="6.96358">
        <ele>2784</ele>
        <time>2020-08-03T08:11:29Z</time>
      </trkpt>
      <trkpt lat="44.6814" lon="6.96342">
        <ele>2787</ele>
        <time>2020-08-03T08:11:46Z</time>
      </trkpt>
      <trkpt lat="44.68143" lon="6.96336">
        <ele>2788</ele>
        <time>2020-08-03T08:11:55Z</time>
      </trkpt>
      <trkpt lat="44.68145" lon="6.96332">
        <ele>2788</ele>
        <time>2020-08-03T08:12:01Z</time>
      </trkpt>
      <trkpt lat="44.68138" lon="6.96315">
        <ele>2796</ele>
        <time>2020-08-03T08:14:31Z</time>
      </trkpt>
      <trkpt lat="44.68139" lon="6.96314">
        <ele>2796</ele>
        <time>2020-08-03T08:14:33Z</time>
      </trkpt>
      <trkpt lat="44.68142" lon="6.96308">
        <ele>2797</ele>
        <time>2020-08-03T08:14:39Z</time>
      </trkpt>
      <trkpt lat="44.68146" lon="6.96306">
        <ele>2796</ele>
        <time>2020-08-03T08:14:43Z</time>
      </trkpt>
      <trkpt lat="44.68147" lon="6.96302">
        <ele>2797</ele>
        <time>2020-08-03T08:14:46Z</time>
      </trkpt>
      <trkpt lat="44.6815" lon="6.96285">
        <ele>2801</ele>
        <time>2020-08-03T08:15:01Z</time>
      </trkpt>
      <trkpt lat="44.68151" lon="6.96283">
        <ele>2801</ele>
        <time>2020-08-03T08:15:06Z</time>
      </trkpt>
      <trkpt lat="44.6815" lon="6.96244">
        <ele>2814</ele>
        <time>2020-08-03T08:16:21Z</time>
      </trkpt>
      <trkpt lat="44.68145" lon="6.96246">
        <ele>2816</ele>
        <time>2020-08-03T08:16:29Z</time>
      </trkpt>
      <trkpt lat="44.6814" lon="6.96145">
        <ele>2845</ele>
        <time>2020-08-03T08:19:51Z</time>
      </trkpt>
      <trkpt lat="44.68141" lon="6.96142">
        <ele>2845</ele>
        <time>2020-08-03T08:19:55Z</time>
      </trkpt>
      <trkpt lat="44.68141" lon="6.96132">
        <ele>2848</ele>
        <time>2020-08-03T08:20:04Z</time>
      </trkpt>
      <trkpt lat="44.68148" lon="6.96104">
        <ele>2854</ele>
        <time>2020-08-03T08:20:33Z</time>
      </trkpt>
      <trkpt lat="44.68157" lon="6.96097">
        <ele>2854</ele>
        <time>2020-08-03T08:20:46Z</time>
      </trkpt>
      <trkpt lat="44.68158" lon="6.96092">
        <ele>2855</ele>
        <time>2020-08-03T08:20:53Z</time>
      </trkpt>
      <trkpt lat="44.68154" lon="6.96019">
        <ele>2869</ele>
        <time>2020-08-03T08:22:20Z</time>
      </trkpt>
      <trkpt lat="44.68158" lon="6.95988">
        <ele>2875</ele>
        <time>2020-08-03T08:22:32Z</time>
      </trkpt>
      <trkpt lat="44.68159" lon="6.95976">
        <ele>2876</ele>
        <time>2020-08-03T08:22:37Z</time>
      </trkpt>
      <trkpt lat="44.68158" lon="6.95963">
        <ele>2878</ele>
        <time>2020-08-03T08:22:43Z</time>
      </trkpt>
      <trkpt lat="44.68158" lon="6.9593">
        <ele>2880</ele>
        <time>2020-08-03T08:22:59Z</time>
      </trkpt>
      <trkpt lat="44.68157" lon="6.95921">
        <ele>2880</ele>
        <time>2020-08-03T08:23:03Z</time>
      </trkpt>
      <trkpt lat="44.68149" lon="6.95913">
        <ele>2879</ele>
        <time>2020-08-03T08:23:09Z</time>
      </trkpt>
      <trkpt lat="44.68146" lon="6.95902">
        <ele>2877</ele>
        <time>2020-08-03T08:23:20Z</time>
      </trkpt>
      <trkpt lat="44.68142" lon="6.95891">
        <ele>2875</ele>
        <time>2020-08-03T08:35:01Z</time>
      </trkpt>
      <trkpt lat="44.68138" lon="6.95887">
        <ele>2875</ele>
        <time>2020-08-03T08:35:02Z</time>
      </trkpt>
      <trkpt lat="44.68118" lon="6.95869">
        <ele>2876</ele>
        <time>2020-08-03T08:35:06Z</time>
      </trkpt>
      <trkpt lat="44.68092" lon="6.95848">
        <ele>2878</ele>
        <time>2020-08-03T08:35:11Z</time>
      </trkpt>
      <trkpt lat="44.68072" lon="6.95831">
        <ele>2877</ele>
        <time>2020-08-03T08:35:15Z</time>
      </trkpt>
      <trkpt lat="44.68067" lon="6.95827">
        <ele>2876</ele>
        <time>2020-08-03T08:35:16Z</time>
      </trkpt>
      <trkpt lat="44.68022" lon="6.958">
        <ele>2870</ele>
        <time>2020-08-03T08:35:25Z</time>
      </trkpt>
      <trkpt lat="44.68017" lon="6.95798">
        <ele>2870</ele>
        <time>2020-08-03T08:35:26Z</time>
      </trkpt>
      <trkpt lat="44.68005" lon="6.95792">
        <ele>2869</ele>
        <time>2020-08-03T08:35:29Z</time>
      </trkpt>
      <trkpt lat="44.67989" lon="6.95789">
        <ele>2869</ele>
        <time>2020-08-03T08:35:33Z</time>
      </trkpt>
      <trkpt lat="44.67981" lon="6.95785">
        <ele>2869</ele>
        <time>2020-08-03T08:35:36Z</time>
      </trkpt>
      <trkpt lat="44.67967" lon="6.95778">
        <ele>2868</ele>
        <time>2020-08-03T08:35:41Z</time>
      </trkpt>
      <trkpt lat="44.67955" lon="6.95777">
        <ele>2868</ele>
        <time>2020-08-03T08:35:48Z</time>
      </trkpt>
      <trkpt lat="44.67947" lon="6.95778">
        <ele>2869</ele>
        <time>2020-08-03T08:36:03Z</time>
      </trkpt>
      <trkpt lat="44.67939" lon="6.9578">
        <ele>2870</ele>
        <time>2020-08-03T08:36:08Z</time>
      </trkpt>
      <trkpt lat="44.6792" lon="6.95778">
        <ele>2869</ele>
        <time>2020-08-03T08:36:14Z</time>
      </trkpt>
      <trkpt lat="44.67904" lon="6.95769">
        <ele>2865</ele>
        <time>2020-08-03T08:36:22Z</time>
      </trkpt>
      <trkpt lat="44.6789" lon="6.95774">
        <ele>2866</ele>
        <time>2020-08-03T08:36:27Z</time>
      </trkpt>
      <trkpt lat="44.67865" lon="6.95776">
        <ele>2867</ele>
        <time>2020-08-03T08:36:36Z</time>
      </trkpt>
      <trkpt lat="44.67854" lon="6.95772">
        <ele>2866</ele>
        <time>2020-08-03T08:36:40Z</time>
      </trkpt>
      <trkpt lat="44.67828" lon="6.95755">
        <ele>2860</ele>
        <time>2020-08-03T08:36:50Z</time>
      </trkpt>
      <trkpt lat="44.67827" lon="6.95754">
        <ele>2859</ele>
        <time>2020-08-03T08:36:53Z</time>
      </trkpt>
      <trkpt lat="44.67818" lon="6.95745">
        <ele>2857</ele>
        <time>2020-08-03T08:38:25Z</time>
      </trkpt>
      <trkpt lat="44.67809" lon="6.95738">
        <ele>2857</ele>
        <time>2020-08-03T08:38:30Z</time>
      </trkpt>
      <trkpt lat="44.67795" lon="6.95735">
        <ele>2858</ele>
        <time>2020-08-03T08:38:34Z</time>
      </trkpt>
      <trkpt lat="44.67788" lon="6.95731">
        <ele>2859</ele>
        <time>2020-08-03T08:38:37Z</time>
      </trkpt>
      <trkpt lat="44.67773" lon="6.95726">
        <ele>2859</ele>
        <time>2020-08-03T08:38:43Z</time>
      </trkpt>
      <trkpt lat="44.67765" lon="6.95723">
        <ele>2859</ele>
        <time>2020-08-03T08:38:47Z</time>
      </trkpt>
      <trkpt lat="44.67759" lon="6.9572">
        <ele>2858</ele>
        <time>2020-08-03T08:38:49Z</time>
      </trkpt>
      <trkpt lat="44.67745" lon="6.95727">
        <ele>2859</ele>
        <time>2020-08-03T08:38:55Z</time>
      </trkpt>
      <trkpt lat="44.67741" lon="6.95729">
        <ele>2860</ele>
        <time>2020-08-03T08:39:01Z</time>
      </trkpt>
      <trkpt lat="44.67711" lon="6.95737">
        <ele>2862</ele>
        <time>2020-08-03T08:39:57Z</time>
      </trkpt>
      <trkpt lat="44.67702" lon="6.9574">
        <ele>2862</ele>
        <time>2020-08-03T08:40:00Z</time>
      </trkpt>
      <trkpt lat="44.67679" lon="6.9575">
        <ele>2863</ele>
        <time>2020-08-03T08:40:07Z</time>
      </trkpt>
      <trkpt lat="44.67658" lon="6.95758">
        <ele>2862</ele>
        <time>2020-08-03T08:40:13Z</time>
      </trkpt>
      <trkpt lat="44.67624" lon="6.95768">
        <ele>2861</ele>
        <time>2020-08-03T08:40:23Z</time>
      </trkpt>
      <trkpt lat="44.67622" lon="6.95772">
        <ele>2862</ele>
        <time>2020-08-03T08:40:26Z</time>
      </trkpt>
      <trkpt lat="44.67599" lon="6.95775">
        <ele>2858</ele>
        <time>2020-08-03T08:40:34Z</time>
      </trkpt>
      <trkpt lat="44.67578" lon="6.95775">
        <ele>2853</ele>
        <time>2020-08-03T08:40:43Z</time>
      </trkpt>
      <trkpt lat="44.67574" lon="6.95779">
        <ele>2853</ele>
        <time>2020-08-03T08:40:45Z</time>
      </trkpt>
      <trkpt lat="44.67559" lon="6.95779">
        <ele>2849</ele>
        <time>2020-08-03T08:40:50Z</time>
      </trkpt>
      <trkpt lat="44.67556" lon="6.95778">
        <ele>2848</ele>
        <time>2020-08-03T08:40:51Z</time>
      </trkpt>
      <trkpt lat="44.67524" lon="6.95784">
        <ele>2849</ele>
        <time>2020-08-03T08:40:59Z</time>
      </trkpt>
      <trkpt lat="44.67511" lon="6.9579">
        <ele>2850</ele>
        <time>2020-08-03T08:41:04Z</time>
      </trkpt>
      <trkpt lat="44.67483" lon="6.95799">
        <ele>2851</ele>
        <time>2020-08-03T08:41:13Z</time>
      </trkpt>
      <trkpt lat="44.6747" lon="6.95812">
        <ele>2854</ele>
        <time>2020-08-03T08:41:18Z</time>
      </trkpt>
      <trkpt lat="44.6746" lon="6.9582">
        <ele>2855</ele>
        <time>2020-08-03T08:41:25Z</time>
      </trkpt>
      <trkpt lat="44.6746" lon="6.9582">
        <ele>2855</ele>
        <time>2020-08-03T08:41:26Z</time>
      </trkpt>
      <trkpt lat="44.6744" lon="6.95833">
        <ele>2857</ele>
        <time>2020-08-03T08:42:01Z</time>
      </trkpt>
      <trkpt lat="44.67431" lon="6.95837">
        <ele>2856</ele>
        <time>2020-08-03T08:42:15Z</time>
      </trkpt>
      <trkpt lat="44.67422" lon="6.95841">
        <ele>2856</ele>
        <time>2020-08-03T08:42:25Z</time>
      </trkpt>
      <trkpt lat="44.67406" lon="6.95849">
        <ele>2857</ele>
        <time>2020-08-03T08:42:45Z</time>
      </trkpt>
      <trkpt lat="44.67384" lon="6.95866">
        <ele>2860</ele>
        <time>2020-08-03T08:43:08Z</time>
      </trkpt>
      <trkpt lat="44.67382" lon="6.95868">
        <ele>2860</ele>
        <time>2020-08-03T08:43:14Z</time>
      </trkpt>
      <trkpt lat="44.67376" lon="6.95871">
        <ele>2859</ele>
        <time>2020-08-03T08:46:28Z</time>
      </trkpt>
      <trkpt lat="44.67355" lon="6.95878">
        <ele>2856</ele>
        <time>2020-08-03T08:46:35Z</time>
      </trkpt>
      <trkpt lat="44.67326" lon="6.95882">
        <ele>2853</ele>
        <time>2020-08-03T08:46:45Z</time>
      </trkpt>
      <trkpt lat="44.67318" lon="6.95878">
        <ele>2852</ele>
        <time>2020-08-03T08:46:48Z</time>
      </trkpt>
      <trkpt lat="44.67294" lon="6.95856">
        <ele>2848</ele>
        <time>2020-08-03T08:46:56Z</time>
      </trkpt>
      <trkpt lat="44.67281" lon="6.95853">
        <ele>2847</ele>
        <time>2020-08-03T08:47:01Z</time>
      </trkpt>
      <trkpt lat="44.67273" lon="6.95849">
        <ele>2846</ele>
        <time>2020-08-03T08:47:04Z</time>
      </trkpt>
      <trkpt lat="44.67267" lon="6.95841">
        <ele>2845</ele>
        <time>2020-08-03T08:47:06Z</time>
      </trkpt>
      <trkpt lat="44.67245" lon="6.95824">
        <ele>2843</ele>
        <time>2020-08-03T08:47:13Z</time>
      </trkpt>
      <trkpt lat="44.67245" lon="6.9582">
        <ele>2843</ele>
        <time>2020-08-03T08:47:14Z</time>
      </trkpt>
      <trkpt lat="44.67243" lon="6.95814">
        <ele>2843</ele>
        <time>2020-08-03T08:47:19Z</time>
      </trkpt>
      <trkpt lat="44.67243" lon="6.95802">
        <ele>2842</ele>
        <time>2020-08-03T08:49:58Z</time>
      </trkpt>
      <trkpt lat="44.67242" lon="6.95798">
        <ele>2842</ele>
        <time>2020-08-03T08:49:59Z</time>
      </trkpt>
      <trkpt lat="44.67241" lon="6.95757">
        <ele>2837</ele>
        <time>2020-08-03T08:50:07Z</time>
      </trkpt>
      <trkpt lat="44.67245" lon="6.95742">
        <ele>2835</ele>
        <time>2020-08-03T08:50:11Z</time>
      </trkpt>
      <trkpt lat="44.67246" lon="6.95715">
        <ele>2829</ele>
        <time>2020-08-03T08:50:16Z</time>
      </trkpt>
      <trkpt lat="44.67253" lon="6.95696">
        <ele>2826</ele>
        <time>2020-08-03T08:50:20Z</time>
      </trkpt>
      <trkpt lat="44.67255" lon="6.95691">
        <ele>2825</ele>
        <time>2020-08-03T08:50:21Z</time>
      </trkpt>
      <trkpt lat="44.67261" lon="6.95666">
        <ele>2821</ele>
        <time>2020-08-03T08:50:26Z</time>
      </trkpt>
      <trkpt lat="44.6726" lon="6.95628">
        <ele>2815</ele>
        <time>2020-08-03T08:50:32Z</time>
      </trkpt>
      <trkpt lat="44.67264" lon="6.95597">
        <ele>2810</ele>
        <time>2020-08-03T08:50:38Z</time>
      </trkpt>
      <trkpt lat="44.67268" lon="6.95588">
        <ele>2808</ele>
        <time>2020-08-03T08:50:42Z</time>
      </trkpt>
      <trkpt lat="44.67265" lon="6.95567">
        <ele>2804</ele>
        <time>2020-08-03T08:50:48Z</time>
      </trkpt>
      <trkpt lat="44.67269" lon="6.95561">
        <ele>2803</ele>
        <time>2020-08-03T08:50:51Z</time>
      </trkpt>
      <trkpt lat="44.67273" lon="6.95561">
        <ele>2803</ele>
        <time>2020-08-03T08:50:55Z</time>
      </trkpt>
      <trkpt lat="44.67273" lon="6.95561">
        <ele>2803</ele>
        <time>2020-08-03T08:50:59Z</time>
      </trkpt>
      <trkpt lat="44.67275" lon="6.95552">
        <ele>2801</ele>
        <time>2020-08-03T08:51:09Z</time>
      </trkpt>
      <trkpt lat="44.67275" lon="6.95549">
        <ele>2800</ele>
        <time>2020-08-03T08:51:10Z</time>
      </trkpt>
      <trkpt lat="44.67274" lon="6.95541">
        <ele>2798</ele>
        <time>2020-08-03T08:51:12Z</time>
      </trkpt>
      <trkpt lat="44.67278" lon="6.9553">
        <ele>2795</ele>
        <time>2020-08-03T08:51:19Z</time>
      </trkpt>
      <trkpt lat="44.67281" lon="6.95529">
        <ele>2794</ele>
        <time>2020-08-03T08:51:20Z</time>
      </trkpt>
      <trkpt lat="44.67286" lon="6.95515">
        <ele>2790</ele>
        <time>2020-08-03T08:51:23Z</time>
      </trkpt>
      <trkpt lat="44.6729" lon="6.95502">
        <ele>2787</ele>
        <time>2020-08-03T08:51:25Z</time>
      </trkpt>
      <trkpt lat="44.67298" lon="6.95474">
        <ele>2781</ele>
        <time>2020-08-03T08:51:31Z</time>
      </trkpt>
      <trkpt lat="44.67295" lon="6.95461">
        <ele>2779</ele>
        <time>2020-08-03T08:51:34Z</time>
      </trkpt>
      <trkpt lat="44.67299" lon="6.95443">
        <ele>2776</ele>
        <time>2020-08-03T08:51:39Z</time>
      </trkpt>
      <trkpt lat="44.67297" lon="6.95421">
        <ele>2774</ele>
        <time>2020-08-03T08:51:44Z</time>
      </trkpt>
      <trkpt lat="44.67298" lon="6.954">
        <ele>2772</ele>
        <time>2020-08-03T08:51:49Z</time>
      </trkpt>
      <trkpt lat="44.673" lon="6.95389">
        <ele>2771</ele>
        <time>2020-08-03T08:51:52Z</time>
      </trkpt>
      <trkpt lat="44.67312" lon="6.95376">
        <ele>2769</ele>
        <time>2020-08-03T08:51:56Z</time>
      </trkpt>
      <trkpt lat="44.67317" lon="6.95371">
        <ele>2768</ele>
        <time>2020-08-03T08:51:59Z</time>
      </trkpt>
      <trkpt lat="44.67324" lon="6.95351">
        <ele>2764</ele>
        <time>2020-08-03T08:52:08Z</time>
      </trkpt>
      <trkpt lat="44.6733" lon="6.95344">
        <ele>2763</ele>
        <time>2020-08-03T08:52:12Z</time>
      </trkpt>
      <trkpt lat="44.67338" lon="6.95323">
        <ele>2758</ele>
        <time>2020-08-03T08:52:20Z</time>
      </trkpt>
      <trkpt lat="44.67353" lon="6.95301">
        <ele>2754</ele>
        <time>2020-08-03T08:52:25Z</time>
      </trkpt>
      <trkpt lat="44.67367" lon="6.95278">
        <ele>2750</ele>
        <time>2020-08-03T08:52:30Z</time>
      </trkpt>
      <trkpt lat="44.67375" lon="6.95245">
        <ele>2743</ele>
        <time>2020-08-03T08:52:36Z</time>
      </trkpt>
      <trkpt lat="44.67376" lon="6.95241">
        <ele>2743</ele>
        <time>2020-08-03T08:52:37Z</time>
      </trkpt>
      <trkpt lat="44.67378" lon="6.95238">
        <ele>2742</ele>
        <time>2020-08-03T08:52:43Z</time>
      </trkpt>
      <trkpt lat="44.67377" lon="6.95225">
        <ele>2741</ele>
        <time>2020-08-03T08:53:10Z</time>
      </trkpt>
      <trkpt lat="44.67381" lon="6.9521">
        <ele>2739</ele>
        <time>2020-08-03T08:53:13Z</time>
      </trkpt>
      <trkpt lat="44.67387" lon="6.95203">
        <ele>2738</ele>
        <time>2020-08-03T08:53:15Z</time>
      </trkpt>
      <trkpt lat="44.67392" lon="6.95197">
        <ele>2737</ele>
        <time>2020-08-03T08:53:20Z</time>
      </trkpt>
      <trkpt lat="44.67388" lon="6.95184">
        <ele>2735</ele>
        <time>2020-08-03T08:53:26Z</time>
      </trkpt>
      <trkpt lat="44.67388" lon="6.95182">
        <ele>2734</ele>
        <time>2020-08-03T08:53:27Z</time>
      </trkpt>
      <trkpt lat="44.67388" lon="6.95166">
        <ele>2731</ele>
        <time>2020-08-03T08:53:34Z</time>
      </trkpt>
      <trkpt lat="44.674" lon="6.95152">
        <ele>2728</ele>
        <time>2020-08-03T08:53:40Z</time>
      </trkpt>
      <trkpt lat="44.67411" lon="6.95122">
        <ele>2721</ele>
        <time>2020-08-03T08:53:47Z</time>
      </trkpt>
      <trkpt lat="44.67409" lon="6.95103">
        <ele>2717</ele>
        <time>2020-08-03T08:53:51Z</time>
      </trkpt>
      <trkpt lat="44.67412" lon="6.95082">
        <ele>2712</ele>
        <time>2020-08-03T08:53:55Z</time>
      </trkpt>
      <trkpt lat="44.67415" lon="6.95071">
        <ele>2709</ele>
        <time>2020-08-03T08:53:58Z</time>
      </trkpt>
      <trkpt lat="44.67412" lon="6.95066">
        <ele>2707</ele>
        <time>2020-08-03T08:54:01Z</time>
      </trkpt>
      <trkpt lat="44.67406" lon="6.95058">
        <ele>2705</ele>
        <time>2020-08-03T08:54:05Z</time>
      </trkpt>
      <trkpt lat="44.67406" lon="6.95056">
        <ele>2704</ele>
        <time>2020-08-03T08:54:07Z</time>
      </trkpt>
      <trkpt lat="44.6741" lon="6.9505">
        <ele>2702</ele>
        <time>2020-08-03T08:54:10Z</time>
      </trkpt>
      <trkpt lat="44.67415" lon="6.9504">
        <ele>2700</ele>
        <time>2020-08-03T08:54:13Z</time>
      </trkpt>
      <trkpt lat="44.67424" lon="6.95024">
        <ele>2696</ele>
        <time>2020-08-03T08:54:19Z</time>
      </trkpt>
      <trkpt lat="44.67419" lon="6.9502">
        <ele>2694</ele>
        <time>2020-08-03T08:54:21Z</time>
      </trkpt>
      <trkpt lat="44.67424" lon="6.95007">
        <ele>2690</ele>
        <time>2020-08-03T08:54:25Z</time>
      </trkpt>
      <trkpt lat="44.67424" lon="6.95">
        <ele>2689</ele>
        <time>2020-08-03T08:54:26Z</time>
      </trkpt>
      <trkpt lat="44.67427" lon="6.94978">
        <ele>2683</ele>
        <time>2020-08-03T08:54:29Z</time>
      </trkpt>
      <trkpt lat="44.67428" lon="6.94961">
        <ele>2680</ele>
        <time>2020-08-03T08:54:33Z</time>
      </trkpt>
      <trkpt lat="44.67427" lon="6.9496">
        <ele>2680</ele>
        <time>2020-08-03T08:54:37Z</time>
      </trkpt>
      <trkpt lat="44.67427" lon="6.9496">
        <ele>2680</ele>
        <time>2020-08-03T08:54:38Z</time>
      </trkpt>
      <trkpt lat="44.67426" lon="6.94947">
        <ele>2678</ele>
        <time>2020-08-03T08:55:12Z</time>
      </trkpt>
      <trkpt lat="44.67426" lon="6.94937">
        <ele>2676</ele>
        <time>2020-08-03T08:55:14Z</time>
      </trkpt>
      <trkpt lat="44.67449" lon="6.94877">
        <ele>2669</ele>
        <time>2020-08-03T08:55:22Z</time>
      </trkpt>
      <trkpt lat="44.67463" lon="6.94872">
        <ele>2669</ele>
        <time>2020-08-03T08:55:26Z</time>
      </trkpt>
      <trkpt lat="44.67462" lon="6.94863">
        <ele>2667</ele>
        <time>2020-08-03T08:55:29Z</time>
      </trkpt>
      <trkpt lat="44.67472" lon="6.94852">
        <ele>2666</ele>
        <time>2020-08-03T08:55:35Z</time>
      </trkpt>
      <trkpt lat="44.67477" lon="6.94848">
        <ele>2667</ele>
        <time>2020-08-03T08:55:39Z</time>
      </trkpt>
      <trkpt lat="44.67478" lon="6.94846">
        <ele>2667</ele>
        <time>2020-08-03T08:55:40Z</time>
      </trkpt>
      <trkpt lat="44.6748" lon="6.94843">
        <ele>2667</ele>
        <time>2020-08-03T08:55:43Z</time>
      </trkpt>
      <trkpt lat="44.67481" lon="6.9483">
        <ele>2666</ele>
        <time>2020-08-03T08:55:47Z</time>
      </trkpt>
      <trkpt lat="44.67485" lon="6.9481">
        <ele>2665</ele>
        <time>2020-08-03T08:55:51Z</time>
      </trkpt>
      <trkpt lat="44.67486" lon="6.94769">
        <ele>2661</ele>
        <time>2020-08-03T08:55:57Z</time>
      </trkpt>
      <trkpt lat="44.67491" lon="6.94735">
        <ele>2659</ele>
        <time>2020-08-03T08:56:02Z</time>
      </trkpt>
      <trkpt lat="44.67492" lon="6.94692">
        <ele>2657</ele>
        <time>2020-08-03T08:56:09Z</time>
      </trkpt>
      <trkpt lat="44.67489" lon="6.94662">
        <ele>2653</ele>
        <time>2020-08-03T08:56:15Z</time>
      </trkpt>
      <trkpt lat="44.67487" lon="6.94657">
        <ele>2651</ele>
        <time>2020-08-03T08:56:16Z</time>
      </trkpt>
      <trkpt lat="44.67488" lon="6.94644">
        <ele>2649</ele>
        <time>2020-08-03T08:56:20Z</time>
      </trkpt>
      <trkpt lat="44.67489" lon="6.94625">
        <ele>2645</ele>
        <time>2020-08-03T08:56:25Z</time>
      </trkpt>
      <trkpt lat="44.67485" lon="6.94603">
        <ele>2640</ele>
        <time>2020-08-03T08:56:30Z</time>
      </trkpt>
      <trkpt lat="44.67484" lon="6.94597">
        <ele>2638</ele>
        <time>2020-08-03T08:56:31Z</time>
      </trkpt>
      <trkpt lat="44.67482" lon="6.94581">
        <ele>2634</ele>
        <time>2020-08-03T08:56:33Z</time>
      </trkpt>
      <trkpt lat="44.67477" lon="6.94554">
        <ele>2628</ele>
        <time>2020-08-03T08:56:37Z</time>
      </trkpt>
      <trkpt lat="44.67474" lon="6.94539">
        <ele>2626</ele>
        <time>2020-08-03T08:56:40Z</time>
      </trkpt>
      <trkpt lat="44.67473" lon="6.94529">
        <ele>2624</ele>
        <time>2020-08-03T08:56:42Z</time>
      </trkpt>
      <trkpt lat="44.67472" lon="6.94522">
        <ele>2623</ele>
        <time>2020-08-03T08:56:44Z</time>
      </trkpt>
      <trkpt lat="44.6747" lon="6.94514">
        <ele>2621</ele>
        <time>2020-08-03T08:56:46Z</time>
      </trkpt>
      <trkpt lat="44.67462" lon="6.94476">
        <ele>2614</ele>
        <time>2020-08-03T08:56:52Z</time>
      </trkpt>
      <trkpt lat="44.67467" lon="6.94448">
        <ele>2609</ele>
        <time>2020-08-03T08:56:57Z</time>
      </trkpt>
      <trkpt lat="44.67478" lon="6.94447">
        <ele>2612</ele>
        <time>2020-08-03T08:57:00Z</time>
      </trkpt>
      <trkpt lat="44.67483" lon="6.94442">
        <ele>2612</ele>
        <time>2020-08-03T08:57:02Z</time>
      </trkpt>
      <trkpt lat="44.67484" lon="6.94433">
        <ele>2609</ele>
        <time>2020-08-03T08:57:05Z</time>
      </trkpt>
      <trkpt lat="44.67484" lon="6.94414">
        <ele>2604</ele>
        <time>2020-08-03T08:57:10Z</time>
      </trkpt>
      <trkpt lat="44.6748" lon="6.94387">
        <ele>2598</ele>
        <time>2020-08-03T08:57:14Z</time>
      </trkpt>
      <trkpt lat="44.6748" lon="6.94352">
        <ele>2594</ele>
        <time>2020-08-03T08:57:19Z</time>
      </trkpt>
      <trkpt lat="44.67473" lon="6.94321">
        <ele>2588</ele>
        <time>2020-08-03T08:57:24Z</time>
      </trkpt>
      <trkpt lat="44.67469" lon="6.94306">
        <ele>2585</ele>
        <time>2020-08-03T08:57:28Z</time>
      </trkpt>
      <trkpt lat="44.67467" lon="6.94299">
        <ele>2584</ele>
        <time>2020-08-03T08:57:31Z</time>
      </trkpt>
      <trkpt lat="44.67468" lon="6.94296">
        <ele>2583</ele>
        <time>2020-08-03T08:57:33Z</time>
      </trkpt>
      <trkpt lat="44.67481" lon="6.94277">
        <ele>2584</ele>
        <time>2020-08-03T08:57:40Z</time>
      </trkpt>
      <trkpt lat="44.67481" lon="6.94269">
        <ele>2582</ele>
        <time>2020-08-03T08:57:42Z</time>
      </trkpt>
      <trkpt lat="44.67486" lon="6.9423">
        <ele>2575</ele>
        <time>2020-08-03T08:57:48Z</time>
      </trkpt>
      <trkpt lat="44.67489" lon="6.94193">
        <ele>2570</ele>
        <time>2020-08-03T08:57:55Z</time>
      </trkpt>
      <trkpt lat="44.67495" lon="6.94173">
        <ele>2570</ele>
        <time>2020-08-03T08:58:01Z</time>
      </trkpt>
      <trkpt lat="44.67497" lon="6.94169">
        <ele>2570</ele>
        <time>2020-08-03T08:58:02Z</time>
      </trkpt>
      <trkpt lat="44.67502" lon="6.94151">
        <ele>2568</ele>
        <time>2020-08-03T08:58:05Z</time>
      </trkpt>
      <trkpt lat="44.67507" lon="6.94116">
        <ele>2563</ele>
        <time>2020-08-03T08:58:12Z</time>
      </trkpt>
      <trkpt lat="44.67508" lon="6.94092">
        <ele>2559</ele>
        <time>2020-08-03T08:58:21Z</time>
      </trkpt>
      <trkpt lat="44.67512" lon="6.94067">
        <ele>2558</ele>
        <time>2020-08-03T08:58:26Z</time>
      </trkpt>
      <trkpt lat="44.67519" lon="6.94023">
        <ele>2554</ele>
        <time>2020-08-03T08:58:35Z</time>
      </trkpt>
      <trkpt lat="44.6752" lon="6.94002">
        <ele>2551</ele>
        <time>2020-08-03T08:58:39Z</time>
      </trkpt>
      <trkpt lat="44.67521" lon="6.93993">
        <ele>2549</ele>
        <time>2020-08-03T08:58:42Z</time>
      </trkpt>
      <trkpt lat="44.6752" lon="6.93994">
        <ele>2549</ele>
        <time>2020-08-03T08:58:48Z</time>
      </trkpt>
      <trkpt lat="44.67525" lon="6.93989">
        <ele>2549</ele>
        <time>2020-08-03T08:59:27Z</time>
      </trkpt>
      <trkpt lat="44.67527" lon="6.93983">
        <ele>2548</ele>
        <time>2020-08-03T08:59:29Z</time>
      </trkpt>
      <trkpt lat="44.67527" lon="6.93977">
        <ele>2546</ele>
        <time>2020-08-03T08:59:35Z</time>
      </trkpt>
      <trkpt lat="44.67533" lon="6.93949">
        <ele>2546</ele>
        <time>2020-08-03T08:59:46Z</time>
      </trkpt>
      <trkpt lat="44.67539" lon="6.93914">
        <ele>2545</ele>
        <time>2020-08-03T08:59:59Z</time>
      </trkpt>
      <trkpt lat="44.67541" lon="6.93904">
        <ele>2543</ele>
        <time>2020-08-03T09:00:01Z</time>
      </trkpt>
      <trkpt lat="44.67551" lon="6.93867">
        <ele>2540</ele>
        <time>2020-08-03T09:00:06Z</time>
      </trkpt>
      <trkpt lat="44.67552" lon="6.93853">
        <ele>2537</ele>
        <time>2020-08-03T09:00:08Z</time>
      </trkpt>
      <trkpt lat="44.67552" lon="6.93824">
        <ele>2531</ele>
        <time>2020-08-03T09:00:12Z</time>
      </trkpt>
      <trkpt lat="44.67555" lon="6.93796">
        <ele>2528</ele>
        <time>2020-08-03T09:00:15Z</time>
      </trkpt>
      <trkpt lat="44.67564" lon="6.93736">
        <ele>2521</ele>
        <time>2020-08-03T09:00:21Z</time>
      </trkpt>
      <trkpt lat="44.67564" lon="6.93723">
        <ele>2520</ele>
        <time>2020-08-03T09:00:23Z</time>
      </trkpt>
      <trkpt lat="44.6757" lon="6.93706">
        <ele>2519</ele>
        <time>2020-08-03T09:00:27Z</time>
      </trkpt>
      <trkpt lat="44.67572" lon="6.93686">
        <ele>2518</ele>
        <time>2020-08-03T09:00:31Z</time>
      </trkpt>
      <trkpt lat="44.6757" lon="6.93678">
        <ele>2517</ele>
        <time>2020-08-03T09:00:32Z</time>
      </trkpt>
      <trkpt lat="44.67572" lon="6.93649">
        <ele>2515</ele>
        <time>2020-08-03T09:00:36Z</time>
      </trkpt>
      <trkpt lat="44.67583" lon="6.93615">
        <ele>2512</ele>
        <time>2020-08-03T09:00:42Z</time>
      </trkpt>
      <trkpt lat="44.67586" lon="6.93607">
        <ele>2511</ele>
        <time>2020-08-03T09:00:44Z</time>
      </trkpt>
      <trkpt lat="44.67603" lon="6.93573">
        <ele>2507</ele>
        <time>2020-08-03T09:00:50Z</time>
      </trkpt>
      <trkpt lat="44.67615" lon="6.93547">
        <ele>2502</ele>
        <time>2020-08-03T09:00:54Z</time>
      </trkpt>
      <trkpt lat="44.6762" lon="6.93516">
        <ele>2499</ele>
        <time>2020-08-03T09:00:58Z</time>
      </trkpt>
      <trkpt lat="44.67619" lon="6.935">
        <ele>2498</ele>
        <time>2020-08-03T09:01:00Z</time>
      </trkpt>
      <trkpt lat="44.67621" lon="6.93468">
        <ele>2496</ele>
        <time>2020-08-03T09:01:06Z</time>
      </trkpt>
      <trkpt lat="44.67624" lon="6.93465">
        <ele>2496</ele>
        <time>2020-08-03T09:01:08Z</time>
      </trkpt>
      <trkpt lat="44.67627" lon="6.93457">
        <ele>2496</ele>
        <time>2020-08-03T09:01:12Z</time>
      </trkpt>
      <trkpt lat="44.67627" lon="6.93453">
        <ele>2496</ele>
        <time>2020-08-03T09:01:14Z</time>
      </trkpt>
      <trkpt lat="44.67624" lon="6.93422">
        <ele>2495</ele>
        <time>2020-08-03T09:01:27Z</time>
      </trkpt>
      <trkpt lat="44.67621" lon="6.93393">
        <ele>2492</ele>
        <time>2020-08-03T09:01:37Z</time>
      </trkpt>
      <trkpt lat="44.67626" lon="6.93359">
        <ele>2490</ele>
        <time>2020-08-03T09:01:42Z</time>
      </trkpt>
      <trkpt lat="44.67642" lon="6.93311">
        <ele>2489</ele>
        <time>2020-08-03T09:01:49Z</time>
      </trkpt>
      <trkpt lat="44.67648" lon="6.93285">
        <ele>2487</ele>
        <time>2020-08-03T09:01:55Z</time>
      </trkpt>
      <trkpt lat="44.67649" lon="6.93285">
        <ele>2487</ele>
        <time>2020-08-03T09:01:57Z</time>
      </trkpt>
      <trkpt lat="44.67649" lon="6.93285">
        <ele>2487</ele>
        <time>2020-08-03T09:01:59Z</time>
      </trkpt>
      <trkpt lat="44.67651" lon="6.93276">
        <ele>2486</ele>
        <time>2020-08-03T09:02:15Z</time>
      </trkpt>
      <trkpt lat="44.67661" lon="6.93261">
        <ele>2484</ele>
        <time>2020-08-03T09:02:21Z</time>
      </trkpt>
      <trkpt lat="44.67662" lon="6.9326">
        <ele>2484</ele>
        <time>2020-08-03T09:02:22Z</time>
      </trkpt>
      <trkpt lat="44.67665" lon="6.93255">
        <ele>2482</ele>
        <time>2020-08-03T09:02:29Z</time>
      </trkpt>
      <trkpt lat="44.67666" lon="6.93252">
        <ele>2482</ele>
        <time>2020-08-03T09:02:31Z</time>
      </trkpt>
      <trkpt lat="44.67674" lon="6.93233">
        <ele>2476</ele>
        <time>2020-08-03T09:02:36Z</time>
      </trkpt>
      <trkpt lat="44.6768" lon="6.93214">
        <ele>2472</ele>
        <time>2020-08-03T09:02:39Z</time>
      </trkpt>
      <trkpt lat="44.67693" lon="6.93174">
        <ele>2465</ele>
        <time>2020-08-03T09:02:44Z</time>
      </trkpt>
      <trkpt lat="44.677" lon="6.93149">
        <ele>2460</ele>
        <time>2020-08-03T09:02:47Z</time>
      </trkpt>
      <trkpt lat="44.67706" lon="6.93122">
        <ele>2457</ele>
        <time>2020-08-03T09:02:50Z</time>
      </trkpt>
      <trkpt lat="44.67711" lon="6.931">
        <ele>2456</ele>
        <time>2020-08-03T09:02:53Z</time>
      </trkpt>
      <trkpt lat="44.67708" lon="6.93087">
        <ele>2454</ele>
        <time>2020-08-03T09:02:56Z</time>
      </trkpt>
      <trkpt lat="44.67702" lon="6.93072">
        <ele>2452</ele>
        <time>2020-08-03T09:03:00Z</time>
      </trkpt>
      <trkpt lat="44.677" lon="6.93056">
        <ele>2451</ele>
        <time>2020-08-03T09:03:04Z</time>
      </trkpt>
      <trkpt lat="44.67691" lon="6.93037">
        <ele>2449</ele>
        <time>2020-08-03T09:03:11Z</time>
      </trkpt>
      <trkpt lat="44.67688" lon="6.93036">
        <ele>2448</ele>
        <time>2020-08-03T09:03:17Z</time>
      </trkpt>
      <trkpt lat="44.67681" lon="6.93025">
        <ele>2446</ele>
        <time>2020-08-03T09:03:28Z</time>
      </trkpt>
      <trkpt lat="44.67669" lon="6.92989">
        <ele>2442</ele>
        <time>2020-08-03T09:03:35Z</time>
      </trkpt>
      <trkpt lat="44.67661" lon="6.92973">
        <ele>2439</ele>
        <time>2020-08-03T09:03:39Z</time>
      </trkpt>
      <trkpt lat="44.67656" lon="6.92949">
        <ele>2438</ele>
        <time>2020-08-03T09:03:45Z</time>
      </trkpt>
      <trkpt lat="44.67657" lon="6.92941">
        <ele>2438</ele>
        <time>2020-08-03T09:03:47Z</time>
      </trkpt>
      <trkpt lat="44.67651" lon="6.92921">
        <ele>2436</ele>
        <time>2020-08-03T09:03:51Z</time>
      </trkpt>
      <trkpt lat="44.67648" lon="6.929">
        <ele>2435</ele>
        <time>2020-08-03T09:03:57Z</time>
      </trkpt>
      <trkpt lat="44.67639" lon="6.92886">
        <ele>2431</ele>
        <time>2020-08-03T09:04:01Z</time>
      </trkpt>
      <trkpt lat="44.67628" lon="6.92868">
        <ele>2428</ele>
        <time>2020-08-03T09:04:10Z</time>
      </trkpt>
      <trkpt lat="44.67628" lon="6.92868">
        <ele>2428</ele>
        <time>2020-08-03T09:04:12Z</time>
      </trkpt>
      <trkpt lat="44.67626" lon="6.92867">
        <ele>2428</ele>
        <time>2020-08-03T09:05:15Z</time>
      </trkpt>
      <trkpt lat="44.67626" lon="6.92867">
        <ele>2428</ele>
        <time>2020-08-03T09:05:17Z</time>
      </trkpt>
      <trkpt lat="44.67618" lon="6.92857">
        <ele>2426</ele>
        <time>2020-08-03T09:06:07Z</time>
      </trkpt>
      <trkpt lat="44.67601" lon="6.92818">
        <ele>2420</ele>
        <time>2020-08-03T09:06:13Z</time>
      </trkpt>
      <trkpt lat="44.67599" lon="6.92809">
        <ele>2419</ele>
        <time>2020-08-03T09:06:14Z</time>
      </trkpt>
      <trkpt lat="44.67595" lon="6.92782">
        <ele>2416</ele>
        <time>2020-08-03T09:06:19Z</time>
      </trkpt>
      <trkpt lat="44.67595" lon="6.92779">
        <ele>2416</ele>
        <time>2020-08-03T09:06:20Z</time>
      </trkpt>
      <trkpt lat="44.67596" lon="6.9277">
        <ele>2415</ele>
        <time>2020-08-03T09:06:24Z</time>
      </trkpt>
      <trkpt lat="44.67595" lon="6.92764">
        <ele>2414</ele>
        <time>2020-08-03T09:06:27Z</time>
      </trkpt>
      <trkpt lat="44.67589" lon="6.92729">
        <ele>2409</ele>
        <time>2020-08-03T09:06:37Z</time>
      </trkpt>
      <trkpt lat="44.67588" lon="6.92728">
        <ele>2409</ele>
        <time>2020-08-03T09:06:39Z</time>
      </trkpt>
      <trkpt lat="44.67586" lon="6.92708">
        <ele>2406</ele>
        <time>2020-08-03T09:06:43Z</time>
      </trkpt>
      <trkpt lat="44.67584" lon="6.9268">
        <ele>2403</ele>
        <time>2020-08-03T09:06:47Z</time>
      </trkpt>
      <trkpt lat="44.67581" lon="6.92633">
        <ele>2398</ele>
        <time>2020-08-03T09:06:52Z</time>
      </trkpt>
      <trkpt lat="44.67586" lon="6.92594">
        <ele>2398</ele>
        <time>2020-08-03T09:06:57Z</time>
      </trkpt>
      <trkpt lat="44.67586" lon="6.9259">
        <ele>2398</ele>
        <time>2020-08-03T09:06:58Z</time>
      </trkpt>
      <trkpt lat="44.67593" lon="6.92563">
        <ele>2396</ele>
        <time>2020-08-03T09:07:04Z</time>
      </trkpt>
      <trkpt lat="44.67596" lon="6.92497">
        <ele>2383</ele>
        <time>2020-08-03T09:07:14Z</time>
      </trkpt>
      <trkpt lat="44.67598" lon="6.92489">
        <ele>2381</ele>
        <time>2020-08-03T09:07:17Z</time>
      </trkpt>
      <trkpt lat="44.67603" lon="6.9248">
        <ele>2380</ele>
        <time>2020-08-03T09:07:19Z</time>
      </trkpt>
      <trkpt lat="44.67604" lon="6.92458">
        <ele>2376</ele>
        <time>2020-08-03T09:07:25Z</time>
      </trkpt>
      <trkpt lat="44.67604" lon="6.9244">
        <ele>2374</ele>
        <time>2020-08-03T09:07:28Z</time>
      </trkpt>
      <trkpt lat="44.67605" lon="6.92419">
        <ele>2373</ele>
        <time>2020-08-03T09:07:33Z</time>
      </trkpt>
      <trkpt lat="44.67593" lon="6.92416">
        <ele>2370</ele>
        <time>2020-08-03T09:07:36Z</time>
      </trkpt>
      <trkpt lat="44.67574" lon="6.92396">
        <ele>2365</ele>
        <time>2020-08-03T09:07:41Z</time>
      </trkpt>
      <trkpt lat="44.67571" lon="6.92377">
        <ele>2364</ele>
        <time>2020-08-03T09:07:46Z</time>
      </trkpt>
      <trkpt lat="44.67574" lon="6.92366">
        <ele>2365</ele>
        <time>2020-08-03T09:07:51Z</time>
      </trkpt>
      <trkpt lat="44.67578" lon="6.92357">
        <ele>2366</ele>
        <time>2020-08-03T09:08:00Z</time>
      </trkpt>
      <trkpt lat="44.67581" lon="6.9235">
        <ele>2366</ele>
        <time>2020-08-03T09:08:26Z</time>
      </trkpt>
      <trkpt lat="44.67584" lon="6.92343">
        <ele>2366</ele>
        <time>2020-08-03T09:08:28Z</time>
      </trkpt>
      <trkpt lat="44.67594" lon="6.92331">
        <ele>2366</ele>
        <time>2020-08-03T09:08:32Z</time>
      </trkpt>
      <trkpt lat="44.67629" lon="6.92322">
        <ele>2371</ele>
        <time>2020-08-03T09:08:43Z</time>
      </trkpt>
      <trkpt lat="44.67631" lon="6.92314">
        <ele>2371</ele>
        <time>2020-08-03T09:08:46Z</time>
      </trkpt>
      <trkpt lat="44.67631" lon="6.92298">
        <ele>2368</ele>
        <time>2020-08-03T09:08:51Z</time>
      </trkpt>
      <trkpt lat="44.6764" lon="6.92286">
        <ele>2368</ele>
        <time>2020-08-03T09:09:07Z</time>
      </trkpt>
      <trkpt lat="44.67644" lon="6.92283">
        <ele>2369</ele>
        <time>2020-08-03T09:09:11Z</time>
      </trkpt>
      <trkpt lat="44.67649" lon="6.92275">
        <ele>2369</ele>
        <time>2020-08-03T09:09:17Z</time>
      </trkpt>
      <trkpt lat="44.67653" lon="6.9225">
        <ele>2367</ele>
        <time>2020-08-03T09:09:25Z</time>
      </trkpt>
      <trkpt lat="44.67664" lon="6.92223">
        <ele>2369</ele>
        <time>2020-08-03T09:09:34Z</time>
      </trkpt>
      <trkpt lat="44.67677" lon="6.92204">
        <ele>2368</ele>
        <time>2020-08-03T09:09:39Z</time>
      </trkpt>
      <trkpt lat="44.67703" lon="6.92182">
        <ele>2369</ele>
        <time>2020-08-03T09:09:46Z</time>
      </trkpt>
      <trkpt lat="44.67716" lon="6.9218">
        <ele>2372</ele>
        <time>2020-08-03T09:09:49Z</time>
      </trkpt>
      <trkpt lat="44.67734" lon="6.92166">
        <ele>2375</ele>
        <time>2020-08-03T09:09:54Z</time>
      </trkpt>
      <trkpt lat="44.67747" lon="6.92154">
        <ele>2377</ele>
        <time>2020-08-03T09:09:58Z</time>
      </trkpt>
      <trkpt lat="44.67752" lon="6.9211">
        <ele>2369</ele>
        <time>2020-08-03T09:10:07Z</time>
      </trkpt>
      <trkpt lat="44.6776" lon="6.92075">
        <ele>2368</ele>
        <time>2020-08-03T09:10:14Z</time>
      </trkpt>
      <trkpt lat="44.67768" lon="6.92061">
        <ele>2368</ele>
        <time>2020-08-03T09:10:17Z</time>
      </trkpt>
      <trkpt lat="44.6778" lon="6.92035">
        <ele>2367</ele>
        <time>2020-08-03T09:10:25Z</time>
      </trkpt>
      <trkpt lat="44.67787" lon="6.92028">
        <ele>2368</ele>
        <time>2020-08-03T09:10:28Z</time>
      </trkpt>
      <trkpt lat="44.67791" lon="6.91999">
        <ele>2363</ele>
        <time>2020-08-03T09:10:33Z</time>
      </trkpt>
      <trkpt lat="44.67804" lon="6.91975">
        <ele>2362</ele>
        <time>2020-08-03T09:10:38Z</time>
      </trkpt>
      <trkpt lat="44.67833" lon="6.9194">
        <ele>2362</ele>
        <time>2020-08-03T09:10:46Z</time>
      </trkpt>
      <trkpt lat="44.67842" lon="6.91919">
        <ele>2360</ele>
        <time>2020-08-03T09:10:50Z</time>
      </trkpt>
      <trkpt lat="44.67854" lon="6.91885">
        <ele>2355</ele>
        <time>2020-08-03T09:10:56Z</time>
      </trkpt>
      <trkpt lat="44.67866" lon="6.91866">
        <ele>2354</ele>
        <time>2020-08-03T09:11:01Z</time>
      </trkpt>
      <trkpt lat="44.67878" lon="6.91849">
        <ele>2355</ele>
        <time>2020-08-03T09:11:06Z</time>
      </trkpt>
      <trkpt lat="44.67885" lon="6.91835">
        <ele>2355</ele>
        <time>2020-08-03T09:11:10Z</time>
      </trkpt>
      <trkpt lat="44.67896" lon="6.91817">
        <ele>2357</ele>
        <time>2020-08-03T09:11:14Z</time>
      </trkpt>
      <trkpt lat="44.67919" lon="6.91756">
        <ele>2356</ele>
        <time>2020-08-03T09:11:26Z</time>
      </trkpt>
      <trkpt lat="44.67932" lon="6.91721">
        <ele>2355</ele>
        <time>2020-08-03T09:11:33Z</time>
      </trkpt>
      <trkpt lat="44.67945" lon="6.917">
        <ele>2356</ele>
        <time>2020-08-03T09:11:37Z</time>
      </trkpt>
      <trkpt lat="44.6795" lon="6.91677">
        <ele>2355</ele>
        <time>2020-08-03T09:11:41Z</time>
      </trkpt>
      <trkpt lat="44.67966" lon="6.91659">
        <ele>2361</ele>
        <time>2020-08-03T09:11:47Z</time>
      </trkpt>
      <trkpt lat="44.67973" lon="6.9164">
        <ele>2364</ele>
        <time>2020-08-03T09:11:55Z</time>
      </trkpt>
      <trkpt lat="44.67971" lon="6.91613">
        <ele>2360</ele>
        <time>2020-08-03T09:12:05Z</time>
      </trkpt>
      <trkpt lat="44.67971" lon="6.91613">
        <ele>2360</ele>
        <time>2020-08-03T09:12:06Z</time>
      </trkpt>
      <trkpt lat="44.67972" lon="6.91608">
        <ele>2360</ele>
        <time>2020-08-03T09:13:41Z</time>
      </trkpt>
      <trkpt lat="44.67971" lon="6.91599">
        <ele>2359</ele>
        <time>2020-08-03T09:13:43Z</time>
      </trkpt>
      <trkpt lat="44.67969" lon="6.91582">
        <ele>2355</ele>
        <time>2020-08-03T09:13:46Z</time>
      </trkpt>
      <trkpt lat="44.67972" lon="6.91547">
        <ele>2350</ele>
        <time>2020-08-03T09:13:55Z</time>
      </trkpt>
      <trkpt lat="44.67978" lon="6.91533">
        <ele>2351</ele>
        <time>2020-08-03T09:13:58Z</time>
      </trkpt>
      <trkpt lat="44.67995" lon="6.91506">
        <ele>2356</ele>
        <time>2020-08-03T09:14:03Z</time>
      </trkpt>
      <trkpt lat="44.67996" lon="6.91473">
        <ele>2357</ele>
        <time>2020-08-03T09:14:09Z</time>
      </trkpt>
      <trkpt lat="44.67995" lon="6.91465">
        <ele>2357</ele>
        <time>2020-08-03T09:14:11Z</time>
      </trkpt>
      <trkpt lat="44.67991" lon="6.9143">
        <ele>2359</ele>
        <time>2020-08-03T09:14:20Z</time>
      </trkpt>
      <trkpt lat="44.67986" lon="6.91408">
        <ele>2356</ele>
        <time>2020-08-03T09:14:25Z</time>
      </trkpt>
      <trkpt lat="44.67982" lon="6.91379">
        <ele>2355</ele>
        <time>2020-08-03T09:14:30Z</time>
      </trkpt>
      <trkpt lat="44.67978" lon="6.91362">
        <ele>2353</ele>
        <time>2020-08-03T09:14:33Z</time>
      </trkpt>
      <trkpt lat="44.67974" lon="6.91344">
        <ele>2351</ele>
        <time>2020-08-03T09:14:37Z</time>
      </trkpt>
      <trkpt lat="44.6797" lon="6.91298">
        <ele>2347</ele>
        <time>2020-08-03T09:14:48Z</time>
      </trkpt>
      <trkpt lat="44.67972" lon="6.91269">
        <ele>2353</ele>
        <time>2020-08-03T09:14:56Z</time>
      </trkpt>
      <trkpt lat="44.67971" lon="6.91252">
        <ele>2357</ele>
        <time>2020-08-03T09:15:01Z</time>
      </trkpt>
      <trkpt lat="44.67967" lon="6.91223">
        <ele>2358</ele>
        <time>2020-08-03T09:15:08Z</time>
      </trkpt>
      <trkpt lat="44.67963" lon="6.91196">
        <ele>2357</ele>
        <time>2020-08-03T09:15:14Z</time>
      </trkpt>
      <trkpt lat="44.67955" lon="6.91168">
        <ele>2347</ele>
        <time>2020-08-03T09:15:21Z</time>
      </trkpt>
      <trkpt lat="44.67951" lon="6.91146">
        <ele>2344</ele>
        <time>2020-08-03T09:15:25Z</time>
      </trkpt>
      <trkpt lat="44.67951" lon="6.91128">
        <ele>2344</ele>
        <time>2020-08-03T09:15:28Z</time>
      </trkpt>
      <trkpt lat="44.67952" lon="6.91091">
        <ele>2348</ele>
        <time>2020-08-03T09:15:36Z</time>
      </trkpt>
      <trkpt lat="44.67953" lon="6.91069">
        <ele>2349</ele>
        <time>2020-08-03T09:15:42Z</time>
      </trkpt>
      <trkpt lat="44.67955" lon="6.91056">
        <ele>2350</ele>
        <time>2020-08-03T09:15:45Z</time>
      </trkpt>
      <trkpt lat="44.67956" lon="6.91043">
        <ele>2348</ele>
        <time>2020-08-03T09:15:47Z</time>
      </trkpt>
      <trkpt lat="44.67956" lon="6.9101">
        <ele>2344</ele>
        <time>2020-08-03T09:15:53Z</time>
      </trkpt>
      <trkpt lat="44.67952" lon="6.90989">
        <ele>2342</ele>
        <time>2020-08-03T09:15:56Z</time>
      </trkpt>
      <trkpt lat="44.67945" lon="6.90949">
        <ele>2340</ele>
        <time>2020-08-03T09:16:01Z</time>
      </trkpt>
      <trkpt lat="44.67941" lon="6.90933">
        <ele>2340</ele>
        <time>2020-08-03T09:16:04Z</time>
      </trkpt>
      <trkpt lat="44.67934" lon="6.90909">
        <ele>2337</ele>
        <time>2020-08-03T09:16:10Z</time>
      </trkpt>
      <trkpt lat="44.67939" lon="6.90863">
        <ele>2335</ele>
        <time>2020-08-03T09:16:21Z</time>
      </trkpt>
      <trkpt lat="44.67945" lon="6.90848">
        <ele>2335</ele>
        <time>2020-08-03T09:16:25Z</time>
      </trkpt>
      <trkpt lat="44.67944" lon="6.90826">
        <ele>2332</ele>
        <time>2020-08-03T09:16:28Z</time>
      </trkpt>
      <trkpt lat="44.67941" lon="6.90777">
        <ele>2330</ele>
        <time>2020-08-03T09:16:37Z</time>
      </trkpt>
      <trkpt lat="44.67939" lon="6.90761">
        <ele>2332</ele>
        <time>2020-08-03T09:16:40Z</time>
      </trkpt>
      <trkpt lat="44.67934" lon="6.90727">
        <ele>2333</ele>
        <time>2020-08-03T09:16:47Z</time>
      </trkpt>
      <trkpt lat="44.67941" lon="6.90696">
        <ele>2335</ele>
        <time>2020-08-03T09:16:58Z</time>
      </trkpt>
      <trkpt lat="44.67973" lon="6.90673">
        <ele>2336</ele>
        <time>2020-08-03T09:17:09Z</time>
      </trkpt>
      <trkpt lat="44.67988" lon="6.9066">
        <ele>2337</ele>
        <time>2020-08-03T09:17:16Z</time>
      </trkpt>
      <trkpt lat="44.67986" lon="6.90628">
        <ele>2334</ele>
        <time>2020-08-03T09:17:30Z</time>
      </trkpt>
      <trkpt lat="44.67987" lon="6.90594">
        <ele>2334</ele>
        <time>2020-08-03T09:17:41Z</time>
      </trkpt>
      <trkpt lat="44.67994" lon="6.9056">
        <ele>2335</ele>
        <time>2020-08-03T09:17:52Z</time>
      </trkpt>
      <trkpt lat="44.67991" lon="6.9055">
        <ele>2335</ele>
        <time>2020-08-03T09:17:56Z</time>
      </trkpt>
      <trkpt lat="44.67978" lon="6.90497">
        <ele>2331</ele>
        <time>2020-08-03T09:18:09Z</time>
      </trkpt>
      <trkpt lat="44.67978" lon="6.90436">
        <ele>2330</ele>
        <time>2020-08-03T09:18:21Z</time>
      </trkpt>
      <trkpt lat="44.67983" lon="6.9041">
        <ele>2331</ele>
        <time>2020-08-03T09:18:26Z</time>
      </trkpt>
      <trkpt lat="44.68008" lon="6.90362">
        <ele>2332</ele>
        <time>2020-08-03T09:18:37Z</time>
      </trkpt>
      <trkpt lat="44.68017" lon="6.90351">
        <ele>2331</ele>
        <time>2020-08-03T09:18:40Z</time>
      </trkpt>
      <trkpt lat="44.68033" lon="6.9035">
        <ele>2332</ele>
        <time>2020-08-03T09:18:44Z</time>
      </trkpt>
      <trkpt lat="44.68041" lon="6.90349">
        <ele>2333</ele>
        <time>2020-08-03T09:18:46Z</time>
      </trkpt>
      <trkpt lat="44.68069" lon="6.9034">
        <ele>2334</ele>
        <time>2020-08-03T09:18:53Z</time>
      </trkpt>
      <trkpt lat="44.68079" lon="6.90322">
        <ele>2333</ele>
        <time>2020-08-03T09:18:57Z</time>
      </trkpt>
      <trkpt lat="44.68085" lon="6.90313">
        <ele>2333</ele>
        <time>2020-08-03T09:18:59Z</time>
      </trkpt>
      <trkpt lat="44.68114" lon="6.9028">
        <ele>2334</ele>
        <time>2020-08-03T09:19:08Z</time>
      </trkpt>
      <trkpt lat="44.68122" lon="6.90267">
        <ele>2334</ele>
        <time>2020-08-03T09:19:13Z</time>
      </trkpt>
      <trkpt lat="44.68124" lon="6.90255">
        <ele>2334</ele>
        <time>2020-08-03T09:19:18Z</time>
      </trkpt>
      <trkpt lat="44.6812" lon="6.90234">
        <ele>2333</ele>
        <time>2020-08-03T09:19:25Z</time>
      </trkpt>
      <trkpt lat="44.68091" lon="6.90212">
        <ele>2330</ele>
        <time>2020-08-03T09:19:35Z</time>
      </trkpt>
      <trkpt lat="44.68073" lon="6.90169">
        <ele>2330</ele>
        <time>2020-08-03T09:19:46Z</time>
      </trkpt>
      <trkpt lat="44.68073" lon="6.90161">
        <ele>2329</ele>
        <time>2020-08-03T09:19:54Z</time>
      </trkpt>
      <trkpt lat="44.68076" lon="6.90156">
        <ele>2329</ele>
        <time>2020-08-03T09:20:56Z</time>
      </trkpt>
      <trkpt lat="44.68095" lon="6.90121">
        <ele>2334</ele>
        <time>2020-08-03T09:21:12Z</time>
      </trkpt>
      <trkpt lat="44.68111" lon="6.90105">
        <ele>2340</ele>
        <time>2020-08-03T09:21:22Z</time>
      </trkpt>
      <trkpt lat="44.68113" lon="6.901">
        <ele>2341</ele>
        <time>2020-08-03T09:21:24Z</time>
      </trkpt>
      <trkpt lat="44.68113" lon="6.90096">
        <ele>2341</ele>
        <time>2020-08-03T09:21:25Z</time>
      </trkpt>
      <trkpt lat="44.68113" lon="6.90093">
        <ele>2341</ele>
        <time>2020-08-03T09:21:26Z</time>
      </trkpt>
      <trkpt lat="44.68114" lon="6.9009">
        <ele>2341</ele>
        <time>2020-08-03T09:21:27Z</time>
      </trkpt>
      <trkpt lat="44.68114" lon="6.90087">
        <ele>2341</ele>
        <time>2020-08-03T09:21:28Z</time>
      </trkpt>
      <trkpt lat="44.68114" lon="6.90083">
        <ele>2341</ele>
        <time>2020-08-03T09:21:29Z</time>
      </trkpt>
      <trkpt lat="44.68113" lon="6.90079">
        <ele>2341</ele>
        <time>2020-08-03T09:21:30Z</time>
      </trkpt>
      <trkpt lat="44.68113" lon="6.90075">
        <ele>2341</ele>
        <time>2020-08-03T09:21:31Z</time>
      </trkpt>
      <trkpt lat="44.68107" lon="6.90048">
        <ele>2340</ele>
        <time>2020-08-03T09:21:39Z</time>
      </trkpt>
      <trkpt lat="44.68107" lon="6.90046">
        <ele>2340</ele>
        <time>2020-08-03T09:21:40Z</time>
      </trkpt>
      <trkpt lat="44.68107" lon="6.90043">
        <ele>2340</ele>
        <time>2020-08-03T09:21:41Z</time>
      </trkpt>
      <trkpt lat="44.68107" lon="6.90041">
        <ele>2340</ele>
        <time>2020-08-03T09:21:42Z</time>
      </trkpt>
      <trkpt lat="44.68106" lon="6.90039">
        <ele>2339</ele>
        <time>2020-08-03T09:21:43Z</time>
      </trkpt>
      <trkpt lat="44.68104" lon="6.90037">
        <ele>2339</ele>
        <time>2020-08-03T09:21:44Z</time>
      </trkpt>
      <trkpt lat="44.68103" lon="6.90035">
        <ele>2339</ele>
        <time>2020-08-03T09:21:45Z</time>
      </trkpt>
      <trkpt lat="44.68103" lon="6.90033">
        <ele>2338</ele>
        <time>2020-08-03T09:21:46Z</time>
      </trkpt>
      <trkpt lat="44.68102" lon="6.9003">
        <ele>2338</ele>
        <time>2020-08-03T09:21:47Z</time>
      </trkpt>
      <trkpt lat="44.68081" lon="6.89987">
        <ele>2332</ele>
        <time>2020-08-03T09:21:59Z</time>
      </trkpt>
      <trkpt lat="44.6806" lon="6.89953">
        <ele>2329</ele>
        <time>2020-08-03T09:22:08Z</time>
      </trkpt>
      <trkpt lat="44.68028" lon="6.89923">
        <ele>2323</ele>
        <time>2020-08-03T09:22:16Z</time>
      </trkpt>
      <trkpt lat="44.68012" lon="6.89886">
        <ele>2322</ele>
        <time>2020-08-03T09:22:25Z</time>
      </trkpt>
      <trkpt lat="44.68008" lon="6.8986">
        <ele>2319</ele>
        <time>2020-08-03T09:22:29Z</time>
      </trkpt>
      <trkpt lat="44.68008" lon="6.89854">
        <ele>2319</ele>
        <time>2020-08-03T09:22:30Z</time>
      </trkpt>
      <trkpt lat="44.68008" lon="6.89848">
        <ele>2319</ele>
        <time>2020-08-03T09:22:31Z</time>
      </trkpt>
      <trkpt lat="44.68008" lon="6.89843">
        <ele>2318</ele>
        <time>2020-08-03T09:22:32Z</time>
      </trkpt>
      <trkpt lat="44.68006" lon="6.89839">
        <ele>2317</ele>
        <time>2020-08-03T09:22:33Z</time>
      </trkpt>
      <trkpt lat="44.68004" lon="6.89831">
        <ele>2316</ele>
        <time>2020-08-03T09:22:35Z</time>
      </trkpt>
      <trkpt lat="44.68003" lon="6.89826">
        <ele>2316</ele>
        <time>2020-08-03T09:22:36Z</time>
      </trkpt>
      <trkpt lat="44.68002" lon="6.89821">
        <ele>2315</ele>
        <time>2020-08-03T09:22:37Z</time>
      </trkpt>
      <trkpt lat="44.68002" lon="6.89815">
        <ele>2315</ele>
        <time>2020-08-03T09:22:38Z</time>
      </trkpt>
      <trkpt lat="44.68002" lon="6.8981">
        <ele>2315</ele>
        <time>2020-08-03T09:22:39Z</time>
      </trkpt>
      <trkpt lat="44.68002" lon="6.89806">
        <ele>2315</ele>
        <time>2020-08-03T09:22:40Z</time>
      </trkpt>
      <trkpt lat="44.68003" lon="6.89801">
        <ele>2315</ele>
        <time>2020-08-03T09:22:41Z</time>
      </trkpt>
      <trkpt lat="44.68007" lon="6.89778">
        <ele>2319</ele>
        <time>2020-08-03T09:22:46Z</time>
      </trkpt>
      <trkpt lat="44.68008" lon="6.89774">
        <ele>2320</ele>
        <time>2020-08-03T09:22:47Z</time>
      </trkpt>
      <trkpt lat="44.68008" lon="6.8977">
        <ele>2320</ele>
        <time>2020-08-03T09:22:48Z</time>
      </trkpt>
      <trkpt lat="44.68008" lon="6.89752">
        <ele>2322</ele>
        <time>2020-08-03T09:22:52Z</time>
      </trkpt>
      <trkpt lat="44.68007" lon="6.89747">
        <ele>2321</ele>
        <time>2020-08-03T09:22:53Z</time>
      </trkpt>
      <trkpt lat="44.68007" lon="6.89742">
        <ele>2321</ele>
        <time>2020-08-03T09:22:54Z</time>
      </trkpt>
      <trkpt lat="44.6801" lon="6.89723">
        <ele>2320</ele>
        <time>2020-08-03T09:22:58Z</time>
      </trkpt>
      <trkpt lat="44.68014" lon="6.89713">
        <ele>2319</ele>
        <time>2020-08-03T09:23:00Z</time>
      </trkpt>
      <trkpt lat="44.68017" lon="6.89708">
        <ele>2319</ele>
        <time>2020-08-03T09:23:01Z</time>
      </trkpt>
      <trkpt lat="44.68019" lon="6.89703">
        <ele>2319</ele>
        <time>2020-08-03T09:23:02Z</time>
      </trkpt>
      <trkpt lat="44.68021" lon="6.89698">
        <ele>2319</ele>
        <time>2020-08-03T09:23:03Z</time>
      </trkpt>
      <trkpt lat="44.68023" lon="6.89693">
        <ele>2319</ele>
        <time>2020-08-03T09:23:04Z</time>
      </trkpt>
      <trkpt lat="44.68025" lon="6.89689">
        <ele>2320</ele>
        <time>2020-08-03T09:23:05Z</time>
      </trkpt>
      <trkpt lat="44.68027" lon="6.89684">
        <ele>2320</ele>
        <time>2020-08-03T09:23:06Z</time>
      </trkpt>
      <trkpt lat="44.68029" lon="6.89679">
        <ele>2319</ele>
        <time>2020-08-03T09:23:07Z</time>
      </trkpt>
      <trkpt lat="44.68031" lon="6.89674">
        <ele>2319</ele>
        <time>2020-08-03T09:23:08Z</time>
      </trkpt>
      <trkpt lat="44.68033" lon="6.89669">
        <ele>2318</ele>
        <time>2020-08-03T09:23:09Z</time>
      </trkpt>
      <trkpt lat="44.68034" lon="6.89665">
        <ele>2318</ele>
        <time>2020-08-03T09:23:10Z</time>
      </trkpt>
      <trkpt lat="44.68037" lon="6.8966">
        <ele>2318</ele>
        <time>2020-08-03T09:23:11Z</time>
      </trkpt>
      <trkpt lat="44.6804" lon="6.89656">
        <ele>2317</ele>
        <time>2020-08-03T09:23:12Z</time>
      </trkpt>
      <trkpt lat="44.68049" lon="6.89643">
        <ele>2317</ele>
        <time>2020-08-03T09:23:15Z</time>
      </trkpt>
      <trkpt lat="44.68066" lon="6.89609">
        <ele>2316</ele>
        <time>2020-08-03T09:23:24Z</time>
      </trkpt>
      <trkpt lat="44.68069" lon="6.89607">
        <ele>2317</ele>
        <time>2020-08-03T09:23:25Z</time>
      </trkpt>
      <trkpt lat="44.68087" lon="6.896">
        <ele>2324</ele>
        <time>2020-08-03T09:23:29Z</time>
      </trkpt>
      <trkpt lat="44.68091" lon="6.89596">
        <ele>2325</ele>
        <time>2020-08-03T09:23:30Z</time>
      </trkpt>
      <trkpt lat="44.68094" lon="6.89593">
        <ele>2325</ele>
        <time>2020-08-03T09:23:31Z</time>
      </trkpt>
      <trkpt lat="44.68105" lon="6.89582">
        <ele>2325</ele>
        <time>2020-08-03T09:23:34Z</time>
      </trkpt>
      <trkpt lat="44.6811" lon="6.8958">
        <ele>2326</ele>
        <time>2020-08-03T09:23:35Z</time>
      </trkpt>
      <trkpt lat="44.68114" lon="6.89577">
        <ele>2326</ele>
        <time>2020-08-03T09:23:36Z</time>
      </trkpt>
      <trkpt lat="44.68117" lon="6.89573">
        <ele>2326</ele>
        <time>2020-08-03T09:23:37Z</time>
      </trkpt>
      <trkpt lat="44.6812" lon="6.89568">
        <ele>2325</ele>
        <time>2020-08-03T09:23:38Z</time>
      </trkpt>
      <trkpt lat="44.68123" lon="6.89564">
        <ele>2325</ele>
        <time>2020-08-03T09:23:39Z</time>
      </trkpt>
      <trkpt lat="44.68126" lon="6.89559">
        <ele>2324</ele>
        <time>2020-08-03T09:23:40Z</time>
      </trkpt>
      <trkpt lat="44.6813" lon="6.89556">
        <ele>2324</ele>
        <time>2020-08-03T09:23:41Z</time>
      </trkpt>
      <trkpt lat="44.68134" lon="6.89553">
        <ele>2325</ele>
        <time>2020-08-03T09:23:42Z</time>
      </trkpt>
      <trkpt lat="44.68138" lon="6.8955">
        <ele>2325</ele>
        <time>2020-08-03T09:23:43Z</time>
      </trkpt>
      <trkpt lat="44.68141" lon="6.89545">
        <ele>2324</ele>
        <time>2020-08-03T09:23:44Z</time>
      </trkpt>
      <trkpt lat="44.68145" lon="6.89541">
        <ele>2324</ele>
        <time>2020-08-03T09:23:45Z</time>
      </trkpt>
      <trkpt lat="44.68149" lon="6.89537">
        <ele>2324</ele>
        <time>2020-08-03T09:23:46Z</time>
      </trkpt>
      <trkpt lat="44.68152" lon="6.89533">
        <ele>2323</ele>
        <time>2020-08-03T09:23:47Z</time>
      </trkpt>
      <trkpt lat="44.68162" lon="6.89517">
        <ele>2323</ele>
        <time>2020-08-03T09:23:50Z</time>
      </trkpt>
      <trkpt lat="44.68173" lon="6.89504">
        <ele>2323</ele>
        <time>2020-08-03T09:23:53Z</time>
      </trkpt>
      <trkpt lat="44.68177" lon="6.895">
        <ele>2324</ele>
        <time>2020-08-03T09:23:54Z</time>
      </trkpt>
      <trkpt lat="44.68191" lon="6.89491">
        <ele>2326</ele>
        <time>2020-08-03T09:23:57Z</time>
      </trkpt>
      <trkpt lat="44.68195" lon="6.89486">
        <ele>2326</ele>
        <time>2020-08-03T09:23:58Z</time>
      </trkpt>
      <trkpt lat="44.68198" lon="6.8948">
        <ele>2325</ele>
        <time>2020-08-03T09:23:59Z</time>
      </trkpt>
      <trkpt lat="44.68201" lon="6.89475">
        <ele>2325</ele>
        <time>2020-08-03T09:24:00Z</time>
      </trkpt>
      <trkpt lat="44.68205" lon="6.89471">
        <ele>2325</ele>
        <time>2020-08-03T09:24:01Z</time>
      </trkpt>
      <trkpt lat="44.68209" lon="6.89467">
        <ele>2325</ele>
        <time>2020-08-03T09:24:02Z</time>
      </trkpt>
      <trkpt lat="44.68214" lon="6.89465">
        <ele>2325</ele>
        <time>2020-08-03T09:24:03Z</time>
      </trkpt>
      <trkpt lat="44.68219" lon="6.89462">
        <ele>2326</ele>
        <time>2020-08-03T09:24:04Z</time>
      </trkpt>
      <trkpt lat="44.68223" lon="6.89458">
        <ele>2326</ele>
        <time>2020-08-03T09:24:05Z</time>
      </trkpt>
      <trkpt lat="44.68228" lon="6.89456">
        <ele>2325</ele>
        <time>2020-08-03T09:24:06Z</time>
      </trkpt>
      <trkpt lat="44.68233" lon="6.89454">
        <ele>2326</ele>
        <time>2020-08-03T09:24:07Z</time>
      </trkpt>
      <trkpt lat="44.68243" lon="6.89451">
        <ele>2326</ele>
        <time>2020-08-03T09:24:09Z</time>
      </trkpt>
      <trkpt lat="44.68283" lon="6.89432">
        <ele>2320</ele>
        <time>2020-08-03T09:24:17Z</time>
      </trkpt>
      <trkpt lat="44.68287" lon="6.8943">
        <ele>2319</ele>
        <time>2020-08-03T09:24:18Z</time>
      </trkpt>
      <trkpt lat="44.68291" lon="6.8943">
        <ele>2318</ele>
        <time>2020-08-03T09:24:19Z</time>
      </trkpt>
      <trkpt lat="44.68296" lon="6.8943">
        <ele>2318</ele>
        <time>2020-08-03T09:24:20Z</time>
      </trkpt>
      <trkpt lat="44.683" lon="6.89431">
        <ele>2317</ele>
        <time>2020-08-03T09:24:21Z</time>
      </trkpt>
      <trkpt lat="44.68317" lon="6.89428">
        <ele>2315</ele>
        <time>2020-08-03T09:24:30Z</time>
      </trkpt>
      <trkpt lat="44.68337" lon="6.89428">
        <ele>2314</ele>
        <time>2020-08-03T09:24:39Z</time>
      </trkpt>
      <trkpt lat="44.68339" lon="6.8943">
        <ele>2314</ele>
        <time>2020-08-03T09:24:40Z</time>
      </trkpt>
      <trkpt lat="44.68371" lon="6.89444">
        <ele>2320</ele>
        <time>2020-08-03T09:24:51Z</time>
      </trkpt>
      <trkpt lat="44.68379" lon="6.89442">
        <ele>2321</ele>
        <time>2020-08-03T09:24:53Z</time>
      </trkpt>
      <trkpt lat="44.68383" lon="6.89441">
        <ele>2321</ele>
        <time>2020-08-03T09:24:54Z</time>
      </trkpt>
      <trkpt lat="44.68388" lon="6.89439">
        <ele>2321</ele>
        <time>2020-08-03T09:24:55Z</time>
      </trkpt>
      <trkpt lat="44.68392" lon="6.89437">
        <ele>2321</ele>
        <time>2020-08-03T09:24:56Z</time>
      </trkpt>
      <trkpt lat="44.68397" lon="6.89436">
        <ele>2321</ele>
        <time>2020-08-03T09:24:57Z</time>
      </trkpt>
      <trkpt lat="44.68403" lon="6.89436">
        <ele>2322</ele>
        <time>2020-08-03T09:24:58Z</time>
      </trkpt>
      <trkpt lat="44.68408" lon="6.89435">
        <ele>2322</ele>
        <time>2020-08-03T09:24:59Z</time>
      </trkpt>
      <trkpt lat="44.68413" lon="6.89432">
        <ele>2322</ele>
        <time>2020-08-03T09:25:00Z</time>
      </trkpt>
      <trkpt lat="44.68417" lon="6.89429">
        <ele>2322</ele>
        <time>2020-08-03T09:25:01Z</time>
      </trkpt>
      <trkpt lat="44.68422" lon="6.89427">
        <ele>2322</ele>
        <time>2020-08-03T09:25:02Z</time>
      </trkpt>
      <trkpt lat="44.68426" lon="6.89425">
        <ele>2321</ele>
        <time>2020-08-03T09:25:03Z</time>
      </trkpt>
      <trkpt lat="44.68431" lon="6.89424">
        <ele>2322</ele>
        <time>2020-08-03T09:25:04Z</time>
      </trkpt>
      <trkpt lat="44.68436" lon="6.89425">
        <ele>2322</ele>
        <time>2020-08-03T09:25:05Z</time>
      </trkpt>
      <trkpt lat="44.68441" lon="6.89425">
        <ele>2323</ele>
        <time>2020-08-03T09:25:06Z</time>
      </trkpt>
      <trkpt lat="44.68446" lon="6.89424">
        <ele>2323</ele>
        <time>2020-08-03T09:25:07Z</time>
      </trkpt>
      <trkpt lat="44.68451" lon="6.89421">
        <ele>2322</ele>
        <time>2020-08-03T09:25:08Z</time>
      </trkpt>
      <trkpt lat="44.68456" lon="6.89419">
        <ele>2322</ele>
        <time>2020-08-03T09:25:09Z</time>
      </trkpt>
      <trkpt lat="44.68461" lon="6.89416">
        <ele>2321</ele>
        <time>2020-08-03T09:25:10Z</time>
      </trkpt>
      <trkpt lat="44.68466" lon="6.89413">
        <ele>2321</ele>
        <time>2020-08-03T09:25:11Z</time>
      </trkpt>
      <trkpt lat="44.68486" lon="6.89402">
        <ele>2321</ele>
        <time>2020-08-03T09:25:15Z</time>
      </trkpt>
      <trkpt lat="44.68492" lon="6.89399">
        <ele>2322</ele>
        <time>2020-08-03T09:25:16Z</time>
      </trkpt>
      <trkpt lat="44.68517" lon="6.8939">
        <ele>2325</ele>
        <time>2020-08-03T09:25:20Z</time>
      </trkpt>
      <trkpt lat="44.68523" lon="6.89386">
        <ele>2324</ele>
        <time>2020-08-03T09:25:21Z</time>
      </trkpt>
      <trkpt lat="44.68532" lon="6.89378">
        <ele>2323</ele>
        <time>2020-08-03T09:25:23Z</time>
      </trkpt>
      <trkpt lat="44.68535" lon="6.89374">
        <ele>2321</ele>
        <time>2020-08-03T09:25:24Z</time>
      </trkpt>
      <trkpt lat="44.68547" lon="6.89358">
        <ele>2317</ele>
        <time>2020-08-03T09:25:28Z</time>
      </trkpt>
      <trkpt lat="44.68568" lon="6.89339">
        <ele>2315</ele>
        <time>2020-08-03T09:25:33Z</time>
      </trkpt>
      <trkpt lat="44.68573" lon="6.89337">
        <ele>2316</ele>
        <time>2020-08-03T09:25:34Z</time>
      </trkpt>
      <trkpt lat="44.68578" lon="6.89336">
        <ele>2318</ele>
        <time>2020-08-03T09:25:35Z</time>
      </trkpt>
      <trkpt lat="44.68584" lon="6.89336">
        <ele>2320</ele>
        <time>2020-08-03T09:25:36Z</time>
      </trkpt>
      <trkpt lat="44.68588" lon="6.89335">
        <ele>2320</ele>
        <time>2020-08-03T09:25:37Z</time>
      </trkpt>
      <trkpt lat="44.68592" lon="6.89333">
        <ele>2319</ele>
        <time>2020-08-03T09:25:38Z</time>
      </trkpt>
      <trkpt lat="44.68595" lon="6.89333">
        <ele>2319</ele>
        <time>2020-08-03T09:25:39Z</time>
      </trkpt>
      <trkpt lat="44.68599" lon="6.89334">
        <ele>2320</ele>
        <time>2020-08-03T09:25:40Z</time>
      </trkpt>
      <trkpt lat="44.68602" lon="6.89335">
        <ele>2321</ele>
        <time>2020-08-03T09:25:41Z</time>
      </trkpt>
      <trkpt lat="44.68606" lon="6.89336">
        <ele>2322</ele>
        <time>2020-08-03T09:25:42Z</time>
      </trkpt>
      <trkpt lat="44.6861" lon="6.89338">
        <ele>2323</ele>
        <time>2020-08-03T09:25:43Z</time>
      </trkpt>
      <trkpt lat="44.68615" lon="6.89338">
        <ele>2323</ele>
        <time>2020-08-03T09:25:44Z</time>
      </trkpt>
      <trkpt lat="44.6862" lon="6.89339">
        <ele>2323</ele>
        <time>2020-08-03T09:25:45Z</time>
      </trkpt>
      <trkpt lat="44.6863" lon="6.89339">
        <ele>2322</ele>
        <time>2020-08-03T09:25:47Z</time>
      </trkpt>
      <trkpt lat="44.68634" lon="6.89339">
        <ele>2322</ele>
        <time>2020-08-03T09:25:48Z</time>
      </trkpt>
      <trkpt lat="44.68643" lon="6.89338">
        <ele>2321</ele>
        <time>2020-08-03T09:25:50Z</time>
      </trkpt>
      <trkpt lat="44.68678" lon="6.89329">
        <ele>2319</ele>
        <time>2020-08-03T09:26:00Z</time>
      </trkpt>
      <trkpt lat="44.6868" lon="6.89327">
        <ele>2319</ele>
        <time>2020-08-03T09:26:01Z</time>
      </trkpt>
      <trkpt lat="44.68681" lon="6.89324">
        <ele>2319</ele>
        <time>2020-08-03T09:26:02Z</time>
      </trkpt>
      <trkpt lat="44.68683" lon="6.8932">
        <ele>2319</ele>
        <time>2020-08-03T09:26:03Z</time>
      </trkpt>
      <trkpt lat="44.68684" lon="6.89317">
        <ele>2318</ele>
        <time>2020-08-03T09:26:04Z</time>
      </trkpt>
      <trkpt lat="44.68685" lon="6.89312">
        <ele>2317</ele>
        <time>2020-08-03T09:26:05Z</time>
      </trkpt>
      <trkpt lat="44.68689" lon="6.893">
        <ele>2316</ele>
        <time>2020-08-03T09:26:08Z</time>
      </trkpt>
      <trkpt lat="44.6869" lon="6.89296">
        <ele>2316</ele>
        <time>2020-08-03T09:26:09Z</time>
      </trkpt>
      <trkpt lat="44.68689" lon="6.89293">
        <ele>2315</ele>
        <time>2020-08-03T09:26:10Z</time>
      </trkpt>
      <trkpt lat="44.68698" lon="6.89256">
        <ele>2314</ele>
        <time>2020-08-03T09:26:20Z</time>
      </trkpt>
      <trkpt lat="44.68706" lon="6.89236">
        <ele>2314</ele>
        <time>2020-08-03T09:26:31Z</time>
      </trkpt>
      <trkpt lat="44.68707" lon="6.89234">
        <ele>2314</ele>
        <time>2020-08-03T09:26:32Z</time>
      </trkpt>
      <trkpt lat="44.68708" lon="6.89232">
        <ele>2314</ele>
        <time>2020-08-03T09:26:33Z</time>
      </trkpt>
      <trkpt lat="44.68726" lon="6.89196">
        <ele>2312</ele>
        <time>2020-08-03T09:26:48Z</time>
      </trkpt>
      <trkpt lat="44.68734" lon="6.8919">
        <ele>2311</ele>
        <time>2020-08-03T09:26:57Z</time>
      </trkpt>
      <trkpt lat="44.68739" lon="6.89185">
        <ele>2311</ele>
        <time>2020-08-03T09:29:35Z</time>
      </trkpt>
      <trkpt lat="44.68749" lon="6.89176">
        <ele>2309</ele>
        <time>2020-08-03T09:29:38Z</time>
      </trkpt>
      <trkpt lat="44.68752" lon="6.89172">
        <ele>2309</ele>
        <time>2020-08-03T09:29:39Z</time>
      </trkpt>
      <trkpt lat="44.68755" lon="6.89167">
        <ele>2308</ele>
        <time>2020-08-03T09:29:40Z</time>
      </trkpt>
      <trkpt lat="44.68758" lon="6.89162">
        <ele>2308</ele>
        <time>2020-08-03T09:29:41Z</time>
      </trkpt>
      <trkpt lat="44.68761" lon="6.89158">
        <ele>2307</ele>
        <time>2020-08-03T09:29:42Z</time>
      </trkpt>
      <trkpt lat="44.68764" lon="6.89154">
        <ele>2307</ele>
        <time>2020-08-03T09:29:43Z</time>
      </trkpt>
      <trkpt lat="44.68768" lon="6.8915">
        <ele>2307</ele>
        <time>2020-08-03T09:29:44Z</time>
      </trkpt>
      <trkpt lat="44.68772" lon="6.89147">
        <ele>2306</ele>
        <time>2020-08-03T09:29:45Z</time>
      </trkpt>
      <trkpt lat="44.68775" lon="6.89142">
        <ele>2306</ele>
        <time>2020-08-03T09:29:46Z</time>
      </trkpt>
      <trkpt lat="44.68778" lon="6.89138">
        <ele>2305</ele>
        <time>2020-08-03T09:29:47Z</time>
      </trkpt>
      <trkpt lat="44.68781" lon="6.89133">
        <ele>2306</ele>
        <time>2020-08-03T09:29:48Z</time>
      </trkpt>
      <trkpt lat="44.68785" lon="6.8913">
        <ele>2307</ele>
        <time>2020-08-03T09:29:49Z</time>
      </trkpt>
      <trkpt lat="44.688" lon="6.8912">
        <ele>2310</ele>
        <time>2020-08-03T09:29:53Z</time>
      </trkpt>
      <trkpt lat="44.68803" lon="6.89116">
        <ele>2310</ele>
        <time>2020-08-03T09:29:54Z</time>
      </trkpt>
      <trkpt lat="44.68807" lon="6.89113">
        <ele>2311</ele>
        <time>2020-08-03T09:29:55Z</time>
      </trkpt>
      <trkpt lat="44.68812" lon="6.8911">
        <ele>2312</ele>
        <time>2020-08-03T09:29:56Z</time>
      </trkpt>
      <trkpt lat="44.68816" lon="6.89108">
        <ele>2312</ele>
        <time>2020-08-03T09:29:57Z</time>
      </trkpt>
      <trkpt lat="44.68828" lon="6.89101">
        <ele>2312</ele>
        <time>2020-08-03T09:30:00Z</time>
      </trkpt>
      <trkpt lat="44.68832" lon="6.891">
        <ele>2312</ele>
        <time>2020-08-03T09:30:01Z</time>
      </trkpt>
      <trkpt lat="44.68837" lon="6.89099">
        <ele>2312</ele>
        <time>2020-08-03T09:30:02Z</time>
      </trkpt>
      <trkpt lat="44.68841" lon="6.89099">
        <ele>2312</ele>
        <time>2020-08-03T09:30:03Z</time>
      </trkpt>
      <trkpt lat="44.68844" lon="6.891">
        <ele>2312</ele>
        <time>2020-08-03T09:30:04Z</time>
      </trkpt>
      <trkpt lat="44.68846" lon="6.89101">
        <ele>2312</ele>
        <time>2020-08-03T09:30:05Z</time>
      </trkpt>
      <trkpt lat="44.68849" lon="6.891">
        <ele>2312</ele>
        <time>2020-08-03T09:30:06Z</time>
      </trkpt>
      <trkpt lat="44.68852" lon="6.89099">
        <ele>2311</ele>
        <time>2020-08-03T09:30:07Z</time>
      </trkpt>
      <trkpt lat="44.68855" lon="6.89098">
        <ele>2311</ele>
        <time>2020-08-03T09:30:08Z</time>
      </trkpt>
      <trkpt lat="44.68859" lon="6.89099">
        <ele>2311</ele>
        <time>2020-08-03T09:30:09Z</time>
      </trkpt>
      <trkpt lat="44.68862" lon="6.89101">
        <ele>2312</ele>
        <time>2020-08-03T09:30:10Z</time>
      </trkpt>
      <trkpt lat="44.68866" lon="6.891">
        <ele>2311</ele>
        <time>2020-08-03T09:30:11Z</time>
      </trkpt>
      <trkpt lat="44.6887" lon="6.89098">
        <ele>2310</ele>
        <time>2020-08-03T09:30:12Z</time>
      </trkpt>
      <trkpt lat="44.68874" lon="6.89097">
        <ele>2310</ele>
        <time>2020-08-03T09:30:13Z</time>
      </trkpt>
      <trkpt lat="44.68878" lon="6.89096">
        <ele>2309</ele>
        <time>2020-08-03T09:30:14Z</time>
      </trkpt>
      <trkpt lat="44.68883" lon="6.89096">
        <ele>2309</ele>
        <time>2020-08-03T09:30:15Z</time>
      </trkpt>
      <trkpt lat="44.68893" lon="6.89095">
        <ele>2309</ele>
        <time>2020-08-03T09:30:17Z</time>
      </trkpt>
      <trkpt lat="44.68898" lon="6.89092">
        <ele>2308</ele>
        <time>2020-08-03T09:30:18Z</time>
      </trkpt>
      <trkpt lat="44.68902" lon="6.89089">
        <ele>2308</ele>
        <time>2020-08-03T09:30:19Z</time>
      </trkpt>
      <trkpt lat="44.68907" lon="6.89086">
        <ele>2307</ele>
        <time>2020-08-03T09:30:20Z</time>
      </trkpt>
      <trkpt lat="44.68911" lon="6.89084">
        <ele>2307</ele>
        <time>2020-08-03T09:30:21Z</time>
      </trkpt>
      <trkpt lat="44.68916" lon="6.89083">
        <ele>2307</ele>
        <time>2020-08-03T09:30:22Z</time>
      </trkpt>
      <trkpt lat="44.68921" lon="6.89081">
        <ele>2307</ele>
        <time>2020-08-03T09:30:23Z</time>
      </trkpt>
      <trkpt lat="44.68925" lon="6.89078">
        <ele>2306</ele>
        <time>2020-08-03T09:30:24Z</time>
      </trkpt>
      <trkpt lat="44.68931" lon="6.89076">
        <ele>2306</ele>
        <time>2020-08-03T09:30:25Z</time>
      </trkpt>
      <trkpt lat="44.68936" lon="6.89075">
        <ele>2306</ele>
        <time>2020-08-03T09:30:26Z</time>
      </trkpt>
      <trkpt lat="44.68942" lon="6.89074">
        <ele>2306</ele>
        <time>2020-08-03T09:30:27Z</time>
      </trkpt>
      <trkpt lat="44.68947" lon="6.89071">
        <ele>2305</ele>
        <time>2020-08-03T09:30:28Z</time>
      </trkpt>
      <trkpt lat="44.68952" lon="6.89069">
        <ele>2305</ele>
        <time>2020-08-03T09:30:29Z</time>
      </trkpt>
      <trkpt lat="44.68957" lon="6.89067">
        <ele>2305</ele>
        <time>2020-08-03T09:30:30Z</time>
      </trkpt>
      <trkpt lat="44.68963" lon="6.89067">
        <ele>2305</ele>
        <time>2020-08-03T09:30:31Z</time>
      </trkpt>
      <trkpt lat="44.68968" lon="6.89066">
        <ele>2306</ele>
        <time>2020-08-03T09:30:32Z</time>
      </trkpt>
      <trkpt lat="44.68973" lon="6.89065">
        <ele>2305</ele>
        <time>2020-08-03T09:30:33Z</time>
      </trkpt>
      <trkpt lat="44.68993" lon="6.89056">
        <ele>2305</ele>
        <time>2020-08-03T09:30:37Z</time>
      </trkpt>
      <trkpt lat="44.68997" lon="6.89055">
        <ele>2305</ele>
        <time>2020-08-03T09:30:38Z</time>
      </trkpt>
      <trkpt lat="44.69" lon="6.89052">
        <ele>2305</ele>
        <time>2020-08-03T09:30:39Z</time>
      </trkpt>
      <trkpt lat="44.69003" lon="6.89048">
        <ele>2304</ele>
        <time>2020-08-03T09:30:40Z</time>
      </trkpt>
      <trkpt lat="44.69005" lon="6.89043">
        <ele>2303</ele>
        <time>2020-08-03T09:30:41Z</time>
      </trkpt>
      <trkpt lat="44.69007" lon="6.89037">
        <ele>2303</ele>
        <time>2020-08-03T09:30:42Z</time>
      </trkpt>
      <trkpt lat="44.6901" lon="6.89033">
        <ele>2302</ele>
        <time>2020-08-03T09:30:43Z</time>
      </trkpt>
      <trkpt lat="44.69013" lon="6.89028">
        <ele>2302</ele>
        <time>2020-08-03T09:30:44Z</time>
      </trkpt>
      <trkpt lat="44.69016" lon="6.89024">
        <ele>2302</ele>
        <time>2020-08-03T09:30:45Z</time>
      </trkpt>
      <trkpt lat="44.69019" lon="6.89021">
        <ele>2302</ele>
        <time>2020-08-03T09:30:46Z</time>
      </trkpt>
      <trkpt lat="44.69023" lon="6.89019">
        <ele>2303</ele>
        <time>2020-08-03T09:30:47Z</time>
      </trkpt>
      <trkpt lat="44.69027" lon="6.89018">
        <ele>2303</ele>
        <time>2020-08-03T09:30:48Z</time>
      </trkpt>
      <trkpt lat="44.69031" lon="6.89017">
        <ele>2304</ele>
        <time>2020-08-03T09:30:49Z</time>
      </trkpt>
      <trkpt lat="44.69039" lon="6.89014">
        <ele>2306</ele>
        <time>2020-08-03T09:30:51Z</time>
      </trkpt>
      <trkpt lat="44.69043" lon="6.89014">
        <ele>2307</ele>
        <time>2020-08-03T09:30:52Z</time>
      </trkpt>
      <trkpt lat="44.69047" lon="6.89015">
        <ele>2308</ele>
        <time>2020-08-03T09:30:53Z</time>
      </trkpt>
      <trkpt lat="44.6905" lon="6.89017">
        <ele>2309</ele>
        <time>2020-08-03T09:30:54Z</time>
      </trkpt>
      <trkpt lat="44.69053" lon="6.89015">
        <ele>2309</ele>
        <time>2020-08-03T09:30:55Z</time>
      </trkpt>
      <trkpt lat="44.69054" lon="6.89011">
        <ele>2309</ele>
        <time>2020-08-03T09:30:56Z</time>
      </trkpt>
      <trkpt lat="44.69054" lon="6.89006">
        <ele>2308</ele>
        <time>2020-08-03T09:30:57Z</time>
      </trkpt>
      <trkpt lat="44.69055" lon="6.89001">
        <ele>2308</ele>
        <time>2020-08-03T09:30:58Z</time>
      </trkpt>
      <trkpt lat="44.69057" lon="6.88995">
        <ele>2307</ele>
        <time>2020-08-03T09:30:59Z</time>
      </trkpt>
      <trkpt lat="44.69059" lon="6.8899">
        <ele>2306</ele>
        <time>2020-08-03T09:31:00Z</time>
      </trkpt>
      <trkpt lat="44.69061" lon="6.88986">
        <ele>2305</ele>
        <time>2020-08-03T09:31:01Z</time>
      </trkpt>
      <trkpt lat="44.69064" lon="6.88982">
        <ele>2305</ele>
        <time>2020-08-03T09:31:02Z</time>
      </trkpt>
      <trkpt lat="44.69078" lon="6.8896">
        <ele>2303</ele>
        <time>2020-08-03T09:31:07Z</time>
      </trkpt>
      <trkpt lat="44.69081" lon="6.88958">
        <ele>2304</ele>
        <time>2020-08-03T09:31:08Z</time>
      </trkpt>
      <trkpt lat="44.69085" lon="6.88957">
        <ele>2304</ele>
        <time>2020-08-03T09:31:09Z</time>
      </trkpt>
      <trkpt lat="44.69088" lon="6.88956">
        <ele>2304</ele>
        <time>2020-08-03T09:31:10Z</time>
      </trkpt>
      <trkpt lat="44.69092" lon="6.88955">
        <ele>2305</ele>
        <time>2020-08-03T09:31:11Z</time>
      </trkpt>
      <trkpt lat="44.69118" lon="6.88936">
        <ele>2304</ele>
        <time>2020-08-03T09:31:20Z</time>
      </trkpt>
      <trkpt lat="44.69132" lon="6.88928">
        <ele>2303</ele>
        <time>2020-08-03T09:31:24Z</time>
      </trkpt>
      <trkpt lat="44.69149" lon="6.88918">
        <ele>2300</ele>
        <time>2020-08-03T09:31:28Z</time>
      </trkpt>
      <trkpt lat="44.69152" lon="6.88915">
        <ele>2300</ele>
        <time>2020-08-03T09:31:29Z</time>
      </trkpt>
      <trkpt lat="44.69183" lon="6.88906">
        <ele>2299</ele>
        <time>2020-08-03T09:31:38Z</time>
      </trkpt>
      <trkpt lat="44.69188" lon="6.88906">
        <ele>2299</ele>
        <time>2020-08-03T09:31:39Z</time>
      </trkpt>
      <trkpt lat="44.69195" lon="6.88904">
        <ele>2300</ele>
        <time>2020-08-03T09:31:40Z</time>
      </trkpt>
      <trkpt lat="44.692" lon="6.88901">
        <ele>2299</ele>
        <time>2020-08-03T09:31:41Z</time>
      </trkpt>
      <trkpt lat="44.69205" lon="6.88898">
        <ele>2299</ele>
        <time>2020-08-03T09:31:42Z</time>
      </trkpt>
      <trkpt lat="44.6921" lon="6.88895">
        <ele>2298</ele>
        <time>2020-08-03T09:31:43Z</time>
      </trkpt>
      <trkpt lat="44.69215" lon="6.88895">
        <ele>2298</ele>
        <time>2020-08-03T09:31:44Z</time>
      </trkpt>
      <trkpt lat="44.6922" lon="6.88895">
        <ele>2298</ele>
        <time>2020-08-03T09:31:45Z</time>
      </trkpt>
      <trkpt lat="44.69225" lon="6.88897">
        <ele>2298</ele>
        <time>2020-08-03T09:31:46Z</time>
      </trkpt>
      <trkpt lat="44.6923" lon="6.88899">
        <ele>2298</ele>
        <time>2020-08-03T09:31:47Z</time>
      </trkpt>
      <trkpt lat="44.69235" lon="6.889">
        <ele>2298</ele>
        <time>2020-08-03T09:31:48Z</time>
      </trkpt>
      <trkpt lat="44.69245" lon="6.88901">
        <ele>2298</ele>
        <time>2020-08-03T09:31:50Z</time>
      </trkpt>
      <trkpt lat="44.69251" lon="6.889">
        <ele>2297</ele>
        <time>2020-08-03T09:31:51Z</time>
      </trkpt>
      <trkpt lat="44.69255" lon="6.88898">
        <ele>2297</ele>
        <time>2020-08-03T09:31:52Z</time>
      </trkpt>
      <trkpt lat="44.6926" lon="6.88897">
        <ele>2297</ele>
        <time>2020-08-03T09:31:53Z</time>
      </trkpt>
      <trkpt lat="44.69264" lon="6.88897">
        <ele>2297</ele>
        <time>2020-08-03T09:31:54Z</time>
      </trkpt>
      <trkpt lat="44.69269" lon="6.88897">
        <ele>2297</ele>
        <time>2020-08-03T09:31:55Z</time>
      </trkpt>
      <trkpt lat="44.69273" lon="6.88897">
        <ele>2297</ele>
        <time>2020-08-03T09:31:56Z</time>
      </trkpt>
      <trkpt lat="44.69277" lon="6.88894">
        <ele>2296</ele>
        <time>2020-08-03T09:31:57Z</time>
      </trkpt>
      <trkpt lat="44.6928" lon="6.8889">
        <ele>2295</ele>
        <time>2020-08-03T09:31:58Z</time>
      </trkpt>
      <trkpt lat="44.69283" lon="6.88885">
        <ele>2295</ele>
        <time>2020-08-03T09:31:59Z</time>
      </trkpt>
      <trkpt lat="44.69287" lon="6.88881">
        <ele>2295</ele>
        <time>2020-08-03T09:32:00Z</time>
      </trkpt>
      <trkpt lat="44.6929" lon="6.88877">
        <ele>2295</ele>
        <time>2020-08-03T09:32:01Z</time>
      </trkpt>
      <trkpt lat="44.69294" lon="6.88873">
        <ele>2295</ele>
        <time>2020-08-03T09:32:02Z</time>
      </trkpt>
      <trkpt lat="44.69298" lon="6.88869">
        <ele>2295</ele>
        <time>2020-08-03T09:32:03Z</time>
      </trkpt>
      <trkpt lat="44.69303" lon="6.88866">
        <ele>2295</ele>
        <time>2020-08-03T09:32:04Z</time>
      </trkpt>
      <trkpt lat="44.69308" lon="6.88864">
        <ele>2296</ele>
        <time>2020-08-03T09:32:05Z</time>
      </trkpt>
      <trkpt lat="44.69312" lon="6.8886">
        <ele>2296</ele>
        <time>2020-08-03T09:32:06Z</time>
      </trkpt>
      <trkpt lat="44.69316" lon="6.88857">
        <ele>2296</ele>
        <time>2020-08-03T09:32:07Z</time>
      </trkpt>
      <trkpt lat="44.6932" lon="6.88855">
        <ele>2296</ele>
        <time>2020-08-03T09:32:08Z</time>
      </trkpt>
      <trkpt lat="44.69325" lon="6.88852">
        <ele>2297</ele>
        <time>2020-08-03T09:32:09Z</time>
      </trkpt>
      <trkpt lat="44.6933" lon="6.8885">
        <ele>2297</ele>
        <time>2020-08-03T09:32:10Z</time>
      </trkpt>
      <trkpt lat="44.69344" lon="6.88839">
        <ele>2297</ele>
        <time>2020-08-03T09:32:13Z</time>
      </trkpt>
      <trkpt lat="44.69347" lon="6.88834">
        <ele>2296</ele>
        <time>2020-08-03T09:32:14Z</time>
      </trkpt>
      <trkpt lat="44.6935" lon="6.88828">
        <ele>2295</ele>
        <time>2020-08-03T09:32:15Z</time>
      </trkpt>
      <trkpt lat="44.69354" lon="6.88822">
        <ele>2295</ele>
        <time>2020-08-03T09:32:16Z</time>
      </trkpt>
      <trkpt lat="44.69359" lon="6.88818">
        <ele>2295</ele>
        <time>2020-08-03T09:32:17Z</time>
      </trkpt>
      <trkpt lat="44.69363" lon="6.88814">
        <ele>2294</ele>
        <time>2020-08-03T09:32:18Z</time>
      </trkpt>
      <trkpt lat="44.69367" lon="6.88812">
        <ele>2294</ele>
        <time>2020-08-03T09:32:19Z</time>
      </trkpt>
      <trkpt lat="44.6937" lon="6.88811">
        <ele>2295</ele>
        <time>2020-08-03T09:32:20Z</time>
      </trkpt>
      <trkpt lat="44.69373" lon="6.8881">
        <ele>2295</ele>
        <time>2020-08-03T09:32:21Z</time>
      </trkpt>
      <trkpt lat="44.69375" lon="6.88809">
        <ele>2295</ele>
        <time>2020-08-03T09:32:22Z</time>
      </trkpt>
      <trkpt lat="44.69378" lon="6.88808">
        <ele>2295</ele>
        <time>2020-08-03T09:32:23Z</time>
      </trkpt>
      <trkpt lat="44.69379" lon="6.88807">
        <ele>2295</ele>
        <time>2020-08-03T09:32:24Z</time>
      </trkpt>
      <trkpt lat="44.694" lon="6.88788">
        <ele>2294</ele>
        <time>2020-08-03T09:32:36Z</time>
      </trkpt>
      <trkpt lat="44.69401" lon="6.88787">
        <ele>2294</ele>
        <time>2020-08-03T09:32:37Z</time>
      </trkpt>
      <trkpt lat="44.69403" lon="6.88785">
        <ele>2294</ele>
        <time>2020-08-03T09:32:38Z</time>
      </trkpt>
      <trkpt lat="44.69405" lon="6.88783">
        <ele>2294</ele>
        <time>2020-08-03T09:32:39Z</time>
      </trkpt>
      <trkpt lat="44.69407" lon="6.88781">
        <ele>2294</ele>
        <time>2020-08-03T09:32:40Z</time>
      </trkpt>
      <trkpt lat="44.69434" lon="6.88752">
        <ele>2292</ele>
        <time>2020-08-03T09:32:52Z</time>
      </trkpt>
      <trkpt lat="44.69441" lon="6.88742">
        <ele>2290</ele>
        <time>2020-08-03T09:32:56Z</time>
      </trkpt>
      <trkpt lat="44.69442" lon="6.88741">
        <ele>2290</ele>
        <time>2020-08-03T09:33:00Z</time>
      </trkpt>
      <trkpt lat="44.69448" lon="6.88738">
        <ele>2290</ele>
        <time>2020-08-03T09:33:11Z</time>
      </trkpt>
      <trkpt lat="44.69466" lon="6.88732">
        <ele>2292</ele>
        <time>2020-08-03T09:33:16Z</time>
      </trkpt>
      <trkpt lat="44.69479" lon="6.88724">
        <ele>2292</ele>
        <time>2020-08-03T09:33:19Z</time>
      </trkpt>
      <trkpt lat="44.69489" lon="6.8872">
        <ele>2292</ele>
        <time>2020-08-03T09:33:21Z</time>
      </trkpt>
      <trkpt lat="44.69493" lon="6.88716">
        <ele>2292</ele>
        <time>2020-08-03T09:33:22Z</time>
      </trkpt>
      <trkpt lat="44.69498" lon="6.88712">
        <ele>2291</ele>
        <time>2020-08-03T09:33:23Z</time>
      </trkpt>
      <trkpt lat="44.69506" lon="6.88705">
        <ele>2290</ele>
        <time>2020-08-03T09:33:25Z</time>
      </trkpt>
      <trkpt lat="44.69511" lon="6.88702">
        <ele>2290</ele>
        <time>2020-08-03T09:33:30Z</time>
      </trkpt>
      <trkpt lat="44.69518" lon="6.88696">
        <ele>2289</ele>
        <time>2020-08-03T09:33:36Z</time>
      </trkpt>
      <trkpt lat="44.69521" lon="6.88693">
        <ele>2289</ele>
        <time>2020-08-03T09:33:37Z</time>
      </trkpt>
      <trkpt lat="44.69535" lon="6.88677">
        <ele>2288</ele>
        <time>2020-08-03T09:33:41Z</time>
      </trkpt>
      <trkpt lat="44.69539" lon="6.88673">
        <ele>2288</ele>
        <time>2020-08-03T09:33:42Z</time>
      </trkpt>
      <trkpt lat="44.69548" lon="6.88668">
        <ele>2289</ele>
        <time>2020-08-03T09:33:44Z</time>
      </trkpt>
      <trkpt lat="44.69555" lon="6.88663">
        <ele>2291</ele>
        <time>2020-08-03T09:33:46Z</time>
      </trkpt>
      <trkpt lat="44.69559" lon="6.88661">
        <ele>2291</ele>
        <time>2020-08-03T09:33:47Z</time>
      </trkpt>
      <trkpt lat="44.69562" lon="6.88658">
        <ele>2291</ele>
        <time>2020-08-03T09:33:48Z</time>
      </trkpt>
      <trkpt lat="44.69585" lon="6.88639">
        <ele>2292</ele>
        <time>2020-08-03T09:33:56Z</time>
      </trkpt>
      <trkpt lat="44.69587" lon="6.88637">
        <ele>2292</ele>
        <time>2020-08-03T09:33:57Z</time>
      </trkpt>
      <trkpt lat="44.6959" lon="6.88634">
        <ele>2292</ele>
        <time>2020-08-03T09:33:58Z</time>
      </trkpt>
      <trkpt lat="44.69606" lon="6.88621">
        <ele>2292</ele>
        <time>2020-08-03T09:34:02Z</time>
      </trkpt>
      <trkpt lat="44.69612" lon="6.88613">
        <ele>2291</ele>
        <time>2020-08-03T09:34:04Z</time>
      </trkpt>
      <trkpt lat="44.69619" lon="6.88605">
        <ele>2291</ele>
        <time>2020-08-03T09:34:06Z</time>
      </trkpt>
      <trkpt lat="44.69623" lon="6.88602">
        <ele>2291</ele>
        <time>2020-08-03T09:34:07Z</time>
      </trkpt>
      <trkpt lat="44.69626" lon="6.886">
        <ele>2292</ele>
        <time>2020-08-03T09:34:08Z</time>
      </trkpt>
      <trkpt lat="44.69628" lon="6.88599">
        <ele>2292</ele>
        <time>2020-08-03T09:34:09Z</time>
      </trkpt>
      <trkpt lat="44.69631" lon="6.88598">
        <ele>2293</ele>
        <time>2020-08-03T09:34:10Z</time>
      </trkpt>
      <trkpt lat="44.69633" lon="6.88597">
        <ele>2293</ele>
        <time>2020-08-03T09:34:11Z</time>
      </trkpt>
      <trkpt lat="44.69636" lon="6.88595">
        <ele>2294</ele>
        <time>2020-08-03T09:34:12Z</time>
      </trkpt>
      <trkpt lat="44.69638" lon="6.88593">
        <ele>2294</ele>
        <time>2020-08-03T09:34:13Z</time>
      </trkpt>
      <trkpt lat="44.69643" lon="6.8859">
        <ele>2294</ele>
        <time>2020-08-03T09:34:15Z</time>
      </trkpt>
      <trkpt lat="44.69646" lon="6.88588">
        <ele>2294</ele>
        <time>2020-08-03T09:34:16Z</time>
      </trkpt>
      <trkpt lat="44.69648" lon="6.88587">
        <ele>2294</ele>
        <time>2020-08-03T09:34:17Z</time>
      </trkpt>
      <trkpt lat="44.69651" lon="6.88587">
        <ele>2295</ele>
        <time>2020-08-03T09:34:18Z</time>
      </trkpt>
      <trkpt lat="44.69653" lon="6.88586">
        <ele>2295</ele>
        <time>2020-08-03T09:34:19Z</time>
      </trkpt>
      <trkpt lat="44.69653" lon="6.88583">
        <ele>2295</ele>
        <time>2020-08-03T09:34:20Z</time>
      </trkpt>
      <trkpt lat="44.69654" lon="6.8858">
        <ele>2294</ele>
        <time>2020-08-03T09:34:21Z</time>
      </trkpt>
      <trkpt lat="44.69656" lon="6.88577">
        <ele>2293</ele>
        <time>2020-08-03T09:34:22Z</time>
      </trkpt>
      <trkpt lat="44.69657" lon="6.88572">
        <ele>2292</ele>
        <time>2020-08-03T09:34:23Z</time>
      </trkpt>
      <trkpt lat="44.69658" lon="6.88568">
        <ele>2291</ele>
        <time>2020-08-03T09:34:24Z</time>
      </trkpt>
      <trkpt lat="44.69661" lon="6.88564">
        <ele>2291</ele>
        <time>2020-08-03T09:34:25Z</time>
      </trkpt>
      <trkpt lat="44.69664" lon="6.88559">
        <ele>2290</ele>
        <time>2020-08-03T09:34:26Z</time>
      </trkpt>
      <trkpt lat="44.69666" lon="6.88555">
        <ele>2290</ele>
        <time>2020-08-03T09:34:27Z</time>
      </trkpt>
      <trkpt lat="44.69669" lon="6.8855">
        <ele>2289</ele>
        <time>2020-08-03T09:34:28Z</time>
      </trkpt>
      <trkpt lat="44.69699" lon="6.8851">
        <ele>2287</ele>
        <time>2020-08-03T09:34:38Z</time>
      </trkpt>
      <trkpt lat="44.69704" lon="6.88508">
        <ele>2287</ele>
        <time>2020-08-03T09:34:39Z</time>
      </trkpt>
      <trkpt lat="44.69715" lon="6.88503">
        <ele>2287</ele>
        <time>2020-08-03T09:34:41Z</time>
      </trkpt>
      <trkpt lat="44.69719" lon="6.88501">
        <ele>2287</ele>
        <time>2020-08-03T09:34:42Z</time>
      </trkpt>
      <trkpt lat="44.69743" lon="6.88488">
        <ele>2287</ele>
        <time>2020-08-03T09:34:48Z</time>
      </trkpt>
      <trkpt lat="44.69748" lon="6.88487">
        <ele>2287</ele>
        <time>2020-08-03T09:34:49Z</time>
      </trkpt>
      <trkpt lat="44.69785" lon="6.8848">
        <ele>2287</ele>
        <time>2020-08-03T09:34:57Z</time>
      </trkpt>
      <trkpt lat="44.698" lon="6.8848">
        <ele>2287</ele>
        <time>2020-08-03T09:35:00Z</time>
      </trkpt>
      <trkpt lat="44.6981" lon="6.88481">
        <ele>2288</ele>
        <time>2020-08-03T09:35:02Z</time>
      </trkpt>
      <trkpt lat="44.69815" lon="6.88481">
        <ele>2288</ele>
        <time>2020-08-03T09:35:03Z</time>
      </trkpt>
      <trkpt lat="44.69819" lon="6.88481">
        <ele>2288</ele>
        <time>2020-08-03T09:35:04Z</time>
      </trkpt>
      <trkpt lat="44.69825" lon="6.8848">
        <ele>2287</ele>
        <time>2020-08-03T09:35:05Z</time>
      </trkpt>
      <trkpt lat="44.6983" lon="6.88479">
        <ele>2287</ele>
        <time>2020-08-03T09:35:06Z</time>
      </trkpt>
      <trkpt lat="44.69844" lon="6.88472">
        <ele>2284</ele>
        <time>2020-08-03T09:35:09Z</time>
      </trkpt>
      <trkpt lat="44.69849" lon="6.88472">
        <ele>2284</ele>
        <time>2020-08-03T09:35:10Z</time>
      </trkpt>
      <trkpt lat="44.69852" lon="6.88473">
        <ele>2284</ele>
        <time>2020-08-03T09:35:11Z</time>
      </trkpt>
      <trkpt lat="44.69887" lon="6.88473">
        <ele>2283</ele>
        <time>2020-08-03T09:35:20Z</time>
      </trkpt>
      <trkpt lat="44.69917" lon="6.88473">
        <ele>2284</ele>
        <time>2020-08-03T09:35:26Z</time>
      </trkpt>
      <trkpt lat="44.69922" lon="6.88471">
        <ele>2283</ele>
        <time>2020-08-03T09:35:27Z</time>
      </trkpt>
      <trkpt lat="44.69926" lon="6.88467">
        <ele>2283</ele>
        <time>2020-08-03T09:35:28Z</time>
      </trkpt>
      <trkpt lat="44.69946" lon="6.88451">
        <ele>2281</ele>
        <time>2020-08-03T09:35:33Z</time>
      </trkpt>
      <trkpt lat="44.69951" lon="6.88449">
        <ele>2281</ele>
        <time>2020-08-03T09:35:34Z</time>
      </trkpt>
      <trkpt lat="44.69957" lon="6.88447">
        <ele>2281</ele>
        <time>2020-08-03T09:35:35Z</time>
      </trkpt>
      <trkpt lat="44.69962" lon="6.88444">
        <ele>2281</ele>
        <time>2020-08-03T09:35:36Z</time>
      </trkpt>
      <trkpt lat="44.69967" lon="6.8844">
        <ele>2281</ele>
        <time>2020-08-03T09:35:37Z</time>
      </trkpt>
      <trkpt lat="44.69977" lon="6.88433">
        <ele>2281</ele>
        <time>2020-08-03T09:35:39Z</time>
      </trkpt>
      <trkpt lat="44.69981" lon="6.88428">
        <ele>2281</ele>
        <time>2020-08-03T09:35:40Z</time>
      </trkpt>
      <trkpt lat="44.69984" lon="6.88423">
        <ele>2281</ele>
        <time>2020-08-03T09:35:41Z</time>
      </trkpt>
      <trkpt lat="44.69989" lon="6.88418">
        <ele>2280</ele>
        <time>2020-08-03T09:35:42Z</time>
      </trkpt>
      <trkpt lat="44.69994" lon="6.88414">
        <ele>2280</ele>
        <time>2020-08-03T09:35:43Z</time>
      </trkpt>
      <trkpt lat="44.70011" lon="6.88401">
        <ele>2284</ele>
        <time>2020-08-03T09:35:47Z</time>
      </trkpt>
      <trkpt lat="44.70013" lon="6.88396">
        <ele>2284</ele>
        <time>2020-08-03T09:35:48Z</time>
      </trkpt>
      <trkpt lat="44.70014" lon="6.88392">
        <ele>2283</ele>
        <time>2020-08-03T09:35:49Z</time>
      </trkpt>
      <trkpt lat="44.70014" lon="6.88388">
        <ele>2282</ele>
        <time>2020-08-03T09:35:50Z</time>
      </trkpt>
      <trkpt lat="44.70015" lon="6.88384">
        <ele>2282</ele>
        <time>2020-08-03T09:35:51Z</time>
      </trkpt>
      <trkpt lat="44.70016" lon="6.8838">
        <ele>2281</ele>
        <time>2020-08-03T09:35:52Z</time>
      </trkpt>
      <trkpt lat="44.70017" lon="6.88376">
        <ele>2280</ele>
        <time>2020-08-03T09:35:53Z</time>
      </trkpt>
      <trkpt lat="44.70017" lon="6.88372">
        <ele>2279</ele>
        <time>2020-08-03T09:35:54Z</time>
      </trkpt>
      <trkpt lat="44.70016" lon="6.88368">
        <ele>2277</ele>
        <time>2020-08-03T09:35:55Z</time>
      </trkpt>
      <trkpt lat="44.70015" lon="6.88362">
        <ele>2275</ele>
        <time>2020-08-03T09:35:56Z</time>
      </trkpt>
      <trkpt lat="44.70015" lon="6.88356">
        <ele>2273</ele>
        <time>2020-08-03T09:35:57Z</time>
      </trkpt>
      <trkpt lat="44.70013" lon="6.88341">
        <ele>2269</ele>
        <time>2020-08-03T09:35:59Z</time>
      </trkpt>
      <trkpt lat="44.70013" lon="6.88335">
        <ele>2268</ele>
        <time>2020-08-03T09:36:00Z</time>
      </trkpt>
      <trkpt lat="44.70013" lon="6.8833">
        <ele>2267</ele>
        <time>2020-08-03T09:36:01Z</time>
      </trkpt>
      <trkpt lat="44.70014" lon="6.88327">
        <ele>2267</ele>
        <time>2020-08-03T09:36:02Z</time>
      </trkpt>
      <trkpt lat="44.70014" lon="6.88324">
        <ele>2266</ele>
        <time>2020-08-03T09:36:03Z</time>
      </trkpt>
      <trkpt lat="44.70019" lon="6.88313">
        <ele>2265</ele>
        <time>2020-08-03T09:36:07Z</time>
      </trkpt>
      <trkpt lat="44.70026" lon="6.88298">
        <ele>2264</ele>
        <time>2020-08-03T09:36:11Z</time>
      </trkpt>
      <trkpt lat="44.70028" lon="6.88293">
        <ele>2264</ele>
        <time>2020-08-03T09:36:12Z</time>
      </trkpt>
      <trkpt lat="44.70031" lon="6.88287">
        <ele>2263</ele>
        <time>2020-08-03T09:36:13Z</time>
      </trkpt>
      <trkpt lat="44.70037" lon="6.8827">
        <ele>2262</ele>
        <time>2020-08-03T09:36:16Z</time>
      </trkpt>
      <trkpt lat="44.70039" lon="6.88264">
        <ele>2261</ele>
        <time>2020-08-03T09:36:17Z</time>
      </trkpt>
      <trkpt lat="44.70041" lon="6.88258">
        <ele>2260</ele>
        <time>2020-08-03T09:36:18Z</time>
      </trkpt>
      <trkpt lat="44.70043" lon="6.88254">
        <ele>2260</ele>
        <time>2020-08-03T09:36:19Z</time>
      </trkpt>
      <trkpt lat="44.70045" lon="6.88251">
        <ele>2261</ele>
        <time>2020-08-03T09:36:20Z</time>
      </trkpt>
      <trkpt lat="44.70048" lon="6.88248">
        <ele>2261</ele>
        <time>2020-08-03T09:36:21Z</time>
      </trkpt>
      <trkpt lat="44.70051" lon="6.88246">
        <ele>2262</ele>
        <time>2020-08-03T09:36:22Z</time>
      </trkpt>
      <trkpt lat="44.70057" lon="6.88229">
        <ele>2263</ele>
        <time>2020-08-03T09:36:26Z</time>
      </trkpt>
      <trkpt lat="44.70057" lon="6.88223">
        <ele>2262</ele>
        <time>2020-08-03T09:36:27Z</time>
      </trkpt>
      <trkpt lat="44.70057" lon="6.88218">
        <ele>2261</ele>
        <time>2020-08-03T09:36:28Z</time>
      </trkpt>
      <trkpt lat="44.70056" lon="6.88199">
        <ele>2259</ele>
        <time>2020-08-03T09:36:31Z</time>
      </trkpt>
      <trkpt lat="44.70057" lon="6.88193">
        <ele>2259</ele>
        <time>2020-08-03T09:36:32Z</time>
      </trkpt>
      <trkpt lat="44.70057" lon="6.88187">
        <ele>2259</ele>
        <time>2020-08-03T09:36:33Z</time>
      </trkpt>
      <trkpt lat="44.70058" lon="6.8818">
        <ele>2259</ele>
        <time>2020-08-03T09:36:34Z</time>
      </trkpt>
      <trkpt lat="44.70059" lon="6.88174">
        <ele>2259</ele>
        <time>2020-08-03T09:36:35Z</time>
      </trkpt>
      <trkpt lat="44.70066" lon="6.88114">
        <ele>2255</ele>
        <time>2020-08-03T09:36:44Z</time>
      </trkpt>
      <trkpt lat="44.70068" lon="6.88078">
        <ele>2252</ele>
        <time>2020-08-03T09:36:49Z</time>
      </trkpt>
      <trkpt lat="44.70068" lon="6.88071">
        <ele>2251</ele>
        <time>2020-08-03T09:36:50Z</time>
      </trkpt>
      <trkpt lat="44.70067" lon="6.88064">
        <ele>2250</ele>
        <time>2020-08-03T09:36:51Z</time>
      </trkpt>
      <trkpt lat="44.70065" lon="6.88058">
        <ele>2249</ele>
        <time>2020-08-03T09:36:52Z</time>
      </trkpt>
      <trkpt lat="44.70063" lon="6.88052">
        <ele>2247</ele>
        <time>2020-08-03T09:36:53Z</time>
      </trkpt>
      <trkpt lat="44.70061" lon="6.88039">
        <ele>2245</ele>
        <time>2020-08-03T09:36:55Z</time>
      </trkpt>
      <trkpt lat="44.7006" lon="6.88032">
        <ele>2245</ele>
        <time>2020-08-03T09:36:56Z</time>
      </trkpt>
      <trkpt lat="44.7006" lon="6.88026">
        <ele>2244</ele>
        <time>2020-08-03T09:36:57Z</time>
      </trkpt>
      <trkpt lat="44.70061" lon="6.88019">
        <ele>2245</ele>
        <time>2020-08-03T09:36:58Z</time>
      </trkpt>
      <trkpt lat="44.70062" lon="6.88013">
        <ele>2245</ele>
        <time>2020-08-03T09:36:59Z</time>
      </trkpt>
      <trkpt lat="44.70063" lon="6.88007">
        <ele>2246</ele>
        <time>2020-08-03T09:37:00Z</time>
      </trkpt>
      <trkpt lat="44.70064" lon="6.88001">
        <ele>2247</ele>
        <time>2020-08-03T09:37:01Z</time>
      </trkpt>
      <trkpt lat="44.70066" lon="6.87994">
        <ele>2247</ele>
        <time>2020-08-03T09:37:02Z</time>
      </trkpt>
      <trkpt lat="44.70067" lon="6.87987">
        <ele>2247</ele>
        <time>2020-08-03T09:37:03Z</time>
      </trkpt>
      <trkpt lat="44.70067" lon="6.8798">
        <ele>2247</ele>
        <time>2020-08-03T09:37:04Z</time>
      </trkpt>
      <trkpt lat="44.70067" lon="6.87973">
        <ele>2247</ele>
        <time>2020-08-03T09:37:05Z</time>
      </trkpt>
      <trkpt lat="44.70068" lon="6.87965">
        <ele>2246</ele>
        <time>2020-08-03T09:37:06Z</time>
      </trkpt>
      <trkpt lat="44.70069" lon="6.87958">
        <ele>2245</ele>
        <time>2020-08-03T09:37:07Z</time>
      </trkpt>
      <trkpt lat="44.7007" lon="6.87951">
        <ele>2245</ele>
        <time>2020-08-03T09:37:08Z</time>
      </trkpt>
      <trkpt lat="44.70072" lon="6.87945">
        <ele>2245</ele>
        <time>2020-08-03T09:37:09Z</time>
      </trkpt>
      <trkpt lat="44.70074" lon="6.87938">
        <ele>2245</ele>
        <time>2020-08-03T09:37:10Z</time>
      </trkpt>
      <trkpt lat="44.70094" lon="6.87894">
        <ele>2249</ele>
        <time>2020-08-03T09:37:22Z</time>
      </trkpt>
      <trkpt lat="44.70095" lon="6.87892">
        <ele>2249</ele>
        <time>2020-08-03T09:37:27Z</time>
      </trkpt>
      <trkpt lat="44.701" lon="6.87887">
        <ele>2250</ele>
        <time>2020-08-03T09:38:13Z</time>
      </trkpt>
      <trkpt lat="44.70103" lon="6.87883">
        <ele>2250</ele>
        <time>2020-08-03T09:38:14Z</time>
      </trkpt>
      <trkpt lat="44.70124" lon="6.8785">
        <ele>2250</ele>
        <time>2020-08-03T09:38:23Z</time>
      </trkpt>
      <trkpt lat="44.70123" lon="6.87848">
        <ele>2249</ele>
        <time>2020-08-03T09:38:24Z</time>
      </trkpt>
      <trkpt lat="44.7012" lon="6.87847">
        <ele>2249</ele>
        <time>2020-08-03T09:38:25Z</time>
      </trkpt>
      <trkpt lat="44.70117" lon="6.87848">
        <ele>2248</ele>
        <time>2020-08-03T09:38:26Z</time>
      </trkpt>
      <trkpt lat="44.70115" lon="6.8785">
        <ele>2247</ele>
        <time>2020-08-03T09:38:27Z</time>
      </trkpt>
      <trkpt lat="44.70111" lon="6.87852">
        <ele>2247</ele>
        <time>2020-08-03T09:38:28Z</time>
      </trkpt>
      <trkpt lat="44.70108" lon="6.87856">
        <ele>2247</ele>
        <time>2020-08-03T09:38:29Z</time>
      </trkpt>
      <trkpt lat="44.70092" lon="6.87868">
        <ele>2244</ele>
        <time>2020-08-03T09:38:33Z</time>
      </trkpt>
      <trkpt lat="44.70087" lon="6.87871">
        <ele>2244</ele>
        <time>2020-08-03T09:38:34Z</time>
      </trkpt>
      <trkpt lat="44.70066" lon="6.87881">
        <ele>2237</ele>
        <time>2020-08-03T09:38:40Z</time>
      </trkpt>
      <trkpt lat="44.70064" lon="6.87877">
        <ele>2236</ele>
        <time>2020-08-03T09:38:41Z</time>
      </trkpt>
      <trkpt lat="44.70063" lon="6.87872">
        <ele>2235</ele>
        <time>2020-08-03T09:38:42Z</time>
      </trkpt>
      <trkpt lat="44.70065" lon="6.87865">
        <ele>2235</ele>
        <time>2020-08-03T09:38:43Z</time>
      </trkpt>
      <trkpt lat="44.70066" lon="6.87856">
        <ele>2234</ele>
        <time>2020-08-03T09:38:44Z</time>
      </trkpt>
      <trkpt lat="44.70067" lon="6.87846">
        <ele>2232</ele>
        <time>2020-08-03T09:38:45Z</time>
      </trkpt>
      <trkpt lat="44.70068" lon="6.87835">
        <ele>2230</ele>
        <time>2020-08-03T09:38:46Z</time>
      </trkpt>
      <trkpt lat="44.70072" lon="6.87775">
        <ele>2219</ele>
        <time>2020-08-03T09:38:53Z</time>
      </trkpt>
      <trkpt lat="44.70072" lon="6.87763">
        <ele>2218</ele>
        <time>2020-08-03T09:38:55Z</time>
      </trkpt>
      <trkpt lat="44.70071" lon="6.87756">
        <ele>2217</ele>
        <time>2020-08-03T09:38:56Z</time>
      </trkpt>
      <trkpt lat="44.7007" lon="6.87748">
        <ele>2216</ele>
        <time>2020-08-03T09:38:57Z</time>
      </trkpt>
      <trkpt lat="44.70069" lon="6.87739">
        <ele>2215</ele>
        <time>2020-08-03T09:38:58Z</time>
      </trkpt>
      <trkpt lat="44.70068" lon="6.87683">
        <ele>2207</ele>
        <time>2020-08-03T09:39:03Z</time>
      </trkpt>
      <trkpt lat="44.70066" lon="6.87659">
        <ele>2202</ele>
        <time>2020-08-03T09:39:06Z</time>
      </trkpt>
      <trkpt lat="44.70065" lon="6.87651">
        <ele>2200</ele>
        <time>2020-08-03T09:39:07Z</time>
      </trkpt>
      <trkpt lat="44.70064" lon="6.87635">
        <ele>2195</ele>
        <time>2020-08-03T09:39:09Z</time>
      </trkpt>
      <trkpt lat="44.70063" lon="6.87621">
        <ele>2192</ele>
        <time>2020-08-03T09:39:11Z</time>
      </trkpt>
      <trkpt lat="44.70062" lon="6.87609">
        <ele>2189</ele>
        <time>2020-08-03T09:39:13Z</time>
      </trkpt>
      <trkpt lat="44.70059" lon="6.87597">
        <ele>2186</ele>
        <time>2020-08-03T09:39:15Z</time>
      </trkpt>
      <trkpt lat="44.70058" lon="6.87582">
        <ele>2184</ele>
        <time>2020-08-03T09:39:18Z</time>
      </trkpt>
      <trkpt lat="44.70056" lon="6.87569">
        <ele>2181</ele>
        <time>2020-08-03T09:39:21Z</time>
      </trkpt>
      <trkpt lat="44.70055" lon="6.87564">
        <ele>2181</ele>
        <time>2020-08-03T09:39:22Z</time>
      </trkpt>
      <trkpt lat="44.70053" lon="6.87556">
        <ele>2179</ele>
        <time>2020-08-03T09:39:23Z</time>
      </trkpt>
      <trkpt lat="44.70048" lon="6.87532">
        <ele>2174</ele>
        <time>2020-08-03T09:39:26Z</time>
      </trkpt>
      <trkpt lat="44.70046" lon="6.87525">
        <ele>2173</ele>
        <time>2020-08-03T09:39:27Z</time>
      </trkpt>
      <trkpt lat="44.70044" lon="6.87512">
        <ele>2171</ele>
        <time>2020-08-03T09:39:29Z</time>
      </trkpt>
      <trkpt lat="44.70042" lon="6.875">
        <ele>2169</ele>
        <time>2020-08-03T09:39:31Z</time>
      </trkpt>
      <trkpt lat="44.70039" lon="6.87488">
        <ele>2166</ele>
        <time>2020-08-03T09:39:33Z</time>
      </trkpt>
      <trkpt lat="44.70038" lon="6.87481">
        <ele>2165</ele>
        <time>2020-08-03T09:39:34Z</time>
      </trkpt>
      <trkpt lat="44.70037" lon="6.87466">
        <ele>2161</ele>
        <time>2020-08-03T09:39:36Z</time>
      </trkpt>
      <trkpt lat="44.70036" lon="6.87459">
        <ele>2160</ele>
        <time>2020-08-03T09:39:37Z</time>
      </trkpt>
      <trkpt lat="44.70036" lon="6.87451">
        <ele>2158</ele>
        <time>2020-08-03T09:39:38Z</time>
      </trkpt>
      <trkpt lat="44.70035" lon="6.87442">
        <ele>2155</ele>
        <time>2020-08-03T09:39:39Z</time>
      </trkpt>
      <trkpt lat="44.70035" lon="6.87433">
        <ele>2153</ele>
        <time>2020-08-03T09:39:40Z</time>
      </trkpt>
      <trkpt lat="44.70035" lon="6.87417">
        <ele>2150</ele>
        <time>2020-08-03T09:39:42Z</time>
      </trkpt>
      <trkpt lat="44.70035" lon="6.87405">
        <ele>2147</ele>
        <time>2020-08-03T09:39:44Z</time>
      </trkpt>
      <trkpt lat="44.70036" lon="6.87399">
        <ele>2146</ele>
        <time>2020-08-03T09:39:45Z</time>
      </trkpt>
      <trkpt lat="44.70034" lon="6.8738">
        <ele>2142</ele>
        <time>2020-08-03T09:39:48Z</time>
      </trkpt>
      <trkpt lat="44.70035" lon="6.87371">
        <ele>2140</ele>
        <time>2020-08-03T09:39:49Z</time>
      </trkpt>
      <trkpt lat="44.70035" lon="6.87363">
        <ele>2138</ele>
        <time>2020-08-03T09:39:50Z</time>
      </trkpt>
      <trkpt lat="44.70039" lon="6.8734">
        <ele>2135</ele>
        <time>2020-08-03T09:39:53Z</time>
      </trkpt>
      <trkpt lat="44.70039" lon="6.87332">
        <ele>2133</ele>
        <time>2020-08-03T09:39:54Z</time>
      </trkpt>
      <trkpt lat="44.70038" lon="6.87324">
        <ele>2132</ele>
        <time>2020-08-03T09:39:55Z</time>
      </trkpt>
      <trkpt lat="44.70038" lon="6.87315">
        <ele>2131</ele>
        <time>2020-08-03T09:39:56Z</time>
      </trkpt>
      <trkpt lat="44.70037" lon="6.87305">
        <ele>2129</ele>
        <time>2020-08-03T09:39:57Z</time>
      </trkpt>
      <trkpt lat="44.70037" lon="6.87294">
        <ele>2128</ele>
        <time>2020-08-03T09:39:58Z</time>
      </trkpt>
      <trkpt lat="44.70037" lon="6.87283">
        <ele>2127</ele>
        <time>2020-08-03T09:39:59Z</time>
      </trkpt>
      <trkpt lat="44.70041" lon="6.8725">
        <ele>2123</ele>
        <time>2020-08-03T09:40:02Z</time>
      </trkpt>
      <trkpt lat="44.70043" lon="6.8724">
        <ele>2122</ele>
        <time>2020-08-03T09:40:03Z</time>
      </trkpt>
      <trkpt lat="44.70044" lon="6.87232">
        <ele>2120</ele>
        <time>2020-08-03T09:40:04Z</time>
      </trkpt>
      <trkpt lat="44.70045" lon="6.8722">
        <ele>2119</ele>
        <time>2020-08-03T09:40:06Z</time>
      </trkpt>
      <trkpt lat="44.70046" lon="6.8721">
        <ele>2117</ele>
        <time>2020-08-03T09:40:08Z</time>
      </trkpt>
      <trkpt lat="44.70045" lon="6.872">
        <ele>2116</ele>
        <time>2020-08-03T09:40:10Z</time>
      </trkpt>
      <trkpt lat="44.70044" lon="6.87193">
        <ele>2114</ele>
        <time>2020-08-03T09:40:12Z</time>
      </trkpt>
      <trkpt lat="44.70043" lon="6.87192">
        <ele>2114</ele>
        <time>2020-08-03T09:40:16Z</time>
      </trkpt>
      <trkpt lat="44.70043" lon="6.87192">
        <ele>2114</ele>
        <time>2020-08-03T09:40:17Z</time>
      </trkpt>
      <trkpt lat="44.70044" lon="6.87184">
        <ele>2112</ele>
        <time>2020-08-03T09:40:27Z</time>
      </trkpt>
      <trkpt lat="44.70042" lon="6.87176">
        <ele>2110</ele>
        <time>2020-08-03T09:40:32Z</time>
      </trkpt>
      <trkpt lat="44.7004" lon="6.87173">
        <ele>2109</ele>
        <time>2020-08-03T09:40:33Z</time>
      </trkpt>
      <trkpt lat="44.7004" lon="6.8717">
        <ele>2108</ele>
        <time>2020-08-03T09:40:34Z</time>
      </trkpt>
      <trkpt lat="44.70041" lon="6.87165">
        <ele>2107</ele>
        <time>2020-08-03T09:40:35Z</time>
      </trkpt>
      <trkpt lat="44.70043" lon="6.87161">
        <ele>2106</ele>
        <time>2020-08-03T09:40:36Z</time>
      </trkpt>
      <trkpt lat="44.70043" lon="6.87156">
        <ele>2105</ele>
        <time>2020-08-03T09:40:37Z</time>
      </trkpt>
      <trkpt lat="44.70043" lon="6.87151">
        <ele>2103</ele>
        <time>2020-08-03T09:40:38Z</time>
      </trkpt>
      <trkpt lat="44.70044" lon="6.87146">
        <ele>2102</ele>
        <time>2020-08-03T09:40:39Z</time>
      </trkpt>
      <trkpt lat="44.70045" lon="6.87141">
        <ele>2100</ele>
        <time>2020-08-03T09:40:40Z</time>
      </trkpt>
      <trkpt lat="44.70044" lon="6.87133">
        <ele>2098</ele>
        <time>2020-08-03T09:40:41Z</time>
      </trkpt>
      <trkpt lat="44.70043" lon="6.87126">
        <ele>2095</ele>
        <time>2020-08-03T09:40:42Z</time>
      </trkpt>
      <trkpt lat="44.70042" lon="6.87119">
        <ele>2093</ele>
        <time>2020-08-03T09:40:43Z</time>
      </trkpt>
      <trkpt lat="44.70042" lon="6.87111">
        <ele>2091</ele>
        <time>2020-08-03T09:40:44Z</time>
      </trkpt>
      <trkpt lat="44.70042" lon="6.87105">
        <ele>2090</ele>
        <time>2020-08-03T09:40:45Z</time>
      </trkpt>
      <trkpt lat="44.70041" lon="6.87099">
        <ele>2088</ele>
        <time>2020-08-03T09:40:46Z</time>
      </trkpt>
      <trkpt lat="44.70041" lon="6.87093">
        <ele>2087</ele>
        <time>2020-08-03T09:40:47Z</time>
      </trkpt>
      <trkpt lat="44.70036" lon="6.87077">
        <ele>2081</ele>
        <time>2020-08-03T09:40:50Z</time>
      </trkpt>
      <trkpt lat="44.70032" lon="6.87062">
        <ele>2077</ele>
        <time>2020-08-03T09:40:53Z</time>
      </trkpt>
      <trkpt lat="44.70031" lon="6.87057">
        <ele>2075</ele>
        <time>2020-08-03T09:40:54Z</time>
      </trkpt>
      <trkpt lat="44.70028" lon="6.87044">
        <ele>2070</ele>
        <time>2020-08-03T09:40:56Z</time>
      </trkpt>
      <trkpt lat="44.70021" lon="6.87023">
        <ele>2063</ele>
        <time>2020-08-03T09:41:00Z</time>
      </trkpt>
      <trkpt lat="44.70016" lon="6.87008">
        <ele>2059</ele>
        <time>2020-08-03T09:41:03Z</time>
      </trkpt>
      <trkpt lat="44.70015" lon="6.87">
        <ele>2058</ele>
        <time>2020-08-03T09:41:05Z</time>
      </trkpt>
      <trkpt lat="44.70011" lon="6.86987">
        <ele>2055</ele>
        <time>2020-08-03T09:41:09Z</time>
      </trkpt>
      <trkpt lat="44.7001" lon="6.86983">
        <ele>2055</ele>
        <time>2020-08-03T09:41:10Z</time>
      </trkpt>
      <trkpt lat="44.7001" lon="6.86979">
        <ele>2054</ele>
        <time>2020-08-03T09:41:11Z</time>
      </trkpt>
      <trkpt lat="44.70008" lon="6.86976">
        <ele>2054</ele>
        <time>2020-08-03T09:41:12Z</time>
      </trkpt>
      <trkpt lat="44.70007" lon="6.86972">
        <ele>2053</ele>
        <time>2020-08-03T09:41:13Z</time>
      </trkpt>
      <trkpt lat="44.70006" lon="6.86967">
        <ele>2052</ele>
        <time>2020-08-03T09:41:14Z</time>
      </trkpt>
      <trkpt lat="44.70004" lon="6.86958">
        <ele>2051</ele>
        <time>2020-08-03T09:41:17Z</time>
      </trkpt>
      <trkpt lat="44.70003" lon="6.86952">
        <ele>2050</ele>
        <time>2020-08-03T09:41:19Z</time>
      </trkpt>
      <trkpt lat="44.70003" lon="6.86948">
        <ele>2050</ele>
        <time>2020-08-03T09:41:20Z</time>
      </trkpt>
      <trkpt lat="44.70002" lon="6.86932">
        <ele>2047</ele>
        <time>2020-08-03T09:41:24Z</time>
      </trkpt>
      <trkpt lat="44.70001" lon="6.86917">
        <ele>2045</ele>
        <time>2020-08-03T09:41:29Z</time>
      </trkpt>
      <trkpt lat="44.7" lon="6.86903">
        <ele>2043</ele>
        <time>2020-08-03T09:41:33Z</time>
      </trkpt>
      <trkpt lat="44.69999" lon="6.869">
        <ele>2042</ele>
        <time>2020-08-03T09:41:34Z</time>
      </trkpt>
      <trkpt lat="44.69991" lon="6.86886">
        <ele>2040</ele>
        <time>2020-08-03T09:41:40Z</time>
      </trkpt>
      <trkpt lat="44.6999" lon="6.86884">
        <ele>2039</ele>
        <time>2020-08-03T09:41:42Z</time>
      </trkpt>
      <trkpt lat="44.69988" lon="6.86884">
        <ele>2039</ele>
        <time>2020-08-03T09:41:43Z</time>
      </trkpt>
      <trkpt lat="44.69987" lon="6.86886">
        <ele>2039</ele>
        <time>2020-08-03T09:41:44Z</time>
      </trkpt>
      <trkpt lat="44.6998" lon="6.86892">
        <ele>2039</ele>
        <time>2020-08-03T09:41:49Z</time>
      </trkpt>
      <trkpt lat="44.69977" lon="6.86901">
        <ele>2039</ele>
        <time>2020-08-03T09:41:57Z</time>
      </trkpt>
      <trkpt lat="44.69978" lon="6.86895">
        <ele>2039</ele>
        <time>2020-08-03T10:01:18Z</time>
      </trkpt>
      <trkpt lat="44.69979" lon="6.86894">
        <ele>2039</ele>
        <time>2020-08-03T10:01:19Z</time>
      </trkpt>
      <trkpt lat="44.6998" lon="6.86892">
        <ele>2039</ele>
        <time>2020-08-03T10:01:20Z</time>
      </trkpt>
      <trkpt lat="44.69981" lon="6.86891">
        <ele>2039</ele>
        <time>2020-08-03T10:01:21Z</time>
      </trkpt>
      <trkpt lat="44.69982" lon="6.8689">
        <ele>2039</ele>
        <time>2020-08-03T10:01:22Z</time>
      </trkpt>
      <trkpt lat="44.69984" lon="6.86885">
        <ele>2039</ele>
        <time>2020-08-03T10:01:25Z</time>
      </trkpt>
      <trkpt lat="44.69984" lon="6.86883">
        <ele>2039</ele>
        <time>2020-08-03T10:01:26Z</time>
      </trkpt>
      <trkpt lat="44.70005" lon="6.8686">
        <ele>2039</ele>
        <time>2020-08-03T10:01:36Z</time>
      </trkpt>
      <trkpt lat="44.70019" lon="6.86843">
        <ele>2040</ele>
        <time>2020-08-03T10:01:46Z</time>
      </trkpt>
      <trkpt lat="44.70041" lon="6.86818">
        <ele>2044</ele>
        <time>2020-08-03T10:02:04Z</time>
      </trkpt>
      <trkpt lat="44.70052" lon="6.86797">
        <ele>2047</ele>
        <time>2020-08-03T10:02:16Z</time>
      </trkpt>
      <trkpt lat="44.70069" lon="6.86763">
        <ele>2048</ele>
        <time>2020-08-03T10:02:31Z</time>
      </trkpt>
      <trkpt lat="44.7008" lon="6.86742">
        <ele>2048</ele>
        <time>2020-08-03T10:02:40Z</time>
      </trkpt>
      <trkpt lat="44.701" lon="6.86714">
        <ele>2049</ele>
        <time>2020-08-03T10:02:54Z</time>
      </trkpt>
      <trkpt lat="44.70123" lon="6.86683">
        <ele>2051</ele>
        <time>2020-08-03T10:03:11Z</time>
      </trkpt>
      <trkpt lat="44.70148" lon="6.86659">
        <ele>2054</ele>
        <time>2020-08-03T10:03:25Z</time>
      </trkpt>
      <trkpt lat="44.70176" lon="6.86615">
        <ele>2052</ele>
        <time>2020-08-03T10:03:37Z</time>
      </trkpt>
      <trkpt lat="44.70179" lon="6.86609">
        <ele>2051</ele>
        <time>2020-08-03T10:03:38Z</time>
      </trkpt>
      <trkpt lat="44.70182" lon="6.86605">
        <ele>2051</ele>
        <time>2020-08-03T10:03:39Z</time>
      </trkpt>
      <trkpt lat="44.70187" lon="6.86601">
        <ele>2051</ele>
        <time>2020-08-03T10:03:40Z</time>
      </trkpt>
      <trkpt lat="44.7019" lon="6.86596">
        <ele>2051</ele>
        <time>2020-08-03T10:03:41Z</time>
      </trkpt>
      <trkpt lat="44.70193" lon="6.86591">
        <ele>2050</ele>
        <time>2020-08-03T10:03:42Z</time>
      </trkpt>
      <trkpt lat="44.70196" lon="6.86584">
        <ele>2050</ele>
        <time>2020-08-03T10:03:43Z</time>
      </trkpt>
      <trkpt lat="44.70198" lon="6.86577">
        <ele>2048</ele>
        <time>2020-08-03T10:03:44Z</time>
      </trkpt>
      <trkpt lat="44.70202" lon="6.8657">
        <ele>2047</ele>
        <time>2020-08-03T10:03:45Z</time>
      </trkpt>
      <trkpt lat="44.70205" lon="6.86562">
        <ele>2046</ele>
        <time>2020-08-03T10:03:46Z</time>
      </trkpt>
      <trkpt lat="44.70211" lon="6.86549">
        <ele>2044</ele>
        <time>2020-08-03T10:03:48Z</time>
      </trkpt>
      <trkpt lat="44.70214" lon="6.86545">
        <ele>2044</ele>
        <time>2020-08-03T10:03:49Z</time>
      </trkpt>
      <trkpt lat="44.70217" lon="6.86539">
        <ele>2043</ele>
        <time>2020-08-03T10:03:50Z</time>
      </trkpt>
      <trkpt lat="44.70225" lon="6.8652">
        <ele>2042</ele>
        <time>2020-08-03T10:03:54Z</time>
      </trkpt>
      <trkpt lat="44.70226" lon="6.86515">
        <ele>2042</ele>
        <time>2020-08-03T10:03:55Z</time>
      </trkpt>
      <trkpt lat="44.70227" lon="6.8651">
        <ele>2042</ele>
        <time>2020-08-03T10:03:56Z</time>
      </trkpt>
      <trkpt lat="44.70229" lon="6.86503">
        <ele>2042</ele>
        <time>2020-08-03T10:03:57Z</time>
      </trkpt>
      <trkpt lat="44.70232" lon="6.86496">
        <ele>2041</ele>
        <time>2020-08-03T10:03:58Z</time>
      </trkpt>
      <trkpt lat="44.70238" lon="6.86482">
        <ele>2041</ele>
        <time>2020-08-03T10:04:00Z</time>
      </trkpt>
      <trkpt lat="44.7024" lon="6.86478">
        <ele>2041</ele>
        <time>2020-08-03T10:04:01Z</time>
      </trkpt>
      <trkpt lat="44.70242" lon="6.86474">
        <ele>2041</ele>
        <time>2020-08-03T10:04:02Z</time>
      </trkpt>
      <trkpt lat="44.70243" lon="6.8647">
        <ele>2040</ele>
        <time>2020-08-03T10:04:03Z</time>
      </trkpt>
      <trkpt lat="44.70244" lon="6.86466">
        <ele>2040</ele>
        <time>2020-08-03T10:04:04Z</time>
      </trkpt>
      <trkpt lat="44.70244" lon="6.86461">
        <ele>2039</ele>
        <time>2020-08-03T10:04:05Z</time>
      </trkpt>
      <trkpt lat="44.70245" lon="6.86456">
        <ele>2039</ele>
        <time>2020-08-03T10:04:06Z</time>
      </trkpt>
      <trkpt lat="44.70246" lon="6.86453">
        <ele>2039</ele>
        <time>2020-08-03T10:04:07Z</time>
      </trkpt>
      <trkpt lat="44.70247" lon="6.86449">
        <ele>2039</ele>
        <time>2020-08-03T10:04:08Z</time>
      </trkpt>
      <trkpt lat="44.70248" lon="6.86446">
        <ele>2038</ele>
        <time>2020-08-03T10:04:09Z</time>
      </trkpt>
      <trkpt lat="44.70249" lon="6.86438">
        <ele>2038</ele>
        <time>2020-08-03T10:04:11Z</time>
      </trkpt>
      <trkpt lat="44.7025" lon="6.86426">
        <ele>2037</ele>
        <time>2020-08-03T10:04:15Z</time>
      </trkpt>
      <trkpt lat="44.70257" lon="6.86402">
        <ele>2035</ele>
        <time>2020-08-03T10:04:21Z</time>
      </trkpt>
      <trkpt lat="44.70258" lon="6.86396">
        <ele>2034</ele>
        <time>2020-08-03T10:04:22Z</time>
      </trkpt>
      <trkpt lat="44.70261" lon="6.8639">
        <ele>2034</ele>
        <time>2020-08-03T10:04:23Z</time>
      </trkpt>
      <trkpt lat="44.70267" lon="6.86379">
        <ele>2033</ele>
        <time>2020-08-03T10:04:25Z</time>
      </trkpt>
      <trkpt lat="44.7027" lon="6.86374">
        <ele>2033</ele>
        <time>2020-08-03T10:04:26Z</time>
      </trkpt>
      <trkpt lat="44.703" lon="6.86346">
        <ele>2037</ele>
        <time>2020-08-03T10:04:33Z</time>
      </trkpt>
      <trkpt lat="44.70335" lon="6.8631">
        <ele>2036</ele>
        <time>2020-08-03T10:04:44Z</time>
      </trkpt>
      <trkpt lat="44.70347" lon="6.86288">
        <ele>2033</ele>
        <time>2020-08-03T10:04:48Z</time>
      </trkpt>
      <trkpt lat="44.7035" lon="6.86281">
        <ele>2032</ele>
        <time>2020-08-03T10:04:49Z</time>
      </trkpt>
      <trkpt lat="44.70353" lon="6.86274">
        <ele>2031</ele>
        <time>2020-08-03T10:04:50Z</time>
      </trkpt>
      <trkpt lat="44.70357" lon="6.86266">
        <ele>2030</ele>
        <time>2020-08-03T10:04:51Z</time>
      </trkpt>
      <trkpt lat="44.70362" lon="6.86258">
        <ele>2029</ele>
        <time>2020-08-03T10:04:52Z</time>
      </trkpt>
      <trkpt lat="44.70366" lon="6.86249">
        <ele>2028</ele>
        <time>2020-08-03T10:04:53Z</time>
      </trkpt>
      <trkpt lat="44.7037" lon="6.86239">
        <ele>2028</ele>
        <time>2020-08-03T10:04:54Z</time>
      </trkpt>
      <trkpt lat="44.70395" lon="6.86182">
        <ele>2026</ele>
        <time>2020-08-03T10:05:00Z</time>
      </trkpt>
      <trkpt lat="44.70408" lon="6.8615">
        <ele>2026</ele>
        <time>2020-08-03T10:05:04Z</time>
      </trkpt>
      <trkpt lat="44.70427" lon="6.86113">
        <ele>2023</ele>
        <time>2020-08-03T10:05:10Z</time>
      </trkpt>
      <trkpt lat="44.70434" lon="6.86102">
        <ele>2023</ele>
        <time>2020-08-03T10:05:12Z</time>
      </trkpt>
      <trkpt lat="44.70462" lon="6.8606">
        <ele>2022</ele>
        <time>2020-08-03T10:05:20Z</time>
      </trkpt>
      <trkpt lat="44.70467" lon="6.86055">
        <ele>2022</ele>
        <time>2020-08-03T10:05:21Z</time>
      </trkpt>
      <trkpt lat="44.70472" lon="6.8605">
        <ele>2022</ele>
        <time>2020-08-03T10:05:22Z</time>
      </trkpt>
      <trkpt lat="44.70534" lon="6.85972">
        <ele>2015</ele>
        <time>2020-08-03T10:05:32Z</time>
      </trkpt>
      <trkpt lat="44.70565" lon="6.85938">
        <ele>2011</ele>
        <time>2020-08-03T10:05:36Z</time>
      </trkpt>
      <trkpt lat="44.70588" lon="6.8591">
        <ele>2007</ele>
        <time>2020-08-03T10:05:39Z</time>
      </trkpt>
      <trkpt lat="44.70605" lon="6.85896">
        <ele>2006</ele>
        <time>2020-08-03T10:05:42Z</time>
      </trkpt>
      <trkpt lat="44.70614" lon="6.8589">
        <ele>2006</ele>
        <time>2020-08-03T10:05:44Z</time>
      </trkpt>
      <trkpt lat="44.7062" lon="6.85889">
        <ele>2006</ele>
        <time>2020-08-03T10:05:45Z</time>
      </trkpt>
      <trkpt lat="44.70626" lon="6.85888">
        <ele>2006</ele>
        <time>2020-08-03T10:05:46Z</time>
      </trkpt>
      <trkpt lat="44.70649" lon="6.85884">
        <ele>2005</ele>
        <time>2020-08-03T10:05:49Z</time>
      </trkpt>
      <trkpt lat="44.70657" lon="6.85881">
        <ele>2004</ele>
        <time>2020-08-03T10:05:50Z</time>
      </trkpt>
      <trkpt lat="44.70666" lon="6.85876">
        <ele>2003</ele>
        <time>2020-08-03T10:05:51Z</time>
      </trkpt>
      <trkpt lat="44.70681" lon="6.85865">
        <ele>2001</ele>
        <time>2020-08-03T10:05:53Z</time>
      </trkpt>
      <trkpt lat="44.70696" lon="6.85853">
        <ele>1999</ele>
        <time>2020-08-03T10:05:55Z</time>
      </trkpt>
      <trkpt lat="44.70725" lon="6.85834">
        <ele>1998</ele>
        <time>2020-08-03T10:05:59Z</time>
      </trkpt>
      <trkpt lat="44.70747" lon="6.85818">
        <ele>1998</ele>
        <time>2020-08-03T10:06:02Z</time>
      </trkpt>
      <trkpt lat="44.70802" lon="6.85776">
        <ele>1995</ele>
        <time>2020-08-03T10:06:09Z</time>
      </trkpt>
      <trkpt lat="44.70807" lon="6.85769">
        <ele>1994</ele>
        <time>2020-08-03T10:06:10Z</time>
      </trkpt>
      <trkpt lat="44.70813" lon="6.85761">
        <ele>1993</ele>
        <time>2020-08-03T10:06:11Z</time>
      </trkpt>
      <trkpt lat="44.70825" lon="6.85744">
        <ele>1991</ele>
        <time>2020-08-03T10:06:13Z</time>
      </trkpt>
      <trkpt lat="44.70837" lon="6.85724">
        <ele>1988</ele>
        <time>2020-08-03T10:06:15Z</time>
      </trkpt>
      <trkpt lat="44.70846" lon="6.85704">
        <ele>1987</ele>
        <time>2020-08-03T10:06:17Z</time>
      </trkpt>
      <trkpt lat="44.70877" lon="6.85651">
        <ele>1978</ele>
        <time>2020-08-03T10:06:23Z</time>
      </trkpt>
      <trkpt lat="44.70888" lon="6.85634">
        <ele>1975</ele>
        <time>2020-08-03T10:06:27Z</time>
      </trkpt>
      <trkpt lat="44.70889" lon="6.85633">
        <ele>1975</ele>
        <time>2020-08-03T10:06:30Z</time>
      </trkpt>
      <trkpt lat="44.70891" lon="6.85632">
        <ele>1975</ele>
        <time>2020-08-03T10:06:32Z</time>
      </trkpt>
      <trkpt lat="44.709" lon="6.85607">
        <ele>1971</ele>
        <time>2020-08-03T10:06:38Z</time>
      </trkpt>
      <trkpt lat="44.70904" lon="6.85594">
        <ele>1969</ele>
        <time>2020-08-03T10:06:40Z</time>
      </trkpt>
      <trkpt lat="44.70923" lon="6.85563">
        <ele>1965</ele>
        <time>2020-08-03T10:06:46Z</time>
      </trkpt>
      <trkpt lat="44.70946" lon="6.85528">
        <ele>1961</ele>
        <time>2020-08-03T10:06:50Z</time>
      </trkpt>
      <trkpt lat="44.70973" lon="6.85491">
        <ele>1952</ele>
        <time>2020-08-03T10:06:54Z</time>
      </trkpt>
      <trkpt lat="44.70985" lon="6.85474">
        <ele>1946</ele>
        <time>2020-08-03T10:06:56Z</time>
      </trkpt>
      <trkpt lat="44.70992" lon="6.85466">
        <ele>1944</ele>
        <time>2020-08-03T10:06:57Z</time>
      </trkpt>
      <trkpt lat="44.70997" lon="6.8546">
        <ele>1943</ele>
        <time>2020-08-03T10:06:58Z</time>
      </trkpt>
      <trkpt lat="44.71015" lon="6.85448">
        <ele>1941</ele>
        <time>2020-08-03T10:07:01Z</time>
      </trkpt>
      <trkpt lat="44.71035" lon="6.85436">
        <ele>1937</ele>
        <time>2020-08-03T10:07:04Z</time>
      </trkpt>
      <trkpt lat="44.71056" lon="6.85421">
        <ele>1932</ele>
        <time>2020-08-03T10:07:08Z</time>
      </trkpt>
      <trkpt lat="44.71084" lon="6.85397">
        <ele>1928</ele>
        <time>2020-08-03T10:07:13Z</time>
      </trkpt>
      <trkpt lat="44.71099" lon="6.85383">
        <ele>1925</ele>
        <time>2020-08-03T10:07:16Z</time>
      </trkpt>
      <trkpt lat="44.71113" lon="6.85367">
        <ele>1923</ele>
        <time>2020-08-03T10:07:20Z</time>
      </trkpt>
      <trkpt lat="44.71122" lon="6.85356">
        <ele>1920</ele>
        <time>2020-08-03T10:07:23Z</time>
      </trkpt>
      <trkpt lat="44.71126" lon="6.85352">
        <ele>1919</ele>
        <time>2020-08-03T10:07:25Z</time>
      </trkpt>
      <trkpt lat="44.71124" lon="6.85341">
        <ele>1917</ele>
        <time>2020-08-03T10:07:29Z</time>
      </trkpt>
      <trkpt lat="44.71145" lon="6.85316">
        <ele>1910</ele>
        <time>2020-08-03T10:07:34Z</time>
      </trkpt>
      <trkpt lat="44.71172" lon="6.85297">
        <ele>1905</ele>
        <time>2020-08-03T10:07:38Z</time>
      </trkpt>
      <trkpt lat="44.71191" lon="6.85287">
        <ele>1902</ele>
        <time>2020-08-03T10:07:41Z</time>
      </trkpt>
      <trkpt lat="44.71205" lon="6.85271">
        <ele>1897</ele>
        <time>2020-08-03T10:07:44Z</time>
      </trkpt>
      <trkpt lat="44.71217" lon="6.85264">
        <ele>1894</ele>
        <time>2020-08-03T10:07:46Z</time>
      </trkpt>
      <trkpt lat="44.71252" lon="6.85264">
        <ele>1888</ele>
        <time>2020-08-03T10:07:51Z</time>
      </trkpt>
      <trkpt lat="44.71282" lon="6.85269">
        <ele>1883</ele>
        <time>2020-08-03T10:07:55Z</time>
      </trkpt>
      <trkpt lat="44.7129" lon="6.8527">
        <ele>1880</ele>
        <time>2020-08-03T10:07:56Z</time>
      </trkpt>
      <trkpt lat="44.71314" lon="6.85268">
        <ele>1874</ele>
        <time>2020-08-03T10:08:00Z</time>
      </trkpt>
      <trkpt lat="44.71324" lon="6.8527">
        <ele>1874</ele>
        <time>2020-08-03T10:08:03Z</time>
      </trkpt>
      <trkpt lat="44.71327" lon="6.85272">
        <ele>1875</ele>
        <time>2020-08-03T10:08:05Z</time>
      </trkpt>
      <trkpt lat="44.7133" lon="6.85275">
        <ele>1876</ele>
        <time>2020-08-03T10:08:07Z</time>
      </trkpt>
      <trkpt lat="44.71332" lon="6.85278">
        <ele>1877</ele>
        <time>2020-08-03T10:08:11Z</time>
      </trkpt>
      <trkpt lat="44.7133" lon="6.8528">
        <ele>1878</ele>
        <time>2020-08-03T10:08:19Z</time>
      </trkpt>
      <trkpt lat="44.71337" lon="6.85274">
        <ele>1875</ele>
        <time>2020-08-03T10:08:48Z</time>
      </trkpt>
      <trkpt lat="44.71354" lon="6.85265">
        <ele>1873</ele>
        <time>2020-08-03T10:08:52Z</time>
      </trkpt>
      <trkpt lat="44.71377" lon="6.8526">
        <ele>1871</ele>
        <time>2020-08-03T10:08:59Z</time>
      </trkpt>
      <trkpt lat="44.71398" lon="6.85269">
        <ele>1871</ele>
        <time>2020-08-03T10:09:04Z</time>
      </trkpt>
      <trkpt lat="44.71403" lon="6.8526">
        <ele>1866</ele>
        <time>2020-08-03T10:09:08Z</time>
      </trkpt>
      <trkpt lat="44.71407" lon="6.85255">
        <ele>1863</ele>
        <time>2020-08-03T10:09:10Z</time>
      </trkpt>
      <trkpt lat="44.7141" lon="6.85251">
        <ele>1861</ele>
        <time>2020-08-03T10:09:11Z</time>
      </trkpt>
      <trkpt lat="44.71442" lon="6.85223">
        <ele>1850</ele>
        <time>2020-08-03T10:09:18Z</time>
      </trkpt>
      <trkpt lat="44.71452" lon="6.85221">
        <ele>1850</ele>
        <time>2020-08-03T10:09:22Z</time>
      </trkpt>
      <trkpt lat="44.7146" lon="6.85219">
        <ele>1850</ele>
        <time>2020-08-03T10:09:25Z</time>
      </trkpt>
      <trkpt lat="44.71464" lon="6.85216">
        <ele>1849</ele>
        <time>2020-08-03T10:09:27Z</time>
      </trkpt>
      <trkpt lat="44.71485" lon="6.85205">
        <ele>1844</ele>
        <time>2020-08-03T10:09:36Z</time>
      </trkpt>
      <trkpt lat="44.715" lon="6.85198">
        <ele>1841</ele>
        <time>2020-08-03T10:09:42Z</time>
      </trkpt>
      <trkpt lat="44.71501" lon="6.85195">
        <ele>1840</ele>
        <time>2020-08-03T10:09:44Z</time>
      </trkpt>
      <trkpt lat="44.71487" lon="6.85188">
        <ele>1838</ele>
        <time>2020-08-03T10:09:51Z</time>
      </trkpt>
      <trkpt lat="44.71481" lon="6.85178">
        <ele>1835</ele>
        <time>2020-08-03T10:09:56Z</time>
      </trkpt>
      <trkpt lat="44.7147" lon="6.85175">
        <ele>1834</ele>
        <time>2020-08-03T10:10:00Z</time>
      </trkpt>
      <trkpt lat="44.71464" lon="6.85174">
        <ele>1834</ele>
        <time>2020-08-03T10:10:02Z</time>
      </trkpt>
      <trkpt lat="44.71435" lon="6.85167">
        <ele>1830</ele>
        <time>2020-08-03T10:10:11Z</time>
      </trkpt>
      <trkpt lat="44.71431" lon="6.85165">
        <ele>1830</ele>
        <time>2020-08-03T10:10:14Z</time>
      </trkpt>
      <trkpt lat="44.7142" lon="6.85166">
        <ele>1829</ele>
        <time>2020-08-03T10:10:20Z</time>
      </trkpt>
      <trkpt lat="44.71408" lon="6.85162">
        <ele>1829</ele>
        <time>2020-08-03T10:10:29Z</time>
      </trkpt>
      <trkpt lat="44.71407" lon="6.85161">
        <ele>1829</ele>
        <time>2020-08-03T10:10:30Z</time>
      </trkpt>
      <trkpt lat="44.71403" lon="6.85135">
        <ele>1824</ele>
        <time>2020-08-03T10:10:38Z</time>
      </trkpt>
      <trkpt lat="44.71403" lon="6.85131">
        <ele>1823</ele>
        <time>2020-08-03T10:10:39Z</time>
      </trkpt>
      <trkpt lat="44.714" lon="6.85114">
        <ele>1820</ele>
        <time>2020-08-03T10:10:42Z</time>
      </trkpt>
      <trkpt lat="44.71379" lon="6.8509">
        <ele>1814</ele>
        <time>2020-08-03T10:10:49Z</time>
      </trkpt>
      <trkpt lat="44.71373" lon="6.8509">
        <ele>1814</ele>
        <time>2020-08-03T10:10:50Z</time>
      </trkpt>
      <trkpt lat="44.71361" lon="6.8509">
        <ele>1813</ele>
        <time>2020-08-03T10:10:52Z</time>
      </trkpt>
      <trkpt lat="44.71346" lon="6.8509">
        <ele>1813</ele>
        <time>2020-08-03T10:10:55Z</time>
      </trkpt>
      <trkpt lat="44.71324" lon="6.85093">
        <ele>1813</ele>
        <time>2020-08-03T10:10:59Z</time>
      </trkpt>
      <trkpt lat="44.71309" lon="6.85093">
        <ele>1814</ele>
        <time>2020-08-03T10:11:04Z</time>
      </trkpt>
      <trkpt lat="44.71281" lon="6.85086">
        <ele>1812</ele>
        <time>2020-08-03T10:11:15Z</time>
      </trkpt>
      <trkpt lat="44.71256" lon="6.85059">
        <ele>1806</ele>
        <time>2020-08-03T10:11:25Z</time>
      </trkpt>
      <trkpt lat="44.71237" lon="6.85028">
        <ele>1795</ele>
        <time>2020-08-03T10:11:33Z</time>
      </trkpt>
      <trkpt lat="44.71251" lon="6.85019">
        <ele>1794</ele>
        <time>2020-08-03T10:11:36Z</time>
      </trkpt>
      <trkpt lat="44.71269" lon="6.85016">
        <ele>1794</ele>
        <time>2020-08-03T10:11:39Z</time>
      </trkpt>
      <trkpt lat="44.71281" lon="6.85012">
        <ele>1794</ele>
        <time>2020-08-03T10:11:41Z</time>
      </trkpt>
      <trkpt lat="44.7131" lon="6.85">
        <ele>1793</ele>
        <time>2020-08-03T10:11:46Z</time>
      </trkpt>
      <trkpt lat="44.71317" lon="6.84996">
        <ele>1792</ele>
        <time>2020-08-03T10:11:48Z</time>
      </trkpt>
      <trkpt lat="44.71306" lon="6.84976">
        <ele>1788</ele>
        <time>2020-08-03T10:11:54Z</time>
      </trkpt>
      <trkpt lat="44.71301" lon="6.84974">
        <ele>1788</ele>
        <time>2020-08-03T10:11:55Z</time>
      </trkpt>
      <trkpt lat="44.71291" lon="6.84972">
        <ele>1787</ele>
        <time>2020-08-03T10:11:58Z</time>
      </trkpt>
      <trkpt lat="44.71275" lon="6.8497">
        <ele>1787</ele>
        <time>2020-08-03T10:12:03Z</time>
      </trkpt>
      <trkpt lat="44.71257" lon="6.84967">
        <ele>1786</ele>
        <time>2020-08-03T10:12:08Z</time>
      </trkpt>
      <trkpt lat="44.71228" lon="6.84959">
        <ele>1783</ele>
        <time>2020-08-03T10:12:16Z</time>
      </trkpt>
      <trkpt lat="44.71223" lon="6.84954">
        <ele>1781</ele>
        <time>2020-08-03T10:12:18Z</time>
      </trkpt>
      <trkpt lat="44.71218" lon="6.84949">
        <ele>1780</ele>
        <time>2020-08-03T10:12:20Z</time>
      </trkpt>
      <trkpt lat="44.71204" lon="6.84947">
        <ele>1779</ele>
        <time>2020-08-03T10:12:25Z</time>
      </trkpt>
      <trkpt lat="44.71169" lon="6.84946">
        <ele>1773</ele>
        <time>2020-08-03T10:12:32Z</time>
      </trkpt>
      <trkpt lat="44.71128" lon="6.84929">
        <ele>1771</ele>
        <time>2020-08-03T10:12:40Z</time>
      </trkpt>
      <trkpt lat="44.71125" lon="6.84926">
        <ele>1771</ele>
        <time>2020-08-03T10:12:41Z</time>
      </trkpt>
      <trkpt lat="44.71123" lon="6.84922">
        <ele>1770</ele>
        <time>2020-08-03T10:12:42Z</time>
      </trkpt>
      <trkpt lat="44.71123" lon="6.84918">
        <ele>1769</ele>
        <time>2020-08-03T10:12:43Z</time>
      </trkpt>
      <trkpt lat="44.71125" lon="6.84915">
        <ele>1768</ele>
        <time>2020-08-03T10:12:44Z</time>
      </trkpt>
      <trkpt lat="44.71129" lon="6.84912">
        <ele>1768</ele>
        <time>2020-08-03T10:12:45Z</time>
      </trkpt>
      <trkpt lat="44.71134" lon="6.8491">
        <ele>1767</ele>
        <time>2020-08-03T10:12:46Z</time>
      </trkpt>
      <trkpt lat="44.71178" lon="6.84891">
        <ele>1765</ele>
        <time>2020-08-03T10:12:54Z</time>
      </trkpt>
      <trkpt lat="44.71214" lon="6.84882">
        <ele>1765</ele>
        <time>2020-08-03T10:13:00Z</time>
      </trkpt>
      <trkpt lat="44.7122" lon="6.84881">
        <ele>1766</ele>
        <time>2020-08-03T10:13:01Z</time>
      </trkpt>
      <trkpt lat="44.71338" lon="6.84859">
        <ele>1760</ele>
        <time>2020-08-03T10:13:19Z</time>
      </trkpt>
      <trkpt lat="44.7138" lon="6.8485">
        <ele>1759</ele>
        <time>2020-08-03T10:13:25Z</time>
      </trkpt>
      <trkpt lat="44.71386" lon="6.84849">
        <ele>1759</ele>
        <time>2020-08-03T10:13:26Z</time>
      </trkpt>
      <trkpt lat="44.71508" lon="6.84812">
        <ele>1755</ele>
        <time>2020-08-03T10:13:43Z</time>
      </trkpt>
      <trkpt lat="44.71612" lon="6.84776">
        <ele>1751</ele>
        <time>2020-08-03T10:13:57Z</time>
      </trkpt>
      <trkpt lat="44.71656" lon="6.8477">
        <ele>1752</ele>
        <time>2020-08-03T10:14:03Z</time>
      </trkpt>
      <trkpt lat="44.71734" lon="6.84785">
        <ele>1750</ele>
        <time>2020-08-03T10:14:14Z</time>
      </trkpt>
      <trkpt lat="44.71741" lon="6.84787">
        <ele>1749</ele>
        <time>2020-08-03T10:14:15Z</time>
      </trkpt>
      <trkpt lat="44.7181" lon="6.84802">
        <ele>1746</ele>
        <time>2020-08-03T10:14:25Z</time>
      </trkpt>
      <trkpt lat="44.71823" lon="6.84808">
        <ele>1748</ele>
        <time>2020-08-03T10:14:27Z</time>
      </trkpt>
      <trkpt lat="44.7183" lon="6.84808">
        <ele>1749</ele>
        <time>2020-08-03T10:14:28Z</time>
      </trkpt>
      <trkpt lat="44.71837" lon="6.84806">
        <ele>1749</ele>
        <time>2020-08-03T10:14:29Z</time>
      </trkpt>
      <trkpt lat="44.71842" lon="6.848">
        <ele>1748</ele>
        <time>2020-08-03T10:14:30Z</time>
      </trkpt>
      <trkpt lat="44.71846" lon="6.84792">
        <ele>1746</ele>
        <time>2020-08-03T10:14:31Z</time>
      </trkpt>
      <trkpt lat="44.71849" lon="6.84783">
        <ele>1744</ele>
        <time>2020-08-03T10:14:32Z</time>
      </trkpt>
      <trkpt lat="44.7185" lon="6.84773">
        <ele>1742</ele>
        <time>2020-08-03T10:14:33Z</time>
      </trkpt>
      <trkpt lat="44.71853" lon="6.84763">
        <ele>1740</ele>
        <time>2020-08-03T10:14:34Z</time>
      </trkpt>
      <trkpt lat="44.71857" lon="6.84755">
        <ele>1739</ele>
        <time>2020-08-03T10:14:35Z</time>
      </trkpt>
      <trkpt lat="44.71862" lon="6.84747">
        <ele>1738</ele>
        <time>2020-08-03T10:14:36Z</time>
      </trkpt>
      <trkpt lat="44.71868" lon="6.84741">
        <ele>1738</ele>
        <time>2020-08-03T10:14:37Z</time>
      </trkpt>
      <trkpt lat="44.71875" lon="6.84737">
        <ele>1738</ele>
        <time>2020-08-03T10:14:38Z</time>
      </trkpt>
      <trkpt lat="44.71882" lon="6.84733">
        <ele>1737</ele>
        <time>2020-08-03T10:14:39Z</time>
      </trkpt>
      <trkpt lat="44.71957" lon="6.84693">
        <ele>1736</ele>
        <time>2020-08-03T10:14:49Z</time>
      </trkpt>
      <trkpt lat="44.72004" lon="6.8467">
        <ele>1736</ele>
        <time>2020-08-03T10:14:55Z</time>
      </trkpt>
      <trkpt lat="44.72078" lon="6.84634">
        <ele>1733</ele>
        <time>2020-08-03T10:15:05Z</time>
      </trkpt>
      <trkpt lat="44.72153" lon="6.84603">
        <ele>1731</ele>
        <time>2020-08-03T10:15:16Z</time>
      </trkpt>
      <trkpt lat="44.72171" lon="6.846">
        <ele>1729</ele>
        <time>2020-08-03T10:15:19Z</time>
      </trkpt>
      <trkpt lat="44.722" lon="6.84599">
        <ele>1729</ele>
        <time>2020-08-03T10:15:25Z</time>
      </trkpt>
      <trkpt lat="44.72204" lon="6.84596">
        <ele>1729</ele>
        <time>2020-08-03T10:15:26Z</time>
      </trkpt>
      <trkpt lat="44.72242" lon="6.84572">
        <ele>1730</ele>
        <time>2020-08-03T10:15:33Z</time>
      </trkpt>
      <trkpt lat="44.72247" lon="6.84568">
        <ele>1730</ele>
        <time>2020-08-03T10:15:34Z</time>
      </trkpt>
      <trkpt lat="44.72252" lon="6.84562">
        <ele>1729</ele>
        <time>2020-08-03T10:15:35Z</time>
      </trkpt>
      <trkpt lat="44.72257" lon="6.84556">
        <ele>1729</ele>
        <time>2020-08-03T10:15:36Z</time>
      </trkpt>
      <trkpt lat="44.72261" lon="6.84549">
        <ele>1730</ele>
        <time>2020-08-03T10:15:37Z</time>
      </trkpt>
      <trkpt lat="44.72275" lon="6.8453">
        <ele>1727</ele>
        <time>2020-08-03T10:15:40Z</time>
      </trkpt>
      <trkpt lat="44.72297" lon="6.84507">
        <ele>1729</ele>
        <time>2020-08-03T10:15:44Z</time>
      </trkpt>
      <trkpt lat="44.72302" lon="6.84502">
        <ele>1727</ele>
        <time>2020-08-03T10:15:45Z</time>
      </trkpt>
      <trkpt lat="44.72308" lon="6.84496">
        <ele>1727</ele>
        <time>2020-08-03T10:15:46Z</time>
      </trkpt>
      <trkpt lat="44.72314" lon="6.84492">
        <ele>1727</ele>
        <time>2020-08-03T10:15:47Z</time>
      </trkpt>
      <trkpt lat="44.7232" lon="6.84489">
        <ele>1727</ele>
        <time>2020-08-03T10:15:48Z</time>
      </trkpt>
      <trkpt lat="44.72332" lon="6.84483">
        <ele>1726</ele>
        <time>2020-08-03T10:15:50Z</time>
      </trkpt>
      <trkpt lat="44.72364" lon="6.84465">
        <ele>1725</ele>
        <time>2020-08-03T10:15:55Z</time>
      </trkpt>
      <trkpt lat="44.72379" lon="6.84449">
        <ele>1726</ele>
        <time>2020-08-03T10:15:58Z</time>
      </trkpt>
      <trkpt lat="44.72385" lon="6.84444">
        <ele>1726</ele>
        <time>2020-08-03T10:15:59Z</time>
      </trkpt>
      <trkpt lat="44.7242" lon="6.84417">
        <ele>1725</ele>
        <time>2020-08-03T10:16:05Z</time>
      </trkpt>
      <trkpt lat="44.72434" lon="6.84404">
        <ele>1724</ele>
        <time>2020-08-03T10:16:08Z</time>
      </trkpt>
      <trkpt lat="44.72446" lon="6.84397">
        <ele>1723</ele>
        <time>2020-08-03T10:16:11Z</time>
      </trkpt>
      <trkpt lat="44.7245" lon="6.84396">
        <ele>1723</ele>
        <time>2020-08-03T10:16:12Z</time>
      </trkpt>
      <trkpt lat="44.72453" lon="6.84396">
        <ele>1722</ele>
        <time>2020-08-03T10:16:13Z</time>
      </trkpt>
      <trkpt lat="44.72457" lon="6.84396">
        <ele>1722</ele>
        <time>2020-08-03T10:16:14Z</time>
      </trkpt>
      <trkpt lat="44.7246" lon="6.84396">
        <ele>1722</ele>
        <time>2020-08-03T10:16:15Z</time>
      </trkpt>
      <trkpt lat="44.72463" lon="6.84397">
        <ele>1722</ele>
        <time>2020-08-03T10:16:16Z</time>
      </trkpt>
      <trkpt lat="44.72489" lon="6.84396">
        <ele>1720</ele>
        <time>2020-08-03T10:16:24Z</time>
      </trkpt>
      <trkpt lat="44.7255" lon="6.84349">
        <ele>1717</ele>
        <time>2020-08-03T10:16:35Z</time>
      </trkpt>
      <trkpt lat="44.72557" lon="6.84347">
        <ele>1716</ele>
        <time>2020-08-03T10:16:36Z</time>
      </trkpt>
      <trkpt lat="44.72563" lon="6.84347">
        <ele>1716</ele>
        <time>2020-08-03T10:16:37Z</time>
      </trkpt>
      <trkpt lat="44.72592" lon="6.84342">
        <ele>1715</ele>
        <time>2020-08-03T10:16:42Z</time>
      </trkpt>
      <trkpt lat="44.72603" lon="6.84338">
        <ele>1714</ele>
        <time>2020-08-03T10:16:44Z</time>
      </trkpt>
      <trkpt lat="44.72609" lon="6.84336">
        <ele>1714</ele>
        <time>2020-08-03T10:16:45Z</time>
      </trkpt>
      <trkpt lat="44.72614" lon="6.84334">
        <ele>1714</ele>
        <time>2020-08-03T10:16:46Z</time>
      </trkpt>
      <trkpt lat="44.72704" lon="6.84307">
        <ele>1712</ele>
        <time>2020-08-03T10:17:01Z</time>
      </trkpt>
      <trkpt lat="44.72711" lon="6.84303">
        <ele>1711</ele>
        <time>2020-08-03T10:17:02Z</time>
      </trkpt>
      <trkpt lat="44.72716" lon="6.84299">
        <ele>1711</ele>
        <time>2020-08-03T10:17:03Z</time>
      </trkpt>
      <trkpt lat="44.72721" lon="6.84294">
        <ele>1711</ele>
        <time>2020-08-03T10:17:04Z</time>
      </trkpt>
      <trkpt lat="44.72726" lon="6.84288">
        <ele>1712</ele>
        <time>2020-08-03T10:17:05Z</time>
      </trkpt>
      <trkpt lat="44.72731" lon="6.84282">
        <ele>1712</ele>
        <time>2020-08-03T10:17:06Z</time>
      </trkpt>
      <trkpt lat="44.72739" lon="6.84268">
        <ele>1712</ele>
        <time>2020-08-03T10:17:08Z</time>
      </trkpt>
      <trkpt lat="44.72748" lon="6.84245">
        <ele>1712</ele>
        <time>2020-08-03T10:17:11Z</time>
      </trkpt>
      <trkpt lat="44.7275" lon="6.84236">
        <ele>1712</ele>
        <time>2020-08-03T10:17:12Z</time>
      </trkpt>
      <trkpt lat="44.7275" lon="6.84229">
        <ele>1712</ele>
        <time>2020-08-03T10:17:13Z</time>
      </trkpt>
      <trkpt lat="44.72749" lon="6.84222">
        <ele>1712</ele>
        <time>2020-08-03T10:17:14Z</time>
      </trkpt>
      <trkpt lat="44.72745" lon="6.84217">
        <ele>1712</ele>
        <time>2020-08-03T10:17:15Z</time>
      </trkpt>
      <trkpt lat="44.72741" lon="6.84213">
        <ele>1712</ele>
        <time>2020-08-03T10:17:16Z</time>
      </trkpt>
      <trkpt lat="44.72737" lon="6.84209">
        <ele>1712</ele>
        <time>2020-08-03T10:17:17Z</time>
      </trkpt>
      <trkpt lat="44.72735" lon="6.84205">
        <ele>1712</ele>
        <time>2020-08-03T10:17:18Z</time>
      </trkpt>
      <trkpt lat="44.72734" lon="6.84201">
        <ele>1712</ele>
        <time>2020-08-03T10:17:19Z</time>
      </trkpt>
      <trkpt lat="44.72733" lon="6.84198">
        <ele>1712</ele>
        <time>2020-08-03T10:17:20Z</time>
      </trkpt>
      <trkpt lat="44.72728" lon="6.84156">
        <ele>1712</ele>
        <time>2020-08-03T10:17:32Z</time>
      </trkpt>
      <trkpt lat="44.72729" lon="6.84154">
        <ele>1712</ele>
        <time>2020-08-03T10:17:33Z</time>
      </trkpt>
      <trkpt lat="44.72729" lon="6.84151">
        <ele>1712</ele>
        <time>2020-08-03T10:17:34Z</time>
      </trkpt>
      <trkpt lat="44.72731" lon="6.84137">
        <ele>1712</ele>
        <time>2020-08-03T10:17:44Z</time>
      </trkpt>
      <trkpt lat="44.72725" lon="6.84118">
        <ele>1715</ele>
        <time>2020-08-03T10:20:01Z</time>
      </trkpt>
      <trkpt lat="44.72724" lon="6.84116">
        <ele>1715</ele>
        <time>2020-08-03T10:20:02Z</time>
      </trkpt>
      <trkpt lat="44.72723" lon="6.84115">
        <ele>1715</ele>
        <time>2020-08-03T10:20:03Z</time>
      </trkpt>
      <trkpt lat="44.72722" lon="6.84114">
        <ele>1715</ele>
        <time>2020-08-03T10:20:04Z</time>
      </trkpt>
      <trkpt lat="44.72721" lon="6.84112">
        <ele>1716</ele>
        <time>2020-08-03T10:20:05Z</time>
      </trkpt>
      <trkpt lat="44.7272" lon="6.84111">
        <ele>1716</ele>
        <time>2020-08-03T10:20:06Z</time>
      </trkpt>
      <trkpt lat="44.7272" lon="6.8411">
        <ele>1717</ele>
        <time>2020-08-03T10:20:07Z</time>
      </trkpt>
      <trkpt lat="44.72709" lon="6.84096">
        <ele>1725</ele>
        <time>2020-08-03T10:20:20Z</time>
      </trkpt>
      <trkpt lat="44.7271" lon="6.84092">
        <ele>1726</ele>
        <time>2020-08-03T10:20:23Z</time>
      </trkpt>
      <trkpt lat="44.72715" lon="6.84082">
        <ele>1726</ele>
        <time>2020-08-03T10:20:30Z</time>
      </trkpt>
      <trkpt lat="44.72716" lon="6.84081">
        <ele>1726</ele>
        <time>2020-08-03T10:20:31Z</time>
      </trkpt>
      <trkpt lat="44.72717" lon="6.8408">
        <ele>1726</ele>
        <time>2020-08-03T10:20:32Z</time>
      </trkpt>
      <trkpt lat="44.72726" lon="6.84063">
        <ele>1726</ele>
        <time>2020-08-03T10:20:47Z</time>
      </trkpt>
      <trkpt lat="44.72731" lon="6.84057">
        <ele>1725</ele>
        <time>2020-08-03T10:21:59Z</time>
      </trkpt>
      <trkpt lat="44.72731" lon="6.84055">
        <ele>1725</ele>
        <time>2020-08-03T10:22:00Z</time>
      </trkpt>
      <trkpt lat="44.7273" lon="6.84053">
        <ele>1726</ele>
        <time>2020-08-03T10:22:01Z</time>
      </trkpt>
      <trkpt lat="44.72731" lon="6.84051">
        <ele>1727</ele>
        <time>2020-08-03T10:22:02Z</time>
      </trkpt>
      <trkpt lat="44.72731" lon="6.84049">
        <ele>1727</ele>
        <time>2020-08-03T10:22:03Z</time>
      </trkpt>
      <trkpt lat="44.72731" lon="6.84047">
        <ele>1728</ele>
        <time>2020-08-03T10:22:04Z</time>
      </trkpt>
      <trkpt lat="44.7273" lon="6.84045">
        <ele>1729</ele>
        <time>2020-08-03T10:22:05Z</time>
      </trkpt>
      <trkpt lat="44.72731" lon="6.84043">
        <ele>1729</ele>
        <time>2020-08-03T10:22:06Z</time>
      </trkpt>
      <trkpt lat="44.72731" lon="6.84042">
        <ele>1730</ele>
        <time>2020-08-03T10:22:07Z</time>
      </trkpt>
      <trkpt lat="44.72731" lon="6.8404">
        <ele>1730</ele>
        <time>2020-08-03T10:22:08Z</time>
      </trkpt>
      <trkpt lat="44.72733" lon="6.84024">
        <ele>1734</ele>
        <time>2020-08-03T10:22:19Z</time>
      </trkpt>
      <trkpt lat="44.72733" lon="6.84023">
        <ele>1734</ele>
        <time>2020-08-03T10:22:20Z</time>
      </trkpt>
      <trkpt lat="44.72736" lon="6.84014">
        <ele>1736</ele>
        <time>2020-08-03T10:22:27Z</time>
      </trkpt>
      <trkpt lat="44.72736" lon="6.84012">
        <ele>1737</ele>
        <time>2020-08-03T10:22:28Z</time>
      </trkpt>
      <trkpt lat="44.72738" lon="6.84">
        <ele>1740</ele>
        <time>2020-08-03T10:22:35Z</time>
      </trkpt>
      <trkpt lat="44.72741" lon="6.83987">
        <ele>1742</ele>
        <time>2020-08-03T10:22:45Z</time>
      </trkpt>
      <trkpt lat="44.72742" lon="6.83985">
        <ele>1742</ele>
        <time>2020-08-03T10:22:46Z</time>
      </trkpt>
      <trkpt lat="44.72742" lon="6.83983">
        <ele>1742</ele>
        <time>2020-08-03T10:22:47Z</time>
      </trkpt>
      <trkpt lat="44.72743" lon="6.83981">
        <ele>1743</ele>
        <time>2020-08-03T10:22:48Z</time>
      </trkpt>
      <trkpt lat="44.72743" lon="6.83979">
        <ele>1743</ele>
        <time>2020-08-03T10:22:49Z</time>
      </trkpt>
      <trkpt lat="44.72744" lon="6.83978">
        <ele>1743</ele>
        <time>2020-08-03T10:22:50Z</time>
      </trkpt>
      <trkpt lat="44.72744" lon="6.83976">
        <ele>1743</ele>
        <time>2020-08-03T10:22:51Z</time>
      </trkpt>
      <trkpt lat="44.72745" lon="6.83974">
        <ele>1744</ele>
        <time>2020-08-03T10:22:52Z</time>
      </trkpt>
      <trkpt lat="44.72745" lon="6.83972">
        <ele>1744</ele>
        <time>2020-08-03T10:22:53Z</time>
      </trkpt>
      <trkpt lat="44.72746" lon="6.8397">
        <ele>1744</ele>
        <time>2020-08-03T10:22:54Z</time>
      </trkpt>
      <trkpt lat="44.72746" lon="6.83969">
        <ele>1745</ele>
        <time>2020-08-03T10:22:55Z</time>
      </trkpt>
      <trkpt lat="44.72748" lon="6.83957">
        <ele>1749</ele>
        <time>2020-08-03T10:23:02Z</time>
      </trkpt>
      <trkpt lat="44.72754" lon="6.83934">
        <ele>1755</ele>
        <time>2020-08-03T10:23:16Z</time>
      </trkpt>
      <trkpt lat="44.72754" lon="6.83933">
        <ele>1755</ele>
        <time>2020-08-03T10:23:17Z</time>
      </trkpt>
      <trkpt lat="44.72755" lon="6.83932">
        <ele>1756</ele>
        <time>2020-08-03T10:23:18Z</time>
      </trkpt>
      <trkpt lat="44.72755" lon="6.8393">
        <ele>1756</ele>
        <time>2020-08-03T10:23:19Z</time>
      </trkpt>
      <trkpt lat="44.72756" lon="6.83928">
        <ele>1757</ele>
        <time>2020-08-03T10:23:20Z</time>
      </trkpt>
      <trkpt lat="44.72768" lon="6.83906">
        <ele>1761</ele>
        <time>2020-08-03T10:23:35Z</time>
      </trkpt>
      <trkpt lat="44.72774" lon="6.83893">
        <ele>1763</ele>
        <time>2020-08-03T10:23:42Z</time>
      </trkpt>
      <trkpt lat="44.72774" lon="6.83891">
        <ele>1763</ele>
        <time>2020-08-03T10:23:43Z</time>
      </trkpt>
      <trkpt lat="44.72776" lon="6.83878">
        <ele>1766</ele>
        <time>2020-08-03T10:23:51Z</time>
      </trkpt>
      <trkpt lat="44.72777" lon="6.83855">
        <ele>1772</ele>
        <time>2020-08-03T10:24:05Z</time>
      </trkpt>
      <trkpt lat="44.72779" lon="6.83828">
        <ele>1775</ele>
        <time>2020-08-03T10:24:21Z</time>
      </trkpt>
      <trkpt lat="44.72783" lon="6.83801">
        <ele>1776</ele>
        <time>2020-08-03T10:24:36Z</time>
      </trkpt>
      <trkpt lat="44.72783" lon="6.83795">
        <ele>1776</ele>
        <time>2020-08-03T10:24:39Z</time>
      </trkpt>
      <trkpt lat="44.72783" lon="6.83793">
        <ele>1776</ele>
        <time>2020-08-03T10:24:40Z</time>
      </trkpt>
      <trkpt lat="44.72786" lon="6.83783">
        <ele>1775</ele>
        <time>2020-08-03T10:24:45Z</time>
      </trkpt>
      <trkpt lat="44.72786" lon="6.83779">
        <ele>1775</ele>
        <time>2020-08-03T10:24:47Z</time>
      </trkpt>
      <trkpt lat="44.72787" lon="6.83777">
        <ele>1775</ele>
        <time>2020-08-03T10:24:48Z</time>
      </trkpt>
      <trkpt lat="44.72787" lon="6.83773">
        <ele>1775</ele>
        <time>2020-08-03T10:24:51Z</time>
      </trkpt>
      <trkpt lat="44.72788" lon="6.83771">
        <ele>1774</ele>
        <time>2020-08-03T10:24:52Z</time>
      </trkpt>
      <trkpt lat="44.72788" lon="6.83769">
        <ele>1775</ele>
        <time>2020-08-03T10:24:53Z</time>
      </trkpt>
      <trkpt lat="44.72789" lon="6.83767">
        <ele>1774</ele>
        <time>2020-08-03T10:24:54Z</time>
      </trkpt>
      <trkpt lat="44.72789" lon="6.83765">
        <ele>1774</ele>
        <time>2020-08-03T10:24:55Z</time>
      </trkpt>
      <trkpt lat="44.72789" lon="6.83763">
        <ele>1774</ele>
        <time>2020-08-03T10:24:56Z</time>
      </trkpt>
      <trkpt lat="44.72789" lon="6.83761">
        <ele>1774</ele>
        <time>2020-08-03T10:24:57Z</time>
      </trkpt>
      <trkpt lat="44.72795" lon="6.8374">
        <ele>1772</ele>
        <time>2020-08-03T10:25:08Z</time>
      </trkpt>
      <trkpt lat="44.72795" lon="6.83738">
        <ele>1772</ele>
        <time>2020-08-03T10:25:09Z</time>
      </trkpt>
      <trkpt lat="44.72796" lon="6.83736">
        <ele>1772</ele>
        <time>2020-08-03T10:25:10Z</time>
      </trkpt>
      <trkpt lat="44.72796" lon="6.83734">
        <ele>1772</ele>
        <time>2020-08-03T10:25:11Z</time>
      </trkpt>
      <trkpt lat="44.72797" lon="6.83732">
        <ele>1771</ele>
        <time>2020-08-03T10:25:12Z</time>
      </trkpt>
      <trkpt lat="44.72798" lon="6.8373">
        <ele>1771</ele>
        <time>2020-08-03T10:25:13Z</time>
      </trkpt>
      <trkpt lat="44.72799" lon="6.83728">
        <ele>1770</ele>
        <time>2020-08-03T10:25:14Z</time>
      </trkpt>
      <trkpt lat="44.72801" lon="6.83727">
        <ele>1770</ele>
        <time>2020-08-03T10:25:15Z</time>
      </trkpt>
      <trkpt lat="44.72802" lon="6.83725">
        <ele>1769</ele>
        <time>2020-08-03T10:25:16Z</time>
      </trkpt>
      <trkpt lat="44.72802" lon="6.83724">
        <ele>1769</ele>
        <time>2020-08-03T10:25:17Z</time>
      </trkpt>
      <trkpt lat="44.72803" lon="6.83722">
        <ele>1768</ele>
        <time>2020-08-03T10:25:18Z</time>
      </trkpt>
      <trkpt lat="44.72807" lon="6.83704">
        <ele>1771</ele>
        <time>2020-08-03T10:25:28Z</time>
      </trkpt>
      <trkpt lat="44.72812" lon="6.83676">
        <ele>1777</ele>
        <time>2020-08-03T10:25:44Z</time>
      </trkpt>
      <trkpt lat="44.72814" lon="6.83671">
        <ele>1779</ele>
        <time>2020-08-03T10:25:48Z</time>
      </trkpt>
      <trkpt lat="44.72814" lon="6.83669">
        <ele>1779</ele>
        <time>2020-08-03T10:25:49Z</time>
      </trkpt>
      <trkpt lat="44.72814" lon="6.83667">
        <ele>1780</ele>
        <time>2020-08-03T10:25:50Z</time>
      </trkpt>
      <trkpt lat="44.72814" lon="6.83666">
        <ele>1780</ele>
        <time>2020-08-03T10:25:51Z</time>
      </trkpt>
      <trkpt lat="44.72815" lon="6.83664">
        <ele>1780</ele>
        <time>2020-08-03T10:25:52Z</time>
      </trkpt>
      <trkpt lat="44.72815" lon="6.83662">
        <ele>1781</ele>
        <time>2020-08-03T10:25:53Z</time>
      </trkpt>
      <trkpt lat="44.72815" lon="6.8366">
        <ele>1781</ele>
        <time>2020-08-03T10:25:54Z</time>
      </trkpt>
      <trkpt lat="44.72815" lon="6.83659">
        <ele>1781</ele>
        <time>2020-08-03T10:25:55Z</time>
      </trkpt>
      <trkpt lat="44.72817" lon="6.8365">
        <ele>1783</ele>
        <time>2020-08-03T10:26:00Z</time>
      </trkpt>
      <trkpt lat="44.72818" lon="6.8365">
        <ele>1783</ele>
        <time>2020-08-03T10:26:01Z</time>
      </trkpt>
      <trkpt lat="44.72818" lon="6.83648">
        <ele>1783</ele>
        <time>2020-08-03T10:26:02Z</time>
      </trkpt>
      <trkpt lat="44.72819" lon="6.83647">
        <ele>1783</ele>
        <time>2020-08-03T10:26:03Z</time>
      </trkpt>
      <trkpt lat="44.72819" lon="6.83645">
        <ele>1783</ele>
        <time>2020-08-03T10:26:04Z</time>
      </trkpt>
      <trkpt lat="44.72819" lon="6.83643">
        <ele>1784</ele>
        <time>2020-08-03T10:26:05Z</time>
      </trkpt>
      <trkpt lat="44.72819" lon="6.83642">
        <ele>1784</ele>
        <time>2020-08-03T10:26:06Z</time>
      </trkpt>
      <trkpt lat="44.72819" lon="6.8364">
        <ele>1785</ele>
        <time>2020-08-03T10:26:07Z</time>
      </trkpt>
      <trkpt lat="44.7282" lon="6.83627">
        <ele>1787</ele>
        <time>2020-08-03T10:26:15Z</time>
      </trkpt>
      <trkpt lat="44.7282" lon="6.83625">
        <ele>1787</ele>
        <time>2020-08-03T10:26:16Z</time>
      </trkpt>
      <trkpt lat="44.72821" lon="6.83623">
        <ele>1788</ele>
        <time>2020-08-03T10:26:17Z</time>
      </trkpt>
      <trkpt lat="44.72821" lon="6.83621">
        <ele>1788</ele>
        <time>2020-08-03T10:26:18Z</time>
      </trkpt>
      <trkpt lat="44.72821" lon="6.83619">
        <ele>1788</ele>
        <time>2020-08-03T10:26:19Z</time>
      </trkpt>
      <trkpt lat="44.72821" lon="6.83618">
        <ele>1789</ele>
        <time>2020-08-03T10:26:20Z</time>
      </trkpt>
      <trkpt lat="44.72821" lon="6.83616">
        <ele>1789</ele>
        <time>2020-08-03T10:26:21Z</time>
      </trkpt>
      <trkpt lat="44.72821" lon="6.83614">
        <ele>1790</ele>
        <time>2020-08-03T10:26:22Z</time>
      </trkpt>
      <trkpt lat="44.72821" lon="6.83612">
        <ele>1790</ele>
        <time>2020-08-03T10:26:23Z</time>
      </trkpt>
      <trkpt lat="44.72821" lon="6.83596">
        <ele>1793</ele>
        <time>2020-08-03T10:26:35Z</time>
      </trkpt>
      <trkpt lat="44.72821" lon="6.83584">
        <ele>1796</ele>
        <time>2020-08-03T10:26:42Z</time>
      </trkpt>
      <trkpt lat="44.72822" lon="6.83581">
        <ele>1796</ele>
        <time>2020-08-03T10:26:43Z</time>
      </trkpt>
      <trkpt lat="44.72822" lon="6.83579">
        <ele>1797</ele>
        <time>2020-08-03T10:26:44Z</time>
      </trkpt>
      <trkpt lat="44.72822" lon="6.83577">
        <ele>1797</ele>
        <time>2020-08-03T10:26:45Z</time>
      </trkpt>
      <trkpt lat="44.72822" lon="6.83575">
        <ele>1797</ele>
        <time>2020-08-03T10:26:46Z</time>
      </trkpt>
      <trkpt lat="44.72823" lon="6.83574">
        <ele>1797</ele>
        <time>2020-08-03T10:26:47Z</time>
      </trkpt>
      <trkpt lat="44.72823" lon="6.83573">
        <ele>1798</ele>
        <time>2020-08-03T10:26:48Z</time>
      </trkpt>
      <trkpt lat="44.72823" lon="6.83571">
        <ele>1798</ele>
        <time>2020-08-03T10:26:49Z</time>
      </trkpt>
      <trkpt lat="44.72823" lon="6.83569">
        <ele>1799</ele>
        <time>2020-08-03T10:26:50Z</time>
      </trkpt>
      <trkpt lat="44.72824" lon="6.83567">
        <ele>1799</ele>
        <time>2020-08-03T10:26:51Z</time>
      </trkpt>
      <trkpt lat="44.72824" lon="6.83565">
        <ele>1799</ele>
        <time>2020-08-03T10:26:52Z</time>
      </trkpt>
      <trkpt lat="44.72825" lon="6.83564">
        <ele>1799</ele>
        <time>2020-08-03T10:26:53Z</time>
      </trkpt>
      <trkpt lat="44.72833" lon="6.8355">
        <ele>1798</ele>
        <time>2020-08-03T10:27:04Z</time>
      </trkpt>
      <trkpt lat="44.72839" lon="6.83536">
        <ele>1800</ele>
        <time>2020-08-03T10:27:13Z</time>
      </trkpt>
      <trkpt lat="44.72839" lon="6.83533">
        <ele>1801</ele>
        <time>2020-08-03T10:27:14Z</time>
      </trkpt>
      <trkpt lat="44.72839" lon="6.83531">
        <ele>1801</ele>
        <time>2020-08-03T10:27:15Z</time>
      </trkpt>
      <trkpt lat="44.7284" lon="6.83526">
        <ele>1802</ele>
        <time>2020-08-03T10:27:18Z</time>
      </trkpt>
      <trkpt lat="44.7284" lon="6.83524">
        <ele>1803</ele>
        <time>2020-08-03T10:27:19Z</time>
      </trkpt>
      <trkpt lat="44.7284" lon="6.83522">
        <ele>1803</ele>
        <time>2020-08-03T10:27:20Z</time>
      </trkpt>
      <trkpt lat="44.72838" lon="6.83505">
        <ele>1809</ele>
        <time>2020-08-03T10:27:33Z</time>
      </trkpt>
      <trkpt lat="44.72837" lon="6.83495">
        <ele>1812</ele>
        <time>2020-08-03T10:27:40Z</time>
      </trkpt>
      <trkpt lat="44.72838" lon="6.83488">
        <ele>1814</ele>
        <time>2020-08-03T10:27:45Z</time>
      </trkpt>
      <trkpt lat="44.72837" lon="6.83479">
        <ele>1816</ele>
        <time>2020-08-03T10:27:49Z</time>
      </trkpt>
      <trkpt lat="44.72837" lon="6.83477">
        <ele>1817</ele>
        <time>2020-08-03T10:27:50Z</time>
      </trkpt>
      <trkpt lat="44.72837" lon="6.83475">
        <ele>1817</ele>
        <time>2020-08-03T10:27:51Z</time>
      </trkpt>
      <trkpt lat="44.72838" lon="6.83473">
        <ele>1817</ele>
        <time>2020-08-03T10:27:52Z</time>
      </trkpt>
      <trkpt lat="44.72839" lon="6.83469">
        <ele>1818</ele>
        <time>2020-08-03T10:27:55Z</time>
      </trkpt>
      <trkpt lat="44.72841" lon="6.83462">
        <ele>1819</ele>
        <time>2020-08-03T10:28:04Z</time>
      </trkpt>
      <trkpt lat="44.72834" lon="6.83455">
        <ele>1824</ele>
        <time>2020-08-03T10:28:27Z</time>
      </trkpt>
      <trkpt lat="44.72835" lon="6.83455">
        <ele>1824</ele>
        <time>2020-08-03T10:28:30Z</time>
      </trkpt>
      <trkpt lat="44.72837" lon="6.83461">
        <ele>1821</ele>
        <time>2020-08-03T10:29:54Z</time>
      </trkpt>
      <trkpt lat="44.72833" lon="6.8346">
        <ele>1824</ele>
        <time>2020-08-03T10:30:01Z</time>
      </trkpt>
      <trkpt lat="44.72851" lon="6.83397">
        <ele>1840</ele>
        <time>2020-08-03T10:32:37Z</time>
      </trkpt>
      <trkpt lat="44.72851" lon="6.83392">
        <ele>1843</ele>
        <time>2020-08-03T10:32:46Z</time>
      </trkpt>
      <trkpt lat="44.7288" lon="6.83344">
        <ele>1860</ele>
        <time>2020-08-03T10:37:07Z</time>
      </trkpt>
      <trkpt lat="44.72884" lon="6.83335">
        <ele>1863</ele>
        <time>2020-08-03T10:37:12Z</time>
      </trkpt>
      <trkpt lat="44.72887" lon="6.83329">
        <ele>1865</ele>
        <time>2020-08-03T10:37:16Z</time>
      </trkpt>
      <trkpt lat="44.7289" lon="6.83326">
        <ele>1865</ele>
        <time>2020-08-03T10:37:18Z</time>
      </trkpt>
      <trkpt lat="44.72909" lon="6.83296">
        <ele>1876</ele>
        <time>2020-08-03T10:37:30Z</time>
      </trkpt>
      <trkpt lat="44.72922" lon="6.83271">
        <ele>1883</ele>
        <time>2020-08-03T10:37:41Z</time>
      </trkpt>
      <trkpt lat="44.72935" lon="6.83255">
        <ele>1883</ele>
        <time>2020-08-03T10:37:51Z</time>
      </trkpt>
      <trkpt lat="44.72948" lon="6.83241">
        <ele>1885</ele>
        <time>2020-08-03T10:38:02Z</time>
      </trkpt>
      <trkpt lat="44.72955" lon="6.8323">
        <ele>1887</ele>
        <time>2020-08-03T10:38:06Z</time>
      </trkpt>
      <trkpt lat="44.72965" lon="6.8322">
        <ele>1886</ele>
        <time>2020-08-03T10:38:11Z</time>
      </trkpt>
      <trkpt lat="44.72977" lon="6.83197">
        <ele>1887</ele>
        <time>2020-08-03T10:38:25Z</time>
      </trkpt>
      <trkpt lat="44.72979" lon="6.83187">
        <ele>1888</ele>
        <time>2020-08-03T10:38:30Z</time>
      </trkpt>
      <trkpt lat="44.72984" lon="6.83179">
        <ele>1887</ele>
        <time>2020-08-03T10:38:35Z</time>
      </trkpt>
      <trkpt lat="44.72983" lon="6.8317">
        <ele>1889</ele>
        <time>2020-08-03T10:38:41Z</time>
      </trkpt>
      <trkpt lat="44.7299" lon="6.83145">
        <ele>1891</ele>
        <time>2020-08-03T10:38:54Z</time>
      </trkpt>
      <trkpt lat="44.72991" lon="6.83143">
        <ele>1892</ele>
        <time>2020-08-03T10:38:55Z</time>
      </trkpt>
      <trkpt lat="44.72996" lon="6.83126">
        <ele>1895</ele>
        <time>2020-08-03T10:39:07Z</time>
      </trkpt>
      <trkpt lat="44.72998" lon="6.83114">
        <ele>1898</ele>
        <time>2020-08-03T10:39:15Z</time>
      </trkpt>
      <trkpt lat="44.73001" lon="6.83096">
        <ele>1900</ele>
        <time>2020-08-03T10:39:25Z</time>
      </trkpt>
      <trkpt lat="44.73001" lon="6.83064">
        <ele>1903</ele>
        <time>2020-08-03T10:39:42Z</time>
      </trkpt>
      <trkpt lat="44.72995" lon="6.83039">
        <ele>1908</ele>
        <time>2020-08-03T10:39:58Z</time>
      </trkpt>
      <trkpt lat="44.72991" lon="6.83023">
        <ele>1911</ele>
        <time>2020-08-03T10:40:07Z</time>
      </trkpt>
      <trkpt lat="44.72989" lon="6.83011">
        <ele>1913</ele>
        <time>2020-08-03T10:40:12Z</time>
      </trkpt>
      <trkpt lat="44.72992" lon="6.82991">
        <ele>1913</ele>
        <time>2020-08-03T10:40:24Z</time>
      </trkpt>
      <trkpt lat="44.72996" lon="6.82984">
        <ele>1912</ele>
        <time>2020-08-03T10:40:29Z</time>
      </trkpt>
      <trkpt lat="44.72994" lon="6.82963">
        <ele>1913</ele>
        <time>2020-08-03T10:40:40Z</time>
      </trkpt>
      <trkpt lat="44.72993" lon="6.82961">
        <ele>1913</ele>
        <time>2020-08-03T10:40:41Z</time>
      </trkpt>
      <trkpt lat="44.72991" lon="6.82955">
        <ele>1914</ele>
        <time>2020-08-03T10:40:44Z</time>
      </trkpt>
      <trkpt lat="44.7298" lon="6.82945">
        <ele>1916</ele>
        <time>2020-08-03T10:40:52Z</time>
      </trkpt>
      <trkpt lat="44.72964" lon="6.82924">
        <ele>1918</ele>
        <time>2020-08-03T10:41:03Z</time>
      </trkpt>
      <trkpt lat="44.72951" lon="6.82897">
        <ele>1919</ele>
        <time>2020-08-03T10:41:12Z</time>
      </trkpt>
      <trkpt lat="44.72952" lon="6.82889">
        <ele>1918</ele>
        <time>2020-08-03T10:41:14Z</time>
      </trkpt>
      <trkpt lat="44.72952" lon="6.82876">
        <ele>1916</ele>
        <time>2020-08-03T10:41:19Z</time>
      </trkpt>
      <trkpt lat="44.72946" lon="6.82868">
        <ele>1918</ele>
        <time>2020-08-03T10:41:23Z</time>
      </trkpt>
      <trkpt lat="44.72931" lon="6.82852">
        <ele>1921</ele>
        <time>2020-08-03T10:41:31Z</time>
      </trkpt>
      <trkpt lat="44.72923" lon="6.82817">
        <ele>1922</ele>
        <time>2020-08-03T10:41:43Z</time>
      </trkpt>
      <trkpt lat="44.72919" lon="6.8281">
        <ele>1923</ele>
        <time>2020-08-03T10:41:46Z</time>
      </trkpt>
      <trkpt lat="44.72909" lon="6.82778">
        <ele>1923</ele>
        <time>2020-08-03T10:41:59Z</time>
      </trkpt>
      <trkpt lat="44.72906" lon="6.82772">
        <ele>1925</ele>
        <time>2020-08-03T10:42:02Z</time>
      </trkpt>
      <trkpt lat="44.72906" lon="6.82761">
        <ele>1926</ele>
        <time>2020-08-03T10:42:07Z</time>
      </trkpt>
      <trkpt lat="44.72912" lon="6.82737">
        <ele>1927</ele>
        <time>2020-08-03T10:42:17Z</time>
      </trkpt>
      <trkpt lat="44.72911" lon="6.82718">
        <ele>1928</ele>
        <time>2020-08-03T10:42:27Z</time>
      </trkpt>
      <trkpt lat="44.72912" lon="6.82711">
        <ele>1929</ele>
        <time>2020-08-03T10:42:31Z</time>
      </trkpt>
      <trkpt lat="44.72913" lon="6.82685">
        <ele>1930</ele>
        <time>2020-08-03T10:42:43Z</time>
      </trkpt>
      <trkpt lat="44.72912" lon="6.82673">
        <ele>1930</ele>
        <time>2020-08-03T10:42:47Z</time>
      </trkpt>
      <trkpt lat="44.72912" lon="6.82662">
        <ele>1930</ele>
        <time>2020-08-03T10:42:51Z</time>
      </trkpt>
      <trkpt lat="44.72906" lon="6.82631">
        <ele>1931</ele>
        <time>2020-08-03T10:43:03Z</time>
      </trkpt>
      <trkpt lat="44.72904" lon="6.82608">
        <ele>1931</ele>
        <time>2020-08-03T10:43:13Z</time>
      </trkpt>
      <trkpt lat="44.72904" lon="6.82602">
        <ele>1931</ele>
        <time>2020-08-03T10:43:16Z</time>
      </trkpt>
      <trkpt lat="44.72887" lon="6.82572">
        <ele>1935</ele>
        <time>2020-08-03T10:43:28Z</time>
      </trkpt>
      <trkpt lat="44.72886" lon="6.82561">
        <ele>1937</ele>
        <time>2020-08-03T10:43:32Z</time>
      </trkpt>
      <trkpt lat="44.72911" lon="6.82556">
        <ele>1931</ele>
        <time>2020-08-03T10:43:46Z</time>
      </trkpt>
      <trkpt lat="44.72921" lon="6.82551">
        <ele>1930</ele>
        <time>2020-08-03T10:43:53Z</time>
      </trkpt>
      <trkpt lat="44.72925" lon="6.82548">
        <ele>1930</ele>
        <time>2020-08-03T10:43:56Z</time>
      </trkpt>
      <trkpt lat="44.72945" lon="6.82528">
        <ele>1930</ele>
        <time>2020-08-03T10:44:07Z</time>
      </trkpt>
      <trkpt lat="44.72956" lon="6.82501">
        <ele>1935</ele>
        <time>2020-08-03T10:44:17Z</time>
      </trkpt>
      <trkpt lat="44.72957" lon="6.8247">
        <ele>1941</ele>
        <time>2020-08-03T10:44:27Z</time>
      </trkpt>
      <trkpt lat="44.72959" lon="6.82461">
        <ele>1943</ele>
        <time>2020-08-03T10:44:29Z</time>
      </trkpt>
      <trkpt lat="44.72961" lon="6.82457">
        <ele>1943</ele>
        <time>2020-08-03T10:44:30Z</time>
      </trkpt>
      <trkpt lat="44.72975" lon="6.82439">
        <ele>1942</ele>
        <time>2020-08-03T10:44:40Z</time>
      </trkpt>
      <trkpt lat="44.72982" lon="6.82425">
        <ele>1942</ele>
        <time>2020-08-03T10:44:49Z</time>
      </trkpt>
      <trkpt lat="44.72982" lon="6.82423">
        <ele>1942</ele>
        <time>2020-08-03T10:44:50Z</time>
      </trkpt>
      <trkpt lat="44.72986" lon="6.82402">
        <ele>1945</ele>
        <time>2020-08-03T10:45:02Z</time>
      </trkpt>
      <trkpt lat="44.72987" lon="6.82394">
        <ele>1946</ele>
        <time>2020-08-03T10:45:12Z</time>
      </trkpt>
      <trkpt lat="44.72986" lon="6.82383">
        <ele>1950</ele>
        <time>2020-08-03T10:46:11Z</time>
      </trkpt>
      <trkpt lat="44.72986" lon="6.8238">
        <ele>1951</ele>
        <time>2020-08-03T10:46:12Z</time>
      </trkpt>
      <trkpt lat="44.72986" lon="6.82378">
        <ele>1952</ele>
        <time>2020-08-03T10:46:13Z</time>
      </trkpt>
      <trkpt lat="44.72986" lon="6.82375">
        <ele>1952</ele>
        <time>2020-08-03T10:46:14Z</time>
      </trkpt>
      <trkpt lat="44.72986" lon="6.82373">
        <ele>1953</ele>
        <time>2020-08-03T10:46:15Z</time>
      </trkpt>
      <trkpt lat="44.72986" lon="6.82371">
        <ele>1954</ele>
        <time>2020-08-03T10:46:16Z</time>
      </trkpt>
      <trkpt lat="44.72986" lon="6.82368">
        <ele>1955</ele>
        <time>2020-08-03T10:46:17Z</time>
      </trkpt>
      <trkpt lat="44.72986" lon="6.82366">
        <ele>1955</ele>
        <time>2020-08-03T10:46:18Z</time>
      </trkpt>
      <trkpt lat="44.72989" lon="6.82337">
        <ele>1960</ele>
        <time>2020-08-03T10:46:32Z</time>
      </trkpt>
      <trkpt lat="44.7299" lon="6.82334">
        <ele>1960</ele>
        <time>2020-08-03T10:46:34Z</time>
      </trkpt>
      <trkpt lat="44.72991" lon="6.82333">
        <ele>1960</ele>
        <time>2020-08-03T10:46:35Z</time>
      </trkpt>
      <trkpt lat="44.72992" lon="6.82331">
        <ele>1960</ele>
        <time>2020-08-03T10:46:36Z</time>
      </trkpt>
      <trkpt lat="44.72992" lon="6.82329">
        <ele>1961</ele>
        <time>2020-08-03T10:46:37Z</time>
      </trkpt>
      <trkpt lat="44.72993" lon="6.82327">
        <ele>1960</ele>
        <time>2020-08-03T10:46:38Z</time>
      </trkpt>
      <trkpt lat="44.72994" lon="6.82327">
        <ele>1960</ele>
        <time>2020-08-03T10:46:39Z</time>
      </trkpt>
      <trkpt lat="44.72996" lon="6.82326">
        <ele>1960</ele>
        <time>2020-08-03T10:46:40Z</time>
      </trkpt>
      <trkpt lat="44.73012" lon="6.82313">
        <ele>1957</ele>
        <time>2020-08-03T10:46:54Z</time>
      </trkpt>
      <trkpt lat="44.73024" lon="6.82303">
        <ele>1956</ele>
        <time>2020-08-03T10:47:05Z</time>
      </trkpt>
      <trkpt lat="44.73034" lon="6.8229">
        <ele>1957</ele>
        <time>2020-08-03T10:47:16Z</time>
      </trkpt>
      <trkpt lat="44.73041" lon="6.82279">
        <ele>1959</ele>
        <time>2020-08-03T10:47:25Z</time>
      </trkpt>
      <trkpt lat="44.7305" lon="6.82261">
        <ele>1963</ele>
        <time>2020-08-03T10:47:39Z</time>
      </trkpt>
      <trkpt lat="44.73062" lon="6.82241">
        <ele>1968</ele>
        <time>2020-08-03T10:47:54Z</time>
      </trkpt>
      <trkpt lat="44.73077" lon="6.82217">
        <ele>1971</ele>
        <time>2020-08-03T10:48:12Z</time>
      </trkpt>
      <trkpt lat="44.73089" lon="6.82195">
        <ele>1977</ele>
        <time>2020-08-03T10:48:28Z</time>
      </trkpt>
      <trkpt lat="44.731" lon="6.8218">
        <ele>1982</ele>
        <time>2020-08-03T10:48:41Z</time>
      </trkpt>
      <trkpt lat="44.73104" lon="6.82175">
        <ele>1984</ele>
        <time>2020-08-03T10:48:46Z</time>
      </trkpt>
      <trkpt lat="44.73105" lon="6.82174">
        <ele>1984</ele>
        <time>2020-08-03T10:48:47Z</time>
      </trkpt>
      <trkpt lat="44.73112" lon="6.82165">
        <ele>1988</ele>
        <time>2020-08-03T10:48:56Z</time>
      </trkpt>
      <trkpt lat="44.73113" lon="6.82164">
        <ele>1988</ele>
        <time>2020-08-03T10:48:57Z</time>
      </trkpt>
      <trkpt lat="44.73116" lon="6.82161">
        <ele>1988</ele>
        <time>2020-08-03T10:49:00Z</time>
      </trkpt>
      <trkpt lat="44.73127" lon="6.82149">
        <ele>1988</ele>
        <time>2020-08-03T10:49:12Z</time>
      </trkpt>
      <trkpt lat="44.73139" lon="6.82131">
        <ele>1990</ele>
        <time>2020-08-03T10:49:26Z</time>
      </trkpt>
      <trkpt lat="44.73147" lon="6.82117">
        <ele>1991</ele>
        <time>2020-08-03T10:49:38Z</time>
      </trkpt>
      <trkpt lat="44.73155" lon="6.82103">
        <ele>1993</ele>
        <time>2020-08-03T10:49:50Z</time>
      </trkpt>
      <trkpt lat="44.73161" lon="6.82096">
        <ele>1994</ele>
        <time>2020-08-03T10:49:59Z</time>
      </trkpt>
      <trkpt lat="44.73162" lon="6.82095">
        <ele>1994</ele>
        <time>2020-08-03T10:50:00Z</time>
      </trkpt>
      <trkpt lat="44.73169" lon="6.82089">
        <ele>1995</ele>
        <time>2020-08-03T10:50:08Z</time>
      </trkpt>
      <trkpt lat="44.7317" lon="6.82087">
        <ele>1996</ele>
        <time>2020-08-03T10:50:09Z</time>
      </trkpt>
      <trkpt lat="44.73171" lon="6.82086">
        <ele>1996</ele>
        <time>2020-08-03T10:50:10Z</time>
      </trkpt>
      <trkpt lat="44.73182" lon="6.82069">
        <ele>2001</ele>
        <time>2020-08-03T10:50:23Z</time>
      </trkpt>
      <trkpt lat="44.73193" lon="6.82059">
        <ele>2003</ele>
        <time>2020-08-03T10:50:36Z</time>
      </trkpt>
      <trkpt lat="44.73194" lon="6.82058">
        <ele>2003</ele>
        <time>2020-08-03T10:50:37Z</time>
      </trkpt>
      <trkpt lat="44.73195" lon="6.82057">
        <ele>2003</ele>
        <time>2020-08-03T10:50:38Z</time>
      </trkpt>
      <trkpt lat="44.73196" lon="6.82055">
        <ele>2004</ele>
        <time>2020-08-03T10:50:39Z</time>
      </trkpt>
      <trkpt lat="44.73197" lon="6.82054">
        <ele>2004</ele>
        <time>2020-08-03T10:50:40Z</time>
      </trkpt>
      <trkpt lat="44.73198" lon="6.82053">
        <ele>2004</ele>
        <time>2020-08-03T10:50:41Z</time>
      </trkpt>
      <trkpt lat="44.73203" lon="6.82048">
        <ele>2006</ele>
        <time>2020-08-03T10:50:46Z</time>
      </trkpt>
      <trkpt lat="44.73204" lon="6.82048">
        <ele>2006</ele>
        <time>2020-08-03T10:50:47Z</time>
      </trkpt>
      <trkpt lat="44.73205" lon="6.82046">
        <ele>2007</ele>
        <time>2020-08-03T10:50:48Z</time>
      </trkpt>
      <trkpt lat="44.73206" lon="6.82045">
        <ele>2007</ele>
        <time>2020-08-03T10:50:49Z</time>
      </trkpt>
      <trkpt lat="44.73207" lon="6.82044">
        <ele>2008</ele>
        <time>2020-08-03T10:50:50Z</time>
      </trkpt>
      <trkpt lat="44.73214" lon="6.82034">
        <ele>2011</ele>
        <time>2020-08-03T10:50:58Z</time>
      </trkpt>
      <trkpt lat="44.73215" lon="6.82033">
        <ele>2012</ele>
        <time>2020-08-03T10:50:59Z</time>
      </trkpt>
      <trkpt lat="44.73228" lon="6.82019">
        <ele>2017</ele>
        <time>2020-08-03T10:51:12Z</time>
      </trkpt>
      <trkpt lat="44.73232" lon="6.82015">
        <ele>2019</ele>
        <time>2020-08-03T10:51:16Z</time>
      </trkpt>
      <trkpt lat="44.73233" lon="6.82014">
        <ele>2019</ele>
        <time>2020-08-03T10:51:17Z</time>
      </trkpt>
      <trkpt lat="44.7325" lon="6.82013">
        <ele>2019</ele>
        <time>2020-08-03T10:51:32Z</time>
      </trkpt>
      <trkpt lat="44.73255" lon="6.82014">
        <ele>2019</ele>
        <time>2020-08-03T10:51:36Z</time>
      </trkpt>
      <trkpt lat="44.73256" lon="6.82013">
        <ele>2019</ele>
        <time>2020-08-03T10:51:37Z</time>
      </trkpt>
      <trkpt lat="44.73257" lon="6.82013">
        <ele>2019</ele>
        <time>2020-08-03T10:51:38Z</time>
      </trkpt>
      <trkpt lat="44.73259" lon="6.82012">
        <ele>2019</ele>
        <time>2020-08-03T10:51:39Z</time>
      </trkpt>
      <trkpt lat="44.73261" lon="6.82012">
        <ele>2019</ele>
        <time>2020-08-03T10:51:40Z</time>
      </trkpt>
      <trkpt lat="44.73262" lon="6.82012">
        <ele>2020</ele>
        <time>2020-08-03T10:51:41Z</time>
      </trkpt>
      <trkpt lat="44.73264" lon="6.82011">
        <ele>2020</ele>
        <time>2020-08-03T10:51:42Z</time>
      </trkpt>
      <trkpt lat="44.73282" lon="6.81998">
        <ele>2024</ele>
        <time>2020-08-03T10:51:57Z</time>
      </trkpt>
      <trkpt lat="44.73291" lon="6.81995">
        <ele>2025</ele>
        <time>2020-08-03T10:52:06Z</time>
      </trkpt>
      <trkpt lat="44.73292" lon="6.81995">
        <ele>2024</ele>
        <time>2020-08-03T10:52:07Z</time>
      </trkpt>
      <trkpt lat="44.73294" lon="6.81995">
        <ele>2024</ele>
        <time>2020-08-03T10:52:08Z</time>
      </trkpt>
      <trkpt lat="44.73295" lon="6.81994">
        <ele>2024</ele>
        <time>2020-08-03T10:52:09Z</time>
      </trkpt>
      <trkpt lat="44.73297" lon="6.81994">
        <ele>2024</ele>
        <time>2020-08-03T10:52:10Z</time>
      </trkpt>
      <trkpt lat="44.73316" lon="6.8199">
        <ele>2025</ele>
        <time>2020-08-03T10:52:23Z</time>
      </trkpt>
      <trkpt lat="44.73341" lon="6.81987">
        <ele>2028</ele>
        <time>2020-08-03T10:52:40Z</time>
      </trkpt>
      <trkpt lat="44.73364" lon="6.81986">
        <ele>2033</ele>
        <time>2020-08-03T10:52:58Z</time>
      </trkpt>
      <trkpt lat="44.73365" lon="6.81985">
        <ele>2034</ele>
        <time>2020-08-03T10:53:04Z</time>
      </trkpt>
      <trkpt lat="44.73221" lon="6.81856">
        <ele>2076</ele>
        <time>2020-08-03T11:00:42Z</time>
      </trkpt>
      <trkpt lat="44.73205" lon="6.81848">
        <ele>2081</ele>
        <time>2020-08-03T11:01:00Z</time>
      </trkpt>
      <trkpt lat="44.73191" lon="6.81844">
        <ele>2085</ele>
        <time>2020-08-03T11:01:14Z</time>
      </trkpt>
      <trkpt lat="44.73179" lon="6.81849">
        <ele>2088</ele>
        <time>2020-08-03T11:01:22Z</time>
      </trkpt>
      <trkpt lat="44.73174" lon="6.81852">
        <ele>2088</ele>
        <time>2020-08-03T11:01:25Z</time>
      </trkpt>
      <trkpt lat="44.73173" lon="6.81854">
        <ele>2088</ele>
        <time>2020-08-03T11:01:26Z</time>
      </trkpt>
      <trkpt lat="44.73171" lon="6.81855">
        <ele>2088</ele>
        <time>2020-08-03T11:01:27Z</time>
      </trkpt>
      <trkpt lat="44.73146" lon="6.81871">
        <ele>2092</ele>
        <time>2020-08-03T11:01:40Z</time>
      </trkpt>
      <trkpt lat="44.7314" lon="6.81873">
        <ele>2094</ele>
        <time>2020-08-03T11:01:43Z</time>
      </trkpt>
      <trkpt lat="44.73118" lon="6.81889">
        <ele>2097</ele>
        <time>2020-08-03T11:01:51Z</time>
      </trkpt>
      <trkpt lat="44.73092" lon="6.81921">
        <ele>2091</ele>
        <time>2020-08-03T11:02:02Z</time>
      </trkpt>
      <trkpt lat="44.73048" lon="6.81928">
        <ele>2091</ele>
        <time>2020-08-03T11:02:15Z</time>
      </trkpt>
      <trkpt lat="44.73025" lon="6.81933">
        <ele>2089</ele>
        <time>2020-08-03T11:02:26Z</time>
      </trkpt>
      <trkpt lat="44.72985" lon="6.81932">
        <ele>2088</ele>
        <time>2020-08-03T11:02:45Z</time>
      </trkpt>
      <trkpt lat="44.72941" lon="6.81921">
        <ele>2094</ele>
        <time>2020-08-03T11:03:05Z</time>
      </trkpt>
      <trkpt lat="44.72919" lon="6.81902">
        <ele>2103</ele>
        <time>2020-08-03T11:03:22Z</time>
      </trkpt>
      <trkpt lat="44.729" lon="6.81893">
        <ele>2112</ele>
        <time>2020-08-03T11:03:36Z</time>
      </trkpt>
      <trkpt lat="44.72897" lon="6.81889">
        <ele>2114</ele>
        <time>2020-08-03T11:03:39Z</time>
      </trkpt>
      <trkpt lat="44.72896" lon="6.81884">
        <ele>2115</ele>
        <time>2020-08-03T11:03:42Z</time>
      </trkpt>
      <trkpt lat="44.72902" lon="6.81869">
        <ele>2117</ele>
        <time>2020-08-03T11:03:52Z</time>
      </trkpt>
      <trkpt lat="44.72903" lon="6.81866">
        <ele>2117</ele>
        <time>2020-08-03T11:03:54Z</time>
      </trkpt>
      <trkpt lat="44.72912" lon="6.81857">
        <ele>2116</ele>
        <time>2020-08-03T11:04:02Z</time>
      </trkpt>
      <trkpt lat="44.72922" lon="6.81853">
        <ele>2115</ele>
        <time>2020-08-03T11:04:08Z</time>
      </trkpt>
      <trkpt lat="44.72924" lon="6.81852">
        <ele>2115</ele>
        <time>2020-08-03T11:04:09Z</time>
      </trkpt>
      <trkpt lat="44.72926" lon="6.81851">
        <ele>2115</ele>
        <time>2020-08-03T11:04:10Z</time>
      </trkpt>
      <trkpt lat="44.72947" lon="6.81837">
        <ele>2121</ele>
        <time>2020-08-03T11:04:25Z</time>
      </trkpt>
      <trkpt lat="44.72963" lon="6.81829">
        <ele>2123</ele>
        <time>2020-08-03T11:04:37Z</time>
      </trkpt>
      <trkpt lat="44.72986" lon="6.81821">
        <ele>2124</ele>
        <time>2020-08-03T11:04:54Z</time>
      </trkpt>
      <trkpt lat="44.73005" lon="6.81817">
        <ele>2123</ele>
        <time>2020-08-03T11:05:10Z</time>
      </trkpt>
      <trkpt lat="44.73008" lon="6.81815">
        <ele>2124</ele>
        <time>2020-08-03T11:05:12Z</time>
      </trkpt>
      <trkpt lat="44.73009" lon="6.81814">
        <ele>2124</ele>
        <time>2020-08-03T11:05:13Z</time>
      </trkpt>
      <trkpt lat="44.7301" lon="6.81813">
        <ele>2124</ele>
        <time>2020-08-03T11:05:14Z</time>
      </trkpt>
      <trkpt lat="44.73011" lon="6.81812">
        <ele>2125</ele>
        <time>2020-08-03T11:05:15Z</time>
      </trkpt>
      <trkpt lat="44.73011" lon="6.81811">
        <ele>2125</ele>
        <time>2020-08-03T11:05:16Z</time>
      </trkpt>
      <trkpt lat="44.73013" lon="6.81808">
        <ele>2125</ele>
        <time>2020-08-03T11:05:18Z</time>
      </trkpt>
      <trkpt lat="44.73016" lon="6.81804">
        <ele>2126</ele>
        <time>2020-08-03T11:05:21Z</time>
      </trkpt>
      <trkpt lat="44.7302" lon="6.8179">
        <ele>2126</ele>
        <time>2020-08-03T11:05:30Z</time>
      </trkpt>
      <trkpt lat="44.73019" lon="6.81761">
        <ele>2128</ele>
        <time>2020-08-03T11:05:44Z</time>
      </trkpt>
      <trkpt lat="44.73025" lon="6.81727">
        <ele>2133</ele>
        <time>2020-08-03T11:05:58Z</time>
      </trkpt>
      <trkpt lat="44.73036" lon="6.81715">
        <ele>2134</ele>
        <time>2020-08-03T11:06:05Z</time>
      </trkpt>
      <trkpt lat="44.73038" lon="6.81714">
        <ele>2135</ele>
        <time>2020-08-03T11:06:06Z</time>
      </trkpt>
      <trkpt lat="44.7304" lon="6.81712">
        <ele>2135</ele>
        <time>2020-08-03T11:06:07Z</time>
      </trkpt>
      <trkpt lat="44.73042" lon="6.81711">
        <ele>2135</ele>
        <time>2020-08-03T11:06:08Z</time>
      </trkpt>
      <trkpt lat="44.73043" lon="6.81709">
        <ele>2135</ele>
        <time>2020-08-03T11:06:09Z</time>
      </trkpt>
      <trkpt lat="44.73061" lon="6.81693">
        <ele>2138</ele>
        <time>2020-08-03T11:06:21Z</time>
      </trkpt>
      <trkpt lat="44.73077" lon="6.81669">
        <ele>2141</ele>
        <time>2020-08-03T11:06:34Z</time>
      </trkpt>
      <trkpt lat="44.73095" lon="6.81635">
        <ele>2141</ele>
        <time>2020-08-03T11:06:46Z</time>
      </trkpt>
      <trkpt lat="44.73105" lon="6.81587">
        <ele>2142</ele>
        <time>2020-08-03T11:07:00Z</time>
      </trkpt>
      <trkpt lat="44.73108" lon="6.81572">
        <ele>2143</ele>
        <time>2020-08-03T11:07:06Z</time>
      </trkpt>
      <trkpt lat="44.73108" lon="6.8157">
        <ele>2143</ele>
        <time>2020-08-03T11:07:07Z</time>
      </trkpt>
      <trkpt lat="44.7312" lon="6.81536">
        <ele>2143</ele>
        <time>2020-08-03T11:07:22Z</time>
      </trkpt>
      <trkpt lat="44.73127" lon="6.81497">
        <ele>2143</ele>
        <time>2020-08-03T11:07:41Z</time>
      </trkpt>
      <trkpt lat="44.73118" lon="6.81474">
        <ele>2144</ele>
        <time>2020-08-03T11:07:55Z</time>
      </trkpt>
      <trkpt lat="44.7311" lon="6.81462">
        <ele>2145</ele>
        <time>2020-08-03T11:08:08Z</time>
      </trkpt>
      <trkpt lat="44.73105" lon="6.81459">
        <ele>2145</ele>
        <time>2020-08-03T11:35:28Z</time>
      </trkpt>
      <trkpt lat="44.73099" lon="6.81454">
        <ele>2146</ele>
        <time>2020-08-03T11:35:31Z</time>
      </trkpt>
      <trkpt lat="44.73072" lon="6.8142">
        <ele>2147</ele>
        <time>2020-08-03T11:35:43Z</time>
      </trkpt>
      <trkpt lat="44.73055" lon="6.8141">
        <ele>2150</ele>
        <time>2020-08-03T11:35:47Z</time>
      </trkpt>
      <trkpt lat="44.73036" lon="6.81375">
        <ele>2152</ele>
        <time>2020-08-03T11:35:55Z</time>
      </trkpt>
      <trkpt lat="44.73033" lon="6.81362">
        <ele>2153</ele>
        <time>2020-08-03T11:35:59Z</time>
      </trkpt>
      <trkpt lat="44.73003" lon="6.81306">
        <ele>2157</ele>
        <time>2020-08-03T11:36:13Z</time>
      </trkpt>
      <trkpt lat="44.72981" lon="6.81272">
        <ele>2156</ele>
        <time>2020-08-03T11:36:23Z</time>
      </trkpt>
      <trkpt lat="44.72958" lon="6.81247">
        <ele>2156</ele>
        <time>2020-08-03T11:36:34Z</time>
      </trkpt>
      <trkpt lat="44.72941" lon="6.81237">
        <ele>2158</ele>
        <time>2020-08-03T11:36:42Z</time>
      </trkpt>
      <trkpt lat="44.7291" lon="6.81212">
        <ele>2159</ele>
        <time>2020-08-03T11:36:55Z</time>
      </trkpt>
      <trkpt lat="44.72886" lon="6.81184">
        <ele>2160</ele>
        <time>2020-08-03T11:37:09Z</time>
      </trkpt>
      <trkpt lat="44.72842" lon="6.81161">
        <ele>2160</ele>
        <time>2020-08-03T11:37:26Z</time>
      </trkpt>
      <trkpt lat="44.72797" lon="6.81141">
        <ele>2166</ele>
        <time>2020-08-03T11:37:46Z</time>
      </trkpt>
      <trkpt lat="44.72761" lon="6.81127">
        <ele>2167</ele>
        <time>2020-08-03T11:38:02Z</time>
      </trkpt>
      <trkpt lat="44.72744" lon="6.81125">
        <ele>2168</ele>
        <time>2020-08-03T11:38:07Z</time>
      </trkpt>
      <trkpt lat="44.72728" lon="6.81126">
        <ele>2171</ele>
        <time>2020-08-03T11:38:11Z</time>
      </trkpt>
      <trkpt lat="44.72715" lon="6.81124">
        <ele>2173</ele>
        <time>2020-08-03T11:38:15Z</time>
      </trkpt>
      <trkpt lat="44.72689" lon="6.81109">
        <ele>2176</ele>
        <time>2020-08-03T11:38:27Z</time>
      </trkpt>
      <trkpt lat="44.72665" lon="6.81092">
        <ele>2177</ele>
        <time>2020-08-03T11:38:38Z</time>
      </trkpt>
      <trkpt lat="44.72648" lon="6.81073">
        <ele>2178</ele>
        <time>2020-08-03T11:38:48Z</time>
      </trkpt>
      <trkpt lat="44.72625" lon="6.81045">
        <ele>2178</ele>
        <time>2020-08-03T11:38:59Z</time>
      </trkpt>
      <trkpt lat="44.72594" lon="6.81002">
        <ele>2177</ele>
        <time>2020-08-03T11:39:10Z</time>
      </trkpt>
      <trkpt lat="44.72581" lon="6.80984">
        <ele>2174</ele>
        <time>2020-08-03T11:39:14Z</time>
      </trkpt>
      <trkpt lat="44.72558" lon="6.80959">
        <ele>2170</ele>
        <time>2020-08-03T11:39:20Z</time>
      </trkpt>
      <trkpt lat="44.72531" lon="6.80938">
        <ele>2165</ele>
        <time>2020-08-03T11:39:24Z</time>
      </trkpt>
      <trkpt lat="44.72499" lon="6.80917">
        <ele>2164</ele>
        <time>2020-08-03T11:39:28Z</time>
      </trkpt>
      <trkpt lat="44.72484" lon="6.80903">
        <ele>2165</ele>
        <time>2020-08-03T11:39:30Z</time>
      </trkpt>
      <trkpt lat="44.72467" lon="6.80893">
        <ele>2167</ele>
        <time>2020-08-03T11:39:32Z</time>
      </trkpt>
      <trkpt lat="44.72442" lon="6.80877">
        <ele>2165</ele>
        <time>2020-08-03T11:39:35Z</time>
      </trkpt>
      <trkpt lat="44.72404" lon="6.80849">
        <ele>2160</ele>
        <time>2020-08-03T11:39:39Z</time>
      </trkpt>
      <trkpt lat="44.72346" lon="6.8081">
        <ele>2151</ele>
        <time>2020-08-03T11:39:45Z</time>
      </trkpt>
      <trkpt lat="44.72329" lon="6.808">
        <ele>2151</ele>
        <time>2020-08-03T11:39:47Z</time>
      </trkpt>
      <trkpt lat="44.723" lon="6.80783">
        <ele>2152</ele>
        <time>2020-08-03T11:39:51Z</time>
      </trkpt>
      <trkpt lat="44.72253" lon="6.80743">
        <ele>2147</ele>
        <time>2020-08-03T11:39:58Z</time>
      </trkpt>
      <trkpt lat="44.72237" lon="6.80727">
        <ele>2143</ele>
        <time>2020-08-03T11:40:00Z</time>
      </trkpt>
      <trkpt lat="44.72216" lon="6.80699">
        <ele>2136</ele>
        <time>2020-08-03T11:40:03Z</time>
      </trkpt>
      <trkpt lat="44.72191" lon="6.80676">
        <ele>2133</ele>
        <time>2020-08-03T11:40:06Z</time>
      </trkpt>
      <trkpt lat="44.72174" lon="6.80663">
        <ele>2131</ele>
        <time>2020-08-03T11:40:08Z</time>
      </trkpt>
      <trkpt lat="44.72149" lon="6.80643">
        <ele>2129</ele>
        <time>2020-08-03T11:40:11Z</time>
      </trkpt>
      <trkpt lat="44.7214" lon="6.80636">
        <ele>2129</ele>
        <time>2020-08-03T11:40:12Z</time>
      </trkpt>
      <trkpt lat="44.72113" lon="6.80614">
        <ele>2126</ele>
        <time>2020-08-03T11:40:15Z</time>
      </trkpt>
      <trkpt lat="44.72104" lon="6.80608">
        <ele>2126</ele>
        <time>2020-08-03T11:40:16Z</time>
      </trkpt>
      <trkpt lat="44.72072" lon="6.80573">
        <ele>2124</ele>
        <time>2020-08-03T11:40:20Z</time>
      </trkpt>
      <trkpt lat="44.72059" lon="6.80554">
        <ele>2123</ele>
        <time>2020-08-03T11:40:22Z</time>
      </trkpt>
      <trkpt lat="44.72038" lon="6.80537">
        <ele>2124</ele>
        <time>2020-08-03T11:40:25Z</time>
      </trkpt>
      <trkpt lat="44.71977" lon="6.80492">
        <ele>2125</ele>
        <time>2020-08-03T11:40:36Z</time>
      </trkpt>
      <trkpt lat="44.71947" lon="6.80471">
        <ele>2127</ele>
        <time>2020-08-03T11:40:46Z</time>
      </trkpt>
      <trkpt lat="44.71947" lon="6.8047">
        <ele>2127</ele>
        <time>2020-08-03T11:40:49Z</time>
      </trkpt>
      <trkpt lat="44.71943" lon="6.80469">
        <ele>2127</ele>
        <time>2020-08-03T11:41:16Z</time>
      </trkpt>
      <trkpt lat="44.71919" lon="6.80456">
        <ele>2126</ele>
        <time>2020-08-03T11:41:29Z</time>
      </trkpt>
      <trkpt lat="44.71877" lon="6.80441">
        <ele>2125</ele>
        <time>2020-08-03T11:41:44Z</time>
      </trkpt>
      <trkpt lat="44.71817" lon="6.80431">
        <ele>2126</ele>
        <time>2020-08-03T11:41:59Z</time>
      </trkpt>
      <trkpt lat="44.71743" lon="6.80436">
        <ele>2126</ele>
        <time>2020-08-03T11:42:18Z</time>
      </trkpt>
      <trkpt lat="44.71697" lon="6.80431">
        <ele>2130</ele>
        <time>2020-08-03T11:42:31Z</time>
      </trkpt>
      <trkpt lat="44.71669" lon="6.80449">
        <ele>2130</ele>
        <time>2020-08-03T11:42:41Z</time>
      </trkpt>
      <trkpt lat="44.71642" lon="6.80452">
        <ele>2130</ele>
        <time>2020-08-03T11:42:52Z</time>
      </trkpt>
      <trkpt lat="44.71623" lon="6.80441">
        <ele>2134</ele>
        <time>2020-08-03T11:42:59Z</time>
      </trkpt>
      <trkpt lat="44.71613" lon="6.80444">
        <ele>2136</ele>
        <time>2020-08-03T11:43:06Z</time>
      </trkpt>
      <trkpt lat="44.71606" lon="6.80444">
        <ele>2138</ele>
        <time>2020-08-03T11:43:11Z</time>
      </trkpt>
      <trkpt lat="44.71585" lon="6.80439">
        <ele>2144</ele>
        <time>2020-08-03T11:43:26Z</time>
      </trkpt>
      <trkpt lat="44.71575" lon="6.80438">
        <ele>2147</ele>
        <time>2020-08-03T11:43:39Z</time>
      </trkpt>
      <trkpt lat="44.71526" lon="6.80435">
        <ele>2156</ele>
        <time>2020-08-03T11:47:28Z</time>
      </trkpt>
      <trkpt lat="44.71509" lon="6.80444">
        <ele>2158</ele>
        <time>2020-08-03T11:47:49Z</time>
      </trkpt>
      <trkpt lat="44.71508" lon="6.80443">
        <ele>2158</ele>
        <time>2020-08-03T11:47:53Z</time>
      </trkpt>
      <trkpt lat="44.71503" lon="6.80442">
        <ele>2159</ele>
        <time>2020-08-03T11:50:09Z</time>
      </trkpt>
      <trkpt lat="44.71488" lon="6.80447">
        <ele>2161</ele>
        <time>2020-08-03T11:50:22Z</time>
      </trkpt>
      <trkpt lat="44.71475" lon="6.80453">
        <ele>2163</ele>
        <time>2020-08-03T11:50:34Z</time>
      </trkpt>
      <trkpt lat="44.71459" lon="6.8046">
        <ele>2167</ele>
        <time>2020-08-03T11:50:52Z</time>
      </trkpt>
      <trkpt lat="44.71442" lon="6.80459">
        <ele>2171</ele>
        <time>2020-08-03T11:51:08Z</time>
      </trkpt>
      <trkpt lat="44.71426" lon="6.80461">
        <ele>2174</ele>
        <time>2020-08-03T11:51:23Z</time>
      </trkpt>
      <trkpt lat="44.71411" lon="6.80456">
        <ele>2177</ele>
        <time>2020-08-03T11:51:36Z</time>
      </trkpt>
      <trkpt lat="44.71407" lon="6.80454">
        <ele>2178</ele>
        <time>2020-08-03T11:51:40Z</time>
      </trkpt>
      <trkpt lat="44.71395" lon="6.80458">
        <ele>2179</ele>
        <time>2020-08-03T11:51:53Z</time>
      </trkpt>
      <trkpt lat="44.71394" lon="6.80457">
        <ele>2179</ele>
        <time>2020-08-03T11:51:54Z</time>
      </trkpt>
      <trkpt lat="44.71389" lon="6.80459">
        <ele>2179</ele>
        <time>2020-08-03T11:52:01Z</time>
      </trkpt>
      <trkpt lat="44.71383" lon="6.8046">
        <ele>2180</ele>
        <time>2020-08-03T11:52:05Z</time>
      </trkpt>
      <trkpt lat="44.71381" lon="6.80461">
        <ele>2180</ele>
        <time>2020-08-03T11:52:07Z</time>
      </trkpt>
      <trkpt lat="44.7137" lon="6.80461">
        <ele>2182</ele>
        <time>2020-08-03T11:52:18Z</time>
      </trkpt>
      <trkpt lat="44.71366" lon="6.80459">
        <ele>2183</ele>
        <time>2020-08-03T11:52:23Z</time>
      </trkpt>
      <trkpt lat="44.71347" lon="6.80462">
        <ele>2183</ele>
        <time>2020-08-03T11:52:41Z</time>
      </trkpt>
      <trkpt lat="44.71329" lon="6.80467">
        <ele>2184</ele>
        <time>2020-08-03T11:52:59Z</time>
      </trkpt>
      <trkpt lat="44.71311" lon="6.80473">
        <ele>2184</ele>
        <time>2020-08-03T11:53:17Z</time>
      </trkpt>
      <trkpt lat="44.71297" lon="6.80476">
        <ele>2186</ele>
        <time>2020-08-03T11:53:31Z</time>
      </trkpt>
      <trkpt lat="44.71282" lon="6.80475">
        <ele>2189</ele>
        <time>2020-08-03T11:53:46Z</time>
      </trkpt>
      <trkpt lat="44.71263" lon="6.80479">
        <ele>2197</ele>
        <time>2020-08-03T11:54:04Z</time>
      </trkpt>
      <trkpt lat="44.71248" lon="6.80484">
        <ele>2203</ele>
        <time>2020-08-03T11:54:22Z</time>
      </trkpt>
      <trkpt lat="44.71235" lon="6.8049">
        <ele>2205</ele>
        <time>2020-08-03T11:54:37Z</time>
      </trkpt>
      <trkpt lat="44.71221" lon="6.80499">
        <ele>2205</ele>
        <time>2020-08-03T11:54:53Z</time>
      </trkpt>
      <trkpt lat="44.71208" lon="6.80501">
        <ele>2208</ele>
        <time>2020-08-03T11:55:07Z</time>
      </trkpt>
      <trkpt lat="44.71189" lon="6.80505">
        <ele>2214</ele>
        <time>2020-08-03T11:55:25Z</time>
      </trkpt>
      <trkpt lat="44.71165" lon="6.80504">
        <ele>2223</ele>
        <time>2020-08-03T11:55:47Z</time>
      </trkpt>
      <trkpt lat="44.71146" lon="6.80501">
        <ele>2227</ele>
        <time>2020-08-03T11:56:05Z</time>
      </trkpt>
      <trkpt lat="44.71143" lon="6.80497">
        <ele>2228</ele>
        <time>2020-08-03T11:56:10Z</time>
      </trkpt>
      <trkpt lat="44.71145" lon="6.80493">
        <ele>2228</ele>
        <time>2020-08-03T11:56:13Z</time>
      </trkpt>
      <trkpt lat="44.71152" lon="6.80478">
        <ele>2230</ele>
        <time>2020-08-03T11:56:27Z</time>
      </trkpt>
      <trkpt lat="44.71155" lon="6.80473">
        <ele>2231</ele>
        <time>2020-08-03T11:56:33Z</time>
      </trkpt>
      <trkpt lat="44.71152" lon="6.8047">
        <ele>2232</ele>
        <time>2020-08-03T11:56:40Z</time>
      </trkpt>
      <trkpt lat="44.71149" lon="6.80455">
        <ele>2235</ele>
        <time>2020-08-03T11:56:56Z</time>
      </trkpt>
      <trkpt lat="44.71154" lon="6.80443">
        <ele>2237</ele>
        <time>2020-08-03T11:57:09Z</time>
      </trkpt>
      <trkpt lat="44.71157" lon="6.80437">
        <ele>2238</ele>
        <time>2020-08-03T11:57:16Z</time>
      </trkpt>
      <trkpt lat="44.71161" lon="6.80428">
        <ele>2240</ele>
        <time>2020-08-03T11:57:26Z</time>
      </trkpt>
      <trkpt lat="44.71162" lon="6.80426">
        <ele>2241</ele>
        <time>2020-08-03T11:57:28Z</time>
      </trkpt>
      <trkpt lat="44.71164" lon="6.8042">
        <ele>2242</ele>
        <time>2020-08-03T11:57:33Z</time>
      </trkpt>
      <trkpt lat="44.71167" lon="6.80417">
        <ele>2242</ele>
        <time>2020-08-03T11:57:36Z</time>
      </trkpt>
      <trkpt lat="44.71175" lon="6.80401">
        <ele>2243</ele>
        <time>2020-08-03T11:57:52Z</time>
      </trkpt>
      <trkpt lat="44.71178" lon="6.80396">
        <ele>2243</ele>
        <time>2020-08-03T11:57:58Z</time>
      </trkpt>
      <trkpt lat="44.71186" lon="6.80376">
        <ele>2244</ele>
        <time>2020-08-03T11:58:10Z</time>
      </trkpt>
      <trkpt lat="44.7119" lon="6.80368">
        <ele>2245</ele>
        <time>2020-08-03T11:58:16Z</time>
      </trkpt>
      <trkpt lat="44.71194" lon="6.80362">
        <ele>2245</ele>
        <time>2020-08-03T11:58:21Z</time>
      </trkpt>
      <trkpt lat="44.71198" lon="6.80347">
        <ele>2248</ele>
        <time>2020-08-03T11:58:34Z</time>
      </trkpt>
      <trkpt lat="44.71206" lon="6.80328">
        <ele>2251</ele>
        <time>2020-08-03T11:58:51Z</time>
      </trkpt>
      <trkpt lat="44.71199" lon="6.80327">
        <ele>2253</ele>
        <time>2020-08-03T11:59:02Z</time>
      </trkpt>
      <trkpt lat="44.71195" lon="6.80329">
        <ele>2254</ele>
        <time>2020-08-03T11:59:06Z</time>
      </trkpt>
      <trkpt lat="44.71178" lon="6.80332">
        <ele>2255</ele>
        <time>2020-08-03T11:59:26Z</time>
      </trkpt>
      <trkpt lat="44.71177" lon="6.80333">
        <ele>2255</ele>
        <time>2020-08-03T11:59:29Z</time>
      </trkpt>
      <trkpt lat="44.71164" lon="6.80311">
        <ele>2263</ele>
        <time>2020-08-03T12:00:01Z</time>
      </trkpt>
      <trkpt lat="44.71164" lon="6.80308">
        <ele>2264</ele>
        <time>2020-08-03T12:00:03Z</time>
      </trkpt>
      <trkpt lat="44.71154" lon="6.80304">
        <ele>2267</ele>
        <time>2020-08-03T12:00:19Z</time>
      </trkpt>
      <trkpt lat="44.71145" lon="6.80311">
        <ele>2267</ele>
        <time>2020-08-03T12:00:32Z</time>
      </trkpt>
      <trkpt lat="44.71142" lon="6.80312">
        <ele>2268</ele>
        <time>2020-08-03T12:00:35Z</time>
      </trkpt>
      <trkpt lat="44.71133" lon="6.80307">
        <ele>2270</ele>
        <time>2020-08-03T12:00:44Z</time>
      </trkpt>
      <trkpt lat="44.71125" lon="6.80305">
        <ele>2272</ele>
        <time>2020-08-03T12:00:53Z</time>
      </trkpt>
      <trkpt lat="44.71121" lon="6.80302">
        <ele>2272</ele>
        <time>2020-08-03T12:00:57Z</time>
      </trkpt>
      <trkpt lat="44.71117" lon="6.80296">
        <ele>2273</ele>
        <time>2020-08-03T12:01:04Z</time>
      </trkpt>
      <trkpt lat="44.71111" lon="6.80291">
        <ele>2275</ele>
        <time>2020-08-03T12:01:12Z</time>
      </trkpt>
      <trkpt lat="44.71107" lon="6.80292">
        <ele>2275</ele>
        <time>2020-08-03T12:01:20Z</time>
      </trkpt>
      <trkpt lat="44.71102" lon="6.80293">
        <ele>2275</ele>
        <time>2020-08-03T12:01:34Z</time>
      </trkpt>
      <trkpt lat="44.71096" lon="6.80295">
        <ele>2276</ele>
        <time>2020-08-03T12:01:37Z</time>
      </trkpt>
      <trkpt lat="44.71077" lon="6.80302">
        <ele>2279</ele>
        <time>2020-08-03T12:01:45Z</time>
      </trkpt>
      <trkpt lat="44.71044" lon="6.80299">
        <ele>2280</ele>
        <time>2020-08-03T12:01:53Z</time>
      </trkpt>
      <trkpt lat="44.71029" lon="6.80292">
        <ele>2278</ele>
        <time>2020-08-03T12:01:58Z</time>
      </trkpt>
      <trkpt lat="44.71023" lon="6.8029">
        <ele>2277</ele>
        <time>2020-08-03T12:02:00Z</time>
      </trkpt>
      <trkpt lat="44.71009" lon="6.80294">
        <ele>2276</ele>
        <time>2020-08-03T12:02:04Z</time>
      </trkpt>
      <trkpt lat="44.70999" lon="6.80298">
        <ele>2276</ele>
        <time>2020-08-03T12:02:06Z</time>
      </trkpt>
      <trkpt lat="44.7095" lon="6.80289">
        <ele>2278</ele>
        <time>2020-08-03T12:02:16Z</time>
      </trkpt>
      <trkpt lat="44.70911" lon="6.80283">
        <ele>2283</ele>
        <time>2020-08-03T12:02:28Z</time>
      </trkpt>
      <trkpt lat="44.7088" lon="6.8029">
        <ele>2288</ele>
        <time>2020-08-03T12:02:39Z</time>
      </trkpt>
      <trkpt lat="44.7087" lon="6.80296">
        <ele>2289</ele>
        <time>2020-08-03T12:02:45Z</time>
      </trkpt>
      <trkpt lat="44.70853" lon="6.803">
        <ele>2290</ele>
        <time>2020-08-03T12:02:53Z</time>
      </trkpt>
      <trkpt lat="44.70839" lon="6.80291">
        <ele>2288</ele>
        <time>2020-08-03T12:03:00Z</time>
      </trkpt>
      <trkpt lat="44.70811" lon="6.80293">
        <ele>2291</ele>
        <time>2020-08-03T12:03:15Z</time>
      </trkpt>
      <trkpt lat="44.7079" lon="6.80275">
        <ele>2283</ele>
        <time>2020-08-03T12:03:31Z</time>
      </trkpt>
      <trkpt lat="44.70788" lon="6.80274">
        <ele>2283</ele>
        <time>2020-08-03T12:03:33Z</time>
      </trkpt>
      <trkpt lat="44.70775" lon="6.80276">
        <ele>2283</ele>
        <time>2020-08-03T12:03:46Z</time>
      </trkpt>
      <trkpt lat="44.70764" lon="6.80282">
        <ele>2284</ele>
        <time>2020-08-03T12:04:03Z</time>
      </trkpt>
      <trkpt lat="44.70754" lon="6.80285">
        <ele>2283</ele>
        <time>2020-08-03T12:04:14Z</time>
      </trkpt>
      <trkpt lat="44.70749" lon="6.80287">
        <ele>2283</ele>
        <time>2020-08-03T12:04:18Z</time>
      </trkpt>
      <trkpt lat="44.70742" lon="6.80299">
        <ele>2286</ele>
        <time>2020-08-03T12:04:26Z</time>
      </trkpt>
      <trkpt lat="44.70724" lon="6.80321">
        <ele>2294</ele>
        <time>2020-08-03T12:04:41Z</time>
      </trkpt>
      <trkpt lat="44.70724" lon="6.80322">
        <ele>2294</ele>
        <time>2020-08-03T12:04:44Z</time>
      </trkpt>
      <trkpt lat="44.70721" lon="6.80335">
        <ele>2299</ele>
        <time>2020-08-03T12:05:49Z</time>
      </trkpt>
      <trkpt lat="44.70694" lon="6.80358">
        <ele>2297</ele>
        <time>2020-08-03T12:05:57Z</time>
      </trkpt>
      <trkpt lat="44.70688" lon="6.80369">
        <ele>2298</ele>
        <time>2020-08-03T12:05:59Z</time>
      </trkpt>
      <trkpt lat="44.70683" lon="6.80382">
        <ele>2300</ele>
        <time>2020-08-03T12:06:01Z</time>
      </trkpt>
      <trkpt lat="44.70672" lon="6.80424">
        <ele>2310</ele>
        <time>2020-08-03T12:06:08Z</time>
      </trkpt>
      <trkpt lat="44.70656" lon="6.80442">
        <ele>2308</ele>
        <time>2020-08-03T12:06:13Z</time>
      </trkpt>
      <trkpt lat="44.70636" lon="6.80453">
        <ele>2301</ele>
        <time>2020-08-03T12:06:21Z</time>
      </trkpt>
      <trkpt lat="44.70632" lon="6.80459">
        <ele>2301</ele>
        <time>2020-08-03T12:06:24Z</time>
      </trkpt>
      <trkpt lat="44.70625" lon="6.80477">
        <ele>2303</ele>
        <time>2020-08-03T12:06:30Z</time>
      </trkpt>
      <trkpt lat="44.70621" lon="6.80483">
        <ele>2303</ele>
        <time>2020-08-03T12:06:33Z</time>
      </trkpt>
      <trkpt lat="44.7062" lon="6.80486">
        <ele>2303</ele>
        <time>2020-08-03T12:06:39Z</time>
      </trkpt>
      <trkpt lat="44.70613" lon="6.80499">
        <ele>2304</ele>
        <time>2020-08-03T12:07:25Z</time>
      </trkpt>
      <trkpt lat="44.7061" lon="6.80507">
        <ele>2305</ele>
        <time>2020-08-03T12:07:26Z</time>
      </trkpt>
      <trkpt lat="44.70578" lon="6.80533">
        <ele>2305</ele>
        <time>2020-08-03T12:07:33Z</time>
      </trkpt>
      <trkpt lat="44.70572" lon="6.80538">
        <ele>2306</ele>
        <time>2020-08-03T12:07:35Z</time>
      </trkpt>
      <trkpt lat="44.70564" lon="6.80549">
        <ele>2308</ele>
        <time>2020-08-03T12:07:37Z</time>
      </trkpt>
      <trkpt lat="44.70535" lon="6.80553">
        <ele>2302</ele>
        <time>2020-08-03T12:07:42Z</time>
      </trkpt>
      <trkpt lat="44.70531" lon="6.80553">
        <ele>2301</ele>
        <time>2020-08-03T12:07:43Z</time>
      </trkpt>
      <trkpt lat="44.70499" lon="6.80555">
        <ele>2296</ele>
        <time>2020-08-03T12:07:51Z</time>
      </trkpt>
      <trkpt lat="44.70491" lon="6.80554">
        <ele>2294</ele>
        <time>2020-08-03T12:07:53Z</time>
      </trkpt>
      <trkpt lat="44.70466" lon="6.80557">
        <ele>2291</ele>
        <time>2020-08-03T12:07:57Z</time>
      </trkpt>
      <trkpt lat="44.70435" lon="6.80568">
        <ele>2293</ele>
        <time>2020-08-03T12:08:02Z</time>
      </trkpt>
      <trkpt lat="44.70429" lon="6.8057">
        <ele>2293</ele>
        <time>2020-08-03T12:08:03Z</time>
      </trkpt>
      <trkpt lat="44.70402" lon="6.8057">
        <ele>2292</ele>
        <time>2020-08-03T12:08:07Z</time>
      </trkpt>
      <trkpt lat="44.70388" lon="6.80571">
        <ele>2292</ele>
        <time>2020-08-03T12:08:09Z</time>
      </trkpt>
      <trkpt lat="44.70361" lon="6.80568">
        <ele>2290</ele>
        <time>2020-08-03T12:08:13Z</time>
      </trkpt>
      <trkpt lat="44.70336" lon="6.80566">
        <ele>2286</ele>
        <time>2020-08-03T12:08:19Z</time>
      </trkpt>
      <trkpt lat="44.70316" lon="6.80573">
        <ele>2282</ele>
        <time>2020-08-03T12:08:26Z</time>
      </trkpt>
      <trkpt lat="44.70299" lon="6.80588">
        <ele>2281</ele>
        <time>2020-08-03T12:08:30Z</time>
      </trkpt>
      <trkpt lat="44.70282" lon="6.80601">
        <ele>2278</ele>
        <time>2020-08-03T12:08:33Z</time>
      </trkpt>
      <trkpt lat="44.70259" lon="6.8062">
        <ele>2275</ele>
        <time>2020-08-03T12:08:37Z</time>
      </trkpt>
      <trkpt lat="44.70237" lon="6.80642">
        <ele>2279</ele>
        <time>2020-08-03T12:08:43Z</time>
      </trkpt>
      <trkpt lat="44.70231" lon="6.80649">
        <ele>2281</ele>
        <time>2020-08-03T12:08:45Z</time>
      </trkpt>
      <trkpt lat="44.70205" lon="6.80638">
        <ele>2277</ele>
        <time>2020-08-03T12:08:53Z</time>
      </trkpt>
      <trkpt lat="44.70178" lon="6.80645">
        <ele>2277</ele>
        <time>2020-08-03T12:09:05Z</time>
      </trkpt>
      <trkpt lat="44.70148" lon="6.80663">
        <ele>2282</ele>
        <time>2020-08-03T12:09:16Z</time>
      </trkpt>
      <trkpt lat="44.70122" lon="6.80684">
        <ele>2287</ele>
        <time>2020-08-03T12:09:30Z</time>
      </trkpt>
      <trkpt lat="44.70109" lon="6.80684">
        <ele>2285</ele>
        <time>2020-08-03T12:09:37Z</time>
      </trkpt>
      <trkpt lat="44.70106" lon="6.80686">
        <ele>2284</ele>
        <time>2020-08-03T12:09:43Z</time>
      </trkpt>
      <trkpt lat="44.70098" lon="6.80689">
        <ele>2281</ele>
        <time>2020-08-03T12:10:29Z</time>
      </trkpt>
      <trkpt lat="44.70085" lon="6.80696">
        <ele>2279</ele>
        <time>2020-08-03T12:10:32Z</time>
      </trkpt>
      <trkpt lat="44.70059" lon="6.80711">
        <ele>2276</ele>
        <time>2020-08-03T12:10:37Z</time>
      </trkpt>
      <trkpt lat="44.70044" lon="6.80718">
        <ele>2278</ele>
        <time>2020-08-03T12:10:40Z</time>
      </trkpt>
      <trkpt lat="44.70028" lon="6.80724">
        <ele>2280</ele>
        <time>2020-08-03T12:10:44Z</time>
      </trkpt>
      <trkpt lat="44.70001" lon="6.80726">
        <ele>2283</ele>
        <time>2020-08-03T12:10:54Z</time>
      </trkpt>
      <trkpt lat="44.69992" lon="6.80726">
        <ele>2284</ele>
        <time>2020-08-03T12:10:56Z</time>
      </trkpt>
      <trkpt lat="44.69971" lon="6.80722">
        <ele>2284</ele>
        <time>2020-08-03T12:11:01Z</time>
      </trkpt>
      <trkpt lat="44.69949" lon="6.80711">
        <ele>2285</ele>
        <time>2020-08-03T12:11:11Z</time>
      </trkpt>
      <trkpt lat="44.69945" lon="6.8071">
        <ele>2286</ele>
        <time>2020-08-03T12:11:14Z</time>
      </trkpt>
      <trkpt lat="44.69923" lon="6.80702">
        <ele>2295</ele>
        <time>2020-08-03T12:11:28Z</time>
      </trkpt>
      <trkpt lat="44.69917" lon="6.80697">
        <ele>2296</ele>
        <time>2020-08-03T12:11:32Z</time>
      </trkpt>
      <trkpt lat="44.69892" lon="6.8069">
        <ele>2294</ele>
        <time>2020-08-03T12:11:49Z</time>
      </trkpt>
      <trkpt lat="44.69869" lon="6.80689">
        <ele>2289</ele>
        <time>2020-08-03T12:12:04Z</time>
      </trkpt>
      <trkpt lat="44.69854" lon="6.80695">
        <ele>2289</ele>
        <time>2020-08-03T12:12:15Z</time>
      </trkpt>
      <trkpt lat="44.69829" lon="6.80711">
        <ele>2294</ele>
        <time>2020-08-03T12:12:30Z</time>
      </trkpt>
      <trkpt lat="44.698" lon="6.80717">
        <ele>2289</ele>
        <time>2020-08-03T12:12:44Z</time>
      </trkpt>
      <trkpt lat="44.69769" lon="6.80723">
        <ele>2284</ele>
        <time>2020-08-03T12:13:00Z</time>
      </trkpt>
      <trkpt lat="44.69746" lon="6.8074">
        <ele>2292</ele>
        <time>2020-08-03T12:13:08Z</time>
      </trkpt>
      <trkpt lat="44.69735" lon="6.80748">
        <ele>2295</ele>
        <time>2020-08-03T12:13:11Z</time>
      </trkpt>
      <trkpt lat="44.69707" lon="6.80783">
        <ele>2301</ele>
        <time>2020-08-03T12:13:21Z</time>
      </trkpt>
      <trkpt lat="44.69693" lon="6.80805">
        <ele>2302</ele>
        <time>2020-08-03T12:13:31Z</time>
      </trkpt>
      <trkpt lat="44.69675" lon="6.80844">
        <ele>2303</ele>
        <time>2020-08-03T12:13:42Z</time>
      </trkpt>
      <trkpt lat="44.69654" lon="6.80861">
        <ele>2301</ele>
        <time>2020-08-03T12:13:48Z</time>
      </trkpt>
      <trkpt lat="44.69634" lon="6.80868">
        <ele>2298</ele>
        <time>2020-08-03T12:13:56Z</time>
      </trkpt>
      <trkpt lat="44.69605" lon="6.80869">
        <ele>2296</ele>
        <time>2020-08-03T12:14:03Z</time>
      </trkpt>
      <trkpt lat="44.69585" lon="6.80871">
        <ele>2296</ele>
        <time>2020-08-03T12:14:08Z</time>
      </trkpt>
      <trkpt lat="44.69535" lon="6.80867">
        <ele>2299</ele>
        <time>2020-08-03T12:14:21Z</time>
      </trkpt>
      <trkpt lat="44.69501" lon="6.80844">
        <ele>2295</ele>
        <time>2020-08-03T12:14:33Z</time>
      </trkpt>
      <trkpt lat="44.6949" lon="6.80828">
        <ele>2292</ele>
        <time>2020-08-03T12:14:40Z</time>
      </trkpt>
      <trkpt lat="44.69475" lon="6.80816">
        <ele>2292</ele>
        <time>2020-08-03T12:14:49Z</time>
      </trkpt>
      <trkpt lat="44.69468" lon="6.80814">
        <ele>2293</ele>
        <time>2020-08-03T12:14:53Z</time>
      </trkpt>
      <trkpt lat="44.69463" lon="6.80814">
        <ele>2293</ele>
        <time>2020-08-03T12:15:01Z</time>
      </trkpt>
      <trkpt lat="44.69456" lon="6.80812">
        <ele>2293</ele>
        <time>2020-08-03T12:15:18Z</time>
      </trkpt>
      <trkpt lat="44.69442" lon="6.80812">
        <ele>2293</ele>
        <time>2020-08-03T12:15:22Z</time>
      </trkpt>
      <trkpt lat="44.69432" lon="6.80812">
        <ele>2294</ele>
        <time>2020-08-03T12:15:24Z</time>
      </trkpt>
      <trkpt lat="44.69416" lon="6.80801">
        <ele>2292</ele>
        <time>2020-08-03T12:15:30Z</time>
      </trkpt>
      <trkpt lat="44.69406" lon="6.80805">
        <ele>2294</ele>
        <time>2020-08-03T12:15:33Z</time>
      </trkpt>
      <trkpt lat="44.69388" lon="6.80802">
        <ele>2295</ele>
        <time>2020-08-03T12:15:39Z</time>
      </trkpt>
      <trkpt lat="44.69377" lon="6.80788">
        <ele>2290</ele>
        <time>2020-08-03T12:15:45Z</time>
      </trkpt>
      <trkpt lat="44.69353" lon="6.80774">
        <ele>2286</ele>
        <time>2020-08-03T12:15:53Z</time>
      </trkpt>
      <trkpt lat="44.69332" lon="6.80779">
        <ele>2289</ele>
        <time>2020-08-03T12:15:57Z</time>
      </trkpt>
      <trkpt lat="44.69321" lon="6.80784">
        <ele>2290</ele>
        <time>2020-08-03T12:15:59Z</time>
      </trkpt>
      <trkpt lat="44.69274" lon="6.80778">
        <ele>2288</ele>
        <time>2020-08-03T12:16:07Z</time>
      </trkpt>
      <trkpt lat="44.69263" lon="6.80778">
        <ele>2288</ele>
        <time>2020-08-03T12:16:09Z</time>
      </trkpt>
      <trkpt lat="44.69253" lon="6.80776">
        <ele>2286</ele>
        <time>2020-08-03T12:16:12Z</time>
      </trkpt>
      <trkpt lat="44.69231" lon="6.80779">
        <ele>2285</ele>
        <time>2020-08-03T12:16:21Z</time>
      </trkpt>
      <trkpt lat="44.69214" lon="6.80779">
        <ele>2286</ele>
        <time>2020-08-03T12:16:24Z</time>
      </trkpt>
      <trkpt lat="44.69179" lon="6.80774">
        <ele>2288</ele>
        <time>2020-08-03T12:16:34Z</time>
      </trkpt>
      <trkpt lat="44.6917" lon="6.80769">
        <ele>2289</ele>
        <time>2020-08-03T12:16:37Z</time>
      </trkpt>
      <trkpt lat="44.69146" lon="6.80753">
        <ele>2294</ele>
        <time>2020-08-03T12:16:49Z</time>
      </trkpt>
      <trkpt lat="44.69123" lon="6.80718">
        <ele>2294</ele>
        <time>2020-08-03T12:17:05Z</time>
      </trkpt>
      <trkpt lat="44.69119" lon="6.80706">
        <ele>2292</ele>
        <time>2020-08-03T12:17:14Z</time>
      </trkpt>
      <trkpt lat="44.69094" lon="6.80667">
        <ele>2292</ele>
        <time>2020-08-03T12:18:29Z</time>
      </trkpt>
      <trkpt lat="44.6909" lon="6.80666">
        <ele>2294</ele>
        <time>2020-08-03T12:18:30Z</time>
      </trkpt>
      <trkpt lat="44.69058" lon="6.80662">
        <ele>2302</ele>
        <time>2020-08-03T12:18:38Z</time>
      </trkpt>
      <trkpt lat="44.69047" lon="6.80663">
        <ele>2303</ele>
        <time>2020-08-03T12:18:40Z</time>
      </trkpt>
      <trkpt lat="44.69035" lon="6.8066">
        <ele>2302</ele>
        <time>2020-08-03T12:18:42Z</time>
      </trkpt>
      <trkpt lat="44.69025" lon="6.80652">
        <ele>2300</ele>
        <time>2020-08-03T12:18:44Z</time>
      </trkpt>
      <trkpt lat="44.69013" lon="6.80637">
        <ele>2298</ele>
        <time>2020-08-03T12:18:48Z</time>
      </trkpt>
      <trkpt lat="44.68997" lon="6.80632">
        <ele>2299</ele>
        <time>2020-08-03T12:18:53Z</time>
      </trkpt>
      <trkpt lat="44.68984" lon="6.80617">
        <ele>2297</ele>
        <time>2020-08-03T12:19:06Z</time>
      </trkpt>
      <trkpt lat="44.68971" lon="6.80605">
        <ele>2299</ele>
        <time>2020-08-03T12:25:32Z</time>
      </trkpt>
      <trkpt lat="44.68964" lon="6.80611">
        <ele>2299</ele>
        <time>2020-08-03T12:25:38Z</time>
      </trkpt>
      <trkpt lat="44.68957" lon="6.80617">
        <ele>2299</ele>
        <time>2020-08-03T12:25:50Z</time>
      </trkpt>
      <trkpt lat="44.68951" lon="6.80622">
        <ele>2299</ele>
        <time>2020-08-03T12:25:57Z</time>
      </trkpt>
      <trkpt lat="44.68944" lon="6.80628">
        <ele>2298</ele>
        <time>2020-08-03T12:26:00Z</time>
      </trkpt>
      <trkpt lat="44.68929" lon="6.80641">
        <ele>2297</ele>
        <time>2020-08-03T12:26:04Z</time>
      </trkpt>
      <trkpt lat="44.68914" lon="6.8066">
        <ele>2298</ele>
        <time>2020-08-03T12:26:08Z</time>
      </trkpt>
      <trkpt lat="44.68903" lon="6.80685">
        <ele>2298</ele>
        <time>2020-08-03T12:26:12Z</time>
      </trkpt>
      <trkpt lat="44.68895" lon="6.80697">
        <ele>2297</ele>
        <time>2020-08-03T12:26:14Z</time>
      </trkpt>
      <trkpt lat="44.68887" lon="6.80707">
        <ele>2296</ele>
        <time>2020-08-03T12:26:16Z</time>
      </trkpt>
      <trkpt lat="44.68882" lon="6.80711">
        <ele>2295</ele>
        <time>2020-08-03T12:26:17Z</time>
      </trkpt>
      <trkpt lat="44.68866" lon="6.80735">
        <ele>2293</ele>
        <time>2020-08-03T12:26:21Z</time>
      </trkpt>
      <trkpt lat="44.6885" lon="6.80763">
        <ele>2290</ele>
        <time>2020-08-03T12:26:25Z</time>
      </trkpt>
      <trkpt lat="44.68832" lon="6.80788">
        <ele>2286</ele>
        <time>2020-08-03T12:26:30Z</time>
      </trkpt>
      <trkpt lat="44.68828" lon="6.808">
        <ele>2285</ele>
        <time>2020-08-03T12:26:32Z</time>
      </trkpt>
      <trkpt lat="44.68824" lon="6.80817">
        <ele>2283</ele>
        <time>2020-08-03T12:26:34Z</time>
      </trkpt>
      <trkpt lat="44.68825" lon="6.80856">
        <ele>2282</ele>
        <time>2020-08-03T12:26:39Z</time>
      </trkpt>
      <trkpt lat="44.68834" lon="6.80893">
        <ele>2289</ele>
        <time>2020-08-03T12:26:44Z</time>
      </trkpt>
      <trkpt lat="44.68834" lon="6.8093">
        <ele>2292</ele>
        <time>2020-08-03T12:26:48Z</time>
      </trkpt>
      <trkpt lat="44.68813" lon="6.80971">
        <ele>2289</ele>
        <time>2020-08-03T12:26:55Z</time>
      </trkpt>
      <trkpt lat="44.68783" lon="6.80989">
        <ele>2282</ele>
        <time>2020-08-03T12:27:06Z</time>
      </trkpt>
      <trkpt lat="44.68783" lon="6.80989">
        <ele>2282</ele>
        <time>2020-08-03T12:27:07Z</time>
      </trkpt>
      <trkpt lat="44.6878" lon="6.80991">
        <ele>2282</ele>
        <time>2020-08-03T12:27:11Z</time>
      </trkpt>
      <trkpt lat="44.68777" lon="6.80998">
        <ele>2283</ele>
        <time>2020-08-03T12:27:22Z</time>
      </trkpt>
      <trkpt lat="44.68774" lon="6.81002">
        <ele>2283</ele>
        <time>2020-08-03T12:28:05Z</time>
      </trkpt>
      <trkpt lat="44.68759" lon="6.81014">
        <ele>2284</ele>
        <time>2020-08-03T12:28:11Z</time>
      </trkpt>
      <trkpt lat="44.68753" lon="6.81023">
        <ele>2284</ele>
        <time>2020-08-03T12:28:13Z</time>
      </trkpt>
      <trkpt lat="44.68736" lon="6.81051">
        <ele>2288</ele>
        <time>2020-08-03T12:28:18Z</time>
      </trkpt>
      <trkpt lat="44.68727" lon="6.81081">
        <ele>2293</ele>
        <time>2020-08-03T12:28:24Z</time>
      </trkpt>
      <trkpt lat="44.68722" lon="6.81087">
        <ele>2294</ele>
        <time>2020-08-03T12:28:29Z</time>
      </trkpt>
      <trkpt lat="44.68701" lon="6.81063">
        <ele>2287</ele>
        <time>2020-08-03T12:28:39Z</time>
      </trkpt>
      <trkpt lat="44.68686" lon="6.81047">
        <ele>2285</ele>
        <time>2020-08-03T12:28:50Z</time>
      </trkpt>
      <trkpt lat="44.68686" lon="6.81047">
        <ele>2285</ele>
        <time>2020-08-03T12:28:53Z</time>
      </trkpt>
      <trkpt lat="44.68676" lon="6.81043">
        <ele>2286</ele>
        <time>2020-08-03T12:29:00Z</time>
      </trkpt>
      <trkpt lat="44.68656" lon="6.81033">
        <ele>2289</ele>
        <time>2020-08-03T12:29:09Z</time>
      </trkpt>
      <trkpt lat="44.68625" lon="6.81021">
        <ele>2292</ele>
        <time>2020-08-03T12:29:23Z</time>
      </trkpt>
      <trkpt lat="44.68613" lon="6.81015">
        <ele>2292</ele>
        <time>2020-08-03T12:29:29Z</time>
      </trkpt>
      <trkpt lat="44.68605" lon="6.81006">
        <ele>2292</ele>
        <time>2020-08-03T12:29:34Z</time>
      </trkpt>
      <trkpt lat="44.68587" lon="6.80998">
        <ele>2295</ele>
        <time>2020-08-03T12:29:47Z</time>
      </trkpt>
      <trkpt lat="44.68562" lon="6.8099">
        <ele>2299</ele>
        <time>2020-08-03T12:29:58Z</time>
      </trkpt>
      <trkpt lat="44.68533" lon="6.80984">
        <ele>2291</ele>
        <time>2020-08-03T12:30:11Z</time>
      </trkpt>
      <trkpt lat="44.68525" lon="6.8098">
        <ele>2287</ele>
        <time>2020-08-03T12:30:21Z</time>
      </trkpt>
      <trkpt lat="44.6852" lon="6.80983">
        <ele>2287</ele>
        <time>2020-08-03T12:30:28Z</time>
      </trkpt>
      <trkpt lat="44.68516" lon="6.80985">
        <ele>2286</ele>
        <time>2020-08-03T12:31:02Z</time>
      </trkpt>
      <trkpt lat="44.68493" lon="6.8101">
        <ele>2285</ele>
        <time>2020-08-03T12:31:11Z</time>
      </trkpt>
      <trkpt lat="44.68491" lon="6.81013">
        <ele>2284</ele>
        <time>2020-08-03T12:31:12Z</time>
      </trkpt>
      <trkpt lat="44.68491" lon="6.81036">
        <ele>2287</ele>
        <time>2020-08-03T12:31:17Z</time>
      </trkpt>
      <trkpt lat="44.68484" lon="6.81072">
        <ele>2291</ele>
        <time>2020-08-03T12:31:21Z</time>
      </trkpt>
      <trkpt lat="44.68457" lon="6.81106">
        <ele>2288</ele>
        <time>2020-08-03T12:31:27Z</time>
      </trkpt>
      <trkpt lat="44.68448" lon="6.81114">
        <ele>2285</ele>
        <time>2020-08-03T12:31:29Z</time>
      </trkpt>
      <trkpt lat="44.68435" lon="6.81126">
        <ele>2284</ele>
        <time>2020-08-03T12:31:32Z</time>
      </trkpt>
      <trkpt lat="44.68418" lon="6.81147">
        <ele>2285</ele>
        <time>2020-08-03T12:31:36Z</time>
      </trkpt>
      <trkpt lat="44.68404" lon="6.81158">
        <ele>2285</ele>
        <time>2020-08-03T12:31:40Z</time>
      </trkpt>
      <trkpt lat="44.6839" lon="6.8117">
        <ele>2284</ele>
        <time>2020-08-03T12:31:44Z</time>
      </trkpt>
      <trkpt lat="44.68384" lon="6.81179">
        <ele>2284</ele>
        <time>2020-08-03T12:31:46Z</time>
      </trkpt>
      <trkpt lat="44.68357" lon="6.81213">
        <ele>2286</ele>
        <time>2020-08-03T12:31:54Z</time>
      </trkpt>
      <trkpt lat="44.68351" lon="6.81216">
        <ele>2284</ele>
        <time>2020-08-03T12:31:56Z</time>
      </trkpt>
      <trkpt lat="44.68342" lon="6.81221">
        <ele>2282</ele>
        <time>2020-08-03T12:31:59Z</time>
      </trkpt>
      <trkpt lat="44.68324" lon="6.8122">
        <ele>2276</ele>
        <time>2020-08-03T12:32:05Z</time>
      </trkpt>
      <trkpt lat="44.68321" lon="6.81219">
        <ele>2275</ele>
        <time>2020-08-03T12:32:10Z</time>
      </trkpt>
      <trkpt lat="44.68321" lon="6.81218">
        <ele>2274</ele>
        <time>2020-08-03T12:32:11Z</time>
      </trkpt>
      <trkpt lat="44.68314" lon="6.81223">
        <ele>2274</ele>
        <time>2020-08-03T12:32:47Z</time>
      </trkpt>
      <trkpt lat="44.68305" lon="6.81228">
        <ele>2274</ele>
        <time>2020-08-03T12:32:49Z</time>
      </trkpt>
      <trkpt lat="44.6829" lon="6.81235">
        <ele>2274</ele>
        <time>2020-08-03T12:32:52Z</time>
      </trkpt>
      <trkpt lat="44.68275" lon="6.81247">
        <ele>2275</ele>
        <time>2020-08-03T12:32:55Z</time>
      </trkpt>
      <trkpt lat="44.68257" lon="6.81254">
        <ele>2274</ele>
        <time>2020-08-03T12:32:59Z</time>
      </trkpt>
      <trkpt lat="44.68243" lon="6.81251">
        <ele>2270</ele>
        <time>2020-08-03T12:33:03Z</time>
      </trkpt>
      <trkpt lat="44.68222" lon="6.81248">
        <ele>2265</ele>
        <time>2020-08-03T12:33:08Z</time>
      </trkpt>
      <trkpt lat="44.68184" lon="6.81251">
        <ele>2266</ele>
        <time>2020-08-03T12:33:17Z</time>
      </trkpt>
      <trkpt lat="44.68145" lon="6.8125">
        <ele>2254</ele>
        <time>2020-08-03T12:33:27Z</time>
      </trkpt>
      <trkpt lat="44.6814" lon="6.81259">
        <ele>2255</ele>
        <time>2020-08-03T12:33:30Z</time>
      </trkpt>
      <trkpt lat="44.68133" lon="6.81278">
        <ele>2261</ele>
        <time>2020-08-03T12:33:34Z</time>
      </trkpt>
      <trkpt lat="44.68126" lon="6.81288">
        <ele>2262</ele>
        <time>2020-08-03T12:33:43Z</time>
      </trkpt>
      <trkpt lat="44.68124" lon="6.81291">
        <ele>2263</ele>
        <time>2020-08-03T12:33:46Z</time>
      </trkpt>
      <trkpt lat="44.68117" lon="6.81312">
        <ele>2271</ele>
        <time>2020-08-03T12:34:02Z</time>
      </trkpt>
      <trkpt lat="44.68111" lon="6.81325">
        <ele>2274</ele>
        <time>2020-08-03T12:34:16Z</time>
      </trkpt>
      <trkpt lat="44.68103" lon="6.81331">
        <ele>2274</ele>
        <time>2020-08-03T12:34:56Z</time>
      </trkpt>
      <trkpt lat="44.68097" lon="6.81336">
        <ele>2274</ele>
        <time>2020-08-03T12:34:58Z</time>
      </trkpt>
      <trkpt lat="44.68074" lon="6.81348">
        <ele>2269</ele>
        <time>2020-08-03T12:35:07Z</time>
      </trkpt>
      <trkpt lat="44.68066" lon="6.81355">
        <ele>2266</ele>
        <time>2020-08-03T12:35:10Z</time>
      </trkpt>
      <trkpt lat="44.68055" lon="6.81366">
        <ele>2264</ele>
        <time>2020-08-03T12:35:13Z</time>
      </trkpt>
      <trkpt lat="44.68019" lon="6.81389">
        <ele>2252</ele>
        <time>2020-08-03T12:35:22Z</time>
      </trkpt>
      <trkpt lat="44.68009" lon="6.81419">
        <ele>2249</ele>
        <time>2020-08-03T12:35:28Z</time>
      </trkpt>
      <trkpt lat="44.68015" lon="6.81487">
        <ele>2264</ele>
        <time>2020-08-03T12:35:40Z</time>
      </trkpt>
      <trkpt lat="44.68029" lon="6.81512">
        <ele>2271</ele>
        <time>2020-08-03T12:35:48Z</time>
      </trkpt>
      <trkpt lat="44.68025" lon="6.81513">
        <ele>2270</ele>
        <time>2020-08-03T12:35:55Z</time>
      </trkpt>
      <trkpt lat="44.68022" lon="6.81511">
        <ele>2269</ele>
        <time>2020-08-03T12:36:02Z</time>
      </trkpt>
      <trkpt lat="44.68014" lon="6.8151">
        <ele>2266</ele>
        <time>2020-08-03T12:36:25Z</time>
      </trkpt>
      <trkpt lat="44.68003" lon="6.81511">
        <ele>2263</ele>
        <time>2020-08-03T12:36:28Z</time>
      </trkpt>
      <trkpt lat="44.6797" lon="6.81515">
        <ele>2253</ele>
        <time>2020-08-03T12:36:39Z</time>
      </trkpt>
      <trkpt lat="44.67966" lon="6.81515">
        <ele>2252</ele>
        <time>2020-08-03T12:36:40Z</time>
      </trkpt>
      <trkpt lat="44.67936" lon="6.81549">
        <ele>2250</ele>
        <time>2020-08-03T12:36:49Z</time>
      </trkpt>
      <trkpt lat="44.67926" lon="6.81566">
        <ele>2249</ele>
        <time>2020-08-03T12:36:53Z</time>
      </trkpt>
      <trkpt lat="44.67919" lon="6.81595">
        <ele>2248</ele>
        <time>2020-08-03T12:36:57Z</time>
      </trkpt>
      <trkpt lat="44.67918" lon="6.81613">
        <ele>2248</ele>
        <time>2020-08-03T12:36:59Z</time>
      </trkpt>
      <trkpt lat="44.67906" lon="6.81644">
        <ele>2243</ele>
        <time>2020-08-03T12:37:04Z</time>
      </trkpt>
      <trkpt lat="44.67902" lon="6.81655">
        <ele>2241</ele>
        <time>2020-08-03T12:37:06Z</time>
      </trkpt>
      <trkpt lat="44.67897" lon="6.81678">
        <ele>2241</ele>
        <time>2020-08-03T12:37:09Z</time>
      </trkpt>
      <trkpt lat="44.67889" lon="6.817">
        <ele>2238</ele>
        <time>2020-08-03T12:37:12Z</time>
      </trkpt>
      <trkpt lat="44.67886" lon="6.81706">
        <ele>2237</ele>
        <time>2020-08-03T12:37:13Z</time>
      </trkpt>
      <trkpt lat="44.67863" lon="6.81734">
        <ele>2230</ele>
        <time>2020-08-03T12:37:18Z</time>
      </trkpt>
      <trkpt lat="44.67846" lon="6.81756">
        <ele>2224</ele>
        <time>2020-08-03T12:37:22Z</time>
      </trkpt>
      <trkpt lat="44.67816" lon="6.81797">
        <ele>2221</ele>
        <time>2020-08-03T12:37:28Z</time>
      </trkpt>
      <trkpt lat="44.6781" lon="6.81805">
        <ele>2221</ele>
        <time>2020-08-03T12:37:29Z</time>
      </trkpt>
      <trkpt lat="44.6778" lon="6.81826">
        <ele>2215</ele>
        <time>2020-08-03T12:37:33Z</time>
      </trkpt>
      <trkpt lat="44.67762" lon="6.81842">
        <ele>2212</ele>
        <time>2020-08-03T12:37:37Z</time>
      </trkpt>
      <trkpt lat="44.67753" lon="6.8185">
        <ele>2212</ele>
        <time>2020-08-03T12:37:39Z</time>
      </trkpt>
      <trkpt lat="44.67736" lon="6.81867">
        <ele>2211</ele>
        <time>2020-08-03T12:37:43Z</time>
      </trkpt>
      <trkpt lat="44.67718" lon="6.81866">
        <ele>2207</ele>
        <time>2020-08-03T12:37:47Z</time>
      </trkpt>
      <trkpt lat="44.67698" lon="6.81857">
        <ele>2202</ele>
        <time>2020-08-03T12:37:55Z</time>
      </trkpt>
      <trkpt lat="44.67698" lon="6.81845">
        <ele>2200</ele>
        <time>2020-08-03T12:38:03Z</time>
      </trkpt>
      <trkpt lat="44.67697" lon="6.81831">
        <ele>2198</ele>
        <time>2020-08-03T12:39:50Z</time>
      </trkpt>
      <trkpt lat="44.67694" lon="6.81819">
        <ele>2195</ele>
        <time>2020-08-03T12:39:52Z</time>
      </trkpt>
      <trkpt lat="44.6769" lon="6.81809">
        <ele>2192</ele>
        <time>2020-08-03T12:39:54Z</time>
      </trkpt>
      <trkpt lat="44.67683" lon="6.81804">
        <ele>2189</ele>
        <time>2020-08-03T12:39:58Z</time>
      </trkpt>
      <trkpt lat="44.67684" lon="6.81789">
        <ele>2187</ele>
        <time>2020-08-03T12:40:03Z</time>
      </trkpt>
      <trkpt lat="44.67681" lon="6.81775">
        <ele>2184</ele>
        <time>2020-08-03T12:40:05Z</time>
      </trkpt>
      <trkpt lat="44.67674" lon="6.81733">
        <ele>2177</ele>
        <time>2020-08-03T12:40:10Z</time>
      </trkpt>
      <trkpt lat="44.67666" lon="6.81703">
        <ele>2170</ele>
        <time>2020-08-03T12:40:14Z</time>
      </trkpt>
      <trkpt lat="44.6766" lon="6.81681">
        <ele>2166</ele>
        <time>2020-08-03T12:40:17Z</time>
      </trkpt>
      <trkpt lat="44.67658" lon="6.81673">
        <ele>2165</ele>
        <time>2020-08-03T12:40:18Z</time>
      </trkpt>
      <trkpt lat="44.67653" lon="6.81654">
        <ele>2162</ele>
        <time>2020-08-03T12:40:21Z</time>
      </trkpt>
      <trkpt lat="44.67651" lon="6.81634">
        <ele>2159</ele>
        <time>2020-08-03T12:40:25Z</time>
      </trkpt>
      <trkpt lat="44.67644" lon="6.81636">
        <ele>2157</ele>
        <time>2020-08-03T12:40:29Z</time>
      </trkpt>
      <trkpt lat="44.67639" lon="6.81634">
        <ele>2156</ele>
        <time>2020-08-03T12:40:32Z</time>
      </trkpt>
      <trkpt lat="44.67639" lon="6.81629">
        <ele>2155</ele>
        <time>2020-08-03T12:40:33Z</time>
      </trkpt>
      <trkpt lat="44.6764" lon="6.816">
        <ele>2151</ele>
        <time>2020-08-03T12:40:38Z</time>
      </trkpt>
      <trkpt lat="44.67642" lon="6.81563">
        <ele>2142</ele>
        <time>2020-08-03T12:40:44Z</time>
      </trkpt>
      <trkpt lat="44.67643" lon="6.81557">
        <ele>2140</ele>
        <time>2020-08-03T12:40:46Z</time>
      </trkpt>
      <trkpt lat="44.67632" lon="6.81557">
        <ele>2136</ele>
        <time>2020-08-03T12:40:50Z</time>
      </trkpt>
      <trkpt lat="44.6763" lon="6.81557">
        <ele>2135</ele>
        <time>2020-08-03T12:40:51Z</time>
      </trkpt>
      <trkpt lat="44.6763" lon="6.81537">
        <ele>2130</ele>
        <time>2020-08-03T12:40:57Z</time>
      </trkpt>
      <trkpt lat="44.67632" lon="6.81524">
        <ele>2127</ele>
        <time>2020-08-03T12:41:00Z</time>
      </trkpt>
      <trkpt lat="44.67614" lon="6.81534">
        <ele>2123</ele>
        <time>2020-08-03T12:41:05Z</time>
      </trkpt>
      <trkpt lat="44.67605" lon="6.81542">
        <ele>2121</ele>
        <time>2020-08-03T12:41:07Z</time>
      </trkpt>
      <trkpt lat="44.67595" lon="6.81552">
        <ele>2119</ele>
        <time>2020-08-03T12:41:09Z</time>
      </trkpt>
      <trkpt lat="44.67588" lon="6.81563">
        <ele>2117</ele>
        <time>2020-08-03T12:41:11Z</time>
      </trkpt>
      <trkpt lat="44.67562" lon="6.81597">
        <ele>2107</ele>
        <time>2020-08-03T12:41:16Z</time>
      </trkpt>
      <trkpt lat="44.67537" lon="6.81621">
        <ele>2102</ele>
        <time>2020-08-03T12:41:20Z</time>
      </trkpt>
      <trkpt lat="44.67527" lon="6.81629">
        <ele>2101</ele>
        <time>2020-08-03T12:41:22Z</time>
      </trkpt>
      <trkpt lat="44.67524" lon="6.81627">
        <ele>2099</ele>
        <time>2020-08-03T12:41:25Z</time>
      </trkpt>
      <trkpt lat="44.67525" lon="6.81622">
        <ele>2098</ele>
        <time>2020-08-03T12:41:26Z</time>
      </trkpt>
      <trkpt lat="44.67531" lon="6.81601">
        <ele>2095</ele>
        <time>2020-08-03T12:41:29Z</time>
      </trkpt>
      <trkpt lat="44.67536" lon="6.81566">
        <ele>2090</ele>
        <time>2020-08-03T12:41:33Z</time>
      </trkpt>
      <trkpt lat="44.67541" lon="6.81521">
        <ele>2083</ele>
        <time>2020-08-03T12:41:38Z</time>
      </trkpt>
      <trkpt lat="44.67541" lon="6.81508">
        <ele>2080</ele>
        <time>2020-08-03T12:41:41Z</time>
      </trkpt>
      <trkpt lat="44.67532" lon="6.81516">
        <ele>2078</ele>
        <time>2020-08-03T12:41:44Z</time>
      </trkpt>
      <trkpt lat="44.67523" lon="6.81523">
        <ele>2075</ele>
        <time>2020-08-03T12:41:46Z</time>
      </trkpt>
      <trkpt lat="44.67509" lon="6.81541">
        <ele>2072</ele>
        <time>2020-08-03T12:41:49Z</time>
      </trkpt>
      <trkpt lat="44.67488" lon="6.81571">
        <ele>2068</ele>
        <time>2020-08-03T12:41:55Z</time>
      </trkpt>
      <trkpt lat="44.67486" lon="6.8157">
        <ele>2066</ele>
        <time>2020-08-03T12:41:57Z</time>
      </trkpt>
      <trkpt lat="44.67489" lon="6.81542">
        <ele>2063</ele>
        <time>2020-08-03T12:42:02Z</time>
      </trkpt>
      <trkpt lat="44.6749" lon="6.81507">
        <ele>2058</ele>
        <time>2020-08-03T12:42:06Z</time>
      </trkpt>
      <trkpt lat="44.67489" lon="6.81496">
        <ele>2056</ele>
        <time>2020-08-03T12:42:09Z</time>
      </trkpt>
      <trkpt lat="44.67471" lon="6.81517">
        <ele>2052</ele>
        <time>2020-08-03T12:42:13Z</time>
      </trkpt>
      <trkpt lat="44.67464" lon="6.81525">
        <ele>2049</ele>
        <time>2020-08-03T12:42:14Z</time>
      </trkpt>
      <trkpt lat="44.67444" lon="6.81538">
        <ele>2042</ele>
        <time>2020-08-03T12:42:19Z</time>
      </trkpt>
      <trkpt lat="44.67436" lon="6.8151">
        <ele>2036</ele>
        <time>2020-08-03T12:42:23Z</time>
      </trkpt>
      <trkpt lat="44.67431" lon="6.81473">
        <ele>2029</ele>
        <time>2020-08-03T12:42:29Z</time>
      </trkpt>
      <trkpt lat="44.67426" lon="6.81475">
        <ele>2027</ele>
        <time>2020-08-03T12:42:32Z</time>
      </trkpt>
      <trkpt lat="44.67423" lon="6.81479">
        <ele>2027</ele>
        <time>2020-08-03T12:42:33Z</time>
      </trkpt>
      <trkpt lat="44.67416" lon="6.8149">
        <ele>2026</ele>
        <time>2020-08-03T12:42:35Z</time>
      </trkpt>
      <trkpt lat="44.67396" lon="6.81518">
        <ele>2021</ele>
        <time>2020-08-03T12:42:39Z</time>
      </trkpt>
      <trkpt lat="44.67382" lon="6.81538">
        <ele>2018</ele>
        <time>2020-08-03T12:42:42Z</time>
      </trkpt>
      <trkpt lat="44.67374" lon="6.81544">
        <ele>2016</ele>
        <time>2020-08-03T12:42:46Z</time>
      </trkpt>
      <trkpt lat="44.67374" lon="6.81527">
        <ele>2013</ele>
        <time>2020-08-03T12:42:49Z</time>
      </trkpt>
      <trkpt lat="44.67369" lon="6.81525">
        <ele>2011</ele>
        <time>2020-08-03T12:42:53Z</time>
      </trkpt>
      <trkpt lat="44.67361" lon="6.81511">
        <ele>2007</ele>
        <time>2020-08-03T12:43:00Z</time>
      </trkpt>
      <trkpt lat="44.67359" lon="6.81506">
        <ele>2007</ele>
        <time>2020-08-03T12:43:02Z</time>
      </trkpt>
      <trkpt lat="44.6734" lon="6.81501">
        <ele>2002</ele>
        <time>2020-08-03T12:43:09Z</time>
      </trkpt>
      <trkpt lat="44.67329" lon="6.81474">
        <ele>1996</ele>
        <time>2020-08-03T12:43:14Z</time>
      </trkpt>
      <trkpt lat="44.67324" lon="6.81469">
        <ele>1994</ele>
        <time>2020-08-03T12:43:16Z</time>
      </trkpt>
      <trkpt lat="44.67315" lon="6.81462">
        <ele>1990</ele>
        <time>2020-08-03T12:43:18Z</time>
      </trkpt>
      <trkpt lat="44.67286" lon="6.81454">
        <ele>1983</ele>
        <time>2020-08-03T12:43:22Z</time>
      </trkpt>
      <trkpt lat="44.67277" lon="6.81454">
        <ele>1981</ele>
        <time>2020-08-03T12:43:24Z</time>
      </trkpt>
      <trkpt lat="44.67274" lon="6.81452">
        <ele>1981</ele>
        <time>2020-08-03T12:43:28Z</time>
      </trkpt>
      <trkpt lat="44.67274" lon="6.81453">
        <ele>1981</ele>
        <time>2020-08-03T12:43:30Z</time>
      </trkpt>
      <trkpt lat="44.67271" lon="6.81445">
        <ele>1979</ele>
        <time>2020-08-03T12:44:52Z</time>
      </trkpt>
      <trkpt lat="44.6727" lon="6.8144">
        <ele>1979</ele>
        <time>2020-08-03T12:44:53Z</time>
      </trkpt>
      <trkpt lat="44.67264" lon="6.81411">
        <ele>1977</ele>
        <time>2020-08-03T12:44:57Z</time>
      </trkpt>
      <trkpt lat="44.67258" lon="6.81387">
        <ele>1976</ele>
        <time>2020-08-03T12:45:01Z</time>
      </trkpt>
      <trkpt lat="44.67254" lon="6.8137">
        <ele>1975</ele>
        <time>2020-08-03T12:45:04Z</time>
      </trkpt>
      <trkpt lat="44.67249" lon="6.81348">
        <ele>1970</ele>
        <time>2020-08-03T12:45:09Z</time>
      </trkpt>
      <trkpt lat="44.67243" lon="6.81348">
        <ele>1968</ele>
        <time>2020-08-03T12:45:12Z</time>
      </trkpt>
      <trkpt lat="44.67243" lon="6.81347">
        <ele>1968</ele>
        <time>2020-08-03T12:45:13Z</time>
      </trkpt>
      <trkpt lat="44.67249" lon="6.8133">
        <ele>1964</ele>
        <time>2020-08-03T12:45:18Z</time>
      </trkpt>
      <trkpt lat="44.6725" lon="6.81327">
        <ele>1963</ele>
        <time>2020-08-03T12:45:19Z</time>
      </trkpt>
      <trkpt lat="44.67251" lon="6.81324">
        <ele>1962</ele>
        <time>2020-08-03T12:45:20Z</time>
      </trkpt>
      <trkpt lat="44.67253" lon="6.81319">
        <ele>1960</ele>
        <time>2020-08-03T12:45:22Z</time>
      </trkpt>
      <trkpt lat="44.67259" lon="6.81309">
        <ele>1957</ele>
        <time>2020-08-03T12:45:26Z</time>
      </trkpt>
      <trkpt lat="44.67275" lon="6.81293">
        <ele>1955</ele>
        <time>2020-08-03T12:45:30Z</time>
      </trkpt>
      <trkpt lat="44.67287" lon="6.81279">
        <ele>1953</ele>
        <time>2020-08-03T12:45:33Z</time>
      </trkpt>
      <trkpt lat="44.67315" lon="6.81263">
        <ele>1955</ele>
        <time>2020-08-03T12:45:38Z</time>
      </trkpt>
      <trkpt lat="44.67328" lon="6.8124">
        <ele>1951</ele>
        <time>2020-08-03T12:45:41Z</time>
      </trkpt>
      <trkpt lat="44.67345" lon="6.81222">
        <ele>1944</ele>
        <time>2020-08-03T12:45:45Z</time>
      </trkpt>
      <trkpt lat="44.67372" lon="6.81224">
        <ele>1943</ele>
        <time>2020-08-03T12:45:51Z</time>
      </trkpt>
      <trkpt lat="44.67409" lon="6.81227">
        <ele>1943</ele>
        <time>2020-08-03T12:45:56Z</time>
      </trkpt>
      <trkpt lat="44.67433" lon="6.81223">
        <ele>1942</ele>
        <time>2020-08-03T12:45:59Z</time>
      </trkpt>
      <trkpt lat="44.67448" lon="6.81219">
        <ele>1942</ele>
        <time>2020-08-03T12:46:02Z</time>
      </trkpt>
      <trkpt lat="44.67451" lon="6.81197">
        <ele>1934</ele>
        <time>2020-08-03T12:46:06Z</time>
      </trkpt>
      <trkpt lat="44.67453" lon="6.81171">
        <ele>1927</ele>
        <time>2020-08-03T12:46:09Z</time>
      </trkpt>
      <trkpt lat="44.67473" lon="6.81126">
        <ele>1923</ele>
        <time>2020-08-03T12:46:15Z</time>
      </trkpt>
      <trkpt lat="44.6748" lon="6.81086">
        <ele>1914</ele>
        <time>2020-08-03T12:46:20Z</time>
      </trkpt>
      <trkpt lat="44.67494" lon="6.81068">
        <ele>1915</ele>
        <time>2020-08-03T12:46:24Z</time>
      </trkpt>
      <trkpt lat="44.67504" lon="6.81061">
        <ele>1919</ele>
        <time>2020-08-03T12:46:27Z</time>
      </trkpt>
      <trkpt lat="44.67501" lon="6.81036">
        <ele>1914</ele>
        <time>2020-08-03T12:46:33Z</time>
      </trkpt>
      <trkpt lat="44.67507" lon="6.80991">
        <ele>1914</ele>
        <time>2020-08-03T12:46:38Z</time>
      </trkpt>
      <trkpt lat="44.67506" lon="6.80944">
        <ele>1913</ele>
        <time>2020-08-03T12:46:44Z</time>
      </trkpt>
      <trkpt lat="44.67506" lon="6.80937">
        <ele>1912</ele>
        <time>2020-08-03T12:46:46Z</time>
      </trkpt>
      <trkpt lat="44.67506" lon="6.80937">
        <ele>1912</ele>
        <time>2020-08-03T12:46:50Z</time>
      </trkpt>
      <trkpt lat="44.67507" lon="6.80929">
        <ele>1912</ele>
        <time>2020-08-03T12:52:21Z</time>
      </trkpt>
      <trkpt lat="44.67507" lon="6.8091">
        <ele>1910</ele>
        <time>2020-08-03T12:52:26Z</time>
      </trkpt>
      <trkpt lat="44.6751" lon="6.80897">
        <ele>1909</ele>
        <time>2020-08-03T12:52:28Z</time>
      </trkpt>
      <trkpt lat="44.67511" lon="6.8084">
        <ele>1906</ele>
        <time>2020-08-03T12:52:40Z</time>
      </trkpt>
      <trkpt lat="44.67513" lon="6.80803">
        <ele>1904</ele>
        <time>2020-08-03T12:52:48Z</time>
      </trkpt>
      <trkpt lat="44.67514" lon="6.80789">
        <ele>1903</ele>
        <time>2020-08-03T12:52:51Z</time>
      </trkpt>
      <trkpt lat="44.67523" lon="6.8074">
        <ele>1900</ele>
        <time>2020-08-03T12:52:59Z</time>
      </trkpt>
      <trkpt lat="44.67523" lon="6.80731">
        <ele>1899</ele>
        <time>2020-08-03T12:53:01Z</time>
      </trkpt>
      <trkpt lat="44.67547" lon="6.80698">
        <ele>1896</ele>
        <time>2020-08-03T12:53:09Z</time>
      </trkpt>
      <trkpt lat="44.67566" lon="6.80676">
        <ele>1896</ele>
        <time>2020-08-03T12:53:16Z</time>
      </trkpt>
      <trkpt lat="44.67582" lon="6.80635">
        <ele>1890</ele>
        <time>2020-08-03T12:53:21Z</time>
      </trkpt>
      <trkpt lat="44.6759" lon="6.8062">
        <ele>1889</ele>
        <time>2020-08-03T12:53:23Z</time>
      </trkpt>
      <trkpt lat="44.67595" lon="6.80597">
        <ele>1886</ele>
        <time>2020-08-03T12:53:27Z</time>
      </trkpt>
      <trkpt lat="44.67608" lon="6.80577">
        <ele>1885</ele>
        <time>2020-08-03T12:53:33Z</time>
      </trkpt>
      <trkpt lat="44.67611" lon="6.80555">
        <ele>1880</ele>
        <time>2020-08-03T12:53:38Z</time>
      </trkpt>
      <trkpt lat="44.67618" lon="6.80537">
        <ele>1876</ele>
        <time>2020-08-03T12:53:41Z</time>
      </trkpt>
      <trkpt lat="44.67629" lon="6.80512">
        <ele>1871</ele>
        <time>2020-08-03T12:53:45Z</time>
      </trkpt>
      <trkpt lat="44.67623" lon="6.80504">
        <ele>1868</ele>
        <time>2020-08-03T12:53:48Z</time>
      </trkpt>
      <trkpt lat="44.67615" lon="6.80499">
        <ele>1866</ele>
        <time>2020-08-03T12:53:50Z</time>
      </trkpt>
      <trkpt lat="44.67591" lon="6.8051">
        <ele>1866</ele>
        <time>2020-08-03T12:53:56Z</time>
      </trkpt>
      <trkpt lat="44.67584" lon="6.80494">
        <ele>1861</ele>
        <time>2020-08-03T12:54:01Z</time>
      </trkpt>
      <trkpt lat="44.67579" lon="6.80477">
        <ele>1856</ele>
        <time>2020-08-03T12:54:05Z</time>
      </trkpt>
      <trkpt lat="44.67574" lon="6.80465">
        <ele>1853</ele>
        <time>2020-08-03T12:54:07Z</time>
      </trkpt>
      <trkpt lat="44.67574" lon="6.80459">
        <ele>1851</ele>
        <time>2020-08-03T12:54:08Z</time>
      </trkpt>
      <trkpt lat="44.67574" lon="6.80453">
        <ele>1849</ele>
        <time>2020-08-03T12:54:09Z</time>
      </trkpt>
      <trkpt lat="44.67576" lon="6.80446">
        <ele>1848</ele>
        <time>2020-08-03T12:54:10Z</time>
      </trkpt>
      <trkpt lat="44.67578" lon="6.8044">
        <ele>1847</ele>
        <time>2020-08-03T12:54:11Z</time>
      </trkpt>
      <trkpt lat="44.6758" lon="6.80434">
        <ele>1847</ele>
        <time>2020-08-03T12:54:12Z</time>
      </trkpt>
      <trkpt lat="44.67582" lon="6.8043">
        <ele>1847</ele>
        <time>2020-08-03T12:54:13Z</time>
      </trkpt>
      <trkpt lat="44.67584" lon="6.80427">
        <ele>1846</ele>
        <time>2020-08-03T12:54:14Z</time>
      </trkpt>
      <trkpt lat="44.67585" lon="6.80427">
        <ele>1847</ele>
        <time>2020-08-03T12:54:15Z</time>
      </trkpt>
      <trkpt lat="44.67585" lon="6.80427">
        <ele>1847</ele>
        <time>2020-08-03T12:54:19Z</time>
      </trkpt>
      <trkpt lat="44.67595" lon="6.80422">
        <ele>1847</ele>
        <time>2020-08-03T12:54:38Z</time>
      </trkpt>
      <trkpt lat="44.67599" lon="6.80422">
        <ele>1848</ele>
        <time>2020-08-03T12:54:39Z</time>
      </trkpt>
      <trkpt lat="44.67622" lon="6.80416">
        <ele>1850</ele>
        <time>2020-08-03T12:54:44Z</time>
      </trkpt>
      <trkpt lat="44.67627" lon="6.80413">
        <ele>1851</ele>
        <time>2020-08-03T12:54:45Z</time>
      </trkpt>
      <trkpt lat="44.6763" lon="6.80409">
        <ele>1851</ele>
        <time>2020-08-03T12:54:46Z</time>
      </trkpt>
      <trkpt lat="44.67634" lon="6.80404">
        <ele>1851</ele>
        <time>2020-08-03T12:54:47Z</time>
      </trkpt>
      <trkpt lat="44.67637" lon="6.80398">
        <ele>1850</ele>
        <time>2020-08-03T12:54:48Z</time>
      </trkpt>
      <trkpt lat="44.67639" lon="6.80392">
        <ele>1850</ele>
        <time>2020-08-03T12:54:49Z</time>
      </trkpt>
      <trkpt lat="44.67642" lon="6.80386">
        <ele>1850</ele>
        <time>2020-08-03T12:54:50Z</time>
      </trkpt>
      <trkpt lat="44.67643" lon="6.8038">
        <ele>1850</ele>
        <time>2020-08-03T12:54:51Z</time>
      </trkpt>
      <trkpt lat="44.67648" lon="6.80362">
        <ele>1849</ele>
        <time>2020-08-03T12:54:54Z</time>
      </trkpt>
      <trkpt lat="44.67655" lon="6.80284">
        <ele>1846</ele>
        <time>2020-08-03T12:55:09Z</time>
      </trkpt>
      <trkpt lat="44.67658" lon="6.80273">
        <ele>1846</ele>
        <time>2020-08-03T12:55:11Z</time>
      </trkpt>
      <trkpt lat="44.6766" lon="6.80268">
        <ele>1846</ele>
        <time>2020-08-03T12:55:12Z</time>
      </trkpt>
      <trkpt lat="44.67663" lon="6.80264">
        <ele>1846</ele>
        <time>2020-08-03T12:55:13Z</time>
      </trkpt>
      <trkpt lat="44.67676" lon="6.80248">
        <ele>1847</ele>
        <time>2020-08-03T12:55:17Z</time>
      </trkpt>
      <trkpt lat="44.67679" lon="6.80243">
        <ele>1847</ele>
        <time>2020-08-03T12:55:18Z</time>
      </trkpt>
      <trkpt lat="44.67681" lon="6.80238">
        <ele>1847</ele>
        <time>2020-08-03T12:55:19Z</time>
      </trkpt>
      <trkpt lat="44.6769" lon="6.80201">
        <ele>1846</ele>
        <time>2020-08-03T12:55:25Z</time>
      </trkpt>
      <trkpt lat="44.67693" lon="6.80194">
        <ele>1845</ele>
        <time>2020-08-03T12:55:26Z</time>
      </trkpt>
      <trkpt lat="44.67695" lon="6.80188">
        <ele>1845</ele>
        <time>2020-08-03T12:55:27Z</time>
      </trkpt>
      <trkpt lat="44.67699" lon="6.80183">
        <ele>1845</ele>
        <time>2020-08-03T12:55:28Z</time>
      </trkpt>
      <trkpt lat="44.67703" lon="6.80178">
        <ele>1845</ele>
        <time>2020-08-03T12:55:29Z</time>
      </trkpt>
      <trkpt lat="44.67707" lon="6.80175">
        <ele>1845</ele>
        <time>2020-08-03T12:55:30Z</time>
      </trkpt>
      <trkpt lat="44.67711" lon="6.80171">
        <ele>1845</ele>
        <time>2020-08-03T12:55:31Z</time>
      </trkpt>
      <trkpt lat="44.67714" lon="6.80166">
        <ele>1845</ele>
        <time>2020-08-03T12:55:32Z</time>
      </trkpt>
      <trkpt lat="44.67716" lon="6.80161">
        <ele>1845</ele>
        <time>2020-08-03T12:55:33Z</time>
      </trkpt>
      <trkpt lat="44.67717" lon="6.80154">
        <ele>1844</ele>
        <time>2020-08-03T12:55:34Z</time>
      </trkpt>
      <trkpt lat="44.67718" lon="6.80148">
        <ele>1844</ele>
        <time>2020-08-03T12:55:35Z</time>
      </trkpt>
      <trkpt lat="44.67718" lon="6.80134">
        <ele>1842</ele>
        <time>2020-08-03T12:55:37Z</time>
      </trkpt>
      <trkpt lat="44.67719" lon="6.80127">
        <ele>1842</ele>
        <time>2020-08-03T12:55:38Z</time>
      </trkpt>
      <trkpt lat="44.6772" lon="6.80121">
        <ele>1842</ele>
        <time>2020-08-03T12:55:39Z</time>
      </trkpt>
      <trkpt lat="44.67726" lon="6.80095">
        <ele>1842</ele>
        <time>2020-08-03T12:55:43Z</time>
      </trkpt>
      <trkpt lat="44.67728" lon="6.80089">
        <ele>1842</ele>
        <time>2020-08-03T12:55:44Z</time>
      </trkpt>
      <trkpt lat="44.67736" lon="6.80069">
        <ele>1843</ele>
        <time>2020-08-03T12:55:47Z</time>
      </trkpt>
      <trkpt lat="44.67738" lon="6.80062">
        <ele>1844</ele>
        <time>2020-08-03T12:55:48Z</time>
      </trkpt>
      <trkpt lat="44.67741" lon="6.80055">
        <ele>1844</ele>
        <time>2020-08-03T12:55:49Z</time>
      </trkpt>
      <trkpt lat="44.67745" lon="6.80049">
        <ele>1845</ele>
        <time>2020-08-03T12:55:50Z</time>
      </trkpt>
      <trkpt lat="44.67749" lon="6.80044">
        <ele>1846</ele>
        <time>2020-08-03T12:55:51Z</time>
      </trkpt>
      <trkpt lat="44.67753" lon="6.80039">
        <ele>1847</ele>
        <time>2020-08-03T12:55:52Z</time>
      </trkpt>
      <trkpt lat="44.67757" lon="6.80033">
        <ele>1848</ele>
        <time>2020-08-03T12:55:53Z</time>
      </trkpt>
      <trkpt lat="44.6776" lon="6.80026">
        <ele>1849</ele>
        <time>2020-08-03T12:55:54Z</time>
      </trkpt>
      <trkpt lat="44.67777" lon="6.79969">
        <ele>1851</ele>
        <time>2020-08-03T12:56:01Z</time>
      </trkpt>
      <trkpt lat="44.67778" lon="6.79944">
        <ele>1851</ele>
        <time>2020-08-03T12:56:04Z</time>
      </trkpt>
      <trkpt lat="44.67778" lon="6.79935">
        <ele>1850</ele>
        <time>2020-08-03T12:56:05Z</time>
      </trkpt>
      <trkpt lat="44.67777" lon="6.79927">
        <ele>1849</ele>
        <time>2020-08-03T12:56:06Z</time>
      </trkpt>
      <trkpt lat="44.67763" lon="6.79879">
        <ele>1846</ele>
        <time>2020-08-03T12:56:13Z</time>
      </trkpt>
      <trkpt lat="44.6776" lon="6.79873">
        <ele>1847</ele>
        <time>2020-08-03T12:56:14Z</time>
      </trkpt>
      <trkpt lat="44.67757" lon="6.79868">
        <ele>1847</ele>
        <time>2020-08-03T12:56:15Z</time>
      </trkpt>
      <trkpt lat="44.67753" lon="6.79864">
        <ele>1847</ele>
        <time>2020-08-03T12:56:16Z</time>
      </trkpt>
      <trkpt lat="44.6775" lon="6.7986">
        <ele>1847</ele>
        <time>2020-08-03T12:56:17Z</time>
      </trkpt>
      <trkpt lat="44.67746" lon="6.79855">
        <ele>1846</ele>
        <time>2020-08-03T12:56:18Z</time>
      </trkpt>
      <trkpt lat="44.67743" lon="6.7985">
        <ele>1846</ele>
        <time>2020-08-03T12:56:19Z</time>
      </trkpt>
      <trkpt lat="44.6774" lon="6.79845">
        <ele>1846</ele>
        <time>2020-08-03T12:56:20Z</time>
      </trkpt>
      <trkpt lat="44.67716" lon="6.79803">
        <ele>1842</ele>
        <time>2020-08-03T12:56:27Z</time>
      </trkpt>
      <trkpt lat="44.67714" lon="6.79797">
        <ele>1842</ele>
        <time>2020-08-03T12:56:28Z</time>
      </trkpt>
      <trkpt lat="44.67711" lon="6.79791">
        <ele>1842</ele>
        <time>2020-08-03T12:56:29Z</time>
      </trkpt>
      <trkpt lat="44.67688" lon="6.79716">
        <ele>1840</ele>
        <time>2020-08-03T12:56:40Z</time>
      </trkpt>
      <trkpt lat="44.67686" lon="6.79708">
        <ele>1840</ele>
        <time>2020-08-03T12:56:41Z</time>
      </trkpt>
      <trkpt lat="44.67684" lon="6.79701">
        <ele>1840</ele>
        <time>2020-08-03T12:56:42Z</time>
      </trkpt>
      <trkpt lat="44.67684" lon="6.79693">
        <ele>1840</ele>
        <time>2020-08-03T12:56:43Z</time>
      </trkpt>
      <trkpt lat="44.67683" lon="6.79686">
        <ele>1840</ele>
        <time>2020-08-03T12:56:44Z</time>
      </trkpt>
      <trkpt lat="44.67683" lon="6.79678">
        <ele>1841</ele>
        <time>2020-08-03T12:56:45Z</time>
      </trkpt>
      <trkpt lat="44.67683" lon="6.7966">
        <ele>1841</ele>
        <time>2020-08-03T12:56:47Z</time>
      </trkpt>
      <trkpt lat="44.67682" lon="6.79652">
        <ele>1841</ele>
        <time>2020-08-03T12:56:48Z</time>
      </trkpt>
      <trkpt lat="44.6768" lon="6.79643">
        <ele>1841</ele>
        <time>2020-08-03T12:56:49Z</time>
      </trkpt>
      <trkpt lat="44.6766" lon="6.79569">
        <ele>1834</ele>
        <time>2020-08-03T12:56:57Z</time>
      </trkpt>
      <trkpt lat="44.67656" lon="6.7955">
        <ele>1832</ele>
        <time>2020-08-03T12:56:59Z</time>
      </trkpt>
      <trkpt lat="44.67655" lon="6.7954">
        <ele>1832</ele>
        <time>2020-08-03T12:57:00Z</time>
      </trkpt>
      <trkpt lat="44.67654" lon="6.79518">
        <ele>1831</ele>
        <time>2020-08-03T12:57:02Z</time>
      </trkpt>
      <trkpt lat="44.67652" lon="6.79508">
        <ele>1830</ele>
        <time>2020-08-03T12:57:03Z</time>
      </trkpt>
      <trkpt lat="44.67634" lon="6.79451">
        <ele>1829</ele>
        <time>2020-08-03T12:57:09Z</time>
      </trkpt>
      <trkpt lat="44.67626" lon="6.79425">
        <ele>1829</ele>
        <time>2020-08-03T12:57:12Z</time>
      </trkpt>
      <trkpt lat="44.67622" lon="6.79417">
        <ele>1828</ele>
        <time>2020-08-03T12:57:13Z</time>
      </trkpt>
      <trkpt lat="44.67595" lon="6.79365">
        <ele>1819</ele>
        <time>2020-08-03T12:57:20Z</time>
      </trkpt>
      <trkpt lat="44.67591" lon="6.79359">
        <ele>1818</ele>
        <time>2020-08-03T12:57:21Z</time>
      </trkpt>
      <trkpt lat="44.67588" lon="6.79353">
        <ele>1818</ele>
        <time>2020-08-03T12:57:22Z</time>
      </trkpt>
      <trkpt lat="44.67553" lon="6.79284">
        <ele>1818</ele>
        <time>2020-08-03T12:57:33Z</time>
      </trkpt>
      <trkpt lat="44.67542" lon="6.7926">
        <ele>1818</ele>
        <time>2020-08-03T12:57:36Z</time>
      </trkpt>
      <trkpt lat="44.67539" lon="6.79251">
        <ele>1818</ele>
        <time>2020-08-03T12:57:37Z</time>
      </trkpt>
      <trkpt lat="44.67537" lon="6.79242">
        <ele>1818</ele>
        <time>2020-08-03T12:57:38Z</time>
      </trkpt>
      <trkpt lat="44.67536" lon="6.79232">
        <ele>1819</ele>
        <time>2020-08-03T12:57:39Z</time>
      </trkpt>
      <trkpt lat="44.67537" lon="6.79222">
        <ele>1820</ele>
        <time>2020-08-03T12:57:40Z</time>
      </trkpt>
      <trkpt lat="44.67538" lon="6.79212">
        <ele>1820</ele>
        <time>2020-08-03T12:57:41Z</time>
      </trkpt>
      <trkpt lat="44.6755" lon="6.79112">
        <ele>1827</ele>
        <time>2020-08-03T12:57:51Z</time>
      </trkpt>
      <trkpt lat="44.67551" lon="6.79102">
        <ele>1828</ele>
        <time>2020-08-03T12:57:52Z</time>
      </trkpt>
      <trkpt lat="44.67551" lon="6.79091">
        <ele>1828</ele>
        <time>2020-08-03T12:57:53Z</time>
      </trkpt>
      <trkpt lat="44.6755" lon="6.79081">
        <ele>1828</ele>
        <time>2020-08-03T12:57:54Z</time>
      </trkpt>
      <trkpt lat="44.67548" lon="6.79071">
        <ele>1826</ele>
        <time>2020-08-03T12:57:55Z</time>
      </trkpt>
      <trkpt lat="44.67544" lon="6.79062">
        <ele>1825</ele>
        <time>2020-08-03T12:57:56Z</time>
      </trkpt>
      <trkpt lat="44.67539" lon="6.79055">
        <ele>1822</ele>
        <time>2020-08-03T12:57:57Z</time>
      </trkpt>
      <trkpt lat="44.67533" lon="6.79049">
        <ele>1820</ele>
        <time>2020-08-03T12:57:58Z</time>
      </trkpt>
      <trkpt lat="44.67528" lon="6.79041">
        <ele>1818</ele>
        <time>2020-08-03T12:57:59Z</time>
      </trkpt>
      <trkpt lat="44.67524" lon="6.79034">
        <ele>1816</ele>
        <time>2020-08-03T12:58:00Z</time>
      </trkpt>
      <trkpt lat="44.67523" lon="6.79025">
        <ele>1816</ele>
        <time>2020-08-03T12:58:01Z</time>
      </trkpt>
      <trkpt lat="44.67522" lon="6.79017">
        <ele>1815</ele>
        <time>2020-08-03T12:58:02Z</time>
      </trkpt>
      <trkpt lat="44.67524" lon="6.79008">
        <ele>1816</ele>
        <time>2020-08-03T12:58:03Z</time>
      </trkpt>
      <trkpt lat="44.67527" lon="6.78999">
        <ele>1817</ele>
        <time>2020-08-03T12:58:04Z</time>
      </trkpt>
      <trkpt lat="44.67529" lon="6.7899">
        <ele>1817</ele>
        <time>2020-08-03T12:58:05Z</time>
      </trkpt>
      <trkpt lat="44.67531" lon="6.78979">
        <ele>1816</ele>
        <time>2020-08-03T12:58:06Z</time>
      </trkpt>
      <trkpt lat="44.67531" lon="6.78967">
        <ele>1816</ele>
        <time>2020-08-03T12:58:07Z</time>
      </trkpt>
      <trkpt lat="44.6753" lon="6.78954">
        <ele>1815</ele>
        <time>2020-08-03T12:58:08Z</time>
      </trkpt>
      <trkpt lat="44.67528" lon="6.78941">
        <ele>1814</ele>
        <time>2020-08-03T12:58:09Z</time>
      </trkpt>
      <trkpt lat="44.67523" lon="6.78919">
        <ele>1815</ele>
        <time>2020-08-03T12:58:11Z</time>
      </trkpt>
      <trkpt lat="44.67519" lon="6.7891">
        <ele>1814</ele>
        <time>2020-08-03T12:58:12Z</time>
      </trkpt>
      <trkpt lat="44.67514" lon="6.78904">
        <ele>1811</ele>
        <time>2020-08-03T12:58:13Z</time>
      </trkpt>
      <trkpt lat="44.67508" lon="6.789">
        <ele>1809</ele>
        <time>2020-08-03T12:58:14Z</time>
      </trkpt>
      <trkpt lat="44.67503" lon="6.78896">
        <ele>1806</ele>
        <time>2020-08-03T12:58:15Z</time>
      </trkpt>
      <trkpt lat="44.67498" lon="6.78892">
        <ele>1804</ele>
        <time>2020-08-03T12:58:16Z</time>
      </trkpt>
      <trkpt lat="44.67494" lon="6.78887">
        <ele>1802</ele>
        <time>2020-08-03T12:58:17Z</time>
      </trkpt>
      <trkpt lat="44.6749" lon="6.7888">
        <ele>1800</ele>
        <time>2020-08-03T12:58:18Z</time>
      </trkpt>
      <trkpt lat="44.67486" lon="6.78873">
        <ele>1798</ele>
        <time>2020-08-03T12:58:19Z</time>
      </trkpt>
      <trkpt lat="44.6748" lon="6.78867">
        <ele>1795</ele>
        <time>2020-08-03T12:58:20Z</time>
      </trkpt>
      <trkpt lat="44.67476" lon="6.7886">
        <ele>1793</ele>
        <time>2020-08-03T12:58:21Z</time>
      </trkpt>
      <trkpt lat="44.67472" lon="6.78852">
        <ele>1791</ele>
        <time>2020-08-03T12:58:22Z</time>
      </trkpt>
      <trkpt lat="44.67469" lon="6.78843">
        <ele>1790</ele>
        <time>2020-08-03T12:58:23Z</time>
      </trkpt>
      <trkpt lat="44.67468" lon="6.78833">
        <ele>1790</ele>
        <time>2020-08-03T12:58:24Z</time>
      </trkpt>
      <trkpt lat="44.67467" lon="6.78823">
        <ele>1791</ele>
        <time>2020-08-03T12:58:25Z</time>
      </trkpt>
      <trkpt lat="44.67467" lon="6.78812">
        <ele>1791</ele>
        <time>2020-08-03T12:58:26Z</time>
      </trkpt>
      <trkpt lat="44.67464" lon="6.78766">
        <ele>1794</ele>
        <time>2020-08-03T12:58:30Z</time>
      </trkpt>
      <trkpt lat="44.67461" lon="6.78742">
        <ele>1795</ele>
        <time>2020-08-03T12:58:32Z</time>
      </trkpt>
      <trkpt lat="44.67458" lon="6.78731">
        <ele>1796</ele>
        <time>2020-08-03T12:58:33Z</time>
      </trkpt>
      <trkpt lat="44.67453" lon="6.78722">
        <ele>1795</ele>
        <time>2020-08-03T12:58:34Z</time>
      </trkpt>
      <trkpt lat="44.67447" lon="6.78715">
        <ele>1793</ele>
        <time>2020-08-03T12:58:35Z</time>
      </trkpt>
      <trkpt lat="44.67439" lon="6.78707">
        <ele>1791</ele>
        <time>2020-08-03T12:58:36Z</time>
      </trkpt>
      <trkpt lat="44.67431" lon="6.78699">
        <ele>1789</ele>
        <time>2020-08-03T12:58:37Z</time>
      </trkpt>
      <trkpt lat="44.67417" lon="6.78685">
        <ele>1786</ele>
        <time>2020-08-03T12:58:39Z</time>
      </trkpt>
      <trkpt lat="44.67394" lon="6.78662">
        <ele>1780</ele>
        <time>2020-08-03T12:58:44Z</time>
      </trkpt>
      <trkpt lat="44.6739" lon="6.78659">
        <ele>1779</ele>
        <time>2020-08-03T12:58:45Z</time>
      </trkpt>
      <trkpt lat="44.6738" lon="6.78648">
        <ele>1777</ele>
        <time>2020-08-03T12:58:48Z</time>
      </trkpt>
      <trkpt lat="44.67369" lon="6.78628">
        <ele>1774</ele>
        <time>2020-08-03T12:58:54Z</time>
      </trkpt>
      <trkpt lat="44.67368" lon="6.78628">
        <ele>1773</ele>
        <time>2020-08-03T12:58:55Z</time>
      </trkpt>
      <trkpt lat="44.67366" lon="6.78631">
        <ele>1773</ele>
        <time>2020-08-03T12:58:56Z</time>
      </trkpt>
      <trkpt lat="44.67365" lon="6.78638">
        <ele>1771</ele>
        <time>2020-08-03T12:58:58Z</time>
      </trkpt>
      <trkpt lat="44.67364" lon="6.78638">
        <ele>1770</ele>
        <time>2020-08-03T12:59:00Z</time>
      </trkpt>
      <trkpt lat="44.67361" lon="6.78627">
        <ele>1770</ele>
        <time>2020-08-03T12:59:03Z</time>
      </trkpt>
      <trkpt lat="44.67362" lon="6.78621">
        <ele>1772</ele>
        <time>2020-08-03T12:59:04Z</time>
      </trkpt>
      <trkpt lat="44.67364" lon="6.78613">
        <ele>1773</ele>
        <time>2020-08-03T12:59:05Z</time>
      </trkpt>
      <trkpt lat="44.67365" lon="6.78605">
        <ele>1774</ele>
        <time>2020-08-03T12:59:06Z</time>
      </trkpt>
      <trkpt lat="44.67367" lon="6.78581">
        <ele>1776</ele>
        <time>2020-08-03T12:59:09Z</time>
      </trkpt>
      <trkpt lat="44.67366" lon="6.78575">
        <ele>1776</ele>
        <time>2020-08-03T12:59:10Z</time>
      </trkpt>
      <trkpt lat="44.67364" lon="6.78572">
        <ele>1775</ele>
        <time>2020-08-03T12:59:11Z</time>
      </trkpt>
      <trkpt lat="44.67361" lon="6.78569">
        <ele>1774</ele>
        <time>2020-08-03T12:59:12Z</time>
      </trkpt>
      <trkpt lat="44.67357" lon="6.78567">
        <ele>1772</ele>
        <time>2020-08-03T12:59:13Z</time>
      </trkpt>
      <trkpt lat="44.67353" lon="6.78565">
        <ele>1769</ele>
        <time>2020-08-03T12:59:14Z</time>
      </trkpt>
      <trkpt lat="44.67349" lon="6.78562">
        <ele>1767</ele>
        <time>2020-08-03T12:59:15Z</time>
      </trkpt>
      <trkpt lat="44.67346" lon="6.7856">
        <ele>1766</ele>
        <time>2020-08-03T12:59:16Z</time>
      </trkpt>
      <trkpt lat="44.67341" lon="6.78557">
        <ele>1763</ele>
        <time>2020-08-03T12:59:18Z</time>
      </trkpt>
      <trkpt lat="44.6734" lon="6.78558">
        <ele>1762</ele>
        <time>2020-08-03T12:59:19Z</time>
      </trkpt>
      <trkpt lat="44.6734" lon="6.7856">
        <ele>1762</ele>
        <time>2020-08-03T12:59:20Z</time>
      </trkpt>
      <trkpt lat="44.67347" lon="6.78569">
        <ele>1766</ele>
        <time>2020-08-03T12:59:24Z</time>
      </trkpt>
      <trkpt lat="44.67346" lon="6.78571">
        <ele>1766</ele>
        <time>2020-08-03T12:59:25Z</time>
      </trkpt>
      <trkpt lat="44.67345" lon="6.78572">
        <ele>1765</ele>
        <time>2020-08-03T12:59:26Z</time>
      </trkpt>
      <trkpt lat="44.67343" lon="6.78572">
        <ele>1763</ele>
        <time>2020-08-03T12:59:27Z</time>
      </trkpt>
      <trkpt lat="44.6734" lon="6.7857">
        <ele>1762</ele>
        <time>2020-08-03T12:59:28Z</time>
      </trkpt>
      <trkpt lat="44.67337" lon="6.78569">
        <ele>1761</ele>
        <time>2020-08-03T12:59:29Z</time>
      </trkpt>
      <trkpt lat="44.67335" lon="6.78567">
        <ele>1759</ele>
        <time>2020-08-03T12:59:30Z</time>
      </trkpt>
      <trkpt lat="44.67332" lon="6.78566">
        <ele>1758</ele>
        <time>2020-08-03T12:59:31Z</time>
      </trkpt>
      <trkpt lat="44.67329" lon="6.78565">
        <ele>1756</ele>
        <time>2020-08-03T12:59:32Z</time>
      </trkpt>
      <trkpt lat="44.67309" lon="6.78552">
        <ele>1745</ele>
        <time>2020-08-03T12:59:39Z</time>
      </trkpt>
      <trkpt lat="44.67307" lon="6.78548">
        <ele>1745</ele>
        <time>2020-08-03T12:59:40Z</time>
      </trkpt>
      <trkpt lat="44.67304" lon="6.78538">
        <ele>1745</ele>
        <time>2020-08-03T12:59:42Z</time>
      </trkpt>
      <trkpt lat="44.67302" lon="6.78532">
        <ele>1745</ele>
        <time>2020-08-03T12:59:43Z</time>
      </trkpt>
      <trkpt lat="44.67293" lon="6.78513">
        <ele>1743</ele>
        <time>2020-08-03T12:59:48Z</time>
      </trkpt>
      <trkpt lat="44.67285" lon="6.78498">
        <ele>1741</ele>
        <time>2020-08-03T12:59:52Z</time>
      </trkpt>
      <trkpt lat="44.67279" lon="6.78482">
        <ele>1738</ele>
        <time>2020-08-03T12:59:55Z</time>
      </trkpt>
      <trkpt lat="44.67272" lon="6.78462">
        <ele>1737</ele>
        <time>2020-08-03T13:00:00Z</time>
      </trkpt>
      <trkpt lat="44.6727" lon="6.78433">
        <ele>1739</ele>
        <time>2020-08-03T13:00:05Z</time>
      </trkpt>
      <trkpt lat="44.67268" lon="6.78429">
        <ele>1739</ele>
        <time>2020-08-03T13:00:06Z</time>
      </trkpt>
      <trkpt lat="44.67253" lon="6.78418">
        <ele>1735</ele>
        <time>2020-08-03T13:00:11Z</time>
      </trkpt>
      <trkpt lat="44.67251" lon="6.78414">
        <ele>1736</ele>
        <time>2020-08-03T13:00:12Z</time>
      </trkpt>
      <trkpt lat="44.67249" lon="6.78407">
        <ele>1737</ele>
        <time>2020-08-03T13:00:13Z</time>
      </trkpt>
      <trkpt lat="44.67247" lon="6.784">
        <ele>1738</ele>
        <time>2020-08-03T13:00:14Z</time>
      </trkpt>
      <trkpt lat="44.67245" lon="6.78394">
        <ele>1738</ele>
        <time>2020-08-03T13:00:15Z</time>
      </trkpt>
      <trkpt lat="44.67242" lon="6.78392">
        <ele>1737</ele>
        <time>2020-08-03T13:00:16Z</time>
      </trkpt>
      <trkpt lat="44.67239" lon="6.78392">
        <ele>1735</ele>
        <time>2020-08-03T13:00:17Z</time>
      </trkpt>
      <trkpt lat="44.67236" lon="6.78391">
        <ele>1734</ele>
        <time>2020-08-03T13:00:18Z</time>
      </trkpt>
      <trkpt lat="44.67232" lon="6.78389">
        <ele>1732</ele>
        <time>2020-08-03T13:00:19Z</time>
      </trkpt>
      <trkpt lat="44.67229" lon="6.78387">
        <ele>1731</ele>
        <time>2020-08-03T13:00:20Z</time>
      </trkpt>
      <trkpt lat="44.67217" lon="6.78381">
        <ele>1726</ele>
        <time>2020-08-03T13:00:25Z</time>
      </trkpt>
      <trkpt lat="44.67209" lon="6.78377">
        <ele>1723</ele>
        <time>2020-08-03T13:00:31Z</time>
      </trkpt>
      <trkpt lat="44.67208" lon="6.78376">
        <ele>1722</ele>
        <time>2020-08-03T13:00:32Z</time>
      </trkpt>
      <trkpt lat="44.67206" lon="6.78374">
        <ele>1722</ele>
        <time>2020-08-03T13:00:33Z</time>
      </trkpt>
      <trkpt lat="44.67204" lon="6.78373">
        <ele>1721</ele>
        <time>2020-08-03T13:00:34Z</time>
      </trkpt>
      <trkpt lat="44.67202" lon="6.78372">
        <ele>1720</ele>
        <time>2020-08-03T13:00:35Z</time>
      </trkpt>
      <trkpt lat="44.67199" lon="6.78369">
        <ele>1720</ele>
        <time>2020-08-03T13:00:36Z</time>
      </trkpt>
      <trkpt lat="44.67197" lon="6.78366">
        <ele>1719</ele>
        <time>2020-08-03T13:00:37Z</time>
      </trkpt>
      <trkpt lat="44.67194" lon="6.78362">
        <ele>1718</ele>
        <time>2020-08-03T13:00:38Z</time>
      </trkpt>
      <trkpt lat="44.6719" lon="6.78359">
        <ele>1718</ele>
        <time>2020-08-03T13:00:39Z</time>
      </trkpt>
      <trkpt lat="44.67175" lon="6.78342">
        <ele>1716</ele>
        <time>2020-08-03T13:00:43Z</time>
      </trkpt>
      <trkpt lat="44.67172" lon="6.78337">
        <ele>1716</ele>
        <time>2020-08-03T13:00:44Z</time>
      </trkpt>
      <trkpt lat="44.67166" lon="6.78329">
        <ele>1715</ele>
        <time>2020-08-03T13:00:46Z</time>
      </trkpt>
      <trkpt lat="44.67151" lon="6.78312">
        <ele>1709</ele>
        <time>2020-08-03T13:00:51Z</time>
      </trkpt>
      <trkpt lat="44.6714" lon="6.78299">
        <ele>1702</ele>
        <time>2020-08-03T13:00:55Z</time>
      </trkpt>
      <trkpt lat="44.67138" lon="6.78297">
        <ele>1702</ele>
        <time>2020-08-03T13:00:56Z</time>
      </trkpt>
      <trkpt lat="44.67136" lon="6.78302">
        <ele>1700</ele>
        <time>2020-08-03T13:01:01Z</time>
      </trkpt>
      <trkpt lat="44.67139" lon="6.7831">
        <ele>1701</ele>
        <time>2020-08-03T13:01:03Z</time>
      </trkpt>
      <trkpt lat="44.6714" lon="6.78315">
        <ele>1701</ele>
        <time>2020-08-03T13:01:04Z</time>
      </trkpt>
      <trkpt lat="44.67141" lon="6.78322">
        <ele>1702</ele>
        <time>2020-08-03T13:01:05Z</time>
      </trkpt>
      <trkpt lat="44.67144" lon="6.78333">
        <ele>1702</ele>
        <time>2020-08-03T13:01:07Z</time>
      </trkpt>
      <trkpt lat="44.67143" lon="6.78346">
        <ele>1700</ele>
        <time>2020-08-03T13:01:14Z</time>
      </trkpt>
      <trkpt lat="44.67143" lon="6.78346">
        <ele>1700</ele>
        <time>2020-08-03T13:01:15Z</time>
      </trkpt>
      <trkpt lat="44.6714" lon="6.78339">
        <ele>1699</ele>
        <time>2020-08-03T13:01:30Z</time>
      </trkpt>
      <trkpt lat="44.6711" lon="6.78279">
        <ele>1690</ele>
        <time>2020-08-03T13:01:45Z</time>
      </trkpt>
      <trkpt lat="44.67095" lon="6.78231">
        <ele>1688</ele>
        <time>2020-08-03T13:01:53Z</time>
      </trkpt>
      <trkpt lat="44.6707" lon="6.78153">
        <ele>1677</ele>
        <time>2020-08-03T13:02:00Z</time>
      </trkpt>
      <trkpt lat="44.67064" lon="6.7814">
        <ele>1677</ele>
        <time>2020-08-03T13:02:01Z</time>
      </trkpt>
      <trkpt lat="44.67057" lon="6.78128">
        <ele>1675</ele>
        <time>2020-08-03T13:02:02Z</time>
      </trkpt>
      <trkpt lat="44.67033" lon="6.78089">
        <ele>1672</ele>
        <time>2020-08-03T13:02:05Z</time>
      </trkpt>
      <trkpt lat="44.67009" lon="6.78047">
        <ele>1666</ele>
        <time>2020-08-03T13:02:08Z</time>
      </trkpt>
      <trkpt lat="44.66984" lon="6.78007">
        <ele>1659</ele>
        <time>2020-08-03T13:02:11Z</time>
      </trkpt>
      <trkpt lat="44.6697" lon="6.77979">
        <ele>1656</ele>
        <time>2020-08-03T13:02:13Z</time>
      </trkpt>
      <trkpt lat="44.66957" lon="6.77955">
        <ele>1655</ele>
        <time>2020-08-03T13:02:15Z</time>
      </trkpt>
      <trkpt lat="44.66945" lon="6.77936">
        <ele>1653</ele>
        <time>2020-08-03T13:02:17Z</time>
      </trkpt>
      <trkpt lat="44.66933" lon="6.77921">
        <ele>1652</ele>
        <time>2020-08-03T13:02:19Z</time>
      </trkpt>
      <trkpt lat="44.66916" lon="6.77897">
        <ele>1652</ele>
        <time>2020-08-03T13:02:22Z</time>
      </trkpt>
      <trkpt lat="44.66891" lon="6.77859">
        <ele>1653</ele>
        <time>2020-08-03T13:02:27Z</time>
      </trkpt>
      <trkpt lat="44.66867" lon="6.77834">
        <ele>1652</ele>
        <time>2020-08-03T13:02:35Z</time>
      </trkpt>
      <trkpt lat="44.66845" lon="6.7782">
        <ele>1650</ele>
        <time>2020-08-03T13:02:44Z</time>
      </trkpt>
      <trkpt lat="44.66843" lon="6.77818">
        <ele>1650</ele>
        <time>2020-08-03T13:02:45Z</time>
      </trkpt>
      <trkpt lat="44.66826" lon="6.77784">
        <ele>1649</ele>
        <time>2020-08-03T13:02:57Z</time>
      </trkpt>
      <trkpt lat="44.66825" lon="6.77781">
        <ele>1649</ele>
        <time>2020-08-03T13:03:01Z</time>
      </trkpt>
      <trkpt lat="44.66824" lon="6.77781">
        <ele>1649</ele>
        <time>2020-08-03T13:03:02Z</time>
      </trkpt>
      <trkpt lat="44.66822" lon="6.77781">
        <ele>1649</ele>
        <time>2020-08-03T13:03:03Z</time>
      </trkpt>
      <trkpt lat="44.6682" lon="6.7778">
        <ele>1649</ele>
        <time>2020-08-03T13:03:04Z</time>
      </trkpt>
      <trkpt lat="44.66818" lon="6.77778">
        <ele>1649</ele>
        <time>2020-08-03T13:03:05Z</time>
      </trkpt>
      <trkpt lat="44.66816" lon="6.77775">
        <ele>1649</ele>
        <time>2020-08-03T13:03:06Z</time>
      </trkpt>
      <trkpt lat="44.66814" lon="6.77772">
        <ele>1649</ele>
        <time>2020-08-03T13:03:07Z</time>
      </trkpt>
      <trkpt lat="44.66812" lon="6.77769">
        <ele>1649</ele>
        <time>2020-08-03T13:03:08Z</time>
      </trkpt>
      <trkpt lat="44.66811" lon="6.77765">
        <ele>1648</ele>
        <time>2020-08-03T13:03:09Z</time>
      </trkpt>
      <trkpt lat="44.6681" lon="6.77763">
        <ele>1648</ele>
        <time>2020-08-03T13:03:10Z</time>
      </trkpt>
      <trkpt lat="44.66809" lon="6.7776">
        <ele>1648</ele>
        <time>2020-08-03T13:03:11Z</time>
      </trkpt>
      <trkpt lat="44.6681" lon="6.77758">
        <ele>1648</ele>
        <time>2020-08-03T13:03:12Z</time>
      </trkpt>
      <trkpt lat="44.66811" lon="6.77756">
        <ele>1648</ele>
        <time>2020-08-03T13:03:13Z</time>
      </trkpt>
      <trkpt lat="44.66812" lon="6.77754">
        <ele>1648</ele>
        <time>2020-08-03T13:03:14Z</time>
      </trkpt>
      <trkpt lat="44.66814" lon="6.77751">
        <ele>1648</ele>
        <time>2020-08-03T13:03:15Z</time>
      </trkpt>
      <trkpt lat="44.66815" lon="6.77748">
        <ele>1647</ele>
        <time>2020-08-03T13:03:16Z</time>
      </trkpt>
      <trkpt lat="44.66817" lon="6.77745">
        <ele>1647</ele>
        <time>2020-08-03T13:03:17Z</time>
      </trkpt>
      <trkpt lat="44.66832" lon="6.77727">
        <ele>1646</ele>
        <time>2020-08-03T13:03:26Z</time>
      </trkpt>
      <trkpt lat="44.66832" lon="6.77723">
        <ele>1646</ele>
        <time>2020-08-03T13:03:32Z</time>
      </trkpt>
      <trkpt lat="44.66824" lon="6.77743">
        <ele>1647</ele>
        <time>2020-08-03T13:09:50Z</time>
      </trkpt>
      <trkpt lat="44.66821" lon="6.77746">
        <ele>1647</ele>
        <time>2020-08-03T13:09:56Z</time>
      </trkpt>
      <trkpt lat="44.66808" lon="6.77746">
        <ele>1647</ele>
        <time>2020-08-03T14:10:07Z</time>
      </trkpt>
      <trkpt lat="44.66807" lon="6.77751">
        <ele>1648</ele>
        <time>2020-08-03T14:10:12Z</time>
      </trkpt>
      <trkpt lat="44.66811" lon="6.7776">
        <ele>1648</ele>
        <time>2020-08-03T14:10:15Z</time>
      </trkpt>
      <trkpt lat="44.66812" lon="6.77762">
        <ele>1648</ele>
        <time>2020-08-03T14:10:16Z</time>
      </trkpt>
      <trkpt lat="44.66814" lon="6.77765">
        <ele>1648</ele>
        <time>2020-08-03T14:10:17Z</time>
      </trkpt>
      <trkpt lat="44.66815" lon="6.77768">
        <ele>1649</ele>
        <time>2020-08-03T14:10:18Z</time>
      </trkpt>
      <trkpt lat="44.66817" lon="6.77771">
        <ele>1649</ele>
        <time>2020-08-03T14:10:19Z</time>
      </trkpt>
      <trkpt lat="44.66818" lon="6.77774">
        <ele>1649</ele>
        <time>2020-08-03T14:10:20Z</time>
      </trkpt>
      <trkpt lat="44.66829" lon="6.77788">
        <ele>1649</ele>
        <time>2020-08-03T14:10:27Z</time>
      </trkpt>
      <trkpt lat="44.66829" lon="6.7779">
        <ele>1649</ele>
        <time>2020-08-03T14:10:28Z</time>
      </trkpt>
      <trkpt lat="44.66827" lon="6.77791">
        <ele>1649</ele>
        <time>2020-08-03T14:10:29Z</time>
      </trkpt>
      <trkpt lat="44.66825" lon="6.77793">
        <ele>1649</ele>
        <time>2020-08-03T14:10:30Z</time>
      </trkpt>
      <trkpt lat="44.66822" lon="6.77796">
        <ele>1650</ele>
        <time>2020-08-03T14:10:31Z</time>
      </trkpt>
      <trkpt lat="44.6682" lon="6.77799">
        <ele>1650</ele>
        <time>2020-08-03T14:10:32Z</time>
      </trkpt>
      <trkpt lat="44.66817" lon="6.77803">
        <ele>1650</ele>
        <time>2020-08-03T14:10:33Z</time>
      </trkpt>
      <trkpt lat="44.66815" lon="6.77805">
        <ele>1650</ele>
        <time>2020-08-03T14:10:34Z</time>
      </trkpt>
      <trkpt lat="44.66814" lon="6.77808">
        <ele>1650</ele>
        <time>2020-08-03T14:10:35Z</time>
      </trkpt>
      <trkpt lat="44.66815" lon="6.77812">
        <ele>1650</ele>
        <time>2020-08-03T14:10:36Z</time>
      </trkpt>
      <trkpt lat="44.66817" lon="6.77817">
        <ele>1650</ele>
        <time>2020-08-03T14:10:37Z</time>
      </trkpt>
      <trkpt lat="44.6682" lon="6.77821">
        <ele>1650</ele>
        <time>2020-08-03T14:10:38Z</time>
      </trkpt>
      <trkpt lat="44.6682" lon="6.77826">
        <ele>1650</ele>
        <time>2020-08-03T14:10:39Z</time>
      </trkpt>
      <trkpt lat="44.6682" lon="6.7783">
        <ele>1650</ele>
        <time>2020-08-03T14:10:40Z</time>
      </trkpt>
      <trkpt lat="44.66818" lon="6.77831">
        <ele>1650</ele>
        <time>2020-08-03T14:10:41Z</time>
      </trkpt>
      <trkpt lat="44.66816" lon="6.77832">
        <ele>1650</ele>
        <time>2020-08-03T14:10:42Z</time>
      </trkpt>
      <trkpt lat="44.66814" lon="6.77833">
        <ele>1650</ele>
        <time>2020-08-03T14:10:43Z</time>
      </trkpt>
      <trkpt lat="44.66812" lon="6.77833">
        <ele>1650</ele>
        <time>2020-08-03T14:10:44Z</time>
      </trkpt>
      <trkpt lat="44.66811" lon="6.77834">
        <ele>1651</ele>
        <time>2020-08-03T14:10:45Z</time>
      </trkpt>
      <trkpt lat="44.66809" lon="6.77836">
        <ele>1651</ele>
        <time>2020-08-03T14:10:46Z</time>
      </trkpt>
      <trkpt lat="44.66806" lon="6.77837">
        <ele>1651</ele>
        <time>2020-08-03T14:10:47Z</time>
      </trkpt>
      <trkpt lat="44.66803" lon="6.77839">
        <ele>1651</ele>
        <time>2020-08-03T14:10:48Z</time>
      </trkpt>
      <trkpt lat="44.66796" lon="6.77842">
        <ele>1651</ele>
        <time>2020-08-03T14:10:50Z</time>
      </trkpt>
      <trkpt lat="44.66792" lon="6.77842">
        <ele>1650</ele>
        <time>2020-08-03T14:10:51Z</time>
      </trkpt>
      <trkpt lat="44.66783" lon="6.7784">
        <ele>1650</ele>
        <time>2020-08-03T14:10:53Z</time>
      </trkpt>
      <trkpt lat="44.66779" lon="6.7784">
        <ele>1650</ele>
        <time>2020-08-03T14:10:54Z</time>
      </trkpt>
      <trkpt lat="44.66775" lon="6.77843">
        <ele>1649</ele>
        <time>2020-08-03T14:10:55Z</time>
      </trkpt>
      <trkpt lat="44.66772" lon="6.77846">
        <ele>1649</ele>
        <time>2020-08-03T14:10:56Z</time>
      </trkpt>
      <trkpt lat="44.66768" lon="6.77848">
        <ele>1649</ele>
        <time>2020-08-03T14:10:57Z</time>
      </trkpt>
      <trkpt lat="44.66761" lon="6.77853">
        <ele>1648</ele>
        <time>2020-08-03T14:10:59Z</time>
      </trkpt>
      <trkpt lat="44.66757" lon="6.77854">
        <ele>1648</ele>
        <time>2020-08-03T14:11:00Z</time>
      </trkpt>
      <trkpt lat="44.66694" lon="6.77867">
        <ele>1644</ele>
        <time>2020-08-03T14:11:13Z</time>
      </trkpt>
      <trkpt lat="44.66683" lon="6.77874">
        <ele>1642</ele>
        <time>2020-08-03T14:11:15Z</time>
      </trkpt>
      <trkpt lat="44.66607" lon="6.77951">
        <ele>1638</ele>
        <time>2020-08-03T14:11:30Z</time>
      </trkpt>
      <trkpt lat="44.66605" lon="6.77956">
        <ele>1638</ele>
        <time>2020-08-03T14:11:31Z</time>
      </trkpt>
      <trkpt lat="44.66609" lon="6.7797">
        <ele>1638</ele>
        <time>2020-08-03T14:11:34Z</time>
      </trkpt>
      <trkpt lat="44.66633" lon="6.78018">
        <ele>1644</ele>
        <time>2020-08-03T14:11:47Z</time>
      </trkpt>
      <trkpt lat="44.66634" lon="6.7802">
        <ele>1644</ele>
        <time>2020-08-03T14:11:48Z</time>
      </trkpt>
      <trkpt lat="44.66638" lon="6.78028">
        <ele>1645</ele>
        <time>2020-08-03T14:11:52Z</time>
      </trkpt>
      <trkpt lat="44.66645" lon="6.7804">
        <ele>1648</ele>
        <time>2020-08-03T14:11:59Z</time>
      </trkpt>
      <trkpt lat="44.66651" lon="6.78048">
        <ele>1650</ele>
        <time>2020-08-03T14:12:04Z</time>
      </trkpt>
      <trkpt lat="44.66652" lon="6.78062">
        <ele>1653</ele>
        <time>2020-08-03T14:12:11Z</time>
      </trkpt>
      <trkpt lat="44.66648" lon="6.78071">
        <ele>1653</ele>
        <time>2020-08-03T14:12:16Z</time>
      </trkpt>
      <trkpt lat="44.66629" lon="6.78106">
        <ele>1656</ele>
        <time>2020-08-03T14:12:35Z</time>
      </trkpt>
      <trkpt lat="44.66609" lon="6.78124">
        <ele>1658</ele>
        <time>2020-08-03T14:12:51Z</time>
      </trkpt>
      <trkpt lat="44.666" lon="6.78141">
        <ele>1661</ele>
        <time>2020-08-03T14:13:00Z</time>
      </trkpt>
      <trkpt lat="44.66595" lon="6.78176">
        <ele>1665</ele>
        <time>2020-08-03T14:13:13Z</time>
      </trkpt>
      <trkpt lat="44.66588" lon="6.78216">
        <ele>1670</ele>
        <time>2020-08-03T14:13:33Z</time>
      </trkpt>
      <trkpt lat="44.66582" lon="6.78222">
        <ele>1669</ele>
        <time>2020-08-03T14:13:41Z</time>
      </trkpt>
      <trkpt lat="44.66557" lon="6.78221">
        <ele>1664</ele>
        <time>2020-08-03T14:13:57Z</time>
      </trkpt>
      <trkpt lat="44.66533" lon="6.7823">
        <ele>1664</ele>
        <time>2020-08-03T14:14:09Z</time>
      </trkpt>
      <trkpt lat="44.6651" lon="6.78241">
        <ele>1664</ele>
        <time>2020-08-03T14:14:21Z</time>
      </trkpt>
      <trkpt lat="44.66506" lon="6.78256">
        <ele>1667</ele>
        <time>2020-08-03T14:14:28Z</time>
      </trkpt>
      <trkpt lat="44.66481" lon="6.78277">
        <ele>1670</ele>
        <time>2020-08-03T14:14:46Z</time>
      </trkpt>
      <trkpt lat="44.66472" lon="6.78283">
        <ele>1670</ele>
        <time>2020-08-03T14:14:56Z</time>
      </trkpt>
      <trkpt lat="44.66463" lon="6.78284">
        <ele>1670</ele>
        <time>2020-08-03T14:15:28Z</time>
      </trkpt>
      <trkpt lat="44.66435" lon="6.78298">
        <ele>1670</ele>
        <time>2020-08-03T14:15:39Z</time>
      </trkpt>
      <trkpt lat="44.66415" lon="6.78322">
        <ele>1673</ele>
        <time>2020-08-03T14:15:52Z</time>
      </trkpt>
      <trkpt lat="44.66389" lon="6.78339">
        <ele>1679</ele>
        <time>2020-08-03T14:16:06Z</time>
      </trkpt>
      <trkpt lat="44.66361" lon="6.78327">
        <ele>1678</ele>
        <time>2020-08-03T14:16:17Z</time>
      </trkpt>
      <trkpt lat="44.66336" lon="6.7833">
        <ele>1675</ele>
        <time>2020-08-03T14:16:31Z</time>
      </trkpt>
      <trkpt lat="44.66329" lon="6.78332">
        <ele>1674</ele>
        <time>2020-08-03T14:16:42Z</time>
      </trkpt>
      <trkpt lat="44.66322" lon="6.78339">
        <ele>1676</ele>
        <time>2020-08-03T14:16:59Z</time>
      </trkpt>
      <trkpt lat="44.66322" lon="6.7834">
        <ele>1676</ele>
        <time>2020-08-03T14:17:01Z</time>
      </trkpt>
      <trkpt lat="44.66316" lon="6.78343">
        <ele>1676</ele>
        <time>2020-08-03T14:17:19Z</time>
      </trkpt>
      <trkpt lat="44.66298" lon="6.78355">
        <ele>1679</ele>
        <time>2020-08-03T14:17:35Z</time>
      </trkpt>
      <trkpt lat="44.66285" lon="6.78369">
        <ele>1683</ele>
        <time>2020-08-03T14:17:53Z</time>
      </trkpt>
      <trkpt lat="44.66279" lon="6.78376">
        <ele>1685</ele>
        <time>2020-08-03T14:18:01Z</time>
      </trkpt>
      <trkpt lat="44.66261" lon="6.78388">
        <ele>1688</ele>
        <time>2020-08-03T14:18:22Z</time>
      </trkpt>
      <trkpt lat="44.66252" lon="6.78401">
        <ele>1692</ele>
        <time>2020-08-03T14:18:37Z</time>
      </trkpt>
      <trkpt lat="44.66247" lon="6.78421">
        <ele>1699</ele>
        <time>2020-08-03T14:18:53Z</time>
      </trkpt>
      <trkpt lat="44.6624" lon="6.78426">
        <ele>1700</ele>
        <time>2020-08-03T14:19:02Z</time>
      </trkpt>
      <trkpt lat="44.66215" lon="6.7845">
        <ele>1702</ele>
        <time>2020-08-03T14:19:16Z</time>
      </trkpt>
      <trkpt lat="44.66198" lon="6.78481">
        <ele>1706</ele>
        <time>2020-08-03T14:19:25Z</time>
      </trkpt>
      <trkpt lat="44.66185" lon="6.78495">
        <ele>1706</ele>
        <time>2020-08-03T14:19:28Z</time>
      </trkpt>
      <trkpt lat="44.66161" lon="6.78506">
        <ele>1702</ele>
        <time>2020-08-03T14:19:36Z</time>
      </trkpt>
      <trkpt lat="44.66145" lon="6.7852">
        <ele>1701</ele>
        <time>2020-08-03T14:19:41Z</time>
      </trkpt>
      <trkpt lat="44.66121" lon="6.78558">
        <ele>1708</ele>
        <time>2020-08-03T14:19:52Z</time>
      </trkpt>
      <trkpt lat="44.66119" lon="6.78562">
        <ele>1708</ele>
        <time>2020-08-03T14:19:58Z</time>
      </trkpt>
      <trkpt lat="44.66101" lon="6.78602">
        <ele>1714</ele>
        <time>2020-08-03T14:20:47Z</time>
      </trkpt>
      <trkpt lat="44.66091" lon="6.78611">
        <ele>1715</ele>
        <time>2020-08-03T14:21:01Z</time>
      </trkpt>
      <trkpt lat="44.66078" lon="6.78615">
        <ele>1715</ele>
        <time>2020-08-03T14:21:18Z</time>
      </trkpt>
      <trkpt lat="44.6606" lon="6.78627">
        <ele>1719</ele>
        <time>2020-08-03T14:21:31Z</time>
      </trkpt>
      <trkpt lat="44.66055" lon="6.78635">
        <ele>1721</ele>
        <time>2020-08-03T14:21:34Z</time>
      </trkpt>
      <trkpt lat="44.66042" lon="6.78649">
        <ele>1722</ele>
        <time>2020-08-03T14:21:40Z</time>
      </trkpt>
      <trkpt lat="44.66024" lon="6.78669">
        <ele>1723</ele>
        <time>2020-08-03T14:21:46Z</time>
      </trkpt>
      <trkpt lat="44.66015" lon="6.78677">
        <ele>1724</ele>
        <time>2020-08-03T14:21:49Z</time>
      </trkpt>
      <trkpt lat="44.65993" lon="6.78699">
        <ele>1725</ele>
        <time>2020-08-03T14:21:56Z</time>
      </trkpt>
      <trkpt lat="44.65971" lon="6.78709">
        <ele>1720</ele>
        <time>2020-08-03T14:22:05Z</time>
      </trkpt>
      <trkpt lat="44.65964" lon="6.7871">
        <ele>1718</ele>
        <time>2020-08-03T14:22:07Z</time>
      </trkpt>
      <trkpt lat="44.65955" lon="6.78717">
        <ele>1715</ele>
        <time>2020-08-03T14:22:15Z</time>
      </trkpt>
      <trkpt lat="44.65952" lon="6.7872">
        <ele>1714</ele>
        <time>2020-08-03T14:22:40Z</time>
      </trkpt>
      <trkpt lat="44.65952" lon="6.78719">
        <ele>1714</ele>
        <time>2020-08-03T14:22:44Z</time>
      </trkpt>
      <trkpt lat="44.65946" lon="6.78738">
        <ele>1714</ele>
        <time>2020-08-03T14:23:18Z</time>
      </trkpt>
      <trkpt lat="44.65948" lon="6.78747">
        <ele>1717</ele>
        <time>2020-08-03T14:23:36Z</time>
      </trkpt>
      <trkpt lat="44.65947" lon="6.78774">
        <ele>1723</ele>
        <time>2020-08-03T14:24:19Z</time>
      </trkpt>
      <trkpt lat="44.65944" lon="6.78796">
        <ele>1729</ele>
        <time>2020-08-03T14:24:39Z</time>
      </trkpt>
      <trkpt lat="44.65941" lon="6.78812">
        <ele>1735</ele>
        <time>2020-08-03T14:24:55Z</time>
      </trkpt>
      <trkpt lat="44.65941" lon="6.78812">
        <ele>1735</ele>
        <time>2020-08-03T14:24:56Z</time>
      </trkpt>
      <trkpt lat="44.65936" lon="6.78825">
        <ele>1738</ele>
        <time>2020-08-03T14:25:14Z</time>
      </trkpt>
      <trkpt lat="44.65936" lon="6.78829">
        <ele>1739</ele>
        <time>2020-08-03T14:25:15Z</time>
      </trkpt>
      <trkpt lat="44.65927" lon="6.78846">
        <ele>1740</ele>
        <time>2020-08-03T14:25:21Z</time>
      </trkpt>
      <trkpt lat="44.65917" lon="6.78861">
        <ele>1739</ele>
        <time>2020-08-03T14:25:27Z</time>
      </trkpt>
      <trkpt lat="44.65907" lon="6.78868">
        <ele>1737</ele>
        <time>2020-08-03T14:25:31Z</time>
      </trkpt>
      <trkpt lat="44.65884" lon="6.7889">
        <ele>1734</ele>
        <time>2020-08-03T14:25:41Z</time>
      </trkpt>
      <trkpt lat="44.65877" lon="6.78902">
        <ele>1736</ele>
        <time>2020-08-03T14:25:49Z</time>
      </trkpt>
      <trkpt lat="44.65873" lon="6.78905">
        <ele>1736</ele>
        <time>2020-08-03T14:25:51Z</time>
      </trkpt>
      <trkpt lat="44.65865" lon="6.78919">
        <ele>1739</ele>
        <time>2020-08-03T14:26:04Z</time>
      </trkpt>
      <trkpt lat="44.65863" lon="6.7892">
        <ele>1738</ele>
        <time>2020-08-03T14:26:06Z</time>
      </trkpt>
      <trkpt lat="44.65855" lon="6.78931">
        <ele>1740</ele>
        <time>2020-08-03T14:26:21Z</time>
      </trkpt>
      <trkpt lat="44.65853" lon="6.78934">
        <ele>1740</ele>
        <time>2020-08-03T14:26:23Z</time>
      </trkpt>
      <trkpt lat="44.6584" lon="6.7894">
        <ele>1739</ele>
        <time>2020-08-03T14:26:32Z</time>
      </trkpt>
      <trkpt lat="44.6583" lon="6.78946">
        <ele>1737</ele>
        <time>2020-08-03T14:26:36Z</time>
      </trkpt>
      <trkpt lat="44.65803" lon="6.78971">
        <ele>1739</ele>
        <time>2020-08-03T14:26:47Z</time>
      </trkpt>
      <trkpt lat="44.65774" lon="6.78992">
        <ele>1736</ele>
        <time>2020-08-03T14:26:57Z</time>
      </trkpt>
      <trkpt lat="44.65754" lon="6.79003">
        <ele>1734</ele>
        <time>2020-08-03T14:27:03Z</time>
      </trkpt>
      <trkpt lat="44.65725" lon="6.79022">
        <ele>1732</ele>
        <time>2020-08-03T14:27:11Z</time>
      </trkpt>
      <trkpt lat="44.6572" lon="6.79026">
        <ele>1731</ele>
        <time>2020-08-03T14:27:13Z</time>
      </trkpt>
      <trkpt lat="44.65719" lon="6.79027">
        <ele>1731</ele>
        <time>2020-08-03T14:27:18Z</time>
      </trkpt>
      <trkpt lat="44.65705" lon="6.79036">
        <ele>1730</ele>
        <time>2020-08-03T14:30:29Z</time>
      </trkpt>
      <trkpt lat="44.65696" lon="6.79035">
        <ele>1726</ele>
        <time>2020-08-03T14:30:32Z</time>
      </trkpt>
      <trkpt lat="44.65691" lon="6.79035">
        <ele>1725</ele>
        <time>2020-08-03T14:30:38Z</time>
      </trkpt>
      <trkpt lat="44.65685" lon="6.79036">
        <ele>1725</ele>
        <time>2020-08-03T14:30:47Z</time>
      </trkpt>
      <trkpt lat="44.65683" lon="6.79037">
        <ele>1725</ele>
        <time>2020-08-03T14:30:48Z</time>
      </trkpt>
      <trkpt lat="44.65659" lon="6.79064">
        <ele>1736</ele>
        <time>2020-08-03T14:30:59Z</time>
      </trkpt>
      <trkpt lat="44.6565" lon="6.79058">
        <ele>1734</ele>
        <time>2020-08-03T14:31:03Z</time>
      </trkpt>
      <trkpt lat="44.65622" lon="6.79045">
        <ele>1730</ele>
        <time>2020-08-03T14:31:12Z</time>
      </trkpt>
      <trkpt lat="44.65612" lon="6.79041">
        <ele>1728</ele>
        <time>2020-08-03T14:31:15Z</time>
      </trkpt>
      <trkpt lat="44.65596" lon="6.79046">
        <ele>1728</ele>
        <time>2020-08-03T14:31:26Z</time>
      </trkpt>
      <trkpt lat="44.65596" lon="6.79046">
        <ele>1728</ele>
        <time>2020-08-03T14:31:27Z</time>
      </trkpt>
      <trkpt lat="44.65588" lon="6.79047">
        <ele>1727</ele>
        <time>2020-08-03T14:31:48Z</time>
      </trkpt>
      <trkpt lat="44.65567" lon="6.7907">
        <ele>1728</ele>
        <time>2020-08-03T14:31:57Z</time>
      </trkpt>
      <trkpt lat="44.65566" lon="6.79074">
        <ele>1728</ele>
        <time>2020-08-03T14:31:58Z</time>
      </trkpt>
      <trkpt lat="44.65564" lon="6.79115">
        <ele>1737</ele>
        <time>2020-08-03T14:32:07Z</time>
      </trkpt>
      <trkpt lat="44.65559" lon="6.79165">
        <ele>1746</ele>
        <time>2020-08-03T14:32:19Z</time>
      </trkpt>
      <trkpt lat="44.65542" lon="6.79198">
        <ele>1749</ele>
        <time>2020-08-03T14:32:27Z</time>
      </trkpt>
      <trkpt lat="44.65512" lon="6.79208">
        <ele>1744</ele>
        <time>2020-08-03T14:32:37Z</time>
      </trkpt>
      <trkpt lat="44.65496" lon="6.79204">
        <ele>1739</ele>
        <time>2020-08-03T14:32:43Z</time>
      </trkpt>
      <trkpt lat="44.6548" lon="6.7921">
        <ele>1735</ele>
        <time>2020-08-03T14:32:47Z</time>
      </trkpt>
      <trkpt lat="44.65444" lon="6.79245">
        <ele>1736</ele>
        <time>2020-08-03T14:32:57Z</time>
      </trkpt>
      <trkpt lat="44.65438" lon="6.79256">
        <ele>1737</ele>
        <time>2020-08-03T14:32:59Z</time>
      </trkpt>
      <trkpt lat="44.65425" lon="6.7927">
        <ele>1738</ele>
        <time>2020-08-03T14:33:03Z</time>
      </trkpt>
      <trkpt lat="44.65417" lon="6.79275">
        <ele>1739</ele>
        <time>2020-08-03T14:33:05Z</time>
      </trkpt>
      <trkpt lat="44.65409" lon="6.79283">
        <ele>1740</ele>
        <time>2020-08-03T14:33:07Z</time>
      </trkpt>
      <trkpt lat="44.65385" lon="6.79289">
        <ele>1738</ele>
        <time>2020-08-03T14:33:12Z</time>
      </trkpt>
      <trkpt lat="44.65371" lon="6.79292">
        <ele>1738</ele>
        <time>2020-08-03T14:33:15Z</time>
      </trkpt>
      <trkpt lat="44.65362" lon="6.79295">
        <ele>1738</ele>
        <time>2020-08-03T14:33:17Z</time>
      </trkpt>
      <trkpt lat="44.65315" lon="6.79326">
        <ele>1742</ele>
        <time>2020-08-03T14:33:29Z</time>
      </trkpt>
      <trkpt lat="44.65297" lon="6.79336">
        <ele>1739</ele>
        <time>2020-08-03T14:33:34Z</time>
      </trkpt>
      <trkpt lat="44.65266" lon="6.79346">
        <ele>1734</ele>
        <time>2020-08-03T14:33:42Z</time>
      </trkpt>
      <trkpt lat="44.6524" lon="6.79367">
        <ele>1736</ele>
        <time>2020-08-03T14:33:50Z</time>
      </trkpt>
      <trkpt lat="44.65234" lon="6.79373">
        <ele>1737</ele>
        <time>2020-08-03T14:33:52Z</time>
      </trkpt>
      <trkpt lat="44.65213" lon="6.79387">
        <ele>1737</ele>
        <time>2020-08-03T14:33:58Z</time>
      </trkpt>
      <trkpt lat="44.65202" lon="6.79399">
        <ele>1738</ele>
        <time>2020-08-03T14:34:01Z</time>
      </trkpt>
      <trkpt lat="44.65195" lon="6.79407">
        <ele>1739</ele>
        <time>2020-08-03T14:34:03Z</time>
      </trkpt>
      <trkpt lat="44.65175" lon="6.79413">
        <ele>1736</ele>
        <time>2020-08-03T14:34:08Z</time>
      </trkpt>
      <trkpt lat="44.65163" lon="6.7942">
        <ele>1735</ele>
        <time>2020-08-03T14:34:12Z</time>
      </trkpt>
      <trkpt lat="44.65137" lon="6.79429">
        <ele>1732</ele>
        <time>2020-08-03T14:34:21Z</time>
      </trkpt>
      <trkpt lat="44.65137" lon="6.79429">
        <ele>1732</ele>
        <time>2020-08-03T14:34:24Z</time>
      </trkpt>
      <trkpt lat="44.65132" lon="6.79417">
        <ele>1728</ele>
        <time>2020-08-03T14:37:04Z</time>
      </trkpt>
      <trkpt lat="44.6512" lon="6.79386">
        <ele>1722</ele>
        <time>2020-08-03T14:37:10Z</time>
      </trkpt>
      <trkpt lat="44.65116" lon="6.79381">
        <ele>1722</ele>
        <time>2020-08-03T14:37:11Z</time>
      </trkpt>
      <trkpt lat="44.65096" lon="6.79344">
        <ele>1714</ele>
        <time>2020-08-03T14:37:17Z</time>
      </trkpt>
      <trkpt lat="44.65089" lon="6.79336">
        <ele>1712</ele>
        <time>2020-08-03T14:37:19Z</time>
      </trkpt>
      <trkpt lat="44.65075" lon="6.79326">
        <ele>1709</ele>
        <time>2020-08-03T14:37:23Z</time>
      </trkpt>
      <trkpt lat="44.65066" lon="6.79326">
        <ele>1708</ele>
        <time>2020-08-03T14:37:26Z</time>
      </trkpt>
      <trkpt lat="44.65063" lon="6.79326">
        <ele>1708</ele>
        <time>2020-08-03T14:37:27Z</time>
      </trkpt>
      <trkpt lat="44.65053" lon="6.79314">
        <ele>1706</ele>
        <time>2020-08-03T14:37:32Z</time>
      </trkpt>
      <trkpt lat="44.65048" lon="6.79307">
        <ele>1706</ele>
        <time>2020-08-03T14:37:37Z</time>
      </trkpt>
      <trkpt lat="44.65047" lon="6.79309">
        <ele>1706</ele>
        <time>2020-08-03T14:37:38Z</time>
      </trkpt>
      <trkpt lat="44.65046" lon="6.79312">
        <ele>1706</ele>
        <time>2020-08-03T14:37:39Z</time>
      </trkpt>
      <trkpt lat="44.65045" lon="6.79315">
        <ele>1706</ele>
        <time>2020-08-03T14:37:40Z</time>
      </trkpt>
      <trkpt lat="44.65044" lon="6.79317">
        <ele>1706</ele>
        <time>2020-08-03T14:37:41Z</time>
      </trkpt>
      <trkpt lat="44.65043" lon="6.79318">
        <ele>1706</ele>
        <time>2020-08-03T14:37:42Z</time>
      </trkpt>
      <trkpt lat="44.65031" lon="6.79341">
        <ele>1707</ele>
        <time>2020-08-03T14:37:59Z</time>
      </trkpt>
      <trkpt lat="44.65029" lon="6.79342">
        <ele>1707</ele>
        <time>2020-08-03T14:38:00Z</time>
      </trkpt>
      <trkpt lat="44.65012" lon="6.79368">
        <ele>1708</ele>
        <time>2020-08-03T14:38:17Z</time>
      </trkpt>
      <trkpt lat="44.64994" lon="6.79392">
        <ele>1708</ele>
        <time>2020-08-03T14:38:33Z</time>
      </trkpt>
      <trkpt lat="44.64973" lon="6.79419">
        <ele>1709</ele>
        <time>2020-08-03T14:38:50Z</time>
      </trkpt>
      <trkpt lat="44.64957" lon="6.79436">
        <ele>1713</ele>
        <time>2020-08-03T14:39:05Z</time>
      </trkpt>
      <trkpt lat="44.64935" lon="6.79451">
        <ele>1716</ele>
        <time>2020-08-03T14:39:23Z</time>
      </trkpt>
      <trkpt lat="44.64913" lon="6.79475">
        <ele>1722</ele>
        <time>2020-08-03T14:39:39Z</time>
      </trkpt>
      <trkpt lat="44.64893" lon="6.79501">
        <ele>1725</ele>
        <time>2020-08-03T14:39:56Z</time>
      </trkpt>
      <trkpt lat="44.64874" lon="6.7953">
        <ele>1727</ele>
        <time>2020-08-03T14:40:14Z</time>
      </trkpt>
      <trkpt lat="44.64852" lon="6.79558">
        <ele>1730</ele>
        <time>2020-08-03T14:40:33Z</time>
      </trkpt>
      <trkpt lat="44.64836" lon="6.79588">
        <ele>1735</ele>
        <time>2020-08-03T14:40:50Z</time>
      </trkpt>
      <trkpt lat="44.64825" lon="6.79617">
        <ele>1739</ele>
        <time>2020-08-03T14:41:06Z</time>
      </trkpt>
      <trkpt lat="44.64809" lon="6.79647">
        <ele>1742</ele>
        <time>2020-08-03T14:41:24Z</time>
      </trkpt>
      <trkpt lat="44.64795" lon="6.79678">
        <ele>1746</ele>
        <time>2020-08-03T14:41:40Z</time>
      </trkpt>
      <trkpt lat="44.64778" lon="6.79719">
        <ele>1749</ele>
        <time>2020-08-03T14:42:00Z</time>
      </trkpt>
      <trkpt lat="44.64761" lon="6.7976">
        <ele>1753</ele>
        <time>2020-08-03T14:42:19Z</time>
      </trkpt>
      <trkpt lat="44.64749" lon="6.7979">
        <ele>1756</ele>
        <time>2020-08-03T14:42:34Z</time>
      </trkpt>
      <trkpt lat="44.64736" lon="6.79819">
        <ele>1759</ele>
        <time>2020-08-03T14:42:50Z</time>
      </trkpt>
      <trkpt lat="44.64725" lon="6.79845">
        <ele>1762</ele>
        <time>2020-08-03T14:43:05Z</time>
      </trkpt>
      <trkpt lat="44.64713" lon="6.79874">
        <ele>1765</ele>
        <time>2020-08-03T14:43:22Z</time>
      </trkpt>
      <trkpt lat="44.64699" lon="6.79905">
        <ele>1770</ele>
        <time>2020-08-03T14:43:40Z</time>
      </trkpt>
      <trkpt lat="44.64686" lon="6.79929">
        <ele>1774</ele>
        <time>2020-08-03T14:43:55Z</time>
      </trkpt>
      <trkpt lat="44.64676" lon="6.7995">
        <ele>1777</ele>
        <time>2020-08-03T14:44:08Z</time>
      </trkpt>
      <trkpt lat="44.6466" lon="6.79972">
        <ele>1780</ele>
        <time>2020-08-03T14:44:24Z</time>
      </trkpt>
      <trkpt lat="44.64645" lon="6.79996">
        <ele>1782</ele>
        <time>2020-08-03T14:44:39Z</time>
      </trkpt>
      <trkpt lat="44.64627" lon="6.80029">
        <ele>1786</ele>
        <time>2020-08-03T14:44:59Z</time>
      </trkpt>
      <trkpt lat="44.64608" lon="6.80063">
        <ele>1788</ele>
        <time>2020-08-03T14:45:18Z</time>
      </trkpt>
      <trkpt lat="44.6459" lon="6.80091">
        <ele>1791</ele>
        <time>2020-08-03T14:45:35Z</time>
      </trkpt>
      <trkpt lat="44.64572" lon="6.80112">
        <ele>1794</ele>
        <time>2020-08-03T14:45:51Z</time>
      </trkpt>
      <trkpt lat="44.64549" lon="6.80141">
        <ele>1799</ele>
        <time>2020-08-03T14:46:11Z</time>
      </trkpt>
      <trkpt lat="44.6453" lon="6.80163">
        <ele>1802</ele>
        <time>2020-08-03T14:46:27Z</time>
      </trkpt>
      <trkpt lat="44.64513" lon="6.80184">
        <ele>1805</ele>
        <time>2020-08-03T14:46:41Z</time>
      </trkpt>
      <trkpt lat="44.6449" lon="6.80211">
        <ele>1809</ele>
        <time>2020-08-03T14:46:59Z</time>
      </trkpt>
      <trkpt lat="44.64467" lon="6.80241">
        <ele>1813</ele>
        <time>2020-08-03T14:47:18Z</time>
      </trkpt>
      <trkpt lat="44.64446" lon="6.80269">
        <ele>1816</ele>
        <time>2020-08-03T14:47:36Z</time>
      </trkpt>
      <trkpt lat="44.64431" lon="6.80288">
        <ele>1817</ele>
        <time>2020-08-03T14:47:48Z</time>
      </trkpt>
      <trkpt lat="44.64417" lon="6.80297">
        <ele>1819</ele>
        <time>2020-08-03T14:47:57Z</time>
      </trkpt>
      <trkpt lat="44.64407" lon="6.80323">
        <ele>1823</ele>
        <time>2020-08-03T14:48:12Z</time>
      </trkpt>
      <trkpt lat="44.64402" lon="6.80327">
        <ele>1823</ele>
        <time>2020-08-03T14:48:20Z</time>
      </trkpt>
      <trkpt lat="44.64399" lon="6.80316">
        <ele>1822</ele>
        <time>2020-08-04T05:43:10Z</time>
      </trkpt>
      <trkpt lat="44.644" lon="6.80317">
        <ele>1822</ele>
        <time>2020-08-04T05:43:11Z</time>
      </trkpt>
      <trkpt lat="44.64407" lon="6.8032">
        <ele>1822</ele>
        <time>2020-08-04T05:43:19Z</time>
      </trkpt>
      <trkpt lat="44.64405" lon="6.80306">
        <ele>1821</ele>
        <time>2020-08-04T05:43:23Z</time>
      </trkpt>
      <trkpt lat="44.64406" lon="6.80301">
        <ele>1820</ele>
        <time>2020-08-04T05:43:24Z</time>
      </trkpt>
      <trkpt lat="44.64407" lon="6.80295">
        <ele>1819</ele>
        <time>2020-08-04T05:43:25Z</time>
      </trkpt>
      <trkpt lat="44.64395" lon="6.80288">
        <ele>1818</ele>
        <time>2020-08-04T05:43:29Z</time>
      </trkpt>
      <trkpt lat="44.64395" lon="6.80291">
        <ele>1818</ele>
        <time>2020-08-04T05:43:30Z</time>
      </trkpt>
      <trkpt lat="44.64396" lon="6.80294">
        <ele>1819</ele>
        <time>2020-08-04T05:43:31Z</time>
      </trkpt>
      <trkpt lat="44.64391" lon="6.80301">
        <ele>1820</ele>
        <time>2020-08-04T05:43:34Z</time>
      </trkpt>
      <trkpt lat="44.64362" lon="6.80333">
        <ele>1824</ele>
        <time>2020-08-04T05:43:44Z</time>
      </trkpt>
      <trkpt lat="44.64351" lon="6.80336">
        <ele>1823</ele>
        <time>2020-08-04T05:43:45Z</time>
      </trkpt>
      <trkpt lat="44.64339" lon="6.80339">
        <ele>1822</ele>
        <time>2020-08-04T05:43:46Z</time>
      </trkpt>
      <trkpt lat="44.64337" lon="6.80345">
        <ele>1822</ele>
        <time>2020-08-04T05:43:47Z</time>
      </trkpt>
      <trkpt lat="44.64334" lon="6.80349">
        <ele>1822</ele>
        <time>2020-08-04T05:43:48Z</time>
      </trkpt>
      <trkpt lat="44.64319" lon="6.80347">
        <ele>1822</ele>
        <time>2020-08-04T05:43:49Z</time>
      </trkpt>
      <trkpt lat="44.64312" lon="6.80346">
        <ele>1822</ele>
        <time>2020-08-04T05:43:50Z</time>
      </trkpt>
      <trkpt lat="44.64305" lon="6.80343">
        <ele>1823</ele>
        <time>2020-08-04T05:43:51Z</time>
      </trkpt>
      <trkpt lat="44.643" lon="6.80337">
        <ele>1826</ele>
        <time>2020-08-04T05:43:52Z</time>
      </trkpt>
      <trkpt lat="44.64297" lon="6.8033">
        <ele>1828</ele>
        <time>2020-08-04T05:43:53Z</time>
      </trkpt>
      <trkpt lat="44.64296" lon="6.80323">
        <ele>1830</ele>
        <time>2020-08-04T05:43:54Z</time>
      </trkpt>
      <trkpt lat="44.64296" lon="6.80315">
        <ele>1832</ele>
        <time>2020-08-04T05:43:55Z</time>
      </trkpt>
      <trkpt lat="44.64297" lon="6.80308">
        <ele>1832</ele>
        <time>2020-08-04T05:43:56Z</time>
      </trkpt>
      <trkpt lat="44.64299" lon="6.80302">
        <ele>1832</ele>
        <time>2020-08-04T05:43:57Z</time>
      </trkpt>
      <trkpt lat="44.64303" lon="6.80298">
        <ele>1831</ele>
        <time>2020-08-04T05:43:58Z</time>
      </trkpt>
      <trkpt lat="44.64306" lon="6.80295">
        <ele>1830</ele>
        <time>2020-08-04T05:43:59Z</time>
      </trkpt>
      <trkpt lat="44.64309" lon="6.8029">
        <ele>1830</ele>
        <time>2020-08-04T05:44:00Z</time>
      </trkpt>
      <trkpt lat="44.64312" lon="6.80284">
        <ele>1830</ele>
        <time>2020-08-04T05:44:01Z</time>
      </trkpt>
      <trkpt lat="44.64315" lon="6.80278">
        <ele>1829</ele>
        <time>2020-08-04T05:44:02Z</time>
      </trkpt>
      <trkpt lat="44.64316" lon="6.8027">
        <ele>1830</ele>
        <time>2020-08-04T05:44:03Z</time>
      </trkpt>
      <trkpt lat="44.64316" lon="6.80264">
        <ele>1831</ele>
        <time>2020-08-04T05:44:04Z</time>
      </trkpt>
      <trkpt lat="44.64317" lon="6.80258">
        <ele>1831</ele>
        <time>2020-08-04T05:44:05Z</time>
      </trkpt>
      <trkpt lat="44.64324" lon="6.80214">
        <ele>1835</ele>
        <time>2020-08-04T05:44:12Z</time>
      </trkpt>
      <trkpt lat="44.64329" lon="6.80205">
        <ele>1834</ele>
        <time>2020-08-04T05:44:13Z</time>
      </trkpt>
      <trkpt lat="44.64344" lon="6.80138">
        <ele>1838</ele>
        <time>2020-08-04T05:44:19Z</time>
      </trkpt>
      <trkpt lat="44.64348" lon="6.80129">
        <ele>1838</ele>
        <time>2020-08-04T05:44:20Z</time>
      </trkpt>
      <trkpt lat="44.64364" lon="6.80098">
        <ele>1834</ele>
        <time>2020-08-04T05:44:23Z</time>
      </trkpt>
      <trkpt lat="44.64386" lon="6.80073">
        <ele>1829</ele>
        <time>2020-08-04T05:44:26Z</time>
      </trkpt>
      <trkpt lat="44.64397" lon="6.8006">
        <ele>1828</ele>
        <time>2020-08-04T05:44:28Z</time>
      </trkpt>
      <trkpt lat="44.64409" lon="6.80027">
        <ele>1830</ele>
        <time>2020-08-04T05:44:32Z</time>
      </trkpt>
      <trkpt lat="44.64433" lon="6.80002">
        <ele>1820</ele>
        <time>2020-08-04T05:44:36Z</time>
      </trkpt>
      <trkpt lat="44.64458" lon="6.79986">
        <ele>1808</ele>
        <time>2020-08-04T05:44:40Z</time>
      </trkpt>
      <trkpt lat="44.6447" lon="6.79982">
        <ele>1802</ele>
        <time>2020-08-04T05:44:42Z</time>
      </trkpt>
      <trkpt lat="44.64482" lon="6.7997">
        <ele>1798</ele>
        <time>2020-08-04T05:44:45Z</time>
      </trkpt>
      <trkpt lat="44.64511" lon="6.79956">
        <ele>1791</ele>
        <time>2020-08-04T05:44:49Z</time>
      </trkpt>
      <trkpt lat="44.64517" lon="6.7995">
        <ele>1790</ele>
        <time>2020-08-04T05:44:50Z</time>
      </trkpt>
      <trkpt lat="44.6452" lon="6.79933">
        <ele>1791</ele>
        <time>2020-08-04T05:44:52Z</time>
      </trkpt>
      <trkpt lat="44.64526" lon="6.79881">
        <ele>1793</ele>
        <time>2020-08-04T05:44:58Z</time>
      </trkpt>
      <trkpt lat="44.6452" lon="6.79854">
        <ele>1797</ele>
        <time>2020-08-04T05:45:01Z</time>
      </trkpt>
      <trkpt lat="44.64514" lon="6.7982">
        <ele>1800</ele>
        <time>2020-08-04T05:45:05Z</time>
      </trkpt>
      <trkpt lat="44.64519" lon="6.79801">
        <ele>1797</ele>
        <time>2020-08-04T05:45:07Z</time>
      </trkpt>
      <trkpt lat="44.64525" lon="6.79759">
        <ele>1791</ele>
        <time>2020-08-04T05:45:13Z</time>
      </trkpt>
      <trkpt lat="44.64521" lon="6.79746">
        <ele>1790</ele>
        <time>2020-08-04T05:45:16Z</time>
      </trkpt>
      <trkpt lat="44.64514" lon="6.79732">
        <ele>1790</ele>
        <time>2020-08-04T05:45:18Z</time>
      </trkpt>
      <trkpt lat="44.64509" lon="6.79717">
        <ele>1789</ele>
        <time>2020-08-04T05:45:21Z</time>
      </trkpt>
      <trkpt lat="44.64526" lon="6.79727">
        <ele>1783</ele>
        <time>2020-08-04T05:45:26Z</time>
      </trkpt>
      <trkpt lat="44.64553" lon="6.79747">
        <ele>1779</ele>
        <time>2020-08-04T05:45:31Z</time>
      </trkpt>
      <trkpt lat="44.64564" lon="6.79753">
        <ele>1776</ele>
        <time>2020-08-04T05:45:33Z</time>
      </trkpt>
      <trkpt lat="44.64584" lon="6.79752">
        <ele>1770</ele>
        <time>2020-08-04T05:45:37Z</time>
      </trkpt>
      <trkpt lat="44.64596" lon="6.79745">
        <ele>1767</ele>
        <time>2020-08-04T05:45:39Z</time>
      </trkpt>
      <trkpt lat="44.64614" lon="6.79736">
        <ele>1760</ele>
        <time>2020-08-04T05:45:46Z</time>
      </trkpt>
      <trkpt lat="44.64605" lon="6.79736">
        <ele>1762</ele>
        <time>2020-08-04T05:45:49Z</time>
      </trkpt>
      <trkpt lat="44.6457" lon="6.79719">
        <ele>1768</ele>
        <time>2020-08-04T05:45:55Z</time>
      </trkpt>
      <trkpt lat="44.64567" lon="6.79711">
        <ele>1768</ele>
        <time>2020-08-04T05:45:58Z</time>
      </trkpt>
      <trkpt lat="44.64591" lon="6.79719">
        <ele>1763</ele>
        <time>2020-08-04T05:46:04Z</time>
      </trkpt>
      <trkpt lat="44.64599" lon="6.79717">
        <ele>1761</ele>
        <time>2020-08-04T05:46:06Z</time>
      </trkpt>
      <trkpt lat="44.64579" lon="6.79682">
        <ele>1758</ele>
        <time>2020-08-04T05:46:13Z</time>
      </trkpt>
      <trkpt lat="44.646" lon="6.79677">
        <ele>1751</ele>
        <time>2020-08-04T05:46:18Z</time>
      </trkpt>
      <trkpt lat="44.64629" lon="6.7969">
        <ele>1747</ele>
        <time>2020-08-04T05:46:22Z</time>
      </trkpt>
      <trkpt lat="44.64652" lon="6.79698">
        <ele>1745</ele>
        <time>2020-08-04T05:46:27Z</time>
      </trkpt>
      <trkpt lat="44.64657" lon="6.79705">
        <ele>1745</ele>
        <time>2020-08-04T05:46:28Z</time>
      </trkpt>
      <trkpt lat="44.64656" lon="6.79714">
        <ele>1746</ele>
        <time>2020-08-04T05:46:29Z</time>
      </trkpt>
      <trkpt lat="44.64656" lon="6.79722">
        <ele>1747</ele>
        <time>2020-08-04T05:46:30Z</time>
      </trkpt>
      <trkpt lat="44.64653" lon="6.7973">
        <ele>1748</ele>
        <time>2020-08-04T05:46:31Z</time>
      </trkpt>
      <trkpt lat="44.64656" lon="6.79738">
        <ele>1748</ele>
        <time>2020-08-04T05:46:32Z</time>
      </trkpt>
      <trkpt lat="44.64665" lon="6.79741">
        <ele>1746</ele>
        <time>2020-08-04T05:46:34Z</time>
      </trkpt>
      <trkpt lat="44.64664" lon="6.79731">
        <ele>1746</ele>
        <time>2020-08-04T05:46:40Z</time>
      </trkpt>
      <trkpt lat="44.64664" lon="6.79728">
        <ele>1745</ele>
        <time>2020-08-04T05:46:42Z</time>
      </trkpt>
      <trkpt lat="44.6466" lon="6.79718">
        <ele>1745</ele>
        <time>2020-08-04T05:46:47Z</time>
      </trkpt>
      <trkpt lat="44.64658" lon="6.79714">
        <ele>1745</ele>
        <time>2020-08-04T05:46:48Z</time>
      </trkpt>
      <trkpt lat="44.64653" lon="6.79695">
        <ele>1744</ele>
        <time>2020-08-04T05:46:51Z</time>
      </trkpt>
      <trkpt lat="44.64651" lon="6.79686">
        <ele>1743</ele>
        <time>2020-08-04T05:46:52Z</time>
      </trkpt>
      <trkpt lat="44.64652" lon="6.79678">
        <ele>1743</ele>
        <time>2020-08-04T05:46:53Z</time>
      </trkpt>
      <trkpt lat="44.64652" lon="6.79668">
        <ele>1742</ele>
        <time>2020-08-04T05:46:54Z</time>
      </trkpt>
      <trkpt lat="44.64652" lon="6.79656">
        <ele>1740</ele>
        <time>2020-08-04T05:46:55Z</time>
      </trkpt>
      <trkpt lat="44.6465" lon="6.79644">
        <ele>1739</ele>
        <time>2020-08-04T05:46:56Z</time>
      </trkpt>
      <trkpt lat="44.64647" lon="6.79625">
        <ele>1737</ele>
        <time>2020-08-04T05:46:58Z</time>
      </trkpt>
      <trkpt lat="44.64646" lon="6.79615">
        <ele>1736</ele>
        <time>2020-08-04T05:46:59Z</time>
      </trkpt>
      <trkpt lat="44.64647" lon="6.79594">
        <ele>1734</ele>
        <time>2020-08-04T05:47:01Z</time>
      </trkpt>
      <trkpt lat="44.64649" lon="6.79583">
        <ele>1732</ele>
        <time>2020-08-04T05:47:02Z</time>
      </trkpt>
      <trkpt lat="44.64653" lon="6.79571">
        <ele>1729</ele>
        <time>2020-08-04T05:47:03Z</time>
      </trkpt>
      <trkpt lat="44.64659" lon="6.79551">
        <ele>1725</ele>
        <time>2020-08-04T05:47:05Z</time>
      </trkpt>
      <trkpt lat="44.64663" lon="6.79542">
        <ele>1724</ele>
        <time>2020-08-04T05:47:06Z</time>
      </trkpt>
      <trkpt lat="44.64672" lon="6.79524">
        <ele>1721</ele>
        <time>2020-08-04T05:47:08Z</time>
      </trkpt>
      <trkpt lat="44.64675" lon="6.79515">
        <ele>1721</ele>
        <time>2020-08-04T05:47:09Z</time>
      </trkpt>
      <trkpt lat="44.64678" lon="6.79505">
        <ele>1720</ele>
        <time>2020-08-04T05:47:10Z</time>
      </trkpt>
      <trkpt lat="44.64682" lon="6.79495">
        <ele>1719</ele>
        <time>2020-08-04T05:47:11Z</time>
      </trkpt>
      <trkpt lat="44.64686" lon="6.79484">
        <ele>1718</ele>
        <time>2020-08-04T05:47:12Z</time>
      </trkpt>
      <trkpt lat="44.64688" lon="6.79472">
        <ele>1717</ele>
        <time>2020-08-04T05:47:13Z</time>
      </trkpt>
      <trkpt lat="44.64688" lon="6.7946">
        <ele>1716</ele>
        <time>2020-08-04T05:47:14Z</time>
      </trkpt>
      <trkpt lat="44.64689" lon="6.79447">
        <ele>1714</ele>
        <time>2020-08-04T05:47:15Z</time>
      </trkpt>
      <trkpt lat="44.64696" lon="6.79421">
        <ele>1711</ele>
        <time>2020-08-04T05:47:17Z</time>
      </trkpt>
      <trkpt lat="44.647" lon="6.79408">
        <ele>1710</ele>
        <time>2020-08-04T05:47:18Z</time>
      </trkpt>
      <trkpt lat="44.64704" lon="6.79395">
        <ele>1709</ele>
        <time>2020-08-04T05:47:19Z</time>
      </trkpt>
      <trkpt lat="44.64726" lon="6.79346">
        <ele>1708</ele>
        <time>2020-08-04T05:47:23Z</time>
      </trkpt>
      <trkpt lat="44.64741" lon="6.79326">
        <ele>1708</ele>
        <time>2020-08-04T05:47:25Z</time>
      </trkpt>
      <trkpt lat="44.64757" lon="6.79308">
        <ele>1707</ele>
        <time>2020-08-04T05:47:27Z</time>
      </trkpt>
      <trkpt lat="44.64783" lon="6.79283">
        <ele>1704</ele>
        <time>2020-08-04T05:47:30Z</time>
      </trkpt>
      <trkpt lat="44.648" lon="6.79268">
        <ele>1701</ele>
        <time>2020-08-04T05:47:32Z</time>
      </trkpt>
      <trkpt lat="44.64809" lon="6.79261">
        <ele>1700</ele>
        <time>2020-08-04T05:47:33Z</time>
      </trkpt>
      <trkpt lat="44.64816" lon="6.79254">
        <ele>1700</ele>
        <time>2020-08-04T05:47:34Z</time>
      </trkpt>
      <trkpt lat="44.64836" lon="6.79237">
        <ele>1698</ele>
        <time>2020-08-04T05:47:38Z</time>
      </trkpt>
      <trkpt lat="44.64836" lon="6.79231">
        <ele>1698</ele>
        <time>2020-08-04T05:47:39Z</time>
      </trkpt>
      <trkpt lat="44.64836" lon="6.79227">
        <ele>1698</ele>
        <time>2020-08-04T05:47:40Z</time>
      </trkpt>
      <trkpt lat="44.64832" lon="6.79223">
        <ele>1699</ele>
        <time>2020-08-04T05:47:42Z</time>
      </trkpt>
      <trkpt lat="44.6483" lon="6.79221">
        <ele>1699</ele>
        <time>2020-08-04T05:47:43Z</time>
      </trkpt>
      <trkpt lat="44.64828" lon="6.79216">
        <ele>1699</ele>
        <time>2020-08-04T05:47:44Z</time>
      </trkpt>
      <trkpt lat="44.64831" lon="6.79213">
        <ele>1699</ele>
        <time>2020-08-04T05:47:45Z</time>
      </trkpt>
      <trkpt lat="44.64834" lon="6.7921">
        <ele>1699</ele>
        <time>2020-08-04T05:47:46Z</time>
      </trkpt>
      <trkpt lat="44.64836" lon="6.79207">
        <ele>1699</ele>
        <time>2020-08-04T05:47:47Z</time>
      </trkpt>
      <trkpt lat="44.64839" lon="6.79206">
        <ele>1698</ele>
        <time>2020-08-04T05:47:48Z</time>
      </trkpt>
      <trkpt lat="44.64839" lon="6.79204">
        <ele>1698</ele>
        <time>2020-08-04T05:47:49Z</time>
      </trkpt>
      <trkpt lat="44.64851" lon="6.79202">
        <ele>1697</ele>
        <time>2020-08-04T05:48:00Z</time>
      </trkpt>
      <trkpt lat="44.6485" lon="6.79202">
        <ele>1697</ele>
        <time>2020-08-04T05:48:02Z</time>
      </trkpt>
      <trkpt lat="44.64851" lon="6.79202">
        <ele>1697</ele>
        <time>2020-08-04T05:48:08Z</time>
      </trkpt>
      <trkpt lat="44.64855" lon="6.79203">
        <ele>1696</ele>
        <time>2020-08-04T05:48:15Z</time>
      </trkpt>
      <trkpt lat="44.64847" lon="6.79197">
        <ele>1697</ele>
        <time>2020-08-04T05:48:42Z</time>
      </trkpt>
      <trkpt lat="44.64842" lon="6.79193">
        <ele>1699</ele>
        <time>2020-08-04T05:48:49Z</time>
      </trkpt>
      <trkpt lat="44.64847" lon="6.79192">
        <ele>1698</ele>
        <time>2020-08-04T05:48:51Z</time>
      </trkpt>
      <trkpt lat="44.64854" lon="6.79189">
        <ele>1698</ele>
        <time>2020-08-04T05:48:53Z</time>
      </trkpt>
      <trkpt lat="44.64858" lon="6.79187">
        <ele>1698</ele>
        <time>2020-08-04T05:48:54Z</time>
      </trkpt>
      <trkpt lat="44.64862" lon="6.79184">
        <ele>1698</ele>
        <time>2020-08-04T05:48:55Z</time>
      </trkpt>
      <trkpt lat="44.64867" lon="6.79182">
        <ele>1698</ele>
        <time>2020-08-04T05:48:56Z</time>
      </trkpt>
      <trkpt lat="44.64881" lon="6.79173">
        <ele>1696</ele>
        <time>2020-08-04T05:48:59Z</time>
      </trkpt>
      <trkpt lat="44.64887" lon="6.79168">
        <ele>1696</ele>
        <time>2020-08-04T05:49:00Z</time>
      </trkpt>
      <trkpt lat="44.64892" lon="6.79164">
        <ele>1696</ele>
        <time>2020-08-04T05:49:01Z</time>
      </trkpt>
      <trkpt lat="44.64897" lon="6.79161">
        <ele>1696</ele>
        <time>2020-08-04T05:49:02Z</time>
      </trkpt>
      <trkpt lat="44.64901" lon="6.79157">
        <ele>1697</ele>
        <time>2020-08-04T05:49:03Z</time>
      </trkpt>
      <trkpt lat="44.64905" lon="6.79155">
        <ele>1697</ele>
        <time>2020-08-04T05:49:04Z</time>
      </trkpt>
      <trkpt lat="44.64908" lon="6.79153">
        <ele>1697</ele>
        <time>2020-08-04T05:49:05Z</time>
      </trkpt>
      <trkpt lat="44.64909" lon="6.79151">
        <ele>1697</ele>
        <time>2020-08-04T05:49:06Z</time>
      </trkpt>
      <trkpt lat="44.64918" lon="6.7915">
        <ele>1696</ele>
        <time>2020-08-04T05:49:07Z</time>
      </trkpt>
      <trkpt lat="44.64922" lon="6.79148">
        <ele>1696</ele>
        <time>2020-08-04T05:49:08Z</time>
      </trkpt>
      <trkpt lat="44.64927" lon="6.79146">
        <ele>1696</ele>
        <time>2020-08-04T05:49:09Z</time>
      </trkpt>
      <trkpt lat="44.64932" lon="6.79145">
        <ele>1696</ele>
        <time>2020-08-04T05:49:10Z</time>
      </trkpt>
      <trkpt lat="44.64937" lon="6.79143">
        <ele>1697</ele>
        <time>2020-08-04T05:49:11Z</time>
      </trkpt>
      <trkpt lat="44.64942" lon="6.79141">
        <ele>1697</ele>
        <time>2020-08-04T05:49:12Z</time>
      </trkpt>
      <trkpt lat="44.64947" lon="6.79137">
        <ele>1698</ele>
        <time>2020-08-04T05:49:13Z</time>
      </trkpt>
      <trkpt lat="44.64957" lon="6.79129">
        <ele>1699</ele>
        <time>2020-08-04T05:49:15Z</time>
      </trkpt>
      <trkpt lat="44.64994" lon="6.79105">
        <ele>1700</ele>
        <time>2020-08-04T05:49:24Z</time>
      </trkpt>
      <trkpt lat="44.64994" lon="6.79087">
        <ele>1705</ele>
        <time>2020-08-04T05:49:32Z</time>
      </trkpt>
      <trkpt lat="44.64992" lon="6.7908">
        <ele>1707</ele>
        <time>2020-08-04T05:49:34Z</time>
      </trkpt>
      <trkpt lat="44.64991" lon="6.79034">
        <ele>1715</ele>
        <time>2020-08-04T05:49:45Z</time>
      </trkpt>
      <trkpt lat="44.6499" lon="6.79012">
        <ele>1717</ele>
        <time>2020-08-04T05:49:50Z</time>
      </trkpt>
      <trkpt lat="44.64991" lon="6.78999">
        <ele>1718</ele>
        <time>2020-08-04T05:49:52Z</time>
      </trkpt>
      <trkpt lat="44.64992" lon="6.78993">
        <ele>1720</ele>
        <time>2020-08-04T05:49:53Z</time>
      </trkpt>
      <trkpt lat="44.64994" lon="6.78989">
        <ele>1720</ele>
        <time>2020-08-04T05:49:54Z</time>
      </trkpt>
      <trkpt lat="44.64998" lon="6.78986">
        <ele>1720</ele>
        <time>2020-08-04T05:49:55Z</time>
      </trkpt>
      <trkpt lat="44.65013" lon="6.78987">
        <ele>1714</ele>
        <time>2020-08-04T05:49:56Z</time>
      </trkpt>
      <trkpt lat="44.65021" lon="6.78989">
        <ele>1710</ele>
        <time>2020-08-04T05:49:57Z</time>
      </trkpt>
      <trkpt lat="44.65029" lon="6.78994">
        <ele>1707</ele>
        <time>2020-08-04T05:49:58Z</time>
      </trkpt>
      <trkpt lat="44.65034" lon="6.78999">
        <ele>1704</ele>
        <time>2020-08-04T05:49:59Z</time>
      </trkpt>
      <trkpt lat="44.65039" lon="6.79004">
        <ele>1702</ele>
        <time>2020-08-04T05:50:00Z</time>
      </trkpt>
      <trkpt lat="44.65044" lon="6.79008">
        <ele>1700</ele>
        <time>2020-08-04T05:50:01Z</time>
      </trkpt>
      <trkpt lat="44.65055" lon="6.79013">
        <ele>1695</ele>
        <time>2020-08-04T05:50:03Z</time>
      </trkpt>
      <trkpt lat="44.65063" lon="6.79014">
        <ele>1693</ele>
        <time>2020-08-04T05:50:05Z</time>
      </trkpt>
      <trkpt lat="44.65064" lon="6.7901">
        <ele>1693</ele>
        <time>2020-08-04T05:50:06Z</time>
      </trkpt>
      <trkpt lat="44.65068" lon="6.79">
        <ele>1694</ele>
        <time>2020-08-04T05:50:09Z</time>
      </trkpt>
      <trkpt lat="44.65065" lon="6.78997">
        <ele>1695</ele>
        <time>2020-08-04T05:50:10Z</time>
      </trkpt>
      <trkpt lat="44.65067" lon="6.78994">
        <ele>1696</ele>
        <time>2020-08-04T05:50:11Z</time>
      </trkpt>
      <trkpt lat="44.65068" lon="6.78992">
        <ele>1696</ele>
        <time>2020-08-04T05:50:12Z</time>
      </trkpt>
      <trkpt lat="44.6507" lon="6.78989">
        <ele>1696</ele>
        <time>2020-08-04T05:50:13Z</time>
      </trkpt>
      <trkpt lat="44.65077" lon="6.78987">
        <ele>1696</ele>
        <time>2020-08-04T05:50:15Z</time>
      </trkpt>
      <trkpt lat="44.65121" lon="6.78965">
        <ele>1696</ele>
        <time>2020-08-04T05:50:28Z</time>
      </trkpt>
      <trkpt lat="44.65137" lon="6.78942">
        <ele>1698</ele>
        <time>2020-08-04T05:50:38Z</time>
      </trkpt>
      <trkpt lat="44.65143" lon="6.78928">
        <ele>1701</ele>
        <time>2020-08-04T05:50:47Z</time>
      </trkpt>
      <trkpt lat="44.65147" lon="6.78922">
        <ele>1702</ele>
        <time>2020-08-04T05:50:50Z</time>
      </trkpt>
      <trkpt lat="44.65167" lon="6.789">
        <ele>1705</ele>
        <time>2020-08-04T05:50:59Z</time>
      </trkpt>
      <trkpt lat="44.65173" lon="6.78888">
        <ele>1708</ele>
        <time>2020-08-04T05:51:02Z</time>
      </trkpt>
      <trkpt lat="44.65205" lon="6.78843">
        <ele>1711</ele>
        <time>2020-08-04T05:51:13Z</time>
      </trkpt>
      <trkpt lat="44.65217" lon="6.78833">
        <ele>1711</ele>
        <time>2020-08-04T05:51:16Z</time>
      </trkpt>
      <trkpt lat="44.65244" lon="6.78811">
        <ele>1708</ele>
        <time>2020-08-04T05:51:25Z</time>
      </trkpt>
      <trkpt lat="44.6526" lon="6.78778">
        <ele>1710</ele>
        <time>2020-08-04T05:51:38Z</time>
      </trkpt>
      <trkpt lat="44.65275" lon="6.78751">
        <ele>1714</ele>
        <time>2020-08-04T05:51:51Z</time>
      </trkpt>
      <trkpt lat="44.65283" lon="6.78738">
        <ele>1716</ele>
        <time>2020-08-04T05:51:55Z</time>
      </trkpt>
      <trkpt lat="44.65295" lon="6.78695">
        <ele>1725</ele>
        <time>2020-08-04T05:52:03Z</time>
      </trkpt>
      <trkpt lat="44.65353" lon="6.78696">
        <ele>1700</ele>
        <time>2020-08-04T05:52:09Z</time>
      </trkpt>
      <trkpt lat="44.65361" lon="6.78698">
        <ele>1698</ele>
        <time>2020-08-04T05:52:10Z</time>
      </trkpt>
      <trkpt lat="44.6537" lon="6.78698">
        <ele>1697</ele>
        <time>2020-08-04T05:52:12Z</time>
      </trkpt>
      <trkpt lat="44.65387" lon="6.78699">
        <ele>1696</ele>
        <time>2020-08-04T05:52:14Z</time>
      </trkpt>
      <trkpt lat="44.65399" lon="6.78701">
        <ele>1694</ele>
        <time>2020-08-04T05:52:16Z</time>
      </trkpt>
      <trkpt lat="44.6544" lon="6.78703">
        <ele>1686</ele>
        <time>2020-08-04T05:52:22Z</time>
      </trkpt>
      <trkpt lat="44.65468" lon="6.78706">
        <ele>1681</ele>
        <time>2020-08-04T05:52:25Z</time>
      </trkpt>
      <trkpt lat="44.6549" lon="6.78704">
        <ele>1676</ele>
        <time>2020-08-04T05:52:29Z</time>
      </trkpt>
      <trkpt lat="44.65489" lon="6.78699">
        <ele>1677</ele>
        <time>2020-08-04T05:52:30Z</time>
      </trkpt>
      <trkpt lat="44.65501" lon="6.78693">
        <ele>1675</ele>
        <time>2020-08-04T05:52:33Z</time>
      </trkpt>
      <trkpt lat="44.65532" lon="6.7868">
        <ele>1673</ele>
        <time>2020-08-04T05:52:39Z</time>
      </trkpt>
      <trkpt lat="44.65558" lon="6.78672">
        <ele>1671</ele>
        <time>2020-08-04T05:52:45Z</time>
      </trkpt>
      <trkpt lat="44.65561" lon="6.7867">
        <ele>1671</ele>
        <time>2020-08-04T05:52:46Z</time>
      </trkpt>
      <trkpt lat="44.65578" lon="6.78667">
        <ele>1670</ele>
        <time>2020-08-04T05:52:50Z</time>
      </trkpt>
      <trkpt lat="44.65584" lon="6.78663">
        <ele>1670</ele>
        <time>2020-08-04T05:52:56Z</time>
      </trkpt>
      <trkpt lat="44.65598" lon="6.78644">
        <ele>1671</ele>
        <time>2020-08-04T05:53:07Z</time>
      </trkpt>
      <trkpt lat="44.65611" lon="6.78632">
        <ele>1672</ele>
        <time>2020-08-04T05:53:13Z</time>
      </trkpt>
      <trkpt lat="44.65612" lon="6.78628">
        <ele>1672</ele>
        <time>2020-08-04T05:53:14Z</time>
      </trkpt>
      <trkpt lat="44.65617" lon="6.78624">
        <ele>1672</ele>
        <time>2020-08-04T05:53:15Z</time>
      </trkpt>
      <trkpt lat="44.65623" lon="6.7862">
        <ele>1671</ele>
        <time>2020-08-04T05:53:16Z</time>
      </trkpt>
      <trkpt lat="44.65629" lon="6.78616">
        <ele>1671</ele>
        <time>2020-08-04T05:53:17Z</time>
      </trkpt>
      <trkpt lat="44.65633" lon="6.78611">
        <ele>1671</ele>
        <time>2020-08-04T05:53:18Z</time>
      </trkpt>
      <trkpt lat="44.65638" lon="6.78607">
        <ele>1670</ele>
        <time>2020-08-04T05:53:19Z</time>
      </trkpt>
      <trkpt lat="44.65641" lon="6.78602">
        <ele>1670</ele>
        <time>2020-08-04T05:53:20Z</time>
      </trkpt>
      <trkpt lat="44.65646" lon="6.78597">
        <ele>1669</ele>
        <time>2020-08-04T05:53:21Z</time>
      </trkpt>
      <trkpt lat="44.65651" lon="6.78592">
        <ele>1669</ele>
        <time>2020-08-04T05:53:22Z</time>
      </trkpt>
      <trkpt lat="44.65656" lon="6.78588">
        <ele>1669</ele>
        <time>2020-08-04T05:53:23Z</time>
      </trkpt>
      <trkpt lat="44.6566" lon="6.78584">
        <ele>1669</ele>
        <time>2020-08-04T05:53:24Z</time>
      </trkpt>
      <trkpt lat="44.65663" lon="6.78579">
        <ele>1669</ele>
        <time>2020-08-04T05:53:25Z</time>
      </trkpt>
      <trkpt lat="44.65669" lon="6.78573">
        <ele>1669</ele>
        <time>2020-08-04T05:53:26Z</time>
      </trkpt>
      <trkpt lat="44.65676" lon="6.78568">
        <ele>1668</ele>
        <time>2020-08-04T05:53:27Z</time>
      </trkpt>
      <trkpt lat="44.65684" lon="6.78564">
        <ele>1667</ele>
        <time>2020-08-04T05:53:28Z</time>
      </trkpt>
      <trkpt lat="44.65691" lon="6.7856">
        <ele>1666</ele>
        <time>2020-08-04T05:53:29Z</time>
      </trkpt>
      <trkpt lat="44.65699" lon="6.78555">
        <ele>1666</ele>
        <time>2020-08-04T05:53:30Z</time>
      </trkpt>
      <trkpt lat="44.65705" lon="6.7855">
        <ele>1665</ele>
        <time>2020-08-04T05:53:31Z</time>
      </trkpt>
      <trkpt lat="44.65712" lon="6.78545">
        <ele>1664</ele>
        <time>2020-08-04T05:53:32Z</time>
      </trkpt>
      <trkpt lat="44.65733" lon="6.78526">
        <ele>1662</ele>
        <time>2020-08-04T05:53:36Z</time>
      </trkpt>
      <trkpt lat="44.65754" lon="6.78508">
        <ele>1659</ele>
        <time>2020-08-04T05:53:40Z</time>
      </trkpt>
      <trkpt lat="44.65763" lon="6.785">
        <ele>1659</ele>
        <time>2020-08-04T05:53:42Z</time>
      </trkpt>
      <trkpt lat="44.65767" lon="6.78495">
        <ele>1659</ele>
        <time>2020-08-04T05:53:43Z</time>
      </trkpt>
      <trkpt lat="44.65771" lon="6.78489">
        <ele>1659</ele>
        <time>2020-08-04T05:53:44Z</time>
      </trkpt>
      <trkpt lat="44.65775" lon="6.78484">
        <ele>1659</ele>
        <time>2020-08-04T05:53:45Z</time>
      </trkpt>
      <trkpt lat="44.65781" lon="6.7848">
        <ele>1658</ele>
        <time>2020-08-04T05:53:46Z</time>
      </trkpt>
      <trkpt lat="44.65785" lon="6.78476">
        <ele>1658</ele>
        <time>2020-08-04T05:53:47Z</time>
      </trkpt>
      <trkpt lat="44.65821" lon="6.78441">
        <ele>1658</ele>
        <time>2020-08-04T05:53:54Z</time>
      </trkpt>
      <trkpt lat="44.65836" lon="6.78416">
        <ele>1659</ele>
        <time>2020-08-04T05:53:58Z</time>
      </trkpt>
      <trkpt lat="44.65849" lon="6.78399">
        <ele>1658</ele>
        <time>2020-08-04T05:54:01Z</time>
      </trkpt>
      <trkpt lat="44.65853" lon="6.78393">
        <ele>1658</ele>
        <time>2020-08-04T05:54:02Z</time>
      </trkpt>
      <trkpt lat="44.65859" lon="6.78384">
        <ele>1657</ele>
        <time>2020-08-04T05:54:04Z</time>
      </trkpt>
      <trkpt lat="44.65862" lon="6.78379">
        <ele>1657</ele>
        <time>2020-08-04T05:54:05Z</time>
      </trkpt>
      <trkpt lat="44.65869" lon="6.78376">
        <ele>1656</ele>
        <time>2020-08-04T05:54:06Z</time>
      </trkpt>
      <trkpt lat="44.65871" lon="6.7837">
        <ele>1656</ele>
        <time>2020-08-04T05:54:07Z</time>
      </trkpt>
      <trkpt lat="44.65873" lon="6.78362">
        <ele>1656</ele>
        <time>2020-08-04T05:54:08Z</time>
      </trkpt>
      <trkpt lat="44.65877" lon="6.78354">
        <ele>1656</ele>
        <time>2020-08-04T05:54:09Z</time>
      </trkpt>
      <trkpt lat="44.6588" lon="6.78346">
        <ele>1656</ele>
        <time>2020-08-04T05:54:10Z</time>
      </trkpt>
      <trkpt lat="44.65884" lon="6.78338">
        <ele>1656</ele>
        <time>2020-08-04T05:54:11Z</time>
      </trkpt>
      <trkpt lat="44.65889" lon="6.78331">
        <ele>1655</ele>
        <time>2020-08-04T05:54:12Z</time>
      </trkpt>
      <trkpt lat="44.65899" lon="6.78316">
        <ele>1655</ele>
        <time>2020-08-04T05:54:14Z</time>
      </trkpt>
      <trkpt lat="44.65903" lon="6.78309">
        <ele>1655</ele>
        <time>2020-08-04T05:54:15Z</time>
      </trkpt>
      <trkpt lat="44.65908" lon="6.78302">
        <ele>1656</ele>
        <time>2020-08-04T05:54:16Z</time>
      </trkpt>
      <trkpt lat="44.65913" lon="6.78294">
        <ele>1656</ele>
        <time>2020-08-04T05:54:17Z</time>
      </trkpt>
      <trkpt lat="44.65917" lon="6.78286">
        <ele>1656</ele>
        <time>2020-08-04T05:54:18Z</time>
      </trkpt>
      <trkpt lat="44.65932" lon="6.78261">
        <ele>1657</ele>
        <time>2020-08-04T05:54:21Z</time>
      </trkpt>
      <trkpt lat="44.65937" lon="6.78255">
        <ele>1656</ele>
        <time>2020-08-04T05:54:22Z</time>
      </trkpt>
      <trkpt lat="44.65944" lon="6.7825">
        <ele>1656</ele>
        <time>2020-08-04T05:54:23Z</time>
      </trkpt>
      <trkpt lat="44.6595" lon="6.78247">
        <ele>1656</ele>
        <time>2020-08-04T05:54:24Z</time>
      </trkpt>
      <trkpt lat="44.65957" lon="6.78244">
        <ele>1656</ele>
        <time>2020-08-04T05:54:25Z</time>
      </trkpt>
      <trkpt lat="44.65981" lon="6.78234">
        <ele>1656</ele>
        <time>2020-08-04T05:54:29Z</time>
      </trkpt>
      <trkpt lat="44.65986" lon="6.78231">
        <ele>1656</ele>
        <time>2020-08-04T05:54:30Z</time>
      </trkpt>
      <trkpt lat="44.65993" lon="6.78227">
        <ele>1656</ele>
        <time>2020-08-04T05:54:31Z</time>
      </trkpt>
      <trkpt lat="44.66013" lon="6.78214">
        <ele>1655</ele>
        <time>2020-08-04T05:54:34Z</time>
      </trkpt>
      <trkpt lat="44.66017" lon="6.78207">
        <ele>1654</ele>
        <time>2020-08-04T05:54:35Z</time>
      </trkpt>
      <trkpt lat="44.66023" lon="6.782">
        <ele>1653</ele>
        <time>2020-08-04T05:54:36Z</time>
      </trkpt>
      <trkpt lat="44.66027" lon="6.78192">
        <ele>1653</ele>
        <time>2020-08-04T05:54:37Z</time>
      </trkpt>
      <trkpt lat="44.6603" lon="6.78183">
        <ele>1653</ele>
        <time>2020-08-04T05:54:38Z</time>
      </trkpt>
      <trkpt lat="44.66033" lon="6.78174">
        <ele>1653</ele>
        <time>2020-08-04T05:54:39Z</time>
      </trkpt>
      <trkpt lat="44.66035" lon="6.78165">
        <ele>1653</ele>
        <time>2020-08-04T05:54:40Z</time>
      </trkpt>
      <trkpt lat="44.66037" lon="6.78155">
        <ele>1654</ele>
        <time>2020-08-04T05:54:41Z</time>
      </trkpt>
      <trkpt lat="44.66038" lon="6.78146">
        <ele>1655</ele>
        <time>2020-08-04T05:54:42Z</time>
      </trkpt>
      <trkpt lat="44.6604" lon="6.78127">
        <ele>1658</ele>
        <time>2020-08-04T05:54:44Z</time>
      </trkpt>
      <trkpt lat="44.66045" lon="6.78114">
        <ele>1659</ele>
        <time>2020-08-04T05:54:46Z</time>
      </trkpt>
      <trkpt lat="44.6605" lon="6.78111">
        <ele>1658</ele>
        <time>2020-08-04T05:54:47Z</time>
      </trkpt>
      <trkpt lat="44.66055" lon="6.78108">
        <ele>1656</ele>
        <time>2020-08-04T05:54:48Z</time>
      </trkpt>
      <trkpt lat="44.6606" lon="6.78104">
        <ele>1655</ele>
        <time>2020-08-04T05:54:49Z</time>
      </trkpt>
      <trkpt lat="44.66065" lon="6.78101">
        <ele>1654</ele>
        <time>2020-08-04T05:54:50Z</time>
      </trkpt>
      <trkpt lat="44.66075" lon="6.78091">
        <ele>1653</ele>
        <time>2020-08-04T05:54:52Z</time>
      </trkpt>
      <trkpt lat="44.66086" lon="6.7808">
        <ele>1652</ele>
        <time>2020-08-04T05:54:54Z</time>
      </trkpt>
      <trkpt lat="44.66093" lon="6.78065">
        <ele>1652</ele>
        <time>2020-08-04T05:54:56Z</time>
      </trkpt>
      <trkpt lat="44.66096" lon="6.78057">
        <ele>1652</ele>
        <time>2020-08-04T05:54:57Z</time>
      </trkpt>
      <trkpt lat="44.66099" lon="6.7805">
        <ele>1653</ele>
        <time>2020-08-04T05:54:58Z</time>
      </trkpt>
      <trkpt lat="44.66108" lon="6.78028">
        <ele>1655</ele>
        <time>2020-08-04T05:55:01Z</time>
      </trkpt>
      <trkpt lat="44.66111" lon="6.78022">
        <ele>1655</ele>
        <time>2020-08-04T05:55:02Z</time>
      </trkpt>
      <trkpt lat="44.66115" lon="6.78016">
        <ele>1656</ele>
        <time>2020-08-04T05:55:03Z</time>
      </trkpt>
      <trkpt lat="44.66133" lon="6.77994">
        <ele>1655</ele>
        <time>2020-08-04T05:55:07Z</time>
      </trkpt>
      <trkpt lat="44.66139" lon="6.77991">
        <ele>1654</ele>
        <time>2020-08-04T05:55:08Z</time>
      </trkpt>
      <trkpt lat="44.66179" lon="6.77971">
        <ele>1647</ele>
        <time>2020-08-04T05:55:15Z</time>
      </trkpt>
      <trkpt lat="44.66184" lon="6.77966">
        <ele>1647</ele>
        <time>2020-08-04T05:55:16Z</time>
      </trkpt>
      <trkpt lat="44.66188" lon="6.77961">
        <ele>1646</ele>
        <time>2020-08-04T05:55:17Z</time>
      </trkpt>
      <trkpt lat="44.66206" lon="6.77926">
        <ele>1646</ele>
        <time>2020-08-04T05:55:25Z</time>
      </trkpt>
      <trkpt lat="44.66219" lon="6.77896">
        <ele>1647</ele>
        <time>2020-08-04T05:55:32Z</time>
      </trkpt>
      <trkpt lat="44.66221" lon="6.7789">
        <ele>1647</ele>
        <time>2020-08-04T05:55:33Z</time>
      </trkpt>
      <trkpt lat="44.66222" lon="6.77883">
        <ele>1648</ele>
        <time>2020-08-04T05:55:34Z</time>
      </trkpt>
      <trkpt lat="44.66225" lon="6.77877">
        <ele>1648</ele>
        <time>2020-08-04T05:55:35Z</time>
      </trkpt>
      <trkpt lat="44.66227" lon="6.77871">
        <ele>1648</ele>
        <time>2020-08-04T05:55:36Z</time>
      </trkpt>
      <trkpt lat="44.6623" lon="6.77865">
        <ele>1649</ele>
        <time>2020-08-04T05:55:37Z</time>
      </trkpt>
      <trkpt lat="44.66233" lon="6.77859">
        <ele>1649</ele>
        <time>2020-08-04T05:55:38Z</time>
      </trkpt>
      <trkpt lat="44.66238" lon="6.77855">
        <ele>1648</ele>
        <time>2020-08-04T05:55:39Z</time>
      </trkpt>
      <trkpt lat="44.66243" lon="6.77851">
        <ele>1647</ele>
        <time>2020-08-04T05:55:40Z</time>
      </trkpt>
      <trkpt lat="44.66249" lon="6.77848">
        <ele>1646</ele>
        <time>2020-08-04T05:55:41Z</time>
      </trkpt>
      <trkpt lat="44.66302" lon="6.77803">
        <ele>1647</ele>
        <time>2020-08-04T05:55:53Z</time>
      </trkpt>
      <trkpt lat="44.66317" lon="6.77784">
        <ele>1647</ele>
        <time>2020-08-04T05:55:57Z</time>
      </trkpt>
      <trkpt lat="44.66338" lon="6.77744">
        <ele>1646</ele>
        <time>2020-08-04T05:56:03Z</time>
      </trkpt>
      <trkpt lat="44.66341" lon="6.77738">
        <ele>1646</ele>
        <time>2020-08-04T05:56:04Z</time>
      </trkpt>
      <trkpt lat="44.66345" lon="6.77732">
        <ele>1645</ele>
        <time>2020-08-04T05:56:05Z</time>
      </trkpt>
      <trkpt lat="44.66358" lon="6.77715">
        <ele>1643</ele>
        <time>2020-08-04T05:56:08Z</time>
      </trkpt>
      <trkpt lat="44.66363" lon="6.77707">
        <ele>1642</ele>
        <time>2020-08-04T05:56:09Z</time>
      </trkpt>
      <trkpt lat="44.66366" lon="6.77698">
        <ele>1641</ele>
        <time>2020-08-04T05:56:10Z</time>
      </trkpt>
      <trkpt lat="44.66371" lon="6.77689">
        <ele>1641</ele>
        <time>2020-08-04T05:56:11Z</time>
      </trkpt>
      <trkpt lat="44.66375" lon="6.7768">
        <ele>1641</ele>
        <time>2020-08-04T05:56:12Z</time>
      </trkpt>
      <trkpt lat="44.66379" lon="6.77671">
        <ele>1640</ele>
        <time>2020-08-04T05:56:13Z</time>
      </trkpt>
      <trkpt lat="44.66391" lon="6.77648">
        <ele>1640</ele>
        <time>2020-08-04T05:56:16Z</time>
      </trkpt>
      <trkpt lat="44.66412" lon="6.77622">
        <ele>1637</ele>
        <time>2020-08-04T05:56:21Z</time>
      </trkpt>
      <trkpt lat="44.66416" lon="6.77618">
        <ele>1636</ele>
        <time>2020-08-04T05:56:22Z</time>
      </trkpt>
      <trkpt lat="44.66434" lon="6.776">
        <ele>1636</ele>
        <time>2020-08-04T05:56:27Z</time>
      </trkpt>
      <trkpt lat="44.66438" lon="6.77596">
        <ele>1635</ele>
        <time>2020-08-04T05:56:28Z</time>
      </trkpt>
      <trkpt lat="44.66458" lon="6.77567">
        <ele>1635</ele>
        <time>2020-08-04T05:56:35Z</time>
      </trkpt>
      <trkpt lat="44.66461" lon="6.77562">
        <ele>1634</ele>
        <time>2020-08-04T05:56:36Z</time>
      </trkpt>
      <trkpt lat="44.66493" lon="6.77485">
        <ele>1635</ele>
        <time>2020-08-04T05:56:51Z</time>
      </trkpt>
      <trkpt lat="44.66509" lon="6.7744">
        <ele>1633</ele>
        <time>2020-08-04T05:56:56Z</time>
      </trkpt>
      <trkpt lat="44.66518" lon="6.77411">
        <ele>1633</ele>
        <time>2020-08-04T05:56:59Z</time>
      </trkpt>
      <trkpt lat="44.66523" lon="6.77402">
        <ele>1633</ele>
        <time>2020-08-04T05:57:00Z</time>
      </trkpt>
      <trkpt lat="44.66541" lon="6.7737">
        <ele>1634</ele>
        <time>2020-08-04T05:57:04Z</time>
      </trkpt>
      <trkpt lat="44.66549" lon="6.77357">
        <ele>1633</ele>
        <time>2020-08-04T05:57:06Z</time>
      </trkpt>
      <trkpt lat="44.66552" lon="6.7735">
        <ele>1633</ele>
        <time>2020-08-04T05:57:07Z</time>
      </trkpt>
      <trkpt lat="44.66558" lon="6.77332">
        <ele>1632</ele>
        <time>2020-08-04T05:57:10Z</time>
      </trkpt>
      <trkpt lat="44.66585" lon="6.77243">
        <ele>1632</ele>
        <time>2020-08-04T05:57:21Z</time>
      </trkpt>
      <trkpt lat="44.66597" lon="6.77193">
        <ele>1634</ele>
        <time>2020-08-04T05:57:27Z</time>
      </trkpt>
      <trkpt lat="44.66598" lon="6.77187">
        <ele>1634</ele>
        <time>2020-08-04T05:57:28Z</time>
      </trkpt>
      <trkpt lat="44.66598" lon="6.77181">
        <ele>1634</ele>
        <time>2020-08-04T05:57:29Z</time>
      </trkpt>
      <trkpt lat="44.66597" lon="6.77169">
        <ele>1635</ele>
        <time>2020-08-04T05:57:31Z</time>
      </trkpt>
      <trkpt lat="44.66598" lon="6.77162">
        <ele>1635</ele>
        <time>2020-08-04T05:57:32Z</time>
      </trkpt>
      <trkpt lat="44.66599" lon="6.77155">
        <ele>1635</ele>
        <time>2020-08-04T05:57:33Z</time>
      </trkpt>
      <trkpt lat="44.66613" lon="6.77104">
        <ele>1633</ele>
        <time>2020-08-04T05:57:41Z</time>
      </trkpt>
      <trkpt lat="44.66621" lon="6.7701">
        <ele>1635</ele>
        <time>2020-08-04T05:57:55Z</time>
      </trkpt>
      <trkpt lat="44.66622" lon="6.77003">
        <ele>1634</ele>
        <time>2020-08-04T05:57:56Z</time>
      </trkpt>
      <trkpt lat="44.66628" lon="6.76985">
        <ele>1633</ele>
        <time>2020-08-04T05:57:59Z</time>
      </trkpt>
      <trkpt lat="44.66637" lon="6.76935">
        <ele>1630</ele>
        <time>2020-08-04T05:58:07Z</time>
      </trkpt>
      <trkpt lat="44.66639" lon="6.76929">
        <ele>1630</ele>
        <time>2020-08-04T05:58:08Z</time>
      </trkpt>
      <trkpt lat="44.66643" lon="6.76919">
        <ele>1630</ele>
        <time>2020-08-04T05:58:10Z</time>
      </trkpt>
      <trkpt lat="44.66645" lon="6.76908">
        <ele>1631</ele>
        <time>2020-08-04T05:58:12Z</time>
      </trkpt>
      <trkpt lat="44.66647" lon="6.76896">
        <ele>1633</ele>
        <time>2020-08-04T05:58:14Z</time>
      </trkpt>
      <trkpt lat="44.6665" lon="6.7689">
        <ele>1633</ele>
        <time>2020-08-04T05:58:15Z</time>
      </trkpt>
      <trkpt lat="44.66665" lon="6.76854">
        <ele>1631</ele>
        <time>2020-08-04T05:58:23Z</time>
      </trkpt>
      <trkpt lat="44.66666" lon="6.76846">
        <ele>1631</ele>
        <time>2020-08-04T05:58:24Z</time>
      </trkpt>
      <trkpt lat="44.66667" lon="6.76838">
        <ele>1631</ele>
        <time>2020-08-04T05:58:25Z</time>
      </trkpt>
      <trkpt lat="44.66671" lon="6.768">
        <ele>1628</ele>
        <time>2020-08-04T05:58:32Z</time>
      </trkpt>
      <trkpt lat="44.6667" lon="6.76794">
        <ele>1628</ele>
        <time>2020-08-04T05:58:33Z</time>
      </trkpt>
      <trkpt lat="44.66668" lon="6.76788">
        <ele>1627</ele>
        <time>2020-08-04T05:58:34Z</time>
      </trkpt>
      <trkpt lat="44.66664" lon="6.76773">
        <ele>1627</ele>
        <time>2020-08-04T05:58:36Z</time>
      </trkpt>
      <trkpt lat="44.66656" lon="6.76749">
        <ele>1630</ele>
        <time>2020-08-04T05:58:39Z</time>
      </trkpt>
      <trkpt lat="44.66655" lon="6.76741">
        <ele>1630</ele>
        <time>2020-08-04T05:58:40Z</time>
      </trkpt>
      <trkpt lat="44.66654" lon="6.76733">
        <ele>1630</ele>
        <time>2020-08-04T05:58:41Z</time>
      </trkpt>
      <trkpt lat="44.66655" lon="6.76725">
        <ele>1630</ele>
        <time>2020-08-04T05:58:42Z</time>
      </trkpt>
      <trkpt lat="44.66655" lon="6.76717">
        <ele>1629</ele>
        <time>2020-08-04T05:58:43Z</time>
      </trkpt>
      <trkpt lat="44.66661" lon="6.76684">
        <ele>1627</ele>
        <time>2020-08-04T05:58:48Z</time>
      </trkpt>
      <trkpt lat="44.66666" lon="6.76659">
        <ele>1625</ele>
        <time>2020-08-04T05:58:52Z</time>
      </trkpt>
      <trkpt lat="44.66666" lon="6.76652">
        <ele>1625</ele>
        <time>2020-08-04T05:58:53Z</time>
      </trkpt>
      <trkpt lat="44.66664" lon="6.76645">
        <ele>1626</ele>
        <time>2020-08-04T05:58:54Z</time>
      </trkpt>
      <trkpt lat="44.66661" lon="6.7663">
        <ele>1627</ele>
        <time>2020-08-04T05:58:56Z</time>
      </trkpt>
      <trkpt lat="44.66659" lon="6.76621">
        <ele>1628</ele>
        <time>2020-08-04T05:58:57Z</time>
      </trkpt>
      <trkpt lat="44.66659" lon="6.76614">
        <ele>1628</ele>
        <time>2020-08-04T05:58:58Z</time>
      </trkpt>
      <trkpt lat="44.6666" lon="6.76606">
        <ele>1628</ele>
        <time>2020-08-04T05:58:59Z</time>
      </trkpt>
      <trkpt lat="44.6666" lon="6.76598">
        <ele>1628</ele>
        <time>2020-08-04T05:59:00Z</time>
      </trkpt>
      <trkpt lat="44.66667" lon="6.76561">
        <ele>1624</ele>
        <time>2020-08-04T05:59:05Z</time>
      </trkpt>
      <trkpt lat="44.66667" lon="6.76553">
        <ele>1623</ele>
        <time>2020-08-04T05:59:06Z</time>
      </trkpt>
      <trkpt lat="44.66667" lon="6.76545">
        <ele>1624</ele>
        <time>2020-08-04T05:59:07Z</time>
      </trkpt>
      <trkpt lat="44.66665" lon="6.76537">
        <ele>1624</ele>
        <time>2020-08-04T05:59:08Z</time>
      </trkpt>
      <trkpt lat="44.66662" lon="6.76529">
        <ele>1625</ele>
        <time>2020-08-04T05:59:09Z</time>
      </trkpt>
      <trkpt lat="44.66659" lon="6.76522">
        <ele>1626</ele>
        <time>2020-08-04T05:59:10Z</time>
      </trkpt>
      <trkpt lat="44.66653" lon="6.76508">
        <ele>1628</ele>
        <time>2020-08-04T05:59:12Z</time>
      </trkpt>
      <trkpt lat="44.66651" lon="6.76501">
        <ele>1629</ele>
        <time>2020-08-04T05:59:13Z</time>
      </trkpt>
      <trkpt lat="44.6665" lon="6.76493">
        <ele>1629</ele>
        <time>2020-08-04T05:59:14Z</time>
      </trkpt>
      <trkpt lat="44.6665" lon="6.76484">
        <ele>1629</ele>
        <time>2020-08-04T05:59:15Z</time>
      </trkpt>
      <trkpt lat="44.6665" lon="6.76475">
        <ele>1629</ele>
        <time>2020-08-04T05:59:16Z</time>
      </trkpt>
      <trkpt lat="44.66651" lon="6.76466">
        <ele>1628</ele>
        <time>2020-08-04T05:59:17Z</time>
      </trkpt>
      <trkpt lat="44.66652" lon="6.76457">
        <ele>1627</ele>
        <time>2020-08-04T05:59:18Z</time>
      </trkpt>
      <trkpt lat="44.66656" lon="6.76449">
        <ele>1626</ele>
        <time>2020-08-04T05:59:19Z</time>
      </trkpt>
      <trkpt lat="44.6666" lon="6.76441">
        <ele>1624</ele>
        <time>2020-08-04T05:59:20Z</time>
      </trkpt>
      <trkpt lat="44.66664" lon="6.76434">
        <ele>1622</ele>
        <time>2020-08-04T05:59:21Z</time>
      </trkpt>
      <trkpt lat="44.66667" lon="6.76427">
        <ele>1620</ele>
        <time>2020-08-04T05:59:22Z</time>
      </trkpt>
      <trkpt lat="44.6667" lon="6.76419">
        <ele>1619</ele>
        <time>2020-08-04T05:59:23Z</time>
      </trkpt>
      <trkpt lat="44.66673" lon="6.76413">
        <ele>1618</ele>
        <time>2020-08-04T05:59:24Z</time>
      </trkpt>
      <trkpt lat="44.66677" lon="6.76406">
        <ele>1617</ele>
        <time>2020-08-04T05:59:25Z</time>
      </trkpt>
      <trkpt lat="44.66679" lon="6.76398">
        <ele>1617</ele>
        <time>2020-08-04T05:59:26Z</time>
      </trkpt>
      <trkpt lat="44.66682" lon="6.76391">
        <ele>1616</ele>
        <time>2020-08-04T05:59:27Z</time>
      </trkpt>
      <trkpt lat="44.66684" lon="6.76383">
        <ele>1616</ele>
        <time>2020-08-04T05:59:28Z</time>
      </trkpt>
      <trkpt lat="44.66685" lon="6.76375">
        <ele>1616</ele>
        <time>2020-08-04T05:59:29Z</time>
      </trkpt>
      <trkpt lat="44.66686" lon="6.76367">
        <ele>1617</ele>
        <time>2020-08-04T05:59:30Z</time>
      </trkpt>
      <trkpt lat="44.66687" lon="6.76359">
        <ele>1617</ele>
        <time>2020-08-04T05:59:31Z</time>
      </trkpt>
      <trkpt lat="44.66685" lon="6.76327">
        <ele>1623</ele>
        <time>2020-08-04T05:59:35Z</time>
      </trkpt>
      <trkpt lat="44.66687" lon="6.76312">
        <ele>1625</ele>
        <time>2020-08-04T05:59:37Z</time>
      </trkpt>
      <trkpt lat="44.6669" lon="6.76306">
        <ele>1625</ele>
        <time>2020-08-04T05:59:38Z</time>
      </trkpt>
      <trkpt lat="44.66694" lon="6.76299">
        <ele>1625</ele>
        <time>2020-08-04T05:59:39Z</time>
      </trkpt>
      <trkpt lat="44.66704" lon="6.76287">
        <ele>1625</ele>
        <time>2020-08-04T05:59:41Z</time>
      </trkpt>
      <trkpt lat="44.66708" lon="6.7628">
        <ele>1625</ele>
        <time>2020-08-04T05:59:42Z</time>
      </trkpt>
      <trkpt lat="44.66717" lon="6.76265">
        <ele>1625</ele>
        <time>2020-08-04T05:59:44Z</time>
      </trkpt>
      <trkpt lat="44.66729" lon="6.76242">
        <ele>1625</ele>
        <time>2020-08-04T05:59:47Z</time>
      </trkpt>
      <trkpt lat="44.66732" lon="6.76233">
        <ele>1626</ele>
        <time>2020-08-04T05:59:48Z</time>
      </trkpt>
      <trkpt lat="44.66734" lon="6.76223">
        <ele>1628</ele>
        <time>2020-08-04T05:59:49Z</time>
      </trkpt>
      <trkpt lat="44.66735" lon="6.76212">
        <ele>1628</ele>
        <time>2020-08-04T05:59:50Z</time>
      </trkpt>
      <trkpt lat="44.66736" lon="6.76202">
        <ele>1629</ele>
        <time>2020-08-04T05:59:51Z</time>
      </trkpt>
      <trkpt lat="44.66738" lon="6.76192">
        <ele>1629</ele>
        <time>2020-08-04T05:59:52Z</time>
      </trkpt>
      <trkpt lat="44.66741" lon="6.76183">
        <ele>1627</ele>
        <time>2020-08-04T05:59:53Z</time>
      </trkpt>
      <trkpt lat="44.66743" lon="6.76173">
        <ele>1627</ele>
        <time>2020-08-04T05:59:54Z</time>
      </trkpt>
      <trkpt lat="44.66747" lon="6.76135">
        <ele>1625</ele>
        <time>2020-08-04T05:59:58Z</time>
      </trkpt>
      <trkpt lat="44.66752" lon="6.76128">
        <ele>1622</ele>
        <time>2020-08-04T05:59:59Z</time>
      </trkpt>
      <trkpt lat="44.66759" lon="6.76113">
        <ele>1619</ele>
        <time>2020-08-04T06:00:01Z</time>
      </trkpt>
      <trkpt lat="44.66761" lon="6.76105">
        <ele>1618</ele>
        <time>2020-08-04T06:00:02Z</time>
      </trkpt>
      <trkpt lat="44.66762" lon="6.76096">
        <ele>1618</ele>
        <time>2020-08-04T06:00:03Z</time>
      </trkpt>
      <trkpt lat="44.66761" lon="6.76087">
        <ele>1618</ele>
        <time>2020-08-04T06:00:04Z</time>
      </trkpt>
      <trkpt lat="44.6676" lon="6.76078">
        <ele>1618</ele>
        <time>2020-08-04T06:00:05Z</time>
      </trkpt>
      <trkpt lat="44.66757" lon="6.7607">
        <ele>1618</ele>
        <time>2020-08-04T06:00:06Z</time>
      </trkpt>
      <trkpt lat="44.66755" lon="6.76062">
        <ele>1619</ele>
        <time>2020-08-04T06:00:07Z</time>
      </trkpt>
      <trkpt lat="44.66752" lon="6.76054">
        <ele>1619</ele>
        <time>2020-08-04T06:00:08Z</time>
      </trkpt>
      <trkpt lat="44.66744" lon="6.76031">
        <ele>1617</ele>
        <time>2020-08-04T06:00:11Z</time>
      </trkpt>
      <trkpt lat="44.66737" lon="6.76016">
        <ele>1618</ele>
        <time>2020-08-04T06:00:13Z</time>
      </trkpt>
      <trkpt lat="44.66733" lon="6.76009">
        <ele>1618</ele>
        <time>2020-08-04T06:00:14Z</time>
      </trkpt>
      <trkpt lat="44.66726" lon="6.75994">
        <ele>1619</ele>
        <time>2020-08-04T06:00:16Z</time>
      </trkpt>
      <trkpt lat="44.66721" lon="6.75987">
        <ele>1619</ele>
        <time>2020-08-04T06:00:17Z</time>
      </trkpt>
      <trkpt lat="44.66716" lon="6.75982">
        <ele>1621</ele>
        <time>2020-08-04T06:00:18Z</time>
      </trkpt>
      <trkpt lat="44.6671" lon="6.75977">
        <ele>1623</ele>
        <time>2020-08-04T06:00:19Z</time>
      </trkpt>
      <trkpt lat="44.66704" lon="6.75973">
        <ele>1624</ele>
        <time>2020-08-04T06:00:20Z</time>
      </trkpt>
      <trkpt lat="44.66698" lon="6.75968">
        <ele>1625</ele>
        <time>2020-08-04T06:00:21Z</time>
      </trkpt>
      <trkpt lat="44.66693" lon="6.75963">
        <ele>1627</ele>
        <time>2020-08-04T06:00:22Z</time>
      </trkpt>
      <trkpt lat="44.66689" lon="6.75957">
        <ele>1628</ele>
        <time>2020-08-04T06:00:23Z</time>
      </trkpt>
      <trkpt lat="44.66687" lon="6.7595">
        <ele>1629</ele>
        <time>2020-08-04T06:00:24Z</time>
      </trkpt>
      <trkpt lat="44.66685" lon="6.75943">
        <ele>1629</ele>
        <time>2020-08-04T06:00:25Z</time>
      </trkpt>
      <trkpt lat="44.66684" lon="6.75935">
        <ele>1629</ele>
        <time>2020-08-04T06:00:26Z</time>
      </trkpt>
      <trkpt lat="44.66685" lon="6.7592">
        <ele>1627</ele>
        <time>2020-08-04T06:00:28Z</time>
      </trkpt>
      <trkpt lat="44.66691" lon="6.75882">
        <ele>1624</ele>
        <time>2020-08-04T06:00:33Z</time>
      </trkpt>
      <trkpt lat="44.66692" lon="6.75788">
        <ele>1629</ele>
        <time>2020-08-04T06:00:46Z</time>
      </trkpt>
      <trkpt lat="44.66695" lon="6.75761">
        <ele>1627</ele>
        <time>2020-08-04T06:00:50Z</time>
      </trkpt>
      <trkpt lat="44.66694" lon="6.7572">
        <ele>1626</ele>
        <time>2020-08-04T06:00:56Z</time>
      </trkpt>
      <trkpt lat="44.66694" lon="6.75699">
        <ele>1627</ele>
        <time>2020-08-04T06:00:59Z</time>
      </trkpt>
      <trkpt lat="44.66692" lon="6.75646">
        <ele>1628</ele>
        <time>2020-08-04T06:01:06Z</time>
      </trkpt>
      <trkpt lat="44.6669" lon="6.75591">
        <ele>1625</ele>
        <time>2020-08-04T06:01:15Z</time>
      </trkpt>
      <trkpt lat="44.66695" lon="6.75549">
        <ele>1621</ele>
        <time>2020-08-04T06:01:24Z</time>
      </trkpt>
      <trkpt lat="44.6671" lon="6.75533">
        <ele>1615</ele>
        <time>2020-08-04T06:01:29Z</time>
      </trkpt>
      <trkpt lat="44.6673" lon="6.75505">
        <ele>1613</ele>
        <time>2020-08-04T06:01:33Z</time>
      </trkpt>
      <trkpt lat="44.66751" lon="6.75467">
        <ele>1617</ele>
        <time>2020-08-04T06:01:42Z</time>
      </trkpt>
      <trkpt lat="44.66757" lon="6.75439">
        <ele>1617</ele>
        <time>2020-08-04T06:01:50Z</time>
      </trkpt>
      <trkpt lat="44.66768" lon="6.75426">
        <ele>1615</ele>
        <time>2020-08-04T06:01:53Z</time>
      </trkpt>
      <trkpt lat="44.66775" lon="6.75414">
        <ele>1612</ele>
        <time>2020-08-04T06:01:55Z</time>
      </trkpt>
      <trkpt lat="44.66782" lon="6.75397">
        <ele>1611</ele>
        <time>2020-08-04T06:01:58Z</time>
      </trkpt>
      <trkpt lat="44.66799" lon="6.75369">
        <ele>1610</ele>
        <time>2020-08-04T06:02:03Z</time>
      </trkpt>
      <trkpt lat="44.66811" lon="6.75351">
        <ele>1610</ele>
        <time>2020-08-04T06:02:06Z</time>
      </trkpt>
      <trkpt lat="44.66821" lon="6.7531">
        <ele>1610</ele>
        <time>2020-08-04T06:02:14Z</time>
      </trkpt>
      <trkpt lat="44.66826" lon="6.75297">
        <ele>1608</ele>
        <time>2020-08-04T06:02:18Z</time>
      </trkpt>
      <trkpt lat="44.66821" lon="6.75284">
        <ele>1610</ele>
        <time>2020-08-04T06:02:21Z</time>
      </trkpt>
      <trkpt lat="44.66807" lon="6.75247">
        <ele>1611</ele>
        <time>2020-08-04T06:02:27Z</time>
      </trkpt>
      <trkpt lat="44.66806" lon="6.75233">
        <ele>1610</ele>
        <time>2020-08-04T06:02:29Z</time>
      </trkpt>
      <trkpt lat="44.668" lon="6.75188">
        <ele>1608</ele>
        <time>2020-08-04T06:02:38Z</time>
      </trkpt>
      <trkpt lat="44.66801" lon="6.75189">
        <ele>1608</ele>
        <time>2020-08-04T06:02:49Z</time>
      </trkpt>
      <trkpt lat="44.66801" lon="6.75185">
        <ele>1607</ele>
        <time>2020-08-04T06:02:51Z</time>
      </trkpt>
      <trkpt lat="44.66801" lon="6.7514">
        <ele>1604</ele>
        <time>2020-08-04T06:02:59Z</time>
      </trkpt>
      <trkpt lat="44.66803" lon="6.75106">
        <ele>1604</ele>
        <time>2020-08-04T06:03:04Z</time>
      </trkpt>
      <trkpt lat="44.66805" lon="6.75064">
        <ele>1604</ele>
        <time>2020-08-04T06:03:10Z</time>
      </trkpt>
      <trkpt lat="44.66812" lon="6.75044">
        <ele>1600</ele>
        <time>2020-08-04T06:03:14Z</time>
      </trkpt>
      <trkpt lat="44.66813" lon="6.75009">
        <ele>1596</ele>
        <time>2020-08-04T06:03:20Z</time>
      </trkpt>
      <trkpt lat="44.66816" lon="6.75">
        <ele>1593</ele>
        <time>2020-08-04T06:03:24Z</time>
      </trkpt>
      <trkpt lat="44.66817" lon="6.74996">
        <ele>1592</ele>
        <time>2020-08-04T06:03:26Z</time>
      </trkpt>
      <trkpt lat="44.66789" lon="6.74971">
        <ele>1592</ele>
        <time>2020-08-04T06:03:30Z</time>
      </trkpt>
      <trkpt lat="44.6677" lon="6.74945">
        <ele>1589</ele>
        <time>2020-08-04T06:03:33Z</time>
      </trkpt>
      <trkpt lat="44.66762" lon="6.7494">
        <ele>1589</ele>
        <time>2020-08-04T06:03:35Z</time>
      </trkpt>
      <trkpt lat="44.66748" lon="6.74932">
        <ele>1590</ele>
        <time>2020-08-04T06:03:38Z</time>
      </trkpt>
      <trkpt lat="44.66728" lon="6.74916">
        <ele>1592</ele>
        <time>2020-08-04T06:03:42Z</time>
      </trkpt>
      <trkpt lat="44.66722" lon="6.74912">
        <ele>1592</ele>
        <time>2020-08-04T06:03:43Z</time>
      </trkpt>
      <trkpt lat="44.66708" lon="6.749">
        <ele>1588</ele>
        <time>2020-08-04T06:03:46Z</time>
      </trkpt>
      <trkpt lat="44.66693" lon="6.74868">
        <ele>1580</ele>
        <time>2020-08-04T06:03:52Z</time>
      </trkpt>
      <trkpt lat="44.66698" lon="6.7486">
        <ele>1577</ele>
        <time>2020-08-04T06:03:54Z</time>
      </trkpt>
      <trkpt lat="44.66724" lon="6.74836">
        <ele>1566</ele>
        <time>2020-08-04T06:03:59Z</time>
      </trkpt>
      <trkpt lat="44.66737" lon="6.74811">
        <ele>1560</ele>
        <time>2020-08-04T06:04:02Z</time>
      </trkpt>
      <trkpt lat="44.66749" lon="6.74774">
        <ele>1554</ele>
        <time>2020-08-04T06:04:06Z</time>
      </trkpt>
      <trkpt lat="44.66771" lon="6.74752">
        <ele>1551</ele>
        <time>2020-08-04T06:04:10Z</time>
      </trkpt>
      <trkpt lat="44.66786" lon="6.74752">
        <ele>1550</ele>
        <time>2020-08-04T06:04:12Z</time>
      </trkpt>
      <trkpt lat="44.66794" lon="6.7475">
        <ele>1549</ele>
        <time>2020-08-04T06:04:15Z</time>
      </trkpt>
      <trkpt lat="44.66794" lon="6.74748">
        <ele>1549</ele>
        <time>2020-08-04T06:04:20Z</time>
      </trkpt>
      <trkpt lat="44.66804" lon="6.7476">
        <ele>1549</ele>
        <time>2020-08-04T06:04:41Z</time>
      </trkpt>
      <trkpt lat="44.66811" lon="6.74766">
        <ele>1549</ele>
        <time>2020-08-04T06:04:43Z</time>
      </trkpt>
      <trkpt lat="44.66825" lon="6.74774">
        <ele>1549</ele>
        <time>2020-08-04T06:04:47Z</time>
      </trkpt>
      <trkpt lat="44.66833" lon="6.74783">
        <ele>1549</ele>
        <time>2020-08-04T06:04:56Z</time>
      </trkpt>
      <trkpt lat="44.66837" lon="6.7478">
        <ele>1549</ele>
        <time>2020-08-04T06:05:01Z</time>
      </trkpt>
      <trkpt lat="44.66843" lon="6.74775">
        <ele>1550</ele>
        <time>2020-08-04T06:05:08Z</time>
      </trkpt>
      <trkpt lat="44.66845" lon="6.74755">
        <ele>1549</ele>
        <time>2020-08-04T06:05:16Z</time>
      </trkpt>
      <trkpt lat="44.66847" lon="6.74742">
        <ele>1548</ele>
        <time>2020-08-04T06:05:20Z</time>
      </trkpt>
      <trkpt lat="44.66848" lon="6.74739">
        <ele>1548</ele>
        <time>2020-08-04T06:05:21Z</time>
      </trkpt>
      <trkpt lat="44.66844" lon="6.747">
        <ele>1543</ele>
        <time>2020-08-04T06:05:35Z</time>
      </trkpt>
      <trkpt lat="44.66838" lon="6.74689">
        <ele>1542</ele>
        <time>2020-08-04T06:05:39Z</time>
      </trkpt>
      <trkpt lat="44.66831" lon="6.74637">
        <ele>1537</ele>
        <time>2020-08-04T06:05:53Z</time>
      </trkpt>
      <trkpt lat="44.66839" lon="6.74606">
        <ele>1539</ele>
        <time>2020-08-04T06:05:57Z</time>
      </trkpt>
      <trkpt lat="44.66851" lon="6.74573">
        <ele>1540</ele>
        <time>2020-08-04T06:06:05Z</time>
      </trkpt>
      <trkpt lat="44.66853" lon="6.74566">
        <ele>1541</ele>
        <time>2020-08-04T06:06:07Z</time>
      </trkpt>
      <trkpt lat="44.66859" lon="6.74555">
        <ele>1541</ele>
        <time>2020-08-04T06:06:10Z</time>
      </trkpt>
      <trkpt lat="44.6686" lon="6.7455">
        <ele>1541</ele>
        <time>2020-08-04T06:06:11Z</time>
      </trkpt>
      <trkpt lat="44.66861" lon="6.74546">
        <ele>1540</ele>
        <time>2020-08-04T06:06:12Z</time>
      </trkpt>
      <trkpt lat="44.66861" lon="6.74542">
        <ele>1540</ele>
        <time>2020-08-04T06:06:13Z</time>
      </trkpt>
      <trkpt lat="44.66862" lon="6.74538">
        <ele>1540</ele>
        <time>2020-08-04T06:06:14Z</time>
      </trkpt>
      <trkpt lat="44.66862" lon="6.74534">
        <ele>1540</ele>
        <time>2020-08-04T06:06:15Z</time>
      </trkpt>
      <trkpt lat="44.66862" lon="6.74531">
        <ele>1539</ele>
        <time>2020-08-04T06:06:16Z</time>
      </trkpt>
      <trkpt lat="44.66862" lon="6.74527">
        <ele>1539</ele>
        <time>2020-08-04T06:06:17Z</time>
      </trkpt>
      <trkpt lat="44.66862" lon="6.74523">
        <ele>1539</ele>
        <time>2020-08-04T06:06:18Z</time>
      </trkpt>
      <trkpt lat="44.66868" lon="6.74489">
        <ele>1540</ele>
        <time>2020-08-04T06:06:26Z</time>
      </trkpt>
      <trkpt lat="44.66867" lon="6.74483">
        <ele>1539</ele>
        <time>2020-08-04T06:06:27Z</time>
      </trkpt>
      <trkpt lat="44.66866" lon="6.74477">
        <ele>1539</ele>
        <time>2020-08-04T06:06:28Z</time>
      </trkpt>
      <trkpt lat="44.66863" lon="6.74469">
        <ele>1538</ele>
        <time>2020-08-04T06:06:29Z</time>
      </trkpt>
      <trkpt lat="44.66861" lon="6.74463">
        <ele>1537</ele>
        <time>2020-08-04T06:06:30Z</time>
      </trkpt>
      <trkpt lat="44.6686" lon="6.74455">
        <ele>1537</ele>
        <time>2020-08-04T06:06:31Z</time>
      </trkpt>
      <trkpt lat="44.66859" lon="6.74446">
        <ele>1537</ele>
        <time>2020-08-04T06:06:32Z</time>
      </trkpt>
      <trkpt lat="44.66858" lon="6.74425">
        <ele>1536</ele>
        <time>2020-08-04T06:06:34Z</time>
      </trkpt>
      <trkpt lat="44.66859" lon="6.74415">
        <ele>1536</ele>
        <time>2020-08-04T06:06:35Z</time>
      </trkpt>
      <trkpt lat="44.66861" lon="6.74404">
        <ele>1536</ele>
        <time>2020-08-04T06:06:36Z</time>
      </trkpt>
      <trkpt lat="44.66862" lon="6.7438">
        <ele>1535</ele>
        <time>2020-08-04T06:06:38Z</time>
      </trkpt>
      <trkpt lat="44.66857" lon="6.74334">
        <ele>1532</ele>
        <time>2020-08-04T06:06:42Z</time>
      </trkpt>
      <trkpt lat="44.66852" lon="6.74326">
        <ele>1530</ele>
        <time>2020-08-04T06:06:43Z</time>
      </trkpt>
      <trkpt lat="44.66848" lon="6.7432">
        <ele>1528</ele>
        <time>2020-08-04T06:06:44Z</time>
      </trkpt>
      <trkpt lat="44.66846" lon="6.74315">
        <ele>1527</ele>
        <time>2020-08-04T06:06:45Z</time>
      </trkpt>
      <trkpt lat="44.66845" lon="6.74312">
        <ele>1527</ele>
        <time>2020-08-04T06:06:46Z</time>
      </trkpt>
      <trkpt lat="44.66844" lon="6.74309">
        <ele>1526</ele>
        <time>2020-08-04T06:06:47Z</time>
      </trkpt>
      <trkpt lat="44.66843" lon="6.74308">
        <ele>1526</ele>
        <time>2020-08-04T06:06:48Z</time>
      </trkpt>
      <trkpt lat="44.66842" lon="6.74309">
        <ele>1526</ele>
        <time>2020-08-04T06:06:49Z</time>
      </trkpt>
      <trkpt lat="44.6684" lon="6.74308">
        <ele>1525</ele>
        <time>2020-08-04T06:06:51Z</time>
      </trkpt>
      <trkpt lat="44.66838" lon="6.74306">
        <ele>1524</ele>
        <time>2020-08-04T06:06:52Z</time>
      </trkpt>
      <trkpt lat="44.66837" lon="6.74303">
        <ele>1524</ele>
        <time>2020-08-04T06:06:53Z</time>
      </trkpt>
      <trkpt lat="44.66836" lon="6.743">
        <ele>1523</ele>
        <time>2020-08-04T06:06:54Z</time>
      </trkpt>
      <trkpt lat="44.66829" lon="6.74259">
        <ele>1521</ele>
        <time>2020-08-04T06:07:03Z</time>
      </trkpt>
      <trkpt lat="44.6683" lon="6.74251">
        <ele>1521</ele>
        <time>2020-08-04T06:07:04Z</time>
      </trkpt>
      <trkpt lat="44.6683" lon="6.74234">
        <ele>1521</ele>
        <time>2020-08-04T06:07:06Z</time>
      </trkpt>
      <trkpt lat="44.66832" lon="6.74215">
        <ele>1520</ele>
        <time>2020-08-04T06:07:08Z</time>
      </trkpt>
      <trkpt lat="44.66833" lon="6.74206">
        <ele>1519</ele>
        <time>2020-08-04T06:07:09Z</time>
      </trkpt>
      <trkpt lat="44.66836" lon="6.74198">
        <ele>1518</ele>
        <time>2020-08-04T06:07:10Z</time>
      </trkpt>
      <trkpt lat="44.66838" lon="6.74191">
        <ele>1518</ele>
        <time>2020-08-04T06:07:11Z</time>
      </trkpt>
      <trkpt lat="44.6684" lon="6.74187">
        <ele>1518</ele>
        <time>2020-08-04T06:07:12Z</time>
      </trkpt>
      <trkpt lat="44.66841" lon="6.74184">
        <ele>1517</ele>
        <time>2020-08-04T06:07:13Z</time>
      </trkpt>
      <trkpt lat="44.66842" lon="6.7418">
        <ele>1517</ele>
        <time>2020-08-04T06:07:14Z</time>
      </trkpt>
      <trkpt lat="44.66844" lon="6.74177">
        <ele>1517</ele>
        <time>2020-08-04T06:07:15Z</time>
      </trkpt>
      <trkpt lat="44.66845" lon="6.74175">
        <ele>1517</ele>
        <time>2020-08-04T06:07:16Z</time>
      </trkpt>
      <trkpt lat="44.66846" lon="6.74172">
        <ele>1516</ele>
        <time>2020-08-04T06:07:17Z</time>
      </trkpt>
      <trkpt lat="44.66845" lon="6.74167">
        <ele>1515</ele>
        <time>2020-08-04T06:07:24Z</time>
      </trkpt>
      <trkpt lat="44.66844" lon="6.74159">
        <ele>1513</ele>
        <time>2020-08-04T06:07:28Z</time>
      </trkpt>
      <trkpt lat="44.66846" lon="6.74154">
        <ele>1512</ele>
        <time>2020-08-04T06:07:30Z</time>
      </trkpt>
      <trkpt lat="44.66855" lon="6.74144">
        <ele>1513</ele>
        <time>2020-08-04T06:07:36Z</time>
      </trkpt>
      <trkpt lat="44.66857" lon="6.74144">
        <ele>1513</ele>
        <time>2020-08-04T06:07:37Z</time>
      </trkpt>
      <trkpt lat="44.66858" lon="6.74143">
        <ele>1513</ele>
        <time>2020-08-04T06:07:38Z</time>
      </trkpt>
      <trkpt lat="44.6686" lon="6.74141">
        <ele>1514</ele>
        <time>2020-08-04T06:07:39Z</time>
      </trkpt>
      <trkpt lat="44.66861" lon="6.74138">
        <ele>1513</ele>
        <time>2020-08-04T06:07:40Z</time>
      </trkpt>
      <trkpt lat="44.66863" lon="6.74136">
        <ele>1514</ele>
        <time>2020-08-04T06:07:41Z</time>
      </trkpt>
      <trkpt lat="44.66863" lon="6.74133">
        <ele>1513</ele>
        <time>2020-08-04T06:07:42Z</time>
      </trkpt>
      <trkpt lat="44.66878" lon="6.74103">
        <ele>1514</ele>
        <time>2020-08-04T06:07:52Z</time>
      </trkpt>
      <trkpt lat="44.66889" lon="6.74088">
        <ele>1516</ele>
        <time>2020-08-04T06:07:58Z</time>
      </trkpt>
      <trkpt lat="44.66894" lon="6.74073">
        <ele>1515</ele>
        <time>2020-08-04T06:08:02Z</time>
      </trkpt>
      <trkpt lat="44.66896" lon="6.7407">
        <ele>1515</ele>
        <time>2020-08-04T06:08:03Z</time>
      </trkpt>
      <trkpt lat="44.66899" lon="6.74066">
        <ele>1516</ele>
        <time>2020-08-04T06:08:04Z</time>
      </trkpt>
      <trkpt lat="44.66902" lon="6.7406">
        <ele>1515</ele>
        <time>2020-08-04T06:08:05Z</time>
      </trkpt>
      <trkpt lat="44.66903" lon="6.74052">
        <ele>1513</ele>
        <time>2020-08-04T06:08:06Z</time>
      </trkpt>
      <trkpt lat="44.66903" lon="6.74044">
        <ele>1511</ele>
        <time>2020-08-04T06:08:07Z</time>
      </trkpt>
      <trkpt lat="44.66904" lon="6.74036">
        <ele>1509</ele>
        <time>2020-08-04T06:08:08Z</time>
      </trkpt>
      <trkpt lat="44.66904" lon="6.74029">
        <ele>1507</ele>
        <time>2020-08-04T06:08:09Z</time>
      </trkpt>
      <trkpt lat="44.66904" lon="6.74003">
        <ele>1502</ele>
        <time>2020-08-04T06:08:13Z</time>
      </trkpt>
      <trkpt lat="44.66904" lon="6.73992">
        <ele>1500</ele>
        <time>2020-08-04T06:08:14Z</time>
      </trkpt>
      <trkpt lat="44.66903" lon="6.73984">
        <ele>1499</ele>
        <time>2020-08-04T06:08:15Z</time>
      </trkpt>
      <trkpt lat="44.66903" lon="6.73977">
        <ele>1498</ele>
        <time>2020-08-04T06:08:16Z</time>
      </trkpt>
      <trkpt lat="44.66904" lon="6.73975">
        <ele>1498</ele>
        <time>2020-08-04T06:08:17Z</time>
      </trkpt>
      <trkpt lat="44.66903" lon="6.73973">
        <ele>1497</ele>
        <time>2020-08-04T06:08:19Z</time>
      </trkpt>
      <trkpt lat="44.66898" lon="6.73976">
        <ele>1496</ele>
        <time>2020-08-04T06:08:21Z</time>
      </trkpt>
      <trkpt lat="44.66879" lon="6.7398">
        <ele>1494</ele>
        <time>2020-08-04T06:08:25Z</time>
      </trkpt>
      <trkpt lat="44.66846" lon="6.73983">
        <ele>1498</ele>
        <time>2020-08-04T06:08:31Z</time>
      </trkpt>
      <trkpt lat="44.66841" lon="6.73984">
        <ele>1500</ele>
        <time>2020-08-04T06:08:36Z</time>
      </trkpt>
      <trkpt lat="44.66839" lon="6.73981">
        <ele>1501</ele>
        <time>2020-08-04T06:08:38Z</time>
      </trkpt>
      <trkpt lat="44.66833" lon="6.73971">
        <ele>1505</ele>
        <time>2020-08-04T06:08:41Z</time>
      </trkpt>
      <trkpt lat="44.66837" lon="6.73958">
        <ele>1504</ele>
        <time>2020-08-04T06:08:46Z</time>
      </trkpt>
      <trkpt lat="44.66848" lon="6.73937">
        <ele>1501</ele>
        <time>2020-08-04T06:08:56Z</time>
      </trkpt>
      <trkpt lat="44.66855" lon="6.73909">
        <ele>1500</ele>
        <time>2020-08-04T06:09:04Z</time>
      </trkpt>
      <trkpt lat="44.66863" lon="6.73893">
        <ele>1497</ele>
        <time>2020-08-04T06:09:08Z</time>
      </trkpt>
      <trkpt lat="44.66867" lon="6.7386">
        <ele>1498</ele>
        <time>2020-08-04T06:09:14Z</time>
      </trkpt>
      <trkpt lat="44.66874" lon="6.73823">
        <ele>1499</ele>
        <time>2020-08-04T06:09:19Z</time>
      </trkpt>
      <trkpt lat="44.66877" lon="6.73801">
        <ele>1499</ele>
        <time>2020-08-04T06:09:22Z</time>
      </trkpt>
      <trkpt lat="44.66882" lon="6.73785">
        <ele>1498</ele>
        <time>2020-08-04T06:09:24Z</time>
      </trkpt>
      <trkpt lat="44.66886" lon="6.73761">
        <ele>1499</ele>
        <time>2020-08-04T06:09:28Z</time>
      </trkpt>
      <trkpt lat="44.66895" lon="6.73741">
        <ele>1497</ele>
        <time>2020-08-04T06:09:41Z</time>
      </trkpt>
      <trkpt lat="44.66898" lon="6.73739">
        <ele>1496</ele>
        <time>2020-08-04T06:09:43Z</time>
      </trkpt>
      <trkpt lat="44.66903" lon="6.73714">
        <ele>1494</ele>
        <time>2020-08-04T06:09:52Z</time>
      </trkpt>
      <trkpt lat="44.66899" lon="6.73697">
        <ele>1497</ele>
        <time>2020-08-04T06:10:01Z</time>
      </trkpt>
      <trkpt lat="44.669" lon="6.73685">
        <ele>1497</ele>
        <time>2020-08-04T06:10:07Z</time>
      </trkpt>
      <trkpt lat="44.66892" lon="6.73664">
        <ele>1501</ele>
        <time>2020-08-04T06:10:18Z</time>
      </trkpt>
      <trkpt lat="44.66896" lon="6.73654">
        <ele>1500</ele>
        <time>2020-08-04T06:10:23Z</time>
      </trkpt>
      <trkpt lat="44.66899" lon="6.73653">
        <ele>1499</ele>
        <time>2020-08-04T06:10:24Z</time>
      </trkpt>
      <trkpt lat="44.66907" lon="6.73643">
        <ele>1497</ele>
        <time>2020-08-04T06:10:27Z</time>
      </trkpt>
      <trkpt lat="44.66909" lon="6.73637">
        <ele>1497</ele>
        <time>2020-08-04T06:10:28Z</time>
      </trkpt>
      <trkpt lat="44.66912" lon="6.73633">
        <ele>1495</ele>
        <time>2020-08-04T06:10:29Z</time>
      </trkpt>
      <trkpt lat="44.66915" lon="6.73628">
        <ele>1494</ele>
        <time>2020-08-04T06:10:30Z</time>
      </trkpt>
      <trkpt lat="44.66917" lon="6.73623">
        <ele>1493</ele>
        <time>2020-08-04T06:10:31Z</time>
      </trkpt>
      <trkpt lat="44.66921" lon="6.73618">
        <ele>1492</ele>
        <time>2020-08-04T06:10:32Z</time>
      </trkpt>
      <trkpt lat="44.66923" lon="6.73613">
        <ele>1491</ele>
        <time>2020-08-04T06:10:33Z</time>
      </trkpt>
      <trkpt lat="44.66925" lon="6.73609">
        <ele>1490</ele>
        <time>2020-08-04T06:10:34Z</time>
      </trkpt>
      <trkpt lat="44.66927" lon="6.73604">
        <ele>1489</ele>
        <time>2020-08-04T06:10:35Z</time>
      </trkpt>
      <trkpt lat="44.66929" lon="6.73601">
        <ele>1488</ele>
        <time>2020-08-04T06:10:36Z</time>
      </trkpt>
      <trkpt lat="44.66933" lon="6.73598">
        <ele>1486</ele>
        <time>2020-08-04T06:10:37Z</time>
      </trkpt>
      <trkpt lat="44.66936" lon="6.73596">
        <ele>1485</ele>
        <time>2020-08-04T06:10:38Z</time>
      </trkpt>
      <trkpt lat="44.6694" lon="6.73593">
        <ele>1484</ele>
        <time>2020-08-04T06:10:39Z</time>
      </trkpt>
      <trkpt lat="44.66942" lon="6.7359">
        <ele>1483</ele>
        <time>2020-08-04T06:10:40Z</time>
      </trkpt>
      <trkpt lat="44.66943" lon="6.73586">
        <ele>1483</ele>
        <time>2020-08-04T06:10:41Z</time>
      </trkpt>
      <trkpt lat="44.66946" lon="6.73581">
        <ele>1482</ele>
        <time>2020-08-04T06:10:42Z</time>
      </trkpt>
      <trkpt lat="44.66948" lon="6.73575">
        <ele>1481</ele>
        <time>2020-08-04T06:10:43Z</time>
      </trkpt>
      <trkpt lat="44.66949" lon="6.73563">
        <ele>1480</ele>
        <time>2020-08-04T06:10:44Z</time>
      </trkpt>
      <trkpt lat="44.6695" lon="6.73557">
        <ele>1480</ele>
        <time>2020-08-04T06:10:45Z</time>
      </trkpt>
      <trkpt lat="44.66951" lon="6.73549">
        <ele>1479</ele>
        <time>2020-08-04T06:10:46Z</time>
      </trkpt>
      <trkpt lat="44.66953" lon="6.73525">
        <ele>1477</ele>
        <time>2020-08-04T06:10:49Z</time>
      </trkpt>
      <trkpt lat="44.66952" lon="6.73518">
        <ele>1476</ele>
        <time>2020-08-04T06:10:50Z</time>
      </trkpt>
      <trkpt lat="44.66953" lon="6.73512">
        <ele>1475</ele>
        <time>2020-08-04T06:10:51Z</time>
      </trkpt>
      <trkpt lat="44.66956" lon="6.73508">
        <ele>1474</ele>
        <time>2020-08-04T06:10:52Z</time>
      </trkpt>
      <trkpt lat="44.6696" lon="6.73503">
        <ele>1472</ele>
        <time>2020-08-04T06:10:53Z</time>
      </trkpt>
      <trkpt lat="44.66963" lon="6.73494">
        <ele>1470</ele>
        <time>2020-08-04T06:10:54Z</time>
      </trkpt>
      <trkpt lat="44.66965" lon="6.73486">
        <ele>1468</ele>
        <time>2020-08-04T06:10:55Z</time>
      </trkpt>
      <trkpt lat="44.66967" lon="6.73475">
        <ele>1465</ele>
        <time>2020-08-04T06:10:56Z</time>
      </trkpt>
      <trkpt lat="44.66969" lon="6.73465">
        <ele>1463</ele>
        <time>2020-08-04T06:10:57Z</time>
      </trkpt>
      <trkpt lat="44.66977" lon="6.73424">
        <ele>1457</ele>
        <time>2020-08-04T06:11:01Z</time>
      </trkpt>
      <trkpt lat="44.6698" lon="6.7341">
        <ele>1455</ele>
        <time>2020-08-04T06:11:03Z</time>
      </trkpt>
      <trkpt lat="44.6698" lon="6.73403">
        <ele>1454</ele>
        <time>2020-08-04T06:11:04Z</time>
      </trkpt>
      <trkpt lat="44.66979" lon="6.73397">
        <ele>1453</ele>
        <time>2020-08-04T06:11:05Z</time>
      </trkpt>
      <trkpt lat="44.66977" lon="6.7339">
        <ele>1453</ele>
        <time>2020-08-04T06:11:06Z</time>
      </trkpt>
      <trkpt lat="44.66975" lon="6.73384">
        <ele>1453</ele>
        <time>2020-08-04T06:11:07Z</time>
      </trkpt>
      <trkpt lat="44.66974" lon="6.73377">
        <ele>1452</ele>
        <time>2020-08-04T06:11:08Z</time>
      </trkpt>
      <trkpt lat="44.66973" lon="6.73369">
        <ele>1451</ele>
        <time>2020-08-04T06:11:09Z</time>
      </trkpt>
      <trkpt lat="44.66973" lon="6.73361">
        <ele>1450</ele>
        <time>2020-08-04T06:11:10Z</time>
      </trkpt>
      <trkpt lat="44.66969" lon="6.73327">
        <ele>1445</ele>
        <time>2020-08-04T06:11:15Z</time>
      </trkpt>
      <trkpt lat="44.66968" lon="6.73322">
        <ele>1445</ele>
        <time>2020-08-04T06:11:16Z</time>
      </trkpt>
      <trkpt lat="44.66967" lon="6.73318">
        <ele>1444</ele>
        <time>2020-08-04T06:11:17Z</time>
      </trkpt>
      <trkpt lat="44.66967" lon="6.73315">
        <ele>1444</ele>
        <time>2020-08-04T06:11:18Z</time>
      </trkpt>
      <trkpt lat="44.66966" lon="6.73312">
        <ele>1444</ele>
        <time>2020-08-04T06:11:19Z</time>
      </trkpt>
      <trkpt lat="44.66965" lon="6.73309">
        <ele>1443</ele>
        <time>2020-08-04T06:11:20Z</time>
      </trkpt>
      <trkpt lat="44.66965" lon="6.73307">
        <ele>1443</ele>
        <time>2020-08-04T06:11:21Z</time>
      </trkpt>
      <trkpt lat="44.66965" lon="6.73301">
        <ele>1443</ele>
        <time>2020-08-04T06:11:24Z</time>
      </trkpt>
      <trkpt lat="44.66965" lon="6.73299">
        <ele>1443</ele>
        <time>2020-08-04T06:11:25Z</time>
      </trkpt>
      <trkpt lat="44.66966" lon="6.73297">
        <ele>1442</ele>
        <time>2020-08-04T06:11:26Z</time>
      </trkpt>
      <trkpt lat="44.66976" lon="6.73282">
        <ele>1440</ele>
        <time>2020-08-04T06:11:39Z</time>
      </trkpt>
      <trkpt lat="44.66983" lon="6.73274">
        <ele>1439</ele>
        <time>2020-08-04T06:11:44Z</time>
      </trkpt>
      <trkpt lat="44.66982" lon="6.7327">
        <ele>1439</ele>
        <time>2020-08-04T06:11:45Z</time>
      </trkpt>
      <trkpt lat="44.66981" lon="6.73266">
        <ele>1439</ele>
        <time>2020-08-04T06:11:46Z</time>
      </trkpt>
      <trkpt lat="44.6698" lon="6.73263">
        <ele>1439</ele>
        <time>2020-08-04T06:11:47Z</time>
      </trkpt>
      <trkpt lat="44.66978" lon="6.73263">
        <ele>1439</ele>
        <time>2020-08-04T06:11:48Z</time>
      </trkpt>
      <trkpt lat="44.66977" lon="6.73263">
        <ele>1439</ele>
        <time>2020-08-04T06:11:52Z</time>
      </trkpt>
      <trkpt lat="44.66975" lon="6.73257">
        <ele>1439</ele>
        <time>2020-08-04T06:14:00Z</time>
      </trkpt>
      <trkpt lat="44.66968" lon="6.73257">
        <ele>1440</ele>
        <time>2020-08-04T06:14:12Z</time>
      </trkpt>
      <trkpt lat="44.66977" lon="6.73257">
        <ele>1439</ele>
        <time>2020-08-04T06:14:59Z</time>
      </trkpt>
      <trkpt lat="44.66977" lon="6.73252">
        <ele>1439</ele>
        <time>2020-08-04T06:15:02Z</time>
      </trkpt>
      <trkpt lat="44.66972" lon="6.73252">
        <ele>1439</ele>
        <time>2020-08-04T06:15:07Z</time>
      </trkpt>
      <trkpt lat="44.6696" lon="6.73256">
        <ele>1442</ele>
        <time>2020-08-04T06:15:17Z</time>
      </trkpt>
      <trkpt lat="44.66956" lon="6.73254">
        <ele>1442</ele>
        <time>2020-08-04T06:15:20Z</time>
      </trkpt>
      <trkpt lat="44.66951" lon="6.73254">
        <ele>1443</ele>
        <time>2020-08-04T06:15:23Z</time>
      </trkpt>
      <trkpt lat="44.6695" lon="6.73251">
        <ele>1444</ele>
        <time>2020-08-04T06:15:25Z</time>
      </trkpt>
      <trkpt lat="44.66939" lon="6.73212">
        <ele>1450</ele>
        <time>2020-08-04T06:15:40Z</time>
      </trkpt>
      <trkpt lat="44.66937" lon="6.73199">
        <ele>1454</ele>
        <time>2020-08-04T06:15:51Z</time>
      </trkpt>
      <trkpt lat="44.66941" lon="6.73185">
        <ele>1454</ele>
        <time>2020-08-04T06:15:58Z</time>
      </trkpt>
      <trkpt lat="44.66953" lon="6.73167">
        <ele>1454</ele>
        <time>2020-08-04T06:16:07Z</time>
      </trkpt>
      <trkpt lat="44.66956" lon="6.73142">
        <ele>1459</ele>
        <time>2020-08-04T06:16:20Z</time>
      </trkpt>
      <trkpt lat="44.6696" lon="6.73136">
        <ele>1458</ele>
        <time>2020-08-04T06:16:25Z</time>
      </trkpt>
      <trkpt lat="44.66961" lon="6.73131">
        <ele>1459</ele>
        <time>2020-08-04T06:16:28Z</time>
      </trkpt>
      <trkpt lat="44.66966" lon="6.73125">
        <ele>1458</ele>
        <time>2020-08-04T06:16:33Z</time>
      </trkpt>
      <trkpt lat="44.66968" lon="6.73119">
        <ele>1459</ele>
        <time>2020-08-04T06:16:37Z</time>
      </trkpt>
      <trkpt lat="44.6698" lon="6.73093">
        <ele>1458</ele>
        <time>2020-08-04T06:16:50Z</time>
      </trkpt>
      <trkpt lat="44.6699" lon="6.73058">
        <ele>1457</ele>
        <time>2020-08-04T06:17:00Z</time>
      </trkpt>
      <trkpt lat="44.66997" lon="6.73022">
        <ele>1460</ele>
        <time>2020-08-04T06:17:10Z</time>
      </trkpt>
      <trkpt lat="44.6701" lon="6.73003">
        <ele>1459</ele>
        <time>2020-08-04T06:17:23Z</time>
      </trkpt>
      <trkpt lat="44.67013" lon="6.72996">
        <ele>1459</ele>
        <time>2020-08-04T06:17:28Z</time>
      </trkpt>
      <trkpt lat="44.67024" lon="6.72978">
        <ele>1458</ele>
        <time>2020-08-04T06:17:36Z</time>
      </trkpt>
      <trkpt lat="44.67028" lon="6.72971">
        <ele>1457</ele>
        <time>2020-08-04T06:17:40Z</time>
      </trkpt>
      <trkpt lat="44.67037" lon="6.72944">
        <ele>1452</ele>
        <time>2020-08-04T06:17:55Z</time>
      </trkpt>
      <trkpt lat="44.67038" lon="6.72918">
        <ele>1451</ele>
        <time>2020-08-04T06:18:04Z</time>
      </trkpt>
      <trkpt lat="44.67014" lon="6.72907">
        <ele>1457</ele>
        <time>2020-08-04T06:18:15Z</time>
      </trkpt>
      <trkpt lat="44.67008" lon="6.72906">
        <ele>1460</ele>
        <time>2020-08-04T06:18:25Z</time>
      </trkpt>
      <trkpt lat="44.67002" lon="6.72905">
        <ele>1461</ele>
        <time>2020-08-04T06:18:29Z</time>
      </trkpt>
      <trkpt lat="44.66982" lon="6.72902">
        <ele>1465</ele>
        <time>2020-08-04T06:18:44Z</time>
      </trkpt>
      <trkpt lat="44.66958" lon="6.72922">
        <ele>1469</ele>
        <time>2020-08-04T06:19:49Z</time>
      </trkpt>
      <trkpt lat="44.66956" lon="6.72926">
        <ele>1470</ele>
        <time>2020-08-04T06:19:52Z</time>
      </trkpt>
      <trkpt lat="44.6695" lon="6.72927">
        <ele>1470</ele>
        <time>2020-08-04T06:19:57Z</time>
      </trkpt>
      <trkpt lat="44.66943" lon="6.72919">
        <ele>1472</ele>
        <time>2020-08-04T06:20:04Z</time>
      </trkpt>
      <trkpt lat="44.66938" lon="6.72917">
        <ele>1472</ele>
        <time>2020-08-04T06:20:08Z</time>
      </trkpt>
      <trkpt lat="44.6693" lon="6.72918">
        <ele>1474</ele>
        <time>2020-08-04T06:20:13Z</time>
      </trkpt>
      <trkpt lat="44.66909" lon="6.72912">
        <ele>1478</ele>
        <time>2020-08-04T06:20:29Z</time>
      </trkpt>
      <trkpt lat="44.66908" lon="6.72911">
        <ele>1478</ele>
        <time>2020-08-04T06:20:30Z</time>
      </trkpt>
      <trkpt lat="44.66903" lon="6.72906">
        <ele>1479</ele>
        <time>2020-08-04T06:20:34Z</time>
      </trkpt>
      <trkpt lat="44.66894" lon="6.72898">
        <ele>1481</ele>
        <time>2020-08-04T06:20:42Z</time>
      </trkpt>
      <trkpt lat="44.66865" lon="6.7289">
        <ele>1490</ele>
        <time>2020-08-04T06:20:59Z</time>
      </trkpt>
      <trkpt lat="44.66852" lon="6.72869">
        <ele>1493</ele>
        <time>2020-08-04T06:21:15Z</time>
      </trkpt>
      <trkpt lat="44.66851" lon="6.72856">
        <ele>1493</ele>
        <time>2020-08-04T06:21:22Z</time>
      </trkpt>
      <trkpt lat="44.66852" lon="6.72846">
        <ele>1493</ele>
        <time>2020-08-04T06:21:27Z</time>
      </trkpt>
      <trkpt lat="44.6685" lon="6.72812">
        <ele>1495</ele>
        <time>2020-08-04T06:21:44Z</time>
      </trkpt>
      <trkpt lat="44.66849" lon="6.72774">
        <ele>1496</ele>
        <time>2020-08-04T06:22:02Z</time>
      </trkpt>
      <trkpt lat="44.6685" lon="6.72759">
        <ele>1496</ele>
        <time>2020-08-04T06:22:08Z</time>
      </trkpt>
      <trkpt lat="44.66838" lon="6.72759">
        <ele>1502</ele>
        <time>2020-08-04T06:22:16Z</time>
      </trkpt>
      <trkpt lat="44.66838" lon="6.72761">
        <ele>1502</ele>
        <time>2020-08-04T06:22:17Z</time>
      </trkpt>
      <trkpt lat="44.66838" lon="6.72764">
        <ele>1502</ele>
        <time>2020-08-04T06:22:18Z</time>
      </trkpt>
      <trkpt lat="44.6683" lon="6.72797">
        <ele>1501</ele>
        <time>2020-08-04T06:22:35Z</time>
      </trkpt>
      <trkpt lat="44.66813" lon="6.72827">
        <ele>1505</ele>
        <time>2020-08-04T06:22:52Z</time>
      </trkpt>
      <trkpt lat="44.66809" lon="6.72838">
        <ele>1506</ele>
        <time>2020-08-04T06:22:58Z</time>
      </trkpt>
      <trkpt lat="44.66807" lon="6.72838">
        <ele>1506</ele>
        <time>2020-08-04T06:22:59Z</time>
      </trkpt>
      <trkpt lat="44.66806" lon="6.72838">
        <ele>1506</ele>
        <time>2020-08-04T06:23:00Z</time>
      </trkpt>
      <trkpt lat="44.66804" lon="6.72836">
        <ele>1508</ele>
        <time>2020-08-04T06:23:02Z</time>
      </trkpt>
      <trkpt lat="44.66803" lon="6.72834">
        <ele>1508</ele>
        <time>2020-08-04T06:23:03Z</time>
      </trkpt>
      <trkpt lat="44.66802" lon="6.72833">
        <ele>1509</ele>
        <time>2020-08-04T06:23:04Z</time>
      </trkpt>
      <trkpt lat="44.66801" lon="6.72831">
        <ele>1509</ele>
        <time>2020-08-04T06:23:05Z</time>
      </trkpt>
      <trkpt lat="44.66801" lon="6.72829">
        <ele>1509</ele>
        <time>2020-08-04T06:23:06Z</time>
      </trkpt>
      <trkpt lat="44.66801" lon="6.72827">
        <ele>1510</ele>
        <time>2020-08-04T06:23:07Z</time>
      </trkpt>
      <trkpt lat="44.66804" lon="6.72808">
        <ele>1509</ele>
        <time>2020-08-04T06:23:16Z</time>
      </trkpt>
      <trkpt lat="44.66808" lon="6.72798">
        <ele>1509</ele>
        <time>2020-08-04T06:23:22Z</time>
      </trkpt>
      <trkpt lat="44.66808" lon="6.72797">
        <ele>1509</ele>
        <time>2020-08-04T06:23:23Z</time>
      </trkpt>
      <trkpt lat="44.66809" lon="6.72795">
        <ele>1509</ele>
        <time>2020-08-04T06:23:24Z</time>
      </trkpt>
      <trkpt lat="44.66814" lon="6.72765">
        <ele>1511</ele>
        <time>2020-08-04T06:23:40Z</time>
      </trkpt>
      <trkpt lat="44.66816" lon="6.72739">
        <ele>1514</ele>
        <time>2020-08-04T06:23:54Z</time>
      </trkpt>
      <trkpt lat="44.66811" lon="6.72719">
        <ele>1519</ele>
        <time>2020-08-04T06:24:05Z</time>
      </trkpt>
      <trkpt lat="44.66811" lon="6.72717">
        <ele>1520</ele>
        <time>2020-08-04T06:24:06Z</time>
      </trkpt>
      <trkpt lat="44.66811" lon="6.72715">
        <ele>1520</ele>
        <time>2020-08-04T06:24:07Z</time>
      </trkpt>
      <trkpt lat="44.66808" lon="6.72686">
        <ele>1524</ele>
        <time>2020-08-04T06:24:22Z</time>
      </trkpt>
      <trkpt lat="44.66806" lon="6.72676">
        <ele>1526</ele>
        <time>2020-08-04T06:24:28Z</time>
      </trkpt>
      <trkpt lat="44.66806" lon="6.72674">
        <ele>1526</ele>
        <time>2020-08-04T06:24:29Z</time>
      </trkpt>
      <trkpt lat="44.66806" lon="6.72672">
        <ele>1526</ele>
        <time>2020-08-04T06:24:30Z</time>
      </trkpt>
      <trkpt lat="44.66806" lon="6.7267">
        <ele>1526</ele>
        <time>2020-08-04T06:24:31Z</time>
      </trkpt>
      <trkpt lat="44.66806" lon="6.72668">
        <ele>1526</ele>
        <time>2020-08-04T06:24:32Z</time>
      </trkpt>
      <trkpt lat="44.66806" lon="6.72667">
        <ele>1526</ele>
        <time>2020-08-04T06:24:33Z</time>
      </trkpt>
      <trkpt lat="44.66803" lon="6.72651">
        <ele>1528</ele>
        <time>2020-08-04T06:24:41Z</time>
      </trkpt>
      <trkpt lat="44.66802" lon="6.7265">
        <ele>1529</ele>
        <time>2020-08-04T06:24:42Z</time>
      </trkpt>
      <trkpt lat="44.66802" lon="6.72648">
        <ele>1529</ele>
        <time>2020-08-04T06:24:43Z</time>
      </trkpt>
      <trkpt lat="44.66802" lon="6.72645">
        <ele>1529</ele>
        <time>2020-08-04T06:24:44Z</time>
      </trkpt>
      <trkpt lat="44.66802" lon="6.72643">
        <ele>1529</ele>
        <time>2020-08-04T06:24:45Z</time>
      </trkpt>
      <trkpt lat="44.66802" lon="6.7264">
        <ele>1529</ele>
        <time>2020-08-04T06:24:46Z</time>
      </trkpt>
      <trkpt lat="44.66801" lon="6.72638">
        <ele>1529</ele>
        <time>2020-08-04T06:24:47Z</time>
      </trkpt>
      <trkpt lat="44.66801" lon="6.72636">
        <ele>1530</ele>
        <time>2020-08-04T06:24:48Z</time>
      </trkpt>
      <trkpt lat="44.66801" lon="6.72634">
        <ele>1530</ele>
        <time>2020-08-04T06:24:49Z</time>
      </trkpt>
      <trkpt lat="44.668" lon="6.72632">
        <ele>1530</ele>
        <time>2020-08-04T06:24:50Z</time>
      </trkpt>
      <trkpt lat="44.668" lon="6.7263">
        <ele>1531</ele>
        <time>2020-08-04T06:24:51Z</time>
      </trkpt>
      <trkpt lat="44.66796" lon="6.72615">
        <ele>1534</ele>
        <time>2020-08-04T06:25:00Z</time>
      </trkpt>
      <trkpt lat="44.66796" lon="6.72613">
        <ele>1534</ele>
        <time>2020-08-04T06:25:01Z</time>
      </trkpt>
      <trkpt lat="44.66795" lon="6.72612">
        <ele>1535</ele>
        <time>2020-08-04T06:25:02Z</time>
      </trkpt>
      <trkpt lat="44.66803" lon="6.72582">
        <ele>1535</ele>
        <time>2020-08-04T06:25:19Z</time>
      </trkpt>
      <trkpt lat="44.66815" lon="6.72563">
        <ele>1532</ele>
        <time>2020-08-04T06:25:33Z</time>
      </trkpt>
      <trkpt lat="44.66824" lon="6.72547">
        <ele>1531</ele>
        <time>2020-08-04T06:25:45Z</time>
      </trkpt>
      <trkpt lat="44.66825" lon="6.72541">
        <ele>1531</ele>
        <time>2020-08-04T06:25:48Z</time>
      </trkpt>
      <trkpt lat="44.66825" lon="6.72539">
        <ele>1532</ele>
        <time>2020-08-04T06:25:49Z</time>
      </trkpt>
      <trkpt lat="44.66825" lon="6.72514">
        <ele>1537</ele>
        <time>2020-08-04T06:26:04Z</time>
      </trkpt>
      <trkpt lat="44.66828" lon="6.72503">
        <ele>1537</ele>
        <time>2020-08-04T06:26:10Z</time>
      </trkpt>
      <trkpt lat="44.66828" lon="6.72502">
        <ele>1536</ele>
        <time>2020-08-04T06:26:11Z</time>
      </trkpt>
      <trkpt lat="44.66829" lon="6.725">
        <ele>1536</ele>
        <time>2020-08-04T06:26:12Z</time>
      </trkpt>
      <trkpt lat="44.6683" lon="6.72499">
        <ele>1536</ele>
        <time>2020-08-04T06:26:13Z</time>
      </trkpt>
      <trkpt lat="44.6683" lon="6.72497">
        <ele>1536</ele>
        <time>2020-08-04T06:26:14Z</time>
      </trkpt>
      <trkpt lat="44.66829" lon="6.72495">
        <ele>1537</ele>
        <time>2020-08-04T06:26:15Z</time>
      </trkpt>
      <trkpt lat="44.66829" lon="6.72493">
        <ele>1538</ele>
        <time>2020-08-04T06:26:16Z</time>
      </trkpt>
      <trkpt lat="44.66834" lon="6.7248">
        <ele>1536</ele>
        <time>2020-08-04T06:26:24Z</time>
      </trkpt>
      <trkpt lat="44.66834" lon="6.72478">
        <ele>1536</ele>
        <time>2020-08-04T06:26:25Z</time>
      </trkpt>
      <trkpt lat="44.66834" lon="6.72475">
        <ele>1536</ele>
        <time>2020-08-04T06:26:26Z</time>
      </trkpt>
      <trkpt lat="44.66835" lon="6.72473">
        <ele>1537</ele>
        <time>2020-08-04T06:26:27Z</time>
      </trkpt>
      <trkpt lat="44.66835" lon="6.72471">
        <ele>1537</ele>
        <time>2020-08-04T06:26:28Z</time>
      </trkpt>
      <trkpt lat="44.66842" lon="6.72444">
        <ele>1542</ele>
        <time>2020-08-04T06:26:45Z</time>
      </trkpt>
      <trkpt lat="44.66842" lon="6.72442">
        <ele>1542</ele>
        <time>2020-08-04T06:26:46Z</time>
      </trkpt>
      <trkpt lat="44.66841" lon="6.72439">
        <ele>1544</ele>
        <time>2020-08-04T06:26:47Z</time>
      </trkpt>
      <trkpt lat="44.66842" lon="6.7242">
        <ele>1548</ele>
        <time>2020-08-04T06:26:56Z</time>
      </trkpt>
      <trkpt lat="44.66842" lon="6.72418">
        <ele>1548</ele>
        <time>2020-08-04T06:26:57Z</time>
      </trkpt>
      <trkpt lat="44.66841" lon="6.72405">
        <ele>1553</ele>
        <time>2020-08-04T06:27:04Z</time>
      </trkpt>
      <trkpt lat="44.66842" lon="6.72403">
        <ele>1552</ele>
        <time>2020-08-04T06:27:05Z</time>
      </trkpt>
      <trkpt lat="44.66841" lon="6.72402">
        <ele>1554</ele>
        <time>2020-08-04T06:27:06Z</time>
      </trkpt>
      <trkpt lat="44.6684" lon="6.72391">
        <ele>1558</ele>
        <time>2020-08-04T06:27:12Z</time>
      </trkpt>
      <trkpt lat="44.6684" lon="6.72387">
        <ele>1559</ele>
        <time>2020-08-04T06:27:15Z</time>
      </trkpt>
      <trkpt lat="44.66841" lon="6.72386">
        <ele>1558</ele>
        <time>2020-08-04T06:27:16Z</time>
      </trkpt>
      <trkpt lat="44.66841" lon="6.72385">
        <ele>1558</ele>
        <time>2020-08-04T06:27:17Z</time>
      </trkpt>
      <trkpt lat="44.66841" lon="6.72383">
        <ele>1558</ele>
        <time>2020-08-04T06:27:18Z</time>
      </trkpt>
      <trkpt lat="44.66841" lon="6.72381">
        <ele>1559</ele>
        <time>2020-08-04T06:27:20Z</time>
      </trkpt>
      <trkpt lat="44.66837" lon="6.72359">
        <ele>1567</ele>
        <time>2020-08-04T06:27:36Z</time>
      </trkpt>
      <trkpt lat="44.66841" lon="6.72341">
        <ele>1564</ele>
        <time>2020-08-04T06:27:48Z</time>
      </trkpt>
      <trkpt lat="44.66853" lon="6.72299">
        <ele>1558</ele>
        <time>2020-08-04T06:28:05Z</time>
      </trkpt>
      <trkpt lat="44.66854" lon="6.72293">
        <ele>1558</ele>
        <time>2020-08-04T06:28:08Z</time>
      </trkpt>
      <trkpt lat="44.66853" lon="6.72291">
        <ele>1558</ele>
        <time>2020-08-04T06:28:09Z</time>
      </trkpt>
      <trkpt lat="44.66853" lon="6.72289">
        <ele>1559</ele>
        <time>2020-08-04T06:28:10Z</time>
      </trkpt>
      <trkpt lat="44.66852" lon="6.72287">
        <ele>1559</ele>
        <time>2020-08-04T06:28:11Z</time>
      </trkpt>
      <trkpt lat="44.66851" lon="6.72284">
        <ele>1560</ele>
        <time>2020-08-04T06:28:12Z</time>
      </trkpt>
      <trkpt lat="44.66851" lon="6.72282">
        <ele>1561</ele>
        <time>2020-08-04T06:28:13Z</time>
      </trkpt>
      <trkpt lat="44.66841" lon="6.72249">
        <ele>1572</ele>
        <time>2020-08-04T06:28:28Z</time>
      </trkpt>
      <trkpt lat="44.6684" lon="6.72219">
        <ele>1577</ele>
        <time>2020-08-04T06:28:43Z</time>
      </trkpt>
      <trkpt lat="44.66839" lon="6.72219">
        <ele>1578</ele>
        <time>2020-08-04T06:28:44Z</time>
      </trkpt>
      <trkpt lat="44.66837" lon="6.72219">
        <ele>1579</ele>
        <time>2020-08-04T06:28:45Z</time>
      </trkpt>
      <trkpt lat="44.66835" lon="6.72219">
        <ele>1581</ele>
        <time>2020-08-04T06:28:47Z</time>
      </trkpt>
      <trkpt lat="44.66834" lon="6.72219">
        <ele>1581</ele>
        <time>2020-08-04T06:28:48Z</time>
      </trkpt>
      <trkpt lat="44.66834" lon="6.72223">
        <ele>1581</ele>
        <time>2020-08-04T06:28:50Z</time>
      </trkpt>
      <trkpt lat="44.66833" lon="6.72253">
        <ele>1580</ele>
        <time>2020-08-04T06:29:04Z</time>
      </trkpt>
      <trkpt lat="44.66832" lon="6.72284">
        <ele>1576</ele>
        <time>2020-08-04T06:29:19Z</time>
      </trkpt>
      <trkpt lat="44.66832" lon="6.72315">
        <ele>1574</ele>
        <time>2020-08-04T06:29:34Z</time>
      </trkpt>
      <trkpt lat="44.6683" lon="6.72317">
        <ele>1575</ele>
        <time>2020-08-04T06:29:35Z</time>
      </trkpt>
      <trkpt lat="44.66829" lon="6.72319">
        <ele>1577</ele>
        <time>2020-08-04T06:29:36Z</time>
      </trkpt>
      <trkpt lat="44.66828" lon="6.72321">
        <ele>1577</ele>
        <time>2020-08-04T06:29:37Z</time>
      </trkpt>
      <trkpt lat="44.66826" lon="6.72323">
        <ele>1579</ele>
        <time>2020-08-04T06:29:38Z</time>
      </trkpt>
      <trkpt lat="44.66824" lon="6.72324">
        <ele>1581</ele>
        <time>2020-08-04T06:29:39Z</time>
      </trkpt>
      <trkpt lat="44.66822" lon="6.72324">
        <ele>1583</ele>
        <time>2020-08-04T06:29:40Z</time>
      </trkpt>
      <trkpt lat="44.6682" lon="6.72324">
        <ele>1585</ele>
        <time>2020-08-04T06:29:41Z</time>
      </trkpt>
      <trkpt lat="44.66819" lon="6.72323">
        <ele>1587</ele>
        <time>2020-08-04T06:29:42Z</time>
      </trkpt>
      <trkpt lat="44.66817" lon="6.72322">
        <ele>1589</ele>
        <time>2020-08-04T06:29:43Z</time>
      </trkpt>
      <trkpt lat="44.66816" lon="6.72321">
        <ele>1590</ele>
        <time>2020-08-04T06:29:44Z</time>
      </trkpt>
      <trkpt lat="44.66815" lon="6.72318">
        <ele>1591</ele>
        <time>2020-08-04T06:29:45Z</time>
      </trkpt>
      <trkpt lat="44.66809" lon="6.72287">
        <ele>1600</ele>
        <time>2020-08-04T06:30:02Z</time>
      </trkpt>
      <trkpt lat="44.66806" lon="6.72255">
        <ele>1604</ele>
        <time>2020-08-04T06:30:18Z</time>
      </trkpt>
      <trkpt lat="44.66811" lon="6.72222">
        <ele>1603</ele>
        <time>2020-08-04T06:30:35Z</time>
      </trkpt>
      <trkpt lat="44.66824" lon="6.72192">
        <ele>1597</ele>
        <time>2020-08-04T06:30:51Z</time>
      </trkpt>
      <trkpt lat="44.66832" lon="6.72165">
        <ele>1597</ele>
        <time>2020-08-04T06:31:07Z</time>
      </trkpt>
      <trkpt lat="44.66842" lon="6.72144">
        <ele>1596</ele>
        <time>2020-08-04T06:31:21Z</time>
      </trkpt>
      <trkpt lat="44.66848" lon="6.7212">
        <ele>1599</ele>
        <time>2020-08-04T06:31:35Z</time>
      </trkpt>
      <trkpt lat="44.66857" lon="6.72092">
        <ele>1601</ele>
        <time>2020-08-04T06:31:49Z</time>
      </trkpt>
      <trkpt lat="44.66861" lon="6.72063">
        <ele>1603</ele>
        <time>2020-08-04T06:32:02Z</time>
      </trkpt>
      <trkpt lat="44.66862" lon="6.7202">
        <ele>1603</ele>
        <time>2020-08-04T06:32:19Z</time>
      </trkpt>
      <trkpt lat="44.66843" lon="6.71985">
        <ele>1609</ele>
        <time>2020-08-04T06:32:38Z</time>
      </trkpt>
      <trkpt lat="44.66826" lon="6.71958">
        <ele>1617</ele>
        <time>2020-08-04T06:32:54Z</time>
      </trkpt>
      <trkpt lat="44.66818" lon="6.71928">
        <ele>1617</ele>
        <time>2020-08-04T06:33:08Z</time>
      </trkpt>
      <trkpt lat="44.66804" lon="6.71903">
        <ele>1616</ele>
        <time>2020-08-04T06:33:23Z</time>
      </trkpt>
      <trkpt lat="44.66781" lon="6.71888">
        <ele>1621</ele>
        <time>2020-08-04T06:33:39Z</time>
      </trkpt>
      <trkpt lat="44.6676" lon="6.71868">
        <ele>1627</ele>
        <time>2020-08-04T06:33:55Z</time>
      </trkpt>
      <trkpt lat="44.66742" lon="6.71839">
        <ele>1634</ele>
        <time>2020-08-04T06:34:10Z</time>
      </trkpt>
      <trkpt lat="44.66734" lon="6.71797">
        <ele>1638</ele>
        <time>2020-08-04T06:34:28Z</time>
      </trkpt>
      <trkpt lat="44.6673" lon="6.71765">
        <ele>1639</ele>
        <time>2020-08-04T06:34:42Z</time>
      </trkpt>
      <trkpt lat="44.66728" lon="6.71725">
        <ele>1634</ele>
        <time>2020-08-04T06:34:59Z</time>
      </trkpt>
      <trkpt lat="44.66721" lon="6.71701">
        <ele>1632</ele>
        <time>2020-08-04T06:35:12Z</time>
      </trkpt>
      <trkpt lat="44.66708" lon="6.71691">
        <ele>1634</ele>
        <time>2020-08-04T06:35:23Z</time>
      </trkpt>
      <trkpt lat="44.66706" lon="6.71691">
        <ele>1634</ele>
        <time>2020-08-04T06:35:24Z</time>
      </trkpt>
      <trkpt lat="44.66704" lon="6.7169">
        <ele>1635</ele>
        <time>2020-08-04T06:35:30Z</time>
      </trkpt>
      <trkpt lat="44.66702" lon="6.71681">
        <ele>1633</ele>
        <time>2020-08-04T06:36:59Z</time>
      </trkpt>
      <trkpt lat="44.66701" lon="6.7168">
        <ele>1632</ele>
        <time>2020-08-04T06:37:00Z</time>
      </trkpt>
      <trkpt lat="44.667" lon="6.71679">
        <ele>1632</ele>
        <time>2020-08-04T06:37:01Z</time>
      </trkpt>
      <trkpt lat="44.66696" lon="6.71678">
        <ele>1633</ele>
        <time>2020-08-04T06:37:03Z</time>
      </trkpt>
      <trkpt lat="44.66695" lon="6.71678">
        <ele>1633</ele>
        <time>2020-08-04T06:37:04Z</time>
      </trkpt>
      <trkpt lat="44.66694" lon="6.71678">
        <ele>1633</ele>
        <time>2020-08-04T06:37:05Z</time>
      </trkpt>
      <trkpt lat="44.66669" lon="6.7168">
        <ele>1646</ele>
        <time>2020-08-04T06:37:21Z</time>
      </trkpt>
      <trkpt lat="44.66644" lon="6.71677">
        <ele>1653</ele>
        <time>2020-08-04T06:37:37Z</time>
      </trkpt>
      <trkpt lat="44.66627" lon="6.71659">
        <ele>1648</ele>
        <time>2020-08-04T06:37:52Z</time>
      </trkpt>
      <trkpt lat="44.66608" lon="6.71639">
        <ele>1646</ele>
        <time>2020-08-04T06:38:09Z</time>
      </trkpt>
      <trkpt lat="44.66582" lon="6.7162">
        <ele>1655</ele>
        <time>2020-08-04T06:38:24Z</time>
      </trkpt>
      <trkpt lat="44.66561" lon="6.71576">
        <ele>1650</ele>
        <time>2020-08-04T06:38:37Z</time>
      </trkpt>
      <trkpt lat="44.66531" lon="6.71537">
        <ele>1645</ele>
        <time>2020-08-04T06:38:48Z</time>
      </trkpt>
      <trkpt lat="44.66526" lon="6.71537">
        <ele>1647</ele>
        <time>2020-08-04T06:38:49Z</time>
      </trkpt>
      <trkpt lat="44.66512" lon="6.71539">
        <ele>1651</ele>
        <time>2020-08-04T06:38:52Z</time>
      </trkpt>
      <trkpt lat="44.66507" lon="6.71538">
        <ele>1652</ele>
        <time>2020-08-04T06:38:53Z</time>
      </trkpt>
      <trkpt lat="44.66482" lon="6.71535">
        <ele>1651</ele>
        <time>2020-08-04T06:38:59Z</time>
      </trkpt>
      <trkpt lat="44.66477" lon="6.71536">
        <ele>1651</ele>
        <time>2020-08-04T06:39:00Z</time>
      </trkpt>
      <trkpt lat="44.66454" lon="6.71543">
        <ele>1651</ele>
        <time>2020-08-04T06:39:05Z</time>
      </trkpt>
      <trkpt lat="44.66406" lon="6.71561">
        <ele>1655</ele>
        <time>2020-08-04T06:39:18Z</time>
      </trkpt>
      <trkpt lat="44.66365" lon="6.71583">
        <ele>1664</ele>
        <time>2020-08-04T06:39:32Z</time>
      </trkpt>
      <trkpt lat="44.66333" lon="6.71591">
        <ele>1658</ele>
        <time>2020-08-04T06:39:44Z</time>
      </trkpt>
      <trkpt lat="44.66289" lon="6.71597">
        <ele>1652</ele>
        <time>2020-08-04T06:40:00Z</time>
      </trkpt>
      <trkpt lat="44.66253" lon="6.71612">
        <ele>1658</ele>
        <time>2020-08-04T06:40:13Z</time>
      </trkpt>
      <trkpt lat="44.66228" lon="6.71619">
        <ele>1669</ele>
        <time>2020-08-04T06:40:21Z</time>
      </trkpt>
      <trkpt lat="44.66224" lon="6.71617">
        <ele>1668</ele>
        <time>2020-08-04T06:40:22Z</time>
      </trkpt>
      <trkpt lat="44.66222" lon="6.71613">
        <ele>1668</ele>
        <time>2020-08-04T06:40:23Z</time>
      </trkpt>
      <trkpt lat="44.66221" lon="6.71608">
        <ele>1667</ele>
        <time>2020-08-04T06:40:24Z</time>
      </trkpt>
      <trkpt lat="44.66221" lon="6.71601">
        <ele>1665</ele>
        <time>2020-08-04T06:40:25Z</time>
      </trkpt>
      <trkpt lat="44.66222" lon="6.71594">
        <ele>1662</ele>
        <time>2020-08-04T06:40:26Z</time>
      </trkpt>
      <trkpt lat="44.66223" lon="6.71589">
        <ele>1660</ele>
        <time>2020-08-04T06:40:27Z</time>
      </trkpt>
      <trkpt lat="44.66223" lon="6.7158">
        <ele>1657</ele>
        <time>2020-08-04T06:40:28Z</time>
      </trkpt>
      <trkpt lat="44.66222" lon="6.71572">
        <ele>1655</ele>
        <time>2020-08-04T06:40:29Z</time>
      </trkpt>
      <trkpt lat="44.66222" lon="6.71563">
        <ele>1653</ele>
        <time>2020-08-04T06:40:30Z</time>
      </trkpt>
      <trkpt lat="44.66219" lon="6.71542">
        <ele>1651</ele>
        <time>2020-08-04T06:40:32Z</time>
      </trkpt>
      <trkpt lat="44.66219" lon="6.71522">
        <ele>1648</ele>
        <time>2020-08-04T06:40:34Z</time>
      </trkpt>
      <trkpt lat="44.66217" lon="6.71514">
        <ele>1647</ele>
        <time>2020-08-04T06:40:35Z</time>
      </trkpt>
      <trkpt lat="44.66213" lon="6.71506">
        <ele>1647</ele>
        <time>2020-08-04T06:40:36Z</time>
      </trkpt>
      <trkpt lat="44.66207" lon="6.715">
        <ele>1648</ele>
        <time>2020-08-04T06:40:37Z</time>
      </trkpt>
      <trkpt lat="44.66201" lon="6.71496">
        <ele>1649</ele>
        <time>2020-08-04T06:40:38Z</time>
      </trkpt>
      <trkpt lat="44.66194" lon="6.71491">
        <ele>1650</ele>
        <time>2020-08-04T06:40:39Z</time>
      </trkpt>
      <trkpt lat="44.66176" lon="6.71473">
        <ele>1654</ele>
        <time>2020-08-04T06:40:43Z</time>
      </trkpt>
      <trkpt lat="44.66173" lon="6.71469">
        <ele>1654</ele>
        <time>2020-08-04T06:40:44Z</time>
      </trkpt>
      <trkpt lat="44.66172" lon="6.71465">
        <ele>1655</ele>
        <time>2020-08-04T06:40:45Z</time>
      </trkpt>
      <trkpt lat="44.6617" lon="6.7146">
        <ele>1655</ele>
        <time>2020-08-04T06:40:46Z</time>
      </trkpt>
      <trkpt lat="44.66169" lon="6.71454">
        <ele>1654</ele>
        <time>2020-08-04T06:40:47Z</time>
      </trkpt>
      <trkpt lat="44.66171" lon="6.71449">
        <ele>1653</ele>
        <time>2020-08-04T06:40:48Z</time>
      </trkpt>
      <trkpt lat="44.66174" lon="6.71444">
        <ele>1650</ele>
        <time>2020-08-04T06:40:49Z</time>
      </trkpt>
      <trkpt lat="44.66178" lon="6.71438">
        <ele>1648</ele>
        <time>2020-08-04T06:40:50Z</time>
      </trkpt>
      <trkpt lat="44.66182" lon="6.71433">
        <ele>1645</ele>
        <time>2020-08-04T06:40:51Z</time>
      </trkpt>
      <trkpt lat="44.66185" lon="6.71428">
        <ele>1642</ele>
        <time>2020-08-04T06:40:52Z</time>
      </trkpt>
      <trkpt lat="44.66187" lon="6.71421">
        <ele>1641</ele>
        <time>2020-08-04T06:40:53Z</time>
      </trkpt>
      <trkpt lat="44.66189" lon="6.71414">
        <ele>1640</ele>
        <time>2020-08-04T06:40:54Z</time>
      </trkpt>
      <trkpt lat="44.66189" lon="6.71407">
        <ele>1640</ele>
        <time>2020-08-04T06:40:55Z</time>
      </trkpt>
      <trkpt lat="44.66188" lon="6.71399">
        <ele>1641</ele>
        <time>2020-08-04T06:40:56Z</time>
      </trkpt>
      <trkpt lat="44.66187" lon="6.71391">
        <ele>1642</ele>
        <time>2020-08-04T06:40:57Z</time>
      </trkpt>
      <trkpt lat="44.66186" lon="6.71381">
        <ele>1643</ele>
        <time>2020-08-04T06:40:58Z</time>
      </trkpt>
      <trkpt lat="44.66186" lon="6.71371">
        <ele>1643</ele>
        <time>2020-08-04T06:40:59Z</time>
      </trkpt>
      <trkpt lat="44.66186" lon="6.71362">
        <ele>1642</ele>
        <time>2020-08-04T06:41:00Z</time>
      </trkpt>
      <trkpt lat="44.66188" lon="6.71354">
        <ele>1642</ele>
        <time>2020-08-04T06:41:01Z</time>
      </trkpt>
      <trkpt lat="44.66189" lon="6.71346">
        <ele>1641</ele>
        <time>2020-08-04T06:41:02Z</time>
      </trkpt>
      <trkpt lat="44.66189" lon="6.71338">
        <ele>1640</ele>
        <time>2020-08-04T06:41:03Z</time>
      </trkpt>
      <trkpt lat="44.66187" lon="6.7133">
        <ele>1640</ele>
        <time>2020-08-04T06:41:04Z</time>
      </trkpt>
      <trkpt lat="44.66184" lon="6.71323">
        <ele>1641</ele>
        <time>2020-08-04T06:41:05Z</time>
      </trkpt>
      <trkpt lat="44.66181" lon="6.71314">
        <ele>1642</ele>
        <time>2020-08-04T06:41:06Z</time>
      </trkpt>
      <trkpt lat="44.66172" lon="6.71292">
        <ele>1646</ele>
        <time>2020-08-04T06:41:09Z</time>
      </trkpt>
      <trkpt lat="44.66165" lon="6.71276">
        <ele>1651</ele>
        <time>2020-08-04T06:41:13Z</time>
      </trkpt>
      <trkpt lat="44.66164" lon="6.71271">
        <ele>1652</ele>
        <time>2020-08-04T06:41:16Z</time>
      </trkpt>
      <trkpt lat="44.66162" lon="6.71265">
        <ele>1655</ele>
        <time>2020-08-04T06:41:19Z</time>
      </trkpt>
      <trkpt lat="44.66162" lon="6.71252">
        <ele>1659</ele>
        <time>2020-08-04T06:41:24Z</time>
      </trkpt>
      <trkpt lat="44.66162" lon="6.7125">
        <ele>1659</ele>
        <time>2020-08-04T06:41:25Z</time>
      </trkpt>
      <trkpt lat="44.66164" lon="6.71249">
        <ele>1659</ele>
        <time>2020-08-04T06:41:26Z</time>
      </trkpt>
      <trkpt lat="44.66165" lon="6.71249">
        <ele>1658</ele>
        <time>2020-08-04T06:41:27Z</time>
      </trkpt>
      <trkpt lat="44.66165" lon="6.71253">
        <ele>1657</ele>
        <time>2020-08-04T06:41:30Z</time>
      </trkpt>
      <trkpt lat="44.66167" lon="6.71258">
        <ele>1655</ele>
        <time>2020-08-04T06:41:33Z</time>
      </trkpt>
      <trkpt lat="44.6617" lon="6.71262">
        <ele>1652</ele>
        <time>2020-08-04T06:41:36Z</time>
      </trkpt>
      <trkpt lat="44.6617" lon="6.71263">
        <ele>1652</ele>
        <time>2020-08-04T06:41:37Z</time>
      </trkpt>
      <trkpt lat="44.6617" lon="6.71272">
        <ele>1649</ele>
        <time>2020-08-04T06:41:41Z</time>
      </trkpt>
      <trkpt lat="44.66169" lon="6.71288">
        <ele>1648</ele>
        <time>2020-08-04T06:41:50Z</time>
      </trkpt>
      <trkpt lat="44.66164" lon="6.71288">
        <ele>1650</ele>
        <time>2020-08-04T06:42:07Z</time>
      </trkpt>
      <trkpt lat="44.66167" lon="6.7129">
        <ele>1649</ele>
        <time>2020-08-04T06:42:10Z</time>
      </trkpt>
      <trkpt lat="44.66168" lon="6.71289">
        <ele>1648</ele>
        <time>2020-08-04T06:42:11Z</time>
      </trkpt>
      <trkpt lat="44.66173" lon="6.71291">
        <ele>1645</ele>
        <time>2020-08-04T06:42:13Z</time>
      </trkpt>
      <trkpt lat="44.66176" lon="6.7129">
        <ele>1644</ele>
        <time>2020-08-04T06:42:14Z</time>
      </trkpt>
      <trkpt lat="44.66183" lon="6.71286">
        <ele>1641</ele>
        <time>2020-08-04T06:42:16Z</time>
      </trkpt>
      <trkpt lat="44.66187" lon="6.71279">
        <ele>1639</ele>
        <time>2020-08-04T06:42:17Z</time>
      </trkpt>
      <trkpt lat="44.662" lon="6.71268">
        <ele>1633</ele>
        <time>2020-08-04T06:42:19Z</time>
      </trkpt>
      <trkpt lat="44.66235" lon="6.7126">
        <ele>1612</ele>
        <time>2020-08-04T06:42:24Z</time>
      </trkpt>
      <trkpt lat="44.66255" lon="6.71264">
        <ele>1604</ele>
        <time>2020-08-04T06:42:27Z</time>
      </trkpt>
      <trkpt lat="44.6626" lon="6.71269">
        <ele>1603</ele>
        <time>2020-08-04T06:42:28Z</time>
      </trkpt>
      <trkpt lat="44.66266" lon="6.71275">
        <ele>1600</ele>
        <time>2020-08-04T06:42:29Z</time>
      </trkpt>
      <trkpt lat="44.66273" lon="6.71293">
        <ele>1596</ele>
        <time>2020-08-04T06:42:31Z</time>
      </trkpt>
      <trkpt lat="44.66276" lon="6.713">
        <ele>1595</ele>
        <time>2020-08-04T06:42:32Z</time>
      </trkpt>
      <trkpt lat="44.66278" lon="6.71306">
        <ele>1593</ele>
        <time>2020-08-04T06:42:33Z</time>
      </trkpt>
      <trkpt lat="44.66281" lon="6.71308">
        <ele>1592</ele>
        <time>2020-08-04T06:42:34Z</time>
      </trkpt>
      <trkpt lat="44.66285" lon="6.7131">
        <ele>1591</ele>
        <time>2020-08-04T06:42:35Z</time>
      </trkpt>
      <trkpt lat="44.6629" lon="6.7131">
        <ele>1590</ele>
        <time>2020-08-04T06:42:36Z</time>
      </trkpt>
      <trkpt lat="44.66294" lon="6.71309">
        <ele>1589</ele>
        <time>2020-08-04T06:42:37Z</time>
      </trkpt>
      <trkpt lat="44.66299" lon="6.71305">
        <ele>1588</ele>
        <time>2020-08-04T06:42:38Z</time>
      </trkpt>
      <trkpt lat="44.66303" lon="6.71299">
        <ele>1588</ele>
        <time>2020-08-04T06:42:39Z</time>
      </trkpt>
      <trkpt lat="44.66307" lon="6.71292">
        <ele>1588</ele>
        <time>2020-08-04T06:42:40Z</time>
      </trkpt>
      <trkpt lat="44.6631" lon="6.71284">
        <ele>1587</ele>
        <time>2020-08-04T06:42:41Z</time>
      </trkpt>
      <trkpt lat="44.66313" lon="6.71275">
        <ele>1587</ele>
        <time>2020-08-04T06:42:42Z</time>
      </trkpt>
      <trkpt lat="44.66314" lon="6.71264">
        <ele>1588</ele>
        <time>2020-08-04T06:42:43Z</time>
      </trkpt>
      <trkpt lat="44.66315" lon="6.71253">
        <ele>1589</ele>
        <time>2020-08-04T06:42:44Z</time>
      </trkpt>
      <trkpt lat="44.66317" lon="6.71236">
        <ele>1591</ele>
        <time>2020-08-04T06:42:46Z</time>
      </trkpt>
      <trkpt lat="44.66316" lon="6.7123">
        <ele>1592</ele>
        <time>2020-08-04T06:42:47Z</time>
      </trkpt>
      <trkpt lat="44.66315" lon="6.71224">
        <ele>1593</ele>
        <time>2020-08-04T06:42:48Z</time>
      </trkpt>
      <trkpt lat="44.66312" lon="6.71219">
        <ele>1594</ele>
        <time>2020-08-04T06:42:49Z</time>
      </trkpt>
      <trkpt lat="44.66308" lon="6.71213">
        <ele>1596</ele>
        <time>2020-08-04T06:42:50Z</time>
      </trkpt>
      <trkpt lat="44.66305" lon="6.71207">
        <ele>1598</ele>
        <time>2020-08-04T06:42:51Z</time>
      </trkpt>
      <trkpt lat="44.66301" lon="6.712">
        <ele>1600</ele>
        <time>2020-08-04T06:42:52Z</time>
      </trkpt>
      <trkpt lat="44.663" lon="6.71192">
        <ele>1601</ele>
        <time>2020-08-04T06:42:53Z</time>
      </trkpt>
      <trkpt lat="44.66301" lon="6.71185">
        <ele>1602</ele>
        <time>2020-08-04T06:42:54Z</time>
      </trkpt>
      <trkpt lat="44.66304" lon="6.71176">
        <ele>1602</ele>
        <time>2020-08-04T06:42:55Z</time>
      </trkpt>
      <trkpt lat="44.66307" lon="6.71168">
        <ele>1601</ele>
        <time>2020-08-04T06:42:56Z</time>
      </trkpt>
      <trkpt lat="44.66312" lon="6.71161">
        <ele>1599</ele>
        <time>2020-08-04T06:42:57Z</time>
      </trkpt>
      <trkpt lat="44.66322" lon="6.71145">
        <ele>1595</ele>
        <time>2020-08-04T06:42:59Z</time>
      </trkpt>
      <trkpt lat="44.66326" lon="6.71138">
        <ele>1593</ele>
        <time>2020-08-04T06:43:00Z</time>
      </trkpt>
      <trkpt lat="44.66331" lon="6.71131">
        <ele>1591</ele>
        <time>2020-08-04T06:43:01Z</time>
      </trkpt>
      <trkpt lat="44.66336" lon="6.71125">
        <ele>1589</ele>
        <time>2020-08-04T06:43:02Z</time>
      </trkpt>
      <trkpt lat="44.66343" lon="6.71121">
        <ele>1587</ele>
        <time>2020-08-04T06:43:03Z</time>
      </trkpt>
      <trkpt lat="44.66351" lon="6.71118">
        <ele>1585</ele>
        <time>2020-08-04T06:43:04Z</time>
      </trkpt>
      <trkpt lat="44.6636" lon="6.71114">
        <ele>1582</ele>
        <time>2020-08-04T06:43:05Z</time>
      </trkpt>
      <trkpt lat="44.66368" lon="6.71109">
        <ele>1581</ele>
        <time>2020-08-04T06:43:06Z</time>
      </trkpt>
      <trkpt lat="44.66389" lon="6.71095">
        <ele>1579</ele>
        <time>2020-08-04T06:43:09Z</time>
      </trkpt>
      <trkpt lat="44.66395" lon="6.71089">
        <ele>1579</ele>
        <time>2020-08-04T06:43:10Z</time>
      </trkpt>
      <trkpt lat="44.66406" lon="6.71079">
        <ele>1578</ele>
        <time>2020-08-04T06:43:12Z</time>
      </trkpt>
      <trkpt lat="44.66413" lon="6.71077">
        <ele>1577</ele>
        <time>2020-08-04T06:43:13Z</time>
      </trkpt>
      <trkpt lat="44.66428" lon="6.71071">
        <ele>1575</ele>
        <time>2020-08-04T06:43:15Z</time>
      </trkpt>
      <trkpt lat="44.66436" lon="6.71066">
        <ele>1575</ele>
        <time>2020-08-04T06:43:16Z</time>
      </trkpt>
      <trkpt lat="44.6645" lon="6.71057">
        <ele>1576</ele>
        <time>2020-08-04T06:43:18Z</time>
      </trkpt>
      <trkpt lat="44.66457" lon="6.71053">
        <ele>1576</ele>
        <time>2020-08-04T06:43:19Z</time>
      </trkpt>
      <trkpt lat="44.66465" lon="6.71051">
        <ele>1575</ele>
        <time>2020-08-04T06:43:20Z</time>
      </trkpt>
      <trkpt lat="44.66482" lon="6.71049">
        <ele>1571</ele>
        <time>2020-08-04T06:43:22Z</time>
      </trkpt>
      <trkpt lat="44.66499" lon="6.71048">
        <ele>1567</ele>
        <time>2020-08-04T06:43:24Z</time>
      </trkpt>
      <trkpt lat="44.66507" lon="6.71049">
        <ele>1563</ele>
        <time>2020-08-04T06:43:25Z</time>
      </trkpt>
      <trkpt lat="44.66513" lon="6.71049">
        <ele>1560</ele>
        <time>2020-08-04T06:43:26Z</time>
      </trkpt>
      <trkpt lat="44.6652" lon="6.71048">
        <ele>1558</ele>
        <time>2020-08-04T06:43:27Z</time>
      </trkpt>
      <trkpt lat="44.66526" lon="6.71046">
        <ele>1556</ele>
        <time>2020-08-04T06:43:28Z</time>
      </trkpt>
      <trkpt lat="44.66543" lon="6.71041">
        <ele>1549</ele>
        <time>2020-08-04T06:43:31Z</time>
      </trkpt>
      <trkpt lat="44.66547" lon="6.71038">
        <ele>1548</ele>
        <time>2020-08-04T06:43:32Z</time>
      </trkpt>
      <trkpt lat="44.6655" lon="6.71033">
        <ele>1548</ele>
        <time>2020-08-04T06:43:33Z</time>
      </trkpt>
      <trkpt lat="44.66553" lon="6.71027">
        <ele>1549</ele>
        <time>2020-08-04T06:43:34Z</time>
      </trkpt>
      <trkpt lat="44.66555" lon="6.7102">
        <ele>1550</ele>
        <time>2020-08-04T06:43:35Z</time>
      </trkpt>
      <trkpt lat="44.66556" lon="6.71011">
        <ele>1552</ele>
        <time>2020-08-04T06:43:36Z</time>
      </trkpt>
      <trkpt lat="44.6656" lon="6.70994">
        <ele>1557</ele>
        <time>2020-08-04T06:43:38Z</time>
      </trkpt>
      <trkpt lat="44.66564" lon="6.70987">
        <ele>1558</ele>
        <time>2020-08-04T06:43:39Z</time>
      </trkpt>
      <trkpt lat="44.66568" lon="6.70981">
        <ele>1559</ele>
        <time>2020-08-04T06:43:40Z</time>
      </trkpt>
      <trkpt lat="44.66573" lon="6.70975">
        <ele>1557</ele>
        <time>2020-08-04T06:43:41Z</time>
      </trkpt>
      <trkpt lat="44.66578" lon="6.70968">
        <ele>1557</ele>
        <time>2020-08-04T06:43:42Z</time>
      </trkpt>
      <trkpt lat="44.66583" lon="6.70961">
        <ele>1557</ele>
        <time>2020-08-04T06:43:43Z</time>
      </trkpt>
      <trkpt lat="44.66588" lon="6.70954">
        <ele>1558</ele>
        <time>2020-08-04T06:43:44Z</time>
      </trkpt>
      <trkpt lat="44.66595" lon="6.70942">
        <ele>1560</ele>
        <time>2020-08-04T06:43:46Z</time>
      </trkpt>
      <trkpt lat="44.66598" lon="6.70938">
        <ele>1560</ele>
        <time>2020-08-04T06:43:47Z</time>
      </trkpt>
      <trkpt lat="44.66636" lon="6.7091">
        <ele>1552</ele>
        <time>2020-08-04T06:43:58Z</time>
      </trkpt>
      <trkpt lat="44.66673" lon="6.70876">
        <ele>1555</ele>
        <time>2020-08-04T06:44:08Z</time>
      </trkpt>
      <trkpt lat="44.66677" lon="6.70872">
        <ele>1555</ele>
        <time>2020-08-04T06:44:09Z</time>
      </trkpt>
      <trkpt lat="44.6668" lon="6.70871">
        <ele>1555</ele>
        <time>2020-08-04T06:44:10Z</time>
      </trkpt>
      <trkpt lat="44.66685" lon="6.70869">
        <ele>1554</ele>
        <time>2020-08-04T06:44:11Z</time>
      </trkpt>
      <trkpt lat="44.6669" lon="6.70868">
        <ele>1553</ele>
        <time>2020-08-04T06:44:12Z</time>
      </trkpt>
      <trkpt lat="44.66695" lon="6.70866">
        <ele>1552</ele>
        <time>2020-08-04T06:44:13Z</time>
      </trkpt>
      <trkpt lat="44.667" lon="6.70864">
        <ele>1551</ele>
        <time>2020-08-04T06:44:14Z</time>
      </trkpt>
      <trkpt lat="44.66704" lon="6.70862">
        <ele>1550</ele>
        <time>2020-08-04T06:44:15Z</time>
      </trkpt>
      <trkpt lat="44.66754" lon="6.70835">
        <ele>1551</ele>
        <time>2020-08-04T06:44:29Z</time>
      </trkpt>
      <trkpt lat="44.66758" lon="6.70835">
        <ele>1550</ele>
        <time>2020-08-04T06:44:30Z</time>
      </trkpt>
      <trkpt lat="44.66762" lon="6.70837">
        <ele>1549</ele>
        <time>2020-08-04T06:44:31Z</time>
      </trkpt>
      <trkpt lat="44.66783" lon="6.70848">
        <ele>1542</ele>
        <time>2020-08-04T06:44:36Z</time>
      </trkpt>
      <trkpt lat="44.66787" lon="6.70848">
        <ele>1541</ele>
        <time>2020-08-04T06:44:37Z</time>
      </trkpt>
      <trkpt lat="44.66791" lon="6.70848">
        <ele>1540</ele>
        <time>2020-08-04T06:44:38Z</time>
      </trkpt>
      <trkpt lat="44.66796" lon="6.70846">
        <ele>1540</ele>
        <time>2020-08-04T06:44:39Z</time>
      </trkpt>
      <trkpt lat="44.668" lon="6.70843">
        <ele>1540</ele>
        <time>2020-08-04T06:44:40Z</time>
      </trkpt>
      <trkpt lat="44.66804" lon="6.7084">
        <ele>1540</ele>
        <time>2020-08-04T06:44:41Z</time>
      </trkpt>
      <trkpt lat="44.66807" lon="6.70835">
        <ele>1541</ele>
        <time>2020-08-04T06:44:42Z</time>
      </trkpt>
      <trkpt lat="44.6681" lon="6.70828">
        <ele>1542</ele>
        <time>2020-08-04T06:44:43Z</time>
      </trkpt>
      <trkpt lat="44.66813" lon="6.70822">
        <ele>1543</ele>
        <time>2020-08-04T06:44:44Z</time>
      </trkpt>
      <trkpt lat="44.66815" lon="6.70815">
        <ele>1545</ele>
        <time>2020-08-04T06:44:45Z</time>
      </trkpt>
      <trkpt lat="44.66818" lon="6.70808">
        <ele>1546</ele>
        <time>2020-08-04T06:44:46Z</time>
      </trkpt>
      <trkpt lat="44.66822" lon="6.70803">
        <ele>1547</ele>
        <time>2020-08-04T06:44:47Z</time>
      </trkpt>
      <trkpt lat="44.66827" lon="6.70799">
        <ele>1547</ele>
        <time>2020-08-04T06:44:48Z</time>
      </trkpt>
      <trkpt lat="44.66832" lon="6.70796">
        <ele>1546</ele>
        <time>2020-08-04T06:44:49Z</time>
      </trkpt>
      <trkpt lat="44.66837" lon="6.70794">
        <ele>1545</ele>
        <time>2020-08-04T06:44:50Z</time>
      </trkpt>
      <trkpt lat="44.66842" lon="6.70792">
        <ele>1544</ele>
        <time>2020-08-04T06:44:51Z</time>
      </trkpt>
      <trkpt lat="44.66847" lon="6.70788">
        <ele>1544</ele>
        <time>2020-08-04T06:44:52Z</time>
      </trkpt>
      <trkpt lat="44.6685" lon="6.70781">
        <ele>1545</ele>
        <time>2020-08-04T06:44:53Z</time>
      </trkpt>
      <trkpt lat="44.66853" lon="6.70774">
        <ele>1546</ele>
        <time>2020-08-04T06:44:54Z</time>
      </trkpt>
      <trkpt lat="44.66855" lon="6.70767">
        <ele>1548</ele>
        <time>2020-08-04T06:44:55Z</time>
      </trkpt>
      <trkpt lat="44.66857" lon="6.7076">
        <ele>1549</ele>
        <time>2020-08-04T06:44:56Z</time>
      </trkpt>
      <trkpt lat="44.6686" lon="6.70754">
        <ele>1550</ele>
        <time>2020-08-04T06:44:57Z</time>
      </trkpt>
      <trkpt lat="44.66864" lon="6.70749">
        <ele>1550</ele>
        <time>2020-08-04T06:44:58Z</time>
      </trkpt>
      <trkpt lat="44.66869" lon="6.70746">
        <ele>1549</ele>
        <time>2020-08-04T06:44:59Z</time>
      </trkpt>
      <trkpt lat="44.66874" lon="6.70743">
        <ele>1548</ele>
        <time>2020-08-04T06:45:00Z</time>
      </trkpt>
      <trkpt lat="44.66879" lon="6.7074">
        <ele>1547</ele>
        <time>2020-08-04T06:45:01Z</time>
      </trkpt>
      <trkpt lat="44.66884" lon="6.70738">
        <ele>1545</ele>
        <time>2020-08-04T06:45:02Z</time>
      </trkpt>
      <trkpt lat="44.66893" lon="6.70733">
        <ele>1543</ele>
        <time>2020-08-04T06:45:04Z</time>
      </trkpt>
      <trkpt lat="44.66897" lon="6.70729">
        <ele>1542</ele>
        <time>2020-08-04T06:45:05Z</time>
      </trkpt>
      <trkpt lat="44.669" lon="6.70723">
        <ele>1543</ele>
        <time>2020-08-04T06:45:06Z</time>
      </trkpt>
      <trkpt lat="44.66902" lon="6.70717">
        <ele>1543</ele>
        <time>2020-08-04T06:45:07Z</time>
      </trkpt>
      <trkpt lat="44.66904" lon="6.7071">
        <ele>1544</ele>
        <time>2020-08-04T06:45:08Z</time>
      </trkpt>
      <trkpt lat="44.66906" lon="6.70703">
        <ele>1545</ele>
        <time>2020-08-04T06:45:09Z</time>
      </trkpt>
      <trkpt lat="44.66908" lon="6.70696">
        <ele>1545</ele>
        <time>2020-08-04T06:45:10Z</time>
      </trkpt>
      <trkpt lat="44.66912" lon="6.70684">
        <ele>1546</ele>
        <time>2020-08-04T06:45:12Z</time>
      </trkpt>
      <trkpt lat="44.66928" lon="6.7064">
        <ele>1550</ele>
        <time>2020-08-04T06:45:22Z</time>
      </trkpt>
      <trkpt lat="44.6694" lon="6.70615">
        <ele>1550</ele>
        <time>2020-08-04T06:45:32Z</time>
      </trkpt>
      <trkpt lat="44.66957" lon="6.70583">
        <ele>1551</ele>
        <time>2020-08-04T06:45:43Z</time>
      </trkpt>
      <trkpt lat="44.66978" lon="6.70541">
        <ele>1553</ele>
        <time>2020-08-04T06:45:56Z</time>
      </trkpt>
      <trkpt lat="44.67007" lon="6.70493">
        <ele>1548</ele>
        <time>2020-08-04T06:46:09Z</time>
      </trkpt>
      <trkpt lat="44.67017" lon="6.70447">
        <ele>1545</ele>
        <time>2020-08-04T06:46:18Z</time>
      </trkpt>
      <trkpt lat="44.67023" lon="6.70431">
        <ele>1540</ele>
        <time>2020-08-04T06:46:22Z</time>
      </trkpt>
      <trkpt lat="44.67022" lon="6.70425">
        <ele>1539</ele>
        <time>2020-08-04T06:46:23Z</time>
      </trkpt>
      <trkpt lat="44.67019" lon="6.70413">
        <ele>1539</ele>
        <time>2020-08-04T06:46:25Z</time>
      </trkpt>
      <trkpt lat="44.67017" lon="6.70407">
        <ele>1540</ele>
        <time>2020-08-04T06:46:26Z</time>
      </trkpt>
      <trkpt lat="44.67014" lon="6.704">
        <ele>1541</ele>
        <time>2020-08-04T06:46:27Z</time>
      </trkpt>
      <trkpt lat="44.6701" lon="6.70394">
        <ele>1543</ele>
        <time>2020-08-04T06:46:28Z</time>
      </trkpt>
      <trkpt lat="44.67005" lon="6.70387">
        <ele>1545</ele>
        <time>2020-08-04T06:46:29Z</time>
      </trkpt>
      <trkpt lat="44.67001" lon="6.70381">
        <ele>1548</ele>
        <time>2020-08-04T06:46:30Z</time>
      </trkpt>
      <trkpt lat="44.66996" lon="6.70373">
        <ele>1551</ele>
        <time>2020-08-04T06:46:31Z</time>
      </trkpt>
      <trkpt lat="44.66993" lon="6.70364">
        <ele>1552</ele>
        <time>2020-08-04T06:46:32Z</time>
      </trkpt>
      <trkpt lat="44.66992" lon="6.70353">
        <ele>1550</ele>
        <time>2020-08-04T06:46:33Z</time>
      </trkpt>
      <trkpt lat="44.66992" lon="6.70344">
        <ele>1549</ele>
        <time>2020-08-04T06:46:34Z</time>
      </trkpt>
      <trkpt lat="44.66991" lon="6.70336">
        <ele>1547</ele>
        <time>2020-08-04T06:46:35Z</time>
      </trkpt>
      <trkpt lat="44.66989" lon="6.70329">
        <ele>1547</ele>
        <time>2020-08-04T06:46:36Z</time>
      </trkpt>
      <trkpt lat="44.66985" lon="6.70322">
        <ele>1547</ele>
        <time>2020-08-04T06:46:37Z</time>
      </trkpt>
      <trkpt lat="44.66981" lon="6.70316">
        <ele>1548</ele>
        <time>2020-08-04T06:46:38Z</time>
      </trkpt>
      <trkpt lat="44.66975" lon="6.70311">
        <ele>1550</ele>
        <time>2020-08-04T06:46:39Z</time>
      </trkpt>
      <trkpt lat="44.66969" lon="6.70306">
        <ele>1551</ele>
        <time>2020-08-04T06:46:40Z</time>
      </trkpt>
      <trkpt lat="44.66959" lon="6.70296">
        <ele>1548</ele>
        <time>2020-08-04T06:46:42Z</time>
      </trkpt>
      <trkpt lat="44.66954" lon="6.70291">
        <ele>1547</ele>
        <time>2020-08-04T06:46:43Z</time>
      </trkpt>
      <trkpt lat="44.66949" lon="6.70286">
        <ele>1546</ele>
        <time>2020-08-04T06:46:44Z</time>
      </trkpt>
      <trkpt lat="44.66945" lon="6.70282">
        <ele>1546</ele>
        <time>2020-08-04T06:46:45Z</time>
      </trkpt>
      <trkpt lat="44.66939" lon="6.70278">
        <ele>1544</ele>
        <time>2020-08-04T06:46:46Z</time>
      </trkpt>
      <trkpt lat="44.66934" lon="6.70274">
        <ele>1542</ele>
        <time>2020-08-04T06:46:47Z</time>
      </trkpt>
      <trkpt lat="44.66923" lon="6.70267">
        <ele>1538</ele>
        <time>2020-08-04T06:46:49Z</time>
      </trkpt>
      <trkpt lat="44.66917" lon="6.70265">
        <ele>1537</ele>
        <time>2020-08-04T06:46:50Z</time>
      </trkpt>
      <trkpt lat="44.66911" lon="6.70264">
        <ele>1538</ele>
        <time>2020-08-04T06:46:51Z</time>
      </trkpt>
      <trkpt lat="44.66883" lon="6.70262">
        <ele>1543</ele>
        <time>2020-08-04T06:46:55Z</time>
      </trkpt>
      <trkpt lat="44.66877" lon="6.70261">
        <ele>1544</ele>
        <time>2020-08-04T06:46:56Z</time>
      </trkpt>
      <trkpt lat="44.66872" lon="6.70258">
        <ele>1544</ele>
        <time>2020-08-04T06:46:57Z</time>
      </trkpt>
      <trkpt lat="44.66869" lon="6.70252">
        <ele>1543</ele>
        <time>2020-08-04T06:46:58Z</time>
      </trkpt>
      <trkpt lat="44.66867" lon="6.70244">
        <ele>1541</ele>
        <time>2020-08-04T06:46:59Z</time>
      </trkpt>
      <trkpt lat="44.66867" lon="6.70233">
        <ele>1538</ele>
        <time>2020-08-04T06:47:00Z</time>
      </trkpt>
      <trkpt lat="44.66868" lon="6.70222">
        <ele>1534</ele>
        <time>2020-08-04T06:47:01Z</time>
      </trkpt>
      <trkpt lat="44.6687" lon="6.70212">
        <ele>1532</ele>
        <time>2020-08-04T06:47:02Z</time>
      </trkpt>
      <trkpt lat="44.66873" lon="6.70193">
        <ele>1527</ele>
        <time>2020-08-04T06:47:04Z</time>
      </trkpt>
      <trkpt lat="44.66873" lon="6.70174">
        <ele>1525</ele>
        <time>2020-08-04T06:47:06Z</time>
      </trkpt>
      <trkpt lat="44.66871" lon="6.70164">
        <ele>1525</ele>
        <time>2020-08-04T06:47:07Z</time>
      </trkpt>
      <trkpt lat="44.66866" lon="6.70134">
        <ele>1516</ele>
        <time>2020-08-04T06:47:10Z</time>
      </trkpt>
      <trkpt lat="44.66865" lon="6.70126">
        <ele>1513</ele>
        <time>2020-08-04T06:47:11Z</time>
      </trkpt>
      <trkpt lat="44.66863" lon="6.7012">
        <ele>1511</ele>
        <time>2020-08-04T06:47:12Z</time>
      </trkpt>
      <trkpt lat="44.6686" lon="6.70115">
        <ele>1511</ele>
        <time>2020-08-04T06:47:13Z</time>
      </trkpt>
      <trkpt lat="44.66854" lon="6.7011">
        <ele>1511</ele>
        <time>2020-08-04T06:47:14Z</time>
      </trkpt>
      <trkpt lat="44.66848" lon="6.70106">
        <ele>1513</ele>
        <time>2020-08-04T06:47:15Z</time>
      </trkpt>
      <trkpt lat="44.66842" lon="6.701">
        <ele>1514</ele>
        <time>2020-08-04T06:47:16Z</time>
      </trkpt>
      <trkpt lat="44.66824" lon="6.7008">
        <ele>1513</ele>
        <time>2020-08-04T06:47:19Z</time>
      </trkpt>
      <trkpt lat="44.66812" lon="6.70065">
        <ele>1510</ele>
        <time>2020-08-04T06:47:21Z</time>
      </trkpt>
      <trkpt lat="44.66789" lon="6.70034">
        <ele>1511</ele>
        <time>2020-08-04T06:47:25Z</time>
      </trkpt>
      <trkpt lat="44.6677" lon="6.70006">
        <ele>1510</ele>
        <time>2020-08-04T06:47:29Z</time>
      </trkpt>
      <trkpt lat="44.66746" lon="6.69962">
        <ele>1505</ele>
        <time>2020-08-04T06:47:34Z</time>
      </trkpt>
      <trkpt lat="44.66742" lon="6.69952">
        <ele>1504</ele>
        <time>2020-08-04T06:47:35Z</time>
      </trkpt>
      <trkpt lat="44.6674" lon="6.69941">
        <ele>1503</ele>
        <time>2020-08-04T06:47:36Z</time>
      </trkpt>
      <trkpt lat="44.66738" lon="6.69928">
        <ele>1502</ele>
        <time>2020-08-04T06:47:37Z</time>
      </trkpt>
      <trkpt lat="44.66734" lon="6.69866">
        <ele>1494</ele>
        <time>2020-08-04T06:47:42Z</time>
      </trkpt>
      <trkpt lat="44.6673" lon="6.69831">
        <ele>1493</ele>
        <time>2020-08-04T06:47:45Z</time>
      </trkpt>
      <trkpt lat="44.66727" lon="6.6982">
        <ele>1493</ele>
        <time>2020-08-04T06:47:46Z</time>
      </trkpt>
      <trkpt lat="44.66723" lon="6.6981">
        <ele>1495</ele>
        <time>2020-08-04T06:47:47Z</time>
      </trkpt>
      <trkpt lat="44.66718" lon="6.698">
        <ele>1496</ele>
        <time>2020-08-04T06:47:48Z</time>
      </trkpt>
      <trkpt lat="44.66716" lon="6.6979">
        <ele>1496</ele>
        <time>2020-08-04T06:47:49Z</time>
      </trkpt>
      <trkpt lat="44.66715" lon="6.69782">
        <ele>1496</ele>
        <time>2020-08-04T06:47:50Z</time>
      </trkpt>
      <trkpt lat="44.66716" lon="6.69779">
        <ele>1496</ele>
        <time>2020-08-04T06:47:51Z</time>
      </trkpt>
      <trkpt lat="44.66715" lon="6.69778">
        <ele>1496</ele>
        <time>2020-08-04T06:47:53Z</time>
      </trkpt>
      <trkpt lat="44.66716" lon="6.6978">
        <ele>1496</ele>
        <time>2020-08-04T06:47:56Z</time>
      </trkpt>
      <trkpt lat="44.6672" lon="6.69772">
        <ele>1495</ele>
        <time>2020-08-04T06:54:04Z</time>
      </trkpt>
      <trkpt lat="44.66721" lon="6.69771">
        <ele>1495</ele>
        <time>2020-08-04T06:54:05Z</time>
      </trkpt>
      <trkpt lat="44.66722" lon="6.69769">
        <ele>1495</ele>
        <time>2020-08-04T06:54:06Z</time>
      </trkpt>
      <trkpt lat="44.66722" lon="6.69767">
        <ele>1494</ele>
        <time>2020-08-04T06:54:07Z</time>
      </trkpt>
      <trkpt lat="44.6673" lon="6.69739">
        <ele>1493</ele>
        <time>2020-08-04T06:54:22Z</time>
      </trkpt>
      <trkpt lat="44.66723" lon="6.69705">
        <ele>1496</ele>
        <time>2020-08-04T06:54:37Z</time>
      </trkpt>
      <trkpt lat="44.66722" lon="6.69667">
        <ele>1497</ele>
        <time>2020-08-04T06:54:52Z</time>
      </trkpt>
      <trkpt lat="44.6672" lon="6.69635">
        <ele>1495</ele>
        <time>2020-08-04T06:55:06Z</time>
      </trkpt>
      <trkpt lat="44.66699" lon="6.69619">
        <ele>1500</ele>
        <time>2020-08-04T06:55:23Z</time>
      </trkpt>
      <trkpt lat="44.66674" lon="6.69612">
        <ele>1507</ele>
        <time>2020-08-04T06:55:39Z</time>
      </trkpt>
      <trkpt lat="44.66643" lon="6.69615">
        <ele>1514</ele>
        <time>2020-08-04T06:55:57Z</time>
      </trkpt>
      <trkpt lat="44.66619" lon="6.69603">
        <ele>1522</ele>
        <time>2020-08-04T06:56:11Z</time>
      </trkpt>
      <trkpt lat="44.66604" lon="6.69566">
        <ele>1525</ele>
        <time>2020-08-04T06:56:26Z</time>
      </trkpt>
      <trkpt lat="44.66588" lon="6.69544">
        <ele>1534</ele>
        <time>2020-08-04T06:56:39Z</time>
      </trkpt>
      <trkpt lat="44.66587" lon="6.69543">
        <ele>1534</ele>
        <time>2020-08-04T06:56:40Z</time>
      </trkpt>
      <trkpt lat="44.66587" lon="6.6954">
        <ele>1534</ele>
        <time>2020-08-04T06:56:41Z</time>
      </trkpt>
      <trkpt lat="44.66588" lon="6.69538">
        <ele>1534</ele>
        <time>2020-08-04T06:56:42Z</time>
      </trkpt>
      <trkpt lat="44.66588" lon="6.69536">
        <ele>1533</ele>
        <time>2020-08-04T06:56:43Z</time>
      </trkpt>
      <trkpt lat="44.66589" lon="6.69533">
        <ele>1533</ele>
        <time>2020-08-04T06:56:44Z</time>
      </trkpt>
      <trkpt lat="44.66589" lon="6.69531">
        <ele>1533</ele>
        <time>2020-08-04T06:56:45Z</time>
      </trkpt>
      <trkpt lat="44.66607" lon="6.69504">
        <ele>1526</ele>
        <time>2020-08-04T06:57:01Z</time>
      </trkpt>
      <trkpt lat="44.66606" lon="6.69471">
        <ele>1528</ele>
        <time>2020-08-04T06:57:15Z</time>
      </trkpt>
      <trkpt lat="44.66606" lon="6.69437">
        <ele>1530</ele>
        <time>2020-08-04T06:57:30Z</time>
      </trkpt>
      <trkpt lat="44.66601" lon="6.69411">
        <ele>1531</ele>
        <time>2020-08-04T06:57:42Z</time>
      </trkpt>
      <trkpt lat="44.66592" lon="6.69376">
        <ele>1531</ele>
        <time>2020-08-04T06:57:58Z</time>
      </trkpt>
      <trkpt lat="44.66579" lon="6.69352">
        <ele>1532</ele>
        <time>2020-08-04T06:58:13Z</time>
      </trkpt>
      <trkpt lat="44.66578" lon="6.69351">
        <ele>1532</ele>
        <time>2020-08-04T06:58:18Z</time>
      </trkpt>
      <trkpt lat="44.66574" lon="6.69348">
        <ele>1534</ele>
        <time>2020-08-04T06:59:44Z</time>
      </trkpt>
      <trkpt lat="44.66572" lon="6.69348">
        <ele>1534</ele>
        <time>2020-08-04T06:59:45Z</time>
      </trkpt>
      <trkpt lat="44.66571" lon="6.69347">
        <ele>1534</ele>
        <time>2020-08-04T06:59:46Z</time>
      </trkpt>
      <trkpt lat="44.66569" lon="6.69346">
        <ele>1535</ele>
        <time>2020-08-04T06:59:47Z</time>
      </trkpt>
      <trkpt lat="44.66568" lon="6.69346">
        <ele>1535</ele>
        <time>2020-08-04T06:59:48Z</time>
      </trkpt>
      <trkpt lat="44.66566" lon="6.69345">
        <ele>1536</ele>
        <time>2020-08-04T06:59:49Z</time>
      </trkpt>
      <trkpt lat="44.66564" lon="6.69345">
        <ele>1536</ele>
        <time>2020-08-04T06:59:50Z</time>
      </trkpt>
      <trkpt lat="44.66539" lon="6.69322">
        <ele>1544</ele>
        <time>2020-08-04T07:00:08Z</time>
      </trkpt>
      <trkpt lat="44.66533" lon="6.69291">
        <ele>1545</ele>
        <time>2020-08-04T07:00:23Z</time>
      </trkpt>
      <trkpt lat="44.66523" lon="6.69258">
        <ele>1548</ele>
        <time>2020-08-04T07:00:38Z</time>
      </trkpt>
      <trkpt lat="44.66527" lon="6.69227">
        <ele>1542</ele>
        <time>2020-08-04T07:00:52Z</time>
      </trkpt>
      <trkpt lat="44.66515" lon="6.69199">
        <ele>1543</ele>
        <time>2020-08-04T07:01:05Z</time>
      </trkpt>
      <trkpt lat="44.66502" lon="6.69162">
        <ele>1547</ele>
        <time>2020-08-04T07:01:24Z</time>
      </trkpt>
      <trkpt lat="44.66502" lon="6.69131">
        <ele>1546</ele>
        <time>2020-08-04T07:01:38Z</time>
      </trkpt>
      <trkpt lat="44.66494" lon="6.69105">
        <ele>1546</ele>
        <time>2020-08-04T07:01:51Z</time>
      </trkpt>
      <trkpt lat="44.66491" lon="6.69075">
        <ele>1545</ele>
        <time>2020-08-04T07:02:06Z</time>
      </trkpt>
      <trkpt lat="44.66485" lon="6.69069">
        <ele>1546</ele>
        <time>2020-08-04T07:02:11Z</time>
      </trkpt>
      <trkpt lat="44.66484" lon="6.69069">
        <ele>1546</ele>
        <time>2020-08-04T07:02:12Z</time>
      </trkpt>
      <trkpt lat="44.66465" lon="6.69079">
        <ele>1553</ele>
        <time>2020-08-04T07:02:27Z</time>
      </trkpt>
      <trkpt lat="44.6644" lon="6.69089">
        <ele>1563</ele>
        <time>2020-08-04T07:02:43Z</time>
      </trkpt>
      <trkpt lat="44.66438" lon="6.69083">
        <ele>1564</ele>
        <time>2020-08-04T07:02:46Z</time>
      </trkpt>
      <trkpt lat="44.66438" lon="6.69081">
        <ele>1564</ele>
        <time>2020-08-04T07:02:47Z</time>
      </trkpt>
      <trkpt lat="44.66436" lon="6.69041">
        <ele>1565</ele>
        <time>2020-08-04T07:03:05Z</time>
      </trkpt>
      <trkpt lat="44.66431" lon="6.69023">
        <ele>1567</ele>
        <time>2020-08-04T07:03:13Z</time>
      </trkpt>
      <trkpt lat="44.66432" lon="6.69021">
        <ele>1567</ele>
        <time>2020-08-04T07:03:14Z</time>
      </trkpt>
      <trkpt lat="44.66433" lon="6.68992">
        <ele>1566</ele>
        <time>2020-08-04T07:03:28Z</time>
      </trkpt>
      <trkpt lat="44.66425" lon="6.68957">
        <ele>1570</ele>
        <time>2020-08-04T07:03:44Z</time>
      </trkpt>
      <trkpt lat="44.66425" lon="6.68953">
        <ele>1570</ele>
        <time>2020-08-04T07:03:46Z</time>
      </trkpt>
      <trkpt lat="44.6642" lon="6.68917">
        <ele>1573</ele>
        <time>2020-08-04T07:04:02Z</time>
      </trkpt>
      <trkpt lat="44.66414" lon="6.68887">
        <ele>1572</ele>
        <time>2020-08-04T07:04:17Z</time>
      </trkpt>
      <trkpt lat="44.6639" lon="6.68855">
        <ele>1567</ele>
        <time>2020-08-04T07:04:33Z</time>
      </trkpt>
      <trkpt lat="44.66366" lon="6.68852">
        <ele>1565</ele>
        <time>2020-08-04T07:04:46Z</time>
      </trkpt>
      <trkpt lat="44.66361" lon="6.68855">
        <ele>1566</ele>
        <time>2020-08-04T07:04:51Z</time>
      </trkpt>
      <trkpt lat="44.6636" lon="6.68857">
        <ele>1567</ele>
        <time>2020-08-04T07:04:52Z</time>
      </trkpt>
      <trkpt lat="44.66357" lon="6.68862">
        <ele>1569</ele>
        <time>2020-08-04T07:04:55Z</time>
      </trkpt>
      <trkpt lat="44.66356" lon="6.68862">
        <ele>1569</ele>
        <time>2020-08-04T07:04:56Z</time>
      </trkpt>
      <trkpt lat="44.66335" lon="6.68868">
        <ele>1572</ele>
        <time>2020-08-04T07:05:11Z</time>
      </trkpt>
      <trkpt lat="44.66334" lon="6.68869">
        <ele>1572</ele>
        <time>2020-08-04T07:05:14Z</time>
      </trkpt>
      <trkpt lat="44.66322" lon="6.68869">
        <ele>1569</ele>
        <time>2020-08-04T07:06:02Z</time>
      </trkpt>
      <trkpt lat="44.66292" lon="6.68892">
        <ele>1575</ele>
        <time>2020-08-04T07:06:16Z</time>
      </trkpt>
      <trkpt lat="44.66262" lon="6.6892">
        <ele>1587</ele>
        <time>2020-08-04T07:06:29Z</time>
      </trkpt>
      <trkpt lat="44.66233" lon="6.68932">
        <ele>1599</ele>
        <time>2020-08-04T07:06:42Z</time>
      </trkpt>
      <trkpt lat="44.6623" lon="6.68919">
        <ele>1599</ele>
        <time>2020-08-04T07:06:46Z</time>
      </trkpt>
      <trkpt lat="44.66234" lon="6.68886">
        <ele>1594</ele>
        <time>2020-08-04T07:06:58Z</time>
      </trkpt>
      <trkpt lat="44.66237" lon="6.68878">
        <ele>1592</ele>
        <time>2020-08-04T07:07:02Z</time>
      </trkpt>
      <trkpt lat="44.66237" lon="6.68875">
        <ele>1591</ele>
        <time>2020-08-04T07:07:03Z</time>
      </trkpt>
      <trkpt lat="44.6624" lon="6.68836">
        <ele>1590</ele>
        <time>2020-08-04T07:07:17Z</time>
      </trkpt>
      <trkpt lat="44.66246" lon="6.68797">
        <ele>1588</ele>
        <time>2020-08-04T07:07:30Z</time>
      </trkpt>
      <trkpt lat="44.66245" lon="6.68755">
        <ele>1589</ele>
        <time>2020-08-04T07:07:43Z</time>
      </trkpt>
      <trkpt lat="44.66247" lon="6.68717">
        <ele>1590</ele>
        <time>2020-08-04T07:07:56Z</time>
      </trkpt>
      <trkpt lat="44.66243" lon="6.68685">
        <ele>1596</ele>
        <time>2020-08-04T07:08:08Z</time>
      </trkpt>
      <trkpt lat="44.66242" lon="6.68642">
        <ele>1596</ele>
        <time>2020-08-04T07:08:24Z</time>
      </trkpt>
      <trkpt lat="44.66233" lon="6.68611">
        <ele>1598</ele>
        <time>2020-08-04T07:08:36Z</time>
      </trkpt>
      <trkpt lat="44.66232" lon="6.68608">
        <ele>1598</ele>
        <time>2020-08-04T07:08:37Z</time>
      </trkpt>
      <trkpt lat="44.66231" lon="6.68605">
        <ele>1598</ele>
        <time>2020-08-04T07:08:38Z</time>
      </trkpt>
      <trkpt lat="44.66231" lon="6.68602">
        <ele>1598</ele>
        <time>2020-08-04T07:08:39Z</time>
      </trkpt>
      <trkpt lat="44.6623" lon="6.686">
        <ele>1597</ele>
        <time>2020-08-04T07:08:40Z</time>
      </trkpt>
      <trkpt lat="44.6623" lon="6.68597">
        <ele>1597</ele>
        <time>2020-08-04T07:08:41Z</time>
      </trkpt>
      <trkpt lat="44.66229" lon="6.68594">
        <ele>1597</ele>
        <time>2020-08-04T07:08:42Z</time>
      </trkpt>
      <trkpt lat="44.66227" lon="6.68591">
        <ele>1598</ele>
        <time>2020-08-04T07:08:43Z</time>
      </trkpt>
      <trkpt lat="44.66226" lon="6.68588">
        <ele>1598</ele>
        <time>2020-08-04T07:08:44Z</time>
      </trkpt>
      <trkpt lat="44.66225" lon="6.68585">
        <ele>1598</ele>
        <time>2020-08-04T07:08:45Z</time>
      </trkpt>
      <trkpt lat="44.66209" lon="6.68556">
        <ele>1602</ele>
        <time>2020-08-04T07:08:59Z</time>
      </trkpt>
      <trkpt lat="44.66174" lon="6.68538">
        <ele>1606</ele>
        <time>2020-08-04T07:09:17Z</time>
      </trkpt>
      <trkpt lat="44.66135" lon="6.68518">
        <ele>1616</ele>
        <time>2020-08-04T07:09:35Z</time>
      </trkpt>
      <trkpt lat="44.6612" lon="6.68489">
        <ele>1616</ele>
        <time>2020-08-04T07:09:48Z</time>
      </trkpt>
      <trkpt lat="44.66114" lon="6.68455">
        <ele>1613</ele>
        <time>2020-08-04T07:10:02Z</time>
      </trkpt>
      <trkpt lat="44.66105" lon="6.68412">
        <ele>1609</ele>
        <time>2020-08-04T07:10:18Z</time>
      </trkpt>
      <trkpt lat="44.66093" lon="6.68377">
        <ele>1608</ele>
        <time>2020-08-04T07:10:33Z</time>
      </trkpt>
      <trkpt lat="44.66089" lon="6.68379">
        <ele>1609</ele>
        <time>2020-08-04T07:10:36Z</time>
      </trkpt>
      <trkpt lat="44.66087" lon="6.68382">
        <ele>1610</ele>
        <time>2020-08-04T07:10:38Z</time>
      </trkpt>
      <trkpt lat="44.66087" lon="6.68385">
        <ele>1610</ele>
        <time>2020-08-04T07:10:39Z</time>
      </trkpt>
      <trkpt lat="44.66088" lon="6.68387">
        <ele>1610</ele>
        <time>2020-08-04T07:10:40Z</time>
      </trkpt>
      <trkpt lat="44.66099" lon="6.68424">
        <ele>1614</ele>
        <time>2020-08-04T07:10:54Z</time>
      </trkpt>
      <trkpt lat="44.66101" lon="6.68457">
        <ele>1620</ele>
        <time>2020-08-04T07:11:09Z</time>
      </trkpt>
      <trkpt lat="44.66099" lon="6.68489">
        <ele>1626</ele>
        <time>2020-08-04T07:11:21Z</time>
      </trkpt>
      <trkpt lat="44.66099" lon="6.68491">
        <ele>1627</ele>
        <time>2020-08-04T07:11:22Z</time>
      </trkpt>
      <trkpt lat="44.66098" lon="6.68492">
        <ele>1627</ele>
        <time>2020-08-04T07:11:23Z</time>
      </trkpt>
      <trkpt lat="44.66099" lon="6.68507">
        <ele>1630</ele>
        <time>2020-08-04T07:11:31Z</time>
      </trkpt>
      <trkpt lat="44.66106" lon="6.68538">
        <ele>1637</ele>
        <time>2020-08-04T07:11:47Z</time>
      </trkpt>
      <trkpt lat="44.66126" lon="6.68555">
        <ele>1636</ele>
        <time>2020-08-04T07:12:03Z</time>
      </trkpt>
      <trkpt lat="44.66152" lon="6.68564">
        <ele>1628</ele>
        <time>2020-08-04T07:12:19Z</time>
      </trkpt>
      <trkpt lat="44.66168" lon="6.6858">
        <ele>1628</ele>
        <time>2020-08-04T07:12:31Z</time>
      </trkpt>
      <trkpt lat="44.66174" lon="6.68594">
        <ele>1630</ele>
        <time>2020-08-04T07:12:38Z</time>
      </trkpt>
      <trkpt lat="44.66175" lon="6.68596">
        <ele>1631</ele>
        <time>2020-08-04T07:12:39Z</time>
      </trkpt>
      <trkpt lat="44.66175" lon="6.68598">
        <ele>1631</ele>
        <time>2020-08-04T07:12:40Z</time>
      </trkpt>
      <trkpt lat="44.66176" lon="6.686">
        <ele>1631</ele>
        <time>2020-08-04T07:12:41Z</time>
      </trkpt>
      <trkpt lat="44.66176" lon="6.68602">
        <ele>1632</ele>
        <time>2020-08-04T07:12:42Z</time>
      </trkpt>
      <trkpt lat="44.66176" lon="6.68609">
        <ele>1634</ele>
        <time>2020-08-04T07:12:46Z</time>
      </trkpt>
      <trkpt lat="44.66176" lon="6.68613">
        <ele>1635</ele>
        <time>2020-08-04T07:12:48Z</time>
      </trkpt>
      <trkpt lat="44.66175" lon="6.68615">
        <ele>1636</ele>
        <time>2020-08-04T07:12:49Z</time>
      </trkpt>
      <trkpt lat="44.66175" lon="6.68618">
        <ele>1637</ele>
        <time>2020-08-04T07:12:50Z</time>
      </trkpt>
      <trkpt lat="44.66175" lon="6.6862">
        <ele>1638</ele>
        <time>2020-08-04T07:12:51Z</time>
      </trkpt>
      <trkpt lat="44.66174" lon="6.68622">
        <ele>1638</ele>
        <time>2020-08-04T07:12:52Z</time>
      </trkpt>
      <trkpt lat="44.66174" lon="6.68625">
        <ele>1639</ele>
        <time>2020-08-04T07:12:53Z</time>
      </trkpt>
      <trkpt lat="44.66174" lon="6.68627">
        <ele>1639</ele>
        <time>2020-08-04T07:12:54Z</time>
      </trkpt>
      <trkpt lat="44.66175" lon="6.68629">
        <ele>1640</ele>
        <time>2020-08-04T07:12:55Z</time>
      </trkpt>
      <trkpt lat="44.66175" lon="6.68631">
        <ele>1640</ele>
        <time>2020-08-04T07:12:56Z</time>
      </trkpt>
      <trkpt lat="44.66175" lon="6.68633">
        <ele>1641</ele>
        <time>2020-08-04T07:12:57Z</time>
      </trkpt>
      <trkpt lat="44.66175" lon="6.68635">
        <ele>1641</ele>
        <time>2020-08-04T07:12:58Z</time>
      </trkpt>
      <trkpt lat="44.66175" lon="6.68637">
        <ele>1641</ele>
        <time>2020-08-04T07:12:59Z</time>
      </trkpt>
      <trkpt lat="44.66176" lon="6.68639">
        <ele>1641</ele>
        <time>2020-08-04T07:13:00Z</time>
      </trkpt>
      <trkpt lat="44.66177" lon="6.68641">
        <ele>1641</ele>
        <time>2020-08-04T07:13:01Z</time>
      </trkpt>
      <trkpt lat="44.66178" lon="6.68643">
        <ele>1640</ele>
        <time>2020-08-04T07:13:02Z</time>
      </trkpt>
      <trkpt lat="44.6618" lon="6.68645">
        <ele>1639</ele>
        <time>2020-08-04T07:13:03Z</time>
      </trkpt>
      <trkpt lat="44.66181" lon="6.68656">
        <ele>1639</ele>
        <time>2020-08-04T07:13:08Z</time>
      </trkpt>
      <trkpt lat="44.66181" lon="6.68658">
        <ele>1640</ele>
        <time>2020-08-04T07:13:09Z</time>
      </trkpt>
      <trkpt lat="44.66183" lon="6.68675">
        <ele>1640</ele>
        <time>2020-08-04T07:13:18Z</time>
      </trkpt>
      <trkpt lat="44.66183" lon="6.68677">
        <ele>1641</ele>
        <time>2020-08-04T07:13:19Z</time>
      </trkpt>
      <trkpt lat="44.66182" lon="6.68679">
        <ele>1641</ele>
        <time>2020-08-04T07:13:20Z</time>
      </trkpt>
      <trkpt lat="44.66182" lon="6.68681">
        <ele>1641</ele>
        <time>2020-08-04T07:13:21Z</time>
      </trkpt>
      <trkpt lat="44.66182" lon="6.68683">
        <ele>1642</ele>
        <time>2020-08-04T07:13:22Z</time>
      </trkpt>
      <trkpt lat="44.66183" lon="6.68685">
        <ele>1642</ele>
        <time>2020-08-04T07:13:23Z</time>
      </trkpt>
      <trkpt lat="44.66183" lon="6.68687">
        <ele>1642</ele>
        <time>2020-08-04T07:13:24Z</time>
      </trkpt>
      <trkpt lat="44.66183" lon="6.68688">
        <ele>1642</ele>
        <time>2020-08-04T07:13:25Z</time>
      </trkpt>
      <trkpt lat="44.66183" lon="6.6869">
        <ele>1642</ele>
        <time>2020-08-04T07:13:26Z</time>
      </trkpt>
      <trkpt lat="44.66182" lon="6.68713">
        <ele>1643</ele>
        <time>2020-08-04T07:13:37Z</time>
      </trkpt>
      <trkpt lat="44.66182" lon="6.68715">
        <ele>1643</ele>
        <time>2020-08-04T07:13:38Z</time>
      </trkpt>
      <trkpt lat="44.66175" lon="6.68741">
        <ele>1647</ele>
        <time>2020-08-04T07:13:51Z</time>
      </trkpt>
      <trkpt lat="44.66175" lon="6.68744">
        <ele>1647</ele>
        <time>2020-08-04T07:13:52Z</time>
      </trkpt>
      <trkpt lat="44.66174" lon="6.68747">
        <ele>1647</ele>
        <time>2020-08-04T07:13:53Z</time>
      </trkpt>
      <trkpt lat="44.66173" lon="6.68749">
        <ele>1648</ele>
        <time>2020-08-04T07:13:54Z</time>
      </trkpt>
      <trkpt lat="44.66173" lon="6.68752">
        <ele>1648</ele>
        <time>2020-08-04T07:13:55Z</time>
      </trkpt>
      <trkpt lat="44.66172" lon="6.68754">
        <ele>1648</ele>
        <time>2020-08-04T07:13:56Z</time>
      </trkpt>
      <trkpt lat="44.66172" lon="6.68757">
        <ele>1649</ele>
        <time>2020-08-04T07:13:57Z</time>
      </trkpt>
      <trkpt lat="44.66171" lon="6.68759">
        <ele>1649</ele>
        <time>2020-08-04T07:13:58Z</time>
      </trkpt>
      <trkpt lat="44.66171" lon="6.6879">
        <ele>1649</ele>
        <time>2020-08-04T07:14:10Z</time>
      </trkpt>
      <trkpt lat="44.66169" lon="6.68825">
        <ele>1647</ele>
        <time>2020-08-04T07:14:24Z</time>
      </trkpt>
      <trkpt lat="44.66166" lon="6.68833">
        <ele>1648</ele>
        <time>2020-08-04T07:14:28Z</time>
      </trkpt>
      <trkpt lat="44.66164" lon="6.68835">
        <ele>1649</ele>
        <time>2020-08-04T07:14:29Z</time>
      </trkpt>
      <trkpt lat="44.66157" lon="6.68843">
        <ele>1653</ele>
        <time>2020-08-04T07:14:34Z</time>
      </trkpt>
      <trkpt lat="44.66136" lon="6.68865">
        <ele>1663</ele>
        <time>2020-08-04T07:14:46Z</time>
      </trkpt>
      <trkpt lat="44.66127" lon="6.68902">
        <ele>1665</ele>
        <time>2020-08-04T07:15:01Z</time>
      </trkpt>
      <trkpt lat="44.66127" lon="6.68904">
        <ele>1665</ele>
        <time>2020-08-04T07:15:02Z</time>
      </trkpt>
      <trkpt lat="44.66126" lon="6.68906">
        <ele>1666</ele>
        <time>2020-08-04T07:15:03Z</time>
      </trkpt>
      <trkpt lat="44.66126" lon="6.68908">
        <ele>1666</ele>
        <time>2020-08-04T07:15:04Z</time>
      </trkpt>
      <trkpt lat="44.66125" lon="6.68911">
        <ele>1666</ele>
        <time>2020-08-04T07:15:05Z</time>
      </trkpt>
      <trkpt lat="44.66125" lon="6.68914">
        <ele>1665</ele>
        <time>2020-08-04T07:15:06Z</time>
      </trkpt>
      <trkpt lat="44.66125" lon="6.68916">
        <ele>1666</ele>
        <time>2020-08-04T07:15:07Z</time>
      </trkpt>
      <trkpt lat="44.66124" lon="6.68918">
        <ele>1666</ele>
        <time>2020-08-04T07:15:08Z</time>
      </trkpt>
      <trkpt lat="44.66127" lon="6.68954">
        <ele>1660</ele>
        <time>2020-08-04T07:15:23Z</time>
      </trkpt>
      <trkpt lat="44.66127" lon="6.68969">
        <ele>1659</ele>
        <time>2020-08-04T07:15:29Z</time>
      </trkpt>
      <trkpt lat="44.66126" lon="6.6897">
        <ele>1660</ele>
        <time>2020-08-04T07:15:30Z</time>
      </trkpt>
      <trkpt lat="44.66126" lon="6.68972">
        <ele>1660</ele>
        <time>2020-08-04T07:15:31Z</time>
      </trkpt>
      <trkpt lat="44.66125" lon="6.68975">
        <ele>1660</ele>
        <time>2020-08-04T07:15:32Z</time>
      </trkpt>
      <trkpt lat="44.66125" lon="6.68977">
        <ele>1660</ele>
        <time>2020-08-04T07:15:33Z</time>
      </trkpt>
      <trkpt lat="44.66111" lon="6.69009">
        <ele>1668</ele>
        <time>2020-08-04T07:15:48Z</time>
      </trkpt>
      <trkpt lat="44.66129" lon="6.69033">
        <ele>1659</ele>
        <time>2020-08-04T07:16:00Z</time>
      </trkpt>
      <trkpt lat="44.66129" lon="6.69036">
        <ele>1659</ele>
        <time>2020-08-04T07:16:01Z</time>
      </trkpt>
      <trkpt lat="44.66122" lon="6.69069">
        <ele>1666</ele>
        <time>2020-08-04T07:16:14Z</time>
      </trkpt>
      <trkpt lat="44.66114" lon="6.69091">
        <ele>1672</ele>
        <time>2020-08-04T07:16:21Z</time>
      </trkpt>
      <trkpt lat="44.66115" lon="6.69094">
        <ele>1672</ele>
        <time>2020-08-04T07:16:22Z</time>
      </trkpt>
      <trkpt lat="44.66116" lon="6.69097">
        <ele>1672</ele>
        <time>2020-08-04T07:16:23Z</time>
      </trkpt>
      <trkpt lat="44.66118" lon="6.691">
        <ele>1672</ele>
        <time>2020-08-04T07:16:24Z</time>
      </trkpt>
      <trkpt lat="44.6612" lon="6.69102">
        <ele>1672</ele>
        <time>2020-08-04T07:16:25Z</time>
      </trkpt>
      <trkpt lat="44.66123" lon="6.69104">
        <ele>1671</ele>
        <time>2020-08-04T07:16:26Z</time>
      </trkpt>
      <trkpt lat="44.66126" lon="6.69107">
        <ele>1670</ele>
        <time>2020-08-04T07:16:27Z</time>
      </trkpt>
      <trkpt lat="44.66163" lon="6.69126">
        <ele>1664</ele>
        <time>2020-08-04T07:16:41Z</time>
      </trkpt>
      <trkpt lat="44.66191" lon="6.69141">
        <ele>1658</ele>
        <time>2020-08-04T07:16:53Z</time>
      </trkpt>
      <trkpt lat="44.66193" lon="6.6915">
        <ele>1658</ele>
        <time>2020-08-04T07:16:55Z</time>
      </trkpt>
      <trkpt lat="44.66192" lon="6.69155">
        <ele>1658</ele>
        <time>2020-08-04T07:16:56Z</time>
      </trkpt>
      <trkpt lat="44.66191" lon="6.69159">
        <ele>1659</ele>
        <time>2020-08-04T07:16:57Z</time>
      </trkpt>
      <trkpt lat="44.6619" lon="6.69162">
        <ele>1660</ele>
        <time>2020-08-04T07:16:58Z</time>
      </trkpt>
      <trkpt lat="44.66189" lon="6.69165">
        <ele>1661</ele>
        <time>2020-08-04T07:16:59Z</time>
      </trkpt>
      <trkpt lat="44.66187" lon="6.69167">
        <ele>1661</ele>
        <time>2020-08-04T07:17:00Z</time>
      </trkpt>
      <trkpt lat="44.66187" lon="6.6917">
        <ele>1662</ele>
        <time>2020-08-04T07:17:01Z</time>
      </trkpt>
      <trkpt lat="44.66185" lon="6.69172">
        <ele>1663</ele>
        <time>2020-08-04T07:17:02Z</time>
      </trkpt>
      <trkpt lat="44.66184" lon="6.69174">
        <ele>1664</ele>
        <time>2020-08-04T07:17:03Z</time>
      </trkpt>
      <trkpt lat="44.6618" lon="6.69178">
        <ele>1666</ele>
        <time>2020-08-04T07:17:06Z</time>
      </trkpt>
      <trkpt lat="44.66178" lon="6.69179">
        <ele>1667</ele>
        <time>2020-08-04T07:17:07Z</time>
      </trkpt>
      <trkpt lat="44.66176" lon="6.6918">
        <ele>1668</ele>
        <time>2020-08-04T07:17:08Z</time>
      </trkpt>
      <trkpt lat="44.66175" lon="6.69181">
        <ele>1668</ele>
        <time>2020-08-04T07:17:09Z</time>
      </trkpt>
      <trkpt lat="44.66174" lon="6.69183">
        <ele>1669</ele>
        <time>2020-08-04T07:17:10Z</time>
      </trkpt>
      <trkpt lat="44.66172" lon="6.69185">
        <ele>1670</ele>
        <time>2020-08-04T07:17:11Z</time>
      </trkpt>
      <trkpt lat="44.66171" lon="6.69187">
        <ele>1671</ele>
        <time>2020-08-04T07:17:12Z</time>
      </trkpt>
      <trkpt lat="44.66163" lon="6.69206">
        <ele>1678</ele>
        <time>2020-08-04T07:17:19Z</time>
      </trkpt>
      <trkpt lat="44.66163" lon="6.69209">
        <ele>1678</ele>
        <time>2020-08-04T07:17:20Z</time>
      </trkpt>
      <trkpt lat="44.66165" lon="6.6921">
        <ele>1678</ele>
        <time>2020-08-04T07:17:22Z</time>
      </trkpt>
      <trkpt lat="44.66167" lon="6.69212">
        <ele>1677</ele>
        <time>2020-08-04T07:17:23Z</time>
      </trkpt>
      <trkpt lat="44.6617" lon="6.69213">
        <ele>1676</ele>
        <time>2020-08-04T07:17:24Z</time>
      </trkpt>
      <trkpt lat="44.66202" lon="6.69229">
        <ele>1668</ele>
        <time>2020-08-04T07:17:39Z</time>
      </trkpt>
      <trkpt lat="44.66207" lon="6.69269">
        <ele>1675</ele>
        <time>2020-08-04T07:17:53Z</time>
      </trkpt>
      <trkpt lat="44.66202" lon="6.69305">
        <ele>1684</ele>
        <time>2020-08-04T07:18:10Z</time>
      </trkpt>
      <trkpt lat="44.66206" lon="6.69307">
        <ele>1684</ele>
        <time>2020-08-04T07:18:12Z</time>
      </trkpt>
      <trkpt lat="44.66231" lon="6.69307">
        <ele>1681</ele>
        <time>2020-08-04T07:18:26Z</time>
      </trkpt>
      <trkpt lat="44.66261" lon="6.69323">
        <ele>1682</ele>
        <time>2020-08-04T07:18:41Z</time>
      </trkpt>
      <trkpt lat="44.66281" lon="6.69349">
        <ele>1684</ele>
        <time>2020-08-04T07:18:55Z</time>
      </trkpt>
      <trkpt lat="44.66304" lon="6.69376">
        <ele>1684</ele>
        <time>2020-08-04T07:19:11Z</time>
      </trkpt>
      <trkpt lat="44.66318" lon="6.69407">
        <ele>1686</ele>
        <time>2020-08-04T07:19:24Z</time>
      </trkpt>
      <trkpt lat="44.6633" lon="6.69442">
        <ele>1688</ele>
        <time>2020-08-04T07:19:37Z</time>
      </trkpt>
      <trkpt lat="44.66332" lon="6.6948">
        <ele>1693</ele>
        <time>2020-08-04T07:19:52Z</time>
      </trkpt>
      <trkpt lat="44.66333" lon="6.69519">
        <ele>1696</ele>
        <time>2020-08-04T07:20:05Z</time>
      </trkpt>
      <trkpt lat="44.66329" lon="6.69535">
        <ele>1699</ele>
        <time>2020-08-04T07:20:11Z</time>
      </trkpt>
      <trkpt lat="44.66328" lon="6.69537">
        <ele>1699</ele>
        <time>2020-08-04T07:20:12Z</time>
      </trkpt>
      <trkpt lat="44.66328" lon="6.69539">
        <ele>1699</ele>
        <time>2020-08-04T07:20:13Z</time>
      </trkpt>
      <trkpt lat="44.66328" lon="6.69542">
        <ele>1699</ele>
        <time>2020-08-04T07:20:14Z</time>
      </trkpt>
      <trkpt lat="44.66328" lon="6.69544">
        <ele>1700</ele>
        <time>2020-08-04T07:20:15Z</time>
      </trkpt>
      <trkpt lat="44.66328" lon="6.69547">
        <ele>1700</ele>
        <time>2020-08-04T07:20:16Z</time>
      </trkpt>
      <trkpt lat="44.66328" lon="6.6955">
        <ele>1699</ele>
        <time>2020-08-04T07:20:17Z</time>
      </trkpt>
      <trkpt lat="44.66328" lon="6.69552">
        <ele>1699</ele>
        <time>2020-08-04T07:20:18Z</time>
      </trkpt>
      <trkpt lat="44.66329" lon="6.69555">
        <ele>1699</ele>
        <time>2020-08-04T07:20:19Z</time>
      </trkpt>
      <trkpt lat="44.66329" lon="6.69558">
        <ele>1699</ele>
        <time>2020-08-04T07:20:20Z</time>
      </trkpt>
      <trkpt lat="44.66329" lon="6.69561">
        <ele>1699</ele>
        <time>2020-08-04T07:20:21Z</time>
      </trkpt>
      <trkpt lat="44.66329" lon="6.69564">
        <ele>1699</ele>
        <time>2020-08-04T07:20:22Z</time>
      </trkpt>
      <trkpt lat="44.66326" lon="6.69605">
        <ele>1701</ele>
        <time>2020-08-04T07:20:37Z</time>
      </trkpt>
      <trkpt lat="44.66323" lon="6.69648">
        <ele>1701</ele>
        <time>2020-08-04T07:20:54Z</time>
      </trkpt>
      <trkpt lat="44.66322" lon="6.6965">
        <ele>1701</ele>
        <time>2020-08-04T07:20:55Z</time>
      </trkpt>
      <trkpt lat="44.66321" lon="6.69653">
        <ele>1701</ele>
        <time>2020-08-04T07:20:56Z</time>
      </trkpt>
      <trkpt lat="44.66308" lon="6.6969">
        <ele>1706</ele>
        <time>2020-08-04T07:21:12Z</time>
      </trkpt>
      <trkpt lat="44.66302" lon="6.69722">
        <ele>1706</ele>
        <time>2020-08-04T07:21:25Z</time>
      </trkpt>
      <trkpt lat="44.66302" lon="6.69746">
        <ele>1705</ele>
        <time>2020-08-04T07:21:36Z</time>
      </trkpt>
      <trkpt lat="44.66302" lon="6.69749">
        <ele>1705</ele>
        <time>2020-08-04T07:21:37Z</time>
      </trkpt>
      <trkpt lat="44.66301" lon="6.69751">
        <ele>1705</ele>
        <time>2020-08-04T07:21:38Z</time>
      </trkpt>
      <trkpt lat="44.66301" lon="6.69753">
        <ele>1705</ele>
        <time>2020-08-04T07:21:39Z</time>
      </trkpt>
      <trkpt lat="44.66301" lon="6.69754">
        <ele>1705</ele>
        <time>2020-08-04T07:21:40Z</time>
      </trkpt>
      <trkpt lat="44.663" lon="6.69756">
        <ele>1705</ele>
        <time>2020-08-04T07:21:41Z</time>
      </trkpt>
      <trkpt lat="44.66299" lon="6.69758">
        <ele>1706</ele>
        <time>2020-08-04T07:21:42Z</time>
      </trkpt>
      <trkpt lat="44.66298" lon="6.6976">
        <ele>1706</ele>
        <time>2020-08-04T07:21:43Z</time>
      </trkpt>
      <trkpt lat="44.66297" lon="6.69761">
        <ele>1706</ele>
        <time>2020-08-04T07:21:44Z</time>
      </trkpt>
      <trkpt lat="44.66295" lon="6.69764">
        <ele>1707</ele>
        <time>2020-08-04T07:21:46Z</time>
      </trkpt>
      <trkpt lat="44.66294" lon="6.69766">
        <ele>1707</ele>
        <time>2020-08-04T07:21:47Z</time>
      </trkpt>
      <trkpt lat="44.66292" lon="6.69767">
        <ele>1707</ele>
        <time>2020-08-04T07:21:48Z</time>
      </trkpt>
      <trkpt lat="44.66272" lon="6.6979">
        <ele>1714</ele>
        <time>2020-08-04T07:22:02Z</time>
      </trkpt>
      <trkpt lat="44.66277" lon="6.69818">
        <ele>1712</ele>
        <time>2020-08-04T07:22:15Z</time>
      </trkpt>
      <trkpt lat="44.66276" lon="6.69843">
        <ele>1716</ele>
        <time>2020-08-04T07:22:27Z</time>
      </trkpt>
      <trkpt lat="44.66272" lon="6.69844">
        <ele>1717</ele>
        <time>2020-08-04T07:22:29Z</time>
      </trkpt>
      <trkpt lat="44.6627" lon="6.69843">
        <ele>1718</ele>
        <time>2020-08-04T07:22:30Z</time>
      </trkpt>
      <trkpt lat="44.66268" lon="6.69842">
        <ele>1719</ele>
        <time>2020-08-04T07:22:31Z</time>
      </trkpt>
      <trkpt lat="44.66267" lon="6.6984">
        <ele>1719</ele>
        <time>2020-08-04T07:22:32Z</time>
      </trkpt>
      <trkpt lat="44.66266" lon="6.69838">
        <ele>1719</ele>
        <time>2020-08-04T07:22:33Z</time>
      </trkpt>
      <trkpt lat="44.66265" lon="6.69836">
        <ele>1719</ele>
        <time>2020-08-04T07:22:34Z</time>
      </trkpt>
      <trkpt lat="44.66264" lon="6.69834">
        <ele>1719</ele>
        <time>2020-08-04T07:22:35Z</time>
      </trkpt>
      <trkpt lat="44.66264" lon="6.69832">
        <ele>1719</ele>
        <time>2020-08-04T07:22:36Z</time>
      </trkpt>
      <trkpt lat="44.66264" lon="6.6983">
        <ele>1719</ele>
        <time>2020-08-04T07:22:37Z</time>
      </trkpt>
      <trkpt lat="44.66264" lon="6.69828">
        <ele>1719</ele>
        <time>2020-08-04T07:22:38Z</time>
      </trkpt>
      <trkpt lat="44.66255" lon="6.69798">
        <ele>1722</ele>
        <time>2020-08-04T07:22:50Z</time>
      </trkpt>
      <trkpt lat="44.66252" lon="6.69775">
        <ele>1727</ele>
        <time>2020-08-04T07:22:58Z</time>
      </trkpt>
      <trkpt lat="44.66253" lon="6.69773">
        <ele>1727</ele>
        <time>2020-08-04T07:22:59Z</time>
      </trkpt>
      <trkpt lat="44.66252" lon="6.6977">
        <ele>1727</ele>
        <time>2020-08-04T07:23:00Z</time>
      </trkpt>
      <trkpt lat="44.66255" lon="6.69737">
        <ele>1730</ele>
        <time>2020-08-04T07:23:13Z</time>
      </trkpt>
      <trkpt lat="44.66258" lon="6.69711">
        <ele>1732</ele>
        <time>2020-08-04T07:23:25Z</time>
      </trkpt>
      <trkpt lat="44.66258" lon="6.69708">
        <ele>1733</ele>
        <time>2020-08-04T07:23:26Z</time>
      </trkpt>
      <trkpt lat="44.66258" lon="6.69705">
        <ele>1733</ele>
        <time>2020-08-04T07:23:27Z</time>
      </trkpt>
      <trkpt lat="44.66258" lon="6.69703">
        <ele>1734</ele>
        <time>2020-08-04T07:23:28Z</time>
      </trkpt>
      <trkpt lat="44.66257" lon="6.69701">
        <ele>1734</ele>
        <time>2020-08-04T07:23:33Z</time>
      </trkpt>
      <trkpt lat="44.6627" lon="6.69685">
        <ele>1728</ele>
        <time>2020-08-04T07:27:29Z</time>
      </trkpt>
      <trkpt lat="44.66273" lon="6.6966">
        <ele>1729</ele>
        <time>2020-08-04T07:27:43Z</time>
      </trkpt>
      <trkpt lat="44.66274" lon="6.69632">
        <ele>1732</ele>
        <time>2020-08-04T07:27:55Z</time>
      </trkpt>
      <trkpt lat="44.66271" lon="6.69595">
        <ele>1731</ele>
        <time>2020-08-04T07:28:11Z</time>
      </trkpt>
      <trkpt lat="44.66257" lon="6.69564">
        <ele>1732</ele>
        <time>2020-08-04T07:28:25Z</time>
      </trkpt>
      <trkpt lat="44.66235" lon="6.69539">
        <ele>1735</ele>
        <time>2020-08-04T07:28:40Z</time>
      </trkpt>
      <trkpt lat="44.66219" lon="6.69515">
        <ele>1735</ele>
        <time>2020-08-04T07:28:53Z</time>
      </trkpt>
      <trkpt lat="44.662" lon="6.69493">
        <ele>1735</ele>
        <time>2020-08-04T07:29:07Z</time>
      </trkpt>
      <trkpt lat="44.66179" lon="6.6949">
        <ele>1738</ele>
        <time>2020-08-04T07:29:19Z</time>
      </trkpt>
      <trkpt lat="44.66153" lon="6.69506">
        <ele>1749</ele>
        <time>2020-08-04T07:29:35Z</time>
      </trkpt>
      <trkpt lat="44.66146" lon="6.695">
        <ele>1751</ele>
        <time>2020-08-04T07:29:40Z</time>
      </trkpt>
      <trkpt lat="44.66144" lon="6.69489">
        <ele>1749</ele>
        <time>2020-08-04T07:29:45Z</time>
      </trkpt>
      <trkpt lat="44.66143" lon="6.69479">
        <ele>1746</ele>
        <time>2020-08-04T07:29:50Z</time>
      </trkpt>
      <trkpt lat="44.66129" lon="6.69446">
        <ele>1743</ele>
        <time>2020-08-04T07:30:05Z</time>
      </trkpt>
      <trkpt lat="44.66113" lon="6.69426">
        <ele>1745</ele>
        <time>2020-08-04T07:30:17Z</time>
      </trkpt>
      <trkpt lat="44.66088" lon="6.694">
        <ele>1750</ele>
        <time>2020-08-04T07:30:35Z</time>
      </trkpt>
      <trkpt lat="44.66074" lon="6.6938">
        <ele>1750</ele>
        <time>2020-08-04T07:30:48Z</time>
      </trkpt>
      <trkpt lat="44.6607" lon="6.69374">
        <ele>1750</ele>
        <time>2020-08-04T07:30:51Z</time>
      </trkpt>
      <trkpt lat="44.66064" lon="6.6937">
        <ele>1751</ele>
        <time>2020-08-04T07:30:55Z</time>
      </trkpt>
      <trkpt lat="44.66036" lon="6.69366">
        <ele>1758</ele>
        <time>2020-08-04T07:31:10Z</time>
      </trkpt>
      <trkpt lat="44.66019" lon="6.69354">
        <ele>1755</ele>
        <time>2020-08-04T07:31:22Z</time>
      </trkpt>
      <trkpt lat="44.66016" lon="6.69352">
        <ele>1755</ele>
        <time>2020-08-04T07:31:24Z</time>
      </trkpt>
      <trkpt lat="44.65989" lon="6.69347">
        <ele>1759</ele>
        <time>2020-08-04T07:31:40Z</time>
      </trkpt>
      <trkpt lat="44.65963" lon="6.6936">
        <ele>1768</ele>
        <time>2020-08-04T07:31:57Z</time>
      </trkpt>
      <trkpt lat="44.65946" lon="6.69363">
        <ele>1774</ele>
        <time>2020-08-04T07:32:09Z</time>
      </trkpt>
      <trkpt lat="44.65946" lon="6.69361">
        <ele>1774</ele>
        <time>2020-08-04T07:32:10Z</time>
      </trkpt>
      <trkpt lat="44.65947" lon="6.69359">
        <ele>1773</ele>
        <time>2020-08-04T07:32:11Z</time>
      </trkpt>
      <trkpt lat="44.65947" lon="6.69356">
        <ele>1773</ele>
        <time>2020-08-04T07:32:12Z</time>
      </trkpt>
      <trkpt lat="44.65947" lon="6.69354">
        <ele>1773</ele>
        <time>2020-08-04T07:32:13Z</time>
      </trkpt>
      <trkpt lat="44.6595" lon="6.6932">
        <ele>1768</ele>
        <time>2020-08-04T07:32:30Z</time>
      </trkpt>
      <trkpt lat="44.65953" lon="6.69288">
        <ele>1768</ele>
        <time>2020-08-04T07:32:46Z</time>
      </trkpt>
      <trkpt lat="44.65949" lon="6.69248">
        <ele>1768</ele>
        <time>2020-08-04T07:33:05Z</time>
      </trkpt>
      <trkpt lat="44.65931" lon="6.69234">
        <ele>1774</ele>
        <time>2020-08-04T07:33:20Z</time>
      </trkpt>
      <trkpt lat="44.65912" lon="6.69216">
        <ele>1777</ele>
        <time>2020-08-04T07:33:36Z</time>
      </trkpt>
      <trkpt lat="44.65891" lon="6.69198">
        <ele>1782</ele>
        <time>2020-08-04T07:33:53Z</time>
      </trkpt>
      <trkpt lat="44.65887" lon="6.69173">
        <ele>1782</ele>
        <time>2020-08-04T07:34:07Z</time>
      </trkpt>
      <trkpt lat="44.65881" lon="6.69146">
        <ele>1787</ele>
        <time>2020-08-04T07:34:23Z</time>
      </trkpt>
      <trkpt lat="44.65881" lon="6.69122">
        <ele>1787</ele>
        <time>2020-08-04T07:34:36Z</time>
      </trkpt>
      <trkpt lat="44.65882" lon="6.69121">
        <ele>1787</ele>
        <time>2020-08-04T07:34:37Z</time>
      </trkpt>
      <trkpt lat="44.65882" lon="6.69119">
        <ele>1787</ele>
        <time>2020-08-04T07:34:38Z</time>
      </trkpt>
      <trkpt lat="44.65882" lon="6.69117">
        <ele>1787</ele>
        <time>2020-08-04T07:34:39Z</time>
      </trkpt>
      <trkpt lat="44.65882" lon="6.69115">
        <ele>1787</ele>
        <time>2020-08-04T07:34:40Z</time>
      </trkpt>
      <trkpt lat="44.65882" lon="6.69113">
        <ele>1787</ele>
        <time>2020-08-04T07:34:41Z</time>
      </trkpt>
      <trkpt lat="44.65881" lon="6.69111">
        <ele>1788</ele>
        <time>2020-08-04T07:34:42Z</time>
      </trkpt>
      <trkpt lat="44.65881" lon="6.69109">
        <ele>1788</ele>
        <time>2020-08-04T07:34:43Z</time>
      </trkpt>
      <trkpt lat="44.65872" lon="6.69078">
        <ele>1793</ele>
        <time>2020-08-04T07:35:00Z</time>
      </trkpt>
      <trkpt lat="44.6586" lon="6.69053">
        <ele>1797</ele>
        <time>2020-08-04T07:35:16Z</time>
      </trkpt>
      <trkpt lat="44.65852" lon="6.69029">
        <ele>1799</ele>
        <time>2020-08-04T07:35:30Z</time>
      </trkpt>
      <trkpt lat="44.65836" lon="6.69003">
        <ele>1803</ele>
        <time>2020-08-04T07:35:46Z</time>
      </trkpt>
      <trkpt lat="44.65819" lon="6.68974">
        <ele>1811</ele>
        <time>2020-08-04T07:36:05Z</time>
      </trkpt>
      <trkpt lat="44.65802" lon="6.68952">
        <ele>1818</ele>
        <time>2020-08-04T07:36:22Z</time>
      </trkpt>
      <trkpt lat="44.65788" lon="6.68937">
        <ele>1823</ele>
        <time>2020-08-04T07:36:34Z</time>
      </trkpt>
      <trkpt lat="44.65785" lon="6.68928">
        <ele>1824</ele>
        <time>2020-08-04T07:36:40Z</time>
      </trkpt>
      <trkpt lat="44.65785" lon="6.68926">
        <ele>1824</ele>
        <time>2020-08-04T07:36:41Z</time>
      </trkpt>
      <trkpt lat="44.65785" lon="6.68924">
        <ele>1824</ele>
        <time>2020-08-04T07:36:42Z</time>
      </trkpt>
      <trkpt lat="44.65785" lon="6.68922">
        <ele>1824</ele>
        <time>2020-08-04T07:36:43Z</time>
      </trkpt>
      <trkpt lat="44.65785" lon="6.6892">
        <ele>1824</ele>
        <time>2020-08-04T07:36:44Z</time>
      </trkpt>
      <trkpt lat="44.65786" lon="6.68919">
        <ele>1824</ele>
        <time>2020-08-04T07:36:45Z</time>
      </trkpt>
      <trkpt lat="44.65787" lon="6.68918">
        <ele>1823</ele>
        <time>2020-08-04T07:36:46Z</time>
      </trkpt>
      <trkpt lat="44.65787" lon="6.68917">
        <ele>1823</ele>
        <time>2020-08-04T07:36:47Z</time>
      </trkpt>
      <trkpt lat="44.65788" lon="6.68916">
        <ele>1823</ele>
        <time>2020-08-04T07:36:48Z</time>
      </trkpt>
      <trkpt lat="44.65789" lon="6.68915">
        <ele>1823</ele>
        <time>2020-08-04T07:36:49Z</time>
      </trkpt>
      <trkpt lat="44.65811" lon="6.68898">
        <ele>1816</ele>
        <time>2020-08-04T07:37:06Z</time>
      </trkpt>
      <trkpt lat="44.65835" lon="6.68876">
        <ele>1811</ele>
        <time>2020-08-04T07:37:22Z</time>
      </trkpt>
      <trkpt lat="44.65847" lon="6.68842">
        <ele>1816</ele>
        <time>2020-08-04T07:37:36Z</time>
      </trkpt>
      <trkpt lat="44.65853" lon="6.68823">
        <ele>1820</ele>
        <time>2020-08-04T07:37:44Z</time>
      </trkpt>
      <trkpt lat="44.65853" lon="6.6882">
        <ele>1821</ele>
        <time>2020-08-04T07:37:45Z</time>
      </trkpt>
      <trkpt lat="44.65852" lon="6.68818">
        <ele>1822</ele>
        <time>2020-08-04T07:37:46Z</time>
      </trkpt>
      <trkpt lat="44.65851" lon="6.68815">
        <ele>1823</ele>
        <time>2020-08-04T07:37:47Z</time>
      </trkpt>
      <trkpt lat="44.6585" lon="6.68814">
        <ele>1824</ele>
        <time>2020-08-04T07:37:48Z</time>
      </trkpt>
      <trkpt lat="44.65848" lon="6.68814">
        <ele>1825</ele>
        <time>2020-08-04T07:37:49Z</time>
      </trkpt>
      <trkpt lat="44.65847" lon="6.68815">
        <ele>1825</ele>
        <time>2020-08-04T07:37:50Z</time>
      </trkpt>
      <trkpt lat="44.65845" lon="6.68817">
        <ele>1825</ele>
        <time>2020-08-04T07:37:51Z</time>
      </trkpt>
      <trkpt lat="44.65843" lon="6.68818">
        <ele>1825</ele>
        <time>2020-08-04T07:37:52Z</time>
      </trkpt>
      <trkpt lat="44.65843" lon="6.68821">
        <ele>1824</ele>
        <time>2020-08-04T07:37:53Z</time>
      </trkpt>
      <trkpt lat="44.65842" lon="6.68824">
        <ele>1824</ele>
        <time>2020-08-04T07:37:54Z</time>
      </trkpt>
      <trkpt lat="44.65842" lon="6.68826">
        <ele>1823</ele>
        <time>2020-08-04T07:37:55Z</time>
      </trkpt>
      <trkpt lat="44.65842" lon="6.68829">
        <ele>1822</ele>
        <time>2020-08-04T07:37:56Z</time>
      </trkpt>
      <trkpt lat="44.65841" lon="6.68831">
        <ele>1822</ele>
        <time>2020-08-04T07:37:57Z</time>
      </trkpt>
      <trkpt lat="44.6584" lon="6.68833">
        <ele>1821</ele>
        <time>2020-08-04T07:37:58Z</time>
      </trkpt>
      <trkpt lat="44.65838" lon="6.68835">
        <ele>1821</ele>
        <time>2020-08-04T07:37:59Z</time>
      </trkpt>
      <trkpt lat="44.65837" lon="6.68837">
        <ele>1821</ele>
        <time>2020-08-04T07:38:00Z</time>
      </trkpt>
      <trkpt lat="44.65836" lon="6.68839">
        <ele>1821</ele>
        <time>2020-08-04T07:38:01Z</time>
      </trkpt>
      <trkpt lat="44.65836" lon="6.68841">
        <ele>1821</ele>
        <time>2020-08-04T07:38:02Z</time>
      </trkpt>
      <trkpt lat="44.65818" lon="6.68872">
        <ele>1819</ele>
        <time>2020-08-04T07:38:22Z</time>
      </trkpt>
      <trkpt lat="44.65795" lon="6.68883">
        <ele>1826</ele>
        <time>2020-08-04T07:38:37Z</time>
      </trkpt>
      <trkpt lat="44.65773" lon="6.68903">
        <ele>1831</ele>
        <time>2020-08-04T07:38:56Z</time>
      </trkpt>
      <trkpt lat="44.65748" lon="6.68924">
        <ele>1839</ele>
        <time>2020-08-04T07:39:13Z</time>
      </trkpt>
      <trkpt lat="44.65749" lon="6.68941">
        <ele>1838</ele>
        <time>2020-08-04T07:39:21Z</time>
      </trkpt>
      <trkpt lat="44.6575" lon="6.68942">
        <ele>1837</ele>
        <time>2020-08-04T07:39:22Z</time>
      </trkpt>
      <trkpt lat="44.65763" lon="6.68972">
        <ele>1839</ele>
        <time>2020-08-04T07:39:39Z</time>
      </trkpt>
      <trkpt lat="44.65776" lon="6.68999">
        <ele>1841</ele>
        <time>2020-08-04T07:39:54Z</time>
      </trkpt>
      <trkpt lat="44.65789" lon="6.69031">
        <ele>1843</ele>
        <time>2020-08-04T07:40:10Z</time>
      </trkpt>
      <trkpt lat="44.65795" lon="6.69062">
        <ele>1848</ele>
        <time>2020-08-04T07:40:24Z</time>
      </trkpt>
      <trkpt lat="44.65795" lon="6.6909">
        <ele>1851</ele>
        <time>2020-08-04T07:40:36Z</time>
      </trkpt>
      <trkpt lat="44.65795" lon="6.69092">
        <ele>1851</ele>
        <time>2020-08-04T07:40:37Z</time>
      </trkpt>
      <trkpt lat="44.65795" lon="6.69094">
        <ele>1852</ele>
        <time>2020-08-04T07:40:38Z</time>
      </trkpt>
      <trkpt lat="44.65795" lon="6.69097">
        <ele>1852</ele>
        <time>2020-08-04T07:40:39Z</time>
      </trkpt>
      <trkpt lat="44.65794" lon="6.69099">
        <ele>1853</ele>
        <time>2020-08-04T07:40:40Z</time>
      </trkpt>
      <trkpt lat="44.65794" lon="6.69101">
        <ele>1853</ele>
        <time>2020-08-04T07:40:41Z</time>
      </trkpt>
      <trkpt lat="44.65794" lon="6.69104">
        <ele>1853</ele>
        <time>2020-08-04T07:40:42Z</time>
      </trkpt>
      <trkpt lat="44.65795" lon="6.69106">
        <ele>1853</ele>
        <time>2020-08-04T07:40:43Z</time>
      </trkpt>
      <trkpt lat="44.65795" lon="6.69108">
        <ele>1853</ele>
        <time>2020-08-04T07:40:44Z</time>
      </trkpt>
      <trkpt lat="44.65794" lon="6.69111">
        <ele>1854</ele>
        <time>2020-08-04T07:40:45Z</time>
      </trkpt>
      <trkpt lat="44.65793" lon="6.69126">
        <ele>1856</ele>
        <time>2020-08-04T07:40:52Z</time>
      </trkpt>
      <trkpt lat="44.65794" lon="6.69129">
        <ele>1856</ele>
        <time>2020-08-04T07:40:53Z</time>
      </trkpt>
      <trkpt lat="44.65794" lon="6.69165">
        <ele>1856</ele>
        <time>2020-08-04T07:41:09Z</time>
      </trkpt>
      <trkpt lat="44.65792" lon="6.69178">
        <ele>1857</ele>
        <time>2020-08-04T07:41:16Z</time>
      </trkpt>
      <trkpt lat="44.65792" lon="6.6918">
        <ele>1856</ele>
        <time>2020-08-04T07:41:17Z</time>
      </trkpt>
      <trkpt lat="44.65792" lon="6.69182">
        <ele>1856</ele>
        <time>2020-08-04T07:41:18Z</time>
      </trkpt>
      <trkpt lat="44.65792" lon="6.69185">
        <ele>1856</ele>
        <time>2020-08-04T07:41:19Z</time>
      </trkpt>
      <trkpt lat="44.65792" lon="6.69187">
        <ele>1856</ele>
        <time>2020-08-04T07:41:20Z</time>
      </trkpt>
      <trkpt lat="44.65795" lon="6.69216">
        <ele>1851</ele>
        <time>2020-08-04T07:41:34Z</time>
      </trkpt>
      <trkpt lat="44.65795" lon="6.69219">
        <ele>1851</ele>
        <time>2020-08-04T07:41:36Z</time>
      </trkpt>
      <trkpt lat="44.65791" lon="6.6925">
        <ele>1860</ele>
        <time>2020-08-04T07:41:52Z</time>
      </trkpt>
      <trkpt lat="44.65793" lon="6.69272">
        <ele>1861</ele>
        <time>2020-08-04T07:42:06Z</time>
      </trkpt>
      <trkpt lat="44.65796" lon="6.69289">
        <ele>1861</ele>
        <time>2020-08-04T07:42:19Z</time>
      </trkpt>
      <trkpt lat="44.65796" lon="6.6929">
        <ele>1861</ele>
        <time>2020-08-04T07:42:20Z</time>
      </trkpt>
      <trkpt lat="44.65797" lon="6.6931">
        <ele>1863</ele>
        <time>2020-08-04T07:42:35Z</time>
      </trkpt>
      <trkpt lat="44.65803" lon="6.69327">
        <ele>1859</ele>
        <time>2020-08-04T07:42:50Z</time>
      </trkpt>
      <trkpt lat="44.65803" lon="6.69329">
        <ele>1859</ele>
        <time>2020-08-04T07:42:51Z</time>
      </trkpt>
      <trkpt lat="44.65801" lon="6.69337">
        <ele>1861</ele>
        <time>2020-08-04T07:42:56Z</time>
      </trkpt>
      <trkpt lat="44.65801" lon="6.69339">
        <ele>1861</ele>
        <time>2020-08-04T07:42:57Z</time>
      </trkpt>
      <trkpt lat="44.658" lon="6.6934">
        <ele>1862</ele>
        <time>2020-08-04T07:42:58Z</time>
      </trkpt>
      <trkpt lat="44.65799" lon="6.69341">
        <ele>1862</ele>
        <time>2020-08-04T07:42:59Z</time>
      </trkpt>
      <trkpt lat="44.65786" lon="6.69324">
        <ele>1873</ele>
        <time>2020-08-04T07:43:12Z</time>
      </trkpt>
      <trkpt lat="44.65781" lon="6.69306">
        <ele>1874</ele>
        <time>2020-08-04T07:43:20Z</time>
      </trkpt>
      <trkpt lat="44.65765" lon="6.69265">
        <ele>1881</ele>
        <time>2020-08-04T07:43:39Z</time>
      </trkpt>
      <trkpt lat="44.65763" lon="6.69258">
        <ele>1881</ele>
        <time>2020-08-04T07:43:42Z</time>
      </trkpt>
      <trkpt lat="44.65763" lon="6.69256">
        <ele>1880</ele>
        <time>2020-08-04T07:43:43Z</time>
      </trkpt>
      <trkpt lat="44.65763" lon="6.69253">
        <ele>1880</ele>
        <time>2020-08-04T07:43:44Z</time>
      </trkpt>
      <trkpt lat="44.65763" lon="6.6925">
        <ele>1879</ele>
        <time>2020-08-04T07:43:45Z</time>
      </trkpt>
      <trkpt lat="44.65762" lon="6.69248">
        <ele>1880</ele>
        <time>2020-08-04T07:43:46Z</time>
      </trkpt>
      <trkpt lat="44.65763" lon="6.69245">
        <ele>1880</ele>
        <time>2020-08-04T07:43:47Z</time>
      </trkpt>
      <trkpt lat="44.65763" lon="6.69243">
        <ele>1879</ele>
        <time>2020-08-04T07:43:48Z</time>
      </trkpt>
      <trkpt lat="44.65764" lon="6.69241">
        <ele>1878</ele>
        <time>2020-08-04T07:43:49Z</time>
      </trkpt>
      <trkpt lat="44.65764" lon="6.69239">
        <ele>1878</ele>
        <time>2020-08-04T07:43:50Z</time>
      </trkpt>
      <trkpt lat="44.65764" lon="6.69237">
        <ele>1878</ele>
        <time>2020-08-04T07:43:51Z</time>
      </trkpt>
      <trkpt lat="44.65764" lon="6.69234">
        <ele>1878</ele>
        <time>2020-08-04T07:43:52Z</time>
      </trkpt>
      <trkpt lat="44.65763" lon="6.69232">
        <ele>1878</ele>
        <time>2020-08-04T07:43:53Z</time>
      </trkpt>
      <trkpt lat="44.65763" lon="6.6923">
        <ele>1879</ele>
        <time>2020-08-04T07:43:54Z</time>
      </trkpt>
      <trkpt lat="44.65763" lon="6.69228">
        <ele>1879</ele>
        <time>2020-08-04T07:43:55Z</time>
      </trkpt>
      <trkpt lat="44.65763" lon="6.69226">
        <ele>1879</ele>
        <time>2020-08-04T07:43:56Z</time>
      </trkpt>
      <trkpt lat="44.65755" lon="6.692">
        <ele>1891</ele>
        <time>2020-08-04T07:44:09Z</time>
      </trkpt>
      <trkpt lat="44.65748" lon="6.69172">
        <ele>1898</ele>
        <time>2020-08-04T07:44:22Z</time>
      </trkpt>
      <trkpt lat="44.65741" lon="6.69144">
        <ele>1899</ele>
        <time>2020-08-04T07:44:35Z</time>
      </trkpt>
      <trkpt lat="44.6574" lon="6.69123">
        <ele>1895</ele>
        <time>2020-08-04T07:44:47Z</time>
      </trkpt>
      <trkpt lat="44.65739" lon="6.69116">
        <ele>1893</ele>
        <time>2020-08-04T07:44:51Z</time>
      </trkpt>
      <trkpt lat="44.6574" lon="6.69114">
        <ele>1893</ele>
        <time>2020-08-04T07:44:52Z</time>
      </trkpt>
      <trkpt lat="44.6574" lon="6.69112">
        <ele>1892</ele>
        <time>2020-08-04T07:44:53Z</time>
      </trkpt>
      <trkpt lat="44.6574" lon="6.69111">
        <ele>1891</ele>
        <time>2020-08-04T07:44:54Z</time>
      </trkpt>
      <trkpt lat="44.6574" lon="6.69109">
        <ele>1891</ele>
        <time>2020-08-04T07:44:55Z</time>
      </trkpt>
      <trkpt lat="44.6574" lon="6.69107">
        <ele>1891</ele>
        <time>2020-08-04T07:44:56Z</time>
      </trkpt>
      <trkpt lat="44.6574" lon="6.69105">
        <ele>1890</ele>
        <time>2020-08-04T07:44:57Z</time>
      </trkpt>
      <trkpt lat="44.65733" lon="6.69081">
        <ele>1889</ele>
        <time>2020-08-04T07:45:11Z</time>
      </trkpt>
      <trkpt lat="44.65718" lon="6.69056">
        <ele>1892</ele>
        <time>2020-08-04T07:45:27Z</time>
      </trkpt>
      <trkpt lat="44.65695" lon="6.69036">
        <ele>1895</ele>
        <time>2020-08-04T07:45:45Z</time>
      </trkpt>
      <trkpt lat="44.65673" lon="6.69027">
        <ele>1902</ele>
        <time>2020-08-04T07:46:02Z</time>
      </trkpt>
      <trkpt lat="44.65654" lon="6.69019">
        <ele>1905</ele>
        <time>2020-08-04T07:46:17Z</time>
      </trkpt>
      <trkpt lat="44.65631" lon="6.69017">
        <ele>1908</ele>
        <time>2020-08-04T07:46:33Z</time>
      </trkpt>
      <trkpt lat="44.65609" lon="6.69009">
        <ele>1911</ele>
        <time>2020-08-04T07:46:50Z</time>
      </trkpt>
      <trkpt lat="44.65609" lon="6.68973">
        <ele>1907</ele>
        <time>2020-08-04T07:47:06Z</time>
      </trkpt>
      <trkpt lat="44.65603" lon="6.68952">
        <ele>1909</ele>
        <time>2020-08-04T07:47:18Z</time>
      </trkpt>
      <trkpt lat="44.65603" lon="6.6895">
        <ele>1909</ele>
        <time>2020-08-04T07:47:19Z</time>
      </trkpt>
      <trkpt lat="44.656" lon="6.68939">
        <ele>1910</ele>
        <time>2020-08-04T07:47:25Z</time>
      </trkpt>
      <trkpt lat="44.656" lon="6.68937">
        <ele>1910</ele>
        <time>2020-08-04T07:47:26Z</time>
      </trkpt>
      <trkpt lat="44.656" lon="6.68936">
        <ele>1910</ele>
        <time>2020-08-04T07:47:27Z</time>
      </trkpt>
      <trkpt lat="44.656" lon="6.68934">
        <ele>1910</ele>
        <time>2020-08-04T07:47:28Z</time>
      </trkpt>
      <trkpt lat="44.65599" lon="6.68932">
        <ele>1910</ele>
        <time>2020-08-04T07:47:29Z</time>
      </trkpt>
      <trkpt lat="44.65597" lon="6.68925">
        <ele>1911</ele>
        <time>2020-08-04T07:47:33Z</time>
      </trkpt>
      <trkpt lat="44.65597" lon="6.68923">
        <ele>1911</ele>
        <time>2020-08-04T07:47:34Z</time>
      </trkpt>
      <trkpt lat="44.65597" lon="6.68921">
        <ele>1911</ele>
        <time>2020-08-04T07:47:35Z</time>
      </trkpt>
      <trkpt lat="44.65597" lon="6.6892">
        <ele>1911</ele>
        <time>2020-08-04T07:47:36Z</time>
      </trkpt>
      <trkpt lat="44.65597" lon="6.68918">
        <ele>1911</ele>
        <time>2020-08-04T07:47:37Z</time>
      </trkpt>
      <trkpt lat="44.65597" lon="6.68916">
        <ele>1911</ele>
        <time>2020-08-04T07:47:38Z</time>
      </trkpt>
      <trkpt lat="44.65596" lon="6.68914">
        <ele>1911</ele>
        <time>2020-08-04T07:47:39Z</time>
      </trkpt>
      <trkpt lat="44.65596" lon="6.68912">
        <ele>1911</ele>
        <time>2020-08-04T07:47:40Z</time>
      </trkpt>
      <trkpt lat="44.65595" lon="6.6891">
        <ele>1911</ele>
        <time>2020-08-04T07:47:41Z</time>
      </trkpt>
      <trkpt lat="44.65595" lon="6.68908">
        <ele>1911</ele>
        <time>2020-08-04T07:47:42Z</time>
      </trkpt>
      <trkpt lat="44.65584" lon="6.68875">
        <ele>1916</ele>
        <time>2020-08-04T07:47:57Z</time>
      </trkpt>
      <trkpt lat="44.65583" lon="6.68873">
        <ele>1916</ele>
        <time>2020-08-04T07:47:58Z</time>
      </trkpt>
      <trkpt lat="44.65582" lon="6.68872">
        <ele>1916</ele>
        <time>2020-08-04T07:47:59Z</time>
      </trkpt>
      <trkpt lat="44.65582" lon="6.6887">
        <ele>1917</ele>
        <time>2020-08-04T07:48:00Z</time>
      </trkpt>
      <trkpt lat="44.65581" lon="6.68869">
        <ele>1917</ele>
        <time>2020-08-04T07:48:01Z</time>
      </trkpt>
      <trkpt lat="44.6558" lon="6.68867">
        <ele>1917</ele>
        <time>2020-08-04T07:48:02Z</time>
      </trkpt>
      <trkpt lat="44.65578" lon="6.68866">
        <ele>1917</ele>
        <time>2020-08-04T07:48:03Z</time>
      </trkpt>
      <trkpt lat="44.65577" lon="6.68865">
        <ele>1918</ele>
        <time>2020-08-04T07:48:04Z</time>
      </trkpt>
      <trkpt lat="44.65576" lon="6.68865">
        <ele>1918</ele>
        <time>2020-08-04T07:48:05Z</time>
      </trkpt>
      <trkpt lat="44.65575" lon="6.68865">
        <ele>1918</ele>
        <time>2020-08-04T07:48:06Z</time>
      </trkpt>
      <trkpt lat="44.65559" lon="6.6888">
        <ele>1919</ele>
        <time>2020-08-04T07:48:18Z</time>
      </trkpt>
      <trkpt lat="44.65534" lon="6.68894">
        <ele>1922</ele>
        <time>2020-08-04T07:48:35Z</time>
      </trkpt>
      <trkpt lat="44.65511" lon="6.68905">
        <ele>1927</ele>
        <time>2020-08-04T07:48:51Z</time>
      </trkpt>
      <trkpt lat="44.6549" lon="6.68907">
        <ele>1929</ele>
        <time>2020-08-04T07:49:05Z</time>
      </trkpt>
      <trkpt lat="44.65468" lon="6.68912">
        <ele>1931</ele>
        <time>2020-08-04T07:49:21Z</time>
      </trkpt>
      <trkpt lat="44.65447" lon="6.68917">
        <ele>1929</ele>
        <time>2020-08-04T07:49:37Z</time>
      </trkpt>
      <trkpt lat="44.6542" lon="6.68922">
        <ele>1931</ele>
        <time>2020-08-04T07:49:53Z</time>
      </trkpt>
      <trkpt lat="44.6541" lon="6.68926">
        <ele>1934</ele>
        <time>2020-08-04T07:50:00Z</time>
      </trkpt>
      <trkpt lat="44.65408" lon="6.68926">
        <ele>1934</ele>
        <time>2020-08-04T07:50:01Z</time>
      </trkpt>
      <trkpt lat="44.65407" lon="6.68927">
        <ele>1935</ele>
        <time>2020-08-04T07:50:02Z</time>
      </trkpt>
      <trkpt lat="44.65374" lon="6.68931">
        <ele>1938</ele>
        <time>2020-08-04T07:50:21Z</time>
      </trkpt>
      <trkpt lat="44.65348" lon="6.68931">
        <ele>1940</ele>
        <time>2020-08-04T07:50:37Z</time>
      </trkpt>
      <trkpt lat="44.65322" lon="6.68935">
        <ele>1946</ele>
        <time>2020-08-04T07:50:54Z</time>
      </trkpt>
      <trkpt lat="44.65297" lon="6.68939">
        <ele>1952</ele>
        <time>2020-08-04T07:51:11Z</time>
      </trkpt>
      <trkpt lat="44.65291" lon="6.68939">
        <ele>1953</ele>
        <time>2020-08-04T07:51:16Z</time>
      </trkpt>
      <trkpt lat="44.65289" lon="6.68937">
        <ele>1952</ele>
        <time>2020-08-04T07:51:19Z</time>
      </trkpt>
      <trkpt lat="44.65289" lon="6.68937">
        <ele>1952</ele>
        <time>2020-08-04T07:51:20Z</time>
      </trkpt>
      <trkpt lat="44.65288" lon="6.68937">
        <ele>1953</ele>
        <time>2020-08-04T07:51:21Z</time>
      </trkpt>
      <trkpt lat="44.65286" lon="6.68936">
        <ele>1953</ele>
        <time>2020-08-04T07:51:22Z</time>
      </trkpt>
      <trkpt lat="44.65285" lon="6.68936">
        <ele>1953</ele>
        <time>2020-08-04T07:51:23Z</time>
      </trkpt>
      <trkpt lat="44.65284" lon="6.68936">
        <ele>1953</ele>
        <time>2020-08-04T07:51:24Z</time>
      </trkpt>
      <trkpt lat="44.65282" lon="6.68935">
        <ele>1953</ele>
        <time>2020-08-04T07:51:25Z</time>
      </trkpt>
      <trkpt lat="44.65281" lon="6.68934">
        <ele>1953</ele>
        <time>2020-08-04T07:51:26Z</time>
      </trkpt>
      <trkpt lat="44.6528" lon="6.68934">
        <ele>1953</ele>
        <time>2020-08-04T07:51:27Z</time>
      </trkpt>
      <trkpt lat="44.65279" lon="6.68933">
        <ele>1953</ele>
        <time>2020-08-04T07:51:28Z</time>
      </trkpt>
      <trkpt lat="44.65278" lon="6.68934">
        <ele>1953</ele>
        <time>2020-08-04T07:51:29Z</time>
      </trkpt>
      <trkpt lat="44.65277" lon="6.68933">
        <ele>1953</ele>
        <time>2020-08-04T07:51:30Z</time>
      </trkpt>
      <trkpt lat="44.65276" lon="6.68932">
        <ele>1953</ele>
        <time>2020-08-04T07:51:31Z</time>
      </trkpt>
      <trkpt lat="44.65275" lon="6.68932">
        <ele>1953</ele>
        <time>2020-08-04T07:51:32Z</time>
      </trkpt>
      <trkpt lat="44.65274" lon="6.68932">
        <ele>1953</ele>
        <time>2020-08-04T07:51:33Z</time>
      </trkpt>
      <trkpt lat="44.65273" lon="6.68931">
        <ele>1953</ele>
        <time>2020-08-04T07:51:34Z</time>
      </trkpt>
      <trkpt lat="44.65272" lon="6.6893">
        <ele>1953</ele>
        <time>2020-08-04T07:51:35Z</time>
      </trkpt>
      <trkpt lat="44.65271" lon="6.68928">
        <ele>1953</ele>
        <time>2020-08-04T07:51:36Z</time>
      </trkpt>
      <trkpt lat="44.6527" lon="6.68928">
        <ele>1952</ele>
        <time>2020-08-04T07:51:37Z</time>
      </trkpt>
      <trkpt lat="44.65269" lon="6.68928">
        <ele>1953</ele>
        <time>2020-08-04T07:51:38Z</time>
      </trkpt>
      <trkpt lat="44.65268" lon="6.68928">
        <ele>1953</ele>
        <time>2020-08-04T07:51:39Z</time>
      </trkpt>
      <trkpt lat="44.65267" lon="6.68926">
        <ele>1952</ele>
        <time>2020-08-04T07:51:40Z</time>
      </trkpt>
      <trkpt lat="44.65266" lon="6.68925">
        <ele>1952</ele>
        <time>2020-08-04T07:51:41Z</time>
      </trkpt>
      <trkpt lat="44.65264" lon="6.68924">
        <ele>1952</ele>
        <time>2020-08-04T07:51:42Z</time>
      </trkpt>
      <trkpt lat="44.65263" lon="6.68923">
        <ele>1952</ele>
        <time>2020-08-04T07:51:43Z</time>
      </trkpt>
      <trkpt lat="44.65262" lon="6.68923">
        <ele>1952</ele>
        <time>2020-08-04T07:51:44Z</time>
      </trkpt>
      <trkpt lat="44.65261" lon="6.68922">
        <ele>1952</ele>
        <time>2020-08-04T07:51:45Z</time>
      </trkpt>
      <trkpt lat="44.6526" lon="6.68922">
        <ele>1952</ele>
        <time>2020-08-04T07:51:46Z</time>
      </trkpt>
      <trkpt lat="44.65259" lon="6.68922">
        <ele>1953</ele>
        <time>2020-08-04T07:51:47Z</time>
      </trkpt>
      <trkpt lat="44.65258" lon="6.68921">
        <ele>1953</ele>
        <time>2020-08-04T07:51:48Z</time>
      </trkpt>
      <trkpt lat="44.65256" lon="6.6892">
        <ele>1952</ele>
        <time>2020-08-04T07:51:49Z</time>
      </trkpt>
      <trkpt lat="44.65255" lon="6.6892">
        <ele>1953</ele>
        <time>2020-08-04T07:51:50Z</time>
      </trkpt>
      <trkpt lat="44.65253" lon="6.6892">
        <ele>1953</ele>
        <time>2020-08-04T07:51:51Z</time>
      </trkpt>
      <trkpt lat="44.65238" lon="6.68913">
        <ele>1953</ele>
        <time>2020-08-04T07:52:03Z</time>
      </trkpt>
      <trkpt lat="44.65223" lon="6.6891">
        <ele>1955</ele>
        <time>2020-08-04T07:52:17Z</time>
      </trkpt>
      <trkpt lat="44.65221" lon="6.6891">
        <ele>1955</ele>
        <time>2020-08-04T07:52:20Z</time>
      </trkpt>
      <trkpt lat="44.65208" lon="6.68908">
        <ele>1956</ele>
        <time>2020-08-04T07:52:34Z</time>
      </trkpt>
      <trkpt lat="44.65206" lon="6.68908">
        <ele>1957</ele>
        <time>2020-08-04T07:52:35Z</time>
      </trkpt>
      <trkpt lat="44.65205" lon="6.68908">
        <ele>1957</ele>
        <time>2020-08-04T07:52:36Z</time>
      </trkpt>
      <trkpt lat="44.65203" lon="6.68908">
        <ele>1957</ele>
        <time>2020-08-04T07:52:37Z</time>
      </trkpt>
      <trkpt lat="44.65202" lon="6.68908">
        <ele>1957</ele>
        <time>2020-08-04T07:52:38Z</time>
      </trkpt>
      <trkpt lat="44.65201" lon="6.68908">
        <ele>1957</ele>
        <time>2020-08-04T07:52:39Z</time>
      </trkpt>
      <trkpt lat="44.652" lon="6.68909">
        <ele>1958</ele>
        <time>2020-08-04T07:52:40Z</time>
      </trkpt>
      <trkpt lat="44.65181" lon="6.68908">
        <ele>1960</ele>
        <time>2020-08-04T07:52:54Z</time>
      </trkpt>
      <trkpt lat="44.65163" lon="6.68905">
        <ele>1963</ele>
        <time>2020-08-04T07:53:07Z</time>
      </trkpt>
      <trkpt lat="44.65142" lon="6.68901">
        <ele>1972</ele>
        <time>2020-08-04T07:53:23Z</time>
      </trkpt>
      <trkpt lat="44.65118" lon="6.68883">
        <ele>1976</ele>
        <time>2020-08-04T07:53:40Z</time>
      </trkpt>
      <trkpt lat="44.65089" lon="6.68862">
        <ele>1980</ele>
        <time>2020-08-04T07:53:59Z</time>
      </trkpt>
      <trkpt lat="44.65074" lon="6.68845">
        <ele>1979</ele>
        <time>2020-08-04T07:54:12Z</time>
      </trkpt>
      <trkpt lat="44.65065" lon="6.68833">
        <ele>1976</ele>
        <time>2020-08-04T07:54:20Z</time>
      </trkpt>
      <trkpt lat="44.65064" lon="6.68832">
        <ele>1976</ele>
        <time>2020-08-04T07:54:21Z</time>
      </trkpt>
      <trkpt lat="44.65064" lon="6.6883">
        <ele>1976</ele>
        <time>2020-08-04T07:54:22Z</time>
      </trkpt>
      <trkpt lat="44.65063" lon="6.68829">
        <ele>1975</ele>
        <time>2020-08-04T07:54:23Z</time>
      </trkpt>
      <trkpt lat="44.65062" lon="6.68827">
        <ele>1975</ele>
        <time>2020-08-04T07:54:24Z</time>
      </trkpt>
      <trkpt lat="44.65061" lon="6.68825">
        <ele>1975</ele>
        <time>2020-08-04T07:54:25Z</time>
      </trkpt>
      <trkpt lat="44.6506" lon="6.68823">
        <ele>1974</ele>
        <time>2020-08-04T07:54:26Z</time>
      </trkpt>
      <trkpt lat="44.65046" lon="6.68798">
        <ele>1972</ele>
        <time>2020-08-04T07:54:38Z</time>
      </trkpt>
      <trkpt lat="44.65027" lon="6.68778">
        <ele>1978</ele>
        <time>2020-08-04T07:54:53Z</time>
      </trkpt>
      <trkpt lat="44.65011" lon="6.68755">
        <ele>1983</ele>
        <time>2020-08-04T07:55:09Z</time>
      </trkpt>
      <trkpt lat="44.64997" lon="6.68733">
        <ele>1988</ele>
        <time>2020-08-04T07:55:24Z</time>
      </trkpt>
      <trkpt lat="44.64989" lon="6.68722">
        <ele>1990</ele>
        <time>2020-08-04T07:55:33Z</time>
      </trkpt>
      <trkpt lat="44.64988" lon="6.6872">
        <ele>1990</ele>
        <time>2020-08-04T07:55:34Z</time>
      </trkpt>
      <trkpt lat="44.64988" lon="6.68719">
        <ele>1990</ele>
        <time>2020-08-04T07:55:35Z</time>
      </trkpt>
      <trkpt lat="44.64987" lon="6.68717">
        <ele>1990</ele>
        <time>2020-08-04T07:55:36Z</time>
      </trkpt>
      <trkpt lat="44.64986" lon="6.68716">
        <ele>1990</ele>
        <time>2020-08-04T07:55:37Z</time>
      </trkpt>
      <trkpt lat="44.64985" lon="6.68714">
        <ele>1991</ele>
        <time>2020-08-04T07:55:38Z</time>
      </trkpt>
      <trkpt lat="44.64984" lon="6.68712">
        <ele>1991</ele>
        <time>2020-08-04T07:55:39Z</time>
      </trkpt>
      <trkpt lat="44.64983" lon="6.6871">
        <ele>1991</ele>
        <time>2020-08-04T07:55:40Z</time>
      </trkpt>
      <trkpt lat="44.64982" lon="6.68709">
        <ele>1991</ele>
        <time>2020-08-04T07:55:41Z</time>
      </trkpt>
      <trkpt lat="44.64982" lon="6.68707">
        <ele>1991</ele>
        <time>2020-08-04T07:55:42Z</time>
      </trkpt>
      <trkpt lat="44.64982" lon="6.68705">
        <ele>1991</ele>
        <time>2020-08-04T07:55:43Z</time>
      </trkpt>
      <trkpt lat="44.64981" lon="6.68704">
        <ele>1991</ele>
        <time>2020-08-04T07:55:44Z</time>
      </trkpt>
      <trkpt lat="44.64981" lon="6.68702">
        <ele>1991</ele>
        <time>2020-08-04T07:55:45Z</time>
      </trkpt>
      <trkpt lat="44.64981" lon="6.687">
        <ele>1991</ele>
        <time>2020-08-04T07:55:46Z</time>
      </trkpt>
      <trkpt lat="44.6498" lon="6.68699">
        <ele>1991</ele>
        <time>2020-08-04T07:55:47Z</time>
      </trkpt>
      <trkpt lat="44.64979" lon="6.68697">
        <ele>1991</ele>
        <time>2020-08-04T07:55:48Z</time>
      </trkpt>
      <trkpt lat="44.64979" lon="6.68695">
        <ele>1991</ele>
        <time>2020-08-04T07:55:49Z</time>
      </trkpt>
      <trkpt lat="44.64978" lon="6.68693">
        <ele>1991</ele>
        <time>2020-08-04T07:55:50Z</time>
      </trkpt>
      <trkpt lat="44.64978" lon="6.68692">
        <ele>1991</ele>
        <time>2020-08-04T07:55:51Z</time>
      </trkpt>
      <trkpt lat="44.64977" lon="6.6869">
        <ele>1991</ele>
        <time>2020-08-04T07:55:52Z</time>
      </trkpt>
      <trkpt lat="44.64977" lon="6.68688">
        <ele>1992</ele>
        <time>2020-08-04T07:55:53Z</time>
      </trkpt>
      <trkpt lat="44.64976" lon="6.68686">
        <ele>1992</ele>
        <time>2020-08-04T07:55:54Z</time>
      </trkpt>
      <trkpt lat="44.64975" lon="6.68684">
        <ele>1992</ele>
        <time>2020-08-04T07:55:55Z</time>
      </trkpt>
      <trkpt lat="44.64968" lon="6.6866">
        <ele>1994</ele>
        <time>2020-08-04T07:56:09Z</time>
      </trkpt>
      <trkpt lat="44.64963" lon="6.6863">
        <ele>1995</ele>
        <time>2020-08-04T07:56:25Z</time>
      </trkpt>
      <trkpt lat="44.64962" lon="6.6862">
        <ele>1994</ele>
        <time>2020-08-04T07:56:32Z</time>
      </trkpt>
      <trkpt lat="44.64961" lon="6.68615">
        <ele>1993</ele>
        <time>2020-08-04T07:56:35Z</time>
      </trkpt>
      <trkpt lat="44.6496" lon="6.68613">
        <ele>1993</ele>
        <time>2020-08-04T07:56:36Z</time>
      </trkpt>
      <trkpt lat="44.64955" lon="6.68603">
        <ele>1994</ele>
        <time>2020-08-04T07:56:41Z</time>
      </trkpt>
      <trkpt lat="44.64953" lon="6.686">
        <ele>1995</ele>
        <time>2020-08-04T07:56:42Z</time>
      </trkpt>
      <trkpt lat="44.64952" lon="6.68598">
        <ele>1995</ele>
        <time>2020-08-04T07:56:43Z</time>
      </trkpt>
      <trkpt lat="44.64952" lon="6.68597">
        <ele>1995</ele>
        <time>2020-08-04T07:56:44Z</time>
      </trkpt>
      <trkpt lat="44.64952" lon="6.68595">
        <ele>1995</ele>
        <time>2020-08-04T07:56:45Z</time>
      </trkpt>
      <trkpt lat="44.64951" lon="6.68593">
        <ele>1995</ele>
        <time>2020-08-04T07:56:46Z</time>
      </trkpt>
      <trkpt lat="44.64951" lon="6.68592">
        <ele>1995</ele>
        <time>2020-08-04T07:56:47Z</time>
      </trkpt>
      <trkpt lat="44.64939" lon="6.68564">
        <ele>1996</ele>
        <time>2020-08-04T07:57:02Z</time>
      </trkpt>
      <trkpt lat="44.64931" lon="6.68549">
        <ele>1998</ele>
        <time>2020-08-04T07:57:09Z</time>
      </trkpt>
      <trkpt lat="44.6493" lon="6.68547">
        <ele>1998</ele>
        <time>2020-08-04T07:57:10Z</time>
      </trkpt>
      <trkpt lat="44.6492" lon="6.68529">
        <ele>2000</ele>
        <time>2020-08-04T07:57:23Z</time>
      </trkpt>
      <trkpt lat="44.64911" lon="6.68519">
        <ele>2002</ele>
        <time>2020-08-04T08:02:58Z</time>
      </trkpt>
      <trkpt lat="44.64887" lon="6.68504">
        <ele>2006</ele>
        <time>2020-08-04T08:03:17Z</time>
      </trkpt>
      <trkpt lat="44.64868" lon="6.68492">
        <ele>2007</ele>
        <time>2020-08-04T08:03:32Z</time>
      </trkpt>
      <trkpt lat="44.64848" lon="6.68481">
        <ele>2007</ele>
        <time>2020-08-04T08:03:48Z</time>
      </trkpt>
      <trkpt lat="44.64824" lon="6.68478">
        <ele>2010</ele>
        <time>2020-08-04T08:04:06Z</time>
      </trkpt>
      <trkpt lat="44.64799" lon="6.68475">
        <ele>2010</ele>
        <time>2020-08-04T08:04:22Z</time>
      </trkpt>
      <trkpt lat="44.6478" lon="6.68481">
        <ele>2006</ele>
        <time>2020-08-04T08:04:36Z</time>
      </trkpt>
      <trkpt lat="44.6476" lon="6.68501">
        <ele>2002</ele>
        <time>2020-08-04T08:04:55Z</time>
      </trkpt>
      <trkpt lat="44.6476" lon="6.68502">
        <ele>2002</ele>
        <time>2020-08-04T08:04:56Z</time>
      </trkpt>
      <trkpt lat="44.64767" lon="6.68534">
        <ele>2008</ele>
        <time>2020-08-04T08:05:14Z</time>
      </trkpt>
      <trkpt lat="44.64785" lon="6.68563">
        <ele>2017</ele>
        <time>2020-08-04T08:05:32Z</time>
      </trkpt>
      <trkpt lat="44.64795" lon="6.68604">
        <ele>2023</ele>
        <time>2020-08-04T08:05:49Z</time>
      </trkpt>
      <trkpt lat="44.64791" lon="6.68653">
        <ele>2018</ele>
        <time>2020-08-04T08:06:06Z</time>
      </trkpt>
      <trkpt lat="44.64815" lon="6.68678">
        <ele>2021</ele>
        <time>2020-08-04T08:06:21Z</time>
      </trkpt>
      <trkpt lat="44.64846" lon="6.68685">
        <ele>2026</ele>
        <time>2020-08-04T08:06:34Z</time>
      </trkpt>
      <trkpt lat="44.64851" lon="6.68687">
        <ele>2026</ele>
        <time>2020-08-04T08:06:36Z</time>
      </trkpt>
      <trkpt lat="44.64852" lon="6.68689">
        <ele>2026</ele>
        <time>2020-08-04T08:06:37Z</time>
      </trkpt>
      <trkpt lat="44.6487" lon="6.68721">
        <ele>2026</ele>
        <time>2020-08-04T08:06:54Z</time>
      </trkpt>
      <trkpt lat="44.64886" lon="6.68734">
        <ele>2029</ele>
        <time>2020-08-04T08:07:07Z</time>
      </trkpt>
      <trkpt lat="44.64901" lon="6.68754">
        <ele>2030</ele>
        <time>2020-08-04T08:07:21Z</time>
      </trkpt>
      <trkpt lat="44.64912" lon="6.6878">
        <ele>2033</ele>
        <time>2020-08-04T08:07:38Z</time>
      </trkpt>
      <trkpt lat="44.64916" lon="6.68809">
        <ele>2037</ele>
        <time>2020-08-04T08:07:53Z</time>
      </trkpt>
      <trkpt lat="44.64919" lon="6.68838">
        <ele>2040</ele>
        <time>2020-08-04T08:08:09Z</time>
      </trkpt>
      <trkpt lat="44.64923" lon="6.68869">
        <ele>2042</ele>
        <time>2020-08-04T08:08:25Z</time>
      </trkpt>
      <trkpt lat="44.64929" lon="6.68903">
        <ele>2045</ele>
        <time>2020-08-04T08:08:43Z</time>
      </trkpt>
      <trkpt lat="44.64929" lon="6.68905">
        <ele>2045</ele>
        <time>2020-08-04T08:08:44Z</time>
      </trkpt>
      <trkpt lat="44.64929" lon="6.68907">
        <ele>2045</ele>
        <time>2020-08-04T08:08:45Z</time>
      </trkpt>
      <trkpt lat="44.64933" lon="6.68943">
        <ele>2050</ele>
        <time>2020-08-04T08:09:04Z</time>
      </trkpt>
      <trkpt lat="44.64937" lon="6.68979">
        <ele>2056</ele>
        <time>2020-08-04T08:09:22Z</time>
      </trkpt>
      <trkpt lat="44.64937" lon="6.69008">
        <ele>2058</ele>
        <time>2020-08-04T08:09:37Z</time>
      </trkpt>
      <trkpt lat="44.64937" lon="6.6901">
        <ele>2058</ele>
        <time>2020-08-04T08:09:38Z</time>
      </trkpt>
      <trkpt lat="44.64937" lon="6.69012">
        <ele>2058</ele>
        <time>2020-08-04T08:09:39Z</time>
      </trkpt>
      <trkpt lat="44.64937" lon="6.69014">
        <ele>2058</ele>
        <time>2020-08-04T08:09:40Z</time>
      </trkpt>
      <trkpt lat="44.64937" lon="6.69017">
        <ele>2058</ele>
        <time>2020-08-04T08:09:41Z</time>
      </trkpt>
      <trkpt lat="44.64937" lon="6.69018">
        <ele>2058</ele>
        <time>2020-08-04T08:09:42Z</time>
      </trkpt>
      <trkpt lat="44.64938" lon="6.69021">
        <ele>2059</ele>
        <time>2020-08-04T08:09:43Z</time>
      </trkpt>
      <trkpt lat="44.64937" lon="6.69022">
        <ele>2059</ele>
        <time>2020-08-04T08:09:44Z</time>
      </trkpt>
      <trkpt lat="44.64938" lon="6.69043">
        <ele>2061</ele>
        <time>2020-08-04T08:09:56Z</time>
      </trkpt>
      <trkpt lat="44.64941" lon="6.69067">
        <ele>2066</ele>
        <time>2020-08-04T08:10:07Z</time>
      </trkpt>
      <trkpt lat="44.64944" lon="6.69081">
        <ele>2070</ele>
        <time>2020-08-04T08:10:14Z</time>
      </trkpt>
      <trkpt lat="44.64944" lon="6.69083">
        <ele>2070</ele>
        <time>2020-08-04T08:10:15Z</time>
      </trkpt>
      <trkpt lat="44.64944" lon="6.69085">
        <ele>2071</ele>
        <time>2020-08-04T08:10:16Z</time>
      </trkpt>
      <trkpt lat="44.64945" lon="6.69088">
        <ele>2072</ele>
        <time>2020-08-04T08:10:17Z</time>
      </trkpt>
      <trkpt lat="44.64946" lon="6.6909">
        <ele>2073</ele>
        <time>2020-08-04T08:10:18Z</time>
      </trkpt>
      <trkpt lat="44.64946" lon="6.69118">
        <ele>2080</ele>
        <time>2020-08-04T08:10:31Z</time>
      </trkpt>
      <trkpt lat="44.64939" lon="6.69143">
        <ele>2086</ele>
        <time>2020-08-04T08:10:44Z</time>
      </trkpt>
      <trkpt lat="44.6492" lon="6.6915">
        <ele>2087</ele>
        <time>2020-08-04T08:10:58Z</time>
      </trkpt>
      <trkpt lat="44.64918" lon="6.69151">
        <ele>2087</ele>
        <time>2020-08-04T08:10:59Z</time>
      </trkpt>
      <trkpt lat="44.64917" lon="6.6915">
        <ele>2087</ele>
        <time>2020-08-04T08:11:00Z</time>
      </trkpt>
      <trkpt lat="44.64915" lon="6.6915">
        <ele>2087</ele>
        <time>2020-08-04T08:11:01Z</time>
      </trkpt>
      <trkpt lat="44.64913" lon="6.69149">
        <ele>2087</ele>
        <time>2020-08-04T08:11:02Z</time>
      </trkpt>
      <trkpt lat="44.64909" lon="6.69149">
        <ele>2087</ele>
        <time>2020-08-04T08:11:05Z</time>
      </trkpt>
      <trkpt lat="44.64894" lon="6.69144">
        <ele>2086</ele>
        <time>2020-08-04T08:11:16Z</time>
      </trkpt>
      <trkpt lat="44.64891" lon="6.69144">
        <ele>2086</ele>
        <time>2020-08-04T08:11:18Z</time>
      </trkpt>
      <trkpt lat="44.64882" lon="6.69143">
        <ele>2087</ele>
        <time>2020-08-04T08:11:24Z</time>
      </trkpt>
      <trkpt lat="44.64861" lon="6.6913">
        <ele>2089</ele>
        <time>2020-08-04T08:11:42Z</time>
      </trkpt>
      <trkpt lat="44.64856" lon="6.69126">
        <ele>2088</ele>
        <time>2020-08-04T08:11:46Z</time>
      </trkpt>
      <trkpt lat="44.64854" lon="6.69126">
        <ele>2089</ele>
        <time>2020-08-04T08:11:47Z</time>
      </trkpt>
      <trkpt lat="44.6483" lon="6.69116">
        <ele>2092</ele>
        <time>2020-08-04T08:12:04Z</time>
      </trkpt>
      <trkpt lat="44.64806" lon="6.69106">
        <ele>2094</ele>
        <time>2020-08-04T08:12:20Z</time>
      </trkpt>
      <trkpt lat="44.64782" lon="6.69099">
        <ele>2095</ele>
        <time>2020-08-04T08:12:37Z</time>
      </trkpt>
      <trkpt lat="44.64763" lon="6.69099">
        <ele>2095</ele>
        <time>2020-08-04T08:12:51Z</time>
      </trkpt>
      <trkpt lat="44.64742" lon="6.69102">
        <ele>2095</ele>
        <time>2020-08-04T08:13:06Z</time>
      </trkpt>
      <trkpt lat="44.64744" lon="6.69104">
        <ele>2095</ele>
        <time>2020-08-04T08:13:14Z</time>
      </trkpt>
      <trkpt lat="44.64733" lon="6.69105">
        <ele>2096</ele>
        <time>2020-08-04T08:13:30Z</time>
      </trkpt>
      <trkpt lat="44.64709" lon="6.6911">
        <ele>2098</ele>
        <time>2020-08-04T08:13:46Z</time>
      </trkpt>
      <trkpt lat="44.64693" lon="6.69118">
        <ele>2102</ele>
        <time>2020-08-04T08:13:59Z</time>
      </trkpt>
      <trkpt lat="44.64678" lon="6.69138">
        <ele>2105</ele>
        <time>2020-08-04T08:14:14Z</time>
      </trkpt>
      <trkpt lat="44.6467" lon="6.69165">
        <ele>2112</ele>
        <time>2020-08-04T08:14:28Z</time>
      </trkpt>
      <trkpt lat="44.6467" lon="6.69173">
        <ele>2113</ele>
        <time>2020-08-04T08:14:33Z</time>
      </trkpt>
      <trkpt lat="44.64659" lon="6.69192">
        <ele>2119</ele>
        <time>2020-08-04T08:14:45Z</time>
      </trkpt>
      <trkpt lat="44.64641" lon="6.69184">
        <ele>2118</ele>
        <time>2020-08-04T08:14:57Z</time>
      </trkpt>
      <trkpt lat="44.64634" lon="6.69179">
        <ele>2119</ele>
        <time>2020-08-04T08:15:03Z</time>
      </trkpt>
      <trkpt lat="44.64627" lon="6.69175">
        <ele>2121</ele>
        <time>2020-08-04T08:15:08Z</time>
      </trkpt>
      <trkpt lat="44.64626" lon="6.69174">
        <ele>2121</ele>
        <time>2020-08-04T08:15:09Z</time>
      </trkpt>
      <trkpt lat="44.64624" lon="6.69173">
        <ele>2122</ele>
        <time>2020-08-04T08:15:10Z</time>
      </trkpt>
      <trkpt lat="44.64623" lon="6.69173">
        <ele>2123</ele>
        <time>2020-08-04T08:15:11Z</time>
      </trkpt>
      <trkpt lat="44.64622" lon="6.69172">
        <ele>2123</ele>
        <time>2020-08-04T08:15:12Z</time>
      </trkpt>
      <trkpt lat="44.6462" lon="6.69171">
        <ele>2124</ele>
        <time>2020-08-04T08:15:13Z</time>
      </trkpt>
      <trkpt lat="44.64619" lon="6.69171">
        <ele>2124</ele>
        <time>2020-08-04T08:15:14Z</time>
      </trkpt>
      <trkpt lat="44.64618" lon="6.6917">
        <ele>2124</ele>
        <time>2020-08-04T08:15:15Z</time>
      </trkpt>
      <trkpt lat="44.64617" lon="6.69169">
        <ele>2125</ele>
        <time>2020-08-04T08:15:16Z</time>
      </trkpt>
      <trkpt lat="44.64597" lon="6.69152">
        <ele>2126</ele>
        <time>2020-08-04T08:15:33Z</time>
      </trkpt>
      <trkpt lat="44.64582" lon="6.69129">
        <ele>2122</ele>
        <time>2020-08-04T08:15:48Z</time>
      </trkpt>
      <trkpt lat="44.6457" lon="6.69115">
        <ele>2120</ele>
        <time>2020-08-04T08:15:58Z</time>
      </trkpt>
      <trkpt lat="44.64569" lon="6.69115">
        <ele>2120</ele>
        <time>2020-08-04T08:15:59Z</time>
      </trkpt>
      <trkpt lat="44.64568" lon="6.69117">
        <ele>2121</ele>
        <time>2020-08-04T08:16:00Z</time>
      </trkpt>
      <trkpt lat="44.64567" lon="6.69118">
        <ele>2121</ele>
        <time>2020-08-04T08:16:01Z</time>
      </trkpt>
      <trkpt lat="44.64566" lon="6.6912">
        <ele>2122</ele>
        <time>2020-08-04T08:16:02Z</time>
      </trkpt>
      <trkpt lat="44.64566" lon="6.69122">
        <ele>2122</ele>
        <time>2020-08-04T08:16:03Z</time>
      </trkpt>
      <trkpt lat="44.64566" lon="6.69123">
        <ele>2123</ele>
        <time>2020-08-04T08:16:04Z</time>
      </trkpt>
      <trkpt lat="44.64566" lon="6.69125">
        <ele>2123</ele>
        <time>2020-08-04T08:16:05Z</time>
      </trkpt>
      <trkpt lat="44.64567" lon="6.69127">
        <ele>2124</ele>
        <time>2020-08-04T08:16:06Z</time>
      </trkpt>
      <trkpt lat="44.64568" lon="6.69129">
        <ele>2124</ele>
        <time>2020-08-04T08:16:07Z</time>
      </trkpt>
      <trkpt lat="44.6459" lon="6.69168">
        <ele>2131</ele>
        <time>2020-08-04T08:16:24Z</time>
      </trkpt>
      <trkpt lat="44.64616" lon="6.69199">
        <ele>2130</ele>
        <time>2020-08-04T08:16:41Z</time>
      </trkpt>
      <trkpt lat="44.64637" lon="6.69223">
        <ele>2127</ele>
        <time>2020-08-04T08:16:56Z</time>
      </trkpt>
      <trkpt lat="44.64639" lon="6.69224">
        <ele>2127</ele>
        <time>2020-08-04T08:16:57Z</time>
      </trkpt>
      <trkpt lat="44.6464" lon="6.69226">
        <ele>2128</ele>
        <time>2020-08-04T08:16:58Z</time>
      </trkpt>
      <trkpt lat="44.64641" lon="6.69228">
        <ele>2129</ele>
        <time>2020-08-04T08:16:59Z</time>
      </trkpt>
      <trkpt lat="44.64641" lon="6.69229">
        <ele>2130</ele>
        <time>2020-08-04T08:17:00Z</time>
      </trkpt>
      <trkpt lat="44.64642" lon="6.69231">
        <ele>2130</ele>
        <time>2020-08-04T08:17:01Z</time>
      </trkpt>
      <trkpt lat="44.64643" lon="6.69232">
        <ele>2131</ele>
        <time>2020-08-04T08:17:02Z</time>
      </trkpt>
      <trkpt lat="44.64645" lon="6.69233">
        <ele>2132</ele>
        <time>2020-08-04T08:17:03Z</time>
      </trkpt>
      <trkpt lat="44.64661" lon="6.69252">
        <ele>2138</ele>
        <time>2020-08-04T08:17:17Z</time>
      </trkpt>
      <trkpt lat="44.64671" lon="6.69262">
        <ele>2141</ele>
        <time>2020-08-04T08:17:25Z</time>
      </trkpt>
      <trkpt lat="44.64672" lon="6.69261">
        <ele>2141</ele>
        <time>2020-08-04T08:17:31Z</time>
      </trkpt>
      <trkpt lat="44.64679" lon="6.69269">
        <ele>2143</ele>
        <time>2020-08-04T08:18:01Z</time>
      </trkpt>
      <trkpt lat="44.64681" lon="6.69269">
        <ele>2143</ele>
        <time>2020-08-04T08:18:02Z</time>
      </trkpt>
      <trkpt lat="44.64682" lon="6.6927">
        <ele>2143</ele>
        <time>2020-08-04T08:18:03Z</time>
      </trkpt>
      <trkpt lat="44.64683" lon="6.69271">
        <ele>2143</ele>
        <time>2020-08-04T08:18:04Z</time>
      </trkpt>
      <trkpt lat="44.64684" lon="6.69271">
        <ele>2144</ele>
        <time>2020-08-04T08:18:05Z</time>
      </trkpt>
      <trkpt lat="44.64686" lon="6.69272">
        <ele>2144</ele>
        <time>2020-08-04T08:18:06Z</time>
      </trkpt>
      <trkpt lat="44.64687" lon="6.69272">
        <ele>2144</ele>
        <time>2020-08-04T08:18:07Z</time>
      </trkpt>
      <trkpt lat="44.64688" lon="6.69273">
        <ele>2144</ele>
        <time>2020-08-04T08:18:08Z</time>
      </trkpt>
      <trkpt lat="44.64696" lon="6.69273">
        <ele>2143</ele>
        <time>2020-08-04T08:18:13Z</time>
      </trkpt>
      <trkpt lat="44.64711" lon="6.69264">
        <ele>2141</ele>
        <time>2020-08-04T08:18:25Z</time>
      </trkpt>
      <trkpt lat="44.64733" lon="6.69248">
        <ele>2139</ele>
        <time>2020-08-04T08:18:42Z</time>
      </trkpt>
      <trkpt lat="44.64752" lon="6.69247">
        <ele>2141</ele>
        <time>2020-08-04T08:18:56Z</time>
      </trkpt>
      <trkpt lat="44.64769" lon="6.69254">
        <ele>2144</ele>
        <time>2020-08-04T08:19:09Z</time>
      </trkpt>
      <trkpt lat="44.6478" lon="6.69264">
        <ele>2148</ele>
        <time>2020-08-04T08:19:17Z</time>
      </trkpt>
      <trkpt lat="44.64781" lon="6.69265">
        <ele>2149</ele>
        <time>2020-08-04T08:19:18Z</time>
      </trkpt>
      <trkpt lat="44.64783" lon="6.69264">
        <ele>2148</ele>
        <time>2020-08-04T08:19:19Z</time>
      </trkpt>
      <trkpt lat="44.64784" lon="6.69265">
        <ele>2149</ele>
        <time>2020-08-04T08:19:20Z</time>
      </trkpt>
      <trkpt lat="44.64785" lon="6.69265">
        <ele>2149</ele>
        <time>2020-08-04T08:19:21Z</time>
      </trkpt>
      <trkpt lat="44.64785" lon="6.69266">
        <ele>2149</ele>
        <time>2020-08-04T08:19:22Z</time>
      </trkpt>
      <trkpt lat="44.64786" lon="6.69268">
        <ele>2150</ele>
        <time>2020-08-04T08:19:23Z</time>
      </trkpt>
      <trkpt lat="44.64788" lon="6.69269">
        <ele>2150</ele>
        <time>2020-08-04T08:19:24Z</time>
      </trkpt>
      <trkpt lat="44.64796" lon="6.69277">
        <ele>2154</ele>
        <time>2020-08-04T08:19:31Z</time>
      </trkpt>
      <trkpt lat="44.64797" lon="6.69279">
        <ele>2155</ele>
        <time>2020-08-04T08:19:32Z</time>
      </trkpt>
      <trkpt lat="44.64799" lon="6.6928">
        <ele>2155</ele>
        <time>2020-08-04T08:19:33Z</time>
      </trkpt>
      <trkpt lat="44.648" lon="6.69281">
        <ele>2156</ele>
        <time>2020-08-04T08:19:34Z</time>
      </trkpt>
      <trkpt lat="44.64801" lon="6.69282">
        <ele>2156</ele>
        <time>2020-08-04T08:19:35Z</time>
      </trkpt>
      <trkpt lat="44.64803" lon="6.69283">
        <ele>2157</ele>
        <time>2020-08-04T08:19:36Z</time>
      </trkpt>
      <trkpt lat="44.64804" lon="6.69283">
        <ele>2157</ele>
        <time>2020-08-04T08:19:37Z</time>
      </trkpt>
      <trkpt lat="44.64806" lon="6.69284">
        <ele>2157</ele>
        <time>2020-08-04T08:19:38Z</time>
      </trkpt>
      <trkpt lat="44.64807" lon="6.69285">
        <ele>2157</ele>
        <time>2020-08-04T08:19:39Z</time>
      </trkpt>
      <trkpt lat="44.64808" lon="6.69286">
        <ele>2157</ele>
        <time>2020-08-04T08:19:40Z</time>
      </trkpt>
      <trkpt lat="44.64809" lon="6.69287">
        <ele>2158</ele>
        <time>2020-08-04T08:19:41Z</time>
      </trkpt>
      <trkpt lat="44.6481" lon="6.69288">
        <ele>2158</ele>
        <time>2020-08-04T08:19:42Z</time>
      </trkpt>
      <trkpt lat="44.64812" lon="6.69289">
        <ele>2158</ele>
        <time>2020-08-04T08:19:43Z</time>
      </trkpt>
      <trkpt lat="44.64813" lon="6.6929">
        <ele>2158</ele>
        <time>2020-08-04T08:19:44Z</time>
      </trkpt>
      <trkpt lat="44.64815" lon="6.69292">
        <ele>2158</ele>
        <time>2020-08-04T08:19:45Z</time>
      </trkpt>
      <trkpt lat="44.64816" lon="6.69293">
        <ele>2158</ele>
        <time>2020-08-04T08:19:46Z</time>
      </trkpt>
      <trkpt lat="44.64836" lon="6.69314">
        <ele>2160</ele>
        <time>2020-08-04T08:20:02Z</time>
      </trkpt>
      <trkpt lat="44.64856" lon="6.69332">
        <ele>2160</ele>
        <time>2020-08-04T08:20:19Z</time>
      </trkpt>
      <trkpt lat="44.64857" lon="6.69333">
        <ele>2160</ele>
        <time>2020-08-04T08:20:20Z</time>
      </trkpt>
      <trkpt lat="44.64858" lon="6.69334">
        <ele>2160</ele>
        <time>2020-08-04T08:20:21Z</time>
      </trkpt>
      <trkpt lat="44.6486" lon="6.69334">
        <ele>2159</ele>
        <time>2020-08-04T08:20:22Z</time>
      </trkpt>
      <trkpt lat="44.64861" lon="6.69335">
        <ele>2159</ele>
        <time>2020-08-04T08:20:23Z</time>
      </trkpt>
      <trkpt lat="44.64863" lon="6.69335">
        <ele>2159</ele>
        <time>2020-08-04T08:20:24Z</time>
      </trkpt>
      <trkpt lat="44.64864" lon="6.69336">
        <ele>2159</ele>
        <time>2020-08-04T08:20:25Z</time>
      </trkpt>
      <trkpt lat="44.64866" lon="6.69336">
        <ele>2159</ele>
        <time>2020-08-04T08:20:26Z</time>
      </trkpt>
      <trkpt lat="44.64867" lon="6.69337">
        <ele>2159</ele>
        <time>2020-08-04T08:20:27Z</time>
      </trkpt>
      <trkpt lat="44.64878" lon="6.6934">
        <ele>2158</ele>
        <time>2020-08-04T08:20:33Z</time>
      </trkpt>
      <trkpt lat="44.64879" lon="6.69342">
        <ele>2159</ele>
        <time>2020-08-04T08:20:34Z</time>
      </trkpt>
      <trkpt lat="44.6488" lon="6.69348">
        <ele>2161</ele>
        <time>2020-08-04T08:20:37Z</time>
      </trkpt>
      <trkpt lat="44.64879" lon="6.69349">
        <ele>2162</ele>
        <time>2020-08-04T08:20:38Z</time>
      </trkpt>
      <trkpt lat="44.64878" lon="6.6935">
        <ele>2162</ele>
        <time>2020-08-04T08:20:39Z</time>
      </trkpt>
      <trkpt lat="44.64876" lon="6.69351">
        <ele>2163</ele>
        <time>2020-08-04T08:20:40Z</time>
      </trkpt>
      <trkpt lat="44.64875" lon="6.69352">
        <ele>2164</ele>
        <time>2020-08-04T08:20:41Z</time>
      </trkpt>
      <trkpt lat="44.64873" lon="6.69352">
        <ele>2164</ele>
        <time>2020-08-04T08:20:42Z</time>
      </trkpt>
      <trkpt lat="44.64871" lon="6.69353">
        <ele>2165</ele>
        <time>2020-08-04T08:20:43Z</time>
      </trkpt>
      <trkpt lat="44.6487" lon="6.69352">
        <ele>2165</ele>
        <time>2020-08-04T08:20:44Z</time>
      </trkpt>
      <trkpt lat="44.64868" lon="6.69352">
        <ele>2165</ele>
        <time>2020-08-04T08:20:45Z</time>
      </trkpt>
      <trkpt lat="44.64866" lon="6.69351">
        <ele>2165</ele>
        <time>2020-08-04T08:20:46Z</time>
      </trkpt>
      <trkpt lat="44.64864" lon="6.69351">
        <ele>2165</ele>
        <time>2020-08-04T08:20:47Z</time>
      </trkpt>
      <trkpt lat="44.64862" lon="6.6935">
        <ele>2165</ele>
        <time>2020-08-04T08:20:48Z</time>
      </trkpt>
      <trkpt lat="44.64861" lon="6.69349">
        <ele>2166</ele>
        <time>2020-08-04T08:20:49Z</time>
      </trkpt>
      <trkpt lat="44.64859" lon="6.69349">
        <ele>2166</ele>
        <time>2020-08-04T08:20:50Z</time>
      </trkpt>
      <trkpt lat="44.64857" lon="6.69348">
        <ele>2166</ele>
        <time>2020-08-04T08:20:51Z</time>
      </trkpt>
      <trkpt lat="44.64856" lon="6.69347">
        <ele>2166</ele>
        <time>2020-08-04T08:20:52Z</time>
      </trkpt>
      <trkpt lat="44.64826" lon="6.69339">
        <ele>2170</ele>
        <time>2020-08-04T08:21:09Z</time>
      </trkpt>
      <trkpt lat="44.64802" lon="6.69335">
        <ele>2171</ele>
        <time>2020-08-04T08:21:23Z</time>
      </trkpt>
      <trkpt lat="44.64801" lon="6.69335">
        <ele>2171</ele>
        <time>2020-08-04T08:21:24Z</time>
      </trkpt>
      <trkpt lat="44.64773" lon="6.69341">
        <ele>2174</ele>
        <time>2020-08-04T08:21:41Z</time>
      </trkpt>
      <trkpt lat="44.64755" lon="6.6935">
        <ele>2175</ele>
        <time>2020-08-04T08:21:53Z</time>
      </trkpt>
      <trkpt lat="44.64739" lon="6.69365">
        <ele>2179</ele>
        <time>2020-08-04T08:22:05Z</time>
      </trkpt>
      <trkpt lat="44.64716" lon="6.69382">
        <ele>2184</ele>
        <time>2020-08-04T08:22:22Z</time>
      </trkpt>
      <trkpt lat="44.64696" lon="6.69393">
        <ele>2190</ele>
        <time>2020-08-04T08:22:36Z</time>
      </trkpt>
      <trkpt lat="44.64678" lon="6.69396">
        <ele>2191</ele>
        <time>2020-08-04T08:22:49Z</time>
      </trkpt>
      <trkpt lat="44.64662" lon="6.694">
        <ele>2192</ele>
        <time>2020-08-04T08:23:02Z</time>
      </trkpt>
      <trkpt lat="44.64644" lon="6.69402">
        <ele>2190</ele>
        <time>2020-08-04T08:23:14Z</time>
      </trkpt>
      <trkpt lat="44.64618" lon="6.69387">
        <ele>2187</ele>
        <time>2020-08-04T08:23:29Z</time>
      </trkpt>
      <trkpt lat="44.64597" lon="6.69378">
        <ele>2188</ele>
        <time>2020-08-04T08:23:41Z</time>
      </trkpt>
      <trkpt lat="44.64574" lon="6.69364">
        <ele>2191</ele>
        <time>2020-08-04T08:23:55Z</time>
      </trkpt>
      <trkpt lat="44.64556" lon="6.69353">
        <ele>2192</ele>
        <time>2020-08-04T08:24:07Z</time>
      </trkpt>
      <trkpt lat="44.64555" lon="6.69355">
        <ele>2192</ele>
        <time>2020-08-04T08:24:08Z</time>
      </trkpt>
      <trkpt lat="44.64556" lon="6.69364">
        <ele>2191</ele>
        <time>2020-08-04T08:24:13Z</time>
      </trkpt>
      <trkpt lat="44.64581" lon="6.69394">
        <ele>2190</ele>
        <time>2020-08-04T08:24:32Z</time>
      </trkpt>
      <trkpt lat="44.64597" lon="6.6942">
        <ele>2188</ele>
        <time>2020-08-04T08:24:47Z</time>
      </trkpt>
      <trkpt lat="44.64616" lon="6.69454">
        <ele>2199</ele>
        <time>2020-08-04T08:25:03Z</time>
      </trkpt>
      <trkpt lat="44.64619" lon="6.69462">
        <ele>2200</ele>
        <time>2020-08-04T08:25:11Z</time>
      </trkpt>
      <trkpt lat="44.64625" lon="6.69465">
        <ele>2203</ele>
        <time>2020-08-04T08:25:29Z</time>
      </trkpt>
      <trkpt lat="44.64629" lon="6.69468">
        <ele>2205</ele>
        <time>2020-08-04T08:25:39Z</time>
      </trkpt>
      <trkpt lat="44.64619" lon="6.69461">
        <ele>2200</ele>
        <time>2020-08-04T08:25:51Z</time>
      </trkpt>
      <trkpt lat="44.64619" lon="6.6947">
        <ele>2201</ele>
        <time>2020-08-04T08:29:16Z</time>
      </trkpt>
      <trkpt lat="44.64627" lon="6.69519">
        <ele>2205</ele>
        <time>2020-08-04T08:29:29Z</time>
      </trkpt>
      <trkpt lat="44.64635" lon="6.69546">
        <ele>2207</ele>
        <time>2020-08-04T08:29:39Z</time>
      </trkpt>
      <trkpt lat="44.64638" lon="6.69558">
        <ele>2208</ele>
        <time>2020-08-04T08:29:43Z</time>
      </trkpt>
      <trkpt lat="44.64639" lon="6.69562">
        <ele>2209</ele>
        <time>2020-08-04T08:29:44Z</time>
      </trkpt>
      <trkpt lat="44.64643" lon="6.69569">
        <ele>2210</ele>
        <time>2020-08-04T08:29:46Z</time>
      </trkpt>
      <trkpt lat="44.64644" lon="6.6957">
        <ele>2210</ele>
        <time>2020-08-04T08:29:50Z</time>
      </trkpt>
      <trkpt lat="44.64645" lon="6.69576">
        <ele>2210</ele>
        <time>2020-08-04T08:31:42Z</time>
      </trkpt>
      <trkpt lat="44.64645" lon="6.69577">
        <ele>2210</ele>
        <time>2020-08-04T08:31:43Z</time>
      </trkpt>
      <trkpt lat="44.64645" lon="6.69579">
        <ele>2210</ele>
        <time>2020-08-04T08:31:44Z</time>
      </trkpt>
      <trkpt lat="44.64646" lon="6.69588">
        <ele>2209</ele>
        <time>2020-08-04T08:31:48Z</time>
      </trkpt>
      <trkpt lat="44.64645" lon="6.69594">
        <ele>2209</ele>
        <time>2020-08-04T08:31:49Z</time>
      </trkpt>
      <trkpt lat="44.64645" lon="6.69601">
        <ele>2208</ele>
        <time>2020-08-04T08:31:50Z</time>
      </trkpt>
      <trkpt lat="44.64644" lon="6.69609">
        <ele>2207</ele>
        <time>2020-08-04T08:31:51Z</time>
      </trkpt>
      <trkpt lat="44.64643" lon="6.69617">
        <ele>2206</ele>
        <time>2020-08-04T08:31:52Z</time>
      </trkpt>
      <trkpt lat="44.64642" lon="6.69625">
        <ele>2205</ele>
        <time>2020-08-04T08:31:53Z</time>
      </trkpt>
      <trkpt lat="44.64641" lon="6.69634">
        <ele>2204</ele>
        <time>2020-08-04T08:31:54Z</time>
      </trkpt>
      <trkpt lat="44.64636" lon="6.69683">
        <ele>2207</ele>
        <time>2020-08-04T08:31:59Z</time>
      </trkpt>
      <trkpt lat="44.64632" lon="6.69704">
        <ele>2210</ele>
        <time>2020-08-04T08:32:02Z</time>
      </trkpt>
      <trkpt lat="44.64628" lon="6.69717">
        <ele>2210</ele>
        <time>2020-08-04T08:32:05Z</time>
      </trkpt>
      <trkpt lat="44.64615" lon="6.69748">
        <ele>2212</ele>
        <time>2020-08-04T08:32:20Z</time>
      </trkpt>
      <trkpt lat="44.64612" lon="6.69754">
        <ele>2213</ele>
        <time>2020-08-04T08:32:25Z</time>
      </trkpt>
      <trkpt lat="44.64608" lon="6.69763">
        <ele>2214</ele>
        <time>2020-08-04T08:32:34Z</time>
      </trkpt>
      <trkpt lat="44.64602" lon="6.69774">
        <ele>2214</ele>
        <time>2020-08-04T08:32:49Z</time>
      </trkpt>
      <trkpt lat="44.64596" lon="6.69787">
        <ele>2214</ele>
        <time>2020-08-04T08:33:03Z</time>
      </trkpt>
      <trkpt lat="44.64588" lon="6.69801">
        <ele>2214</ele>
        <time>2020-08-04T08:33:17Z</time>
      </trkpt>
      <trkpt lat="44.64582" lon="6.69809">
        <ele>2213</ele>
        <time>2020-08-04T08:33:28Z</time>
      </trkpt>
      <trkpt lat="44.64579" lon="6.69814">
        <ele>2213</ele>
        <time>2020-08-04T08:33:32Z</time>
      </trkpt>
      <trkpt lat="44.64577" lon="6.69816">
        <ele>2213</ele>
        <time>2020-08-04T08:33:34Z</time>
      </trkpt>
      <trkpt lat="44.64576" lon="6.69817">
        <ele>2213</ele>
        <time>2020-08-04T08:33:35Z</time>
      </trkpt>
      <trkpt lat="44.6456" lon="6.69842">
        <ele>2210</ele>
        <time>2020-08-04T08:33:50Z</time>
      </trkpt>
      <trkpt lat="44.64551" lon="6.69887">
        <ele>2221</ele>
        <time>2020-08-04T08:34:07Z</time>
      </trkpt>
      <trkpt lat="44.6454" lon="6.69927">
        <ele>2222</ele>
        <time>2020-08-04T08:34:19Z</time>
      </trkpt>
      <trkpt lat="44.64534" lon="6.69941">
        <ele>2221</ele>
        <time>2020-08-04T08:34:26Z</time>
      </trkpt>
      <trkpt lat="44.64544" lon="6.69977">
        <ele>2230</ele>
        <time>2020-08-04T08:34:34Z</time>
      </trkpt>
      <trkpt lat="44.64547" lon="6.69992">
        <ele>2231</ele>
        <time>2020-08-04T08:34:36Z</time>
      </trkpt>
      <trkpt lat="44.64549" lon="6.70021">
        <ele>2228</ele>
        <time>2020-08-04T08:34:40Z</time>
      </trkpt>
      <trkpt lat="44.64549" lon="6.70027">
        <ele>2227</ele>
        <time>2020-08-04T08:34:41Z</time>
      </trkpt>
      <trkpt lat="44.6455" lon="6.70033">
        <ele>2227</ele>
        <time>2020-08-04T08:34:42Z</time>
      </trkpt>
      <trkpt lat="44.64551" lon="6.7004">
        <ele>2226</ele>
        <time>2020-08-04T08:34:43Z</time>
      </trkpt>
      <trkpt lat="44.64551" lon="6.70046">
        <ele>2225</ele>
        <time>2020-08-04T08:34:44Z</time>
      </trkpt>
      <trkpt lat="44.64553" lon="6.70068">
        <ele>2223</ele>
        <time>2020-08-04T08:34:47Z</time>
      </trkpt>
      <trkpt lat="44.64554" lon="6.70074">
        <ele>2224</ele>
        <time>2020-08-04T08:34:48Z</time>
      </trkpt>
      <trkpt lat="44.64555" lon="6.7008">
        <ele>2224</ele>
        <time>2020-08-04T08:34:49Z</time>
      </trkpt>
      <trkpt lat="44.64559" lon="6.70107">
        <ele>2228</ele>
        <time>2020-08-04T08:34:53Z</time>
      </trkpt>
      <trkpt lat="44.64559" lon="6.70114">
        <ele>2228</ele>
        <time>2020-08-04T08:34:54Z</time>
      </trkpt>
      <trkpt lat="44.64558" lon="6.70121">
        <ele>2227</ele>
        <time>2020-08-04T08:34:55Z</time>
      </trkpt>
      <trkpt lat="44.64557" lon="6.70182">
        <ele>2226</ele>
        <time>2020-08-04T08:35:06Z</time>
      </trkpt>
      <trkpt lat="44.64558" lon="6.70255">
        <ele>2217</ele>
        <time>2020-08-04T08:35:17Z</time>
      </trkpt>
      <trkpt lat="44.64559" lon="6.70261">
        <ele>2216</ele>
        <time>2020-08-04T08:35:18Z</time>
      </trkpt>
      <trkpt lat="44.64561" lon="6.70267">
        <ele>2216</ele>
        <time>2020-08-04T08:35:19Z</time>
      </trkpt>
      <trkpt lat="44.64594" lon="6.70342">
        <ele>2212</ele>
        <time>2020-08-04T08:35:28Z</time>
      </trkpt>
      <trkpt lat="44.64613" lon="6.70376">
        <ele>2216</ele>
        <time>2020-08-04T08:35:33Z</time>
      </trkpt>
      <trkpt lat="44.64617" lon="6.70383">
        <ele>2217</ele>
        <time>2020-08-04T08:35:34Z</time>
      </trkpt>
      <trkpt lat="44.64618" lon="6.70391">
        <ele>2218</ele>
        <time>2020-08-04T08:35:35Z</time>
      </trkpt>
      <trkpt lat="44.64617" lon="6.70399">
        <ele>2218</ele>
        <time>2020-08-04T08:35:36Z</time>
      </trkpt>
      <trkpt lat="44.64615" lon="6.70405">
        <ele>2218</ele>
        <time>2020-08-04T08:35:37Z</time>
      </trkpt>
      <trkpt lat="44.64612" lon="6.7041">
        <ele>2218</ele>
        <time>2020-08-04T08:35:38Z</time>
      </trkpt>
      <trkpt lat="44.64588" lon="6.70441">
        <ele>2220</ele>
        <time>2020-08-04T08:35:49Z</time>
      </trkpt>
      <trkpt lat="44.64558" lon="6.70468">
        <ele>2217</ele>
        <time>2020-08-04T08:36:04Z</time>
      </trkpt>
      <trkpt lat="44.64522" lon="6.70488">
        <ele>2211</ele>
        <time>2020-08-04T08:36:21Z</time>
      </trkpt>
      <trkpt lat="44.64503" lon="6.70514">
        <ele>2212</ele>
        <time>2020-08-04T08:36:36Z</time>
      </trkpt>
      <trkpt lat="44.64511" lon="6.70545">
        <ele>2215</ele>
        <time>2020-08-04T08:36:46Z</time>
      </trkpt>
      <trkpt lat="44.64511" lon="6.70545">
        <ele>2216</ele>
        <time>2020-08-04T08:36:48Z</time>
      </trkpt>
      <trkpt lat="44.64514" lon="6.70552">
        <ele>2217</ele>
        <time>2020-08-04T08:37:43Z</time>
      </trkpt>
      <trkpt lat="44.64518" lon="6.7057">
        <ele>2218</ele>
        <time>2020-08-04T08:37:46Z</time>
      </trkpt>
      <trkpt lat="44.6452" lon="6.70577">
        <ele>2218</ele>
        <time>2020-08-04T08:37:47Z</time>
      </trkpt>
      <trkpt lat="44.64524" lon="6.70594">
        <ele>2218</ele>
        <time>2020-08-04T08:37:49Z</time>
      </trkpt>
      <trkpt lat="44.64538" lon="6.70674">
        <ele>2214</ele>
        <time>2020-08-04T08:37:57Z</time>
      </trkpt>
      <trkpt lat="44.64539" lon="6.70683">
        <ele>2215</ele>
        <time>2020-08-04T08:37:58Z</time>
      </trkpt>
      <trkpt lat="44.6454" lon="6.70691">
        <ele>2214</ele>
        <time>2020-08-04T08:37:59Z</time>
      </trkpt>
      <trkpt lat="44.64539" lon="6.70699">
        <ele>2213</ele>
        <time>2020-08-04T08:38:00Z</time>
      </trkpt>
      <trkpt lat="44.6454" lon="6.70707">
        <ele>2213</ele>
        <time>2020-08-04T08:38:01Z</time>
      </trkpt>
      <trkpt lat="44.64541" lon="6.70713">
        <ele>2214</ele>
        <time>2020-08-04T08:38:02Z</time>
      </trkpt>
      <trkpt lat="44.64542" lon="6.70716">
        <ele>2214</ele>
        <time>2020-08-04T08:38:03Z</time>
      </trkpt>
      <trkpt lat="44.64543" lon="6.70716">
        <ele>2214</ele>
        <time>2020-08-04T08:38:04Z</time>
      </trkpt>
      <trkpt lat="44.64543" lon="6.70717">
        <ele>2214</ele>
        <time>2020-08-04T08:38:06Z</time>
      </trkpt>
      <trkpt lat="44.64553" lon="6.70731">
        <ele>2218</ele>
        <time>2020-08-04T08:38:31Z</time>
      </trkpt>
      <trkpt lat="44.64551" lon="6.70733">
        <ele>2218</ele>
        <time>2020-08-04T08:38:37Z</time>
      </trkpt>
      <trkpt lat="44.6455" lon="6.70734">
        <ele>2218</ele>
        <time>2020-08-04T08:38:38Z</time>
      </trkpt>
      <trkpt lat="44.64549" lon="6.70735">
        <ele>2218</ele>
        <time>2020-08-04T08:38:39Z</time>
      </trkpt>
      <trkpt lat="44.64528" lon="6.70754">
        <ele>2216</ele>
        <time>2020-08-04T08:39:02Z</time>
      </trkpt>
      <trkpt lat="44.64529" lon="6.70763">
        <ele>2218</ele>
        <time>2020-08-04T08:39:19Z</time>
      </trkpt>
      <trkpt lat="44.6453" lon="6.70764">
        <ele>2218</ele>
        <time>2020-08-04T08:39:20Z</time>
      </trkpt>
      <trkpt lat="44.64517" lon="6.70799">
        <ele>2224</ele>
        <time>2020-08-04T08:39:59Z</time>
      </trkpt>
      <trkpt lat="44.645" lon="6.7081">
        <ele>2225</ele>
        <time>2020-08-04T08:40:23Z</time>
      </trkpt>
      <trkpt lat="44.64489" lon="6.70821">
        <ele>2228</ele>
        <time>2020-08-04T08:40:40Z</time>
      </trkpt>
      <trkpt lat="44.6448" lon="6.70835">
        <ele>2232</ele>
        <time>2020-08-04T08:40:57Z</time>
      </trkpt>
      <trkpt lat="44.64474" lon="6.70848">
        <ele>2235</ele>
        <time>2020-08-04T08:41:12Z</time>
      </trkpt>
      <trkpt lat="44.64468" lon="6.70862">
        <ele>2239</ele>
        <time>2020-08-04T08:41:30Z</time>
      </trkpt>
      <trkpt lat="44.64467" lon="6.70867">
        <ele>2240</ele>
        <time>2020-08-04T08:41:36Z</time>
      </trkpt>
      <trkpt lat="44.64391" lon="6.71016">
        <ele>2276</ele>
        <time>2020-08-04T08:45:32Z</time>
      </trkpt>
      <trkpt lat="44.64368" lon="6.71048">
        <ele>2286</ele>
        <time>2020-08-04T08:45:47Z</time>
      </trkpt>
      <trkpt lat="44.64362" lon="6.71056">
        <ele>2288</ele>
        <time>2020-08-04T08:45:55Z</time>
      </trkpt>
      <trkpt lat="44.64319" lon="6.71032">
        <ele>2287</ele>
        <time>2020-08-04T08:47:13Z</time>
      </trkpt>
      <trkpt lat="44.64314" lon="6.71033">
        <ele>2288</ele>
        <time>2020-08-04T08:47:23Z</time>
      </trkpt>
      <trkpt lat="44.6429" lon="6.71028">
        <ele>2292</ele>
        <time>2020-08-04T08:51:48Z</time>
      </trkpt>
      <trkpt lat="44.64275" lon="6.71028">
        <ele>2295</ele>
        <time>2020-08-04T08:52:04Z</time>
      </trkpt>
      <trkpt lat="44.64245" lon="6.71031">
        <ele>2300</ele>
        <time>2020-08-04T08:52:23Z</time>
      </trkpt>
      <trkpt lat="44.64234" lon="6.71031">
        <ele>2299</ele>
        <time>2020-08-04T08:52:30Z</time>
      </trkpt>
      <trkpt lat="44.64228" lon="6.71024">
        <ele>2298</ele>
        <time>2020-08-04T08:52:40Z</time>
      </trkpt>
      <trkpt lat="44.64218" lon="6.71001">
        <ele>2301</ele>
        <time>2020-08-04T08:53:00Z</time>
      </trkpt>
      <trkpt lat="44.64207" lon="6.70972">
        <ele>2309</ele>
        <time>2020-08-04T08:53:21Z</time>
      </trkpt>
      <trkpt lat="44.64196" lon="6.70947">
        <ele>2318</ele>
        <time>2020-08-04T08:53:43Z</time>
      </trkpt>
      <trkpt lat="44.64187" lon="6.7093">
        <ele>2321</ele>
        <time>2020-08-04T08:53:57Z</time>
      </trkpt>
      <trkpt lat="44.64166" lon="6.70907">
        <ele>2325</ele>
        <time>2020-08-04T08:54:19Z</time>
      </trkpt>
      <trkpt lat="44.64145" lon="6.70895">
        <ele>2325</ele>
        <time>2020-08-04T08:54:40Z</time>
      </trkpt>
      <trkpt lat="44.64138" lon="6.70889">
        <ele>2324</ele>
        <time>2020-08-04T08:54:50Z</time>
      </trkpt>
      <trkpt lat="44.64133" lon="6.70886">
        <ele>2322</ele>
        <time>2020-08-04T08:54:54Z</time>
      </trkpt>
      <trkpt lat="44.64096" lon="6.70873">
        <ele>2313</ele>
        <time>2020-08-04T08:55:14Z</time>
      </trkpt>
      <trkpt lat="44.64071" lon="6.70884">
        <ele>2311</ele>
        <time>2020-08-04T08:55:29Z</time>
      </trkpt>
      <trkpt lat="44.64055" lon="6.70936">
        <ele>2330</ele>
        <time>2020-08-04T08:55:43Z</time>
      </trkpt>
      <trkpt lat="44.64029" lon="6.70958">
        <ele>2321</ele>
        <time>2020-08-04T08:55:54Z</time>
      </trkpt>
      <trkpt lat="44.63994" lon="6.70976">
        <ele>2310</ele>
        <time>2020-08-04T08:56:08Z</time>
      </trkpt>
      <trkpt lat="44.63994" lon="6.70976">
        <ele>2310</ele>
        <time>2020-08-04T08:56:11Z</time>
      </trkpt>
      <trkpt lat="44.63991" lon="6.70983">
        <ele>2311</ele>
        <time>2020-08-04T08:56:24Z</time>
      </trkpt>
      <trkpt lat="44.63991" lon="6.70987">
        <ele>2312</ele>
        <time>2020-08-04T08:56:25Z</time>
      </trkpt>
      <trkpt lat="44.63974" lon="6.71027">
        <ele>2320</ele>
        <time>2020-08-04T08:56:37Z</time>
      </trkpt>
      <trkpt lat="44.63945" lon="6.71044">
        <ele>2313</ele>
        <time>2020-08-04T08:56:47Z</time>
      </trkpt>
      <trkpt lat="44.63926" lon="6.71077">
        <ele>2306</ele>
        <time>2020-08-04T08:56:58Z</time>
      </trkpt>
      <trkpt lat="44.63931" lon="6.71123">
        <ele>2316</ele>
        <time>2020-08-04T08:57:08Z</time>
      </trkpt>
      <trkpt lat="44.63927" lon="6.71139">
        <ele>2318</ele>
        <time>2020-08-04T08:57:11Z</time>
      </trkpt>
      <trkpt lat="44.63921" lon="6.71154">
        <ele>2321</ele>
        <time>2020-08-04T08:57:14Z</time>
      </trkpt>
      <trkpt lat="44.639" lon="6.71176">
        <ele>2320</ele>
        <time>2020-08-04T08:57:21Z</time>
      </trkpt>
      <trkpt lat="44.63893" lon="6.71184">
        <ele>2319</ele>
        <time>2020-08-04T08:57:24Z</time>
      </trkpt>
      <trkpt lat="44.63888" lon="6.71185">
        <ele>2317</ele>
        <time>2020-08-04T08:57:26Z</time>
      </trkpt>
      <trkpt lat="44.6388" lon="6.71188">
        <ele>2315</ele>
        <time>2020-08-04T08:57:34Z</time>
      </trkpt>
      <trkpt lat="44.63874" lon="6.71186">
        <ele>2311</ele>
        <time>2020-08-04T08:57:43Z</time>
      </trkpt>
      <trkpt lat="44.63872" lon="6.71185">
        <ele>2310</ele>
        <time>2020-08-04T08:57:48Z</time>
      </trkpt>
      <trkpt lat="44.63864" lon="6.71186">
        <ele>2307</ele>
        <time>2020-08-04T08:57:52Z</time>
      </trkpt>
      <trkpt lat="44.6381" lon="6.71208">
        <ele>2290</ele>
        <time>2020-08-04T08:58:07Z</time>
      </trkpt>
      <trkpt lat="44.63807" lon="6.71209">
        <ele>2289</ele>
        <time>2020-08-04T08:58:08Z</time>
      </trkpt>
      <trkpt lat="44.63803" lon="6.71211">
        <ele>2287</ele>
        <time>2020-08-04T08:58:14Z</time>
      </trkpt>
      <trkpt lat="44.63802" lon="6.71222">
        <ele>2290</ele>
        <time>2020-08-04T08:59:48Z</time>
      </trkpt>
      <trkpt lat="44.63802" lon="6.7124">
        <ele>2295</ele>
        <time>2020-08-04T08:59:52Z</time>
      </trkpt>
      <trkpt lat="44.638" lon="6.71284">
        <ele>2304</ele>
        <time>2020-08-04T09:00:02Z</time>
      </trkpt>
      <trkpt lat="44.63801" lon="6.713">
        <ele>2309</ele>
        <time>2020-08-04T09:00:06Z</time>
      </trkpt>
      <trkpt lat="44.63796" lon="6.71333">
        <ele>2313</ele>
        <time>2020-08-04T09:00:13Z</time>
      </trkpt>
      <trkpt lat="44.63791" lon="6.71356">
        <ele>2315</ele>
        <time>2020-08-04T09:00:18Z</time>
      </trkpt>
      <trkpt lat="44.63765" lon="6.71383">
        <ele>2305</ele>
        <time>2020-08-04T09:00:30Z</time>
      </trkpt>
      <trkpt lat="44.63763" lon="6.71384">
        <ele>2304</ele>
        <time>2020-08-04T09:00:31Z</time>
      </trkpt>
      <trkpt lat="44.63734" lon="6.71416">
        <ele>2303</ele>
        <time>2020-08-04T09:00:43Z</time>
      </trkpt>
      <trkpt lat="44.63706" lon="6.71439">
        <ele>2295</ele>
        <time>2020-08-04T09:00:54Z</time>
      </trkpt>
      <trkpt lat="44.63704" lon="6.7145">
        <ele>2296</ele>
        <time>2020-08-04T09:00:58Z</time>
      </trkpt>
      <trkpt lat="44.63704" lon="6.71451">
        <ele>2296</ele>
        <time>2020-08-04T09:01:03Z</time>
      </trkpt>
      <trkpt lat="44.63709" lon="6.71464">
        <ele>2299</ele>
        <time>2020-08-04T09:01:12Z</time>
      </trkpt>
      <trkpt lat="44.63733" lon="6.71519">
        <ele>2304</ele>
        <time>2020-08-04T09:01:24Z</time>
      </trkpt>
      <trkpt lat="44.6374" lon="6.71546">
        <ele>2306</ele>
        <time>2020-08-04T09:01:29Z</time>
      </trkpt>
      <trkpt lat="44.6374" lon="6.71577">
        <ele>2306</ele>
        <time>2020-08-04T09:01:34Z</time>
      </trkpt>
      <trkpt lat="44.6374" lon="6.71604">
        <ele>2300</ele>
        <time>2020-08-04T09:01:38Z</time>
      </trkpt>
      <trkpt lat="44.63744" lon="6.71636">
        <ele>2296</ele>
        <time>2020-08-04T09:01:47Z</time>
      </trkpt>
      <trkpt lat="44.63745" lon="6.71633">
        <ele>2297</ele>
        <time>2020-08-04T09:01:54Z</time>
      </trkpt>
      <trkpt lat="44.63769" lon="6.71572">
        <ele>2327</ele>
        <time>2020-08-04T09:04:35Z</time>
      </trkpt>
      <trkpt lat="44.63773" lon="6.71552">
        <ele>2332</ele>
        <time>2020-08-04T09:04:53Z</time>
      </trkpt>
      <trkpt lat="44.63774" lon="6.71536">
        <ele>2331</ele>
        <time>2020-08-04T09:05:07Z</time>
      </trkpt>
      <trkpt lat="44.63774" lon="6.71512">
        <ele>2329</ele>
        <time>2020-08-04T09:05:26Z</time>
      </trkpt>
      <trkpt lat="44.63775" lon="6.71495">
        <ele>2329</ele>
        <time>2020-08-04T09:05:43Z</time>
      </trkpt>
      <trkpt lat="44.63778" lon="6.71484">
        <ele>2331</ele>
        <time>2020-08-04T09:05:58Z</time>
      </trkpt>
      <trkpt lat="44.63782" lon="6.71477">
        <ele>2334</ele>
        <time>2020-08-04T09:06:09Z</time>
      </trkpt>
      <trkpt lat="44.63831" lon="6.71414">
        <ele>2359</ele>
        <time>2020-08-04T09:07:50Z</time>
      </trkpt>
      <trkpt lat="44.63842" lon="6.71405">
        <ele>2361</ele>
        <time>2020-08-04T09:08:08Z</time>
      </trkpt>
      <trkpt lat="44.63853" lon="6.71393">
        <ele>2362</ele>
        <time>2020-08-04T09:08:26Z</time>
      </trkpt>
      <trkpt lat="44.63862" lon="6.71374">
        <ele>2361</ele>
        <time>2020-08-04T09:08:47Z</time>
      </trkpt>
      <trkpt lat="44.63868" lon="6.71361">
        <ele>2361</ele>
        <time>2020-08-04T09:09:05Z</time>
      </trkpt>
      <trkpt lat="44.63875" lon="6.71348">
        <ele>2361</ele>
        <time>2020-08-04T09:09:21Z</time>
      </trkpt>
      <trkpt lat="44.63882" lon="6.71331">
        <ele>2361</ele>
        <time>2020-08-04T09:09:40Z</time>
      </trkpt>
      <trkpt lat="44.63892" lon="6.71317">
        <ele>2365</ele>
        <time>2020-08-04T09:09:57Z</time>
      </trkpt>
      <trkpt lat="44.63903" lon="6.71307">
        <ele>2373</ele>
        <time>2020-08-04T09:10:12Z</time>
      </trkpt>
      <trkpt lat="44.63906" lon="6.71306">
        <ele>2375</ele>
        <time>2020-08-04T09:10:15Z</time>
      </trkpt>
      <trkpt lat="44.63925" lon="6.71302">
        <ele>2386</ele>
        <time>2020-08-04T09:10:34Z</time>
      </trkpt>
      <trkpt lat="44.63946" lon="6.71293">
        <ele>2391</ele>
        <time>2020-08-04T09:10:55Z</time>
      </trkpt>
      <trkpt lat="44.63963" lon="6.71283">
        <ele>2390</ele>
        <time>2020-08-04T09:11:15Z</time>
      </trkpt>
      <trkpt lat="44.63979" lon="6.71276">
        <ele>2393</ele>
        <time>2020-08-04T09:11:34Z</time>
      </trkpt>
      <trkpt lat="44.63994" lon="6.71269">
        <ele>2396</ele>
        <time>2020-08-04T09:11:51Z</time>
      </trkpt>
      <trkpt lat="44.6401" lon="6.71262">
        <ele>2402</ele>
        <time>2020-08-04T09:12:08Z</time>
      </trkpt>
      <trkpt lat="44.64024" lon="6.71255">
        <ele>2407</ele>
        <time>2020-08-04T09:12:26Z</time>
      </trkpt>
      <trkpt lat="44.64036" lon="6.71253">
        <ele>2409</ele>
        <time>2020-08-04T09:12:42Z</time>
      </trkpt>
      <trkpt lat="44.64049" lon="6.71252">
        <ele>2411</ele>
        <time>2020-08-04T09:12:59Z</time>
      </trkpt>
      <trkpt lat="44.64059" lon="6.71253">
        <ele>2412</ele>
        <time>2020-08-04T09:13:15Z</time>
      </trkpt>
      <trkpt lat="44.64069" lon="6.71256">
        <ele>2415</ele>
        <time>2020-08-04T09:13:30Z</time>
      </trkpt>
      <trkpt lat="44.64079" lon="6.71263">
        <ele>2418</ele>
        <time>2020-08-04T09:13:46Z</time>
      </trkpt>
      <trkpt lat="44.64089" lon="6.71281">
        <ele>2422</ele>
        <time>2020-08-04T09:14:07Z</time>
      </trkpt>
      <trkpt lat="44.64095" lon="6.71298">
        <ele>2426</ele>
        <time>2020-08-04T09:14:25Z</time>
      </trkpt>
      <trkpt lat="44.641" lon="6.71314">
        <ele>2430</ele>
        <time>2020-08-04T09:14:43Z</time>
      </trkpt>
      <trkpt lat="44.64107" lon="6.71327">
        <ele>2432</ele>
        <time>2020-08-04T09:15:00Z</time>
      </trkpt>
      <trkpt lat="44.64113" lon="6.71337">
        <ele>2434</ele>
        <time>2020-08-04T09:15:14Z</time>
      </trkpt>
      <trkpt lat="44.64165" lon="6.71397">
        <ele>2459</ele>
        <time>2020-08-04T09:17:51Z</time>
      </trkpt>
      <trkpt lat="44.64139" lon="6.71406">
        <ele>2462</ele>
        <time>2020-08-04T09:18:07Z</time>
      </trkpt>
      <trkpt lat="44.64121" lon="6.71416">
        <ele>2468</ele>
        <time>2020-08-04T09:18:19Z</time>
      </trkpt>
      <trkpt lat="44.64114" lon="6.71416">
        <ele>2468</ele>
        <time>2020-08-04T09:18:23Z</time>
      </trkpt>
      <trkpt lat="44.641" lon="6.71418">
        <ele>2468</ele>
        <time>2020-08-04T09:18:33Z</time>
      </trkpt>
      <trkpt lat="44.64081" lon="6.7142">
        <ele>2468</ele>
        <time>2020-08-04T09:18:49Z</time>
      </trkpt>
      <trkpt lat="44.64087" lon="6.71442">
        <ele>2477</ele>
        <time>2020-08-04T09:19:52Z</time>
      </trkpt>
      <trkpt lat="44.64103" lon="6.71455">
        <ele>2485</ele>
        <time>2020-08-04T09:20:15Z</time>
      </trkpt>
      <trkpt lat="44.64115" lon="6.71464">
        <ele>2491</ele>
        <time>2020-08-04T09:20:33Z</time>
      </trkpt>
      <trkpt lat="44.64127" lon="6.71473">
        <ele>2496</ele>
        <time>2020-08-04T09:20:52Z</time>
      </trkpt>
      <trkpt lat="44.64136" lon="6.71479">
        <ele>2501</ele>
        <time>2020-08-04T09:21:08Z</time>
      </trkpt>
      <trkpt lat="44.64142" lon="6.71483">
        <ele>2503</ele>
        <time>2020-08-04T09:21:19Z</time>
      </trkpt>
      <trkpt lat="44.64227" lon="6.71565">
        <ele>2531</ele>
        <time>2020-08-04T09:24:03Z</time>
      </trkpt>
      <trkpt lat="44.64233" lon="6.71575">
        <ele>2534</ele>
        <time>2020-08-04T09:24:19Z</time>
      </trkpt>
      <trkpt lat="44.64234" lon="6.71576">
        <ele>2535</ele>
        <time>2020-08-04T09:24:20Z</time>
      </trkpt>
      <trkpt lat="44.64244" lon="6.71598">
        <ele>2538</ele>
        <time>2020-08-04T09:24:41Z</time>
      </trkpt>
      <trkpt lat="44.64255" lon="6.71628">
        <ele>2542</ele>
        <time>2020-08-04T09:25:03Z</time>
      </trkpt>
      <trkpt lat="44.64263" lon="6.7165">
        <ele>2549</ele>
        <time>2020-08-04T09:25:25Z</time>
      </trkpt>
      <trkpt lat="44.64267" lon="6.71666">
        <ele>2556</ele>
        <time>2020-08-04T09:25:43Z</time>
      </trkpt>
      <trkpt lat="44.64259" lon="6.71662">
        <ele>2555</ele>
        <time>2020-08-04T09:25:56Z</time>
      </trkpt>
      <trkpt lat="44.64242" lon="6.71648">
        <ele>2553</ele>
        <time>2020-08-04T09:26:19Z</time>
      </trkpt>
      <trkpt lat="44.64226" lon="6.71636">
        <ele>2554</ele>
        <time>2020-08-04T09:26:40Z</time>
      </trkpt>
      <trkpt lat="44.6421" lon="6.71634">
        <ele>2557</ele>
        <time>2020-08-04T09:26:59Z</time>
      </trkpt>
      <trkpt lat="44.64195" lon="6.71634">
        <ele>2560</ele>
        <time>2020-08-04T09:27:16Z</time>
      </trkpt>
      <trkpt lat="44.64177" lon="6.71637">
        <ele>2564</ele>
        <time>2020-08-04T09:27:36Z</time>
      </trkpt>
      <trkpt lat="44.64159" lon="6.71643">
        <ele>2566</ele>
        <time>2020-08-04T09:27:56Z</time>
      </trkpt>
      <trkpt lat="44.64142" lon="6.71651">
        <ele>2564</ele>
        <time>2020-08-04T09:28:17Z</time>
      </trkpt>
      <trkpt lat="44.64132" lon="6.71671">
        <ele>2564</ele>
        <time>2020-08-04T09:28:38Z</time>
      </trkpt>
      <trkpt lat="44.64132" lon="6.71674">
        <ele>2565</ele>
        <time>2020-08-04T09:28:42Z</time>
      </trkpt>
      <trkpt lat="44.64205" lon="6.71744">
        <ele>2592</ele>
        <time>2020-08-04T09:31:42Z</time>
      </trkpt>
      <trkpt lat="44.64211" lon="6.71761">
        <ele>2596</ele>
        <time>2020-08-04T09:32:00Z</time>
      </trkpt>
      <trkpt lat="44.64216" lon="6.71777">
        <ele>2601</ele>
        <time>2020-08-04T09:32:17Z</time>
      </trkpt>
      <trkpt lat="44.64221" lon="6.71792">
        <ele>2607</ele>
        <time>2020-08-04T09:32:36Z</time>
      </trkpt>
      <trkpt lat="44.64222" lon="6.71797">
        <ele>2609</ele>
        <time>2020-08-04T09:32:42Z</time>
      </trkpt>
      <trkpt lat="44.64272" lon="6.71863">
        <ele>2633</ele>
        <time>2020-08-04T09:34:33Z</time>
      </trkpt>
      <trkpt lat="44.64286" lon="6.71871">
        <ele>2635</ele>
        <time>2020-08-04T09:34:53Z</time>
      </trkpt>
      <trkpt lat="44.643" lon="6.71879">
        <ele>2637</ele>
        <time>2020-08-04T09:35:12Z</time>
      </trkpt>
      <trkpt lat="44.64313" lon="6.71887">
        <ele>2640</ele>
        <time>2020-08-04T09:35:29Z</time>
      </trkpt>
      <trkpt lat="44.64317" lon="6.7189">
        <ele>2641</ele>
        <time>2020-08-04T09:35:35Z</time>
      </trkpt>
      <trkpt lat="44.64333" lon="6.71899">
        <ele>2644</ele>
        <time>2020-08-04T09:35:55Z</time>
      </trkpt>
      <trkpt lat="44.64345" lon="6.71907">
        <ele>2649</ele>
        <time>2020-08-04T09:36:11Z</time>
      </trkpt>
      <trkpt lat="44.64356" lon="6.71913">
        <ele>2653</ele>
        <time>2020-08-04T09:36:26Z</time>
      </trkpt>
      <trkpt lat="44.64369" lon="6.7192">
        <ele>2654</ele>
        <time>2020-08-04T09:36:43Z</time>
      </trkpt>
      <trkpt lat="44.64382" lon="6.71925">
        <ele>2653</ele>
        <time>2020-08-04T09:37:01Z</time>
      </trkpt>
      <trkpt lat="44.64392" lon="6.71929">
        <ele>2651</ele>
        <time>2020-08-04T09:37:18Z</time>
      </trkpt>
      <trkpt lat="44.64392" lon="6.71929">
        <ele>2651</ele>
        <time>2020-08-04T09:37:19Z</time>
      </trkpt>
      <trkpt lat="44.64394" lon="6.71916">
        <ele>2650</ele>
        <time>2020-08-04T10:06:34Z</time>
      </trkpt>
      <trkpt lat="44.64403" lon="6.71898">
        <ele>2645</ele>
        <time>2020-08-04T10:06:37Z</time>
      </trkpt>
      <trkpt lat="44.64424" lon="6.71857">
        <ele>2641</ele>
        <time>2020-08-04T10:06:43Z</time>
      </trkpt>
      <trkpt lat="44.64439" lon="6.7183">
        <ele>2640</ele>
        <time>2020-08-04T10:06:47Z</time>
      </trkpt>
      <trkpt lat="44.64443" lon="6.71825">
        <ele>2640</ele>
        <time>2020-08-04T10:06:48Z</time>
      </trkpt>
      <trkpt lat="44.64457" lon="6.71802">
        <ele>2630</ele>
        <time>2020-08-04T10:06:54Z</time>
      </trkpt>
      <trkpt lat="44.64459" lon="6.718">
        <ele>2629</ele>
        <time>2020-08-04T10:06:55Z</time>
      </trkpt>
      <trkpt lat="44.6446" lon="6.71794">
        <ele>2627</ele>
        <time>2020-08-04T10:06:57Z</time>
      </trkpt>
      <trkpt lat="44.64465" lon="6.71786">
        <ele>2625</ele>
        <time>2020-08-04T10:07:01Z</time>
      </trkpt>
      <trkpt lat="44.64474" lon="6.71772">
        <ele>2620</ele>
        <time>2020-08-04T10:07:07Z</time>
      </trkpt>
      <trkpt lat="44.64483" lon="6.71759">
        <ele>2615</ele>
        <time>2020-08-04T10:07:12Z</time>
      </trkpt>
      <trkpt lat="44.64489" lon="6.71751">
        <ele>2614</ele>
        <time>2020-08-04T10:07:16Z</time>
      </trkpt>
      <trkpt lat="44.64494" lon="6.7174">
        <ele>2611</ele>
        <time>2020-08-04T10:07:20Z</time>
      </trkpt>
      <trkpt lat="44.64501" lon="6.71725">
        <ele>2607</ele>
        <time>2020-08-04T10:07:26Z</time>
      </trkpt>
      <trkpt lat="44.6451" lon="6.71715">
        <ele>2603</ele>
        <time>2020-08-04T10:07:31Z</time>
      </trkpt>
      <trkpt lat="44.64512" lon="6.71713">
        <ele>2602</ele>
        <time>2020-08-04T10:07:32Z</time>
      </trkpt>
      <trkpt lat="44.64514" lon="6.71711">
        <ele>2601</ele>
        <time>2020-08-04T10:07:33Z</time>
      </trkpt>
      <trkpt lat="44.64515" lon="6.71702">
        <ele>2599</ele>
        <time>2020-08-04T10:07:37Z</time>
      </trkpt>
      <trkpt lat="44.64511" lon="6.71686">
        <ele>2595</ele>
        <time>2020-08-04T10:07:42Z</time>
      </trkpt>
      <trkpt lat="44.64514" lon="6.71682">
        <ele>2594</ele>
        <time>2020-08-04T10:07:48Z</time>
      </trkpt>
      <trkpt lat="44.64515" lon="6.71683">
        <ele>2594</ele>
        <time>2020-08-04T10:07:52Z</time>
      </trkpt>
      <trkpt lat="44.64515" lon="6.71683">
        <ele>2594</ele>
        <time>2020-08-04T10:07:53Z</time>
      </trkpt>
      <trkpt lat="44.64521" lon="6.71683">
        <ele>2593</ele>
        <time>2020-08-04T10:08:42Z</time>
      </trkpt>
      <trkpt lat="44.64541" lon="6.71684">
        <ele>2589</ele>
        <time>2020-08-04T10:08:52Z</time>
      </trkpt>
      <trkpt lat="44.64558" lon="6.71681">
        <ele>2584</ele>
        <time>2020-08-04T10:08:58Z</time>
      </trkpt>
      <trkpt lat="44.64572" lon="6.71677">
        <ele>2577</ele>
        <time>2020-08-04T10:09:03Z</time>
      </trkpt>
      <trkpt lat="44.64588" lon="6.7167">
        <ele>2572</ele>
        <time>2020-08-04T10:09:08Z</time>
      </trkpt>
      <trkpt lat="44.64596" lon="6.71665">
        <ele>2571</ele>
        <time>2020-08-04T10:09:12Z</time>
      </trkpt>
      <trkpt lat="44.64603" lon="6.7166">
        <ele>2569</ele>
        <time>2020-08-04T10:09:16Z</time>
      </trkpt>
      <trkpt lat="44.64605" lon="6.71659">
        <ele>2568</ele>
        <time>2020-08-04T10:09:17Z</time>
      </trkpt>
      <trkpt lat="44.64612" lon="6.71655">
        <ele>2567</ele>
        <time>2020-08-04T10:09:21Z</time>
      </trkpt>
      <trkpt lat="44.64622" lon="6.7165">
        <ele>2565</ele>
        <time>2020-08-04T10:09:26Z</time>
      </trkpt>
      <trkpt lat="44.64632" lon="6.71645">
        <ele>2563</ele>
        <time>2020-08-04T10:09:31Z</time>
      </trkpt>
      <trkpt lat="44.64648" lon="6.71637">
        <ele>2560</ele>
        <time>2020-08-04T10:09:36Z</time>
      </trkpt>
      <trkpt lat="44.64661" lon="6.71618">
        <ele>2554</ele>
        <time>2020-08-04T10:09:42Z</time>
      </trkpt>
      <trkpt lat="44.64666" lon="6.71606">
        <ele>2551</ele>
        <time>2020-08-04T10:09:46Z</time>
      </trkpt>
      <trkpt lat="44.64674" lon="6.71593">
        <ele>2547</ele>
        <time>2020-08-04T10:09:50Z</time>
      </trkpt>
      <trkpt lat="44.64681" lon="6.7158">
        <ele>2545</ele>
        <time>2020-08-04T10:09:54Z</time>
      </trkpt>
      <trkpt lat="44.64688" lon="6.71563">
        <ele>2542</ele>
        <time>2020-08-04T10:09:58Z</time>
      </trkpt>
      <trkpt lat="44.64692" lon="6.71553">
        <ele>2540</ele>
        <time>2020-08-04T10:10:00Z</time>
      </trkpt>
      <trkpt lat="44.647" lon="6.71532">
        <ele>2535</ele>
        <time>2020-08-04T10:10:04Z</time>
      </trkpt>
      <trkpt lat="44.64707" lon="6.71518">
        <ele>2532</ele>
        <time>2020-08-04T10:10:07Z</time>
      </trkpt>
      <trkpt lat="44.6471" lon="6.71515">
        <ele>2531</ele>
        <time>2020-08-04T10:10:08Z</time>
      </trkpt>
      <trkpt lat="44.64715" lon="6.71511">
        <ele>2531</ele>
        <time>2020-08-04T10:10:10Z</time>
      </trkpt>
      <trkpt lat="44.64723" lon="6.71503">
        <ele>2531</ele>
        <time>2020-08-04T10:10:13Z</time>
      </trkpt>
      <trkpt lat="44.64728" lon="6.71498">
        <ele>2528</ele>
        <time>2020-08-04T10:10:15Z</time>
      </trkpt>
      <trkpt lat="44.64741" lon="6.71482">
        <ele>2522</ele>
        <time>2020-08-04T10:10:21Z</time>
      </trkpt>
      <trkpt lat="44.64749" lon="6.71475">
        <ele>2520</ele>
        <time>2020-08-04T10:10:24Z</time>
      </trkpt>
      <trkpt lat="44.64758" lon="6.71464">
        <ele>2514</ele>
        <time>2020-08-04T10:10:28Z</time>
      </trkpt>
      <trkpt lat="44.64768" lon="6.71454">
        <ele>2509</ele>
        <time>2020-08-04T10:10:32Z</time>
      </trkpt>
      <trkpt lat="44.64776" lon="6.71444">
        <ele>2505</ele>
        <time>2020-08-04T10:10:35Z</time>
      </trkpt>
      <trkpt lat="44.6479" lon="6.71424">
        <ele>2498</ele>
        <time>2020-08-04T10:10:40Z</time>
      </trkpt>
      <trkpt lat="44.64805" lon="6.71402">
        <ele>2493</ele>
        <time>2020-08-04T10:10:44Z</time>
      </trkpt>
      <trkpt lat="44.64814" lon="6.71386">
        <ele>2488</ele>
        <time>2020-08-04T10:10:47Z</time>
      </trkpt>
      <trkpt lat="44.64829" lon="6.71365">
        <ele>2483</ele>
        <time>2020-08-04T10:10:51Z</time>
      </trkpt>
      <trkpt lat="44.64836" lon="6.71352">
        <ele>2480</ele>
        <time>2020-08-04T10:10:54Z</time>
      </trkpt>
      <trkpt lat="44.64853" lon="6.71332">
        <ele>2473</ele>
        <time>2020-08-04T10:10:59Z</time>
      </trkpt>
      <trkpt lat="44.64869" lon="6.71311">
        <ele>2469</ele>
        <time>2020-08-04T10:11:04Z</time>
      </trkpt>
      <trkpt lat="44.64884" lon="6.71289">
        <ele>2468</ele>
        <time>2020-08-04T10:11:09Z</time>
      </trkpt>
      <trkpt lat="44.6489" lon="6.71277">
        <ele>2468</ele>
        <time>2020-08-04T10:11:12Z</time>
      </trkpt>
      <trkpt lat="44.64895" lon="6.71265">
        <ele>2467</ele>
        <time>2020-08-04T10:11:16Z</time>
      </trkpt>
      <trkpt lat="44.64902" lon="6.71249">
        <ele>2466</ele>
        <time>2020-08-04T10:11:20Z</time>
      </trkpt>
      <trkpt lat="44.64906" lon="6.71241">
        <ele>2466</ele>
        <time>2020-08-04T10:11:22Z</time>
      </trkpt>
      <trkpt lat="44.64915" lon="6.71207">
        <ele>2465</ele>
        <time>2020-08-04T10:11:28Z</time>
      </trkpt>
      <trkpt lat="44.6492" lon="6.71177">
        <ele>2463</ele>
        <time>2020-08-04T10:11:34Z</time>
      </trkpt>
      <trkpt lat="44.64921" lon="6.7113">
        <ele>2461</ele>
        <time>2020-08-04T10:11:47Z</time>
      </trkpt>
      <trkpt lat="44.64921" lon="6.71124">
        <ele>2460</ele>
        <time>2020-08-04T10:11:54Z</time>
      </trkpt>
      <trkpt lat="44.64921" lon="6.71117">
        <ele>2460</ele>
        <time>2020-08-04T10:14:09Z</time>
      </trkpt>
      <trkpt lat="44.6493" lon="6.71097">
        <ele>2456</ele>
        <time>2020-08-04T10:14:17Z</time>
      </trkpt>
      <trkpt lat="44.64941" lon="6.71073">
        <ele>2451</ele>
        <time>2020-08-04T10:14:25Z</time>
      </trkpt>
      <trkpt lat="44.64952" lon="6.71051">
        <ele>2443</ele>
        <time>2020-08-04T10:14:31Z</time>
      </trkpt>
      <trkpt lat="44.6496" lon="6.71034">
        <ele>2437</ele>
        <time>2020-08-04T10:14:36Z</time>
      </trkpt>
      <trkpt lat="44.64971" lon="6.71013">
        <ele>2432</ele>
        <time>2020-08-04T10:14:44Z</time>
      </trkpt>
      <trkpt lat="44.64973" lon="6.71009">
        <ele>2431</ele>
        <time>2020-08-04T10:14:46Z</time>
      </trkpt>
      <trkpt lat="44.64978" lon="6.70988">
        <ele>2428</ele>
        <time>2020-08-04T10:14:52Z</time>
      </trkpt>
      <trkpt lat="44.64985" lon="6.70964">
        <ele>2427</ele>
        <time>2020-08-04T10:14:56Z</time>
      </trkpt>
      <trkpt lat="44.64987" lon="6.70959">
        <ele>2427</ele>
        <time>2020-08-04T10:15:00Z</time>
      </trkpt>
      <trkpt lat="44.64988" lon="6.70933">
        <ele>2430</ele>
        <time>2020-08-04T10:15:19Z</time>
      </trkpt>
      <trkpt lat="44.64988" lon="6.70933">
        <ele>2430</ele>
        <time>2020-08-04T10:15:21Z</time>
      </trkpt>
      <trkpt lat="44.64989" lon="6.70923">
        <ele>2432</ele>
        <time>2020-08-04T10:15:26Z</time>
      </trkpt>
      <trkpt lat="44.64997" lon="6.70872">
        <ele>2436</ele>
        <time>2020-08-04T10:15:42Z</time>
      </trkpt>
      <trkpt lat="44.65003" lon="6.70836">
        <ele>2442</ele>
        <time>2020-08-04T10:15:56Z</time>
      </trkpt>
      <trkpt lat="44.65004" lon="6.70833">
        <ele>2443</ele>
        <time>2020-08-04T10:15:57Z</time>
      </trkpt>
      <trkpt lat="44.65004" lon="6.7083">
        <ele>2443</ele>
        <time>2020-08-04T10:16:03Z</time>
      </trkpt>
      <trkpt lat="44.65007" lon="6.70814">
        <ele>2447</ele>
        <time>2020-08-04T10:16:42Z</time>
      </trkpt>
      <trkpt lat="44.65005" lon="6.70777">
        <ele>2453</ele>
        <time>2020-08-04T10:17:06Z</time>
      </trkpt>
      <trkpt lat="44.65001" lon="6.70753">
        <ele>2455</ele>
        <time>2020-08-04T10:17:22Z</time>
      </trkpt>
      <trkpt lat="44.64999" lon="6.7073">
        <ele>2457</ele>
        <time>2020-08-04T10:17:40Z</time>
      </trkpt>
      <trkpt lat="44.64998" lon="6.7072">
        <ele>2457</ele>
        <time>2020-08-04T10:17:44Z</time>
      </trkpt>
      <trkpt lat="44.64998" lon="6.70673">
        <ele>2461</ele>
        <time>2020-08-04T10:18:00Z</time>
      </trkpt>
      <trkpt lat="44.64999" lon="6.70667">
        <ele>2462</ele>
        <time>2020-08-04T10:18:02Z</time>
      </trkpt>
      <trkpt lat="44.65005" lon="6.70634">
        <ele>2464</ele>
        <time>2020-08-04T10:18:13Z</time>
      </trkpt>
      <trkpt lat="44.65006" lon="6.70596">
        <ele>2462</ele>
        <time>2020-08-04T10:18:26Z</time>
      </trkpt>
      <trkpt lat="44.65018" lon="6.70543">
        <ele>2464</ele>
        <time>2020-08-04T10:18:41Z</time>
      </trkpt>
      <trkpt lat="44.65033" lon="6.70491">
        <ele>2464</ele>
        <time>2020-08-04T10:18:53Z</time>
      </trkpt>
      <trkpt lat="44.65047" lon="6.70439">
        <ele>2457</ele>
        <time>2020-08-04T10:19:05Z</time>
      </trkpt>
      <trkpt lat="44.65056" lon="6.70388">
        <ele>2458</ele>
        <time>2020-08-04T10:19:19Z</time>
      </trkpt>
      <trkpt lat="44.6505" lon="6.70355">
        <ele>2455</ele>
        <time>2020-08-04T10:19:33Z</time>
      </trkpt>
      <trkpt lat="44.65046" lon="6.70314">
        <ele>2453</ele>
        <time>2020-08-04T10:19:47Z</time>
      </trkpt>
      <trkpt lat="44.65038" lon="6.70287">
        <ele>2460</ele>
        <time>2020-08-04T10:19:58Z</time>
      </trkpt>
      <trkpt lat="44.65026" lon="6.70251">
        <ele>2467</ele>
        <time>2020-08-04T10:20:12Z</time>
      </trkpt>
      <trkpt lat="44.65017" lon="6.70205">
        <ele>2465</ele>
        <time>2020-08-04T10:20:23Z</time>
      </trkpt>
      <trkpt lat="44.65012" lon="6.70185">
        <ele>2466</ele>
        <time>2020-08-04T10:20:34Z</time>
      </trkpt>
      <trkpt lat="44.65011" lon="6.70174">
        <ele>2468</ele>
        <time>2020-08-04T10:21:27Z</time>
      </trkpt>
      <trkpt lat="44.65003" lon="6.70155">
        <ele>2471</ele>
        <time>2020-08-04T10:21:43Z</time>
      </trkpt>
      <trkpt lat="44.65003" lon="6.70154">
        <ele>2471</ele>
        <time>2020-08-04T10:21:44Z</time>
      </trkpt>
      <trkpt lat="44.65001" lon="6.70144">
        <ele>2471</ele>
        <time>2020-08-04T10:21:48Z</time>
      </trkpt>
      <trkpt lat="44.64998" lon="6.70141">
        <ele>2471</ele>
        <time>2020-08-04T10:21:51Z</time>
      </trkpt>
      <trkpt lat="44.64996" lon="6.70132">
        <ele>2469</ele>
        <time>2020-08-04T10:21:59Z</time>
      </trkpt>
      <trkpt lat="44.64984" lon="6.70123">
        <ele>2467</ele>
        <time>2020-08-04T10:23:42Z</time>
      </trkpt>
      <trkpt lat="44.64982" lon="6.70121">
        <ele>2467</ele>
        <time>2020-08-04T10:23:43Z</time>
      </trkpt>
      <trkpt lat="44.64978" lon="6.70118">
        <ele>2466</ele>
        <time>2020-08-04T10:23:45Z</time>
      </trkpt>
      <trkpt lat="44.64978" lon="6.70113">
        <ele>2465</ele>
        <time>2020-08-04T10:23:51Z</time>
      </trkpt>
      <trkpt lat="44.64986" lon="6.70105">
        <ele>2462</ele>
        <time>2020-08-04T10:24:00Z</time>
      </trkpt>
      <trkpt lat="44.64988" lon="6.70102">
        <ele>2461</ele>
        <time>2020-08-04T10:24:01Z</time>
      </trkpt>
      <trkpt lat="44.64999" lon="6.70089">
        <ele>2455</ele>
        <time>2020-08-04T10:24:10Z</time>
      </trkpt>
      <trkpt lat="44.64982" lon="6.70077">
        <ele>2454</ele>
        <time>2020-08-04T10:24:18Z</time>
      </trkpt>
      <trkpt lat="44.64967" lon="6.70066">
        <ele>2453</ele>
        <time>2020-08-04T10:24:24Z</time>
      </trkpt>
      <trkpt lat="44.64952" lon="6.70056">
        <ele>2451</ele>
        <time>2020-08-04T10:24:29Z</time>
      </trkpt>
      <trkpt lat="44.64939" lon="6.70046">
        <ele>2448</ele>
        <time>2020-08-04T10:24:33Z</time>
      </trkpt>
      <trkpt lat="44.64936" lon="6.70043">
        <ele>2447</ele>
        <time>2020-08-04T10:24:34Z</time>
      </trkpt>
      <trkpt lat="44.64923" lon="6.70035">
        <ele>2445</ele>
        <time>2020-08-04T10:24:37Z</time>
      </trkpt>
      <trkpt lat="44.64899" lon="6.70017">
        <ele>2439</ele>
        <time>2020-08-04T10:24:42Z</time>
      </trkpt>
      <trkpt lat="44.64883" lon="6.70006">
        <ele>2433</ele>
        <time>2020-08-04T10:24:46Z</time>
      </trkpt>
      <trkpt lat="44.64873" lon="6.69999">
        <ele>2426</ele>
        <time>2020-08-04T10:24:49Z</time>
      </trkpt>
      <trkpt lat="44.64857" lon="6.69987">
        <ele>2415</ele>
        <time>2020-08-04T10:24:54Z</time>
      </trkpt>
      <trkpt lat="44.64856" lon="6.69978">
        <ele>2412</ele>
        <time>2020-08-04T10:24:58Z</time>
      </trkpt>
      <trkpt lat="44.6486" lon="6.69974">
        <ele>2411</ele>
        <time>2020-08-04T10:25:01Z</time>
      </trkpt>
      <trkpt lat="44.64878" lon="6.69965">
        <ele>2411</ele>
        <time>2020-08-04T10:25:07Z</time>
      </trkpt>
      <trkpt lat="44.6488" lon="6.69965">
        <ele>2411</ele>
        <time>2020-08-04T10:25:08Z</time>
      </trkpt>
      <trkpt lat="44.6488" lon="6.69961">
        <ele>2409</ele>
        <time>2020-08-04T10:25:11Z</time>
      </trkpt>
      <trkpt lat="44.64869" lon="6.6995">
        <ele>2401</ele>
        <time>2020-08-04T10:25:16Z</time>
      </trkpt>
      <trkpt lat="44.6485" lon="6.69934">
        <ele>2392</ele>
        <time>2020-08-04T10:25:23Z</time>
      </trkpt>
      <trkpt lat="44.64843" lon="6.69927">
        <ele>2388</ele>
        <time>2020-08-04T10:25:26Z</time>
      </trkpt>
      <trkpt lat="44.64836" lon="6.6992">
        <ele>2385</ele>
        <time>2020-08-04T10:25:29Z</time>
      </trkpt>
      <trkpt lat="44.64826" lon="6.69911">
        <ele>2379</ele>
        <time>2020-08-04T10:25:32Z</time>
      </trkpt>
      <trkpt lat="44.64823" lon="6.69907">
        <ele>2377</ele>
        <time>2020-08-04T10:25:35Z</time>
      </trkpt>
      <trkpt lat="44.64831" lon="6.69903">
        <ele>2376</ele>
        <time>2020-08-04T10:25:39Z</time>
      </trkpt>
      <trkpt lat="44.64847" lon="6.69898">
        <ele>2375</ele>
        <time>2020-08-04T10:25:44Z</time>
      </trkpt>
      <trkpt lat="44.64862" lon="6.6989">
        <ele>2374</ele>
        <time>2020-08-04T10:25:49Z</time>
      </trkpt>
      <trkpt lat="44.64874" lon="6.69883">
        <ele>2374</ele>
        <time>2020-08-04T10:25:53Z</time>
      </trkpt>
      <trkpt lat="44.64887" lon="6.69871">
        <ele>2371</ele>
        <time>2020-08-04T10:25:58Z</time>
      </trkpt>
      <trkpt lat="44.64897" lon="6.69865">
        <ele>2368</ele>
        <time>2020-08-04T10:26:02Z</time>
      </trkpt>
      <trkpt lat="44.64899" lon="6.69863">
        <ele>2367</ele>
        <time>2020-08-04T10:26:03Z</time>
      </trkpt>
      <trkpt lat="44.64892" lon="6.69854">
        <ele>2364</ele>
        <time>2020-08-04T10:26:08Z</time>
      </trkpt>
      <trkpt lat="44.64888" lon="6.69853">
        <ele>2364</ele>
        <time>2020-08-04T10:26:09Z</time>
      </trkpt>
      <trkpt lat="44.64874" lon="6.69843">
        <ele>2359</ele>
        <time>2020-08-04T10:26:14Z</time>
      </trkpt>
      <trkpt lat="44.64856" lon="6.69836">
        <ele>2355</ele>
        <time>2020-08-04T10:26:19Z</time>
      </trkpt>
      <trkpt lat="44.64851" lon="6.69832">
        <ele>2354</ele>
        <time>2020-08-04T10:26:21Z</time>
      </trkpt>
      <trkpt lat="44.64842" lon="6.69821">
        <ele>2351</ele>
        <time>2020-08-04T10:26:25Z</time>
      </trkpt>
      <trkpt lat="44.64837" lon="6.69816">
        <ele>2349</ele>
        <time>2020-08-04T10:26:27Z</time>
      </trkpt>
      <trkpt lat="44.64825" lon="6.69792">
        <ele>2341</ele>
        <time>2020-08-04T10:26:32Z</time>
      </trkpt>
      <trkpt lat="44.64815" lon="6.69773">
        <ele>2333</ele>
        <time>2020-08-04T10:26:36Z</time>
      </trkpt>
      <trkpt lat="44.64816" lon="6.69771">
        <ele>2332</ele>
        <time>2020-08-04T10:26:40Z</time>
      </trkpt>
      <trkpt lat="44.64817" lon="6.69771">
        <ele>2332</ele>
        <time>2020-08-04T10:26:41Z</time>
      </trkpt>
      <trkpt lat="44.64826" lon="6.69773">
        <ele>2333</ele>
        <time>2020-08-04T10:26:44Z</time>
      </trkpt>
      <trkpt lat="44.64828" lon="6.69773">
        <ele>2334</ele>
        <time>2020-08-04T10:26:45Z</time>
      </trkpt>
      <trkpt lat="44.64833" lon="6.69773">
        <ele>2334</ele>
        <time>2020-08-04T10:26:49Z</time>
      </trkpt>
      <trkpt lat="44.64822" lon="6.69751">
        <ele>2322</ele>
        <time>2020-08-04T10:26:55Z</time>
      </trkpt>
      <trkpt lat="44.64817" lon="6.69741">
        <ele>2317</ele>
        <time>2020-08-04T10:26:57Z</time>
      </trkpt>
      <trkpt lat="44.64799" lon="6.69715">
        <ele>2306</ele>
        <time>2020-08-04T10:27:03Z</time>
      </trkpt>
      <trkpt lat="44.64797" lon="6.69711">
        <ele>2305</ele>
        <time>2020-08-04T10:27:04Z</time>
      </trkpt>
      <trkpt lat="44.64792" lon="6.69703">
        <ele>2300</ele>
        <time>2020-08-04T10:27:09Z</time>
      </trkpt>
      <trkpt lat="44.64798" lon="6.697">
        <ele>2301</ele>
        <time>2020-08-04T10:27:13Z</time>
      </trkpt>
      <trkpt lat="44.6481" lon="6.69699">
        <ele>2303</ele>
        <time>2020-08-04T10:27:17Z</time>
      </trkpt>
      <trkpt lat="44.64812" lon="6.69696">
        <ele>2302</ele>
        <time>2020-08-04T10:27:20Z</time>
      </trkpt>
      <trkpt lat="44.64808" lon="6.69687">
        <ele>2300</ele>
        <time>2020-08-04T10:27:25Z</time>
      </trkpt>
      <trkpt lat="44.64809" lon="6.69687">
        <ele>2300</ele>
        <time>2020-08-04T10:27:28Z</time>
      </trkpt>
      <trkpt lat="44.64805" lon="6.69674">
        <ele>2297</ele>
        <time>2020-08-04T10:29:01Z</time>
      </trkpt>
      <trkpt lat="44.64794" lon="6.69659">
        <ele>2289</ele>
        <time>2020-08-04T10:29:05Z</time>
      </trkpt>
      <trkpt lat="44.64789" lon="6.69654">
        <ele>2286</ele>
        <time>2020-08-04T10:29:08Z</time>
      </trkpt>
      <trkpt lat="44.64778" lon="6.69646">
        <ele>2282</ele>
        <time>2020-08-04T10:29:13Z</time>
      </trkpt>
      <trkpt lat="44.64777" lon="6.69644">
        <ele>2281</ele>
        <time>2020-08-04T10:29:14Z</time>
      </trkpt>
      <trkpt lat="44.64787" lon="6.6963">
        <ele>2279</ele>
        <time>2020-08-04T10:29:20Z</time>
      </trkpt>
      <trkpt lat="44.6481" lon="6.69629">
        <ele>2281</ele>
        <time>2020-08-04T10:29:28Z</time>
      </trkpt>
      <trkpt lat="44.64809" lon="6.69627">
        <ele>2281</ele>
        <time>2020-08-04T10:29:30Z</time>
      </trkpt>
      <trkpt lat="44.64795" lon="6.69612">
        <ele>2275</ele>
        <time>2020-08-04T10:29:34Z</time>
      </trkpt>
      <trkpt lat="44.64777" lon="6.69594">
        <ele>2268</ele>
        <time>2020-08-04T10:29:39Z</time>
      </trkpt>
      <trkpt lat="44.64764" lon="6.69585">
        <ele>2264</ele>
        <time>2020-08-04T10:29:42Z</time>
      </trkpt>
      <trkpt lat="44.64749" lon="6.69577">
        <ele>2258</ele>
        <time>2020-08-04T10:29:45Z</time>
      </trkpt>
      <trkpt lat="44.64744" lon="6.69577">
        <ele>2257</ele>
        <time>2020-08-04T10:29:46Z</time>
      </trkpt>
      <trkpt lat="44.64724" lon="6.69582">
        <ele>2252</ele>
        <time>2020-08-04T10:29:52Z</time>
      </trkpt>
      <trkpt lat="44.64725" lon="6.69582">
        <ele>2252</ele>
        <time>2020-08-04T10:29:54Z</time>
      </trkpt>
      <trkpt lat="44.64732" lon="6.69571">
        <ele>2251</ele>
        <time>2020-08-04T10:29:58Z</time>
      </trkpt>
      <trkpt lat="44.64757" lon="6.69537">
        <ele>2245</ele>
        <time>2020-08-04T10:30:06Z</time>
      </trkpt>
      <trkpt lat="44.64776" lon="6.69519">
        <ele>2240</ele>
        <time>2020-08-04T10:30:12Z</time>
      </trkpt>
      <trkpt lat="44.64777" lon="6.69518">
        <ele>2240</ele>
        <time>2020-08-04T10:30:13Z</time>
      </trkpt>
      <trkpt lat="44.64761" lon="6.69511">
        <ele>2236</ele>
        <time>2020-08-04T10:30:17Z</time>
      </trkpt>
      <trkpt lat="44.64744" lon="6.69507">
        <ele>2232</ele>
        <time>2020-08-04T10:30:20Z</time>
      </trkpt>
      <trkpt lat="44.6472" lon="6.69496">
        <ele>2227</ele>
        <time>2020-08-04T10:30:25Z</time>
      </trkpt>
      <trkpt lat="44.6471" lon="6.69493">
        <ele>2226</ele>
        <time>2020-08-04T10:30:28Z</time>
      </trkpt>
      <trkpt lat="44.64707" lon="6.6949">
        <ele>2225</ele>
        <time>2020-08-04T10:30:29Z</time>
      </trkpt>
      <trkpt lat="44.64693" lon="6.69486">
        <ele>2224</ele>
        <time>2020-08-04T10:30:32Z</time>
      </trkpt>
      <trkpt lat="44.64677" lon="6.69484">
        <ele>2221</ele>
        <time>2020-08-04T10:30:35Z</time>
      </trkpt>
      <trkpt lat="44.64661" lon="6.69477">
        <ele>2216</ele>
        <time>2020-08-04T10:30:39Z</time>
      </trkpt>
      <trkpt lat="44.64652" lon="6.69472">
        <ele>2213</ele>
        <time>2020-08-04T10:30:41Z</time>
      </trkpt>
      <trkpt lat="44.64628" lon="6.69464">
        <ele>2204</ele>
        <time>2020-08-04T10:30:45Z</time>
      </trkpt>
      <trkpt lat="44.64622" lon="6.69461">
        <ele>2201</ele>
        <time>2020-08-04T10:30:46Z</time>
      </trkpt>
      <trkpt lat="44.6462" lon="6.69458">
        <ele>2200</ele>
        <time>2020-08-04T10:30:47Z</time>
      </trkpt>
      <trkpt lat="44.64619" lon="6.69456">
        <ele>2200</ele>
        <time>2020-08-04T10:30:50Z</time>
      </trkpt>
      <trkpt lat="44.64618" lon="6.69456">
        <ele>2200</ele>
        <time>2020-08-04T10:30:51Z</time>
      </trkpt>
      <trkpt lat="44.64618" lon="6.69442">
        <ele>2198</ele>
        <time>2020-08-04T10:31:55Z</time>
      </trkpt>
      <trkpt lat="44.64617" lon="6.69437">
        <ele>2196</ele>
        <time>2020-08-04T10:31:56Z</time>
      </trkpt>
      <trkpt lat="44.64616" lon="6.69431">
        <ele>2194</ele>
        <time>2020-08-04T10:31:57Z</time>
      </trkpt>
      <trkpt lat="44.64616" lon="6.69426">
        <ele>2192</ele>
        <time>2020-08-04T10:31:58Z</time>
      </trkpt>
      <trkpt lat="44.64619" lon="6.69423">
        <ele>2192</ele>
        <time>2020-08-04T10:32:00Z</time>
      </trkpt>
      <trkpt lat="44.64636" lon="6.69419">
        <ele>2194</ele>
        <time>2020-08-04T10:32:07Z</time>
      </trkpt>
      <trkpt lat="44.64646" lon="6.69413">
        <ele>2194</ele>
        <time>2020-08-04T10:32:10Z</time>
      </trkpt>
      <trkpt lat="44.64654" lon="6.69404">
        <ele>2192</ele>
        <time>2020-08-04T10:32:13Z</time>
      </trkpt>
      <trkpt lat="44.64663" lon="6.69399">
        <ele>2192</ele>
        <time>2020-08-04T10:32:16Z</time>
      </trkpt>
      <trkpt lat="44.64667" lon="6.69393">
        <ele>2190</ele>
        <time>2020-08-04T10:32:19Z</time>
      </trkpt>
      <trkpt lat="44.64669" lon="6.69387">
        <ele>2188</ele>
        <time>2020-08-04T10:32:21Z</time>
      </trkpt>
      <trkpt lat="44.6467" lon="6.69384">
        <ele>2187</ele>
        <time>2020-08-04T10:32:22Z</time>
      </trkpt>
      <trkpt lat="44.64672" lon="6.69381">
        <ele>2186</ele>
        <time>2020-08-04T10:32:23Z</time>
      </trkpt>
      <trkpt lat="44.64674" lon="6.69378">
        <ele>2185</ele>
        <time>2020-08-04T10:32:24Z</time>
      </trkpt>
      <trkpt lat="44.64678" lon="6.69367">
        <ele>2181</ele>
        <time>2020-08-04T10:32:27Z</time>
      </trkpt>
      <trkpt lat="44.64688" lon="6.69355">
        <ele>2176</ele>
        <time>2020-08-04T10:32:32Z</time>
      </trkpt>
      <trkpt lat="44.64694" lon="6.69349">
        <ele>2174</ele>
        <time>2020-08-04T10:32:34Z</time>
      </trkpt>
      <trkpt lat="44.64703" lon="6.69332">
        <ele>2167</ele>
        <time>2020-08-04T10:32:38Z</time>
      </trkpt>
      <trkpt lat="44.6471" lon="6.69321">
        <ele>2162</ele>
        <time>2020-08-04T10:32:41Z</time>
      </trkpt>
      <trkpt lat="44.64713" lon="6.69311">
        <ele>2158</ele>
        <time>2020-08-04T10:32:43Z</time>
      </trkpt>
      <trkpt lat="44.64716" lon="6.6929">
        <ele>2150</ele>
        <time>2020-08-04T10:32:46Z</time>
      </trkpt>
      <trkpt lat="44.64717" lon="6.69267">
        <ele>2142</ele>
        <time>2020-08-04T10:32:49Z</time>
      </trkpt>
      <trkpt lat="44.6472" lon="6.69256">
        <ele>2139</ele>
        <time>2020-08-04T10:32:52Z</time>
      </trkpt>
      <trkpt lat="44.64722" lon="6.69253">
        <ele>2138</ele>
        <time>2020-08-04T10:32:53Z</time>
      </trkpt>
      <trkpt lat="44.64724" lon="6.69248">
        <ele>2137</ele>
        <time>2020-08-04T10:32:54Z</time>
      </trkpt>
      <trkpt lat="44.64725" lon="6.69244">
        <ele>2137</ele>
        <time>2020-08-04T10:32:56Z</time>
      </trkpt>
      <trkpt lat="44.64725" lon="6.69242">
        <ele>2136</ele>
        <time>2020-08-04T10:33:00Z</time>
      </trkpt>
      <trkpt lat="44.64725" lon="6.69234">
        <ele>2135</ele>
        <time>2020-08-04T10:33:04Z</time>
      </trkpt>
      <trkpt lat="44.64727" lon="6.69228">
        <ele>2134</ele>
        <time>2020-08-04T10:33:11Z</time>
      </trkpt>
      <trkpt lat="44.64731" lon="6.6922">
        <ele>2133</ele>
        <time>2020-08-04T10:33:30Z</time>
      </trkpt>
      <trkpt lat="44.6473" lon="6.69217">
        <ele>2132</ele>
        <time>2020-08-04T10:33:31Z</time>
      </trkpt>
      <trkpt lat="44.64726" lon="6.69196">
        <ele>2127</ele>
        <time>2020-08-04T10:33:41Z</time>
      </trkpt>
      <trkpt lat="44.64729" lon="6.69191">
        <ele>2127</ele>
        <time>2020-08-04T10:33:43Z</time>
      </trkpt>
      <trkpt lat="44.64736" lon="6.69177">
        <ele>2124</ele>
        <time>2020-08-04T10:33:47Z</time>
      </trkpt>
      <trkpt lat="44.64746" lon="6.69166">
        <ele>2122</ele>
        <time>2020-08-04T10:33:52Z</time>
      </trkpt>
      <trkpt lat="44.64746" lon="6.69163">
        <ele>2120</ele>
        <time>2020-08-04T10:33:54Z</time>
      </trkpt>
      <trkpt lat="44.6475" lon="6.69156">
        <ele>2118</ele>
        <time>2020-08-04T10:33:57Z</time>
      </trkpt>
      <trkpt lat="44.6475" lon="6.69139">
        <ele>2110</ele>
        <time>2020-08-04T10:34:02Z</time>
      </trkpt>
      <trkpt lat="44.64751" lon="6.69138">
        <ele>2109</ele>
        <time>2020-08-04T10:34:03Z</time>
      </trkpt>
      <trkpt lat="44.64763" lon="6.6913">
        <ele>2105</ele>
        <time>2020-08-04T10:34:07Z</time>
      </trkpt>
      <trkpt lat="44.64764" lon="6.69119">
        <ele>2101</ele>
        <time>2020-08-04T10:34:11Z</time>
      </trkpt>
      <trkpt lat="44.64765" lon="6.69113">
        <ele>2099</ele>
        <time>2020-08-04T10:34:13Z</time>
      </trkpt>
      <trkpt lat="44.64771" lon="6.6911">
        <ele>2098</ele>
        <time>2020-08-04T10:34:15Z</time>
      </trkpt>
      <trkpt lat="44.64775" lon="6.69106">
        <ele>2097</ele>
        <time>2020-08-04T10:34:17Z</time>
      </trkpt>
      <trkpt lat="44.64775" lon="6.69104">
        <ele>2097</ele>
        <time>2020-08-04T10:34:20Z</time>
      </trkpt>
      <trkpt lat="44.64771" lon="6.69096">
        <ele>2094</ele>
        <time>2020-08-04T10:34:24Z</time>
      </trkpt>
      <trkpt lat="44.64772" lon="6.69093">
        <ele>2093</ele>
        <time>2020-08-04T10:34:25Z</time>
      </trkpt>
      <trkpt lat="44.64785" lon="6.69087">
        <ele>2091</ele>
        <time>2020-08-04T10:34:32Z</time>
      </trkpt>
      <trkpt lat="44.64786" lon="6.69087">
        <ele>2091</ele>
        <time>2020-08-04T10:34:35Z</time>
      </trkpt>
      <trkpt lat="44.64791" lon="6.69089">
        <ele>2091</ele>
        <time>2020-08-04T10:34:48Z</time>
      </trkpt>
      <trkpt lat="44.64792" lon="6.69089">
        <ele>2091</ele>
        <time>2020-08-04T10:34:53Z</time>
      </trkpt>
      <trkpt lat="44.648" lon="6.69095">
        <ele>2091</ele>
        <time>2020-08-04T10:35:08Z</time>
      </trkpt>
      <trkpt lat="44.64856" lon="6.69125">
        <ele>2088</ele>
        <time>2020-08-04T10:35:17Z</time>
      </trkpt>
      <trkpt lat="44.64866" lon="6.69128">
        <ele>2087</ele>
        <time>2020-08-04T10:35:18Z</time>
      </trkpt>
      <trkpt lat="44.64885" lon="6.69134">
        <ele>2083</ele>
        <time>2020-08-04T10:35:20Z</time>
      </trkpt>
      <trkpt lat="44.64923" lon="6.69143">
        <ele>2086</ele>
        <time>2020-08-04T10:35:24Z</time>
      </trkpt>
      <trkpt lat="44.6493" lon="6.69142">
        <ele>2085</ele>
        <time>2020-08-04T10:35:25Z</time>
      </trkpt>
      <trkpt lat="44.64936" lon="6.69137">
        <ele>2084</ele>
        <time>2020-08-04T10:35:26Z</time>
      </trkpt>
      <trkpt lat="44.64938" lon="6.6913">
        <ele>2082</ele>
        <time>2020-08-04T10:35:27Z</time>
      </trkpt>
      <trkpt lat="44.6494" lon="6.69121">
        <ele>2079</ele>
        <time>2020-08-04T10:35:28Z</time>
      </trkpt>
      <trkpt lat="44.6494" lon="6.69111">
        <ele>2077</ele>
        <time>2020-08-04T10:35:29Z</time>
      </trkpt>
      <trkpt lat="44.6494" lon="6.691">
        <ele>2074</ele>
        <time>2020-08-04T10:35:30Z</time>
      </trkpt>
      <trkpt lat="44.6494" lon="6.69088">
        <ele>2070</ele>
        <time>2020-08-04T10:35:31Z</time>
      </trkpt>
      <trkpt lat="44.64939" lon="6.69076">
        <ele>2067</ele>
        <time>2020-08-04T10:35:32Z</time>
      </trkpt>
      <trkpt lat="44.64935" lon="6.69036">
        <ele>2059</ele>
        <time>2020-08-04T10:35:35Z</time>
      </trkpt>
      <trkpt lat="44.64933" lon="6.69023">
        <ele>2057</ele>
        <time>2020-08-04T10:35:36Z</time>
      </trkpt>
      <trkpt lat="44.64932" lon="6.69009">
        <ele>2056</ele>
        <time>2020-08-04T10:35:37Z</time>
      </trkpt>
      <trkpt lat="44.64932" lon="6.68995">
        <ele>2055</ele>
        <time>2020-08-04T10:35:38Z</time>
      </trkpt>
      <trkpt lat="44.64932" lon="6.6898">
        <ele>2054</ele>
        <time>2020-08-04T10:35:39Z</time>
      </trkpt>
      <trkpt lat="44.64929" lon="6.68933">
        <ele>2048</ele>
        <time>2020-08-04T10:35:42Z</time>
      </trkpt>
      <trkpt lat="44.64923" lon="6.68888">
        <ele>2043</ele>
        <time>2020-08-04T10:35:45Z</time>
      </trkpt>
      <trkpt lat="44.64913" lon="6.6884">
        <ele>2039</ele>
        <time>2020-08-04T10:35:49Z</time>
      </trkpt>
      <trkpt lat="44.64913" lon="6.68828">
        <ele>2038</ele>
        <time>2020-08-04T10:35:50Z</time>
      </trkpt>
      <trkpt lat="44.64912" lon="6.68815">
        <ele>2037</ele>
        <time>2020-08-04T10:35:51Z</time>
      </trkpt>
      <trkpt lat="44.6491" lon="6.68793">
        <ele>2034</ele>
        <time>2020-08-04T10:35:53Z</time>
      </trkpt>
      <trkpt lat="44.64908" lon="6.68773">
        <ele>2032</ele>
        <time>2020-08-04T10:35:55Z</time>
      </trkpt>
      <trkpt lat="44.64905" lon="6.68763">
        <ele>2031</ele>
        <time>2020-08-04T10:35:56Z</time>
      </trkpt>
      <trkpt lat="44.64901" lon="6.68753">
        <ele>2030</ele>
        <time>2020-08-04T10:35:57Z</time>
      </trkpt>
      <trkpt lat="44.64897" lon="6.68745">
        <ele>2029</ele>
        <time>2020-08-04T10:35:58Z</time>
      </trkpt>
      <trkpt lat="44.64892" lon="6.68737">
        <ele>2029</ele>
        <time>2020-08-04T10:35:59Z</time>
      </trkpt>
      <trkpt lat="44.64887" lon="6.68731">
        <ele>2029</ele>
        <time>2020-08-04T10:36:00Z</time>
      </trkpt>
      <trkpt lat="44.64881" lon="6.68727">
        <ele>2028</ele>
        <time>2020-08-04T10:36:01Z</time>
      </trkpt>
      <trkpt lat="44.64872" lon="6.68718">
        <ele>2027</ele>
        <time>2020-08-04T10:36:03Z</time>
      </trkpt>
      <trkpt lat="44.6487" lon="6.68715">
        <ele>2026</ele>
        <time>2020-08-04T10:36:04Z</time>
      </trkpt>
      <trkpt lat="44.64864" lon="6.68709">
        <ele>2026</ele>
        <time>2020-08-04T10:36:06Z</time>
      </trkpt>
      <trkpt lat="44.64861" lon="6.68705">
        <ele>2027</ele>
        <time>2020-08-04T10:36:07Z</time>
      </trkpt>
      <trkpt lat="44.64859" lon="6.687">
        <ele>2027</ele>
        <time>2020-08-04T10:36:08Z</time>
      </trkpt>
      <trkpt lat="44.64859" lon="6.68695">
        <ele>2027</ele>
        <time>2020-08-04T10:36:09Z</time>
      </trkpt>
      <trkpt lat="44.64866" lon="6.68677">
        <ele>2027</ele>
        <time>2020-08-04T10:36:13Z</time>
      </trkpt>
      <trkpt lat="44.64893" lon="6.68656">
        <ele>2022</ele>
        <time>2020-08-04T10:36:19Z</time>
      </trkpt>
      <trkpt lat="44.64903" lon="6.68665">
        <ele>2022</ele>
        <time>2020-08-04T10:36:23Z</time>
      </trkpt>
      <trkpt lat="44.64909" lon="6.68654">
        <ele>2020</ele>
        <time>2020-08-04T10:36:26Z</time>
      </trkpt>
      <trkpt lat="44.6492" lon="6.68646">
        <ele>2017</ele>
        <time>2020-08-04T10:36:31Z</time>
      </trkpt>
      <trkpt lat="44.64926" lon="6.68638">
        <ele>2014</ele>
        <time>2020-08-04T10:36:34Z</time>
      </trkpt>
      <trkpt lat="44.64934" lon="6.68652">
        <ele>2012</ele>
        <time>2020-08-04T10:36:39Z</time>
      </trkpt>
      <trkpt lat="44.64945" lon="6.68661">
        <ele>2008</ele>
        <time>2020-08-04T10:36:43Z</time>
      </trkpt>
      <trkpt lat="44.64948" lon="6.68663">
        <ele>2006</ele>
        <time>2020-08-04T10:36:44Z</time>
      </trkpt>
      <trkpt lat="44.64949" lon="6.68667">
        <ele>2005</ele>
        <time>2020-08-04T10:36:45Z</time>
      </trkpt>
      <trkpt lat="44.6495" lon="6.68668">
        <ele>2005</ele>
        <time>2020-08-04T10:36:46Z</time>
      </trkpt>
      <trkpt lat="44.64953" lon="6.68661">
        <ele>2003</ele>
        <time>2020-08-04T10:36:49Z</time>
      </trkpt>
      <trkpt lat="44.64952" lon="6.68656">
        <ele>2003</ele>
        <time>2020-08-04T10:36:50Z</time>
      </trkpt>
      <trkpt lat="44.64954" lon="6.6865">
        <ele>2002</ele>
        <time>2020-08-04T10:36:51Z</time>
      </trkpt>
      <trkpt lat="44.64955" lon="6.68644">
        <ele>2001</ele>
        <time>2020-08-04T10:36:52Z</time>
      </trkpt>
      <trkpt lat="44.64955" lon="6.68632">
        <ele>2000</ele>
        <time>2020-08-04T10:36:56Z</time>
      </trkpt>
      <trkpt lat="44.64955" lon="6.68632">
        <ele>2000</ele>
        <time>2020-08-04T10:36:59Z</time>
      </trkpt>
      <trkpt lat="44.64959" lon="6.68642">
        <ele>1999</ele>
        <time>2020-08-04T10:37:16Z</time>
      </trkpt>
      <trkpt lat="44.6497" lon="6.68682">
        <ele>1995</ele>
        <time>2020-08-04T10:37:26Z</time>
      </trkpt>
      <trkpt lat="44.6498" lon="6.68695">
        <ele>1991</ele>
        <time>2020-08-04T10:37:33Z</time>
      </trkpt>
      <trkpt lat="44.64981" lon="6.68696">
        <ele>1990</ele>
        <time>2020-08-04T10:37:34Z</time>
      </trkpt>
      <trkpt lat="44.64985" lon="6.68698">
        <ele>1988</ele>
        <time>2020-08-04T10:37:35Z</time>
      </trkpt>
      <trkpt lat="44.65003" lon="6.68701">
        <ele>1979</ele>
        <time>2020-08-04T10:37:40Z</time>
      </trkpt>
      <trkpt lat="44.65006" lon="6.68691">
        <ele>1975</ele>
        <time>2020-08-04T10:37:44Z</time>
      </trkpt>
      <trkpt lat="44.65019" lon="6.68701">
        <ele>1969</ele>
        <time>2020-08-04T10:37:48Z</time>
      </trkpt>
      <trkpt lat="44.65027" lon="6.6871">
        <ele>1965</ele>
        <time>2020-08-04T10:37:51Z</time>
      </trkpt>
      <trkpt lat="44.65043" lon="6.68721">
        <ele>1960</ele>
        <time>2020-08-04T10:37:56Z</time>
      </trkpt>
      <trkpt lat="44.65046" lon="6.68722">
        <ele>1958</ele>
        <time>2020-08-04T10:37:57Z</time>
      </trkpt>
      <trkpt lat="44.65059" lon="6.68728">
        <ele>1953</ele>
        <time>2020-08-04T10:38:01Z</time>
      </trkpt>
      <trkpt lat="44.65062" lon="6.68729">
        <ele>1952</ele>
        <time>2020-08-04T10:38:02Z</time>
      </trkpt>
      <trkpt lat="44.65069" lon="6.68732">
        <ele>1950</ele>
        <time>2020-08-04T10:38:04Z</time>
      </trkpt>
      <trkpt lat="44.65085" lon="6.68735">
        <ele>1945</ele>
        <time>2020-08-04T10:38:07Z</time>
      </trkpt>
      <trkpt lat="44.65106" lon="6.68744">
        <ele>1936</ele>
        <time>2020-08-04T10:38:11Z</time>
      </trkpt>
      <trkpt lat="44.65122" lon="6.68749">
        <ele>1934</ele>
        <time>2020-08-04T10:38:14Z</time>
      </trkpt>
      <trkpt lat="44.65133" lon="6.68751">
        <ele>1932</ele>
        <time>2020-08-04T10:38:17Z</time>
      </trkpt>
      <trkpt lat="44.65135" lon="6.68751">
        <ele>1932</ele>
        <time>2020-08-04T10:38:18Z</time>
      </trkpt>
      <trkpt lat="44.65144" lon="6.68746">
        <ele>1929</ele>
        <time>2020-08-04T10:38:22Z</time>
      </trkpt>
      <trkpt lat="44.6515" lon="6.68732">
        <ele>1922</ele>
        <time>2020-08-04T10:38:27Z</time>
      </trkpt>
      <trkpt lat="44.6515" lon="6.68726">
        <ele>1921</ele>
        <time>2020-08-04T10:38:28Z</time>
      </trkpt>
      <trkpt lat="44.65148" lon="6.68716">
        <ele>1919</ele>
        <time>2020-08-04T10:38:30Z</time>
      </trkpt>
      <trkpt lat="44.65138" lon="6.68696">
        <ele>1918</ele>
        <time>2020-08-04T10:38:34Z</time>
      </trkpt>
      <trkpt lat="44.65127" lon="6.68682">
        <ele>1917</ele>
        <time>2020-08-04T10:38:38Z</time>
      </trkpt>
      <trkpt lat="44.65128" lon="6.68665">
        <ele>1913</ele>
        <time>2020-08-04T10:38:42Z</time>
      </trkpt>
      <trkpt lat="44.65128" lon="6.68644">
        <ele>1907</ele>
        <time>2020-08-04T10:38:46Z</time>
      </trkpt>
      <trkpt lat="44.65129" lon="6.6864">
        <ele>1905</ele>
        <time>2020-08-04T10:38:47Z</time>
      </trkpt>
      <trkpt lat="44.6514" lon="6.68631">
        <ele>1898</ele>
        <time>2020-08-04T10:38:52Z</time>
      </trkpt>
      <trkpt lat="44.65146" lon="6.68631">
        <ele>1895</ele>
        <time>2020-08-04T10:38:54Z</time>
      </trkpt>
      <trkpt lat="44.65156" lon="6.68629">
        <ele>1890</ele>
        <time>2020-08-04T10:38:57Z</time>
      </trkpt>
      <trkpt lat="44.65164" lon="6.68632">
        <ele>1887</ele>
        <time>2020-08-04T10:39:00Z</time>
      </trkpt>
      <trkpt lat="44.65169" lon="6.68619">
        <ele>1882</ele>
        <time>2020-08-04T10:39:04Z</time>
      </trkpt>
      <trkpt lat="44.65168" lon="6.68614">
        <ele>1881</ele>
        <time>2020-08-04T10:39:05Z</time>
      </trkpt>
      <trkpt lat="44.65158" lon="6.68577">
        <ele>1875</ele>
        <time>2020-08-04T10:39:10Z</time>
      </trkpt>
      <trkpt lat="44.65156" lon="6.68572">
        <ele>1874</ele>
        <time>2020-08-04T10:39:11Z</time>
      </trkpt>
      <trkpt lat="44.65143" lon="6.68546">
        <ele>1866</ele>
        <time>2020-08-04T10:39:15Z</time>
      </trkpt>
      <trkpt lat="44.65136" lon="6.68536">
        <ele>1865</ele>
        <time>2020-08-04T10:39:17Z</time>
      </trkpt>
      <trkpt lat="44.65134" lon="6.68531">
        <ele>1864</ele>
        <time>2020-08-04T10:39:18Z</time>
      </trkpt>
      <trkpt lat="44.6513" lon="6.68523">
        <ele>1863</ele>
        <time>2020-08-04T10:39:22Z</time>
      </trkpt>
      <trkpt lat="44.6513" lon="6.68523">
        <ele>1863</ele>
        <time>2020-08-04T10:39:24Z</time>
      </trkpt>
      <trkpt lat="44.6513" lon="6.68523">
        <ele>1863</ele>
        <time>2020-08-04T10:39:25Z</time>
      </trkpt>
      <trkpt lat="44.6512" lon="6.68512">
        <ele>1864</ele>
        <time>2020-08-04T10:39:30Z</time>
      </trkpt>
      <trkpt lat="44.65116" lon="6.68508">
        <ele>1865</ele>
        <time>2020-08-04T10:39:31Z</time>
      </trkpt>
      <trkpt lat="44.65104" lon="6.68483">
        <ele>1866</ele>
        <time>2020-08-04T10:39:35Z</time>
      </trkpt>
      <trkpt lat="44.65085" lon="6.68418">
        <ele>1863</ele>
        <time>2020-08-04T10:39:42Z</time>
      </trkpt>
      <trkpt lat="44.65068" lon="6.68364">
        <ele>1864</ele>
        <time>2020-08-04T10:39:48Z</time>
      </trkpt>
      <trkpt lat="44.65059" lon="6.6834">
        <ele>1863</ele>
        <time>2020-08-04T10:39:51Z</time>
      </trkpt>
      <trkpt lat="44.65052" lon="6.68325">
        <ele>1862</ele>
        <time>2020-08-04T10:39:53Z</time>
      </trkpt>
      <trkpt lat="44.65038" lon="6.683">
        <ele>1864</ele>
        <time>2020-08-04T10:39:57Z</time>
      </trkpt>
      <trkpt lat="44.65026" lon="6.68256">
        <ele>1863</ele>
        <time>2020-08-04T10:40:03Z</time>
      </trkpt>
      <trkpt lat="44.65024" lon="6.68242">
        <ele>1862</ele>
        <time>2020-08-04T10:40:05Z</time>
      </trkpt>
      <trkpt lat="44.65023" lon="6.68205">
        <ele>1855</ele>
        <time>2020-08-04T10:40:09Z</time>
      </trkpt>
      <trkpt lat="44.65024" lon="6.6818">
        <ele>1848</ele>
        <time>2020-08-04T10:40:12Z</time>
      </trkpt>
      <trkpt lat="44.65023" lon="6.68144">
        <ele>1838</ele>
        <time>2020-08-04T10:40:16Z</time>
      </trkpt>
      <trkpt lat="44.65021" lon="6.6811">
        <ele>1829</ele>
        <time>2020-08-04T10:40:20Z</time>
      </trkpt>
      <trkpt lat="44.65018" lon="6.68096">
        <ele>1826</ele>
        <time>2020-08-04T10:40:23Z</time>
      </trkpt>
      <trkpt lat="44.65014" lon="6.68087">
        <ele>1825</ele>
        <time>2020-08-04T10:40:25Z</time>
      </trkpt>
      <trkpt lat="44.64999" lon="6.68071">
        <ele>1828</ele>
        <time>2020-08-04T10:40:29Z</time>
      </trkpt>
      <trkpt lat="44.64994" lon="6.6806">
        <ele>1826</ele>
        <time>2020-08-04T10:40:31Z</time>
      </trkpt>
      <trkpt lat="44.64975" lon="6.68026">
        <ele>1823</ele>
        <time>2020-08-04T10:40:36Z</time>
      </trkpt>
      <trkpt lat="44.64958" lon="6.68">
        <ele>1819</ele>
        <time>2020-08-04T10:40:40Z</time>
      </trkpt>
      <trkpt lat="44.64947" lon="6.67978">
        <ele>1812</ele>
        <time>2020-08-04T10:40:43Z</time>
      </trkpt>
      <trkpt lat="44.64925" lon="6.67944">
        <ele>1802</ele>
        <time>2020-08-04T10:40:48Z</time>
      </trkpt>
      <trkpt lat="44.64912" lon="6.67927">
        <ele>1797</ele>
        <time>2020-08-04T10:40:51Z</time>
      </trkpt>
      <trkpt lat="44.64904" lon="6.67914">
        <ele>1793</ele>
        <time>2020-08-04T10:40:53Z</time>
      </trkpt>
      <trkpt lat="44.64894" lon="6.67885">
        <ele>1782</ele>
        <time>2020-08-04T10:40:58Z</time>
      </trkpt>
      <trkpt lat="44.64888" lon="6.67869">
        <ele>1775</ele>
        <time>2020-08-04T10:41:01Z</time>
      </trkpt>
      <trkpt lat="44.64887" lon="6.67856">
        <ele>1770</ele>
        <time>2020-08-04T10:41:03Z</time>
      </trkpt>
      <trkpt lat="44.64888" lon="6.67846">
        <ele>1767</ele>
        <time>2020-08-04T10:41:05Z</time>
      </trkpt>
      <trkpt lat="44.64891" lon="6.67815">
        <ele>1756</ele>
        <time>2020-08-04T10:41:10Z</time>
      </trkpt>
      <trkpt lat="44.64892" lon="6.67804">
        <ele>1752</ele>
        <time>2020-08-04T10:41:13Z</time>
      </trkpt>
      <trkpt lat="44.64895" lon="6.67788">
        <ele>1748</ele>
        <time>2020-08-04T10:41:16Z</time>
      </trkpt>
      <trkpt lat="44.64896" lon="6.67772">
        <ele>1743</ele>
        <time>2020-08-04T10:41:19Z</time>
      </trkpt>
      <trkpt lat="44.64897" lon="6.67767">
        <ele>1743</ele>
        <time>2020-08-04T10:41:23Z</time>
      </trkpt>
      <trkpt lat="44.64897" lon="6.67767">
        <ele>1742</ele>
        <time>2020-08-04T10:41:25Z</time>
      </trkpt>
      <trkpt lat="44.64898" lon="6.6776">
        <ele>1741</ele>
        <time>2020-08-04T10:41:57Z</time>
      </trkpt>
      <trkpt lat="44.64892" lon="6.67736">
        <ele>1736</ele>
        <time>2020-08-04T10:42:02Z</time>
      </trkpt>
      <trkpt lat="44.64881" lon="6.67702">
        <ele>1728</ele>
        <time>2020-08-04T10:42:08Z</time>
      </trkpt>
      <trkpt lat="44.6489" lon="6.67694">
        <ele>1729</ele>
        <time>2020-08-04T10:42:12Z</time>
      </trkpt>
      <trkpt lat="44.64902" lon="6.67691">
        <ele>1728</ele>
        <time>2020-08-04T10:42:15Z</time>
      </trkpt>
      <trkpt lat="44.64913" lon="6.6769">
        <ele>1728</ele>
        <time>2020-08-04T10:42:18Z</time>
      </trkpt>
      <trkpt lat="44.64915" lon="6.67686">
        <ele>1726</ele>
        <time>2020-08-04T10:42:21Z</time>
      </trkpt>
      <trkpt lat="44.64902" lon="6.67666">
        <ele>1724</ele>
        <time>2020-08-04T10:42:26Z</time>
      </trkpt>
      <trkpt lat="44.64892" lon="6.6765">
        <ele>1724</ele>
        <time>2020-08-04T10:42:30Z</time>
      </trkpt>
      <trkpt lat="44.64901" lon="6.67644">
        <ele>1719</ele>
        <time>2020-08-04T10:42:35Z</time>
      </trkpt>
      <trkpt lat="44.64911" lon="6.67646">
        <ele>1716</ele>
        <time>2020-08-04T10:42:37Z</time>
      </trkpt>
      <trkpt lat="44.64934" lon="6.67649">
        <ele>1714</ele>
        <time>2020-08-04T10:42:42Z</time>
      </trkpt>
      <trkpt lat="44.64943" lon="6.67655">
        <ele>1713</ele>
        <time>2020-08-04T10:42:45Z</time>
      </trkpt>
      <trkpt lat="44.64944" lon="6.67658">
        <ele>1714</ele>
        <time>2020-08-04T10:42:46Z</time>
      </trkpt>
      <trkpt lat="44.64948" lon="6.67657">
        <ele>1712</ele>
        <time>2020-08-04T10:42:48Z</time>
      </trkpt>
      <trkpt lat="44.6495" lon="6.67639">
        <ele>1709</ele>
        <time>2020-08-04T10:42:53Z</time>
      </trkpt>
      <trkpt lat="44.64939" lon="6.67617">
        <ele>1704</ele>
        <time>2020-08-04T10:42:59Z</time>
      </trkpt>
      <trkpt lat="44.6495" lon="6.67612">
        <ele>1700</ele>
        <time>2020-08-04T10:43:04Z</time>
      </trkpt>
      <trkpt lat="44.64974" lon="6.67618">
        <ele>1693</ele>
        <time>2020-08-04T10:43:10Z</time>
      </trkpt>
      <trkpt lat="44.64983" lon="6.67636">
        <ele>1693</ele>
        <time>2020-08-04T10:43:14Z</time>
      </trkpt>
      <trkpt lat="44.6499" lon="6.67642">
        <ele>1689</ele>
        <time>2020-08-04T10:43:18Z</time>
      </trkpt>
      <trkpt lat="44.64994" lon="6.67632">
        <ele>1686</ele>
        <time>2020-08-04T10:43:22Z</time>
      </trkpt>
      <trkpt lat="44.64999" lon="6.6762">
        <ele>1682</ele>
        <time>2020-08-04T10:43:26Z</time>
      </trkpt>
      <trkpt lat="44.65" lon="6.67616">
        <ele>1681</ele>
        <time>2020-08-04T10:43:27Z</time>
      </trkpt>
      <trkpt lat="44.64997" lon="6.67591">
        <ele>1679</ele>
        <time>2020-08-04T10:43:33Z</time>
      </trkpt>
      <trkpt lat="44.64986" lon="6.67567">
        <ele>1677</ele>
        <time>2020-08-04T10:43:37Z</time>
      </trkpt>
      <trkpt lat="44.64968" lon="6.67546">
        <ele>1673</ele>
        <time>2020-08-04T10:43:41Z</time>
      </trkpt>
      <trkpt lat="44.64947" lon="6.67536">
        <ele>1674</ele>
        <time>2020-08-04T10:43:47Z</time>
      </trkpt>
      <trkpt lat="44.64948" lon="6.67534">
        <ele>1673</ele>
        <time>2020-08-04T10:43:49Z</time>
      </trkpt>
      <trkpt lat="44.64955" lon="6.67529">
        <ele>1670</ele>
        <time>2020-08-04T10:43:53Z</time>
      </trkpt>
      <trkpt lat="44.6498" lon="6.67515">
        <ele>1660</ele>
        <time>2020-08-04T10:44:00Z</time>
      </trkpt>
      <trkpt lat="44.64989" lon="6.67515">
        <ele>1659</ele>
        <time>2020-08-04T10:44:06Z</time>
      </trkpt>
      <trkpt lat="44.6499" lon="6.67515">
        <ele>1659</ele>
        <time>2020-08-04T10:44:08Z</time>
      </trkpt>
      <trkpt lat="44.64979" lon="6.67502">
        <ele>1655</ele>
        <time>2020-08-04T10:44:14Z</time>
      </trkpt>
      <trkpt lat="44.64976" lon="6.67499">
        <ele>1654</ele>
        <time>2020-08-04T10:44:15Z</time>
      </trkpt>
      <trkpt lat="44.64972" lon="6.67497">
        <ele>1653</ele>
        <time>2020-08-04T10:44:16Z</time>
      </trkpt>
      <trkpt lat="44.64969" lon="6.67494">
        <ele>1652</ele>
        <time>2020-08-04T10:44:17Z</time>
      </trkpt>
      <trkpt lat="44.64965" lon="6.67492">
        <ele>1652</ele>
        <time>2020-08-04T10:44:18Z</time>
      </trkpt>
      <trkpt lat="44.64952" lon="6.67489">
        <ele>1651</ele>
        <time>2020-08-04T10:44:22Z</time>
      </trkpt>
      <trkpt lat="44.64952" lon="6.67487">
        <ele>1650</ele>
        <time>2020-08-04T10:44:23Z</time>
      </trkpt>
      <trkpt lat="44.64958" lon="6.67481">
        <ele>1647</ele>
        <time>2020-08-04T10:44:26Z</time>
      </trkpt>
      <trkpt lat="44.64967" lon="6.67469">
        <ele>1642</ele>
        <time>2020-08-04T10:44:31Z</time>
      </trkpt>
      <trkpt lat="44.64966" lon="6.67467">
        <ele>1641</ele>
        <time>2020-08-04T10:44:36Z</time>
      </trkpt>
      <trkpt lat="44.6497" lon="6.6746">
        <ele>1638</ele>
        <time>2020-08-04T10:46:09Z</time>
      </trkpt>
      <trkpt lat="44.64974" lon="6.67458">
        <ele>1637</ele>
        <time>2020-08-04T10:46:10Z</time>
      </trkpt>
      <trkpt lat="44.64977" lon="6.67456">
        <ele>1636</ele>
        <time>2020-08-04T10:46:11Z</time>
      </trkpt>
      <trkpt lat="44.64981" lon="6.67453">
        <ele>1634</ele>
        <time>2020-08-04T10:46:12Z</time>
      </trkpt>
      <trkpt lat="44.64985" lon="6.6745">
        <ele>1633</ele>
        <time>2020-08-04T10:46:13Z</time>
      </trkpt>
      <trkpt lat="44.6499" lon="6.67449">
        <ele>1631</ele>
        <time>2020-08-04T10:46:14Z</time>
      </trkpt>
      <trkpt lat="44.64993" lon="6.67447">
        <ele>1631</ele>
        <time>2020-08-04T10:46:15Z</time>
      </trkpt>
      <trkpt lat="44.65" lon="6.67449">
        <ele>1630</ele>
        <time>2020-08-04T10:46:17Z</time>
      </trkpt>
      <trkpt lat="44.65001" lon="6.67437">
        <ele>1626</ele>
        <time>2020-08-04T10:46:22Z</time>
      </trkpt>
      <trkpt lat="44.64996" lon="6.67429">
        <ele>1625</ele>
        <time>2020-08-04T10:46:24Z</time>
      </trkpt>
      <trkpt lat="44.6496" lon="6.67406">
        <ele>1619</ele>
        <time>2020-08-04T10:46:31Z</time>
      </trkpt>
      <trkpt lat="44.64949" lon="6.67402">
        <ele>1618</ele>
        <time>2020-08-04T10:46:34Z</time>
      </trkpt>
      <trkpt lat="44.64952" lon="6.67398">
        <ele>1616</ele>
        <time>2020-08-04T10:46:37Z</time>
      </trkpt>
      <trkpt lat="44.64954" lon="6.67395">
        <ele>1615</ele>
        <time>2020-08-04T10:46:38Z</time>
      </trkpt>
      <trkpt lat="44.64968" lon="6.67381">
        <ele>1611</ele>
        <time>2020-08-04T10:46:42Z</time>
      </trkpt>
      <trkpt lat="44.64995" lon="6.67362">
        <ele>1605</ele>
        <time>2020-08-04T10:46:49Z</time>
      </trkpt>
      <trkpt lat="44.65005" lon="6.67358">
        <ele>1603</ele>
        <time>2020-08-04T10:46:51Z</time>
      </trkpt>
      <trkpt lat="44.65023" lon="6.67355">
        <ele>1601</ele>
        <time>2020-08-04T10:46:54Z</time>
      </trkpt>
      <trkpt lat="44.65043" lon="6.67356">
        <ele>1595</ele>
        <time>2020-08-04T10:46:58Z</time>
      </trkpt>
      <trkpt lat="44.65048" lon="6.67348">
        <ele>1590</ele>
        <time>2020-08-04T10:47:02Z</time>
      </trkpt>
      <trkpt lat="44.65046" lon="6.67343">
        <ele>1588</ele>
        <time>2020-08-04T10:47:03Z</time>
      </trkpt>
      <trkpt lat="44.65026" lon="6.67318">
        <ele>1584</ele>
        <time>2020-08-04T10:47:08Z</time>
      </trkpt>
      <trkpt lat="44.65003" lon="6.67301">
        <ele>1575</ele>
        <time>2020-08-04T10:47:13Z</time>
      </trkpt>
      <trkpt lat="44.64975" lon="6.67298">
        <ele>1573</ele>
        <time>2020-08-04T10:47:18Z</time>
      </trkpt>
      <trkpt lat="44.64971" lon="6.67296">
        <ele>1572</ele>
        <time>2020-08-04T10:47:21Z</time>
      </trkpt>
      <trkpt lat="44.64978" lon="6.67285">
        <ele>1567</ele>
        <time>2020-08-04T10:47:25Z</time>
      </trkpt>
      <trkpt lat="44.6499" lon="6.6727">
        <ele>1562</ele>
        <time>2020-08-04T10:47:29Z</time>
      </trkpt>
      <trkpt lat="44.65014" lon="6.67252">
        <ele>1558</ele>
        <time>2020-08-04T10:47:35Z</time>
      </trkpt>
      <trkpt lat="44.65023" lon="6.67245">
        <ele>1556</ele>
        <time>2020-08-04T10:47:37Z</time>
      </trkpt>
      <trkpt lat="44.65041" lon="6.67239">
        <ele>1554</ele>
        <time>2020-08-04T10:47:40Z</time>
      </trkpt>
      <trkpt lat="44.65071" lon="6.67228">
        <ele>1550</ele>
        <time>2020-08-04T10:47:45Z</time>
      </trkpt>
      <trkpt lat="44.65083" lon="6.67225">
        <ele>1549</ele>
        <time>2020-08-04T10:47:48Z</time>
      </trkpt>
      <trkpt lat="44.65102" lon="6.67229">
        <ele>1542</ele>
        <time>2020-08-04T10:47:52Z</time>
      </trkpt>
      <trkpt lat="44.65109" lon="6.6723">
        <ele>1540</ele>
        <time>2020-08-04T10:47:54Z</time>
      </trkpt>
      <trkpt lat="44.651" lon="6.67211">
        <ele>1538</ele>
        <time>2020-08-04T10:47:58Z</time>
      </trkpt>
      <trkpt lat="44.65098" lon="6.67206">
        <ele>1537</ele>
        <time>2020-08-04T10:47:59Z</time>
      </trkpt>
      <trkpt lat="44.65077" lon="6.6718">
        <ele>1533</ele>
        <time>2020-08-04T10:48:07Z</time>
      </trkpt>
      <trkpt lat="44.65088" lon="6.67177">
        <ele>1530</ele>
        <time>2020-08-04T10:48:11Z</time>
      </trkpt>
      <trkpt lat="44.65109" lon="6.67182">
        <ele>1525</ele>
        <time>2020-08-04T10:48:15Z</time>
      </trkpt>
      <trkpt lat="44.65135" lon="6.67201">
        <ele>1520</ele>
        <time>2020-08-04T10:48:21Z</time>
      </trkpt>
      <trkpt lat="44.65154" lon="6.67223">
        <ele>1515</ele>
        <time>2020-08-04T10:48:26Z</time>
      </trkpt>
      <trkpt lat="44.65165" lon="6.67247">
        <ele>1513</ele>
        <time>2020-08-04T10:48:30Z</time>
      </trkpt>
      <trkpt lat="44.65173" lon="6.67271">
        <ele>1513</ele>
        <time>2020-08-04T10:48:34Z</time>
      </trkpt>
      <trkpt lat="44.65181" lon="6.67268">
        <ele>1507</ele>
        <time>2020-08-04T10:48:40Z</time>
      </trkpt>
      <trkpt lat="44.65182" lon="6.67254">
        <ele>1504</ele>
        <time>2020-08-04T10:48:42Z</time>
      </trkpt>
      <trkpt lat="44.65186" lon="6.67232">
        <ele>1500</ele>
        <time>2020-08-04T10:48:45Z</time>
      </trkpt>
      <trkpt lat="44.65191" lon="6.67216">
        <ele>1496</ele>
        <time>2020-08-04T10:48:47Z</time>
      </trkpt>
      <trkpt lat="44.65196" lon="6.67185">
        <ele>1492</ele>
        <time>2020-08-04T10:48:51Z</time>
      </trkpt>
      <trkpt lat="44.65195" lon="6.67177">
        <ele>1491</ele>
        <time>2020-08-04T10:48:52Z</time>
      </trkpt>
      <trkpt lat="44.65192" lon="6.67169">
        <ele>1491</ele>
        <time>2020-08-04T10:48:53Z</time>
      </trkpt>
      <trkpt lat="44.6519" lon="6.67162">
        <ele>1492</ele>
        <time>2020-08-04T10:48:54Z</time>
      </trkpt>
      <trkpt lat="44.65187" lon="6.67154">
        <ele>1491</ele>
        <time>2020-08-04T10:48:55Z</time>
      </trkpt>
      <trkpt lat="44.65184" lon="6.67149">
        <ele>1491</ele>
        <time>2020-08-04T10:48:56Z</time>
      </trkpt>
      <trkpt lat="44.65181" lon="6.67143">
        <ele>1491</ele>
        <time>2020-08-04T10:48:57Z</time>
      </trkpt>
      <trkpt lat="44.65176" lon="6.67139">
        <ele>1493</ele>
        <time>2020-08-04T10:48:58Z</time>
      </trkpt>
      <trkpt lat="44.65172" lon="6.67132">
        <ele>1493</ele>
        <time>2020-08-04T10:49:03Z</time>
      </trkpt>
      <trkpt lat="44.6517" lon="6.67132">
        <ele>1493</ele>
        <time>2020-08-04T10:49:08Z</time>
      </trkpt>
      <trkpt lat="44.65162" lon="6.67117">
        <ele>1492</ele>
        <time>2020-08-04T10:50:24Z</time>
      </trkpt>
      <trkpt lat="44.6516" lon="6.6711">
        <ele>1491</ele>
        <time>2020-08-04T10:50:25Z</time>
      </trkpt>
      <trkpt lat="44.65157" lon="6.67103">
        <ele>1490</ele>
        <time>2020-08-04T10:50:26Z</time>
      </trkpt>
      <trkpt lat="44.65151" lon="6.67096">
        <ele>1489</ele>
        <time>2020-08-04T10:50:27Z</time>
      </trkpt>
      <trkpt lat="44.65137" lon="6.67076">
        <ele>1486</ele>
        <time>2020-08-04T10:50:30Z</time>
      </trkpt>
      <trkpt lat="44.65111" lon="6.67048">
        <ele>1479</ele>
        <time>2020-08-04T10:50:35Z</time>
      </trkpt>
      <trkpt lat="44.65101" lon="6.67037">
        <ele>1477</ele>
        <time>2020-08-04T10:50:38Z</time>
      </trkpt>
      <trkpt lat="44.65113" lon="6.6702">
        <ele>1471</ele>
        <time>2020-08-04T10:50:44Z</time>
      </trkpt>
      <trkpt lat="44.65126" lon="6.67017">
        <ele>1469</ele>
        <time>2020-08-04T10:50:46Z</time>
      </trkpt>
      <trkpt lat="44.65169" lon="6.67012">
        <ele>1465</ele>
        <time>2020-08-04T10:50:53Z</time>
      </trkpt>
      <trkpt lat="44.65189" lon="6.6701">
        <ele>1460</ele>
        <time>2020-08-04T10:50:56Z</time>
      </trkpt>
      <trkpt lat="44.65211" lon="6.6702">
        <ele>1458</ele>
        <time>2020-08-04T10:51:01Z</time>
      </trkpt>
      <trkpt lat="44.65213" lon="6.67022">
        <ele>1458</ele>
        <time>2020-08-04T10:51:02Z</time>
      </trkpt>
      <trkpt lat="44.65214" lon="6.67013">
        <ele>1454</ele>
        <time>2020-08-04T10:51:07Z</time>
      </trkpt>
      <trkpt lat="44.65213" lon="6.67008">
        <ele>1453</ele>
        <time>2020-08-04T10:51:08Z</time>
      </trkpt>
      <trkpt lat="44.65208" lon="6.66997">
        <ele>1451</ele>
        <time>2020-08-04T10:51:10Z</time>
      </trkpt>
      <trkpt lat="44.652" lon="6.66983">
        <ele>1449</ele>
        <time>2020-08-04T10:51:12Z</time>
      </trkpt>
      <trkpt lat="44.6517" lon="6.66932">
        <ele>1440</ele>
        <time>2020-08-04T10:51:18Z</time>
      </trkpt>
      <trkpt lat="44.65132" lon="6.66905">
        <ele>1433</ele>
        <time>2020-08-04T10:51:23Z</time>
      </trkpt>
      <trkpt lat="44.65124" lon="6.66903">
        <ele>1432</ele>
        <time>2020-08-04T10:51:24Z</time>
      </trkpt>
      <trkpt lat="44.65104" lon="6.66896">
        <ele>1429</ele>
        <time>2020-08-04T10:51:27Z</time>
      </trkpt>
      <trkpt lat="44.6509" lon="6.6689">
        <ele>1425</ele>
        <time>2020-08-04T10:51:29Z</time>
      </trkpt>
      <trkpt lat="44.65077" lon="6.66887">
        <ele>1424</ele>
        <time>2020-08-04T10:51:32Z</time>
      </trkpt>
      <trkpt lat="44.65077" lon="6.66882">
        <ele>1422</ele>
        <time>2020-08-04T10:51:36Z</time>
      </trkpt>
      <trkpt lat="44.65083" lon="6.66878">
        <ele>1420</ele>
        <time>2020-08-04T10:51:38Z</time>
      </trkpt>
      <trkpt lat="44.65097" lon="6.66862">
        <ele>1416</ele>
        <time>2020-08-04T10:51:41Z</time>
      </trkpt>
      <trkpt lat="44.65107" lon="6.66853">
        <ele>1415</ele>
        <time>2020-08-04T10:51:43Z</time>
      </trkpt>
      <trkpt lat="44.65124" lon="6.66842">
        <ele>1413</ele>
        <time>2020-08-04T10:51:46Z</time>
      </trkpt>
      <trkpt lat="44.65153" lon="6.66835">
        <ele>1409</ele>
        <time>2020-08-04T10:51:50Z</time>
      </trkpt>
      <trkpt lat="44.65177" lon="6.66831">
        <ele>1404</ele>
        <time>2020-08-04T10:51:53Z</time>
      </trkpt>
      <trkpt lat="44.65196" lon="6.66831">
        <ele>1399</ele>
        <time>2020-08-04T10:51:55Z</time>
      </trkpt>
      <trkpt lat="44.65204" lon="6.66829">
        <ele>1398</ele>
        <time>2020-08-04T10:51:56Z</time>
      </trkpt>
      <trkpt lat="44.65232" lon="6.66822">
        <ele>1391</ele>
        <time>2020-08-04T10:51:59Z</time>
      </trkpt>
      <trkpt lat="44.65264" lon="6.66827">
        <ele>1384</ele>
        <time>2020-08-04T10:52:03Z</time>
      </trkpt>
      <trkpt lat="44.65273" lon="6.66831">
        <ele>1383</ele>
        <time>2020-08-04T10:52:04Z</time>
      </trkpt>
      <trkpt lat="44.65289" lon="6.66843">
        <ele>1380</ele>
        <time>2020-08-04T10:52:07Z</time>
      </trkpt>
      <trkpt lat="44.65292" lon="6.66866">
        <ele>1383</ele>
        <time>2020-08-04T10:52:12Z</time>
      </trkpt>
      <trkpt lat="44.65296" lon="6.66877">
        <ele>1384</ele>
        <time>2020-08-04T10:52:14Z</time>
      </trkpt>
      <trkpt lat="44.65298" lon="6.66882">
        <ele>1384</ele>
        <time>2020-08-04T10:52:15Z</time>
      </trkpt>
      <trkpt lat="44.653" lon="6.66886">
        <ele>1384</ele>
        <time>2020-08-04T10:52:16Z</time>
      </trkpt>
      <trkpt lat="44.65302" lon="6.6689">
        <ele>1383</ele>
        <time>2020-08-04T10:52:17Z</time>
      </trkpt>
      <trkpt lat="44.65305" lon="6.66894">
        <ele>1383</ele>
        <time>2020-08-04T10:52:18Z</time>
      </trkpt>
      <trkpt lat="44.65316" lon="6.66905">
        <ele>1381</ele>
        <time>2020-08-04T10:52:22Z</time>
      </trkpt>
      <trkpt lat="44.65318" lon="6.66903">
        <ele>1380</ele>
        <time>2020-08-04T10:52:24Z</time>
      </trkpt>
      <trkpt lat="44.65318" lon="6.669">
        <ele>1379</ele>
        <time>2020-08-04T10:52:25Z</time>
      </trkpt>
      <trkpt lat="44.65316" lon="6.66896">
        <ele>1379</ele>
        <time>2020-08-04T10:52:26Z</time>
      </trkpt>
      <trkpt lat="44.65315" lon="6.66892">
        <ele>1379</ele>
        <time>2020-08-04T10:52:27Z</time>
      </trkpt>
      <trkpt lat="44.65315" lon="6.6685">
        <ele>1373</ele>
        <time>2020-08-04T10:52:37Z</time>
      </trkpt>
      <trkpt lat="44.65317" lon="6.66837">
        <ele>1370</ele>
        <time>2020-08-04T10:52:40Z</time>
      </trkpt>
      <trkpt lat="44.65316" lon="6.66833">
        <ele>1370</ele>
        <time>2020-08-04T10:52:41Z</time>
      </trkpt>
      <trkpt lat="44.65314" lon="6.66829">
        <ele>1369</ele>
        <time>2020-08-04T10:52:42Z</time>
      </trkpt>
      <trkpt lat="44.65313" lon="6.66825">
        <ele>1369</ele>
        <time>2020-08-04T10:52:43Z</time>
      </trkpt>
      <trkpt lat="44.65312" lon="6.66821">
        <ele>1369</ele>
        <time>2020-08-04T10:52:44Z</time>
      </trkpt>
      <trkpt lat="44.6531" lon="6.66818">
        <ele>1368</ele>
        <time>2020-08-04T10:52:45Z</time>
      </trkpt>
      <trkpt lat="44.65308" lon="6.66815">
        <ele>1368</ele>
        <time>2020-08-04T10:52:46Z</time>
      </trkpt>
      <trkpt lat="44.65305" lon="6.66813">
        <ele>1368</ele>
        <time>2020-08-04T10:52:47Z</time>
      </trkpt>
      <trkpt lat="44.65288" lon="6.66795">
        <ele>1368</ele>
        <time>2020-08-04T10:52:56Z</time>
      </trkpt>
      <trkpt lat="44.65284" lon="6.6679">
        <ele>1368</ele>
        <time>2020-08-04T10:53:02Z</time>
      </trkpt>
      <trkpt lat="44.65287" lon="6.66797">
        <ele>1369</ele>
        <time>2020-08-04T10:53:32Z</time>
      </trkpt>
      <trkpt lat="44.65311" lon="6.66826">
        <ele>1370</ele>
        <time>2020-08-04T10:53:47Z</time>
      </trkpt>
      <trkpt lat="44.65313" lon="6.6686">
        <ele>1375</ele>
        <time>2020-08-04T10:54:00Z</time>
      </trkpt>
      <trkpt lat="44.65312" lon="6.6689">
        <ele>1380</ele>
        <time>2020-08-04T10:54:15Z</time>
      </trkpt>
      <trkpt lat="44.6532" lon="6.66913">
        <ele>1380</ele>
        <time>2020-08-04T10:54:30Z</time>
      </trkpt>
      <trkpt lat="44.65321" lon="6.66915">
        <ele>1380</ele>
        <time>2020-08-04T10:54:31Z</time>
      </trkpt>
      <trkpt lat="44.65323" lon="6.66921">
        <ele>1380</ele>
        <time>2020-08-04T10:54:41Z</time>
      </trkpt>
      <trkpt lat="44.65315" lon="6.66908">
        <ele>1381</ele>
        <time>2020-08-04T10:57:25Z</time>
      </trkpt>
      <trkpt lat="44.65309" lon="6.66883">
        <ele>1380</ele>
        <time>2020-08-04T10:57:29Z</time>
      </trkpt>
      <trkpt lat="44.65309" lon="6.66874">
        <ele>1378</ele>
        <time>2020-08-04T10:57:30Z</time>
      </trkpt>
      <trkpt lat="44.65309" lon="6.66865">
        <ele>1377</ele>
        <time>2020-08-04T10:57:31Z</time>
      </trkpt>
      <trkpt lat="44.65312" lon="6.66836">
        <ele>1372</ele>
        <time>2020-08-04T10:57:34Z</time>
      </trkpt>
      <trkpt lat="44.65312" lon="6.66828">
        <ele>1370</ele>
        <time>2020-08-04T10:57:35Z</time>
      </trkpt>
      <trkpt lat="44.65309" lon="6.66819">
        <ele>1369</ele>
        <time>2020-08-04T10:57:36Z</time>
      </trkpt>
      <trkpt lat="44.65305" lon="6.66812">
        <ele>1368</ele>
        <time>2020-08-04T10:57:37Z</time>
      </trkpt>
      <trkpt lat="44.65301" lon="6.66806">
        <ele>1368</ele>
        <time>2020-08-04T10:57:38Z</time>
      </trkpt>
      <trkpt lat="44.65296" lon="6.66802">
        <ele>1368</ele>
        <time>2020-08-04T10:57:39Z</time>
      </trkpt>
      <trkpt lat="44.65291" lon="6.66797">
        <ele>1368</ele>
        <time>2020-08-04T10:57:40Z</time>
      </trkpt>
      <trkpt lat="44.65282" lon="6.66788">
        <ele>1367</ele>
        <time>2020-08-04T10:57:42Z</time>
      </trkpt>
      <trkpt lat="44.65279" lon="6.66782">
        <ele>1366</ele>
        <time>2020-08-04T10:57:43Z</time>
      </trkpt>
      <trkpt lat="44.65275" lon="6.66776">
        <ele>1364</ele>
        <time>2020-08-04T10:57:44Z</time>
      </trkpt>
      <trkpt lat="44.65271" lon="6.6677">
        <ele>1362</ele>
        <time>2020-08-04T10:57:45Z</time>
      </trkpt>
      <trkpt lat="44.65266" lon="6.66765">
        <ele>1361</ele>
        <time>2020-08-04T10:57:46Z</time>
      </trkpt>
      <trkpt lat="44.65261" lon="6.66761">
        <ele>1360</ele>
        <time>2020-08-04T10:57:47Z</time>
      </trkpt>
      <trkpt lat="44.65256" lon="6.66758">
        <ele>1359</ele>
        <time>2020-08-04T10:57:48Z</time>
      </trkpt>
      <trkpt lat="44.65252" lon="6.66756">
        <ele>1359</ele>
        <time>2020-08-04T10:57:49Z</time>
      </trkpt>
      <trkpt lat="44.65249" lon="6.66755">
        <ele>1359</ele>
        <time>2020-08-04T10:57:50Z</time>
      </trkpt>
      <trkpt lat="44.6524" lon="6.66752">
        <ele>1359</ele>
        <time>2020-08-04T10:57:53Z</time>
      </trkpt>
      <trkpt lat="44.65239" lon="6.66749">
        <ele>1359</ele>
        <time>2020-08-04T10:57:54Z</time>
      </trkpt>
      <trkpt lat="44.6524" lon="6.66747">
        <ele>1358</ele>
        <time>2020-08-04T10:57:55Z</time>
      </trkpt>
      <trkpt lat="44.65244" lon="6.66748">
        <ele>1357</ele>
        <time>2020-08-04T10:57:57Z</time>
      </trkpt>
      <trkpt lat="44.65252" lon="6.66749">
        <ele>1356</ele>
        <time>2020-08-04T10:57:59Z</time>
      </trkpt>
      <trkpt lat="44.65257" lon="6.66748">
        <ele>1355</ele>
        <time>2020-08-04T10:58:00Z</time>
      </trkpt>
      <trkpt lat="44.65268" lon="6.66745">
        <ele>1353</ele>
        <time>2020-08-04T10:58:03Z</time>
      </trkpt>
      <trkpt lat="44.65272" lon="6.66745">
        <ele>1352</ele>
        <time>2020-08-04T10:58:04Z</time>
      </trkpt>
      <trkpt lat="44.65276" lon="6.66745">
        <ele>1352</ele>
        <time>2020-08-04T10:58:05Z</time>
      </trkpt>
      <trkpt lat="44.65281" lon="6.66745">
        <ele>1351</ele>
        <time>2020-08-04T10:58:06Z</time>
      </trkpt>
      <trkpt lat="44.65302" lon="6.66745">
        <ele>1348</ele>
        <time>2020-08-04T10:58:10Z</time>
      </trkpt>
      <trkpt lat="44.65326" lon="6.66754">
        <ele>1347</ele>
        <time>2020-08-04T10:58:14Z</time>
      </trkpt>
      <trkpt lat="44.65355" lon="6.66755">
        <ele>1342</ele>
        <time>2020-08-04T10:58:18Z</time>
      </trkpt>
      <trkpt lat="44.65383" lon="6.66765">
        <ele>1336</ele>
        <time>2020-08-04T10:58:22Z</time>
      </trkpt>
      <trkpt lat="44.65389" lon="6.66769">
        <ele>1335</ele>
        <time>2020-08-04T10:58:26Z</time>
      </trkpt>
      <trkpt lat="44.65384" lon="6.66755">
        <ele>1334</ele>
        <time>2020-08-04T10:58:29Z</time>
      </trkpt>
      <trkpt lat="44.65379" lon="6.66714">
        <ele>1328</ele>
        <time>2020-08-04T10:58:36Z</time>
      </trkpt>
      <trkpt lat="44.65396" lon="6.66724">
        <ele>1326</ele>
        <time>2020-08-04T10:58:40Z</time>
      </trkpt>
      <trkpt lat="44.65426" lon="6.6674">
        <ele>1318</ele>
        <time>2020-08-04T10:58:46Z</time>
      </trkpt>
      <trkpt lat="44.65438" lon="6.66754">
        <ele>1313</ele>
        <time>2020-08-04T10:58:50Z</time>
      </trkpt>
      <trkpt lat="44.65437" lon="6.66759">
        <ele>1313</ele>
        <time>2020-08-04T10:58:51Z</time>
      </trkpt>
      <trkpt lat="44.65436" lon="6.66765">
        <ele>1313</ele>
        <time>2020-08-04T10:58:52Z</time>
      </trkpt>
      <trkpt lat="44.65435" lon="6.66772">
        <ele>1314</ele>
        <time>2020-08-04T10:58:53Z</time>
      </trkpt>
      <trkpt lat="44.65433" lon="6.6678">
        <ele>1314</ele>
        <time>2020-08-04T10:58:54Z</time>
      </trkpt>
      <trkpt lat="44.6543" lon="6.66798">
        <ele>1316</ele>
        <time>2020-08-04T10:58:56Z</time>
      </trkpt>
      <trkpt lat="44.6543" lon="6.66807">
        <ele>1316</ele>
        <time>2020-08-04T10:58:57Z</time>
      </trkpt>
      <trkpt lat="44.6543" lon="6.66817">
        <ele>1315</ele>
        <time>2020-08-04T10:58:58Z</time>
      </trkpt>
      <trkpt lat="44.65431" lon="6.66834">
        <ele>1313</ele>
        <time>2020-08-04T10:59:01Z</time>
      </trkpt>
      <trkpt lat="44.65433" lon="6.66833">
        <ele>1312</ele>
        <time>2020-08-04T10:59:02Z</time>
      </trkpt>
      <trkpt lat="44.65434" lon="6.6683">
        <ele>1311</ele>
        <time>2020-08-04T10:59:03Z</time>
      </trkpt>
      <trkpt lat="44.65437" lon="6.66819">
        <ele>1310</ele>
        <time>2020-08-04T10:59:05Z</time>
      </trkpt>
      <trkpt lat="44.65439" lon="6.66813">
        <ele>1309</ele>
        <time>2020-08-04T10:59:06Z</time>
      </trkpt>
      <trkpt lat="44.65441" lon="6.66807">
        <ele>1308</ele>
        <time>2020-08-04T10:59:07Z</time>
      </trkpt>
      <trkpt lat="44.65448" lon="6.66797">
        <ele>1305</ele>
        <time>2020-08-04T10:59:09Z</time>
      </trkpt>
      <trkpt lat="44.65451" lon="6.66792">
        <ele>1303</ele>
        <time>2020-08-04T10:59:10Z</time>
      </trkpt>
      <trkpt lat="44.65453" lon="6.66787">
        <ele>1303</ele>
        <time>2020-08-04T10:59:11Z</time>
      </trkpt>
      <trkpt lat="44.65459" lon="6.66774">
        <ele>1300</ele>
        <time>2020-08-04T10:59:17Z</time>
      </trkpt>
      <trkpt lat="44.65459" lon="6.66774">
        <ele>1300</ele>
        <time>2020-08-04T10:59:18Z</time>
      </trkpt>
      <trkpt lat="44.65467" lon="6.66764">
        <ele>1296</ele>
        <time>2020-08-04T10:59:28Z</time>
      </trkpt>
      <trkpt lat="44.65468" lon="6.66758">
        <ele>1296</ele>
        <time>2020-08-04T10:59:29Z</time>
      </trkpt>
      <trkpt lat="44.65468" lon="6.66751">
        <ele>1296</ele>
        <time>2020-08-04T10:59:30Z</time>
      </trkpt>
      <trkpt lat="44.65469" lon="6.66744">
        <ele>1296</ele>
        <time>2020-08-04T10:59:31Z</time>
      </trkpt>
      <trkpt lat="44.6547" lon="6.66737">
        <ele>1296</ele>
        <time>2020-08-04T10:59:36Z</time>
      </trkpt>
      <trkpt lat="44.65471" lon="6.6674">
        <ele>1295</ele>
        <time>2020-08-04T10:59:37Z</time>
      </trkpt>
      <trkpt lat="44.65472" lon="6.66762">
        <ele>1293</ele>
        <time>2020-08-04T10:59:42Z</time>
      </trkpt>
      <trkpt lat="44.65472" lon="6.66773">
        <ele>1292</ele>
        <time>2020-08-04T10:59:44Z</time>
      </trkpt>
      <trkpt lat="44.65466" lon="6.66804">
        <ele>1294</ele>
        <time>2020-08-04T10:59:48Z</time>
      </trkpt>
      <trkpt lat="44.65465" lon="6.6682">
        <ele>1294</ele>
        <time>2020-08-04T10:59:50Z</time>
      </trkpt>
      <trkpt lat="44.65466" lon="6.66825">
        <ele>1293</ele>
        <time>2020-08-04T10:59:51Z</time>
      </trkpt>
      <trkpt lat="44.65469" lon="6.66827">
        <ele>1291</ele>
        <time>2020-08-04T10:59:52Z</time>
      </trkpt>
      <trkpt lat="44.65479" lon="6.66832">
        <ele>1287</ele>
        <time>2020-08-04T10:59:55Z</time>
      </trkpt>
      <trkpt lat="44.65497" lon="6.66826">
        <ele>1282</ele>
        <time>2020-08-04T10:59:59Z</time>
      </trkpt>
      <trkpt lat="44.65519" lon="6.6681">
        <ele>1272</ele>
        <time>2020-08-04T11:00:04Z</time>
      </trkpt>
      <trkpt lat="44.65525" lon="6.66806">
        <ele>1269</ele>
        <time>2020-08-04T11:00:05Z</time>
      </trkpt>
      <trkpt lat="44.6554" lon="6.66794">
        <ele>1264</ele>
        <time>2020-08-04T11:00:08Z</time>
      </trkpt>
      <trkpt lat="44.65553" lon="6.6678">
        <ele>1260</ele>
        <time>2020-08-04T11:00:12Z</time>
      </trkpt>
      <trkpt lat="44.65558" lon="6.66773">
        <ele>1259</ele>
        <time>2020-08-04T11:00:14Z</time>
      </trkpt>
      <trkpt lat="44.65562" lon="6.66766">
        <ele>1258</ele>
        <time>2020-08-04T11:00:16Z</time>
      </trkpt>
      <trkpt lat="44.65574" lon="6.66748">
        <ele>1254</ele>
        <time>2020-08-04T11:00:21Z</time>
      </trkpt>
      <trkpt lat="44.65587" lon="6.66729">
        <ele>1249</ele>
        <time>2020-08-04T11:00:25Z</time>
      </trkpt>
      <trkpt lat="44.65602" lon="6.66718">
        <ele>1244</ele>
        <time>2020-08-04T11:00:29Z</time>
      </trkpt>
      <trkpt lat="44.65605" lon="6.66728">
        <ele>1244</ele>
        <time>2020-08-04T11:00:33Z</time>
      </trkpt>
      <trkpt lat="44.656" lon="6.66744">
        <ele>1246</ele>
        <time>2020-08-04T11:00:36Z</time>
      </trkpt>
      <trkpt lat="44.656" lon="6.6677">
        <ele>1247</ele>
        <time>2020-08-04T11:00:40Z</time>
      </trkpt>
      <trkpt lat="44.65609" lon="6.66759">
        <ele>1243</ele>
        <time>2020-08-04T11:00:45Z</time>
      </trkpt>
      <trkpt lat="44.65624" lon="6.66736">
        <ele>1236</ele>
        <time>2020-08-04T11:00:50Z</time>
      </trkpt>
      <trkpt lat="44.65621" lon="6.6675">
        <ele>1237</ele>
        <time>2020-08-04T11:00:55Z</time>
      </trkpt>
      <trkpt lat="44.65619" lon="6.66771">
        <ele>1238</ele>
        <time>2020-08-04T11:00:58Z</time>
      </trkpt>
      <trkpt lat="44.65627" lon="6.66781">
        <ele>1234</ele>
        <time>2020-08-04T11:01:04Z</time>
      </trkpt>
      <trkpt lat="44.65639" lon="6.6677">
        <ele>1228</ele>
        <time>2020-08-04T11:01:07Z</time>
      </trkpt>
      <trkpt lat="44.65647" lon="6.66761">
        <ele>1226</ele>
        <time>2020-08-04T11:01:09Z</time>
      </trkpt>
      <trkpt lat="44.65666" lon="6.66738">
        <ele>1217</ele>
        <time>2020-08-04T11:01:15Z</time>
      </trkpt>
      <trkpt lat="44.65679" lon="6.66734">
        <ele>1212</ele>
        <time>2020-08-04T11:01:18Z</time>
      </trkpt>
      <trkpt lat="44.65686" lon="6.66733">
        <ele>1209</ele>
        <time>2020-08-04T11:01:20Z</time>
      </trkpt>
      <trkpt lat="44.65697" lon="6.66743">
        <ele>1208</ele>
        <time>2020-08-04T11:01:24Z</time>
      </trkpt>
      <trkpt lat="44.65704" lon="6.66738">
        <ele>1206</ele>
        <time>2020-08-04T11:01:27Z</time>
      </trkpt>
      <trkpt lat="44.65718" lon="6.6672">
        <ele>1202</ele>
        <time>2020-08-04T11:01:31Z</time>
      </trkpt>
      <trkpt lat="44.65721" lon="6.66717">
        <ele>1201</ele>
        <time>2020-08-04T11:01:32Z</time>
      </trkpt>
      <trkpt lat="44.65741" lon="6.66705">
        <ele>1198</ele>
        <time>2020-08-04T11:01:38Z</time>
      </trkpt>
      <trkpt lat="44.65743" lon="6.66704">
        <ele>1198</ele>
        <time>2020-08-04T11:01:42Z</time>
      </trkpt>
      <trkpt lat="44.65743" lon="6.66704">
        <ele>1198</ele>
        <time>2020-08-04T11:01:43Z</time>
      </trkpt>
      <trkpt lat="44.65743" lon="6.66699">
        <ele>1197</ele>
        <time>2020-08-04T11:02:05Z</time>
      </trkpt>
      <trkpt lat="44.6575" lon="6.66688">
        <ele>1195</ele>
        <time>2020-08-04T11:02:07Z</time>
      </trkpt>
      <trkpt lat="44.6577" lon="6.66653">
        <ele>1187</ele>
        <time>2020-08-04T11:02:12Z</time>
      </trkpt>
      <trkpt lat="44.65787" lon="6.66624">
        <ele>1182</ele>
        <time>2020-08-04T11:02:17Z</time>
      </trkpt>
      <trkpt lat="44.65793" lon="6.66604">
        <ele>1179</ele>
        <time>2020-08-04T11:02:20Z</time>
      </trkpt>
      <trkpt lat="44.65794" lon="6.66597">
        <ele>1178</ele>
        <time>2020-08-04T11:02:21Z</time>
      </trkpt>
      <trkpt lat="44.658" lon="6.66567">
        <ele>1172</ele>
        <time>2020-08-04T11:02:25Z</time>
      </trkpt>
      <trkpt lat="44.65806" lon="6.66551">
        <ele>1169</ele>
        <time>2020-08-04T11:02:27Z</time>
      </trkpt>
      <trkpt lat="44.65816" lon="6.66526">
        <ele>1163</ele>
        <time>2020-08-04T11:02:30Z</time>
      </trkpt>
      <trkpt lat="44.65827" lon="6.66499">
        <ele>1158</ele>
        <time>2020-08-04T11:02:33Z</time>
      </trkpt>
      <trkpt lat="44.65833" lon="6.66459">
        <ele>1153</ele>
        <time>2020-08-04T11:02:37Z</time>
      </trkpt>
      <trkpt lat="44.65835" lon="6.66433">
        <ele>1150</ele>
        <time>2020-08-04T11:02:40Z</time>
      </trkpt>
      <trkpt lat="44.65838" lon="6.66407">
        <ele>1146</ele>
        <time>2020-08-04T11:02:44Z</time>
      </trkpt>
      <trkpt lat="44.6584" lon="6.66393">
        <ele>1143</ele>
        <time>2020-08-04T11:02:47Z</time>
      </trkpt>
      <trkpt lat="44.65841" lon="6.66391">
        <ele>1143</ele>
        <time>2020-08-04T11:02:48Z</time>
      </trkpt>
      <trkpt lat="44.65844" lon="6.66391">
        <ele>1143</ele>
        <time>2020-08-04T11:02:49Z</time>
      </trkpt>
      <trkpt lat="44.65857" lon="6.66393">
        <ele>1142</ele>
        <time>2020-08-04T11:02:53Z</time>
      </trkpt>
      <trkpt lat="44.65892" lon="6.66399">
        <ele>1140</ele>
        <time>2020-08-04T11:03:01Z</time>
      </trkpt>
      <trkpt lat="44.65912" lon="6.66412">
        <ele>1139</ele>
        <time>2020-08-04T11:03:05Z</time>
      </trkpt>
      <trkpt lat="44.65968" lon="6.66458">
        <ele>1133</ele>
        <time>2020-08-04T11:03:14Z</time>
      </trkpt>
      <trkpt lat="44.66008" lon="6.66491">
        <ele>1131</ele>
        <time>2020-08-04T11:03:19Z</time>
      </trkpt>
      <trkpt lat="44.6604" lon="6.66523">
        <ele>1129</ele>
        <time>2020-08-04T11:03:23Z</time>
      </trkpt>
      <trkpt lat="44.6607" lon="6.66561">
        <ele>1129</ele>
        <time>2020-08-04T11:03:27Z</time>
      </trkpt>
      <trkpt lat="44.66077" lon="6.66566">
        <ele>1130</ele>
        <time>2020-08-04T11:03:28Z</time>
      </trkpt>
      <trkpt lat="44.66084" lon="6.66567">
        <ele>1130</ele>
        <time>2020-08-04T11:03:29Z</time>
      </trkpt>
      <trkpt lat="44.66094" lon="6.66566">
        <ele>1130</ele>
        <time>2020-08-04T11:03:30Z</time>
      </trkpt>
      <trkpt lat="44.66103" lon="6.66564">
        <ele>1129</ele>
        <time>2020-08-04T11:03:31Z</time>
      </trkpt>
      <trkpt lat="44.66112" lon="6.6656">
        <ele>1128</ele>
        <time>2020-08-04T11:03:32Z</time>
      </trkpt>
      <trkpt lat="44.66122" lon="6.66555">
        <ele>1128</ele>
        <time>2020-08-04T11:03:33Z</time>
      </trkpt>
      <trkpt lat="44.6614" lon="6.66543">
        <ele>1129</ele>
        <time>2020-08-04T11:03:35Z</time>
      </trkpt>
      <trkpt lat="44.6615" lon="6.66535">
        <ele>1128</ele>
        <time>2020-08-04T11:03:36Z</time>
      </trkpt>
      <trkpt lat="44.66159" lon="6.66527">
        <ele>1125</ele>
        <time>2020-08-04T11:03:37Z</time>
      </trkpt>
      <trkpt lat="44.66178" lon="6.66509">
        <ele>1124</ele>
        <time>2020-08-04T11:03:39Z</time>
      </trkpt>
      <trkpt lat="44.66189" lon="6.66504">
        <ele>1124</ele>
        <time>2020-08-04T11:03:40Z</time>
      </trkpt>
      <trkpt lat="44.662" lon="6.66498">
        <ele>1124</ele>
        <time>2020-08-04T11:03:41Z</time>
      </trkpt>
      <trkpt lat="44.66209" lon="6.66492">
        <ele>1124</ele>
        <time>2020-08-04T11:03:42Z</time>
      </trkpt>
      <trkpt lat="44.66217" lon="6.66486">
        <ele>1123</ele>
        <time>2020-08-04T11:03:43Z</time>
      </trkpt>
      <trkpt lat="44.66225" lon="6.66479">
        <ele>1122</ele>
        <time>2020-08-04T11:03:44Z</time>
      </trkpt>
      <trkpt lat="44.66258" lon="6.66448">
        <ele>1118</ele>
        <time>2020-08-04T11:03:48Z</time>
      </trkpt>
      <trkpt lat="44.66275" lon="6.66431">
        <ele>1116</ele>
        <time>2020-08-04T11:03:50Z</time>
      </trkpt>
      <trkpt lat="44.66322" lon="6.66388">
        <ele>1107</ele>
        <time>2020-08-04T11:03:55Z</time>
      </trkpt>
      <trkpt lat="44.66333" lon="6.66384">
        <ele>1106</ele>
        <time>2020-08-04T11:03:56Z</time>
      </trkpt>
      <trkpt lat="44.66345" lon="6.66384">
        <ele>1105</ele>
        <time>2020-08-04T11:03:57Z</time>
      </trkpt>
      <trkpt lat="44.66357" lon="6.66385">
        <ele>1104</ele>
        <time>2020-08-04T11:03:58Z</time>
      </trkpt>
      <trkpt lat="44.66369" lon="6.66387">
        <ele>1104</ele>
        <time>2020-08-04T11:03:59Z</time>
      </trkpt>
      <trkpt lat="44.66382" lon="6.66387">
        <ele>1103</ele>
        <time>2020-08-04T11:04:00Z</time>
      </trkpt>
      <trkpt lat="44.66394" lon="6.66382">
        <ele>1102</ele>
        <time>2020-08-04T11:04:01Z</time>
      </trkpt>
      <trkpt lat="44.66405" lon="6.66376">
        <ele>1102</ele>
        <time>2020-08-04T11:04:02Z</time>
      </trkpt>
      <trkpt lat="44.66416" lon="6.66371">
        <ele>1101</ele>
        <time>2020-08-04T11:04:03Z</time>
      </trkpt>
      <trkpt lat="44.6644" lon="6.66354">
        <ele>1102</ele>
        <time>2020-08-04T11:04:06Z</time>
      </trkpt>
      <trkpt lat="44.66453" lon="6.66348">
        <ele>1104</ele>
        <time>2020-08-04T11:04:08Z</time>
      </trkpt>
      <trkpt lat="44.66459" lon="6.66347">
        <ele>1104</ele>
        <time>2020-08-04T11:04:09Z</time>
      </trkpt>
      <trkpt lat="44.66463" lon="6.66347">
        <ele>1105</ele>
        <time>2020-08-04T11:04:10Z</time>
      </trkpt>
      <trkpt lat="44.66495" lon="6.66347">
        <ele>1106</ele>
        <time>2020-08-04T11:04:18Z</time>
      </trkpt>
      <trkpt lat="44.66498" lon="6.66345">
        <ele>1106</ele>
        <time>2020-08-04T11:04:19Z</time>
      </trkpt>
      <trkpt lat="44.66502" lon="6.66344">
        <ele>1106</ele>
        <time>2020-08-04T11:04:20Z</time>
      </trkpt>
      <trkpt lat="44.66505" lon="6.66343">
        <ele>1106</ele>
        <time>2020-08-04T11:04:21Z</time>
      </trkpt>
      <trkpt lat="44.66508" lon="6.66341">
        <ele>1106</ele>
        <time>2020-08-04T11:04:22Z</time>
      </trkpt>
      <trkpt lat="44.6651" lon="6.66339">
        <ele>1106</ele>
        <time>2020-08-04T11:04:23Z</time>
      </trkpt>
      <trkpt lat="44.66511" lon="6.66336">
        <ele>1106</ele>
        <time>2020-08-04T11:04:24Z</time>
      </trkpt>
      <trkpt lat="44.66512" lon="6.66332">
        <ele>1106</ele>
        <time>2020-08-04T11:04:25Z</time>
      </trkpt>
      <trkpt lat="44.66512" lon="6.6633">
        <ele>1106</ele>
        <time>2020-08-04T11:04:26Z</time>
      </trkpt>
      <trkpt lat="44.66516" lon="6.66323">
        <ele>1107</ele>
        <time>2020-08-04T11:04:30Z</time>
      </trkpt>
      <trkpt lat="44.66533" lon="6.66319">
        <ele>1108</ele>
        <time>2020-08-04T11:04:40Z</time>
      </trkpt>
      <trkpt lat="44.66556" lon="6.66338">
        <ele>1106</ele>
        <time>2020-08-04T11:04:50Z</time>
      </trkpt>
      <trkpt lat="44.6658" lon="6.66347">
        <ele>1103</ele>
        <time>2020-08-04T11:05:01Z</time>
      </trkpt>
      <trkpt lat="44.666" lon="6.663">
        <ele>1104</ele>
        <time>2020-08-04T11:05:13Z</time>
      </trkpt>
      <trkpt lat="44.66601" lon="6.66294">
        <ele>1104</ele>
        <time>2020-08-04T11:05:14Z</time>
      </trkpt>
      <trkpt lat="44.66615" lon="6.66231">
        <ele>1106</ele>
        <time>2020-08-04T11:05:22Z</time>
      </trkpt>
      <trkpt lat="44.6662" lon="6.66219">
        <ele>1105</ele>
        <time>2020-08-04T11:05:24Z</time>
      </trkpt>
      <trkpt lat="44.66623" lon="6.66214">
        <ele>1105</ele>
        <time>2020-08-04T11:05:25Z</time>
      </trkpt>
      <trkpt lat="44.66641" lon="6.66166">
        <ele>1106</ele>
        <time>2020-08-04T11:05:36Z</time>
      </trkpt>
      <trkpt lat="44.66636" lon="6.66125">
        <ele>1111</ele>
        <time>2020-08-04T11:05:44Z</time>
      </trkpt>
      <trkpt lat="44.66635" lon="6.66118">
        <ele>1112</ele>
        <time>2020-08-04T11:05:45Z</time>
      </trkpt>
      <trkpt lat="44.66634" lon="6.66112">
        <ele>1113</ele>
        <time>2020-08-04T11:05:46Z</time>
      </trkpt>
      <trkpt lat="44.66634" lon="6.66107">
        <ele>1112</ele>
        <time>2020-08-04T11:05:47Z</time>
      </trkpt>
      <trkpt lat="44.66633" lon="6.66102">
        <ele>1112</ele>
        <time>2020-08-04T11:05:48Z</time>
      </trkpt>
      <trkpt lat="44.66633" lon="6.66096">
        <ele>1112</ele>
        <time>2020-08-04T11:05:49Z</time>
      </trkpt>
      <trkpt lat="44.66632" lon="6.66076">
        <ele>1110</ele>
        <time>2020-08-04T11:05:52Z</time>
      </trkpt>
      <trkpt lat="44.66633" lon="6.66056">
        <ele>1107</ele>
        <time>2020-08-04T11:05:54Z</time>
      </trkpt>
      <trkpt lat="44.66635" lon="6.66044">
        <ele>1104</ele>
        <time>2020-08-04T11:05:55Z</time>
      </trkpt>
      <trkpt lat="44.66639" lon="6.66031">
        <ele>1101</ele>
        <time>2020-08-04T11:05:56Z</time>
      </trkpt>
      <trkpt lat="44.66643" lon="6.66016">
        <ele>1097</ele>
        <time>2020-08-04T11:05:57Z</time>
      </trkpt>
      <trkpt lat="44.66645" lon="6.66">
        <ele>1094</ele>
        <time>2020-08-04T11:05:58Z</time>
      </trkpt>
      <trkpt lat="44.66646" lon="6.65987">
        <ele>1092</ele>
        <time>2020-08-04T11:05:59Z</time>
      </trkpt>
      <trkpt lat="44.66646" lon="6.65975">
        <ele>1090</ele>
        <time>2020-08-04T11:06:00Z</time>
      </trkpt>
      <trkpt lat="44.66648" lon="6.65963">
        <ele>1089</ele>
        <time>2020-08-04T11:06:01Z</time>
      </trkpt>
      <trkpt lat="44.6665" lon="6.65952">
        <ele>1088</ele>
        <time>2020-08-04T11:06:02Z</time>
      </trkpt>
      <trkpt lat="44.66653" lon="6.65941">
        <ele>1087</ele>
        <time>2020-08-04T11:06:03Z</time>
      </trkpt>
      <trkpt lat="44.66656" lon="6.65931">
        <ele>1087</ele>
        <time>2020-08-04T11:06:04Z</time>
      </trkpt>
      <trkpt lat="44.66658" lon="6.65924">
        <ele>1086</ele>
        <time>2020-08-04T11:06:05Z</time>
      </trkpt>
      <trkpt lat="44.66659" lon="6.6592">
        <ele>1086</ele>
        <time>2020-08-04T11:06:06Z</time>
      </trkpt>
      <trkpt lat="44.6666" lon="6.65918">
        <ele>1086</ele>
        <time>2020-08-04T11:06:08Z</time>
      </trkpt>
      <trkpt lat="44.66661" lon="6.65918">
        <ele>1086</ele>
        <time>2020-08-04T11:06:10Z</time>
      </trkpt>
      <trkpt lat="44.66667" lon="6.65913">
        <ele>1086</ele>
        <time>2020-08-04T11:06:43Z</time>
      </trkpt>
      <trkpt lat="44.66682" lon="6.65905">
        <ele>1084</ele>
        <time>2020-08-04T11:06:47Z</time>
      </trkpt>
      <trkpt lat="44.66686" lon="6.65902">
        <ele>1084</ele>
        <time>2020-08-04T11:06:48Z</time>
      </trkpt>
      <trkpt lat="44.66689" lon="6.65898">
        <ele>1083</ele>
        <time>2020-08-04T11:06:49Z</time>
      </trkpt>
      <trkpt lat="44.66692" lon="6.65893">
        <ele>1083</ele>
        <time>2020-08-04T11:06:50Z</time>
      </trkpt>
      <trkpt lat="44.66696" lon="6.65887">
        <ele>1084</ele>
        <time>2020-08-04T11:06:51Z</time>
      </trkpt>
      <trkpt lat="44.66705" lon="6.65867">
        <ele>1085</ele>
        <time>2020-08-04T11:06:54Z</time>
      </trkpt>
      <trkpt lat="44.66726" lon="6.65833">
        <ele>1085</ele>
        <time>2020-08-04T11:07:02Z</time>
      </trkpt>
      <trkpt lat="44.66729" lon="6.6583">
        <ele>1084</ele>
        <time>2020-08-04T11:07:03Z</time>
      </trkpt>
      <trkpt lat="44.66737" lon="6.65822">
        <ele>1082</ele>
        <time>2020-08-04T11:07:06Z</time>
      </trkpt>
      <trkpt lat="44.66749" lon="6.65808">
        <ele>1080</ele>
        <time>2020-08-04T11:07:09Z</time>
      </trkpt>
      <trkpt lat="44.66763" lon="6.65798">
        <ele>1075</ele>
        <time>2020-08-04T11:07:13Z</time>
      </trkpt>
      <trkpt lat="44.66788" lon="6.65776">
        <ele>1068</ele>
        <time>2020-08-04T11:07:20Z</time>
      </trkpt>
      <trkpt lat="44.66811" lon="6.6575">
        <ele>1061</ele>
        <time>2020-08-04T11:07:25Z</time>
      </trkpt>
      <trkpt lat="44.66826" lon="6.65739">
        <ele>1058</ele>
        <time>2020-08-04T11:07:29Z</time>
      </trkpt>
      <trkpt lat="44.66847" lon="6.65729">
        <ele>1046</ele>
        <time>2020-08-04T11:07:34Z</time>
      </trkpt>
      <trkpt lat="44.66852" lon="6.65725">
        <ele>1043</ele>
        <time>2020-08-04T11:07:35Z</time>
      </trkpt>
      <trkpt lat="44.66882" lon="6.65703">
        <ele>1019</ele>
        <time>2020-08-04T11:07:41Z</time>
      </trkpt>
      <trkpt lat="44.66886" lon="6.65698">
        <ele>1018</ele>
        <time>2020-08-04T11:07:42Z</time>
      </trkpt>
      <trkpt lat="44.66891" lon="6.6569">
        <ele>1018</ele>
        <time>2020-08-04T11:07:44Z</time>
      </trkpt>
      <trkpt lat="44.66893" lon="6.65679">
        <ele>1023</ele>
        <time>2020-08-04T11:07:48Z</time>
      </trkpt>
      <trkpt lat="44.66904" lon="6.65653">
        <ele>1024</ele>
        <time>2020-08-04T11:07:55Z</time>
      </trkpt>
      <trkpt lat="44.66909" lon="6.65615">
        <ele>1043</ele>
        <time>2020-08-04T11:08:03Z</time>
      </trkpt>
      <trkpt lat="44.66906" lon="6.65598">
        <ele>1050</ele>
        <time>2020-08-04T11:08:06Z</time>
      </trkpt>
      <trkpt lat="44.66906" lon="6.65574">
        <ele>1054</ele>
        <time>2020-08-04T11:08:10Z</time>
      </trkpt>
      <trkpt lat="44.66905" lon="6.65561">
        <ele>1056</ele>
        <time>2020-08-04T11:08:12Z</time>
      </trkpt>
      <trkpt lat="44.66895" lon="6.65531">
        <ele>1058</ele>
        <time>2020-08-04T11:08:17Z</time>
      </trkpt>
      <trkpt lat="44.66891" lon="6.65505">
        <ele>1058</ele>
        <time>2020-08-04T11:08:22Z</time>
      </trkpt>
      <trkpt lat="44.66902" lon="6.65474">
        <ele>1056</ele>
        <time>2020-08-04T11:08:29Z</time>
      </trkpt>
      <trkpt lat="44.66907" lon="6.65447">
        <ele>1055</ele>
        <time>2020-08-04T11:08:33Z</time>
      </trkpt>
      <trkpt lat="44.66913" lon="6.65418">
        <ele>1055</ele>
        <time>2020-08-04T11:08:40Z</time>
      </trkpt>
      <trkpt lat="44.66917" lon="6.65421">
        <ele>1055</ele>
        <time>2020-08-04T11:08:41Z</time>
      </trkpt>
      <trkpt lat="44.66943" lon="6.65396">
        <ele>1050</ele>
        <time>2020-08-04T11:08:49Z</time>
      </trkpt>
      <trkpt lat="44.66948" lon="6.65381">
        <ele>1049</ele>
        <time>2020-08-04T11:08:52Z</time>
      </trkpt>
      <trkpt lat="44.66955" lon="6.65358">
        <ele>1049</ele>
        <time>2020-08-04T11:08:56Z</time>
      </trkpt>
      <trkpt lat="44.66965" lon="6.65325">
        <ele>1049</ele>
        <time>2020-08-04T11:09:02Z</time>
      </trkpt>
      <trkpt lat="44.66977" lon="6.6529">
        <ele>1043</ele>
        <time>2020-08-04T11:09:08Z</time>
      </trkpt>
      <trkpt lat="44.6698" lon="6.6528">
        <ele>1039</ele>
        <time>2020-08-04T11:09:10Z</time>
      </trkpt>
      <trkpt lat="44.66988" lon="6.65243">
        <ele>1029</ele>
        <time>2020-08-04T11:09:15Z</time>
      </trkpt>
      <trkpt lat="44.66988" lon="6.65235">
        <ele>1029</ele>
        <time>2020-08-04T11:09:16Z</time>
      </trkpt>
      <trkpt lat="44.66969" lon="6.65197">
        <ele>1044</ele>
        <time>2020-08-04T11:09:22Z</time>
      </trkpt>
      <trkpt lat="44.66968" lon="6.65194">
        <ele>1045</ele>
        <time>2020-08-04T11:09:26Z</time>
      </trkpt>
      <trkpt lat="44.66964" lon="6.65193">
        <ele>1048</ele>
        <time>2020-08-04T11:09:32Z</time>
      </trkpt>
      <trkpt lat="44.66955" lon="6.65171">
        <ele>1051</ele>
        <time>2020-08-04T11:10:07Z</time>
      </trkpt>
      <trkpt lat="44.66958" lon="6.65165">
        <ele>1047</ele>
        <time>2020-08-04T11:10:08Z</time>
      </trkpt>
      <trkpt lat="44.66958" lon="6.65131">
        <ele>1041</ele>
        <time>2020-08-04T11:10:13Z</time>
      </trkpt>
      <trkpt lat="44.66954" lon="6.65096">
        <ele>1042</ele>
        <time>2020-08-04T11:10:18Z</time>
      </trkpt>
      <trkpt lat="44.66955" lon="6.65089">
        <ele>1040</ele>
        <time>2020-08-04T11:10:19Z</time>
      </trkpt>
      <trkpt lat="44.66958" lon="6.65084">
        <ele>1036</ele>
        <time>2020-08-04T11:10:20Z</time>
      </trkpt>
      <trkpt lat="44.66962" lon="6.65079">
        <ele>1031</ele>
        <time>2020-08-04T11:10:21Z</time>
      </trkpt>
      <trkpt lat="44.66965" lon="6.65072">
        <ele>1028</ele>
        <time>2020-08-04T11:10:22Z</time>
      </trkpt>
      <trkpt lat="44.66967" lon="6.65068">
        <ele>1025</ele>
        <time>2020-08-04T11:10:23Z</time>
      </trkpt>
      <trkpt lat="44.66969" lon="6.65066">
        <ele>1022</ele>
        <time>2020-08-04T11:10:24Z</time>
      </trkpt>
      <trkpt lat="44.66972" lon="6.65065">
        <ele>1019</ele>
        <time>2020-08-04T11:10:25Z</time>
      </trkpt>
      <trkpt lat="44.66974" lon="6.65065">
        <ele>1018</ele>
        <time>2020-08-04T11:10:26Z</time>
      </trkpt>
      <trkpt lat="44.66976" lon="6.65065">
        <ele>1017</ele>
        <time>2020-08-04T11:10:27Z</time>
      </trkpt>
      <trkpt lat="44.66977" lon="6.65066">
        <ele>1017</ele>
        <time>2020-08-04T11:10:28Z</time>
      </trkpt>
      <trkpt lat="44.66978" lon="6.65069">
        <ele>1017</ele>
        <time>2020-08-04T11:10:29Z</time>
      </trkpt>
      <trkpt lat="44.66977" lon="6.65072">
        <ele>1017</ele>
        <time>2020-08-04T11:10:30Z</time>
      </trkpt>
      <trkpt lat="44.66977" lon="6.65076">
        <ele>1018</ele>
        <time>2020-08-04T11:10:31Z</time>
      </trkpt>
      <trkpt lat="44.66976" lon="6.65079">
        <ele>1019</ele>
        <time>2020-08-04T11:10:32Z</time>
      </trkpt>
      <trkpt lat="44.66977" lon="6.65087">
        <ele>1020</ele>
        <time>2020-08-04T11:10:34Z</time>
      </trkpt>
      <trkpt lat="44.66978" lon="6.65091">
        <ele>1020</ele>
        <time>2020-08-04T11:10:35Z</time>
      </trkpt>
      <trkpt lat="44.66979" lon="6.65095">
        <ele>1019</ele>
        <time>2020-08-04T11:10:36Z</time>
      </trkpt>
      <trkpt lat="44.66981" lon="6.65098">
        <ele>1018</ele>
        <time>2020-08-04T11:10:37Z</time>
      </trkpt>
      <trkpt lat="44.66982" lon="6.65101">
        <ele>1018</ele>
        <time>2020-08-04T11:10:38Z</time>
      </trkpt>
      <trkpt lat="44.66983" lon="6.65103">
        <ele>1018</ele>
        <time>2020-08-04T11:10:39Z</time>
      </trkpt>
      <trkpt lat="44.66983" lon="6.65107">
        <ele>1018</ele>
        <time>2020-08-04T11:10:40Z</time>
      </trkpt>
      <trkpt lat="44.66984" lon="6.65109">
        <ele>1017</ele>
        <time>2020-08-04T11:10:41Z</time>
      </trkpt>
      <trkpt lat="44.66987" lon="6.65109">
        <ele>1015</ele>
        <time>2020-08-04T11:10:42Z</time>
      </trkpt>
      <trkpt lat="44.66989" lon="6.65107">
        <ele>1013</ele>
        <time>2020-08-04T11:10:43Z</time>
      </trkpt>
      <trkpt lat="44.66999" lon="6.65102">
        <ele>1006</ele>
        <time>2020-08-04T11:10:51Z</time>
      </trkpt>
      <trkpt lat="44.67002" lon="6.651">
        <ele>1004</ele>
        <time>2020-08-04T11:10:52Z</time>
      </trkpt>
      <trkpt lat="44.67004" lon="6.65098">
        <ele>1003</ele>
        <time>2020-08-04T11:10:53Z</time>
      </trkpt>
      <trkpt lat="44.67006" lon="6.65096">
        <ele>1002</ele>
        <time>2020-08-04T11:10:54Z</time>
      </trkpt>
      <trkpt lat="44.67007" lon="6.65092">
        <ele>1002</ele>
        <time>2020-08-04T11:10:55Z</time>
      </trkpt>
      <trkpt lat="44.67008" lon="6.65089">
        <ele>1001</ele>
        <time>2020-08-04T11:10:56Z</time>
      </trkpt>
      <trkpt lat="44.67009" lon="6.65087">
        <ele>1000</ele>
        <time>2020-08-04T11:10:57Z</time>
      </trkpt>
      <trkpt lat="44.67012" lon="6.65081">
        <ele>998</ele>
        <time>2020-08-04T11:11:00Z</time>
      </trkpt>
      <trkpt lat="44.67022" lon="6.65073">
        <ele>993</ele>
        <time>2020-08-04T11:11:06Z</time>
      </trkpt>
      <trkpt lat="44.67024" lon="6.65068">
        <ele>992</ele>
        <time>2020-08-04T11:11:07Z</time>
      </trkpt>
      <trkpt lat="44.67028" lon="6.65048">
        <ele>989</ele>
        <time>2020-08-04T11:11:11Z</time>
      </trkpt>
      <trkpt lat="44.67029" lon="6.65039">
        <ele>989</ele>
        <time>2020-08-04T11:11:14Z</time>
      </trkpt>
      <trkpt lat="44.67037" lon="6.65042">
        <ele>985</ele>
        <time>2020-08-04T11:11:18Z</time>
      </trkpt>
      <trkpt lat="44.67038" lon="6.6504">
        <ele>985</ele>
        <time>2020-08-04T11:11:19Z</time>
      </trkpt>
      <trkpt lat="44.67043" lon="6.65016">
        <ele>982</ele>
        <time>2020-08-04T11:11:24Z</time>
      </trkpt>
      <trkpt lat="44.67035" lon="6.64984">
        <ele>983</ele>
        <time>2020-08-04T11:11:30Z</time>
      </trkpt>
      <trkpt lat="44.67031" lon="6.64974">
        <ele>984</ele>
        <time>2020-08-04T11:11:32Z</time>
      </trkpt>
      <trkpt lat="44.67029" lon="6.64961">
        <ele>982</ele>
        <time>2020-08-04T11:11:34Z</time>
      </trkpt>
      <trkpt lat="44.67019" lon="6.64946">
        <ele>983</ele>
        <time>2020-08-04T11:11:37Z</time>
      </trkpt>
      <trkpt lat="44.67017" lon="6.649">
        <ele>974</ele>
        <time>2020-08-04T11:11:43Z</time>
      </trkpt>
      <trkpt lat="44.67015" lon="6.6488">
        <ele>972</ele>
        <time>2020-08-04T11:11:46Z</time>
      </trkpt>
      <trkpt lat="44.67017" lon="6.6487">
        <ele>970</ele>
        <time>2020-08-04T11:11:48Z</time>
      </trkpt>
      <trkpt lat="44.6703" lon="6.64838">
        <ele>963</ele>
        <time>2020-08-04T11:11:54Z</time>
      </trkpt>
      <trkpt lat="44.67031" lon="6.64832">
        <ele>962</ele>
        <time>2020-08-04T11:11:56Z</time>
      </trkpt>
      <trkpt lat="44.6704" lon="6.64824">
        <ele>957</ele>
        <time>2020-08-04T11:12:00Z</time>
      </trkpt>
      <trkpt lat="44.67042" lon="6.64818">
        <ele>955</ele>
        <time>2020-08-04T11:12:01Z</time>
      </trkpt>
      <trkpt lat="44.67048" lon="6.64789">
        <ele>949</ele>
        <time>2020-08-04T11:12:06Z</time>
      </trkpt>
      <trkpt lat="44.67045" lon="6.64782">
        <ele>951</ele>
        <time>2020-08-04T11:12:09Z</time>
      </trkpt>
      <trkpt lat="44.67041" lon="6.64789">
        <ele>954</ele>
        <time>2020-08-04T11:12:12Z</time>
      </trkpt>
      <trkpt lat="44.6705" lon="6.64775">
        <ele>947</ele>
        <time>2020-08-04T11:12:18Z</time>
      </trkpt>
      <trkpt lat="44.67056" lon="6.64763">
        <ele>943</ele>
        <time>2020-08-04T11:12:20Z</time>
      </trkpt>
      <trkpt lat="44.67063" lon="6.64743">
        <ele>938</ele>
        <time>2020-08-04T11:12:23Z</time>
      </trkpt>
      <trkpt lat="44.67059" lon="6.64693">
        <ele>936</ele>
        <time>2020-08-04T11:12:28Z</time>
      </trkpt>
      <trkpt lat="44.67056" lon="6.64644">
        <ele>939</ele>
        <time>2020-08-04T11:12:34Z</time>
      </trkpt>
      <trkpt lat="44.67065" lon="6.64622">
        <ele>937</ele>
        <time>2020-08-04T11:12:38Z</time>
      </trkpt>
      <trkpt lat="44.67073" lon="6.64594">
        <ele>935</ele>
        <time>2020-08-04T11:12:44Z</time>
      </trkpt>
      <trkpt lat="44.67075" lon="6.6458">
        <ele>934</ele>
        <time>2020-08-04T11:12:52Z</time>
      </trkpt>
      <trkpt lat="44.67076" lon="6.6457">
        <ele>934</ele>
        <time>2020-08-04T11:13:27Z</time>
      </trkpt>
      <trkpt lat="44.6709" lon="6.64527">
        <ele>932</ele>
        <time>2020-08-04T11:13:34Z</time>
      </trkpt>
      <trkpt lat="44.67089" lon="6.64513">
        <ele>932</ele>
        <time>2020-08-04T11:13:38Z</time>
      </trkpt>
      <trkpt lat="44.67096" lon="6.6451">
        <ele>930</ele>
        <time>2020-08-04T11:13:43Z</time>
      </trkpt>
      <trkpt lat="44.67098" lon="6.64514">
        <ele>930</ele>
        <time>2020-08-04T11:13:44Z</time>
      </trkpt>
      <trkpt lat="44.67099" lon="6.64517">
        <ele>929</ele>
        <time>2020-08-04T11:13:45Z</time>
      </trkpt>
      <trkpt lat="44.67101" lon="6.6452">
        <ele>929</ele>
        <time>2020-08-04T11:13:46Z</time>
      </trkpt>
      <trkpt lat="44.67102" lon="6.64522">
        <ele>928</ele>
        <time>2020-08-04T11:13:47Z</time>
      </trkpt>
      <trkpt lat="44.67107" lon="6.6453">
        <ele>927</ele>
        <time>2020-08-04T11:13:52Z</time>
      </trkpt>
      <trkpt lat="44.67113" lon="6.64525">
        <ele>925</ele>
        <time>2020-08-04T11:13:55Z</time>
      </trkpt>
      <trkpt lat="44.67115" lon="6.64525">
        <ele>925</ele>
        <time>2020-08-04T11:13:56Z</time>
      </trkpt>
      <trkpt lat="44.67117" lon="6.64525">
        <ele>925</ele>
        <time>2020-08-04T11:13:57Z</time>
      </trkpt>
      <trkpt lat="44.67119" lon="6.64526">
        <ele>924</ele>
        <time>2020-08-04T11:13:58Z</time>
      </trkpt>
      <trkpt lat="44.6712" lon="6.64525">
        <ele>924</ele>
        <time>2020-08-04T11:13:59Z</time>
      </trkpt>
      <trkpt lat="44.67122" lon="6.64519">
        <ele>924</ele>
        <time>2020-08-04T11:14:04Z</time>
      </trkpt>
      <trkpt lat="44.67125" lon="6.64511">
        <ele>924</ele>
        <time>2020-08-04T11:14:06Z</time>
      </trkpt>
      <trkpt lat="44.67129" lon="6.64478">
        <ele>924</ele>
        <time>2020-08-04T11:14:15Z</time>
      </trkpt>
      <trkpt lat="44.67129" lon="6.64478">
        <ele>924</ele>
        <time>2020-08-04T11:14:18Z</time>
      </trkpt>
      <trkpt lat="44.67127" lon="6.64469">
        <ele>925</ele>
        <time>2020-08-04T11:14:33Z</time>
      </trkpt>
      <trkpt lat="44.67128" lon="6.64429">
        <ele>924</ele>
        <time>2020-08-04T11:14:41Z</time>
      </trkpt>
      <trkpt lat="44.67125" lon="6.64406">
        <ele>923</ele>
        <time>2020-08-04T11:14:45Z</time>
      </trkpt>
      <trkpt lat="44.67128" lon="6.64307">
        <ele>922</ele>
        <time>2020-08-04T11:15:00Z</time>
      </trkpt>
      <trkpt lat="44.67141" lon="6.64277">
        <ele>919</ele>
        <time>2020-08-04T11:15:08Z</time>
      </trkpt>
      <trkpt lat="44.67147" lon="6.6426">
        <ele>919</ele>
        <time>2020-08-04T11:15:12Z</time>
      </trkpt>
      <trkpt lat="44.67148" lon="6.64255">
        <ele>919</ele>
        <time>2020-08-04T11:15:13Z</time>
      </trkpt>
      <trkpt lat="44.67151" lon="6.64245">
        <ele>918</ele>
        <time>2020-08-04T11:15:15Z</time>
      </trkpt>
      <trkpt lat="44.67163" lon="6.64227">
        <ele>916</ele>
        <time>2020-08-04T11:15:19Z</time>
      </trkpt>
      <trkpt lat="44.67174" lon="6.64209">
        <ele>916</ele>
        <time>2020-08-04T11:15:24Z</time>
      </trkpt>
      <trkpt lat="44.67172" lon="6.64198">
        <ele>916</ele>
        <time>2020-08-04T11:15:26Z</time>
      </trkpt>
      <trkpt lat="44.67169" lon="6.6416">
        <ele>919</ele>
        <time>2020-08-04T11:15:32Z</time>
      </trkpt>
      <trkpt lat="44.67171" lon="6.64146">
        <ele>919</ele>
        <time>2020-08-04T11:15:34Z</time>
      </trkpt>
      <trkpt lat="44.67177" lon="6.6412">
        <ele>919</ele>
        <time>2020-08-04T11:15:38Z</time>
      </trkpt>
      <trkpt lat="44.67186" lon="6.64088">
        <ele>916</ele>
        <time>2020-08-04T11:15:45Z</time>
      </trkpt>
      <trkpt lat="44.67175" lon="6.64061">
        <ele>918</ele>
        <time>2020-08-04T11:15:53Z</time>
      </trkpt>
      <trkpt lat="44.67168" lon="6.64043">
        <ele>918</ele>
        <time>2020-08-04T11:15:58Z</time>
      </trkpt>
      <trkpt lat="44.67156" lon="6.64027">
        <ele>924</ele>
        <time>2020-08-04T11:16:03Z</time>
      </trkpt>
      <trkpt lat="44.67156" lon="6.64016">
        <ele>924</ele>
        <time>2020-08-04T11:16:06Z</time>
      </trkpt>
      <trkpt lat="44.67157" lon="6.6399">
        <ele>921</ele>
        <time>2020-08-04T11:16:12Z</time>
      </trkpt>
      <trkpt lat="44.67153" lon="6.63985">
        <ele>923</ele>
        <time>2020-08-04T11:16:19Z</time>
      </trkpt>
      <trkpt lat="44.67146" lon="6.63981">
        <ele>926</ele>
        <time>2020-08-04T11:17:17Z</time>
      </trkpt>
      <trkpt lat="44.67147" lon="6.63977">
        <ele>926</ele>
        <time>2020-08-04T11:17:22Z</time>
      </trkpt>
      <trkpt lat="44.67123" lon="6.6392">
        <ele>934</ele>
        <time>2020-08-04T11:18:39Z</time>
      </trkpt>
      <trkpt lat="44.67123" lon="6.63917">
        <ele>934</ele>
        <time>2020-08-04T11:18:40Z</time>
      </trkpt>
      <trkpt lat="44.67127" lon="6.63914">
        <ele>932</ele>
        <time>2020-08-04T11:18:46Z</time>
      </trkpt>
      <trkpt lat="44.67129" lon="6.63911">
        <ele>930</ele>
        <time>2020-08-04T11:18:48Z</time>
      </trkpt>
      <trkpt lat="44.67139" lon="6.63894">
        <ele>922</ele>
        <time>2020-08-04T11:18:55Z</time>
      </trkpt>
      <trkpt lat="44.67131" lon="6.63893">
        <ele>926</ele>
        <time>2020-08-04T11:19:08Z</time>
      </trkpt>
      <trkpt lat="44.6713" lon="6.63904">
        <ele>929</ele>
        <time>2020-08-04T11:19:17Z</time>
      </trkpt>
      <trkpt lat="44.6713" lon="6.63911">
        <ele>930</ele>
        <time>2020-08-04T11:19:21Z</time>
      </trkpt>
      <trkpt lat="44.67125" lon="6.63918">
        <ele>933</ele>
        <time>2020-08-04T11:19:29Z</time>
      </trkpt>
      <trkpt lat="44.6711" lon="6.63875">
        <ele>937</ele>
        <time>2020-08-04T11:20:14Z</time>
      </trkpt>
      <trkpt lat="44.67112" lon="6.6387">
        <ele>936</ele>
        <time>2020-08-04T11:20:15Z</time>
      </trkpt>
      <trkpt lat="44.67124" lon="6.63843">
        <ele>925</ele>
        <time>2020-08-04T11:20:21Z</time>
      </trkpt>
      <trkpt lat="44.67132" lon="6.63826">
        <ele>920</ele>
        <time>2020-08-04T11:20:26Z</time>
      </trkpt>
      <trkpt lat="44.67126" lon="6.63817">
        <ele>922</ele>
        <time>2020-08-04T11:20:29Z</time>
      </trkpt>
      <trkpt lat="44.67124" lon="6.63811">
        <ele>923</ele>
        <time>2020-08-04T11:20:31Z</time>
      </trkpt>
      <trkpt lat="44.67117" lon="6.63789">
        <ele>923</ele>
        <time>2020-08-04T11:20:39Z</time>
      </trkpt>
      <trkpt lat="44.67113" lon="6.63771">
        <ele>922</ele>
        <time>2020-08-04T11:20:43Z</time>
      </trkpt>
      <trkpt lat="44.67109" lon="6.63759">
        <ele>922</ele>
        <time>2020-08-04T11:20:45Z</time>
      </trkpt>
      <trkpt lat="44.67103" lon="6.63747">
        <ele>923</ele>
        <time>2020-08-04T11:20:47Z</time>
      </trkpt>
      <trkpt lat="44.67095" lon="6.63709">
        <ele>920</ele>
        <time>2020-08-04T11:20:55Z</time>
      </trkpt>
      <trkpt lat="44.67093" lon="6.637">
        <ele>919</ele>
        <time>2020-08-04T11:20:57Z</time>
      </trkpt>
      <trkpt lat="44.67082" lon="6.63681">
        <ele>919</ele>
        <time>2020-08-04T11:21:05Z</time>
      </trkpt>
      <trkpt lat="44.67074" lon="6.63678">
        <ele>922</ele>
        <time>2020-08-04T11:21:11Z</time>
      </trkpt>
      <trkpt lat="44.67067" lon="6.63673">
        <ele>923</ele>
        <time>2020-08-04T11:21:16Z</time>
      </trkpt>
      <trkpt lat="44.67058" lon="6.63666">
        <ele>924</ele>
        <time>2020-08-04T11:21:25Z</time>
      </trkpt>
      <trkpt lat="44.67054" lon="6.63654">
        <ele>923</ele>
        <time>2020-08-04T11:21:36Z</time>
      </trkpt>
      <trkpt lat="44.67052" lon="6.63652">
        <ele>924</ele>
        <time>2020-08-04T11:21:38Z</time>
      </trkpt>
      <trkpt lat="44.6705" lon="6.63643">
        <ele>922</ele>
        <time>2020-08-04T11:21:48Z</time>
      </trkpt>
      <trkpt lat="44.67047" lon="6.63633">
        <ele>922</ele>
        <time>2020-08-04T11:21:51Z</time>
      </trkpt>
      <trkpt lat="44.6704" lon="6.63612">
        <ele>922</ele>
        <time>2020-08-04T11:21:55Z</time>
      </trkpt>
      <trkpt lat="44.67032" lon="6.63576">
        <ele>923</ele>
        <time>2020-08-04T11:22:04Z</time>
      </trkpt>
      <trkpt lat="44.67032" lon="6.63572">
        <ele>922</ele>
        <time>2020-08-04T11:22:06Z</time>
      </trkpt>
      <trkpt lat="44.67026" lon="6.63563">
        <ele>923</ele>
        <time>2020-08-04T11:22:11Z</time>
      </trkpt>
      <trkpt lat="44.67016" lon="6.6355">
        <ele>926</ele>
        <time>2020-08-04T11:22:15Z</time>
      </trkpt>
      <trkpt lat="44.6699" lon="6.63514">
        <ele>925</ele>
        <time>2020-08-04T11:22:24Z</time>
      </trkpt>
      <trkpt lat="44.66977" lon="6.63505">
        <ele>926</ele>
        <time>2020-08-04T11:22:26Z</time>
      </trkpt>
      <trkpt lat="44.66967" lon="6.63497">
        <ele>925</ele>
        <time>2020-08-04T11:22:29Z</time>
      </trkpt>
      <trkpt lat="44.66957" lon="6.6349">
        <ele>924</ele>
        <time>2020-08-04T11:22:33Z</time>
      </trkpt>
      <trkpt lat="44.66956" lon="6.63487">
        <ele>924</ele>
        <time>2020-08-04T11:22:43Z</time>
      </trkpt>
      <trkpt lat="44.66943" lon="6.6348">
        <ele>924</ele>
        <time>2020-08-04T11:23:00Z</time>
      </trkpt>
      <trkpt lat="44.66925" lon="6.63457">
        <ele>925</ele>
        <time>2020-08-04T11:23:08Z</time>
      </trkpt>
      <trkpt lat="44.66921" lon="6.63451">
        <ele>925</ele>
        <time>2020-08-04T11:23:14Z</time>
      </trkpt>
      <trkpt lat="44.66918" lon="6.63447">
        <ele>925</ele>
        <time>2020-08-04T11:23:18Z</time>
      </trkpt>
      <trkpt lat="44.66907" lon="6.63423">
        <ele>924</ele>
        <time>2020-08-04T11:23:26Z</time>
      </trkpt>
      <trkpt lat="44.66891" lon="6.63402">
        <ele>924</ele>
        <time>2020-08-04T11:23:32Z</time>
      </trkpt>
      <trkpt lat="44.66883" lon="6.63384">
        <ele>925</ele>
        <time>2020-08-04T11:23:37Z</time>
      </trkpt>
      <trkpt lat="44.66865" lon="6.6335">
        <ele>923</ele>
        <time>2020-08-04T11:23:45Z</time>
      </trkpt>
      <trkpt lat="44.66864" lon="6.63345">
        <ele>923</ele>
        <time>2020-08-04T11:23:46Z</time>
      </trkpt>
      <trkpt lat="44.66864" lon="6.63339">
        <ele>922</ele>
        <time>2020-08-04T11:23:48Z</time>
      </trkpt>
      <trkpt lat="44.66857" lon="6.63309">
        <ele>920</ele>
        <time>2020-08-04T11:23:55Z</time>
      </trkpt>
      <trkpt lat="44.66857" lon="6.63305">
        <ele>919</ele>
        <time>2020-08-04T11:23:56Z</time>
      </trkpt>
      <trkpt lat="44.66857" lon="6.63295">
        <ele>918</ele>
        <time>2020-08-04T11:23:58Z</time>
      </trkpt>
      <trkpt lat="44.66856" lon="6.63287">
        <ele>918</ele>
        <time>2020-08-04T11:24:00Z</time>
      </trkpt>
      <trkpt lat="44.66844" lon="6.63265">
        <ele>923</ele>
        <time>2020-08-04T11:24:09Z</time>
      </trkpt>
      <trkpt lat="44.66842" lon="6.6325">
        <ele>924</ele>
        <time>2020-08-04T11:24:14Z</time>
      </trkpt>
      <trkpt lat="44.66845" lon="6.6323">
        <ele>923</ele>
        <time>2020-08-04T11:24:19Z</time>
      </trkpt>
      <trkpt lat="44.66839" lon="6.63217">
        <ele>923</ele>
        <time>2020-08-04T11:24:24Z</time>
      </trkpt>
      <trkpt lat="44.66832" lon="6.63206">
        <ele>923</ele>
        <time>2020-08-04T11:24:30Z</time>
      </trkpt>
      <trkpt lat="44.66832" lon="6.63194">
        <ele>922</ele>
        <time>2020-08-04T11:24:36Z</time>
      </trkpt>
      <trkpt lat="44.66828" lon="6.6318">
        <ele>918</ele>
        <time>2020-08-04T11:24:39Z</time>
      </trkpt>
      <trkpt lat="44.66826" lon="6.63153">
        <ele>913</ele>
        <time>2020-08-04T11:24:44Z</time>
      </trkpt>
      <trkpt lat="44.66814" lon="6.63114">
        <ele>916</ele>
        <time>2020-08-04T11:24:51Z</time>
      </trkpt>
      <trkpt lat="44.66807" lon="6.63109">
        <ele>917</ele>
        <time>2020-08-04T11:24:55Z</time>
      </trkpt>
      <trkpt lat="44.66803" lon="6.63103">
        <ele>918</ele>
        <time>2020-08-04T11:24:58Z</time>
      </trkpt>
      <trkpt lat="44.66785" lon="6.63101">
        <ele>922</ele>
        <time>2020-08-04T11:25:07Z</time>
      </trkpt>
      <trkpt lat="44.66772" lon="6.63088">
        <ele>923</ele>
        <time>2020-08-04T11:25:22Z</time>
      </trkpt>
      <trkpt lat="44.6677" lon="6.63087">
        <ele>923</ele>
        <time>2020-08-04T11:25:34Z</time>
      </trkpt>
      <trkpt lat="44.66751" lon="6.63083">
        <ele>926</ele>
        <time>2020-08-04T11:25:58Z</time>
      </trkpt>
      <trkpt lat="44.66749" lon="6.63077">
        <ele>925</ele>
        <time>2020-08-04T11:26:04Z</time>
      </trkpt>
      <trkpt lat="44.66746" lon="6.63063">
        <ele>922</ele>
        <time>2020-08-04T11:26:16Z</time>
      </trkpt>
      <trkpt lat="44.66742" lon="6.6306">
        <ele>923</ele>
        <time>2020-08-04T11:26:20Z</time>
      </trkpt>
      <trkpt lat="44.66738" lon="6.63049">
        <ele>922</ele>
        <time>2020-08-04T11:26:28Z</time>
      </trkpt>
      <trkpt lat="44.66724" lon="6.63037">
        <ele>923</ele>
        <time>2020-08-04T11:26:35Z</time>
      </trkpt>
      <trkpt lat="44.66714" lon="6.63028">
        <ele>925</ele>
        <time>2020-08-04T11:26:51Z</time>
      </trkpt>
      <trkpt lat="44.66707" lon="6.63028">
        <ele>927</ele>
        <time>2020-08-04T11:27:00Z</time>
      </trkpt>
      <trkpt lat="44.66698" lon="6.63006">
        <ele>924</ele>
        <time>2020-08-04T11:27:25Z</time>
      </trkpt>
      <trkpt lat="44.66695" lon="6.63001">
        <ele>924</ele>
        <time>2020-08-04T11:27:26Z</time>
      </trkpt>
      <trkpt lat="44.66673" lon="6.62979">
        <ele>926</ele>
        <time>2020-08-04T11:27:35Z</time>
      </trkpt>
      <trkpt lat="44.66665" lon="6.6296">
        <ele>923</ele>
        <time>2020-08-04T11:27:42Z</time>
      </trkpt>
      <trkpt lat="44.66659" lon="6.62944">
        <ele>921</ele>
        <time>2020-08-04T11:27:50Z</time>
      </trkpt>
      <trkpt lat="44.66656" lon="6.6294">
        <ele>922</ele>
        <time>2020-08-04T11:27:52Z</time>
      </trkpt>
      <trkpt lat="44.66641" lon="6.62916">
        <ele>922</ele>
        <time>2020-08-04T11:28:00Z</time>
      </trkpt>
      <trkpt lat="44.66627" lon="6.62902">
        <ele>927</ele>
        <time>2020-08-04T11:28:06Z</time>
      </trkpt>
      <trkpt lat="44.66625" lon="6.62894">
        <ele>925</ele>
        <time>2020-08-04T11:28:12Z</time>
      </trkpt>
      <trkpt lat="44.66622" lon="6.62884">
        <ele>923</ele>
        <time>2020-08-04T11:28:17Z</time>
      </trkpt>
      <trkpt lat="44.66605" lon="6.62867">
        <ele>923</ele>
        <time>2020-08-04T11:28:29Z</time>
      </trkpt>
      <trkpt lat="44.66595" lon="6.62857">
        <ele>924</ele>
        <time>2020-08-04T11:28:40Z</time>
      </trkpt>
      <trkpt lat="44.66591" lon="6.62852">
        <ele>924</ele>
        <time>2020-08-04T11:28:46Z</time>
      </trkpt>
      <trkpt lat="44.66583" lon="6.62843">
        <ele>924</ele>
        <time>2020-08-04T11:28:53Z</time>
      </trkpt>
      <trkpt lat="44.66575" lon="6.62833">
        <ele>922</ele>
        <time>2020-08-04T11:29:05Z</time>
      </trkpt>
      <trkpt lat="44.66564" lon="6.6282">
        <ele>923</ele>
        <time>2020-08-04T11:29:09Z</time>
      </trkpt>
      <trkpt lat="44.66558" lon="6.62803">
        <ele>922</ele>
        <time>2020-08-04T11:29:18Z</time>
      </trkpt>
      <trkpt lat="44.66541" lon="6.62798">
        <ele>931</ele>
        <time>2020-08-04T11:29:39Z</time>
      </trkpt>
      <trkpt lat="44.66527" lon="6.62791">
        <ele>938</ele>
        <time>2020-08-04T11:29:55Z</time>
      </trkpt>
      <trkpt lat="44.66526" lon="6.62791">
        <ele>938</ele>
        <time>2020-08-04T11:29:56Z</time>
      </trkpt>
      <trkpt lat="44.66517" lon="6.62776">
        <ele>937</ele>
        <time>2020-08-04T11:30:03Z</time>
      </trkpt>
      <trkpt lat="44.66512" lon="6.62767">
        <ele>936</ele>
        <time>2020-08-04T11:30:07Z</time>
      </trkpt>
      <trkpt lat="44.66503" lon="6.6276">
        <ele>936</ele>
        <time>2020-08-04T11:30:11Z</time>
      </trkpt>
      <trkpt lat="44.66496" lon="6.62757">
        <ele>935</ele>
        <time>2020-08-04T11:30:14Z</time>
      </trkpt>
      <trkpt lat="44.6648" lon="6.62753">
        <ele>935</ele>
        <time>2020-08-04T11:30:20Z</time>
      </trkpt>
      <trkpt lat="44.66464" lon="6.62746">
        <ele>932</ele>
        <time>2020-08-04T11:30:25Z</time>
      </trkpt>
      <trkpt lat="44.66457" lon="6.62742">
        <ele>930</ele>
        <time>2020-08-04T11:30:27Z</time>
      </trkpt>
      <trkpt lat="44.66437" lon="6.6274">
        <ele>928</ele>
        <time>2020-08-04T11:30:38Z</time>
      </trkpt>
      <trkpt lat="44.66437" lon="6.6274">
        <ele>928</ele>
        <time>2020-08-04T11:30:41Z</time>
      </trkpt>
      <trkpt lat="44.66427" lon="6.62738">
        <ele>926</ele>
        <time>2020-08-04T11:30:59Z</time>
      </trkpt>
      <trkpt lat="44.66411" lon="6.62732">
        <ele>924</ele>
        <time>2020-08-04T11:31:03Z</time>
      </trkpt>
      <trkpt lat="44.66391" lon="6.62719">
        <ele>920</ele>
        <time>2020-08-04T11:31:09Z</time>
      </trkpt>
      <trkpt lat="44.66372" lon="6.6271">
        <ele>916</ele>
        <time>2020-08-04T11:31:13Z</time>
      </trkpt>
      <trkpt lat="44.66345" lon="6.62698">
        <ele>911</ele>
        <time>2020-08-04T11:31:17Z</time>
      </trkpt>
      <trkpt lat="44.66332" lon="6.62693">
        <ele>908</ele>
        <time>2020-08-04T11:31:20Z</time>
      </trkpt>
      <trkpt lat="44.66328" lon="6.62691">
        <ele>908</ele>
        <time>2020-08-04T11:31:21Z</time>
      </trkpt>
      <trkpt lat="44.66324" lon="6.62689">
        <ele>908</ele>
        <time>2020-08-04T11:31:22Z</time>
      </trkpt>
      <trkpt lat="44.66321" lon="6.62686">
        <ele>907</ele>
        <time>2020-08-04T11:31:23Z</time>
      </trkpt>
      <trkpt lat="44.66319" lon="6.62683">
        <ele>907</ele>
        <time>2020-08-04T11:31:24Z</time>
      </trkpt>
      <trkpt lat="44.66318" lon="6.62681">
        <ele>907</ele>
        <time>2020-08-04T11:31:25Z</time>
      </trkpt>
      <trkpt lat="44.66318" lon="6.62681">
        <ele>906</ele>
        <time>2020-08-04T11:31:26Z</time>
      </trkpt>
      <trkpt lat="44.66318" lon="6.62681">
        <ele>907</ele>
        <time>2020-08-04T11:31:30Z</time>
      </trkpt>
      <trkpt lat="44.66326" lon="6.62675">
        <ele>906</ele>
        <time>2020-08-04T11:31:57Z</time>
      </trkpt>
      <trkpt lat="44.6633" lon="6.62673">
        <ele>905</ele>
        <time>2020-08-04T11:31:58Z</time>
      </trkpt>
      <trkpt lat="44.66358" lon="6.6263">
        <ele>906</ele>
        <time>2020-08-04T11:32:08Z</time>
      </trkpt>
      <trkpt lat="44.66374" lon="6.62593">
        <ele>904</ele>
        <time>2020-08-04T11:32:16Z</time>
      </trkpt>
      <trkpt lat="44.66377" lon="6.62591">
        <ele>904</ele>
        <time>2020-08-04T11:32:17Z</time>
      </trkpt>
      <trkpt lat="44.6638" lon="6.62588">
        <ele>904</ele>
        <time>2020-08-04T11:32:18Z</time>
      </trkpt>
      <trkpt lat="44.66382" lon="6.62585">
        <ele>903</ele>
        <time>2020-08-04T11:32:19Z</time>
      </trkpt>
      <trkpt lat="44.66384" lon="6.62581">
        <ele>903</ele>
        <time>2020-08-04T11:32:20Z</time>
      </trkpt>
      <trkpt lat="44.66386" lon="6.62577">
        <ele>903</ele>
        <time>2020-08-04T11:32:21Z</time>
      </trkpt>
      <trkpt lat="44.66388" lon="6.62572">
        <ele>903</ele>
        <time>2020-08-04T11:32:22Z</time>
      </trkpt>
      <trkpt lat="44.66409" lon="6.62518">
        <ele>912</ele>
        <time>2020-08-04T11:32:34Z</time>
      </trkpt>
      <trkpt lat="44.66415" lon="6.62501">
        <ele>919</ele>
        <time>2020-08-04T11:32:38Z</time>
      </trkpt>
      <trkpt lat="44.66414" lon="6.62498">
        <ele>919</ele>
        <time>2020-08-04T11:32:39Z</time>
      </trkpt>
      <trkpt lat="44.66412" lon="6.62495">
        <ele>919</ele>
        <time>2020-08-04T11:32:40Z</time>
      </trkpt>
      <trkpt lat="44.66411" lon="6.62492">
        <ele>919</ele>
        <time>2020-08-04T11:32:41Z</time>
      </trkpt>
      <trkpt lat="44.6641" lon="6.62488">
        <ele>919</ele>
        <time>2020-08-04T11:32:42Z</time>
      </trkpt>
      <trkpt lat="44.66388" lon="6.62453">
        <ele>914</ele>
        <time>2020-08-04T11:32:52Z</time>
      </trkpt>
      <trkpt lat="44.66383" lon="6.62444">
        <ele>913</ele>
        <time>2020-08-04T11:32:54Z</time>
      </trkpt>
      <trkpt lat="44.66381" lon="6.62438">
        <ele>912</ele>
        <time>2020-08-04T11:32:55Z</time>
      </trkpt>
      <trkpt lat="44.6638" lon="6.62432">
        <ele>912</ele>
        <time>2020-08-04T11:32:56Z</time>
      </trkpt>
      <trkpt lat="44.66379" lon="6.62425">
        <ele>911</ele>
        <time>2020-08-04T11:32:57Z</time>
      </trkpt>
      <trkpt lat="44.66379" lon="6.62418">
        <ele>911</ele>
        <time>2020-08-04T11:32:58Z</time>
      </trkpt>
      <trkpt lat="44.66379" lon="6.6241">
        <ele>910</ele>
        <time>2020-08-04T11:32:59Z</time>
      </trkpt>
      <trkpt lat="44.6638" lon="6.62401">
        <ele>910</ele>
        <time>2020-08-04T11:33:00Z</time>
      </trkpt>
      <trkpt lat="44.66382" lon="6.62384">
        <ele>909</ele>
        <time>2020-08-04T11:33:02Z</time>
      </trkpt>
      <trkpt lat="44.66411" lon="6.62294">
        <ele>906</ele>
        <time>2020-08-04T11:33:13Z</time>
      </trkpt>
      <trkpt lat="44.6644" lon="6.62215">
        <ele>898</ele>
        <time>2020-08-04T11:33:22Z</time>
      </trkpt>
      <trkpt lat="44.66475" lon="6.62129">
        <ele>900</ele>
        <time>2020-08-04T11:33:32Z</time>
      </trkpt>
      <trkpt lat="44.66553" lon="6.62034">
        <ele>896</ele>
        <time>2020-08-04T11:33:47Z</time>
      </trkpt>
      <trkpt lat="44.6662" lon="6.6198">
        <ele>897</ele>
        <time>2020-08-04T11:33:59Z</time>
      </trkpt>
      <trkpt lat="44.66675" lon="6.61944">
        <ele>898</ele>
        <time>2020-08-04T11:34:11Z</time>
      </trkpt>
      <trkpt lat="44.6668" lon="6.61942">
        <ele>898</ele>
        <time>2020-08-04T11:34:12Z</time>
      </trkpt>
      <trkpt lat="44.66686" lon="6.6194">
        <ele>898</ele>
        <time>2020-08-04T11:34:13Z</time>
      </trkpt>
      <trkpt lat="44.66762" lon="6.61924">
        <ele>900</ele>
        <time>2020-08-04T11:34:26Z</time>
      </trkpt>
      <trkpt lat="44.66844" lon="6.619">
        <ele>892</ele>
        <time>2020-08-04T11:34:39Z</time>
      </trkpt>
      <trkpt lat="44.66871" lon="6.61893">
        <ele>893</ele>
        <time>2020-08-04T11:34:44Z</time>
      </trkpt>
      <trkpt lat="44.66876" lon="6.61891">
        <ele>893</ele>
        <time>2020-08-04T11:34:45Z</time>
      </trkpt>
      <trkpt lat="44.6691" lon="6.61863">
        <ele>892</ele>
        <time>2020-08-04T11:34:56Z</time>
      </trkpt>
      <trkpt lat="44.66935" lon="6.61851">
        <ele>891</ele>
        <time>2020-08-04T11:35:05Z</time>
      </trkpt>
      <trkpt lat="44.67018" lon="6.61851">
        <ele>889</ele>
        <time>2020-08-04T11:35:19Z</time>
      </trkpt>
      <trkpt lat="44.67131" lon="6.61834">
        <ele>893</ele>
        <time>2020-08-04T11:35:35Z</time>
      </trkpt>
      <trkpt lat="44.67137" lon="6.61832">
        <ele>893</ele>
        <time>2020-08-04T11:35:36Z</time>
      </trkpt>
      <trkpt lat="44.67164" lon="6.61821">
        <ele>892</ele>
        <time>2020-08-04T11:35:40Z</time>
      </trkpt>
      <trkpt lat="44.67259" lon="6.61782">
        <ele>887</ele>
        <time>2020-08-04T11:35:53Z</time>
      </trkpt>
      <trkpt lat="44.67282" lon="6.61776">
        <ele>887</ele>
        <time>2020-08-04T11:35:56Z</time>
      </trkpt>
      <trkpt lat="44.67346" lon="6.61759">
        <ele>888</ele>
        <time>2020-08-04T11:36:05Z</time>
      </trkpt>
      <trkpt lat="44.67438" lon="6.61733">
        <ele>888</ele>
        <time>2020-08-04T11:36:20Z</time>
      </trkpt>
      <trkpt lat="44.67465" lon="6.61725">
        <ele>888</ele>
        <time>2020-08-04T11:36:27Z</time>
      </trkpt>
      <trkpt lat="44.67469" lon="6.61722">
        <ele>888</ele>
        <time>2020-08-04T11:36:28Z</time>
      </trkpt>
      <trkpt lat="44.67476" lon="6.61713">
        <ele>889</ele>
        <time>2020-08-04T11:36:30Z</time>
      </trkpt>
      <trkpt lat="44.67478" lon="6.61707">
        <ele>889</ele>
        <time>2020-08-04T11:36:31Z</time>
      </trkpt>
      <trkpt lat="44.67479" lon="6.61701">
        <ele>889</ele>
        <time>2020-08-04T11:36:32Z</time>
      </trkpt>
      <trkpt lat="44.67479" lon="6.61694">
        <ele>889</ele>
        <time>2020-08-04T11:36:33Z</time>
      </trkpt>
      <trkpt lat="44.67478" lon="6.61687">
        <ele>889</ele>
        <time>2020-08-04T11:36:34Z</time>
      </trkpt>
      <trkpt lat="44.67478" lon="6.6168">
        <ele>889</ele>
        <time>2020-08-04T11:36:35Z</time>
      </trkpt>
      <trkpt lat="44.67478" lon="6.61673">
        <ele>889</ele>
        <time>2020-08-04T11:36:36Z</time>
      </trkpt>
      <trkpt lat="44.67473" lon="6.61629">
        <ele>888</ele>
        <time>2020-08-04T11:36:43Z</time>
      </trkpt>
      <trkpt lat="44.67478" lon="6.61572">
        <ele>886</ele>
        <time>2020-08-04T11:36:56Z</time>
      </trkpt>
      <trkpt lat="44.67478" lon="6.61572">
        <ele>886</ele>
        <time>2020-08-04T11:36:59Z</time>
      </trkpt>
    </trkseg>
  </trk>
</gpx>